<?xml version="1.0" encoding="UTF-8" standalone="no" ?>
<gpx xmlns="http://www.topografix.com/GPX/1/1" xmlns:xsi="http://www.w3.org/2001/XMLSchema-instance" xsi:schemaLocation="http://www.topografix.com/GPX/1/1 http://www.topografix.com/GPX/1/1/gpx.xsd" version="1.1" creator="VisuGPX - https://www.visugpx.com">
  <metadata>
    <name>Passa Païs, Véloccitanie : variations jour 2</name>
    <desc><![CDATA[Boucle entre Poujol-sur-Orb, Bédarieux et Faugères sur ou autour de la Passa Païs et la V84 Véloccitanie]]></desc>
  </metadata>
  <trk>
    <name><![CDATA[V 84 St-Pons Béziers J2]]></name>
    <trkseg>
      <trkpt lat="43.58183" lon="3.06405">
        <ele>185.98256</ele>
        <time>2025-10-23T07:34:36Z</time>
      </trkpt>
      <trkpt lat="43.58182" lon="3.06404">
        <ele>185.98256</ele>
        <time>2025-10-23T07:34:37Z</time>
      </trkpt>
      <trkpt lat="43.58182" lon="3.06404">
        <ele>185.98256</ele>
        <time>2025-10-23T07:34:38Z</time>
      </trkpt>
      <trkpt lat="43.58182" lon="3.06402">
        <ele>185.98256</ele>
        <time>2025-10-23T07:34:39Z</time>
      </trkpt>
      <trkpt lat="43.58182" lon="3.06401">
        <ele>185.98256</ele>
        <time>2025-10-23T07:34:40Z</time>
      </trkpt>
      <trkpt lat="43.58182" lon="3.06401">
        <ele>185.98256</ele>
        <time>2025-10-23T07:34:41Z</time>
      </trkpt>
      <trkpt lat="43.58182" lon="3.064">
        <ele>185.98256</ele>
        <time>2025-10-23T07:34:42Z</time>
      </trkpt>
      <trkpt lat="43.58182" lon="3.064">
        <ele>185.98256</ele>
        <time>2025-10-23T07:34:43Z</time>
      </trkpt>
      <trkpt lat="43.58182" lon="3.064">
        <ele>185.98256</ele>
        <time>2025-10-23T07:34:44Z</time>
      </trkpt>
      <trkpt lat="43.58182" lon="3.064">
        <ele>185.98256</ele>
        <time>2025-10-23T07:34:45Z</time>
      </trkpt>
      <trkpt lat="43.58182" lon="3.064">
        <ele>185.98256</ele>
        <time>2025-10-23T07:34:46Z</time>
      </trkpt>
      <trkpt lat="43.58183" lon="3.064">
        <ele>185.98256</ele>
        <time>2025-10-23T07:34:47Z</time>
      </trkpt>
      <trkpt lat="43.58182" lon="3.064">
        <ele>185.98256</ele>
        <time>2025-10-23T07:34:48Z</time>
      </trkpt>
      <trkpt lat="43.58182" lon="3.06399">
        <ele>185.98256</ele>
        <time>2025-10-23T07:34:49Z</time>
      </trkpt>
      <trkpt lat="43.58182" lon="3.06399">
        <ele>185.98256</ele>
        <time>2025-10-23T07:34:50Z</time>
      </trkpt>
      <trkpt lat="43.58182" lon="3.06398">
        <ele>185.98256</ele>
        <time>2025-10-23T07:34:51Z</time>
      </trkpt>
      <trkpt lat="43.58182" lon="3.06398">
        <ele>185.98256</ele>
        <time>2025-10-23T07:34:52Z</time>
      </trkpt>
      <trkpt lat="43.58182" lon="3.06397">
        <ele>185.98256</ele>
        <time>2025-10-23T07:34:53Z</time>
      </trkpt>
      <trkpt lat="43.58182" lon="3.06396">
        <ele>185.98256</ele>
        <time>2025-10-23T07:34:54Z</time>
      </trkpt>
      <trkpt lat="43.58181" lon="3.06396">
        <ele>185.98256</ele>
        <time>2025-10-23T07:34:55Z</time>
      </trkpt>
      <trkpt lat="43.58181" lon="3.06396">
        <ele>185.98256</ele>
        <time>2025-10-23T07:34:56Z</time>
      </trkpt>
      <trkpt lat="43.58181" lon="3.06396">
        <ele>185.98256</ele>
        <time>2025-10-23T07:34:57Z</time>
      </trkpt>
      <trkpt lat="43.58181" lon="3.06396">
        <ele>185.98256</ele>
        <time>2025-10-23T07:34:58Z</time>
      </trkpt>
      <trkpt lat="43.58181" lon="3.06396">
        <ele>185.98256</ele>
        <time>2025-10-23T07:34:59Z</time>
      </trkpt>
      <trkpt lat="43.58181" lon="3.06396">
        <ele>185.98256</ele>
        <time>2025-10-23T07:35:00Z</time>
      </trkpt>
      <trkpt lat="43.58181" lon="3.06396">
        <ele>185.98256</ele>
        <time>2025-10-23T07:35:01Z</time>
      </trkpt>
      <trkpt lat="43.58181" lon="3.06396">
        <ele>185.98256</ele>
        <time>2025-10-23T07:35:02Z</time>
      </trkpt>
      <trkpt lat="43.58181" lon="3.06396">
        <ele>185.98256</ele>
        <time>2025-10-23T07:35:03Z</time>
      </trkpt>
      <trkpt lat="43.58181" lon="3.06396">
        <ele>185.98256</ele>
        <time>2025-10-23T07:35:04Z</time>
      </trkpt>
      <trkpt lat="43.58181" lon="3.06396">
        <ele>185.98256</ele>
        <time>2025-10-23T07:35:05Z</time>
      </trkpt>
      <trkpt lat="43.58181" lon="3.06396">
        <ele>185.98256</ele>
        <time>2025-10-23T07:35:06Z</time>
      </trkpt>
      <trkpt lat="43.58181" lon="3.06396">
        <ele>185.98256</ele>
        <time>2025-10-23T07:35:07Z</time>
      </trkpt>
      <trkpt lat="43.58181" lon="3.06396">
        <ele>185.98256</ele>
        <time>2025-10-23T07:35:08Z</time>
      </trkpt>
      <trkpt lat="43.58181" lon="3.06396">
        <ele>185.98256</ele>
        <time>2025-10-23T07:35:09Z</time>
      </trkpt>
      <trkpt lat="43.58181" lon="3.06396">
        <ele>185.98256</ele>
        <time>2025-10-23T07:35:10Z</time>
      </trkpt>
      <trkpt lat="43.58181" lon="3.06396">
        <ele>185.98256</ele>
        <time>2025-10-23T07:35:11Z</time>
      </trkpt>
      <trkpt lat="43.58181" lon="3.06396">
        <ele>185.98256</ele>
        <time>2025-10-23T07:35:12Z</time>
      </trkpt>
      <trkpt lat="43.58181" lon="3.06396">
        <ele>185.98256</ele>
        <time>2025-10-23T07:35:13Z</time>
      </trkpt>
      <trkpt lat="43.58181" lon="3.06396">
        <ele>185.98256</ele>
        <time>2025-10-23T07:35:14Z</time>
      </trkpt>
      <trkpt lat="43.58181" lon="3.06396">
        <ele>185.98256</ele>
        <time>2025-10-23T07:35:15Z</time>
      </trkpt>
      <trkpt lat="43.58181" lon="3.06396">
        <ele>185.98256</ele>
        <time>2025-10-23T07:35:16Z</time>
      </trkpt>
      <trkpt lat="43.58181" lon="3.06396">
        <ele>185.98256</ele>
        <time>2025-10-23T07:35:17Z</time>
      </trkpt>
      <trkpt lat="43.58181" lon="3.06396">
        <ele>185.98256</ele>
        <time>2025-10-23T07:35:18Z</time>
      </trkpt>
      <trkpt lat="43.58181" lon="3.06396">
        <ele>185.98256</ele>
        <time>2025-10-23T07:35:19Z</time>
      </trkpt>
      <trkpt lat="43.58181" lon="3.06396">
        <ele>185.98256</ele>
        <time>2025-10-23T07:35:20Z</time>
      </trkpt>
      <trkpt lat="43.58181" lon="3.06396">
        <ele>185.98256</ele>
        <time>2025-10-23T07:35:21Z</time>
      </trkpt>
      <trkpt lat="43.58181" lon="3.06396">
        <ele>185.98256</ele>
        <time>2025-10-23T07:35:22Z</time>
      </trkpt>
      <trkpt lat="43.58181" lon="3.06396">
        <ele>185.98256</ele>
        <time>2025-10-23T07:35:23Z</time>
      </trkpt>
      <trkpt lat="43.58181" lon="3.06396">
        <ele>185.98256</ele>
        <time>2025-10-23T07:35:24Z</time>
      </trkpt>
      <trkpt lat="43.58181" lon="3.06396">
        <ele>185.98256</ele>
        <time>2025-10-23T07:35:25Z</time>
      </trkpt>
      <trkpt lat="43.58181" lon="3.06396">
        <ele>185.98256</ele>
        <time>2025-10-23T07:35:26Z</time>
      </trkpt>
      <trkpt lat="43.58181" lon="3.06396">
        <ele>185.98256</ele>
        <time>2025-10-23T07:35:27Z</time>
      </trkpt>
      <trkpt lat="43.58181" lon="3.06396">
        <ele>185.98256</ele>
        <time>2025-10-23T07:35:28Z</time>
      </trkpt>
      <trkpt lat="43.58181" lon="3.06396">
        <ele>185.98256</ele>
        <time>2025-10-23T07:35:29Z</time>
      </trkpt>
      <trkpt lat="43.58181" lon="3.06397">
        <ele>185.98256</ele>
        <time>2025-10-23T07:35:30Z</time>
      </trkpt>
      <trkpt lat="43.58181" lon="3.06397">
        <ele>185.98256</ele>
        <time>2025-10-23T07:35:31Z</time>
      </trkpt>
      <trkpt lat="43.58181" lon="3.06397">
        <ele>185.98256</ele>
        <time>2025-10-23T07:35:32Z</time>
      </trkpt>
      <trkpt lat="43.58182" lon="3.06397">
        <ele>185.98256</ele>
        <time>2025-10-23T07:35:33Z</time>
      </trkpt>
      <trkpt lat="43.58182" lon="3.06397">
        <ele>185.98256</ele>
        <time>2025-10-23T07:35:34Z</time>
      </trkpt>
      <trkpt lat="43.58182" lon="3.06397">
        <ele>185.98256</ele>
        <time>2025-10-23T07:35:35Z</time>
      </trkpt>
      <trkpt lat="43.58182" lon="3.06397">
        <ele>185.98256</ele>
        <time>2025-10-23T07:35:36Z</time>
      </trkpt>
      <trkpt lat="43.58182" lon="3.06397">
        <ele>185.98256</ele>
        <time>2025-10-23T07:35:37Z</time>
      </trkpt>
      <trkpt lat="43.58182" lon="3.06397">
        <ele>185.98256</ele>
        <time>2025-10-23T07:35:38Z</time>
      </trkpt>
      <trkpt lat="43.58183" lon="3.06398">
        <ele>185.98256</ele>
        <time>2025-10-23T07:35:39Z</time>
      </trkpt>
      <trkpt lat="43.58183" lon="3.06398">
        <ele>185.98256</ele>
        <time>2025-10-23T07:35:40Z</time>
      </trkpt>
      <trkpt lat="43.58183" lon="3.06398">
        <ele>185.98256</ele>
        <time>2025-10-23T07:35:41Z</time>
      </trkpt>
      <trkpt lat="43.58183" lon="3.06398">
        <ele>185.98256</ele>
        <time>2025-10-23T07:35:42Z</time>
      </trkpt>
      <trkpt lat="43.58184" lon="3.06398">
        <ele>185.98256</ele>
        <time>2025-10-23T07:35:43Z</time>
      </trkpt>
      <trkpt lat="43.58184" lon="3.06398">
        <ele>185.98256</ele>
        <time>2025-10-23T07:35:44Z</time>
      </trkpt>
      <trkpt lat="43.58184" lon="3.06398">
        <ele>185.98256</ele>
        <time>2025-10-23T07:35:45Z</time>
      </trkpt>
      <trkpt lat="43.58185" lon="3.06398">
        <ele>185.98256</ele>
        <time>2025-10-23T07:35:46Z</time>
      </trkpt>
      <trkpt lat="43.58185" lon="3.06398">
        <ele>185.98256</ele>
        <time>2025-10-23T07:35:47Z</time>
      </trkpt>
      <trkpt lat="43.58185" lon="3.06398">
        <ele>185.98256</ele>
        <time>2025-10-23T07:35:48Z</time>
      </trkpt>
      <trkpt lat="43.58185" lon="3.06398">
        <ele>185.98256</ele>
        <time>2025-10-23T07:35:49Z</time>
      </trkpt>
      <trkpt lat="43.58185" lon="3.06398">
        <ele>185.98256</ele>
        <time>2025-10-23T07:35:50Z</time>
      </trkpt>
      <trkpt lat="43.58185" lon="3.06398">
        <ele>185.98256</ele>
        <time>2025-10-23T07:35:51Z</time>
      </trkpt>
      <trkpt lat="43.58185" lon="3.06398">
        <ele>185.98256</ele>
        <time>2025-10-23T07:35:52Z</time>
      </trkpt>
      <trkpt lat="43.58185" lon="3.06398">
        <ele>185.98256</ele>
        <time>2025-10-23T07:35:53Z</time>
      </trkpt>
      <trkpt lat="43.58184" lon="3.06399">
        <ele>185.98256</ele>
        <time>2025-10-23T07:35:54Z</time>
      </trkpt>
      <trkpt lat="43.58184" lon="3.06399">
        <ele>185.98256</ele>
        <time>2025-10-23T07:35:55Z</time>
      </trkpt>
      <trkpt lat="43.58184" lon="3.06397">
        <ele>185.98256</ele>
        <time>2025-10-23T07:35:56Z</time>
      </trkpt>
      <trkpt lat="43.58182" lon="3.06396">
        <ele>185.98256</ele>
        <time>2025-10-23T07:35:57Z</time>
      </trkpt>
      <trkpt lat="43.58181" lon="3.06395">
        <ele>185.98256</ele>
        <time>2025-10-23T07:35:58Z</time>
      </trkpt>
      <trkpt lat="43.58178" lon="3.06395">
        <ele>185.98256</ele>
        <time>2025-10-23T07:35:59Z</time>
      </trkpt>
      <trkpt lat="43.58175" lon="3.06396">
        <ele>185.98256</ele>
        <time>2025-10-23T07:36:00Z</time>
      </trkpt>
      <trkpt lat="43.58173" lon="3.06397">
        <ele>185.98256</ele>
        <time>2025-10-23T07:36:01Z</time>
      </trkpt>
      <trkpt lat="43.58171" lon="3.06396">
        <ele>185.98256</ele>
        <time>2025-10-23T07:36:02Z</time>
      </trkpt>
      <trkpt lat="43.58169" lon="3.06394">
        <ele>185.98256</ele>
        <time>2025-10-23T07:36:03Z</time>
      </trkpt>
      <trkpt lat="43.58167" lon="3.06391">
        <ele>185.98256</ele>
        <time>2025-10-23T07:36:04Z</time>
      </trkpt>
      <trkpt lat="43.58165" lon="3.06388">
        <ele>185.98256</ele>
        <time>2025-10-23T07:36:05Z</time>
      </trkpt>
      <trkpt lat="43.58163" lon="3.06384">
        <ele>185.98256</ele>
        <time>2025-10-23T07:36:06Z</time>
      </trkpt>
      <trkpt lat="43.58161" lon="3.06381">
        <ele>185.98256</ele>
        <time>2025-10-23T07:36:07Z</time>
      </trkpt>
      <trkpt lat="43.58159" lon="3.06378">
        <ele>185.98256</ele>
        <time>2025-10-23T07:36:08Z</time>
      </trkpt>
      <trkpt lat="43.58157" lon="3.06374">
        <ele>185.98256</ele>
        <time>2025-10-23T07:36:09Z</time>
      </trkpt>
      <trkpt lat="43.58155" lon="3.0637">
        <ele>185.98256</ele>
        <time>2025-10-23T07:36:10Z</time>
      </trkpt>
      <trkpt lat="43.58152" lon="3.06367">
        <ele>185.98256</ele>
        <time>2025-10-23T07:36:11Z</time>
      </trkpt>
      <trkpt lat="43.58149" lon="3.06362">
        <ele>185.98256</ele>
        <time>2025-10-23T07:36:12Z</time>
      </trkpt>
      <trkpt lat="43.58146" lon="3.06358">
        <ele>185.98256</ele>
        <time>2025-10-23T07:36:13Z</time>
      </trkpt>
      <trkpt lat="43.58143" lon="3.06354">
        <ele>185.98256</ele>
        <time>2025-10-23T07:36:14Z</time>
      </trkpt>
      <trkpt lat="43.5814" lon="3.06349">
        <ele>185.98256</ele>
        <time>2025-10-23T07:36:15Z</time>
      </trkpt>
      <trkpt lat="43.58137" lon="3.06344">
        <ele>185.98256</ele>
        <time>2025-10-23T07:36:16Z</time>
      </trkpt>
      <trkpt lat="43.58134" lon="3.06339">
        <ele>185.98256</ele>
        <time>2025-10-23T07:36:17Z</time>
      </trkpt>
      <trkpt lat="43.58132" lon="3.06333">
        <ele>185.989352</ele>
        <time>2025-10-23T07:36:18Z</time>
      </trkpt>
      <trkpt lat="43.5813" lon="3.06327">
        <ele>186.005898</ele>
        <time>2025-10-23T07:36:19Z</time>
      </trkpt>
      <trkpt lat="43.58128" lon="3.06322">
        <ele>186.022555</ele>
        <time>2025-10-23T07:36:20Z</time>
      </trkpt>
      <trkpt lat="43.58125" lon="3.06317">
        <ele>186.03924</ele>
        <time>2025-10-23T07:36:21Z</time>
      </trkpt>
      <trkpt lat="43.58123" lon="3.06311">
        <ele>186.056552</ele>
        <time>2025-10-23T07:36:22Z</time>
      </trkpt>
      <trkpt lat="43.58121" lon="3.06305">
        <ele>186.074734</ele>
        <time>2025-10-23T07:36:23Z</time>
      </trkpt>
      <trkpt lat="43.58119" lon="3.06298">
        <ele>186.09268</ele>
        <time>2025-10-23T07:36:24Z</time>
      </trkpt>
      <trkpt lat="43.58117" lon="3.06292">
        <ele>186.110467</ele>
        <time>2025-10-23T07:36:25Z</time>
      </trkpt>
      <trkpt lat="43.58114" lon="3.06286">
        <ele>186.128017</ele>
        <time>2025-10-23T07:36:26Z</time>
      </trkpt>
      <trkpt lat="43.58112" lon="3.0628">
        <ele>186.146674</ele>
        <time>2025-10-23T07:36:27Z</time>
      </trkpt>
      <trkpt lat="43.5811" lon="3.06273">
        <ele>186.165658</ele>
        <time>2025-10-23T07:36:28Z</time>
      </trkpt>
      <trkpt lat="43.58108" lon="3.06267">
        <ele>186.184792</ele>
        <time>2025-10-23T07:36:29Z</time>
      </trkpt>
      <trkpt lat="43.58106" lon="3.0626">
        <ele>186.202907</ele>
        <time>2025-10-23T07:36:30Z</time>
      </trkpt>
      <trkpt lat="43.58104" lon="3.06255">
        <ele>186.219499</ele>
        <time>2025-10-23T07:36:31Z</time>
      </trkpt>
      <trkpt lat="43.58102" lon="3.06249">
        <ele>186.236263</ele>
        <time>2025-10-23T07:36:32Z</time>
      </trkpt>
      <trkpt lat="43.581" lon="3.06243">
        <ele>186.253657</ele>
        <time>2025-10-23T07:36:33Z</time>
      </trkpt>
      <trkpt lat="43.58099" lon="3.06237">
        <ele>186.271249</ele>
        <time>2025-10-23T07:36:34Z</time>
      </trkpt>
      <trkpt lat="43.58097" lon="3.0623">
        <ele>186.288708</ele>
        <time>2025-10-23T07:36:35Z</time>
      </trkpt>
      <trkpt lat="43.58095" lon="3.06224">
        <ele>186.306437</ele>
        <time>2025-10-23T07:36:36Z</time>
      </trkpt>
      <trkpt lat="43.58093" lon="3.06218">
        <ele>186.323593</ele>
        <time>2025-10-23T07:36:37Z</time>
      </trkpt>
      <trkpt lat="43.58091" lon="3.06212">
        <ele>186.34138</ele>
        <time>2025-10-23T07:36:38Z</time>
      </trkpt>
      <trkpt lat="43.58089" lon="3.06206">
        <ele>186.358483</ele>
        <time>2025-10-23T07:36:39Z</time>
      </trkpt>
      <trkpt lat="43.58087" lon="3.062">
        <ele>186.376117</ele>
        <time>2025-10-23T07:36:40Z</time>
      </trkpt>
      <trkpt lat="43.58085" lon="3.06194">
        <ele>186.394381</ele>
        <time>2025-10-23T07:36:41Z</time>
      </trkpt>
      <trkpt lat="43.58083" lon="3.06187">
        <ele>186.412738</ele>
        <time>2025-10-23T07:36:42Z</time>
      </trkpt>
      <trkpt lat="43.58081" lon="3.06181">
        <ele>186.431823</ele>
        <time>2025-10-23T07:36:43Z</time>
      </trkpt>
      <trkpt lat="43.5808" lon="3.06174">
        <ele>186.450543</ele>
        <time>2025-10-23T07:36:44Z</time>
      </trkpt>
      <trkpt lat="43.58078" lon="3.06167">
        <ele>186.468991</ele>
        <time>2025-10-23T07:36:45Z</time>
      </trkpt>
      <trkpt lat="43.58076" lon="3.06161">
        <ele>186.487571</ele>
        <time>2025-10-23T07:36:46Z</time>
      </trkpt>
      <trkpt lat="43.58074" lon="3.06154">
        <ele>186.50617</ele>
        <time>2025-10-23T07:36:47Z</time>
      </trkpt>
      <trkpt lat="43.58072" lon="3.06147">
        <ele>186.525364</ele>
        <time>2025-10-23T07:36:48Z</time>
      </trkpt>
      <trkpt lat="43.58071" lon="3.0614">
        <ele>186.544445</ele>
        <time>2025-10-23T07:36:49Z</time>
      </trkpt>
      <trkpt lat="43.58069" lon="3.06133">
        <ele>186.563316</ele>
        <time>2025-10-23T07:36:50Z</time>
      </trkpt>
      <trkpt lat="43.58068" lon="3.06127">
        <ele>186.581838</ele>
        <time>2025-10-23T07:36:51Z</time>
      </trkpt>
      <trkpt lat="43.58067" lon="3.06119">
        <ele>186.601081</ele>
        <time>2025-10-23T07:36:52Z</time>
      </trkpt>
      <trkpt lat="43.58066" lon="3.06112">
        <ele>186.620025</ele>
        <time>2025-10-23T07:36:53Z</time>
      </trkpt>
      <trkpt lat="43.58065" lon="3.06106">
        <ele>186.636162</ele>
        <time>2025-10-23T07:36:54Z</time>
      </trkpt>
      <trkpt lat="43.58064" lon="3.06098">
        <ele>186.633149</ele>
        <time>2025-10-23T07:36:55Z</time>
      </trkpt>
      <trkpt lat="43.58063" lon="3.0609">
        <ele>186.630081</ele>
        <time>2025-10-23T07:36:56Z</time>
      </trkpt>
      <trkpt lat="43.58062" lon="3.06082">
        <ele>186.626897</ele>
        <time>2025-10-23T07:36:57Z</time>
      </trkpt>
      <trkpt lat="43.58061" lon="3.06074">
        <ele>186.623781</ele>
        <time>2025-10-23T07:36:58Z</time>
      </trkpt>
      <trkpt lat="43.58061" lon="3.06067">
        <ele>186.620675</ele>
        <time>2025-10-23T07:36:59Z</time>
      </trkpt>
      <trkpt lat="43.5806" lon="3.0606">
        <ele>186.617878</ele>
        <time>2025-10-23T07:37:00Z</time>
      </trkpt>
      <trkpt lat="43.58059" lon="3.06053">
        <ele>186.615159</ele>
        <time>2025-10-23T07:37:01Z</time>
      </trkpt>
      <trkpt lat="43.58058" lon="3.06046">
        <ele>186.612457</ele>
        <time>2025-10-23T07:37:02Z</time>
      </trkpt>
      <trkpt lat="43.58057" lon="3.06039">
        <ele>186.609709</ele>
        <time>2025-10-23T07:37:03Z</time>
      </trkpt>
      <trkpt lat="43.58056" lon="3.06032">
        <ele>186.606912</ele>
        <time>2025-10-23T07:37:04Z</time>
      </trkpt>
      <trkpt lat="43.58056" lon="3.06025">
        <ele>186.604001</ele>
        <time>2025-10-23T07:37:05Z</time>
      </trkpt>
      <trkpt lat="43.58056" lon="3.06017">
        <ele>186.60109</ele>
        <time>2025-10-23T07:37:06Z</time>
      </trkpt>
      <trkpt lat="43.58055" lon="3.0601">
        <ele>186.598093</ele>
        <time>2025-10-23T07:37:07Z</time>
      </trkpt>
      <trkpt lat="43.58055" lon="3.06003">
        <ele>186.595331</ele>
        <time>2025-10-23T07:37:08Z</time>
      </trkpt>
      <trkpt lat="43.58054" lon="3.05996">
        <ele>186.592682</ele>
        <time>2025-10-23T07:37:09Z</time>
      </trkpt>
      <trkpt lat="43.58056" lon="3.05998">
        <ele>186.59169</ele>
        <time>2025-10-23T07:37:10Z</time>
      </trkpt>
      <trkpt lat="43.58056" lon="3.05998">
        <ele>186.59169</ele>
        <time>2025-10-23T07:37:12Z</time>
      </trkpt>
      <trkpt lat="43.58053" lon="3.0593">
        <ele>186.564718</ele>
        <time>2025-10-23T07:37:17Z</time>
      </trkpt>
      <trkpt lat="43.58049" lon="3.05921">
        <ele>186.560448</ele>
        <time>2025-10-23T07:37:18Z</time>
      </trkpt>
      <trkpt lat="43.58046" lon="3.05911">
        <ele>186.556103</ele>
        <time>2025-10-23T07:37:19Z</time>
      </trkpt>
      <trkpt lat="43.58043" lon="3.05902">
        <ele>186.552413</ele>
        <time>2025-10-23T07:37:20Z</time>
      </trkpt>
      <trkpt lat="43.58039" lon="3.05896">
        <ele>186.549319</ele>
        <time>2025-10-23T07:37:21Z</time>
      </trkpt>
      <trkpt lat="43.58037" lon="3.0589">
        <ele>186.546545</ele>
        <time>2025-10-23T07:37:22Z</time>
      </trkpt>
      <trkpt lat="43.58034" lon="3.05885">
        <ele>186.544057</ele>
        <time>2025-10-23T07:37:23Z</time>
      </trkpt>
      <trkpt lat="43.58031" lon="3.05876">
        <ele>186.540082</ele>
        <time>2025-10-23T07:37:24Z</time>
      </trkpt>
      <trkpt lat="43.58027" lon="3.05867">
        <ele>186.573925</ele>
        <time>2025-10-23T07:37:25Z</time>
      </trkpt>
      <trkpt lat="43.58023" lon="3.05861">
        <ele>186.619676</ele>
        <time>2025-10-23T07:37:26Z</time>
      </trkpt>
      <trkpt lat="43.5802" lon="3.05853">
        <ele>186.670286</ele>
        <time>2025-10-23T07:37:27Z</time>
      </trkpt>
      <trkpt lat="43.58017" lon="3.05847">
        <ele>186.708999</ele>
        <time>2025-10-23T07:37:28Z</time>
      </trkpt>
      <trkpt lat="43.58015" lon="3.05843">
        <ele>186.737216</ele>
        <time>2025-10-23T07:37:29Z</time>
      </trkpt>
      <trkpt lat="43.58012" lon="3.05835">
        <ele>186.786021</ele>
        <time>2025-10-23T07:37:30Z</time>
      </trkpt>
      <trkpt lat="43.58009" lon="3.05827">
        <ele>186.832559</ele>
        <time>2025-10-23T07:37:31Z</time>
      </trkpt>
      <trkpt lat="43.58005" lon="3.0582">
        <ele>186.88078</ele>
        <time>2025-10-23T07:37:32Z</time>
      </trkpt>
      <trkpt lat="43.58002" lon="3.05812">
        <ele>186.927522</ele>
        <time>2025-10-23T07:37:33Z</time>
      </trkpt>
      <trkpt lat="43.57998" lon="3.05805">
        <ele>186.976848</ele>
        <time>2025-10-23T07:37:34Z</time>
      </trkpt>
      <trkpt lat="43.57995" lon="3.05797">
        <ele>187.024341</ele>
        <time>2025-10-23T07:37:35Z</time>
      </trkpt>
      <trkpt lat="43.57993" lon="3.05789">
        <ele>187.070177</ele>
        <time>2025-10-23T07:37:36Z</time>
      </trkpt>
      <trkpt lat="43.57991" lon="3.05781">
        <ele>187.116931</ele>
        <time>2025-10-23T07:37:37Z</time>
      </trkpt>
      <trkpt lat="43.57988" lon="3.05774">
        <ele>187.163592</ele>
        <time>2025-10-23T07:37:38Z</time>
      </trkpt>
      <trkpt lat="43.57984" lon="3.05766">
        <ele>187.214073</ele>
        <time>2025-10-23T07:37:39Z</time>
      </trkpt>
      <trkpt lat="43.57981" lon="3.05758">
        <ele>187.262525</ele>
        <time>2025-10-23T07:37:40Z</time>
      </trkpt>
      <trkpt lat="43.57979" lon="3.0575">
        <ele>187.31015</ele>
        <time>2025-10-23T07:37:41Z</time>
      </trkpt>
      <trkpt lat="43.57975" lon="3.05742">
        <ele>187.357056</ele>
        <time>2025-10-23T07:37:42Z</time>
      </trkpt>
      <trkpt lat="43.57972" lon="3.05735">
        <ele>187.403491</ele>
        <time>2025-10-23T07:37:43Z</time>
      </trkpt>
      <trkpt lat="43.57969" lon="3.05728">
        <ele>187.449456</ele>
        <time>2025-10-23T07:37:44Z</time>
      </trkpt>
      <trkpt lat="43.57966" lon="3.05721">
        <ele>187.49317</ele>
        <time>2025-10-23T07:37:45Z</time>
      </trkpt>
      <trkpt lat="43.57963" lon="3.05713">
        <ele>187.53804</ele>
        <time>2025-10-23T07:37:46Z</time>
      </trkpt>
      <trkpt lat="43.57961" lon="3.05706">
        <ele>187.584021</ele>
        <time>2025-10-23T07:37:47Z</time>
      </trkpt>
      <trkpt lat="43.57958" lon="3.05698">
        <ele>187.629854</ele>
        <time>2025-10-23T07:37:48Z</time>
      </trkpt>
      <trkpt lat="43.57955" lon="3.05691">
        <ele>187.676997</ele>
        <time>2025-10-23T07:37:49Z</time>
      </trkpt>
      <trkpt lat="43.57952" lon="3.05683">
        <ele>187.724627</ele>
        <time>2025-10-23T07:37:50Z</time>
      </trkpt>
      <trkpt lat="43.5795" lon="3.05675">
        <ele>187.773379</ele>
        <time>2025-10-23T07:37:51Z</time>
      </trkpt>
      <trkpt lat="43.57947" lon="3.05667">
        <ele>187.821009</ele>
        <time>2025-10-23T07:37:52Z</time>
      </trkpt>
      <trkpt lat="43.57945" lon="3.05659">
        <ele>187.868045</ele>
        <time>2025-10-23T07:37:53Z</time>
      </trkpt>
      <trkpt lat="43.57942" lon="3.05651">
        <ele>187.861131</ele>
        <time>2025-10-23T07:37:54Z</time>
      </trkpt>
      <trkpt lat="43.5794" lon="3.05643">
        <ele>187.815306</ele>
        <time>2025-10-23T07:37:55Z</time>
      </trkpt>
      <trkpt lat="43.57938" lon="3.05636">
        <ele>187.770282</ele>
        <time>2025-10-23T07:37:56Z</time>
      </trkpt>
      <trkpt lat="43.57937" lon="3.05628">
        <ele>187.725771</ele>
        <time>2025-10-23T07:37:57Z</time>
      </trkpt>
      <trkpt lat="43.57935" lon="3.05621">
        <ele>187.68096</ele>
        <time>2025-10-23T07:37:58Z</time>
      </trkpt>
      <trkpt lat="43.57933" lon="3.05614">
        <ele>187.640145</ele>
        <time>2025-10-23T07:37:59Z</time>
      </trkpt>
      <trkpt lat="43.57932" lon="3.05606">
        <ele>187.595225</ele>
        <time>2025-10-23T07:38:00Z</time>
      </trkpt>
      <trkpt lat="43.5793" lon="3.05598">
        <ele>187.549406</ele>
        <time>2025-10-23T07:38:01Z</time>
      </trkpt>
      <trkpt lat="43.57929" lon="3.05591">
        <ele>187.506136</ele>
        <time>2025-10-23T07:38:02Z</time>
      </trkpt>
      <trkpt lat="43.57928" lon="3.05583">
        <ele>187.462314</ele>
        <time>2025-10-23T07:38:03Z</time>
      </trkpt>
      <trkpt lat="43.57927" lon="3.05575">
        <ele>187.416675</ele>
        <time>2025-10-23T07:38:04Z</time>
      </trkpt>
      <trkpt lat="43.57925" lon="3.05567">
        <ele>187.367733</ele>
        <time>2025-10-23T07:38:05Z</time>
      </trkpt>
      <trkpt lat="43.57924" lon="3.05559">
        <ele>187.320001</ele>
        <time>2025-10-23T07:38:06Z</time>
      </trkpt>
      <trkpt lat="43.57922" lon="3.0555">
        <ele>187.272901</ele>
        <time>2025-10-23T07:38:07Z</time>
      </trkpt>
      <trkpt lat="43.57921" lon="3.05543">
        <ele>187.227981</ele>
        <time>2025-10-23T07:38:08Z</time>
      </trkpt>
      <trkpt lat="43.57919" lon="3.05535">
        <ele>187.182507</ele>
        <time>2025-10-23T07:38:09Z</time>
      </trkpt>
      <trkpt lat="43.57918" lon="3.05527">
        <ele>187.137696</ele>
        <time>2025-10-23T07:38:10Z</time>
      </trkpt>
      <trkpt lat="43.57916" lon="3.0552">
        <ele>187.093319</ele>
        <time>2025-10-23T07:38:11Z</time>
      </trkpt>
      <trkpt lat="43.57915" lon="3.05512">
        <ele>187.047294</ele>
        <time>2025-10-23T07:38:12Z</time>
      </trkpt>
      <trkpt lat="43.57913" lon="3.05503">
        <ele>186.998015</ele>
        <time>2025-10-23T07:38:13Z</time>
      </trkpt>
      <trkpt lat="43.57911" lon="3.05496">
        <ele>186.953504</ele>
        <time>2025-10-23T07:38:14Z</time>
      </trkpt>
      <trkpt lat="43.57909" lon="3.05488">
        <ele>186.905826</ele>
        <time>2025-10-23T07:38:15Z</time>
      </trkpt>
      <trkpt lat="43.57908" lon="3.0548">
        <ele>186.859613</ele>
        <time>2025-10-23T07:38:16Z</time>
      </trkpt>
      <trkpt lat="43.57906" lon="3.05472">
        <ele>186.815026</ele>
        <time>2025-10-23T07:38:17Z</time>
      </trkpt>
      <trkpt lat="43.57904" lon="3.05465">
        <ele>186.773674</ele>
        <time>2025-10-23T07:38:18Z</time>
      </trkpt>
      <trkpt lat="43.57903" lon="3.05458">
        <ele>186.72968</ele>
        <time>2025-10-23T07:38:19Z</time>
      </trkpt>
      <trkpt lat="43.57902" lon="3.05449">
        <ele>186.68094</ele>
        <time>2025-10-23T07:38:20Z</time>
      </trkpt>
      <trkpt lat="43.579" lon="3.05441">
        <ele>186.630558</ele>
        <time>2025-10-23T07:38:21Z</time>
      </trkpt>
      <trkpt lat="43.57899" lon="3.05431">
        <ele>186.576645</ele>
        <time>2025-10-23T07:38:22Z</time>
      </trkpt>
      <trkpt lat="43.57897" lon="3.05422">
        <ele>186.523291</ele>
        <time>2025-10-23T07:38:23Z</time>
      </trkpt>
      <trkpt lat="43.57895" lon="3.05413">
        <ele>186.481469</ele>
        <time>2025-10-23T07:38:24Z</time>
      </trkpt>
      <trkpt lat="43.57893" lon="3.05404">
        <ele>186.462325</ele>
        <time>2025-10-23T07:38:25Z</time>
      </trkpt>
      <trkpt lat="43.57892" lon="3.05396">
        <ele>186.444117</ele>
        <time>2025-10-23T07:38:26Z</time>
      </trkpt>
      <trkpt lat="43.5789" lon="3.05387">
        <ele>186.425782</ele>
        <time>2025-10-23T07:38:27Z</time>
      </trkpt>
      <trkpt lat="43.57889" lon="3.05379">
        <ele>186.407646</ele>
        <time>2025-10-23T07:38:28Z</time>
      </trkpt>
      <trkpt lat="43.57888" lon="3.0537">
        <ele>186.389668</ele>
        <time>2025-10-23T07:38:29Z</time>
      </trkpt>
      <trkpt lat="43.57886" lon="3.05362">
        <ele>186.371674</ele>
        <time>2025-10-23T07:38:30Z</time>
      </trkpt>
      <trkpt lat="43.57885" lon="3.05353">
        <ele>186.353882</ele>
        <time>2025-10-23T07:38:31Z</time>
      </trkpt>
      <trkpt lat="43.57884" lon="3.05346">
        <ele>186.337106</ele>
        <time>2025-10-23T07:38:32Z</time>
      </trkpt>
      <trkpt lat="43.57882" lon="3.05338">
        <ele>186.32081</ele>
        <time>2025-10-23T07:38:33Z</time>
      </trkpt>
      <trkpt lat="43.57881" lon="3.05331">
        <ele>186.305521</ele>
        <time>2025-10-23T07:38:34Z</time>
      </trkpt>
      <trkpt lat="43.5788" lon="3.05324">
        <ele>186.290562</ele>
        <time>2025-10-23T07:38:35Z</time>
      </trkpt>
      <trkpt lat="43.57879" lon="3.05317">
        <ele>186.274731</ele>
        <time>2025-10-23T07:38:36Z</time>
      </trkpt>
      <trkpt lat="43.57877" lon="3.05309">
        <ele>186.257807</ele>
        <time>2025-10-23T07:38:37Z</time>
      </trkpt>
      <trkpt lat="43.57875" lon="3.05301">
        <ele>186.240517</ele>
        <time>2025-10-23T07:38:38Z</time>
      </trkpt>
      <trkpt lat="43.57873" lon="3.05293">
        <ele>186.222458</ele>
        <time>2025-10-23T07:38:39Z</time>
      </trkpt>
      <trkpt lat="43.57871" lon="3.05285">
        <ele>186.205773</ele>
        <time>2025-10-23T07:38:40Z</time>
      </trkpt>
      <trkpt lat="43.57869" lon="3.05278">
        <ele>186.189037</ele>
        <time>2025-10-23T07:38:41Z</time>
      </trkpt>
      <trkpt lat="43.57866" lon="3.05271">
        <ele>186.17299</ele>
        <time>2025-10-23T07:38:42Z</time>
      </trkpt>
      <trkpt lat="43.57864" lon="3.05264">
        <ele>186.157071</ele>
        <time>2025-10-23T07:38:43Z</time>
      </trkpt>
      <trkpt lat="43.57861" lon="3.05257">
        <ele>186.14059</ele>
        <time>2025-10-23T07:38:44Z</time>
      </trkpt>
      <trkpt lat="43.57859" lon="3.0525">
        <ele>186.124579</ele>
        <time>2025-10-23T07:38:45Z</time>
      </trkpt>
      <trkpt lat="43.57857" lon="3.05243">
        <ele>186.107654</ele>
        <time>2025-10-23T07:38:46Z</time>
      </trkpt>
      <trkpt lat="43.57854" lon="3.05236">
        <ele>186.090858</ele>
        <time>2025-10-23T07:38:47Z</time>
      </trkpt>
      <trkpt lat="43.57851" lon="3.05229">
        <ele>186.074621</ele>
        <time>2025-10-23T07:38:48Z</time>
      </trkpt>
      <trkpt lat="43.57849" lon="3.05222">
        <ele>186.058432</ele>
        <time>2025-10-23T07:38:49Z</time>
      </trkpt>
      <trkpt lat="43.57846" lon="3.05215">
        <ele>186.043015</ele>
        <time>2025-10-23T07:38:50Z</time>
      </trkpt>
      <trkpt lat="43.57843" lon="3.05209">
        <ele>186.026768</ele>
        <time>2025-10-23T07:38:51Z</time>
      </trkpt>
      <trkpt lat="43.57839" lon="3.05202">
        <ele>186.009837</ele>
        <time>2025-10-23T07:38:52Z</time>
      </trkpt>
      <trkpt lat="43.57836" lon="3.05196">
        <ele>185.992761</ele>
        <time>2025-10-23T07:38:53Z</time>
      </trkpt>
      <trkpt lat="43.57833" lon="3.0519">
        <ele>185.97636</ele>
        <time>2025-10-23T07:38:54Z</time>
      </trkpt>
      <trkpt lat="43.5783" lon="3.05183">
        <ele>185.963477</ele>
        <time>2025-10-23T07:38:55Z</time>
      </trkpt>
      <trkpt lat="43.57826" lon="3.05178">
        <ele>185.952591</ele>
        <time>2025-10-23T07:38:56Z</time>
      </trkpt>
      <trkpt lat="43.57823" lon="3.05172">
        <ele>185.941876</ele>
        <time>2025-10-23T07:38:57Z</time>
      </trkpt>
      <trkpt lat="43.5782" lon="3.05166">
        <ele>185.931152</ele>
        <time>2025-10-23T07:38:58Z</time>
      </trkpt>
      <trkpt lat="43.57817" lon="3.0516">
        <ele>185.920552</ele>
        <time>2025-10-23T07:38:59Z</time>
      </trkpt>
      <trkpt lat="43.57813" lon="3.05153">
        <ele>185.909358</ele>
        <time>2025-10-23T07:39:00Z</time>
      </trkpt>
      <trkpt lat="43.5781" lon="3.05147">
        <ele>185.897457</ele>
        <time>2025-10-23T07:39:01Z</time>
      </trkpt>
      <trkpt lat="43.57807" lon="3.0514">
        <ele>185.885556</ele>
        <time>2025-10-23T07:39:02Z</time>
      </trkpt>
      <trkpt lat="43.57803" lon="3.05133">
        <ele>185.873664</ele>
        <time>2025-10-23T07:39:03Z</time>
      </trkpt>
      <trkpt lat="43.578" lon="3.05127">
        <ele>185.861996</ele>
        <time>2025-10-23T07:39:04Z</time>
      </trkpt>
      <trkpt lat="43.57796" lon="3.0512">
        <ele>185.849499</ele>
        <time>2025-10-23T07:39:05Z</time>
      </trkpt>
      <trkpt lat="43.57792" lon="3.05114">
        <ele>185.837603</ele>
        <time>2025-10-23T07:39:06Z</time>
      </trkpt>
      <trkpt lat="43.57789" lon="3.05107">
        <ele>185.825567</ele>
        <time>2025-10-23T07:39:07Z</time>
      </trkpt>
      <trkpt lat="43.57786" lon="3.051">
        <ele>185.813667</ele>
        <time>2025-10-23T07:39:08Z</time>
      </trkpt>
      <trkpt lat="43.57782" lon="3.05093">
        <ele>185.801766</ele>
        <time>2025-10-23T07:39:09Z</time>
      </trkpt>
      <trkpt lat="43.57779" lon="3.05086">
        <ele>185.789986</ele>
        <time>2025-10-23T07:39:10Z</time>
      </trkpt>
      <trkpt lat="43.57776" lon="3.0508">
        <ele>185.778089</ele>
        <time>2025-10-23T07:39:11Z</time>
      </trkpt>
      <trkpt lat="43.57772" lon="3.05073">
        <ele>185.76642</ele>
        <time>2025-10-23T07:39:12Z</time>
      </trkpt>
      <trkpt lat="43.57769" lon="3.05066">
        <ele>185.754155</ele>
        <time>2025-10-23T07:39:13Z</time>
      </trkpt>
      <trkpt lat="43.57766" lon="3.05059">
        <ele>185.742011</ele>
        <time>2025-10-23T07:39:14Z</time>
      </trkpt>
      <trkpt lat="43.57763" lon="3.05052">
        <ele>185.730221</ele>
        <time>2025-10-23T07:39:15Z</time>
      </trkpt>
      <trkpt lat="43.57759" lon="3.05045">
        <ele>185.717975</ele>
        <time>2025-10-23T07:39:16Z</time>
      </trkpt>
      <trkpt lat="43.57756" lon="3.05039">
        <ele>185.706552</ele>
        <time>2025-10-23T07:39:17Z</time>
      </trkpt>
      <trkpt lat="43.57753" lon="3.05033">
        <ele>185.696135</ele>
        <time>2025-10-23T07:39:18Z</time>
      </trkpt>
      <trkpt lat="43.5775" lon="3.05026">
        <ele>185.685114</ele>
        <time>2025-10-23T07:39:19Z</time>
      </trkpt>
      <trkpt lat="43.57747" lon="3.0502">
        <ele>185.673692</ele>
        <time>2025-10-23T07:39:20Z</time>
      </trkpt>
      <trkpt lat="43.57744" lon="3.05013">
        <ele>185.661317</ele>
        <time>2025-10-23T07:39:21Z</time>
      </trkpt>
      <trkpt lat="43.5774" lon="3.05006">
        <ele>185.649013</ele>
        <time>2025-10-23T07:39:22Z</time>
      </trkpt>
      <trkpt lat="43.57738" lon="3.04998">
        <ele>185.637162</ele>
        <time>2025-10-23T07:39:23Z</time>
      </trkpt>
      <trkpt lat="43.57735" lon="3.04992">
        <ele>185.626393</ele>
        <time>2025-10-23T07:39:24Z</time>
      </trkpt>
      <trkpt lat="43.57733" lon="3.04985">
        <ele>185.615912</ele>
        <time>2025-10-23T07:39:25Z</time>
      </trkpt>
      <trkpt lat="43.5773" lon="3.0498">
        <ele>185.606984</ele>
        <time>2025-10-23T07:39:26Z</time>
      </trkpt>
      <trkpt lat="43.57728" lon="3.04974">
        <ele>185.598164</ele>
        <time>2025-10-23T07:39:27Z</time>
      </trkpt>
      <trkpt lat="43.57727" lon="3.04968">
        <ele>185.589412</ele>
        <time>2025-10-23T07:39:28Z</time>
      </trkpt>
      <trkpt lat="43.57724" lon="3.04962">
        <ele>185.580547</ele>
        <time>2025-10-23T07:39:29Z</time>
      </trkpt>
      <trkpt lat="43.57722" lon="3.04956">
        <ele>185.571698</ele>
        <time>2025-10-23T07:39:30Z</time>
      </trkpt>
      <trkpt lat="43.5772" lon="3.04949">
        <ele>185.562492</ele>
        <time>2025-10-23T07:39:31Z</time>
      </trkpt>
      <trkpt lat="43.57718" lon="3.04943">
        <ele>185.554104</ele>
        <time>2025-10-23T07:39:32Z</time>
      </trkpt>
      <trkpt lat="43.57717" lon="3.04937">
        <ele>185.54572</ele>
        <time>2025-10-23T07:39:33Z</time>
      </trkpt>
      <trkpt lat="43.57716" lon="3.04931">
        <ele>185.536847</ele>
        <time>2025-10-23T07:39:34Z</time>
      </trkpt>
      <trkpt lat="43.57714" lon="3.04924">
        <ele>185.527294</ele>
        <time>2025-10-23T07:39:35Z</time>
      </trkpt>
      <trkpt lat="43.57713" lon="3.04915">
        <ele>185.515993</ele>
        <time>2025-10-23T07:39:36Z</time>
      </trkpt>
      <trkpt lat="43.57711" lon="3.04907">
        <ele>185.504781</ele>
        <time>2025-10-23T07:39:37Z</time>
      </trkpt>
      <trkpt lat="43.57709" lon="3.04899">
        <ele>185.49387</ele>
        <time>2025-10-23T07:39:38Z</time>
      </trkpt>
      <trkpt lat="43.57708" lon="3.04891">
        <ele>185.482428</ele>
        <time>2025-10-23T07:39:39Z</time>
      </trkpt>
      <trkpt lat="43.57707" lon="3.04882">
        <ele>185.471403</ele>
        <time>2025-10-23T07:39:40Z</time>
      </trkpt>
      <trkpt lat="43.57706" lon="3.04874">
        <ele>185.460348</ele>
        <time>2025-10-23T07:39:41Z</time>
      </trkpt>
      <trkpt lat="43.57705" lon="3.04866">
        <ele>185.449521</ele>
        <time>2025-10-23T07:39:42Z</time>
      </trkpt>
      <trkpt lat="43.57703" lon="3.04858">
        <ele>185.438992</ele>
        <time>2025-10-23T07:39:43Z</time>
      </trkpt>
      <trkpt lat="43.57702" lon="3.04851">
        <ele>185.429351</ele>
        <time>2025-10-23T07:39:44Z</time>
      </trkpt>
      <trkpt lat="43.57701" lon="3.04844">
        <ele>185.419836</ele>
        <time>2025-10-23T07:39:45Z</time>
      </trkpt>
      <trkpt lat="43.577" lon="3.04836">
        <ele>185.409772</ele>
        <time>2025-10-23T07:39:46Z</time>
      </trkpt>
      <trkpt lat="43.57699" lon="3.04829">
        <ele>185.399781</ele>
        <time>2025-10-23T07:39:47Z</time>
      </trkpt>
      <trkpt lat="43.57697" lon="3.04821">
        <ele>185.389369</ele>
        <time>2025-10-23T07:39:48Z</time>
      </trkpt>
      <trkpt lat="43.57696" lon="3.04814">
        <ele>185.379377</ele>
        <time>2025-10-23T07:39:49Z</time>
      </trkpt>
      <trkpt lat="43.57695" lon="3.04806">
        <ele>185.369643</ele>
        <time>2025-10-23T07:39:50Z</time>
      </trkpt>
      <trkpt lat="43.57695" lon="3.04799">
        <ele>185.359865</ele>
        <time>2025-10-23T07:39:51Z</time>
      </trkpt>
      <trkpt lat="43.57694" lon="3.04791">
        <ele>185.349775</ele>
        <time>2025-10-23T07:39:52Z</time>
      </trkpt>
      <trkpt lat="43.57693" lon="3.04784">
        <ele>185.339654</ele>
        <time>2025-10-23T07:39:53Z</time>
      </trkpt>
      <trkpt lat="43.57692" lon="3.04776">
        <ele>185.32998</ele>
        <time>2025-10-23T07:39:54Z</time>
      </trkpt>
      <trkpt lat="43.57691" lon="3.04769">
        <ele>185.320745</ele>
        <time>2025-10-23T07:39:55Z</time>
      </trkpt>
      <trkpt lat="43.57691" lon="3.04762">
        <ele>185.311529</ele>
        <time>2025-10-23T07:39:56Z</time>
      </trkpt>
      <trkpt lat="43.57691" lon="3.04755">
        <ele>185.302329</ele>
        <time>2025-10-23T07:39:57Z</time>
      </trkpt>
      <trkpt lat="43.5769" lon="3.04748">
        <ele>185.293019</ele>
        <time>2025-10-23T07:39:58Z</time>
      </trkpt>
      <trkpt lat="43.5769" lon="3.04742">
        <ele>185.284762</ele>
        <time>2025-10-23T07:39:59Z</time>
      </trkpt>
      <trkpt lat="43.5769" lon="3.04735">
        <ele>185.281156</ele>
        <time>2025-10-23T07:40:00Z</time>
      </trkpt>
      <trkpt lat="43.5769" lon="3.04728">
        <ele>185.277679</ele>
        <time>2025-10-23T07:40:01Z</time>
      </trkpt>
      <trkpt lat="43.5769" lon="3.04721">
        <ele>185.274057</ele>
        <time>2025-10-23T07:40:02Z</time>
      </trkpt>
      <trkpt lat="43.5769" lon="3.04713">
        <ele>185.270145</ele>
        <time>2025-10-23T07:40:03Z</time>
      </trkpt>
      <trkpt lat="43.5769" lon="3.04705">
        <ele>185.266279</ele>
        <time>2025-10-23T07:40:04Z</time>
      </trkpt>
      <trkpt lat="43.57689" lon="3.04697">
        <ele>185.262411</ele>
        <time>2025-10-23T07:40:05Z</time>
      </trkpt>
      <trkpt lat="43.57689" lon="3.04688">
        <ele>185.258306</ele>
        <time>2025-10-23T07:40:06Z</time>
      </trkpt>
      <trkpt lat="43.5769" lon="3.0468">
        <ele>185.254229</ele>
        <time>2025-10-23T07:40:07Z</time>
      </trkpt>
      <trkpt lat="43.57691" lon="3.04672">
        <ele>185.250281</ele>
        <time>2025-10-23T07:40:08Z</time>
      </trkpt>
      <trkpt lat="43.57692" lon="3.04663">
        <ele>185.246147</ele>
        <time>2025-10-23T07:40:09Z</time>
      </trkpt>
      <trkpt lat="43.57693" lon="3.04654">
        <ele>185.241607</ele>
        <time>2025-10-23T07:40:10Z</time>
      </trkpt>
      <trkpt lat="43.57695" lon="3.04646">
        <ele>185.237476</ele>
        <time>2025-10-23T07:40:11Z</time>
      </trkpt>
      <trkpt lat="43.57696" lon="3.04638">
        <ele>185.233496</ele>
        <time>2025-10-23T07:40:12Z</time>
      </trkpt>
      <trkpt lat="43.57697" lon="3.0463">
        <ele>185.229576</ele>
        <time>2025-10-23T07:40:13Z</time>
      </trkpt>
      <trkpt lat="43.57698" lon="3.04621">
        <ele>185.225393</ele>
        <time>2025-10-23T07:40:14Z</time>
      </trkpt>
      <trkpt lat="43.577" lon="3.04612">
        <ele>185.220824</ele>
        <time>2025-10-23T07:40:15Z</time>
      </trkpt>
      <trkpt lat="43.57701" lon="3.04603">
        <ele>185.216237</ele>
        <time>2025-10-23T07:40:16Z</time>
      </trkpt>
      <trkpt lat="43.57703" lon="3.04593">
        <ele>185.21148</ele>
        <time>2025-10-23T07:40:17Z</time>
      </trkpt>
      <trkpt lat="43.57704" lon="3.04583">
        <ele>185.206479</ele>
        <time>2025-10-23T07:40:18Z</time>
      </trkpt>
      <trkpt lat="43.57706" lon="3.04573">
        <ele>185.20183</ele>
        <time>2025-10-23T07:40:19Z</time>
      </trkpt>
      <trkpt lat="43.57707" lon="3.04564">
        <ele>185.196971</ele>
        <time>2025-10-23T07:40:20Z</time>
      </trkpt>
      <trkpt lat="43.57708" lon="3.04554">
        <ele>185.192134</ele>
        <time>2025-10-23T07:40:21Z</time>
      </trkpt>
      <trkpt lat="43.5771" lon="3.04544">
        <ele>185.187252</ele>
        <time>2025-10-23T07:40:22Z</time>
      </trkpt>
      <trkpt lat="43.57712" lon="3.04534">
        <ele>185.182474</ele>
        <time>2025-10-23T07:40:23Z</time>
      </trkpt>
      <trkpt lat="43.57714" lon="3.04526">
        <ele>185.178046</ele>
        <time>2025-10-23T07:40:24Z</time>
      </trkpt>
      <trkpt lat="43.57716" lon="3.04517">
        <ele>185.173755</ele>
        <time>2025-10-23T07:40:25Z</time>
      </trkpt>
      <trkpt lat="43.57718" lon="3.04509">
        <ele>185.169691</ele>
        <time>2025-10-23T07:40:26Z</time>
      </trkpt>
      <trkpt lat="43.5772" lon="3.04501">
        <ele>185.165572</ele>
        <time>2025-10-23T07:40:27Z</time>
      </trkpt>
      <trkpt lat="43.57722" lon="3.04493">
        <ele>185.080726</ele>
        <time>2025-10-23T07:40:28Z</time>
      </trkpt>
      <trkpt lat="43.57724" lon="3.04485">
        <ele>184.951782</ele>
        <time>2025-10-23T07:40:29Z</time>
      </trkpt>
      <trkpt lat="43.57726" lon="3.04478">
        <ele>184.826851</ele>
        <time>2025-10-23T07:40:30Z</time>
      </trkpt>
      <trkpt lat="43.57729" lon="3.0447">
        <ele>184.699701</ele>
        <time>2025-10-23T07:40:31Z</time>
      </trkpt>
      <trkpt lat="43.57732" lon="3.04462">
        <ele>184.563437</ele>
        <time>2025-10-23T07:40:32Z</time>
      </trkpt>
      <trkpt lat="43.57734" lon="3.04453">
        <ele>184.42579</ele>
        <time>2025-10-23T07:40:33Z</time>
      </trkpt>
      <trkpt lat="43.57737" lon="3.04445">
        <ele>184.295311</ele>
        <time>2025-10-23T07:40:34Z</time>
      </trkpt>
      <trkpt lat="43.57739" lon="3.04437">
        <ele>184.163439</ele>
        <time>2025-10-23T07:40:35Z</time>
      </trkpt>
      <trkpt lat="43.57741" lon="3.04429">
        <ele>184.037126</ele>
        <time>2025-10-23T07:40:36Z</time>
      </trkpt>
      <trkpt lat="43.57744" lon="3.04422">
        <ele>183.908599</ele>
        <time>2025-10-23T07:40:37Z</time>
      </trkpt>
      <trkpt lat="43.57746" lon="3.04414">
        <ele>183.776473</ele>
        <time>2025-10-23T07:40:38Z</time>
      </trkpt>
      <trkpt lat="43.57749" lon="3.04406">
        <ele>183.646567</ele>
        <time>2025-10-23T07:40:39Z</time>
      </trkpt>
      <trkpt lat="43.57751" lon="3.04397">
        <ele>183.512659</ele>
        <time>2025-10-23T07:40:40Z</time>
      </trkpt>
      <trkpt lat="43.57754" lon="3.04389">
        <ele>183.380156</ele>
        <time>2025-10-23T07:40:41Z</time>
      </trkpt>
      <trkpt lat="43.57756" lon="3.04381">
        <ele>183.25025</ele>
        <time>2025-10-23T07:40:42Z</time>
      </trkpt>
      <trkpt lat="43.57758" lon="3.04374">
        <ele>183.122551</ele>
        <time>2025-10-23T07:40:43Z</time>
      </trkpt>
      <trkpt lat="43.57761" lon="3.04366">
        <ele>182.997824</ele>
        <time>2025-10-23T07:40:44Z</time>
      </trkpt>
      <trkpt lat="43.57763" lon="3.04358">
        <ele>182.869527</ele>
        <time>2025-10-23T07:40:45Z</time>
      </trkpt>
      <trkpt lat="43.57766" lon="3.0435">
        <ele>182.737401</ele>
        <time>2025-10-23T07:40:46Z</time>
      </trkpt>
      <trkpt lat="43.57768" lon="3.04342">
        <ele>182.607496</ele>
        <time>2025-10-23T07:40:47Z</time>
      </trkpt>
      <trkpt lat="43.57771" lon="3.04334">
        <ele>182.472615</ele>
        <time>2025-10-23T07:40:48Z</time>
      </trkpt>
      <trkpt lat="43.57773" lon="3.04326">
        <ele>182.344916</ele>
        <time>2025-10-23T07:40:49Z</time>
      </trkpt>
      <trkpt lat="43.57775" lon="3.04318">
        <ele>182.214563</ele>
        <time>2025-10-23T07:40:50Z</time>
      </trkpt>
      <trkpt lat="43.57778" lon="3.0431">
        <ele>182.08189</ele>
        <time>2025-10-23T07:40:51Z</time>
      </trkpt>
      <trkpt lat="43.5778" lon="3.04302">
        <ele>181.953594</ele>
        <time>2025-10-23T07:40:52Z</time>
      </trkpt>
      <trkpt lat="43.57782" lon="3.04294">
        <ele>181.827464</ele>
        <time>2025-10-23T07:40:53Z</time>
      </trkpt>
      <trkpt lat="43.57785" lon="3.04286">
        <ele>181.699765</ele>
        <time>2025-10-23T07:40:54Z</time>
      </trkpt>
      <trkpt lat="43.57787" lon="3.04279">
        <ele>181.577041</ele>
        <time>2025-10-23T07:40:55Z</time>
      </trkpt>
      <trkpt lat="43.57789" lon="3.04271">
        <ele>181.450728</ele>
        <time>2025-10-23T07:40:56Z</time>
      </trkpt>
      <trkpt lat="43.57792" lon="3.04263">
        <ele>181.412257</ele>
        <time>2025-10-23T07:40:57Z</time>
      </trkpt>
      <trkpt lat="43.57794" lon="3.04255">
        <ele>181.397798</ele>
        <time>2025-10-23T07:40:58Z</time>
      </trkpt>
      <trkpt lat="43.57796" lon="3.04247">
        <ele>181.383266</ele>
        <time>2025-10-23T07:40:59Z</time>
      </trkpt>
      <trkpt lat="43.57798" lon="3.04239">
        <ele>181.368811</ele>
        <time>2025-10-23T07:41:00Z</time>
      </trkpt>
      <trkpt lat="43.578" lon="3.04231">
        <ele>181.354662</ele>
        <time>2025-10-23T07:41:01Z</time>
      </trkpt>
      <trkpt lat="43.57803" lon="3.04223">
        <ele>181.340241</ele>
        <time>2025-10-23T07:41:02Z</time>
      </trkpt>
      <trkpt lat="43.57806" lon="3.04216">
        <ele>181.326219</ele>
        <time>2025-10-23T07:41:03Z</time>
      </trkpt>
      <trkpt lat="43.57808" lon="3.04208">
        <ele>181.312401</ele>
        <time>2025-10-23T07:41:04Z</time>
      </trkpt>
      <trkpt lat="43.57811" lon="3.042">
        <ele>181.298377</ele>
        <time>2025-10-23T07:41:05Z</time>
      </trkpt>
      <trkpt lat="43.57813" lon="3.04193">
        <ele>181.284141</ele>
        <time>2025-10-23T07:41:06Z</time>
      </trkpt>
      <trkpt lat="43.57816" lon="3.04185">
        <ele>181.27021</ele>
        <time>2025-10-23T07:41:07Z</time>
      </trkpt>
      <trkpt lat="43.57818" lon="3.04177">
        <ele>181.256126</ele>
        <time>2025-10-23T07:41:08Z</time>
      </trkpt>
      <trkpt lat="43.5782" lon="3.04169">
        <ele>181.242284</ele>
        <time>2025-10-23T07:41:09Z</time>
      </trkpt>
      <trkpt lat="43.57823" lon="3.04161">
        <ele>181.227767</ele>
        <time>2025-10-23T07:41:10Z</time>
      </trkpt>
      <trkpt lat="43.57825" lon="3.04153">
        <ele>181.213463</ele>
        <time>2025-10-23T07:41:11Z</time>
      </trkpt>
      <trkpt lat="43.57828" lon="3.04145">
        <ele>181.19837</ele>
        <time>2025-10-23T07:41:12Z</time>
      </trkpt>
      <trkpt lat="43.5783" lon="3.04137">
        <ele>181.183432</ele>
        <time>2025-10-23T07:41:13Z</time>
      </trkpt>
      <trkpt lat="43.57833" lon="3.04129">
        <ele>181.169041</ele>
        <time>2025-10-23T07:41:14Z</time>
      </trkpt>
      <trkpt lat="43.57835" lon="3.04121">
        <ele>181.154651</ele>
        <time>2025-10-23T07:41:15Z</time>
      </trkpt>
      <trkpt lat="43.57838" lon="3.04113">
        <ele>181.140193</ele>
        <time>2025-10-23T07:41:16Z</time>
      </trkpt>
      <trkpt lat="43.5784" lon="3.04105">
        <ele>181.125649</ele>
        <time>2025-10-23T07:41:17Z</time>
      </trkpt>
      <trkpt lat="43.57842" lon="3.04096">
        <ele>181.11088</ele>
        <time>2025-10-23T07:41:18Z</time>
      </trkpt>
      <trkpt lat="43.57845" lon="3.04088">
        <ele>181.0964</ele>
        <time>2025-10-23T07:41:19Z</time>
      </trkpt>
      <trkpt lat="43.57848" lon="3.04081">
        <ele>181.082307</ele>
        <time>2025-10-23T07:41:20Z</time>
      </trkpt>
      <trkpt lat="43.57851" lon="3.04074">
        <ele>181.068306</ele>
        <time>2025-10-23T07:41:21Z</time>
      </trkpt>
      <trkpt lat="43.57856" lon="3.04069">
        <ele>181.054453</ele>
        <time>2025-10-23T07:41:22Z</time>
      </trkpt>
      <trkpt lat="43.57861" lon="3.04065">
        <ele>181.041872</ele>
        <time>2025-10-23T07:41:23Z</time>
      </trkpt>
      <trkpt lat="43.57866" lon="3.04063">
        <ele>181.030103</ele>
        <time>2025-10-23T07:41:24Z</time>
      </trkpt>
      <trkpt lat="43.5787" lon="3.04059">
        <ele>181.018253</ele>
        <time>2025-10-23T07:41:25Z</time>
      </trkpt>
      <trkpt lat="43.57874" lon="3.04056">
        <ele>181.025197</ele>
        <time>2025-10-23T07:41:26Z</time>
      </trkpt>
      <trkpt lat="43.57879" lon="3.04052">
        <ele>181.072566</ele>
        <time>2025-10-23T07:41:27Z</time>
      </trkpt>
      <trkpt lat="43.57882" lon="3.04048">
        <ele>181.117105</ele>
        <time>2025-10-23T07:41:28Z</time>
      </trkpt>
      <trkpt lat="43.57885" lon="3.04044">
        <ele>181.158719</ele>
        <time>2025-10-23T07:41:29Z</time>
      </trkpt>
      <trkpt lat="43.57888" lon="3.0404">
        <ele>181.199027</ele>
        <time>2025-10-23T07:41:30Z</time>
      </trkpt>
      <trkpt lat="43.5789" lon="3.04037">
        <ele>181.231752</ele>
        <time>2025-10-23T07:41:31Z</time>
      </trkpt>
      <trkpt lat="43.57891" lon="3.04033">
        <ele>181.258322</ele>
        <time>2025-10-23T07:41:32Z</time>
      </trkpt>
      <trkpt lat="43.57891" lon="3.0403">
        <ele>181.28447</ele>
        <time>2025-10-23T07:41:33Z</time>
      </trkpt>
      <trkpt lat="43.5789" lon="3.04026">
        <ele>181.314817</ele>
        <time>2025-10-23T07:41:34Z</time>
      </trkpt>
      <trkpt lat="43.57888" lon="3.04023">
        <ele>181.34286</ele>
        <time>2025-10-23T07:41:35Z</time>
      </trkpt>
      <trkpt lat="43.57886" lon="3.04021">
        <ele>181.371028</ele>
        <time>2025-10-23T07:41:36Z</time>
      </trkpt>
      <trkpt lat="43.57883" lon="3.04019">
        <ele>181.397753</ele>
        <time>2025-10-23T07:41:37Z</time>
      </trkpt>
      <trkpt lat="43.57881" lon="3.04017">
        <ele>181.425454</ele>
        <time>2025-10-23T07:41:38Z</time>
      </trkpt>
      <trkpt lat="43.57878" lon="3.04015">
        <ele>181.457601</ele>
        <time>2025-10-23T07:41:39Z</time>
      </trkpt>
      <trkpt lat="43.57875" lon="3.04013">
        <ele>181.489624</ele>
        <time>2025-10-23T07:41:40Z</time>
      </trkpt>
      <trkpt lat="43.57873" lon="3.04011">
        <ele>181.51773</ele>
        <time>2025-10-23T07:41:41Z</time>
      </trkpt>
      <trkpt lat="43.57871" lon="3.04007">
        <ele>181.547286</ele>
        <time>2025-10-23T07:41:42Z</time>
      </trkpt>
      <trkpt lat="43.57872" lon="3.04003">
        <ele>181.573007</ele>
        <time>2025-10-23T07:41:43Z</time>
      </trkpt>
      <trkpt lat="43.57874" lon="3.04">
        <ele>181.598807</ele>
        <time>2025-10-23T07:41:44Z</time>
      </trkpt>
      <trkpt lat="43.57874" lon="3.03997">
        <ele>181.624694</ele>
        <time>2025-10-23T07:41:45Z</time>
      </trkpt>
      <trkpt lat="43.57874" lon="3.03993">
        <ele>181.652664</ele>
        <time>2025-10-23T07:41:46Z</time>
      </trkpt>
      <trkpt lat="43.57874" lon="3.03988">
        <ele>181.687322</ele>
        <time>2025-10-23T07:41:47Z</time>
      </trkpt>
      <trkpt lat="43.57875" lon="3.03982">
        <ele>181.729211</ele>
        <time>2025-10-23T07:41:48Z</time>
      </trkpt>
      <trkpt lat="43.57876" lon="3.03976">
        <ele>181.771716</ele>
        <time>2025-10-23T07:41:49Z</time>
      </trkpt>
      <trkpt lat="43.57878" lon="3.03971">
        <ele>181.815901</ele>
        <time>2025-10-23T07:41:50Z</time>
      </trkpt>
      <trkpt lat="43.5788" lon="3.03965">
        <ele>181.863217</ele>
        <time>2025-10-23T07:41:51Z</time>
      </trkpt>
      <trkpt lat="43.57882" lon="3.03958">
        <ele>181.913038</ele>
        <time>2025-10-23T07:41:52Z</time>
      </trkpt>
      <trkpt lat="43.57885" lon="3.03952">
        <ele>181.963932</ele>
        <time>2025-10-23T07:41:53Z</time>
      </trkpt>
      <trkpt lat="43.57887" lon="3.03946">
        <ele>182.015018</ele>
        <time>2025-10-23T07:41:54Z</time>
      </trkpt>
      <trkpt lat="43.57889" lon="3.03939">
        <ele>182.068257</ele>
        <time>2025-10-23T07:41:55Z</time>
      </trkpt>
      <trkpt lat="43.57891" lon="3.03932">
        <ele>182.121496</ele>
        <time>2025-10-23T07:41:56Z</time>
      </trkpt>
      <trkpt lat="43.57894" lon="3.03925">
        <ele>182.17305</ele>
        <time>2025-10-23T07:41:57Z</time>
      </trkpt>
      <trkpt lat="43.57896" lon="3.03918">
        <ele>182.227507</ele>
        <time>2025-10-23T07:41:58Z</time>
      </trkpt>
      <trkpt lat="43.57898" lon="3.03911">
        <ele>182.283724</ele>
        <time>2025-10-23T07:41:59Z</time>
      </trkpt>
      <trkpt lat="43.579" lon="3.03903">
        <ele>182.341171</ele>
        <time>2025-10-23T07:42:00Z</time>
      </trkpt>
      <trkpt lat="43.57903" lon="3.03896">
        <ele>182.398428</ele>
        <time>2025-10-23T07:42:01Z</time>
      </trkpt>
      <trkpt lat="43.57905" lon="3.03888">
        <ele>182.454917</ele>
        <time>2025-10-23T07:42:02Z</time>
      </trkpt>
      <trkpt lat="43.57907" lon="3.03881">
        <ele>182.512432</ele>
        <time>2025-10-23T07:42:03Z</time>
      </trkpt>
      <trkpt lat="43.57909" lon="3.03873">
        <ele>182.570199</ele>
        <time>2025-10-23T07:42:04Z</time>
      </trkpt>
      <trkpt lat="43.57911" lon="3.03866">
        <ele>182.626325</ele>
        <time>2025-10-23T07:42:05Z</time>
      </trkpt>
      <trkpt lat="43.57914" lon="3.03858">
        <ele>182.682813</ele>
        <time>2025-10-23T07:42:06Z</time>
      </trkpt>
      <trkpt lat="43.57916" lon="3.03851">
        <ele>182.737997</ele>
        <time>2025-10-23T07:42:07Z</time>
      </trkpt>
      <trkpt lat="43.57918" lon="3.03844">
        <ele>182.747453</ele>
        <time>2025-10-23T07:42:08Z</time>
      </trkpt>
      <trkpt lat="43.5792" lon="3.03837">
        <ele>182.714093</ele>
        <time>2025-10-23T07:42:09Z</time>
      </trkpt>
      <trkpt lat="43.57922" lon="3.0383">
        <ele>182.681176</ele>
        <time>2025-10-23T07:42:10Z</time>
      </trkpt>
      <trkpt lat="43.57924" lon="3.03822">
        <ele>182.648077</ele>
        <time>2025-10-23T07:42:11Z</time>
      </trkpt>
      <trkpt lat="43.57926" lon="3.03815">
        <ele>182.613989</ele>
        <time>2025-10-23T07:42:12Z</time>
      </trkpt>
      <trkpt lat="43.57929" lon="3.03807">
        <ele>182.579472</ele>
        <time>2025-10-23T07:42:13Z</time>
      </trkpt>
      <trkpt lat="43.57931" lon="3.038">
        <ele>182.545254</ele>
        <time>2025-10-23T07:42:14Z</time>
      </trkpt>
      <trkpt lat="43.57934" lon="3.03792">
        <ele>182.510894</ele>
        <time>2025-10-23T07:42:15Z</time>
      </trkpt>
      <trkpt lat="43.57936" lon="3.03785">
        <ele>182.47615</ele>
        <time>2025-10-23T07:42:16Z</time>
      </trkpt>
      <trkpt lat="43.57938" lon="3.03777">
        <ele>182.440636</ele>
        <time>2025-10-23T07:42:17Z</time>
      </trkpt>
      <trkpt lat="43.57941" lon="3.03769">
        <ele>182.405732</ele>
        <time>2025-10-23T07:42:18Z</time>
      </trkpt>
      <trkpt lat="43.57943" lon="3.03761">
        <ele>182.369445</ele>
        <time>2025-10-23T07:42:19Z</time>
      </trkpt>
      <trkpt lat="43.57945" lon="3.03753">
        <ele>182.333545</ele>
        <time>2025-10-23T07:42:20Z</time>
      </trkpt>
      <trkpt lat="43.57948" lon="3.03746">
        <ele>182.299028</ele>
        <time>2025-10-23T07:42:21Z</time>
      </trkpt>
      <trkpt lat="43.5795" lon="3.03738">
        <ele>182.264284</ele>
        <time>2025-10-23T07:42:22Z</time>
      </trkpt>
      <trkpt lat="43.57953" lon="3.0373">
        <ele>182.22877</ele>
        <time>2025-10-23T07:42:23Z</time>
      </trkpt>
      <trkpt lat="43.57955" lon="3.03722">
        <ele>182.192701</ele>
        <time>2025-10-23T07:42:24Z</time>
      </trkpt>
      <trkpt lat="43.57957" lon="3.03714">
        <ele>182.156801</ele>
        <time>2025-10-23T07:42:25Z</time>
      </trkpt>
      <trkpt lat="43.5796" lon="3.03706">
        <ele>182.120514</ele>
        <time>2025-10-23T07:42:26Z</time>
      </trkpt>
      <trkpt lat="43.57962" lon="3.03698">
        <ele>182.084002</ele>
        <time>2025-10-23T07:42:27Z</time>
      </trkpt>
      <trkpt lat="43.57964" lon="3.0369">
        <ele>182.047933</ele>
        <time>2025-10-23T07:42:28Z</time>
      </trkpt>
      <trkpt lat="43.57967" lon="3.03683">
        <ele>182.014237</ele>
        <time>2025-10-23T07:42:29Z</time>
      </trkpt>
      <trkpt lat="43.57969" lon="3.03676">
        <ele>181.98171</ele>
        <time>2025-10-23T07:42:30Z</time>
      </trkpt>
      <trkpt lat="43.57971" lon="3.03668">
        <ele>181.949348</ele>
        <time>2025-10-23T07:42:31Z</time>
      </trkpt>
      <trkpt lat="43.57973" lon="3.03661">
        <ele>181.916641</ele>
        <time>2025-10-23T07:42:32Z</time>
      </trkpt>
      <trkpt lat="43.57975" lon="3.03654">
        <ele>181.884507</ele>
        <time>2025-10-23T07:42:33Z</time>
      </trkpt>
      <trkpt lat="43.57976" lon="3.03647">
        <ele>181.852192</ele>
        <time>2025-10-23T07:42:34Z</time>
      </trkpt>
      <trkpt lat="43.57978" lon="3.03639">
        <ele>181.820855</ele>
        <time>2025-10-23T07:42:35Z</time>
      </trkpt>
      <trkpt lat="43.5798" lon="3.03632">
        <ele>181.789119</ele>
        <time>2025-10-23T07:42:36Z</time>
      </trkpt>
      <trkpt lat="43.57981" lon="3.03625">
        <ele>181.756586</ele>
        <time>2025-10-23T07:42:37Z</time>
      </trkpt>
      <trkpt lat="43.57983" lon="3.03618">
        <ele>181.72408</ele>
        <time>2025-10-23T07:42:38Z</time>
      </trkpt>
      <trkpt lat="43.57985" lon="3.0361">
        <ele>181.722175</ele>
        <time>2025-10-23T07:42:39Z</time>
      </trkpt>
      <trkpt lat="43.57986" lon="3.03603">
        <ele>181.721107</ele>
        <time>2025-10-23T07:42:40Z</time>
      </trkpt>
      <trkpt lat="43.57988" lon="3.03596">
        <ele>181.720057</ele>
        <time>2025-10-23T07:42:41Z</time>
      </trkpt>
      <trkpt lat="43.57989" lon="3.03589">
        <ele>181.719027</ele>
        <time>2025-10-23T07:42:42Z</time>
      </trkpt>
      <trkpt lat="43.5799" lon="3.0358">
        <ele>181.717836</ele>
        <time>2025-10-23T07:42:43Z</time>
      </trkpt>
      <trkpt lat="43.57991" lon="3.03572">
        <ele>181.716593</ele>
        <time>2025-10-23T07:42:44Z</time>
      </trkpt>
      <trkpt lat="43.57993" lon="3.03563">
        <ele>181.715318</ele>
        <time>2025-10-23T07:42:45Z</time>
      </trkpt>
      <trkpt lat="43.57994" lon="3.03554">
        <ele>181.714134</ele>
        <time>2025-10-23T07:42:46Z</time>
      </trkpt>
      <trkpt lat="43.57995" lon="3.03547">
        <ele>181.713029</ele>
        <time>2025-10-23T07:42:47Z</time>
      </trkpt>
      <trkpt lat="43.57996" lon="3.03539">
        <ele>181.711914</ele>
        <time>2025-10-23T07:42:48Z</time>
      </trkpt>
      <trkpt lat="43.57997" lon="3.03531">
        <ele>181.710832</ele>
        <time>2025-10-23T07:42:49Z</time>
      </trkpt>
      <trkpt lat="43.57998" lon="3.03524">
        <ele>181.709745</ele>
        <time>2025-10-23T07:42:50Z</time>
      </trkpt>
      <trkpt lat="43.57999" lon="3.03517">
        <ele>181.708716</ele>
        <time>2025-10-23T07:42:51Z</time>
      </trkpt>
      <trkpt lat="43.58" lon="3.03509">
        <ele>181.707643</ele>
        <time>2025-10-23T07:42:52Z</time>
      </trkpt>
      <trkpt lat="43.58001" lon="3.03502">
        <ele>181.706586</ele>
        <time>2025-10-23T07:42:53Z</time>
      </trkpt>
      <trkpt lat="43.58002" lon="3.03494">
        <ele>181.705533</ele>
        <time>2025-10-23T07:42:54Z</time>
      </trkpt>
      <trkpt lat="43.58002" lon="3.03487">
        <ele>181.704508</ele>
        <time>2025-10-23T07:42:55Z</time>
      </trkpt>
      <trkpt lat="43.58003" lon="3.0348">
        <ele>181.703426</ele>
        <time>2025-10-23T07:42:56Z</time>
      </trkpt>
      <trkpt lat="43.58004" lon="3.03472">
        <ele>181.70238</ele>
        <time>2025-10-23T07:42:57Z</time>
      </trkpt>
      <trkpt lat="43.58004" lon="3.03464">
        <ele>181.701288</ele>
        <time>2025-10-23T07:42:58Z</time>
      </trkpt>
      <trkpt lat="43.58005" lon="3.03457">
        <ele>181.700167</ele>
        <time>2025-10-23T07:42:59Z</time>
      </trkpt>
      <trkpt lat="43.58006" lon="3.03449">
        <ele>181.699079</ele>
        <time>2025-10-23T07:43:00Z</time>
      </trkpt>
      <trkpt lat="43.58006" lon="3.03442">
        <ele>181.698058</ele>
        <time>2025-10-23T07:43:01Z</time>
      </trkpt>
      <trkpt lat="43.58007" lon="3.03435">
        <ele>181.697052</ele>
        <time>2025-10-23T07:43:02Z</time>
      </trkpt>
      <trkpt lat="43.58007" lon="3.03428">
        <ele>181.696079</ele>
        <time>2025-10-23T07:43:03Z</time>
      </trkpt>
      <trkpt lat="43.58007" lon="3.03421">
        <ele>181.695175</ele>
        <time>2025-10-23T07:43:04Z</time>
      </trkpt>
      <trkpt lat="43.58007" lon="3.03414">
        <ele>181.694147</ele>
        <time>2025-10-23T07:43:05Z</time>
      </trkpt>
      <trkpt lat="43.58008" lon="3.03407">
        <ele>181.693146</ele>
        <time>2025-10-23T07:43:06Z</time>
      </trkpt>
      <trkpt lat="43.58008" lon="3.03399">
        <ele>181.692085</ele>
        <time>2025-10-23T07:43:07Z</time>
      </trkpt>
      <trkpt lat="43.58008" lon="3.03392">
        <ele>181.691001</ele>
        <time>2025-10-23T07:43:08Z</time>
      </trkpt>
      <trkpt lat="43.58008" lon="3.03384">
        <ele>181.689959</ele>
        <time>2025-10-23T07:43:09Z</time>
      </trkpt>
      <trkpt lat="43.58008" lon="3.03377">
        <ele>181.688887</ele>
        <time>2025-10-23T07:43:10Z</time>
      </trkpt>
      <trkpt lat="43.58008" lon="3.03369">
        <ele>181.705836</ele>
        <time>2025-10-23T07:43:11Z</time>
      </trkpt>
      <trkpt lat="43.58008" lon="3.03362">
        <ele>181.748848</ele>
        <time>2025-10-23T07:43:12Z</time>
      </trkpt>
      <trkpt lat="43.58008" lon="3.03354">
        <ele>181.792976</ele>
        <time>2025-10-23T07:43:13Z</time>
      </trkpt>
      <trkpt lat="43.58007" lon="3.03348">
        <ele>181.833598</ele>
        <time>2025-10-23T07:43:14Z</time>
      </trkpt>
      <trkpt lat="43.58007" lon="3.03341">
        <ele>181.871466</ele>
        <time>2025-10-23T07:43:15Z</time>
      </trkpt>
      <trkpt lat="43.58006" lon="3.03335">
        <ele>181.908163</ele>
        <time>2025-10-23T07:43:16Z</time>
      </trkpt>
      <trkpt lat="43.58006" lon="3.03329">
        <ele>181.945446</ele>
        <time>2025-10-23T07:43:17Z</time>
      </trkpt>
      <trkpt lat="43.58005" lon="3.03321">
        <ele>181.989167</ele>
        <time>2025-10-23T07:43:18Z</time>
      </trkpt>
      <trkpt lat="43.58005" lon="3.03315">
        <ele>182.025963</ele>
        <time>2025-10-23T07:43:19Z</time>
      </trkpt>
      <trkpt lat="43.58004" lon="3.03309">
        <ele>182.063009</ele>
        <time>2025-10-23T07:43:20Z</time>
      </trkpt>
      <trkpt lat="43.58004" lon="3.03303">
        <ele>182.098389</ele>
        <time>2025-10-23T07:43:21Z</time>
      </trkpt>
      <trkpt lat="43.58003" lon="3.03297">
        <ele>182.135087</ele>
        <time>2025-10-23T07:43:22Z</time>
      </trkpt>
      <trkpt lat="43.58003" lon="3.03291">
        <ele>182.169946</ele>
        <time>2025-10-23T07:43:23Z</time>
      </trkpt>
      <trkpt lat="43.58002" lon="3.03284">
        <ele>182.208298</ele>
        <time>2025-10-23T07:43:24Z</time>
      </trkpt>
      <trkpt lat="43.58001" lon="3.03278">
        <ele>182.248962</ele>
        <time>2025-10-23T07:43:25Z</time>
      </trkpt>
      <trkpt lat="43.58" lon="3.03271">
        <ele>182.28762</ele>
        <time>2025-10-23T07:43:26Z</time>
      </trkpt>
      <trkpt lat="43.58" lon="3.03265">
        <ele>182.323733</ele>
        <time>2025-10-23T07:43:27Z</time>
      </trkpt>
      <trkpt lat="43.57999" lon="3.03258">
        <ele>182.365199</ele>
        <time>2025-10-23T07:43:28Z</time>
      </trkpt>
      <trkpt lat="43.57998" lon="3.0325">
        <ele>182.410501</ele>
        <time>2025-10-23T07:43:29Z</time>
      </trkpt>
      <trkpt lat="43.57998" lon="3.03243">
        <ele>182.455569</ele>
        <time>2025-10-23T07:43:30Z</time>
      </trkpt>
      <trkpt lat="43.57997" lon="3.03235">
        <ele>182.50029</ele>
        <time>2025-10-23T07:43:31Z</time>
      </trkpt>
      <trkpt lat="43.57996" lon="3.03227">
        <ele>182.548773</ele>
        <time>2025-10-23T07:43:32Z</time>
      </trkpt>
      <trkpt lat="43.57995" lon="3.0322">
        <ele>182.593212</ele>
        <time>2025-10-23T07:43:33Z</time>
      </trkpt>
      <trkpt lat="43.57994" lon="3.03212">
        <ele>182.637495</ele>
        <time>2025-10-23T07:43:34Z</time>
      </trkpt>
      <trkpt lat="43.57993" lon="3.03205">
        <ele>182.682216</ele>
        <time>2025-10-23T07:43:35Z</time>
      </trkpt>
      <trkpt lat="43.57992" lon="3.03197">
        <ele>182.727581</ele>
        <time>2025-10-23T07:43:36Z</time>
      </trkpt>
      <trkpt lat="43.5799" lon="3.0319">
        <ele>182.771232</ele>
        <time>2025-10-23T07:43:37Z</time>
      </trkpt>
      <trkpt lat="43.57989" lon="3.03183">
        <ele>182.813944</ele>
        <time>2025-10-23T07:43:38Z</time>
      </trkpt>
      <trkpt lat="43.57988" lon="3.03176">
        <ele>182.85745</ele>
        <time>2025-10-23T07:43:39Z</time>
      </trkpt>
      <trkpt lat="43.57987" lon="3.03168">
        <ele>182.906367</ele>
        <time>2025-10-23T07:43:40Z</time>
      </trkpt>
      <trkpt lat="43.57986" lon="3.0316">
        <ele>182.950268</ele>
        <time>2025-10-23T07:43:41Z</time>
      </trkpt>
      <trkpt lat="43.57985" lon="3.03154">
        <ele>182.991072</ele>
        <time>2025-10-23T07:43:42Z</time>
      </trkpt>
      <trkpt lat="43.57983" lon="3.03147">
        <ele>183.028714</ele>
        <time>2025-10-23T07:43:43Z</time>
      </trkpt>
      <trkpt lat="43.57982" lon="3.03141">
        <ele>183.066683</ele>
        <time>2025-10-23T07:43:44Z</time>
      </trkpt>
      <trkpt lat="43.57981" lon="3.03135">
        <ele>183.102961</ele>
        <time>2025-10-23T07:43:45Z</time>
      </trkpt>
      <trkpt lat="43.5798" lon="3.0313">
        <ele>183.138115</ele>
        <time>2025-10-23T07:43:46Z</time>
      </trkpt>
      <trkpt lat="43.57979" lon="3.03123">
        <ele>183.161247</ele>
        <time>2025-10-23T07:43:47Z</time>
      </trkpt>
      <trkpt lat="43.57978" lon="3.03117">
        <ele>183.178363</ele>
        <time>2025-10-23T07:43:48Z</time>
      </trkpt>
      <trkpt lat="43.57977" lon="3.03111">
        <ele>183.19452</ele>
        <time>2025-10-23T07:43:49Z</time>
      </trkpt>
      <trkpt lat="43.57975" lon="3.03106">
        <ele>183.210609</ele>
        <time>2025-10-23T07:43:50Z</time>
      </trkpt>
      <trkpt lat="43.57974" lon="3.031">
        <ele>183.228109</ele>
        <time>2025-10-23T07:43:51Z</time>
      </trkpt>
      <trkpt lat="43.57972" lon="3.03094">
        <ele>183.244582</ele>
        <time>2025-10-23T07:43:52Z</time>
      </trkpt>
      <trkpt lat="43.5797" lon="3.03087">
        <ele>183.263586</ele>
        <time>2025-10-23T07:43:53Z</time>
      </trkpt>
      <trkpt lat="43.57968" lon="3.0308">
        <ele>183.283857</ele>
        <time>2025-10-23T07:43:54Z</time>
      </trkpt>
      <trkpt lat="43.57967" lon="3.03073">
        <ele>183.303619</ele>
        <time>2025-10-23T07:43:55Z</time>
      </trkpt>
      <trkpt lat="43.57965" lon="3.03066">
        <ele>183.32326</ele>
        <time>2025-10-23T07:43:56Z</time>
      </trkpt>
      <trkpt lat="43.57963" lon="3.03059">
        <ele>183.34341</ele>
        <time>2025-10-23T07:43:57Z</time>
      </trkpt>
      <trkpt lat="43.57961" lon="3.03052">
        <ele>183.363807</ele>
        <time>2025-10-23T07:43:58Z</time>
      </trkpt>
      <trkpt lat="43.5796" lon="3.03045">
        <ele>183.383453</ele>
        <time>2025-10-23T07:43:59Z</time>
      </trkpt>
      <trkpt lat="43.57958" lon="3.03039">
        <ele>183.40157</ele>
        <time>2025-10-23T07:44:00Z</time>
      </trkpt>
      <trkpt lat="43.57956" lon="3.03033">
        <ele>183.418822</ele>
        <time>2025-10-23T07:44:01Z</time>
      </trkpt>
      <trkpt lat="43.57954" lon="3.03026">
        <ele>183.4381</ele>
        <time>2025-10-23T07:44:02Z</time>
      </trkpt>
      <trkpt lat="43.57953" lon="3.03019">
        <ele>183.458497</ele>
        <time>2025-10-23T07:44:03Z</time>
      </trkpt>
      <trkpt lat="43.5795" lon="3.03013">
        <ele>183.47832</ele>
        <time>2025-10-23T07:44:04Z</time>
      </trkpt>
      <trkpt lat="43.57948" lon="3.03007">
        <ele>183.496507</ele>
        <time>2025-10-23T07:44:05Z</time>
      </trkpt>
      <trkpt lat="43.57946" lon="3.03">
        <ele>183.515195</ele>
        <time>2025-10-23T07:44:06Z</time>
      </trkpt>
      <trkpt lat="43.57943" lon="3.02994">
        <ele>183.535579</ele>
        <time>2025-10-23T07:44:07Z</time>
      </trkpt>
      <trkpt lat="43.5794" lon="3.02988">
        <ele>183.554783</ele>
        <time>2025-10-23T07:44:08Z</time>
      </trkpt>
      <trkpt lat="43.57937" lon="3.02982">
        <ele>183.57487</ele>
        <time>2025-10-23T07:44:09Z</time>
      </trkpt>
      <trkpt lat="43.57934" lon="3.02976">
        <ele>183.594948</ele>
        <time>2025-10-23T07:44:10Z</time>
      </trkpt>
      <trkpt lat="43.57931" lon="3.0297">
        <ele>183.615028</ele>
        <time>2025-10-23T07:44:11Z</time>
      </trkpt>
      <trkpt lat="43.57928" lon="3.02964">
        <ele>183.634674</ele>
        <time>2025-10-23T07:44:12Z</time>
      </trkpt>
      <trkpt lat="43.57925" lon="3.02958">
        <ele>183.654099</ele>
        <time>2025-10-23T07:44:13Z</time>
      </trkpt>
      <trkpt lat="43.57921" lon="3.02951">
        <ele>183.677013</ele>
        <time>2025-10-23T07:44:14Z</time>
      </trkpt>
      <trkpt lat="43.57917" lon="3.02944">
        <ele>183.700588</ele>
        <time>2025-10-23T07:44:15Z</time>
      </trkpt>
      <trkpt lat="43.57914" lon="3.02938">
        <ele>183.722413</ele>
        <time>2025-10-23T07:44:16Z</time>
      </trkpt>
      <trkpt lat="43.57911" lon="3.02931">
        <ele>183.744246</ele>
        <time>2025-10-23T07:44:17Z</time>
      </trkpt>
      <trkpt lat="43.57908" lon="3.02925">
        <ele>183.763479</ele>
        <time>2025-10-23T07:44:18Z</time>
      </trkpt>
      <trkpt lat="43.57905" lon="3.02919">
        <ele>183.783571</ele>
        <time>2025-10-23T07:44:19Z</time>
      </trkpt>
      <trkpt lat="43.57902" lon="3.02913">
        <ele>183.802778</ele>
        <time>2025-10-23T07:44:20Z</time>
      </trkpt>
      <trkpt lat="43.57899" lon="3.02907">
        <ele>183.82908</ele>
        <time>2025-10-23T07:44:21Z</time>
      </trkpt>
      <trkpt lat="43.57896" lon="3.02902">
        <ele>183.899752</ele>
        <time>2025-10-23T07:44:22Z</time>
      </trkpt>
      <trkpt lat="43.57893" lon="3.02897">
        <ele>183.972155</ele>
        <time>2025-10-23T07:44:23Z</time>
      </trkpt>
      <trkpt lat="43.57891" lon="3.0289">
        <ele>184.053718</ele>
        <time>2025-10-23T07:44:24Z</time>
      </trkpt>
      <trkpt lat="43.57887" lon="3.02884">
        <ele>184.142754</ele>
        <time>2025-10-23T07:44:25Z</time>
      </trkpt>
      <trkpt lat="43.57884" lon="3.02878">
        <ele>184.224738</ele>
        <time>2025-10-23T07:44:26Z</time>
      </trkpt>
      <trkpt lat="43.57882" lon="3.02871">
        <ele>184.305445</ele>
        <time>2025-10-23T07:44:27Z</time>
      </trkpt>
      <trkpt lat="43.57879" lon="3.02865">
        <ele>184.380619</ele>
        <time>2025-10-23T07:44:28Z</time>
      </trkpt>
      <trkpt lat="43.57876" lon="3.02859">
        <ele>184.459228</ele>
        <time>2025-10-23T07:44:29Z</time>
      </trkpt>
      <trkpt lat="43.57874" lon="3.02854">
        <ele>184.530633</ele>
        <time>2025-10-23T07:44:30Z</time>
      </trkpt>
      <trkpt lat="43.57871" lon="3.02849">
        <ele>184.599509</ele>
        <time>2025-10-23T07:44:31Z</time>
      </trkpt>
      <trkpt lat="43.57868" lon="3.02844">
        <ele>184.668518</ele>
        <time>2025-10-23T07:44:32Z</time>
      </trkpt>
      <trkpt lat="43.57865" lon="3.02839">
        <ele>184.738355</ele>
        <time>2025-10-23T07:44:33Z</time>
      </trkpt>
      <trkpt lat="43.57862" lon="3.02834">
        <ele>184.807232</ele>
        <time>2025-10-23T07:44:34Z</time>
      </trkpt>
      <trkpt lat="43.57859" lon="3.02829">
        <ele>184.874436</ele>
        <time>2025-10-23T07:44:35Z</time>
      </trkpt>
      <trkpt lat="43.57856" lon="3.02824">
        <ele>184.942372</ele>
        <time>2025-10-23T07:44:36Z</time>
      </trkpt>
      <trkpt lat="43.57853" lon="3.02819">
        <ele>185.012095</ele>
        <time>2025-10-23T07:44:37Z</time>
      </trkpt>
      <trkpt lat="43.5785" lon="3.02815">
        <ele>185.082566</ele>
        <time>2025-10-23T07:44:38Z</time>
      </trkpt>
      <trkpt lat="43.57847" lon="3.0281">
        <ele>185.152269</ele>
        <time>2025-10-23T07:44:39Z</time>
      </trkpt>
      <trkpt lat="43.57843" lon="3.02805">
        <ele>185.224082</ele>
        <time>2025-10-23T07:44:40Z</time>
      </trkpt>
      <trkpt lat="43.5784" lon="3.028">
        <ele>185.295722</ele>
        <time>2025-10-23T07:44:41Z</time>
      </trkpt>
      <trkpt lat="43.57837" lon="3.02795">
        <ele>185.366394</ele>
        <time>2025-10-23T07:44:42Z</time>
      </trkpt>
      <trkpt lat="43.57834" lon="3.02791">
        <ele>185.435816</ele>
        <time>2025-10-23T07:44:43Z</time>
      </trkpt>
      <trkpt lat="43.57831" lon="3.02786">
        <ele>185.506028</ele>
        <time>2025-10-23T07:44:44Z</time>
      </trkpt>
      <trkpt lat="43.57828" lon="3.02781">
        <ele>185.577842</ele>
        <time>2025-10-23T07:44:45Z</time>
      </trkpt>
      <trkpt lat="43.57824" lon="3.02777">
        <ele>185.648975</ele>
        <time>2025-10-23T07:44:46Z</time>
      </trkpt>
      <trkpt lat="43.5782" lon="3.02772">
        <ele>185.724531</ele>
        <time>2025-10-23T07:44:47Z</time>
      </trkpt>
      <trkpt lat="43.57817" lon="3.02767">
        <ele>185.796171</ele>
        <time>2025-10-23T07:44:48Z</time>
      </trkpt>
      <trkpt lat="43.57814" lon="3.02762">
        <ele>185.866843</ele>
        <time>2025-10-23T07:44:49Z</time>
      </trkpt>
      <trkpt lat="43.57811" lon="3.02757">
        <ele>185.939144</ele>
        <time>2025-10-23T07:44:50Z</time>
      </trkpt>
      <trkpt lat="43.57808" lon="3.02752">
        <ele>186.014398</ele>
        <time>2025-10-23T07:44:51Z</time>
      </trkpt>
      <trkpt lat="43.57805" lon="3.02747">
        <ele>186.088835</ele>
        <time>2025-10-23T07:44:52Z</time>
      </trkpt>
      <trkpt lat="43.57801" lon="3.02741">
        <ele>186.166903</ele>
        <time>2025-10-23T07:44:53Z</time>
      </trkpt>
      <trkpt lat="43.57798" lon="3.02736">
        <ele>186.243375</ele>
        <time>2025-10-23T07:44:54Z</time>
      </trkpt>
      <trkpt lat="43.57795" lon="3.02731">
        <ele>186.317813</ele>
        <time>2025-10-23T07:44:55Z</time>
      </trkpt>
      <trkpt lat="43.57791" lon="3.02726">
        <ele>186.392251</ele>
        <time>2025-10-23T07:44:56Z</time>
      </trkpt>
      <trkpt lat="43.57788" lon="3.0272">
        <ele>186.468109</ele>
        <time>2025-10-23T07:44:57Z</time>
      </trkpt>
      <trkpt lat="43.57785" lon="3.02715">
        <ele>186.508966</ele>
        <time>2025-10-23T07:44:58Z</time>
      </trkpt>
      <trkpt lat="43.57782" lon="3.0271">
        <ele>186.463608</ele>
        <time>2025-10-23T07:44:59Z</time>
      </trkpt>
      <trkpt lat="43.57778" lon="3.02706">
        <ele>186.415927</ele>
        <time>2025-10-23T07:45:00Z</time>
      </trkpt>
      <trkpt lat="43.57775" lon="3.02701">
        <ele>186.369302</ele>
        <time>2025-10-23T07:45:01Z</time>
      </trkpt>
      <trkpt lat="43.57771" lon="3.02695">
        <ele>186.321829</ele>
        <time>2025-10-23T07:45:02Z</time>
      </trkpt>
      <trkpt lat="43.57768" lon="3.0269">
        <ele>186.276149</ele>
        <time>2025-10-23T07:45:03Z</time>
      </trkpt>
      <trkpt lat="43.57765" lon="3.02685">
        <ele>186.231909</ele>
        <time>2025-10-23T07:45:04Z</time>
      </trkpt>
      <trkpt lat="43.57762" lon="3.0268">
        <ele>186.188887</ele>
        <time>2025-10-23T07:45:05Z</time>
      </trkpt>
      <trkpt lat="43.57759" lon="3.02676">
        <ele>186.147077</ele>
        <time>2025-10-23T07:45:06Z</time>
      </trkpt>
      <trkpt lat="43.57756" lon="3.02671">
        <ele>186.104452</ele>
        <time>2025-10-23T07:45:07Z</time>
      </trkpt>
      <trkpt lat="43.57752" lon="3.02667">
        <ele>186.061513</ele>
        <time>2025-10-23T07:45:08Z</time>
      </trkpt>
      <trkpt lat="43.57749" lon="3.02662">
        <ele>186.017444</ele>
        <time>2025-10-23T07:45:09Z</time>
      </trkpt>
      <trkpt lat="43.57745" lon="3.02658">
        <ele>185.974303</ele>
        <time>2025-10-23T07:45:10Z</time>
      </trkpt>
      <trkpt lat="43.57742" lon="3.02653">
        <ele>185.930233</ele>
        <time>2025-10-23T07:45:11Z</time>
      </trkpt>
      <trkpt lat="43.57739" lon="3.02649">
        <ele>185.886412</ele>
        <time>2025-10-23T07:45:12Z</time>
      </trkpt>
      <trkpt lat="43.57735" lon="3.02644">
        <ele>185.843727</ele>
        <time>2025-10-23T07:45:13Z</time>
      </trkpt>
      <trkpt lat="43.57732" lon="3.02639">
        <ele>185.796753</ele>
        <time>2025-10-23T07:45:14Z</time>
      </trkpt>
      <trkpt lat="43.57729" lon="3.02634">
        <ele>185.753801</ele>
        <time>2025-10-23T07:45:15Z</time>
      </trkpt>
      <trkpt lat="43.57727" lon="3.02629">
        <ele>185.71237</ele>
        <time>2025-10-23T07:45:16Z</time>
      </trkpt>
      <trkpt lat="43.57724" lon="3.02624">
        <ele>185.671988</ele>
        <time>2025-10-23T07:45:17Z</time>
      </trkpt>
      <trkpt lat="43.57724" lon="3.02624">
        <ele>185.671988</ele>
        <time>2025-10-23T07:45:18Z</time>
      </trkpt>
      <trkpt lat="43.57724" lon="3.02624">
        <ele>185.671988</ele>
        <time>2025-10-23T07:45:22Z</time>
      </trkpt>
      <trkpt lat="43.57724" lon="3.02624">
        <ele>185.671988</ele>
        <time>2025-10-23T07:45:23Z</time>
      </trkpt>
      <trkpt lat="43.57724" lon="3.02624">
        <ele>185.671988</ele>
        <time>2025-10-23T07:45:24Z</time>
      </trkpt>
      <trkpt lat="43.57724" lon="3.02624">
        <ele>185.671988</ele>
        <time>2025-10-23T07:45:28Z</time>
      </trkpt>
      <trkpt lat="43.57724" lon="3.02624">
        <ele>185.671988</ele>
        <time>2025-10-23T07:45:31Z</time>
      </trkpt>
      <trkpt lat="43.57724" lon="3.02624">
        <ele>185.671988</ele>
        <time>2025-10-23T07:45:32Z</time>
      </trkpt>
      <trkpt lat="43.57724" lon="3.02624">
        <ele>185.671988</ele>
        <time>2025-10-23T07:45:33Z</time>
      </trkpt>
      <trkpt lat="43.57724" lon="3.02624">
        <ele>185.671988</ele>
        <time>2025-10-23T07:45:34Z</time>
      </trkpt>
      <trkpt lat="43.57724" lon="3.02624">
        <ele>185.671988</ele>
        <time>2025-10-23T07:45:35Z</time>
      </trkpt>
      <trkpt lat="43.57724" lon="3.02624">
        <ele>185.671988</ele>
        <time>2025-10-23T07:45:37Z</time>
      </trkpt>
      <trkpt lat="43.57724" lon="3.02624">
        <ele>185.671988</ele>
        <time>2025-10-23T07:45:40Z</time>
      </trkpt>
      <trkpt lat="43.57724" lon="3.02624">
        <ele>185.671988</ele>
        <time>2025-10-23T07:45:48Z</time>
      </trkpt>
      <trkpt lat="43.57724" lon="3.02624">
        <ele>185.671988</ele>
        <time>2025-10-23T07:45:50Z</time>
      </trkpt>
      <trkpt lat="43.57724" lon="3.02624">
        <ele>185.671988</ele>
        <time>2025-10-23T07:45:53Z</time>
      </trkpt>
      <trkpt lat="43.57724" lon="3.02624">
        <ele>185.671988</ele>
        <time>2025-10-23T07:45:54Z</time>
      </trkpt>
      <trkpt lat="43.57724" lon="3.02624">
        <ele>185.671988</ele>
        <time>2025-10-23T07:45:55Z</time>
      </trkpt>
      <trkpt lat="43.57724" lon="3.02624">
        <ele>185.671988</ele>
        <time>2025-10-23T07:45:56Z</time>
      </trkpt>
      <trkpt lat="43.57724" lon="3.02624">
        <ele>185.671988</ele>
        <time>2025-10-23T07:45:57Z</time>
      </trkpt>
      <trkpt lat="43.57724" lon="3.02624">
        <ele>185.671988</ele>
        <time>2025-10-23T07:45:58Z</time>
      </trkpt>
      <trkpt lat="43.57599" lon="3.02417">
        <ele>183.778392</ele>
        <time>2025-10-23T07:46:01Z</time>
      </trkpt>
      <trkpt lat="43.57589" lon="3.02409">
        <ele>183.661887</ele>
        <time>2025-10-23T07:46:02Z</time>
      </trkpt>
      <trkpt lat="43.57582" lon="3.02404">
        <ele>183.584328</ele>
        <time>2025-10-23T07:46:03Z</time>
      </trkpt>
      <trkpt lat="43.57577" lon="3.02399">
        <ele>183.518358</ele>
        <time>2025-10-23T07:46:04Z</time>
      </trkpt>
      <trkpt lat="43.57572" lon="3.02393">
        <ele>183.446316</ele>
        <time>2025-10-23T07:46:05Z</time>
      </trkpt>
      <trkpt lat="43.57567" lon="3.02387">
        <ele>183.383972</ele>
        <time>2025-10-23T07:46:06Z</time>
      </trkpt>
      <trkpt lat="43.57563" lon="3.02381">
        <ele>183.322857</ele>
        <time>2025-10-23T07:46:07Z</time>
      </trkpt>
      <trkpt lat="43.57558" lon="3.02374">
        <ele>183.256819</ele>
        <time>2025-10-23T07:46:08Z</time>
      </trkpt>
      <trkpt lat="43.57554" lon="3.02369">
        <ele>183.196217</ele>
        <time>2025-10-23T07:46:09Z</time>
      </trkpt>
      <trkpt lat="43.5755" lon="3.02364">
        <ele>183.141071</ele>
        <time>2025-10-23T07:46:10Z</time>
      </trkpt>
      <trkpt lat="43.57546" lon="3.02359">
        <ele>183.085924</ele>
        <time>2025-10-23T07:46:11Z</time>
      </trkpt>
      <trkpt lat="43.57542" lon="3.02354">
        <ele>183.037968</ele>
        <time>2025-10-23T07:46:12Z</time>
      </trkpt>
      <trkpt lat="43.57537" lon="3.02349">
        <ele>183.012165</ele>
        <time>2025-10-23T07:46:13Z</time>
      </trkpt>
      <trkpt lat="43.57534" lon="3.02343">
        <ele>182.985686</ele>
        <time>2025-10-23T07:46:14Z</time>
      </trkpt>
      <trkpt lat="43.5753" lon="3.02337">
        <ele>182.961327</ele>
        <time>2025-10-23T07:46:15Z</time>
      </trkpt>
      <trkpt lat="43.57526" lon="3.02332">
        <ele>182.936361</ele>
        <time>2025-10-23T07:46:16Z</time>
      </trkpt>
      <trkpt lat="43.57522" lon="3.02327">
        <ele>182.911335</ele>
        <time>2025-10-23T07:46:17Z</time>
      </trkpt>
      <trkpt lat="43.57518" lon="3.02321">
        <ele>182.886987</ele>
        <time>2025-10-23T07:46:18Z</time>
      </trkpt>
      <trkpt lat="43.57515" lon="3.02316">
        <ele>182.86336</ele>
        <time>2025-10-23T07:46:19Z</time>
      </trkpt>
      <trkpt lat="43.57511" lon="3.0231">
        <ele>182.836635</ele>
        <time>2025-10-23T07:46:20Z</time>
      </trkpt>
      <trkpt lat="43.57507" lon="3.02304">
        <ele>182.808869</ele>
        <time>2025-10-23T07:46:21Z</time>
      </trkpt>
      <trkpt lat="43.57502" lon="3.02298">
        <ele>182.782162</ele>
        <time>2025-10-23T07:46:22Z</time>
      </trkpt>
      <trkpt lat="43.57498" lon="3.02292">
        <ele>182.755224</ele>
        <time>2025-10-23T07:46:23Z</time>
      </trkpt>
      <trkpt lat="43.57494" lon="3.02286">
        <ele>182.726613</ele>
        <time>2025-10-23T07:46:24Z</time>
      </trkpt>
      <trkpt lat="43.5749" lon="3.02279">
        <ele>182.69721</ele>
        <time>2025-10-23T07:46:25Z</time>
      </trkpt>
      <trkpt lat="43.57486" lon="3.02272">
        <ele>182.668462</ele>
        <time>2025-10-23T07:46:26Z</time>
      </trkpt>
      <trkpt lat="43.57482" lon="3.02265">
        <ele>182.639902</ele>
        <time>2025-10-23T07:46:27Z</time>
      </trkpt>
      <trkpt lat="43.57478" lon="3.02259">
        <ele>182.611887</ele>
        <time>2025-10-23T07:46:28Z</time>
      </trkpt>
      <trkpt lat="43.57474" lon="3.02253">
        <ele>182.584243</ele>
        <time>2025-10-23T07:46:29Z</time>
      </trkpt>
      <trkpt lat="43.57469" lon="3.02247">
        <ele>182.557305</ele>
        <time>2025-10-23T07:46:30Z</time>
      </trkpt>
      <trkpt lat="43.57465" lon="3.02242">
        <ele>182.530051</ele>
        <time>2025-10-23T07:46:31Z</time>
      </trkpt>
      <trkpt lat="43.57461" lon="3.02236">
        <ele>182.502645</ele>
        <time>2025-10-23T07:46:32Z</time>
      </trkpt>
      <trkpt lat="43.57456" lon="3.02229">
        <ele>182.475001</ele>
        <time>2025-10-23T07:46:33Z</time>
      </trkpt>
      <trkpt lat="43.57452" lon="3.02223">
        <ele>182.447042</ele>
        <time>2025-10-23T07:46:34Z</time>
      </trkpt>
      <trkpt lat="43.57448" lon="3.02217">
        <ele>182.419227</ele>
        <time>2025-10-23T07:46:35Z</time>
      </trkpt>
      <trkpt lat="43.57443" lon="3.02211">
        <ele>182.390005</ele>
        <time>2025-10-23T07:46:36Z</time>
      </trkpt>
      <trkpt lat="43.57439" lon="3.02205">
        <ele>182.362598</ele>
        <time>2025-10-23T07:46:37Z</time>
      </trkpt>
      <trkpt lat="43.57435" lon="3.02198">
        <ele>182.334079</ele>
        <time>2025-10-23T07:46:38Z</time>
      </trkpt>
      <trkpt lat="43.57431" lon="3.02192">
        <ele>182.307438</ele>
        <time>2025-10-23T07:46:39Z</time>
      </trkpt>
      <trkpt lat="43.57428" lon="3.02185">
        <ele>182.280299</ele>
        <time>2025-10-23T07:46:40Z</time>
      </trkpt>
      <trkpt lat="43.57424" lon="3.02179">
        <ele>182.251866</ele>
        <time>2025-10-23T07:46:41Z</time>
      </trkpt>
      <trkpt lat="43.57419" lon="3.02172">
        <ele>182.220105</ele>
        <time>2025-10-23T07:46:42Z</time>
      </trkpt>
      <trkpt lat="43.57414" lon="3.02165">
        <ele>182.187855</ele>
        <time>2025-10-23T07:46:43Z</time>
      </trkpt>
      <trkpt lat="43.5741" lon="3.02159">
        <ele>182.155683</ele>
        <time>2025-10-23T07:46:44Z</time>
      </trkpt>
      <trkpt lat="43.57405" lon="3.02152">
        <ele>182.121154</ele>
        <time>2025-10-23T07:46:45Z</time>
      </trkpt>
      <trkpt lat="43.574" lon="3.02144">
        <ele>182.08655</ele>
        <time>2025-10-23T07:46:46Z</time>
      </trkpt>
      <trkpt lat="43.57396" lon="3.02137">
        <ele>182.053146</ele>
        <time>2025-10-23T07:46:47Z</time>
      </trkpt>
      <trkpt lat="43.57392" lon="3.0213">
        <ele>182.021474</ele>
        <time>2025-10-23T07:46:48Z</time>
      </trkpt>
      <trkpt lat="43.57388" lon="3.02123">
        <ele>181.992063</ele>
        <time>2025-10-23T07:46:49Z</time>
      </trkpt>
      <trkpt lat="43.57385" lon="3.02116">
        <ele>181.962061</ele>
        <time>2025-10-23T07:46:50Z</time>
      </trkpt>
      <trkpt lat="43.57382" lon="3.02109">
        <ele>181.931761</ele>
        <time>2025-10-23T07:46:51Z</time>
      </trkpt>
      <trkpt lat="43.57379" lon="3.02101">
        <ele>181.901049</ele>
        <time>2025-10-23T07:46:52Z</time>
      </trkpt>
      <trkpt lat="43.57375" lon="3.02094">
        <ele>181.871304</ele>
        <time>2025-10-23T07:46:53Z</time>
      </trkpt>
      <trkpt lat="43.57372" lon="3.02087">
        <ele>181.84104</ele>
        <time>2025-10-23T07:46:54Z</time>
      </trkpt>
      <trkpt lat="43.57368" lon="3.02079">
        <ele>181.808809</ele>
        <time>2025-10-23T07:46:55Z</time>
      </trkpt>
      <trkpt lat="43.57364" lon="3.02072">
        <ele>181.77769</ele>
        <time>2025-10-23T07:46:56Z</time>
      </trkpt>
      <trkpt lat="43.57361" lon="3.02064">
        <ele>181.74679</ele>
        <time>2025-10-23T07:46:57Z</time>
      </trkpt>
      <trkpt lat="43.57358" lon="3.02057">
        <ele>181.715918</ele>
        <time>2025-10-23T07:46:58Z</time>
      </trkpt>
      <trkpt lat="43.57355" lon="3.02048">
        <ele>181.682886</ele>
        <time>2025-10-23T07:46:59Z</time>
      </trkpt>
      <trkpt lat="43.57352" lon="3.0204">
        <ele>181.649155</ele>
        <time>2025-10-23T07:47:00Z</time>
      </trkpt>
      <trkpt lat="43.57349" lon="3.02031">
        <ele>181.616794</ele>
        <time>2025-10-23T07:47:01Z</time>
      </trkpt>
      <trkpt lat="43.57346" lon="3.02024">
        <ele>181.586456</ele>
        <time>2025-10-23T07:47:02Z</time>
      </trkpt>
      <trkpt lat="43.57344" lon="3.02016">
        <ele>181.555901</ele>
        <time>2025-10-23T07:47:03Z</time>
      </trkpt>
      <trkpt lat="43.57342" lon="3.02008">
        <ele>181.526738</ele>
        <time>2025-10-23T07:47:04Z</time>
      </trkpt>
      <trkpt lat="43.57339" lon="3.01999">
        <ele>181.494614</ele>
        <time>2025-10-23T07:47:05Z</time>
      </trkpt>
      <trkpt lat="43.57338" lon="3.01991">
        <ele>181.464442</ele>
        <time>2025-10-23T07:47:06Z</time>
      </trkpt>
      <trkpt lat="43.57336" lon="3.01982">
        <ele>181.431628</ele>
        <time>2025-10-23T07:47:07Z</time>
      </trkpt>
      <trkpt lat="43.57334" lon="3.01973">
        <ele>181.396114</ele>
        <time>2025-10-23T07:47:08Z</time>
      </trkpt>
      <trkpt lat="43.57332" lon="3.01963">
        <ele>181.361997</ele>
        <time>2025-10-23T07:47:09Z</time>
      </trkpt>
      <trkpt lat="43.5733" lon="3.01954">
        <ele>181.22714</ele>
        <time>2025-10-23T07:47:10Z</time>
      </trkpt>
      <trkpt lat="43.57328" lon="3.01945">
        <ele>181.063313</ele>
        <time>2025-10-23T07:47:11Z</time>
      </trkpt>
      <trkpt lat="43.57327" lon="3.01935">
        <ele>180.891416</ele>
        <time>2025-10-23T07:47:12Z</time>
      </trkpt>
      <trkpt lat="43.57325" lon="3.01927">
        <ele>180.731958</ele>
        <time>2025-10-23T07:47:13Z</time>
      </trkpt>
      <trkpt lat="43.57324" lon="3.01918">
        <ele>180.573672</ele>
        <time>2025-10-23T07:47:14Z</time>
      </trkpt>
      <trkpt lat="43.57323" lon="3.01909">
        <ele>180.422374</ele>
        <time>2025-10-23T07:47:15Z</time>
      </trkpt>
      <trkpt lat="43.57322" lon="3.01901">
        <ele>180.27624</ele>
        <time>2025-10-23T07:47:16Z</time>
      </trkpt>
      <trkpt lat="43.5732" lon="3.01894">
        <ele>180.139192</ele>
        <time>2025-10-23T07:47:17Z</time>
      </trkpt>
      <trkpt lat="43.57319" lon="3.01887">
        <ele>180.011303</ele>
        <time>2025-10-23T07:47:18Z</time>
      </trkpt>
      <trkpt lat="43.57318" lon="3.01879">
        <ele>179.878242</ele>
        <time>2025-10-23T07:47:19Z</time>
      </trkpt>
      <trkpt lat="43.57318" lon="3.01873">
        <ele>179.766847</ele>
        <time>2025-10-23T07:47:20Z</time>
      </trkpt>
      <trkpt lat="43.57317" lon="3.01866">
        <ele>179.651524</ele>
        <time>2025-10-23T07:47:21Z</time>
      </trkpt>
      <trkpt lat="43.57316" lon="3.0186">
        <ele>179.534864</ele>
        <time>2025-10-23T07:47:22Z</time>
      </trkpt>
      <trkpt lat="43.57316" lon="3.01854">
        <ele>179.431665</ele>
        <time>2025-10-23T07:47:23Z</time>
      </trkpt>
      <trkpt lat="43.57315" lon="3.01848">
        <ele>179.317994</ele>
        <time>2025-10-23T07:47:24Z</time>
      </trkpt>
      <trkpt lat="43.57315" lon="3.01841">
        <ele>179.206069</ele>
        <time>2025-10-23T07:47:25Z</time>
      </trkpt>
      <trkpt lat="43.57315" lon="3.01833">
        <ele>179.061632</ele>
        <time>2025-10-23T07:47:26Z</time>
      </trkpt>
      <trkpt lat="43.57314" lon="3.01824">
        <ele>178.901048</ele>
        <time>2025-10-23T07:47:27Z</time>
      </trkpt>
      <trkpt lat="43.57314" lon="3.01815">
        <ele>178.738978</ele>
        <time>2025-10-23T07:47:28Z</time>
      </trkpt>
      <trkpt lat="43.57314" lon="3.01805">
        <ele>178.557535</ele>
        <time>2025-10-23T07:47:29Z</time>
      </trkpt>
      <trkpt lat="43.57314" lon="3.01794">
        <ele>178.37433</ele>
        <time>2025-10-23T07:47:30Z</time>
      </trkpt>
      <trkpt lat="43.57315" lon="3.01784">
        <ele>178.196161</ele>
        <time>2025-10-23T07:47:31Z</time>
      </trkpt>
      <trkpt lat="43.57315" lon="3.01774">
        <ele>178.018107</ele>
        <time>2025-10-23T07:47:32Z</time>
      </trkpt>
      <trkpt lat="43.57316" lon="3.01764">
        <ele>177.833889</ele>
        <time>2025-10-23T07:47:33Z</time>
      </trkpt>
      <trkpt lat="43.57317" lon="3.01753">
        <ele>177.647348</ele>
        <time>2025-10-23T07:47:34Z</time>
      </trkpt>
      <trkpt lat="43.57318" lon="3.01743">
        <ele>177.464487</ele>
        <time>2025-10-23T07:47:35Z</time>
      </trkpt>
      <trkpt lat="43.5732" lon="3.01733">
        <ele>177.288544</ele>
        <time>2025-10-23T07:47:36Z</time>
      </trkpt>
      <trkpt lat="43.57321" lon="3.01723">
        <ele>177.113313</ele>
        <time>2025-10-23T07:47:37Z</time>
      </trkpt>
      <trkpt lat="43.57323" lon="3.01714">
        <ele>176.958842</ele>
        <time>2025-10-23T07:47:38Z</time>
      </trkpt>
      <trkpt lat="43.57324" lon="3.01705">
        <ele>176.852221</ele>
        <time>2025-10-23T07:47:39Z</time>
      </trkpt>
      <trkpt lat="43.57326" lon="3.01697">
        <ele>176.752385</ele>
        <time>2025-10-23T07:47:40Z</time>
      </trkpt>
      <trkpt lat="43.57328" lon="3.01689">
        <ele>176.660124</ele>
        <time>2025-10-23T07:47:41Z</time>
      </trkpt>
      <trkpt lat="43.5733" lon="3.01682">
        <ele>176.573678</ele>
        <time>2025-10-23T07:47:42Z</time>
      </trkpt>
      <trkpt lat="43.57331" lon="3.01675">
        <ele>176.486298</ele>
        <time>2025-10-23T07:47:43Z</time>
      </trkpt>
      <trkpt lat="43.57333" lon="3.01668">
        <ele>176.396721</ele>
        <time>2025-10-23T07:47:44Z</time>
      </trkpt>
      <trkpt lat="43.57335" lon="3.0166">
        <ele>176.30665</ele>
        <time>2025-10-23T07:47:45Z</time>
      </trkpt>
      <trkpt lat="43.57337" lon="3.01653">
        <ele>176.217673</ele>
        <time>2025-10-23T07:47:46Z</time>
      </trkpt>
      <trkpt lat="43.57339" lon="3.01645">
        <ele>176.123237</ele>
        <time>2025-10-23T07:47:47Z</time>
      </trkpt>
      <trkpt lat="43.57341" lon="3.01638">
        <ele>176.031384</ele>
        <time>2025-10-23T07:47:48Z</time>
      </trkpt>
      <trkpt lat="43.57343" lon="3.01631">
        <ele>175.942895</ele>
        <time>2025-10-23T07:47:49Z</time>
      </trkpt>
      <trkpt lat="43.57346" lon="3.01624">
        <ele>175.853153</ele>
        <time>2025-10-23T07:47:50Z</time>
      </trkpt>
      <trkpt lat="43.57348" lon="3.01616">
        <ele>175.758939</ele>
        <time>2025-10-23T07:47:51Z</time>
      </trkpt>
      <trkpt lat="43.57351" lon="3.01609">
        <ele>175.66196</ele>
        <time>2025-10-23T07:47:52Z</time>
      </trkpt>
      <trkpt lat="43.57353" lon="3.01601">
        <ele>175.566022</ele>
        <time>2025-10-23T07:47:53Z</time>
      </trkpt>
      <trkpt lat="43.57356" lon="3.01594">
        <ele>175.469692</ele>
        <time>2025-10-23T07:47:54Z</time>
      </trkpt>
      <trkpt lat="43.57359" lon="3.01587">
        <ele>175.380218</ele>
        <time>2025-10-23T07:47:55Z</time>
      </trkpt>
      <trkpt lat="43.57361" lon="3.0158">
        <ele>175.288713</ele>
        <time>2025-10-23T07:47:56Z</time>
      </trkpt>
      <trkpt lat="43.57364" lon="3.01573">
        <ele>175.191358</ele>
        <time>2025-10-23T07:47:57Z</time>
      </trkpt>
      <trkpt lat="43.57367" lon="3.01565">
        <ele>175.095294</ele>
        <time>2025-10-23T07:47:58Z</time>
      </trkpt>
      <trkpt lat="43.5737" lon="3.01558">
        <ele>174.999229</ele>
        <time>2025-10-23T07:47:59Z</time>
      </trkpt>
      <trkpt lat="43.57373" lon="3.01551">
        <ele>174.904655</ele>
        <time>2025-10-23T07:48:00Z</time>
      </trkpt>
      <trkpt lat="43.57376" lon="3.01543">
        <ele>174.808325</ele>
        <time>2025-10-23T07:48:01Z</time>
      </trkpt>
      <trkpt lat="43.57378" lon="3.01536">
        <ele>174.713271</ele>
        <time>2025-10-23T07:48:02Z</time>
      </trkpt>
      <trkpt lat="43.57381" lon="3.01529">
        <ele>174.621476</ele>
        <time>2025-10-23T07:48:03Z</time>
      </trkpt>
      <trkpt lat="43.57384" lon="3.01522">
        <ele>174.5282</ele>
        <time>2025-10-23T07:48:04Z</time>
      </trkpt>
      <trkpt lat="43.57386" lon="3.01515">
        <ele>174.439481</ele>
        <time>2025-10-23T07:48:05Z</time>
      </trkpt>
      <trkpt lat="43.57389" lon="3.01508">
        <ele>174.343416</ele>
        <time>2025-10-23T07:48:06Z</time>
      </trkpt>
      <trkpt lat="43.57392" lon="3.01501">
        <ele>174.254697</ele>
        <time>2025-10-23T07:48:07Z</time>
      </trkpt>
      <trkpt lat="43.57395" lon="3.01494">
        <ele>174.166996</ele>
        <time>2025-10-23T07:48:08Z</time>
      </trkpt>
      <trkpt lat="43.57397" lon="3.01487">
        <ele>174.113041</ele>
        <time>2025-10-23T07:48:09Z</time>
      </trkpt>
      <trkpt lat="43.574" lon="3.0148">
        <ele>174.108086</ele>
        <time>2025-10-23T07:48:10Z</time>
      </trkpt>
      <trkpt lat="43.57403" lon="3.01473">
        <ele>174.102949</ele>
        <time>2025-10-23T07:48:11Z</time>
      </trkpt>
      <trkpt lat="43.57405" lon="3.01467">
        <ele>174.097881</ele>
        <time>2025-10-23T07:48:12Z</time>
      </trkpt>
      <trkpt lat="43.57408" lon="3.01459">
        <ele>174.092632</ele>
        <time>2025-10-23T07:48:13Z</time>
      </trkpt>
      <trkpt lat="43.57411" lon="3.01452">
        <ele>174.087561</ele>
        <time>2025-10-23T07:48:14Z</time>
      </trkpt>
      <trkpt lat="43.57413" lon="3.01445">
        <ele>174.082181</ele>
        <time>2025-10-23T07:48:15Z</time>
      </trkpt>
      <trkpt lat="43.57416" lon="3.01437">
        <ele>174.076705</ele>
        <time>2025-10-23T07:48:16Z</time>
      </trkpt>
      <trkpt lat="43.57419" lon="3.01429">
        <ele>174.071089</ele>
        <time>2025-10-23T07:48:17Z</time>
      </trkpt>
      <trkpt lat="43.57422" lon="3.01422">
        <ele>174.065486</ele>
        <time>2025-10-23T07:48:18Z</time>
      </trkpt>
      <trkpt lat="43.57425" lon="3.01414">
        <ele>174.059969</ele>
        <time>2025-10-23T07:48:19Z</time>
      </trkpt>
      <trkpt lat="43.57428" lon="3.01407">
        <ele>174.054522</ele>
        <time>2025-10-23T07:48:20Z</time>
      </trkpt>
      <trkpt lat="43.57431" lon="3.01399">
        <ele>174.049004</ele>
        <time>2025-10-23T07:48:21Z</time>
      </trkpt>
      <trkpt lat="43.57434" lon="3.01392">
        <ele>174.043388</ele>
        <time>2025-10-23T07:48:22Z</time>
      </trkpt>
      <trkpt lat="43.57437" lon="3.01385">
        <ele>174.038024</ele>
        <time>2025-10-23T07:48:23Z</time>
      </trkpt>
      <trkpt lat="43.57441" lon="3.01377">
        <ele>174.032302</ele>
        <time>2025-10-23T07:48:24Z</time>
      </trkpt>
      <trkpt lat="43.57444" lon="3.0137">
        <ele>174.026922</ele>
        <time>2025-10-23T07:48:25Z</time>
      </trkpt>
      <trkpt lat="43.57447" lon="3.01362">
        <ele>174.021427</ele>
        <time>2025-10-23T07:48:26Z</time>
      </trkpt>
      <trkpt lat="43.57449" lon="3.01354">
        <ele>174.015662</ele>
        <time>2025-10-23T07:48:27Z</time>
      </trkpt>
      <trkpt lat="43.57452" lon="3.01346">
        <ele>174.009948</ele>
        <time>2025-10-23T07:48:28Z</time>
      </trkpt>
      <trkpt lat="43.57455" lon="3.01338">
        <ele>174.004086</ele>
        <time>2025-10-23T07:48:29Z</time>
      </trkpt>
      <trkpt lat="43.57458" lon="3.01329">
        <ele>173.998109</ele>
        <time>2025-10-23T07:48:30Z</time>
      </trkpt>
      <trkpt lat="43.57461" lon="3.01321">
        <ele>173.992112</ele>
        <time>2025-10-23T07:48:31Z</time>
      </trkpt>
      <trkpt lat="43.57463" lon="3.01312">
        <ele>173.986018</ele>
        <time>2025-10-23T07:48:32Z</time>
      </trkpt>
      <trkpt lat="43.57467" lon="3.01304">
        <ele>173.979905</ele>
        <time>2025-10-23T07:48:33Z</time>
      </trkpt>
      <trkpt lat="43.5747" lon="3.01296">
        <ele>173.973936</ele>
        <time>2025-10-23T07:48:34Z</time>
      </trkpt>
      <trkpt lat="43.57473" lon="3.01288">
        <ele>173.968052</ele>
        <time>2025-10-23T07:48:35Z</time>
      </trkpt>
      <trkpt lat="43.57476" lon="3.0128">
        <ele>173.96219</ele>
        <time>2025-10-23T07:48:36Z</time>
      </trkpt>
      <trkpt lat="43.57479" lon="3.01271">
        <ele>173.956309</ele>
        <time>2025-10-23T07:48:37Z</time>
      </trkpt>
      <trkpt lat="43.57482" lon="3.01263">
        <ele>173.907388</ele>
        <time>2025-10-23T07:48:38Z</time>
      </trkpt>
      <trkpt lat="43.57485" lon="3.01255">
        <ele>173.854518</ele>
        <time>2025-10-23T07:48:39Z</time>
      </trkpt>
      <trkpt lat="43.57487" lon="3.01247">
        <ele>173.801855</ele>
        <time>2025-10-23T07:48:40Z</time>
      </trkpt>
      <trkpt lat="43.57489" lon="3.01239">
        <ele>173.751949</ele>
        <time>2025-10-23T07:48:41Z</time>
      </trkpt>
      <trkpt lat="43.57492" lon="3.01231">
        <ele>173.704329</ele>
        <time>2025-10-23T07:48:42Z</time>
      </trkpt>
      <trkpt lat="43.57494" lon="3.01224">
        <ele>173.657978</ele>
        <time>2025-10-23T07:48:43Z</time>
      </trkpt>
      <trkpt lat="43.57496" lon="3.01216">
        <ele>173.611084</ele>
        <time>2025-10-23T07:48:44Z</time>
      </trkpt>
      <trkpt lat="43.57498" lon="3.01208">
        <ele>173.561428</ele>
        <time>2025-10-23T07:48:45Z</time>
      </trkpt>
      <trkpt lat="43.57501" lon="3.012">
        <ele>173.508223</ele>
        <time>2025-10-23T07:48:46Z</time>
      </trkpt>
      <trkpt lat="43.57504" lon="3.01192">
        <ele>173.454125</ele>
        <time>2025-10-23T07:48:47Z</time>
      </trkpt>
      <trkpt lat="43.57506" lon="3.01183">
        <ele>173.401207</ele>
        <time>2025-10-23T07:48:48Z</time>
      </trkpt>
      <trkpt lat="43.57508" lon="3.01175">
        <ele>173.350746</ele>
        <time>2025-10-23T07:48:49Z</time>
      </trkpt>
      <trkpt lat="43.5751" lon="3.01166">
        <ele>173.299177</ele>
        <time>2025-10-23T07:48:50Z</time>
      </trkpt>
      <trkpt lat="43.57512" lon="3.01158">
        <ele>173.245848</ele>
        <time>2025-10-23T07:48:51Z</time>
      </trkpt>
      <trkpt lat="43.57514" lon="3.01148">
        <ele>173.187644</ele>
        <time>2025-10-23T07:48:52Z</time>
      </trkpt>
      <trkpt lat="43.57515" lon="3.01138">
        <ele>173.130938</ele>
        <time>2025-10-23T07:48:53Z</time>
      </trkpt>
      <trkpt lat="43.57517" lon="3.0113">
        <ele>173.078213</ele>
        <time>2025-10-23T07:48:54Z</time>
      </trkpt>
      <trkpt lat="43.57518" lon="3.01121">
        <ele>173.024691</ele>
        <time>2025-10-23T07:48:55Z</time>
      </trkpt>
      <trkpt lat="43.57519" lon="3.01112">
        <ele>172.972883</ele>
        <time>2025-10-23T07:48:56Z</time>
      </trkpt>
      <trkpt lat="43.57521" lon="3.01103">
        <ele>172.918074</ele>
        <time>2025-10-23T07:48:57Z</time>
      </trkpt>
      <trkpt lat="43.57523" lon="3.01094">
        <ele>172.862135</ele>
        <time>2025-10-23T07:48:58Z</time>
      </trkpt>
      <trkpt lat="43.57524" lon="3.01084">
        <ele>172.806557</ele>
        <time>2025-10-23T07:48:59Z</time>
      </trkpt>
      <trkpt lat="43.57526" lon="3.01075">
        <ele>172.75099</ele>
        <time>2025-10-23T07:49:00Z</time>
      </trkpt>
      <trkpt lat="43.57527" lon="3.01066">
        <ele>172.695992</ele>
        <time>2025-10-23T07:49:01Z</time>
      </trkpt>
      <trkpt lat="43.57529" lon="3.01057">
        <ele>172.646058</ele>
        <time>2025-10-23T07:49:02Z</time>
      </trkpt>
      <trkpt lat="43.5753" lon="3.01049">
        <ele>172.595392</ele>
        <time>2025-10-23T07:49:03Z</time>
      </trkpt>
      <trkpt lat="43.57531" lon="3.01041">
        <ele>172.546182</ele>
        <time>2025-10-23T07:49:04Z</time>
      </trkpt>
      <trkpt lat="43.57532" lon="3.01033">
        <ele>172.501419</ele>
        <time>2025-10-23T07:49:05Z</time>
      </trkpt>
      <trkpt lat="43.57532" lon="3.01024">
        <ele>172.46439</ele>
        <time>2025-10-23T07:49:06Z</time>
      </trkpt>
      <trkpt lat="43.57533" lon="3.01016">
        <ele>172.429519</ele>
        <time>2025-10-23T07:49:07Z</time>
      </trkpt>
      <trkpt lat="43.57533" lon="3.01008">
        <ele>172.395135</ele>
        <time>2025-10-23T07:49:08Z</time>
      </trkpt>
      <trkpt lat="43.57534" lon="3.01">
        <ele>172.358538</ele>
        <time>2025-10-23T07:49:09Z</time>
      </trkpt>
      <trkpt lat="43.57535" lon="3.00991">
        <ele>172.319713</ele>
        <time>2025-10-23T07:49:10Z</time>
      </trkpt>
      <trkpt lat="43.57536" lon="3.00982">
        <ele>172.282253</ele>
        <time>2025-10-23T07:49:11Z</time>
      </trkpt>
      <trkpt lat="43.57536" lon="3.00974">
        <ele>172.245278</ele>
        <time>2025-10-23T07:49:12Z</time>
      </trkpt>
      <trkpt lat="43.57536" lon="3.00966">
        <ele>172.209271</ele>
        <time>2025-10-23T07:49:13Z</time>
      </trkpt>
      <trkpt lat="43.57537" lon="3.00957">
        <ele>172.173204</ele>
        <time>2025-10-23T07:49:14Z</time>
      </trkpt>
      <trkpt lat="43.57537" lon="3.00949">
        <ele>172.136175</ele>
        <time>2025-10-23T07:49:15Z</time>
      </trkpt>
      <trkpt lat="43.57538" lon="3.0094">
        <ele>172.098838</ele>
        <time>2025-10-23T07:49:16Z</time>
      </trkpt>
      <trkpt lat="43.57539" lon="3.00931">
        <ele>172.060208</ele>
        <time>2025-10-23T07:49:17Z</time>
      </trkpt>
      <trkpt lat="43.57539" lon="3.00923">
        <ele>172.022368</ele>
        <time>2025-10-23T07:49:18Z</time>
      </trkpt>
      <trkpt lat="43.57539" lon="3.00915">
        <ele>171.987228</ele>
        <time>2025-10-23T07:49:19Z</time>
      </trkpt>
      <trkpt lat="43.5754" lon="3.00906">
        <ele>171.951655</ele>
        <time>2025-10-23T07:49:20Z</time>
      </trkpt>
      <trkpt lat="43.5754" lon="3.00899">
        <ele>171.918264</ele>
        <time>2025-10-23T07:49:21Z</time>
      </trkpt>
      <trkpt lat="43.5754" lon="3.00891">
        <ele>171.885225</ele>
        <time>2025-10-23T07:49:22Z</time>
      </trkpt>
      <trkpt lat="43.57541" lon="3.00884">
        <ele>171.853001</ele>
        <time>2025-10-23T07:49:23Z</time>
      </trkpt>
      <trkpt lat="43.57541" lon="3.00877">
        <ele>171.823853</ele>
        <time>2025-10-23T07:49:24Z</time>
      </trkpt>
      <trkpt lat="43.57541" lon="3.00871">
        <ele>171.796001</ele>
        <time>2025-10-23T07:49:25Z</time>
      </trkpt>
      <trkpt lat="43.57542" lon="3.00864">
        <ele>171.768659</ele>
        <time>2025-10-23T07:49:26Z</time>
      </trkpt>
      <trkpt lat="43.57541" lon="3.00858">
        <ele>171.742042</ele>
        <time>2025-10-23T07:49:27Z</time>
      </trkpt>
      <trkpt lat="43.57541" lon="3.00852">
        <ele>171.715134</ele>
        <time>2025-10-23T07:49:28Z</time>
      </trkpt>
      <trkpt lat="43.57542" lon="3.00846">
        <ele>171.68717</ele>
        <time>2025-10-23T07:49:29Z</time>
      </trkpt>
      <trkpt lat="43.57543" lon="3.00839">
        <ele>171.659329</ele>
        <time>2025-10-23T07:49:30Z</time>
      </trkpt>
      <trkpt lat="43.57544" lon="3.00833">
        <ele>171.629542</ele>
        <time>2025-10-23T07:49:31Z</time>
      </trkpt>
      <trkpt lat="43.57545" lon="3.00825">
        <ele>171.597407</ele>
        <time>2025-10-23T07:49:32Z</time>
      </trkpt>
      <trkpt lat="43.57545" lon="3.00818">
        <ele>171.565317</ele>
        <time>2025-10-23T07:49:33Z</time>
      </trkpt>
      <trkpt lat="43.57545" lon="3.00811">
        <ele>171.533143</ele>
        <time>2025-10-23T07:49:34Z</time>
      </trkpt>
      <trkpt lat="43.57546" lon="3.00803">
        <ele>171.499624</ele>
        <time>2025-10-23T07:49:35Z</time>
      </trkpt>
      <trkpt lat="43.57546" lon="3.00795">
        <ele>171.467106</ele>
        <time>2025-10-23T07:49:36Z</time>
      </trkpt>
      <trkpt lat="43.57546" lon="3.00788">
        <ele>171.436755</ele>
        <time>2025-10-23T07:49:37Z</time>
      </trkpt>
      <trkpt lat="43.57546" lon="3.00782">
        <ele>171.431825</ele>
        <time>2025-10-23T07:49:38Z</time>
      </trkpt>
      <trkpt lat="43.57546" lon="3.00774">
        <ele>171.432314</ele>
        <time>2025-10-23T07:49:39Z</time>
      </trkpt>
      <trkpt lat="43.57546" lon="3.00767">
        <ele>171.432824</ele>
        <time>2025-10-23T07:49:40Z</time>
      </trkpt>
      <trkpt lat="43.57546" lon="3.00759">
        <ele>171.433348</ele>
        <time>2025-10-23T07:49:41Z</time>
      </trkpt>
      <trkpt lat="43.57546" lon="3.00752">
        <ele>171.433858</ele>
        <time>2025-10-23T07:49:42Z</time>
      </trkpt>
      <trkpt lat="43.57546" lon="3.00745">
        <ele>171.434362</ele>
        <time>2025-10-23T07:49:43Z</time>
      </trkpt>
      <trkpt lat="43.57547" lon="3.00737">
        <ele>171.434876</ele>
        <time>2025-10-23T07:49:44Z</time>
      </trkpt>
      <trkpt lat="43.57548" lon="3.0073">
        <ele>171.435389</ele>
        <time>2025-10-23T07:49:45Z</time>
      </trkpt>
      <trkpt lat="43.57548" lon="3.00722">
        <ele>171.435907</ele>
        <time>2025-10-23T07:49:46Z</time>
      </trkpt>
      <trkpt lat="43.57548" lon="3.00715">
        <ele>171.436438</ele>
        <time>2025-10-23T07:49:47Z</time>
      </trkpt>
      <trkpt lat="43.57549" lon="3.00707">
        <ele>171.436978</ele>
        <time>2025-10-23T07:49:48Z</time>
      </trkpt>
      <trkpt lat="43.57549" lon="3.00699">
        <ele>171.43751</ele>
        <time>2025-10-23T07:49:49Z</time>
      </trkpt>
      <trkpt lat="43.5755" lon="3.00692">
        <ele>171.438046</ele>
        <time>2025-10-23T07:49:50Z</time>
      </trkpt>
      <trkpt lat="43.57551" lon="3.00684">
        <ele>171.438593</ele>
        <time>2025-10-23T07:49:51Z</time>
      </trkpt>
      <trkpt lat="43.57552" lon="3.00677">
        <ele>171.439091</ele>
        <time>2025-10-23T07:49:52Z</time>
      </trkpt>
      <trkpt lat="43.57552" lon="3.00669">
        <ele>171.439601</ele>
        <time>2025-10-23T07:49:53Z</time>
      </trkpt>
      <trkpt lat="43.57552" lon="3.00662">
        <ele>171.440099</ele>
        <time>2025-10-23T07:49:54Z</time>
      </trkpt>
      <trkpt lat="43.57553" lon="3.00655">
        <ele>171.440604</ele>
        <time>2025-10-23T07:49:55Z</time>
      </trkpt>
      <trkpt lat="43.57553" lon="3.00648">
        <ele>171.441095</ele>
        <time>2025-10-23T07:49:56Z</time>
      </trkpt>
      <trkpt lat="43.57554" lon="3.0064">
        <ele>171.441586</ele>
        <time>2025-10-23T07:49:57Z</time>
      </trkpt>
      <trkpt lat="43.57554" lon="3.00633">
        <ele>171.442096</ele>
        <time>2025-10-23T07:49:58Z</time>
      </trkpt>
      <trkpt lat="43.57554" lon="3.00626">
        <ele>171.442601</ele>
        <time>2025-10-23T07:49:59Z</time>
      </trkpt>
      <trkpt lat="43.57555" lon="3.00618">
        <ele>171.443114</ele>
        <time>2025-10-23T07:50:00Z</time>
      </trkpt>
      <trkpt lat="43.57555" lon="3.00611">
        <ele>171.443618</ele>
        <time>2025-10-23T07:50:01Z</time>
      </trkpt>
      <trkpt lat="43.57555" lon="3.00604">
        <ele>171.44408</ele>
        <time>2025-10-23T07:50:02Z</time>
      </trkpt>
      <trkpt lat="43.57556" lon="3.00597">
        <ele>171.444577</ele>
        <time>2025-10-23T07:50:03Z</time>
      </trkpt>
      <trkpt lat="43.57556" lon="3.0059">
        <ele>171.445098</ele>
        <time>2025-10-23T07:50:04Z</time>
      </trkpt>
      <trkpt lat="43.57557" lon="3.00582">
        <ele>171.445636</ele>
        <time>2025-10-23T07:50:05Z</time>
      </trkpt>
      <trkpt lat="43.57557" lon="3.00574">
        <ele>171.446181</ele>
        <time>2025-10-23T07:50:06Z</time>
      </trkpt>
      <trkpt lat="43.57557" lon="3.00566">
        <ele>171.446754</ele>
        <time>2025-10-23T07:50:07Z</time>
      </trkpt>
      <trkpt lat="43.57558" lon="3.00558">
        <ele>171.447306</ele>
        <time>2025-10-23T07:50:08Z</time>
      </trkpt>
      <trkpt lat="43.57558" lon="3.0055">
        <ele>171.447852</ele>
        <time>2025-10-23T07:50:09Z</time>
      </trkpt>
      <trkpt lat="43.57558" lon="3.00542">
        <ele>171.44839</ele>
        <time>2025-10-23T07:50:10Z</time>
      </trkpt>
      <trkpt lat="43.57559" lon="3.00534">
        <ele>171.437107</ele>
        <time>2025-10-23T07:50:11Z</time>
      </trkpt>
      <trkpt lat="43.57559" lon="3.00527">
        <ele>171.421109</ele>
        <time>2025-10-23T07:50:12Z</time>
      </trkpt>
      <trkpt lat="43.5756" lon="3.0052">
        <ele>171.405326</ele>
        <time>2025-10-23T07:50:13Z</time>
      </trkpt>
      <trkpt lat="43.57561" lon="3.00513">
        <ele>171.389611</ele>
        <time>2025-10-23T07:50:14Z</time>
      </trkpt>
      <trkpt lat="43.57561" lon="3.00506">
        <ele>171.374355</ele>
        <time>2025-10-23T07:50:15Z</time>
      </trkpt>
      <trkpt lat="43.57561" lon="3.00498">
        <ele>171.358484</ele>
        <time>2025-10-23T07:50:16Z</time>
      </trkpt>
      <trkpt lat="43.57561" lon="3.00492">
        <ele>171.343927</ele>
        <time>2025-10-23T07:50:17Z</time>
      </trkpt>
      <trkpt lat="43.57561" lon="3.00485">
        <ele>171.329575</ele>
        <time>2025-10-23T07:50:18Z</time>
      </trkpt>
      <trkpt lat="43.57562" lon="3.00478">
        <ele>171.314753</ele>
        <time>2025-10-23T07:50:19Z</time>
      </trkpt>
      <trkpt lat="43.57562" lon="3.00472">
        <ele>171.300147</ele>
        <time>2025-10-23T07:50:20Z</time>
      </trkpt>
      <trkpt lat="43.57563" lon="3.00465">
        <ele>171.284891</ele>
        <time>2025-10-23T07:50:21Z</time>
      </trkpt>
      <trkpt lat="43.57563" lon="3.00458">
        <ele>171.269671</ele>
        <time>2025-10-23T07:50:22Z</time>
      </trkpt>
      <trkpt lat="43.57563" lon="3.0045">
        <ele>171.253786</ele>
        <time>2025-10-23T07:50:23Z</time>
      </trkpt>
      <trkpt lat="43.57564" lon="3.00443">
        <ele>171.237431</ele>
        <time>2025-10-23T07:50:24Z</time>
      </trkpt>
      <trkpt lat="43.57565" lon="3.00435">
        <ele>171.220635</ele>
        <time>2025-10-23T07:50:25Z</time>
      </trkpt>
      <trkpt lat="43.57565" lon="3.00428">
        <ele>171.205858</ele>
        <time>2025-10-23T07:50:26Z</time>
      </trkpt>
      <trkpt lat="43.57565" lon="3.00421">
        <ele>171.189278</ele>
        <time>2025-10-23T07:50:27Z</time>
      </trkpt>
      <trkpt lat="43.57566" lon="3.00413">
        <ele>171.172914</ele>
        <time>2025-10-23T07:50:28Z</time>
      </trkpt>
      <trkpt lat="43.57566" lon="3.00406">
        <ele>171.155944</ele>
        <time>2025-10-23T07:50:29Z</time>
      </trkpt>
      <trkpt lat="43.57566" lon="3.00398">
        <ele>171.139212</ele>
        <time>2025-10-23T07:50:30Z</time>
      </trkpt>
      <trkpt lat="43.57566" lon="3.0039">
        <ele>171.122632</ele>
        <time>2025-10-23T07:50:31Z</time>
      </trkpt>
      <trkpt lat="43.57567" lon="3.00383">
        <ele>171.106634</ele>
        <time>2025-10-23T07:50:32Z</time>
      </trkpt>
      <trkpt lat="43.57568" lon="3.00376">
        <ele>171.090728</ele>
        <time>2025-10-23T07:50:33Z</time>
      </trkpt>
      <trkpt lat="43.57568" lon="3.00369">
        <ele>171.075689</ele>
        <time>2025-10-23T07:50:34Z</time>
      </trkpt>
      <trkpt lat="43.57568" lon="3.00362">
        <ele>171.061949</ele>
        <time>2025-10-23T07:50:35Z</time>
      </trkpt>
      <trkpt lat="43.57569" lon="3.00356">
        <ele>171.048249</ele>
        <time>2025-10-23T07:50:36Z</time>
      </trkpt>
      <trkpt lat="43.57568" lon="3.0035">
        <ele>171.033881</ele>
        <time>2025-10-23T07:50:37Z</time>
      </trkpt>
      <trkpt lat="43.57568" lon="3.00343">
        <ele>171.019104</ele>
        <time>2025-10-23T07:50:38Z</time>
      </trkpt>
      <trkpt lat="43.57568" lon="3.00336">
        <ele>171.004086</ele>
        <time>2025-10-23T07:50:39Z</time>
      </trkpt>
      <trkpt lat="43.57569" lon="3.00329">
        <ele>170.98883</ele>
        <time>2025-10-23T07:50:40Z</time>
      </trkpt>
      <trkpt lat="43.57569" lon="3.00322">
        <ele>170.973947</ele>
        <time>2025-10-23T07:50:41Z</time>
      </trkpt>
      <trkpt lat="43.5757" lon="3.00316">
        <ele>170.960014</ele>
        <time>2025-10-23T07:50:42Z</time>
      </trkpt>
      <trkpt lat="43.5757" lon="3.00309">
        <ele>170.945888</ele>
        <time>2025-10-23T07:50:43Z</time>
      </trkpt>
      <trkpt lat="43.5757" lon="3.00302">
        <ele>170.931087</ele>
        <time>2025-10-23T07:50:44Z</time>
      </trkpt>
      <trkpt lat="43.57569" lon="3.00296">
        <ele>170.916745</ele>
        <time>2025-10-23T07:50:45Z</time>
      </trkpt>
      <trkpt lat="43.5757" lon="3.0029">
        <ele>170.904172</ele>
        <time>2025-10-23T07:50:46Z</time>
      </trkpt>
      <trkpt lat="43.57569" lon="3.00284">
        <ele>170.893237</ele>
        <time>2025-10-23T07:50:47Z</time>
      </trkpt>
      <trkpt lat="43.57569" lon="3.00278">
        <ele>170.880545</ele>
        <time>2025-10-23T07:50:48Z</time>
      </trkpt>
      <trkpt lat="43.57569" lon="3.0027">
        <ele>170.865871</ele>
        <time>2025-10-23T07:50:49Z</time>
      </trkpt>
      <trkpt lat="43.5757" lon="3.00262">
        <ele>170.848801</ele>
        <time>2025-10-23T07:50:50Z</time>
      </trkpt>
      <trkpt lat="43.5757" lon="3.00254">
        <ele>170.83413</ele>
        <time>2025-10-23T07:50:51Z</time>
      </trkpt>
      <trkpt lat="43.57569" lon="3.00248">
        <ele>170.820776</ele>
        <time>2025-10-23T07:50:52Z</time>
      </trkpt>
      <trkpt lat="43.57569" lon="3.00241">
        <ele>170.80646</ele>
        <time>2025-10-23T07:50:53Z</time>
      </trkpt>
      <trkpt lat="43.57568" lon="3.00234">
        <ele>170.793627</ele>
        <time>2025-10-23T07:50:54Z</time>
      </trkpt>
      <trkpt lat="43.57567" lon="3.00228">
        <ele>170.781807</ele>
        <time>2025-10-23T07:50:55Z</time>
      </trkpt>
      <trkpt lat="43.57567" lon="3.00221">
        <ele>170.76648</ele>
        <time>2025-10-23T07:50:56Z</time>
      </trkpt>
      <trkpt lat="43.57566" lon="3.00213">
        <ele>170.750861</ele>
        <time>2025-10-23T07:50:57Z</time>
      </trkpt>
      <trkpt lat="43.57565" lon="3.00205">
        <ele>170.735635</ele>
        <time>2025-10-23T07:50:58Z</time>
      </trkpt>
      <trkpt lat="43.57564" lon="3.00197">
        <ele>170.718704</ele>
        <time>2025-10-23T07:50:59Z</time>
      </trkpt>
      <trkpt lat="43.57564" lon="3.00189">
        <ele>170.703152</ele>
        <time>2025-10-23T07:51:00Z</time>
      </trkpt>
      <trkpt lat="43.57563" lon="3.0018">
        <ele>170.685431</ele>
        <time>2025-10-23T07:51:01Z</time>
      </trkpt>
      <trkpt lat="43.57562" lon="3.00172">
        <ele>170.668749</ele>
        <time>2025-10-23T07:51:02Z</time>
      </trkpt>
      <trkpt lat="43.57561" lon="3.00163">
        <ele>170.650344</ele>
        <time>2025-10-23T07:51:03Z</time>
      </trkpt>
      <trkpt lat="43.5756" lon="3.00152">
        <ele>170.630006</ele>
        <time>2025-10-23T07:51:04Z</time>
      </trkpt>
      <trkpt lat="43.57559" lon="3.00144">
        <ele>170.612006</ele>
        <time>2025-10-23T07:51:05Z</time>
      </trkpt>
      <trkpt lat="43.57558" lon="3.00135">
        <ele>170.593911</ele>
        <time>2025-10-23T07:51:06Z</time>
      </trkpt>
      <trkpt lat="43.57557" lon="3.00127">
        <ele>170.578401</ele>
        <time>2025-10-23T07:51:07Z</time>
      </trkpt>
      <trkpt lat="43.57555" lon="3.0012">
        <ele>170.563497</ele>
        <time>2025-10-23T07:51:08Z</time>
      </trkpt>
      <trkpt lat="43.57554" lon="3.00112">
        <ele>170.548072</ele>
        <time>2025-10-23T07:51:09Z</time>
      </trkpt>
      <trkpt lat="43.57552" lon="3.00105">
        <ele>170.53336</ele>
        <time>2025-10-23T07:51:10Z</time>
      </trkpt>
      <trkpt lat="43.57551" lon="3.00097">
        <ele>170.517745</ele>
        <time>2025-10-23T07:51:11Z</time>
      </trkpt>
      <trkpt lat="43.5755" lon="3.00089">
        <ele>170.501621</ele>
        <time>2025-10-23T07:51:12Z</time>
      </trkpt>
      <trkpt lat="43.57548" lon="3.00082">
        <ele>170.486195</ele>
        <time>2025-10-23T07:51:13Z</time>
      </trkpt>
      <trkpt lat="43.57547" lon="3.00074">
        <ele>170.470387</ele>
        <time>2025-10-23T07:51:14Z</time>
      </trkpt>
      <trkpt lat="43.57546" lon="3.00067">
        <ele>170.45551</ele>
        <time>2025-10-23T07:51:15Z</time>
      </trkpt>
      <trkpt lat="43.57544" lon="3.0006">
        <ele>170.440784</ele>
        <time>2025-10-23T07:51:16Z</time>
      </trkpt>
      <trkpt lat="43.57542" lon="3.00053">
        <ele>170.427096</ele>
        <time>2025-10-23T07:51:17Z</time>
      </trkpt>
      <trkpt lat="43.57539" lon="3.00048">
        <ele>170.42115</ele>
        <time>2025-10-23T07:51:18Z</time>
      </trkpt>
      <trkpt lat="43.57537" lon="3.00044">
        <ele>170.438092</ele>
        <time>2025-10-23T07:51:19Z</time>
      </trkpt>
      <trkpt lat="43.57536" lon="3.00039">
        <ele>170.456405</ele>
        <time>2025-10-23T07:51:20Z</time>
      </trkpt>
      <trkpt lat="43.57535" lon="3.00033">
        <ele>170.477465</ele>
        <time>2025-10-23T07:51:21Z</time>
      </trkpt>
      <trkpt lat="43.57534" lon="3.00025">
        <ele>170.501823</ele>
        <time>2025-10-23T07:51:22Z</time>
      </trkpt>
      <trkpt lat="43.57533" lon="3.00018">
        <ele>170.52622</ele>
        <time>2025-10-23T07:51:23Z</time>
      </trkpt>
      <trkpt lat="43.57531" lon="3.0001">
        <ele>170.555264</ele>
        <time>2025-10-23T07:51:24Z</time>
      </trkpt>
      <trkpt lat="43.57529" lon="3.00002">
        <ele>170.58114</ele>
        <time>2025-10-23T07:51:25Z</time>
      </trkpt>
      <trkpt lat="43.57527" lon="2.99996">
        <ele>170.603642</ele>
        <time>2025-10-23T07:51:26Z</time>
      </trkpt>
      <trkpt lat="43.57526" lon="2.9999">
        <ele>170.625464</ele>
        <time>2025-10-23T07:51:27Z</time>
      </trkpt>
      <trkpt lat="43.57524" lon="2.99983">
        <ele>170.650584</ele>
        <time>2025-10-23T07:51:28Z</time>
      </trkpt>
      <trkpt lat="43.57522" lon="2.99976">
        <ele>170.673656</ele>
        <time>2025-10-23T07:51:29Z</time>
      </trkpt>
      <trkpt lat="43.5752" lon="2.9997">
        <ele>170.697989</ele>
        <time>2025-10-23T07:51:30Z</time>
      </trkpt>
      <trkpt lat="43.57518" lon="2.99964">
        <ele>170.719784</ele>
        <time>2025-10-23T07:51:31Z</time>
      </trkpt>
      <trkpt lat="43.57516" lon="2.99958">
        <ele>170.740671</ele>
        <time>2025-10-23T07:51:32Z</time>
      </trkpt>
      <trkpt lat="43.57514" lon="2.99952">
        <ele>170.762203</ele>
        <time>2025-10-23T07:51:33Z</time>
      </trkpt>
      <trkpt lat="43.57512" lon="2.99945">
        <ele>170.788204</ele>
        <time>2025-10-23T07:51:34Z</time>
      </trkpt>
      <trkpt lat="43.57509" lon="2.99937">
        <ele>170.817662</ele>
        <time>2025-10-23T07:51:35Z</time>
      </trkpt>
      <trkpt lat="43.57506" lon="2.99929">
        <ele>170.84637</ele>
        <time>2025-10-23T07:51:36Z</time>
      </trkpt>
      <trkpt lat="43.57504" lon="2.99921">
        <ele>170.875562</ele>
        <time>2025-10-23T07:51:37Z</time>
      </trkpt>
      <trkpt lat="43.57501" lon="2.99913">
        <ele>170.904449</ele>
        <time>2025-10-23T07:51:38Z</time>
      </trkpt>
      <trkpt lat="43.57499" lon="2.99905">
        <ele>170.931882</ele>
        <time>2025-10-23T07:51:39Z</time>
      </trkpt>
      <trkpt lat="43.57497" lon="2.99897">
        <ele>170.959947</ele>
        <time>2025-10-23T07:51:40Z</time>
      </trkpt>
      <trkpt lat="43.57494" lon="2.9989">
        <ele>170.987216</ele>
        <time>2025-10-23T07:51:41Z</time>
      </trkpt>
      <trkpt lat="43.57491" lon="2.99882">
        <ele>171.015485</ele>
        <time>2025-10-23T07:51:42Z</time>
      </trkpt>
      <trkpt lat="43.57489" lon="2.99875">
        <ele>171.043848</ele>
        <time>2025-10-23T07:51:43Z</time>
      </trkpt>
      <trkpt lat="43.57486" lon="2.99867">
        <ele>171.071913</ele>
        <time>2025-10-23T07:51:44Z</time>
      </trkpt>
      <trkpt lat="43.57484" lon="2.9986">
        <ele>171.096541</ele>
        <time>2025-10-23T07:51:45Z</time>
      </trkpt>
      <trkpt lat="43.57482" lon="2.99853">
        <ele>171.122328</ele>
        <time>2025-10-23T07:51:46Z</time>
      </trkpt>
      <trkpt lat="43.57479" lon="2.99846">
        <ele>171.147705</ele>
        <time>2025-10-23T07:51:47Z</time>
      </trkpt>
      <trkpt lat="43.57477" lon="2.99839">
        <ele>171.173415</ele>
        <time>2025-10-23T07:51:48Z</time>
      </trkpt>
      <trkpt lat="43.57474" lon="2.99832">
        <ele>171.199888</ele>
        <time>2025-10-23T07:51:49Z</time>
      </trkpt>
      <trkpt lat="43.57471" lon="2.99825">
        <ele>171.225307</ele>
        <time>2025-10-23T07:51:50Z</time>
      </trkpt>
      <trkpt lat="43.57468" lon="2.99819">
        <ele>171.260891</ele>
        <time>2025-10-23T07:51:51Z</time>
      </trkpt>
      <trkpt lat="43.57466" lon="2.99812">
        <ele>171.307695</ele>
        <time>2025-10-23T07:51:52Z</time>
      </trkpt>
      <trkpt lat="43.57463" lon="2.99805">
        <ele>171.356477</ele>
        <time>2025-10-23T07:51:53Z</time>
      </trkpt>
      <trkpt lat="43.5746" lon="2.99799">
        <ele>171.402503</ele>
        <time>2025-10-23T07:51:54Z</time>
      </trkpt>
      <trkpt lat="43.57458" lon="2.99793">
        <ele>171.44697</ele>
        <time>2025-10-23T07:51:55Z</time>
      </trkpt>
      <trkpt lat="43.57455" lon="2.99787">
        <ele>171.489967</ele>
        <time>2025-10-23T07:51:56Z</time>
      </trkpt>
      <trkpt lat="43.57452" lon="2.99781">
        <ele>171.533037</ele>
        <time>2025-10-23T07:51:57Z</time>
      </trkpt>
      <trkpt lat="43.57449" lon="2.99775">
        <ele>171.578602</ele>
        <time>2025-10-23T07:51:58Z</time>
      </trkpt>
      <trkpt lat="43.57447" lon="2.99769">
        <ele>171.626842</ele>
        <time>2025-10-23T07:51:59Z</time>
      </trkpt>
      <trkpt lat="43.57444" lon="2.99763">
        <ele>171.666762</ele>
        <time>2025-10-23T07:52:00Z</time>
      </trkpt>
      <trkpt lat="43.57442" lon="2.99759">
        <ele>171.700664</ele>
        <time>2025-10-23T07:52:01Z</time>
      </trkpt>
      <trkpt lat="43.5744" lon="2.99755">
        <ele>171.73306</ele>
        <time>2025-10-23T07:52:02Z</time>
      </trkpt>
      <trkpt lat="43.57438" lon="2.9975">
        <ele>171.762825</ele>
        <time>2025-10-23T07:52:03Z</time>
      </trkpt>
      <trkpt lat="43.57436" lon="2.99746">
        <ele>171.793377</ele>
        <time>2025-10-23T07:52:04Z</time>
      </trkpt>
      <trkpt lat="43.57434" lon="2.99741">
        <ele>171.82933</ele>
        <time>2025-10-23T07:52:05Z</time>
      </trkpt>
      <trkpt lat="43.57431" lon="2.99736">
        <ele>171.871766</ele>
        <time>2025-10-23T07:52:06Z</time>
      </trkpt>
      <trkpt lat="43.57429" lon="2.9973">
        <ele>171.914836</ele>
        <time>2025-10-23T07:52:07Z</time>
      </trkpt>
      <trkpt lat="43.57426" lon="2.99724">
        <ele>171.957036</ele>
        <time>2025-10-23T07:52:08Z</time>
      </trkpt>
      <trkpt lat="43.57424" lon="2.99718">
        <ele>171.995133</ele>
        <time>2025-10-23T07:52:09Z</time>
      </trkpt>
      <trkpt lat="43.57422" lon="2.99712">
        <ele>172.04181</ele>
        <time>2025-10-23T07:52:10Z</time>
      </trkpt>
      <trkpt lat="43.5742" lon="2.99704">
        <ele>172.092853</ele>
        <time>2025-10-23T07:52:11Z</time>
      </trkpt>
      <trkpt lat="43.57417" lon="2.99697">
        <ele>172.144369</ele>
        <time>2025-10-23T07:52:12Z</time>
      </trkpt>
      <trkpt lat="43.57414" lon="2.9969">
        <ele>172.194877</ele>
        <time>2025-10-23T07:52:13Z</time>
      </trkpt>
      <trkpt lat="43.57411" lon="2.99684">
        <ele>172.240333</ele>
        <time>2025-10-23T07:52:14Z</time>
      </trkpt>
      <trkpt lat="43.57408" lon="2.99678">
        <ele>172.286832</ele>
        <time>2025-10-23T07:52:15Z</time>
      </trkpt>
      <trkpt lat="43.57404" lon="2.99671">
        <ele>172.337342</ele>
        <time>2025-10-23T07:52:16Z</time>
      </trkpt>
      <trkpt lat="43.57401" lon="2.99665">
        <ele>172.388859</ele>
        <time>2025-10-23T07:52:17Z</time>
      </trkpt>
      <trkpt lat="43.57397" lon="2.99658">
        <ele>172.441891</ele>
        <time>2025-10-23T07:52:18Z</time>
      </trkpt>
      <trkpt lat="43.57393" lon="2.99651">
        <ele>172.494424</ele>
        <time>2025-10-23T07:52:19Z</time>
      </trkpt>
      <trkpt lat="43.5739" lon="2.99644">
        <ele>172.543955</ele>
        <time>2025-10-23T07:52:20Z</time>
      </trkpt>
      <trkpt lat="43.57387" lon="2.99638">
        <ele>172.594063</ele>
        <time>2025-10-23T07:52:21Z</time>
      </trkpt>
      <trkpt lat="43.57384" lon="2.9963">
        <ele>172.644074</ele>
        <time>2025-10-23T07:52:22Z</time>
      </trkpt>
      <trkpt lat="43.57381" lon="2.99623">
        <ele>172.696311</ele>
        <time>2025-10-23T07:52:23Z</time>
      </trkpt>
      <trkpt lat="43.57379" lon="2.99617">
        <ele>172.743314</ele>
        <time>2025-10-23T07:52:24Z</time>
      </trkpt>
      <trkpt lat="43.57376" lon="2.9961">
        <ele>172.788848</ele>
        <time>2025-10-23T07:52:25Z</time>
      </trkpt>
      <trkpt lat="43.57373" lon="2.99604">
        <ele>172.793552</ele>
        <time>2025-10-23T07:52:26Z</time>
      </trkpt>
      <trkpt lat="43.5737" lon="2.99598">
        <ele>172.79805</ele>
        <time>2025-10-23T07:52:27Z</time>
      </trkpt>
      <trkpt lat="43.57367" lon="2.99592">
        <ele>172.802407</ele>
        <time>2025-10-23T07:52:28Z</time>
      </trkpt>
      <trkpt lat="43.57365" lon="2.99586">
        <ele>172.806571</ele>
        <time>2025-10-23T07:52:29Z</time>
      </trkpt>
      <trkpt lat="43.57362" lon="2.9958">
        <ele>172.81082</ele>
        <time>2025-10-23T07:52:30Z</time>
      </trkpt>
      <trkpt lat="43.57359" lon="2.99574">
        <ele>172.815121</ele>
        <time>2025-10-23T07:52:31Z</time>
      </trkpt>
      <trkpt lat="43.57356" lon="2.99568">
        <ele>172.819869</ele>
        <time>2025-10-23T07:52:32Z</time>
      </trkpt>
      <trkpt lat="43.57352" lon="2.99562">
        <ele>172.824921</ele>
        <time>2025-10-23T07:52:33Z</time>
      </trkpt>
      <trkpt lat="43.57348" lon="2.99556">
        <ele>172.830055</ele>
        <time>2025-10-23T07:52:34Z</time>
      </trkpt>
      <trkpt lat="43.57344" lon="2.9955">
        <ele>172.83476</ele>
        <time>2025-10-23T07:52:35Z</time>
      </trkpt>
      <trkpt lat="43.57341" lon="2.99544">
        <ele>172.839301</ele>
        <time>2025-10-23T07:52:36Z</time>
      </trkpt>
      <trkpt lat="43.57337" lon="2.99539">
        <ele>172.843623</ele>
        <time>2025-10-23T07:52:37Z</time>
      </trkpt>
      <trkpt lat="43.57333" lon="2.99534">
        <ele>172.848371</ele>
        <time>2025-10-23T07:52:38Z</time>
      </trkpt>
      <trkpt lat="43.5733" lon="2.99528">
        <ele>172.852934</ele>
        <time>2025-10-23T07:52:39Z</time>
      </trkpt>
      <trkpt lat="43.57326" lon="2.99523">
        <ele>172.857199</ele>
        <time>2025-10-23T07:52:40Z</time>
      </trkpt>
      <trkpt lat="43.57323" lon="2.99518">
        <ele>172.861111</ele>
        <time>2025-10-23T07:52:41Z</time>
      </trkpt>
      <trkpt lat="43.5732" lon="2.99513">
        <ele>172.865078</ele>
        <time>2025-10-23T07:52:42Z</time>
      </trkpt>
      <trkpt lat="43.57317" lon="2.99508">
        <ele>172.869186</ele>
        <time>2025-10-23T07:52:43Z</time>
      </trkpt>
      <trkpt lat="43.57314" lon="2.99503">
        <ele>172.873287</ele>
        <time>2025-10-23T07:52:44Z</time>
      </trkpt>
      <trkpt lat="43.57311" lon="2.99498">
        <ele>172.877388</ele>
        <time>2025-10-23T07:52:45Z</time>
      </trkpt>
      <trkpt lat="43.57308" lon="2.99493">
        <ele>172.881543</ele>
        <time>2025-10-23T07:52:46Z</time>
      </trkpt>
      <trkpt lat="43.57305" lon="2.99487">
        <ele>172.88574</ele>
        <time>2025-10-23T07:52:47Z</time>
      </trkpt>
      <trkpt lat="43.57302" lon="2.99482">
        <ele>172.890052</ele>
        <time>2025-10-23T07:52:48Z</time>
      </trkpt>
      <trkpt lat="43.57299" lon="2.99476">
        <ele>172.894411</ele>
        <time>2025-10-23T07:52:49Z</time>
      </trkpt>
      <trkpt lat="43.57295" lon="2.99471">
        <ele>172.89886</ele>
        <time>2025-10-23T07:52:50Z</time>
      </trkpt>
      <trkpt lat="43.57292" lon="2.99465">
        <ele>172.903362</ele>
        <time>2025-10-23T07:52:51Z</time>
      </trkpt>
      <trkpt lat="43.57289" lon="2.9946">
        <ele>172.907823</ele>
        <time>2025-10-23T07:52:52Z</time>
      </trkpt>
      <trkpt lat="43.57285" lon="2.99454">
        <ele>172.912522</ele>
        <time>2025-10-23T07:52:53Z</time>
      </trkpt>
      <trkpt lat="43.57283" lon="2.99448">
        <ele>172.916571</ele>
        <time>2025-10-23T07:52:54Z</time>
      </trkpt>
      <trkpt lat="43.5728" lon="2.99443">
        <ele>172.920769</ele>
        <time>2025-10-23T07:52:55Z</time>
      </trkpt>
      <trkpt lat="43.57277" lon="2.99436">
        <ele>172.925215</ele>
        <time>2025-10-23T07:52:56Z</time>
      </trkpt>
      <trkpt lat="43.57275" lon="2.9943">
        <ele>172.929573</ele>
        <time>2025-10-23T07:52:57Z</time>
      </trkpt>
      <trkpt lat="43.57272" lon="2.99425">
        <ele>172.933438</ele>
        <time>2025-10-23T07:52:58Z</time>
      </trkpt>
      <trkpt lat="43.5727" lon="2.9942">
        <ele>172.937087</ele>
        <time>2025-10-23T07:52:59Z</time>
      </trkpt>
      <trkpt lat="43.57267" lon="2.99415">
        <ele>172.940991</ele>
        <time>2025-10-23T07:53:00Z</time>
      </trkpt>
      <trkpt lat="43.57264" lon="2.9941">
        <ele>172.899834</ele>
        <time>2025-10-23T07:53:01Z</time>
      </trkpt>
      <trkpt lat="43.5726" lon="2.99405">
        <ele>172.84597</ele>
        <time>2025-10-23T07:53:02Z</time>
      </trkpt>
      <trkpt lat="43.57257" lon="2.994">
        <ele>172.79279</ele>
        <time>2025-10-23T07:53:03Z</time>
      </trkpt>
      <trkpt lat="43.57253" lon="2.99394">
        <ele>172.737972</ele>
        <time>2025-10-23T07:53:04Z</time>
      </trkpt>
      <trkpt lat="43.5725" lon="2.99388">
        <ele>172.681351</ele>
        <time>2025-10-23T07:53:05Z</time>
      </trkpt>
      <trkpt lat="43.57247" lon="2.99382">
        <ele>172.625893</ele>
        <time>2025-10-23T07:53:06Z</time>
      </trkpt>
      <trkpt lat="43.57243" lon="2.99375">
        <ele>172.565695</ele>
        <time>2025-10-23T07:53:07Z</time>
      </trkpt>
      <trkpt lat="43.5724" lon="2.99369">
        <ele>172.507787</ele>
        <time>2025-10-23T07:53:08Z</time>
      </trkpt>
      <trkpt lat="43.57237" lon="2.99364">
        <ele>172.456017</ele>
        <time>2025-10-23T07:53:09Z</time>
      </trkpt>
      <trkpt lat="43.57234" lon="2.99358">
        <ele>172.405395</ele>
        <time>2025-10-23T07:53:10Z</time>
      </trkpt>
      <trkpt lat="43.57231" lon="2.99353">
        <ele>172.359041</ele>
        <time>2025-10-23T07:53:11Z</time>
      </trkpt>
      <trkpt lat="43.57229" lon="2.99348">
        <ele>172.312582</ele>
        <time>2025-10-23T07:53:12Z</time>
      </trkpt>
      <trkpt lat="43.57227" lon="2.99342">
        <ele>172.267821</ele>
        <time>2025-10-23T07:53:13Z</time>
      </trkpt>
      <trkpt lat="43.57225" lon="2.99338">
        <ele>172.226016</ele>
        <time>2025-10-23T07:53:14Z</time>
      </trkpt>
      <trkpt lat="43.57223" lon="2.99333">
        <ele>172.185632</ele>
        <time>2025-10-23T07:53:15Z</time>
      </trkpt>
      <trkpt lat="43.57222" lon="2.99328">
        <ele>172.146479</ele>
        <time>2025-10-23T07:53:16Z</time>
      </trkpt>
      <trkpt lat="43.5722" lon="2.99323">
        <ele>172.104673</ele>
        <time>2025-10-23T07:53:17Z</time>
      </trkpt>
      <trkpt lat="43.57218" lon="2.99318">
        <ele>172.062992</ele>
        <time>2025-10-23T07:53:18Z</time>
      </trkpt>
      <trkpt lat="43.57216" lon="2.99313">
        <ele>172.017912</ele>
        <time>2025-10-23T07:53:19Z</time>
      </trkpt>
      <trkpt lat="43.57214" lon="2.99306">
        <ele>171.967463</ele>
        <time>2025-10-23T07:53:20Z</time>
      </trkpt>
      <trkpt lat="43.57212" lon="2.99302">
        <ele>171.926626</ele>
        <time>2025-10-23T07:53:21Z</time>
      </trkpt>
      <trkpt lat="43.5721" lon="2.99296">
        <ele>171.882373</ele>
        <time>2025-10-23T07:53:22Z</time>
      </trkpt>
      <trkpt lat="43.57208" lon="2.99291">
        <ele>171.83708</ele>
        <time>2025-10-23T07:53:23Z</time>
      </trkpt>
      <trkpt lat="43.57206" lon="2.99285">
        <ele>171.790178</ele>
        <time>2025-10-23T07:53:24Z</time>
      </trkpt>
      <trkpt lat="43.57204" lon="2.9928">
        <ele>171.744885</ele>
        <time>2025-10-23T07:53:25Z</time>
      </trkpt>
      <trkpt lat="43.57202" lon="2.99275">
        <ele>171.707624</ele>
        <time>2025-10-23T07:53:26Z</time>
      </trkpt>
      <trkpt lat="43.57201" lon="2.9927">
        <ele>171.664992</ele>
        <time>2025-10-23T07:53:27Z</time>
      </trkpt>
      <trkpt lat="43.57199" lon="2.99264">
        <ele>171.616719</ele>
        <time>2025-10-23T07:53:28Z</time>
      </trkpt>
      <trkpt lat="43.57197" lon="2.99258">
        <ele>171.568447</ele>
        <time>2025-10-23T07:53:29Z</time>
      </trkpt>
      <trkpt lat="43.57195" lon="2.99252">
        <ele>171.518645</ele>
        <time>2025-10-23T07:53:30Z</time>
      </trkpt>
      <trkpt lat="43.57192" lon="2.99244">
        <ele>171.456588</ele>
        <time>2025-10-23T07:53:31Z</time>
      </trkpt>
      <trkpt lat="43.5719" lon="2.99236">
        <ele>171.387599</ele>
        <time>2025-10-23T07:53:32Z</time>
      </trkpt>
      <trkpt lat="43.57187" lon="2.99228">
        <ele>171.32601</ele>
        <time>2025-10-23T07:53:33Z</time>
      </trkpt>
      <trkpt lat="43.57185" lon="2.99221">
        <ele>171.264384</ele>
        <time>2025-10-23T07:53:34Z</time>
      </trkpt>
      <trkpt lat="43.57183" lon="2.99213">
        <ele>171.205674</ele>
        <time>2025-10-23T07:53:35Z</time>
      </trkpt>
      <trkpt lat="43.57181" lon="2.99206">
        <ele>171.147661</ele>
        <time>2025-10-23T07:53:36Z</time>
      </trkpt>
      <trkpt lat="43.57179" lon="2.99199">
        <ele>171.09963</ele>
        <time>2025-10-23T07:53:37Z</time>
      </trkpt>
      <trkpt lat="43.57177" lon="2.99193">
        <ele>171.137982</ele>
        <time>2025-10-23T07:53:38Z</time>
      </trkpt>
      <trkpt lat="43.57175" lon="2.99187">
        <ele>171.173471</ele>
        <time>2025-10-23T07:53:39Z</time>
      </trkpt>
      <trkpt lat="43.57173" lon="2.99181">
        <ele>171.209811</ele>
        <time>2025-10-23T07:53:40Z</time>
      </trkpt>
      <trkpt lat="43.57172" lon="2.99175">
        <ele>171.242426</ele>
        <time>2025-10-23T07:53:41Z</time>
      </trkpt>
      <trkpt lat="43.5717" lon="2.99169">
        <ele>171.277954</ele>
        <time>2025-10-23T07:53:42Z</time>
      </trkpt>
      <trkpt lat="43.57168" lon="2.99164">
        <ele>171.313443</ele>
        <time>2025-10-23T07:53:43Z</time>
      </trkpt>
      <trkpt lat="43.57165" lon="2.99157">
        <ele>171.353091</ele>
        <time>2025-10-23T07:53:44Z</time>
      </trkpt>
      <trkpt lat="43.57164" lon="2.99151">
        <ele>171.392242</ele>
        <time>2025-10-23T07:53:45Z</time>
      </trkpt>
      <trkpt lat="43.57162" lon="2.99145">
        <ele>171.425377</ele>
        <time>2025-10-23T07:53:46Z</time>
      </trkpt>
      <trkpt lat="43.5716" lon="2.9914">
        <ele>171.458366</ele>
        <time>2025-10-23T07:53:47Z</time>
      </trkpt>
      <trkpt lat="43.57159" lon="2.99135">
        <ele>171.489522</ele>
        <time>2025-10-23T07:53:48Z</time>
      </trkpt>
      <trkpt lat="43.57157" lon="2.99129">
        <ele>171.522656</ele>
        <time>2025-10-23T07:53:49Z</time>
      </trkpt>
      <trkpt lat="43.57156" lon="2.99123">
        <ele>171.555599</ele>
        <time>2025-10-23T07:53:50Z</time>
      </trkpt>
      <trkpt lat="43.57154" lon="2.99118">
        <ele>171.58575</ele>
        <time>2025-10-23T07:53:51Z</time>
      </trkpt>
      <trkpt lat="43.57153" lon="2.99113">
        <ele>171.619243</ele>
        <time>2025-10-23T07:53:52Z</time>
      </trkpt>
      <trkpt lat="43.57151" lon="2.99107">
        <ele>171.652429</ele>
        <time>2025-10-23T07:53:53Z</time>
      </trkpt>
      <trkpt lat="43.57149" lon="2.99102">
        <ele>171.682463</ele>
        <time>2025-10-23T07:53:54Z</time>
      </trkpt>
      <trkpt lat="43.57148" lon="2.99097">
        <ele>171.714328</ele>
        <time>2025-10-23T07:53:55Z</time>
      </trkpt>
      <trkpt lat="43.57146" lon="2.99091">
        <ele>171.748537</ele>
        <time>2025-10-23T07:53:56Z</time>
      </trkpt>
      <trkpt lat="43.57144" lon="2.99085">
        <ele>171.785847</ele>
        <time>2025-10-23T07:53:57Z</time>
      </trkpt>
      <trkpt lat="43.57143" lon="2.99079">
        <ele>171.819772</ele>
        <time>2025-10-23T07:53:58Z</time>
      </trkpt>
      <trkpt lat="43.57141" lon="2.99074">
        <ele>171.852387</ele>
        <time>2025-10-23T07:53:59Z</time>
      </trkpt>
      <trkpt lat="43.57139" lon="2.99068">
        <ele>171.888538</ele>
        <time>2025-10-23T07:54:00Z</time>
      </trkpt>
      <trkpt lat="43.57138" lon="2.99062">
        <ele>171.922747</ele>
        <time>2025-10-23T07:54:01Z</time>
      </trkpt>
      <trkpt lat="43.57135" lon="2.99057">
        <ele>171.955786</ele>
        <time>2025-10-23T07:54:02Z</time>
      </trkpt>
      <trkpt lat="43.57133" lon="2.99052">
        <ele>171.986906</ele>
        <time>2025-10-23T07:54:03Z</time>
      </trkpt>
      <trkpt lat="43.57131" lon="2.99046">
        <ele>172.024266</ele>
        <time>2025-10-23T07:54:04Z</time>
      </trkpt>
      <trkpt lat="43.5713" lon="2.99039">
        <ele>172.063141</ele>
        <time>2025-10-23T07:54:05Z</time>
      </trkpt>
      <trkpt lat="43.57128" lon="2.99033">
        <ele>172.10019</ele>
        <time>2025-10-23T07:54:06Z</time>
      </trkpt>
      <trkpt lat="43.57126" lon="2.99027">
        <ele>172.138354</ele>
        <time>2025-10-23T07:54:07Z</time>
      </trkpt>
      <trkpt lat="43.57124" lon="2.99021">
        <ele>172.175675</ele>
        <time>2025-10-23T07:54:08Z</time>
      </trkpt>
      <trkpt lat="43.57122" lon="2.99015">
        <ele>172.212329</ele>
        <time>2025-10-23T07:54:09Z</time>
      </trkpt>
      <trkpt lat="43.5712" lon="2.99009">
        <ele>172.247052</ele>
        <time>2025-10-23T07:54:10Z</time>
      </trkpt>
      <trkpt lat="43.57118" lon="2.99003">
        <ele>172.284372</ele>
        <time>2025-10-23T07:54:11Z</time>
      </trkpt>
      <trkpt lat="43.57116" lon="2.98998">
        <ele>172.318272</ele>
        <time>2025-10-23T07:54:12Z</time>
      </trkpt>
      <trkpt lat="43.57113" lon="2.98992">
        <ele>172.358267</ele>
        <time>2025-10-23T07:54:13Z</time>
      </trkpt>
      <trkpt lat="43.57111" lon="2.98986">
        <ele>172.395648</ele>
        <time>2025-10-23T07:54:14Z</time>
      </trkpt>
      <trkpt lat="43.57107" lon="2.9898">
        <ele>172.435667</ele>
        <time>2025-10-23T07:54:15Z</time>
      </trkpt>
      <trkpt lat="43.57104" lon="2.98974">
        <ele>172.476691</ele>
        <time>2025-10-23T07:54:16Z</time>
      </trkpt>
      <trkpt lat="43.57101" lon="2.98968">
        <ele>172.502572</ele>
        <time>2025-10-23T07:54:17Z</time>
      </trkpt>
      <trkpt lat="43.57097" lon="2.98962">
        <ele>172.527099</ele>
        <time>2025-10-23T07:54:18Z</time>
      </trkpt>
      <trkpt lat="43.57094" lon="2.98957">
        <ele>172.552156</ele>
        <time>2025-10-23T07:54:19Z</time>
      </trkpt>
      <trkpt lat="43.57091" lon="2.98951">
        <ele>172.575832</ele>
        <time>2025-10-23T07:54:20Z</time>
      </trkpt>
      <trkpt lat="43.57088" lon="2.98946">
        <ele>172.598945</ele>
        <time>2025-10-23T07:54:21Z</time>
      </trkpt>
      <trkpt lat="43.57085" lon="2.9894">
        <ele>172.621783</ele>
        <time>2025-10-23T07:54:22Z</time>
      </trkpt>
      <trkpt lat="43.57082" lon="2.98935">
        <ele>172.644345</ele>
        <time>2025-10-23T07:54:23Z</time>
      </trkpt>
      <trkpt lat="43.57079" lon="2.98929">
        <ele>172.669403</ele>
        <time>2025-10-23T07:54:24Z</time>
      </trkpt>
      <trkpt lat="43.57076" lon="2.98924">
        <ele>172.693711</ele>
        <time>2025-10-23T07:54:25Z</time>
      </trkpt>
      <trkpt lat="43.57072" lon="2.98918">
        <ele>172.721414</ele>
        <time>2025-10-23T07:54:26Z</time>
      </trkpt>
      <trkpt lat="43.57068" lon="2.98912">
        <ele>172.74553</ele>
        <time>2025-10-23T07:54:27Z</time>
      </trkpt>
      <trkpt lat="43.57064" lon="2.98907">
        <ele>172.770387</ele>
        <time>2025-10-23T07:54:28Z</time>
      </trkpt>
      <trkpt lat="43.57061" lon="2.98902">
        <ele>172.79467</ele>
        <time>2025-10-23T07:54:29Z</time>
      </trkpt>
      <trkpt lat="43.57057" lon="2.98897">
        <ele>172.817338</ele>
        <time>2025-10-23T07:54:30Z</time>
      </trkpt>
      <trkpt lat="43.57054" lon="2.98892">
        <ele>172.841775</ele>
        <time>2025-10-23T07:54:31Z</time>
      </trkpt>
      <trkpt lat="43.5705" lon="2.98887">
        <ele>172.866648</ele>
        <time>2025-10-23T07:54:32Z</time>
      </trkpt>
      <trkpt lat="43.57047" lon="2.98881">
        <ele>172.890615</ele>
        <time>2025-10-23T07:54:33Z</time>
      </trkpt>
      <trkpt lat="43.57044" lon="2.98876">
        <ele>172.913914</ele>
        <time>2025-10-23T07:54:34Z</time>
      </trkpt>
      <trkpt lat="43.5704" lon="2.98872">
        <ele>172.936242</ele>
        <time>2025-10-23T07:54:35Z</time>
      </trkpt>
      <trkpt lat="43.57036" lon="2.98867">
        <ele>172.960399</ele>
        <time>2025-10-23T07:54:36Z</time>
      </trkpt>
      <trkpt lat="43.57033" lon="2.98862">
        <ele>172.98338</ele>
        <time>2025-10-23T07:54:37Z</time>
      </trkpt>
      <trkpt lat="43.5703" lon="2.98857">
        <ele>173.007248</ele>
        <time>2025-10-23T07:54:38Z</time>
      </trkpt>
      <trkpt lat="43.57026" lon="2.98852">
        <ele>173.029913</ele>
        <time>2025-10-23T07:54:39Z</time>
      </trkpt>
      <trkpt lat="43.57023" lon="2.98848">
        <ele>173.050622</ele>
        <time>2025-10-23T07:54:40Z</time>
      </trkpt>
      <trkpt lat="43.5702" lon="2.98844">
        <ele>173.069374</ele>
        <time>2025-10-23T07:54:41Z</time>
      </trkpt>
      <trkpt lat="43.57017" lon="2.9884">
        <ele>173.088242</ele>
        <time>2025-10-23T07:54:42Z</time>
      </trkpt>
      <trkpt lat="43.57014" lon="2.98835">
        <ele>173.11179</ele>
        <time>2025-10-23T07:54:43Z</time>
      </trkpt>
      <trkpt lat="43.5701" lon="2.98831">
        <ele>173.133308</ele>
        <time>2025-10-23T07:54:44Z</time>
      </trkpt>
      <trkpt lat="43.57007" lon="2.98827">
        <ele>173.156138</ele>
        <time>2025-10-23T07:54:45Z</time>
      </trkpt>
      <trkpt lat="43.57003" lon="2.98822">
        <ele>173.180185</ele>
        <time>2025-10-23T07:54:46Z</time>
      </trkpt>
      <trkpt lat="43.56999" lon="2.98817">
        <ele>173.205398</ele>
        <time>2025-10-23T07:54:47Z</time>
      </trkpt>
      <trkpt lat="43.56995" lon="2.98812">
        <ele>173.22783</ele>
        <time>2025-10-23T07:54:48Z</time>
      </trkpt>
      <trkpt lat="43.56992" lon="2.98809">
        <ele>173.24785</ele>
        <time>2025-10-23T07:54:49Z</time>
      </trkpt>
      <trkpt lat="43.56989" lon="2.98804">
        <ele>173.268795</ele>
        <time>2025-10-23T07:54:50Z</time>
      </trkpt>
      <trkpt lat="43.56985" lon="2.988">
        <ele>173.29146</ele>
        <time>2025-10-23T07:54:51Z</time>
      </trkpt>
      <trkpt lat="43.56982" lon="2.98795">
        <ele>173.312558</ele>
        <time>2025-10-23T07:54:52Z</time>
      </trkpt>
      <trkpt lat="43.56979" lon="2.9879">
        <ele>173.280763</ele>
        <time>2025-10-23T07:54:53Z</time>
      </trkpt>
      <trkpt lat="43.56975" lon="2.98785">
        <ele>173.229476</ele>
        <time>2025-10-23T07:54:54Z</time>
      </trkpt>
      <trkpt lat="43.56971" lon="2.9878">
        <ele>173.180193</ele>
        <time>2025-10-23T07:54:55Z</time>
      </trkpt>
      <trkpt lat="43.56968" lon="2.98775">
        <ele>173.132684</ele>
        <time>2025-10-23T07:54:56Z</time>
      </trkpt>
      <trkpt lat="43.56964" lon="2.98769">
        <ele>173.076968</ele>
        <time>2025-10-23T07:54:57Z</time>
      </trkpt>
      <trkpt lat="43.5696" lon="2.98764">
        <ele>173.026179</ele>
        <time>2025-10-23T07:54:58Z</time>
      </trkpt>
      <trkpt lat="43.56956" lon="2.98758">
        <ele>172.974559</ele>
        <time>2025-10-23T07:54:59Z</time>
      </trkpt>
      <trkpt lat="43.56952" lon="2.98753">
        <ele>172.923606</ele>
        <time>2025-10-23T07:55:00Z</time>
      </trkpt>
      <trkpt lat="43.56949" lon="2.98748">
        <ele>172.879666</ele>
        <time>2025-10-23T07:55:01Z</time>
      </trkpt>
      <trkpt lat="43.56946" lon="2.98744">
        <ele>172.836958</ele>
        <time>2025-10-23T07:55:02Z</time>
      </trkpt>
      <trkpt lat="43.56943" lon="2.98739">
        <ele>172.798075</ele>
        <time>2025-10-23T07:55:03Z</time>
      </trkpt>
      <trkpt lat="43.56941" lon="2.98736">
        <ele>172.761288</ele>
        <time>2025-10-23T07:55:04Z</time>
      </trkpt>
      <trkpt lat="43.56938" lon="2.98732">
        <ele>172.722884</ele>
        <time>2025-10-23T07:55:05Z</time>
      </trkpt>
      <trkpt lat="43.56934" lon="2.98729">
        <ele>172.685614</ele>
        <time>2025-10-23T07:55:06Z</time>
      </trkpt>
      <trkpt lat="43.56931" lon="2.98725">
        <ele>172.646677</ele>
        <time>2025-10-23T07:55:07Z</time>
      </trkpt>
      <trkpt lat="43.56928" lon="2.98721">
        <ele>172.608009</ele>
        <time>2025-10-23T07:55:08Z</time>
      </trkpt>
      <trkpt lat="43.56926" lon="2.98717">
        <ele>172.575913</ele>
        <time>2025-10-23T07:55:09Z</time>
      </trkpt>
      <trkpt lat="43.56925" lon="2.98713">
        <ele>172.543487</ele>
        <time>2025-10-23T07:55:10Z</time>
      </trkpt>
      <trkpt lat="43.56923" lon="2.98708">
        <ele>172.509016</ele>
        <time>2025-10-23T07:55:11Z</time>
      </trkpt>
      <trkpt lat="43.56923" lon="2.98708">
        <ele>172.509016</ele>
        <time>2025-10-23T07:55:19Z</time>
      </trkpt>
      <trkpt lat="43.56923" lon="2.98708">
        <ele>172.509016</ele>
        <time>2025-10-23T07:55:23Z</time>
      </trkpt>
      <trkpt lat="43.56923" lon="2.98708">
        <ele>172.509016</ele>
        <time>2025-10-23T07:55:26Z</time>
      </trkpt>
      <trkpt lat="43.56923" lon="2.98708">
        <ele>172.509016</ele>
        <time>2025-10-23T07:55:33Z</time>
      </trkpt>
      <trkpt lat="43.56923" lon="2.98708">
        <ele>172.509016</ele>
        <time>2025-10-23T07:55:36Z</time>
      </trkpt>
      <trkpt lat="43.56923" lon="2.98708">
        <ele>172.509016</ele>
        <time>2025-10-23T07:55:41Z</time>
      </trkpt>
      <trkpt lat="43.56923" lon="2.98708">
        <ele>172.509016</ele>
        <time>2025-10-23T07:55:44Z</time>
      </trkpt>
      <trkpt lat="43.56923" lon="2.98708">
        <ele>172.509016</ele>
        <time>2025-10-23T07:55:46Z</time>
      </trkpt>
      <trkpt lat="43.56923" lon="2.98708">
        <ele>172.509016</ele>
        <time>2025-10-23T07:55:47Z</time>
      </trkpt>
      <trkpt lat="43.56923" lon="2.98708">
        <ele>172.509016</ele>
        <time>2025-10-23T07:55:48Z</time>
      </trkpt>
      <trkpt lat="43.56923" lon="2.98708">
        <ele>172.509016</ele>
        <time>2025-10-23T07:55:49Z</time>
      </trkpt>
      <trkpt lat="43.56923" lon="2.98708">
        <ele>172.509016</ele>
        <time>2025-10-23T07:55:54Z</time>
      </trkpt>
      <trkpt lat="43.56923" lon="2.98708">
        <ele>172.509016</ele>
        <time>2025-10-23T07:55:56Z</time>
      </trkpt>
      <trkpt lat="43.56923" lon="2.98708">
        <ele>172.509016</ele>
        <time>2025-10-23T07:55:59Z</time>
      </trkpt>
      <trkpt lat="43.56923" lon="2.98708">
        <ele>172.509016</ele>
        <time>2025-10-23T07:56:00Z</time>
      </trkpt>
      <trkpt lat="43.56923" lon="2.98708">
        <ele>172.509016</ele>
        <time>2025-10-23T07:56:02Z</time>
      </trkpt>
      <trkpt lat="43.56846" lon="2.98438">
        <ele>172.215766</ele>
        <time>2025-10-23T07:56:03Z</time>
      </trkpt>
      <trkpt lat="43.56844" lon="2.98433">
        <ele>172.237648</ele>
        <time>2025-10-23T07:56:04Z</time>
      </trkpt>
      <trkpt lat="43.56843" lon="2.98431">
        <ele>172.247427</ele>
        <time>2025-10-23T07:56:05Z</time>
      </trkpt>
      <trkpt lat="43.56842" lon="2.98427">
        <ele>172.261332</ele>
        <time>2025-10-23T07:56:06Z</time>
      </trkpt>
      <trkpt lat="43.56841" lon="2.98425">
        <ele>172.272126</ele>
        <time>2025-10-23T07:56:07Z</time>
      </trkpt>
      <trkpt lat="43.5684" lon="2.98424">
        <ele>172.27725</ele>
        <time>2025-10-23T07:56:08Z</time>
      </trkpt>
      <trkpt lat="43.5684" lon="2.98424">
        <ele>172.27725</ele>
        <time>2025-10-23T07:57:07Z</time>
      </trkpt>
      <trkpt lat="43.5684" lon="2.98424">
        <ele>172.27725</ele>
        <time>2025-10-23T07:57:10Z</time>
      </trkpt>
      <trkpt lat="43.5684" lon="2.98424">
        <ele>172.27725</ele>
        <time>2025-10-23T07:57:12Z</time>
      </trkpt>
      <trkpt lat="43.5684" lon="2.98424">
        <ele>172.27725</ele>
        <time>2025-10-23T07:57:21Z</time>
      </trkpt>
      <trkpt lat="43.56847" lon="2.98399">
        <ele>172.376648</ele>
        <time>2025-10-23T07:57:27Z</time>
      </trkpt>
      <trkpt lat="43.56846" lon="2.98398">
        <ele>172.382836</ele>
        <time>2025-10-23T07:57:28Z</time>
      </trkpt>
      <trkpt lat="43.56845" lon="2.98398">
        <ele>172.38924</ele>
        <time>2025-10-23T07:57:29Z</time>
      </trkpt>
      <trkpt lat="43.56844" lon="2.98398">
        <ele>172.395974</ele>
        <time>2025-10-23T07:57:30Z</time>
      </trkpt>
      <trkpt lat="43.56843" lon="2.984">
        <ele>172.403647</ele>
        <time>2025-10-23T07:57:31Z</time>
      </trkpt>
      <trkpt lat="43.56843" lon="2.98401">
        <ele>172.410097</ele>
        <time>2025-10-23T07:57:32Z</time>
      </trkpt>
      <trkpt lat="43.56842" lon="2.98403">
        <ele>172.41802</ele>
        <time>2025-10-23T07:57:33Z</time>
      </trkpt>
      <trkpt lat="43.56842" lon="2.98406">
        <ele>172.428067</ele>
        <time>2025-10-23T07:57:34Z</time>
      </trkpt>
      <trkpt lat="43.56842" lon="2.98408">
        <ele>172.4351</ele>
        <time>2025-10-23T07:57:35Z</time>
      </trkpt>
      <trkpt lat="43.56842" lon="2.98411">
        <ele>172.444738</ele>
        <time>2025-10-23T07:57:36Z</time>
      </trkpt>
      <trkpt lat="43.56842" lon="2.98412">
        <ele>172.451051</ele>
        <time>2025-10-23T07:57:37Z</time>
      </trkpt>
      <trkpt lat="43.56841" lon="2.98412">
        <ele>172.455205</ele>
        <time>2025-10-23T07:57:38Z</time>
      </trkpt>
      <trkpt lat="43.56841" lon="2.98414">
        <ele>172.462205</ele>
        <time>2025-10-23T07:57:39Z</time>
      </trkpt>
      <trkpt lat="43.5684" lon="2.98416">
        <ele>172.471254</ele>
        <time>2025-10-23T07:57:40Z</time>
      </trkpt>
      <trkpt lat="43.5684" lon="2.98418">
        <ele>172.47787</ele>
        <time>2025-10-23T07:57:41Z</time>
      </trkpt>
      <trkpt lat="43.5684" lon="2.9842">
        <ele>172.484163</ele>
        <time>2025-10-23T07:57:42Z</time>
      </trkpt>
      <trkpt lat="43.5684" lon="2.98421">
        <ele>172.488267</ele>
        <time>2025-10-23T07:57:43Z</time>
      </trkpt>
      <trkpt lat="43.5684" lon="2.98422">
        <ele>172.493106</ele>
        <time>2025-10-23T07:57:44Z</time>
      </trkpt>
      <trkpt lat="43.5684" lon="2.98423">
        <ele>172.498334</ele>
        <time>2025-10-23T07:57:45Z</time>
      </trkpt>
      <trkpt lat="43.5684" lon="2.98424">
        <ele>172.502071</ele>
        <time>2025-10-23T07:57:46Z</time>
      </trkpt>
      <trkpt lat="43.56841" lon="2.98426">
        <ele>172.509633</ele>
        <time>2025-10-23T07:57:47Z</time>
      </trkpt>
      <trkpt lat="43.56841" lon="2.98427">
        <ele>172.514523</ele>
        <time>2025-10-23T07:57:48Z</time>
      </trkpt>
      <trkpt lat="43.56842" lon="2.98428">
        <ele>172.516089</ele>
        <time>2025-10-23T07:57:49Z</time>
      </trkpt>
      <trkpt lat="43.56841" lon="2.98427">
        <ele>172.520436</ele>
        <time>2025-10-23T07:57:50Z</time>
      </trkpt>
      <trkpt lat="43.5684" lon="2.98427">
        <ele>172.523194</ele>
        <time>2025-10-23T07:57:51Z</time>
      </trkpt>
      <trkpt lat="43.5684" lon="2.98426">
        <ele>172.52476</ele>
        <time>2025-10-23T07:57:52Z</time>
      </trkpt>
      <trkpt lat="43.56841" lon="2.98427">
        <ele>172.529567</ele>
        <time>2025-10-23T07:57:53Z</time>
      </trkpt>
      <trkpt lat="43.56842" lon="2.98429">
        <ele>172.540089</ele>
        <time>2025-10-23T07:57:54Z</time>
      </trkpt>
      <trkpt lat="43.56843" lon="2.98431">
        <ele>172.54182</ele>
        <time>2025-10-23T07:57:55Z</time>
      </trkpt>
      <trkpt lat="43.56843" lon="2.98431">
        <ele>172.542167</ele>
        <time>2025-10-23T07:57:56Z</time>
      </trkpt>
      <trkpt lat="43.56843" lon="2.98431">
        <ele>172.542331</ele>
        <time>2025-10-23T07:57:57Z</time>
      </trkpt>
      <trkpt lat="43.56844" lon="2.98432">
        <ele>172.543261</ele>
        <time>2025-10-23T07:57:58Z</time>
      </trkpt>
      <trkpt lat="43.56845" lon="2.98434">
        <ele>172.545185</ele>
        <time>2025-10-23T07:57:59Z</time>
      </trkpt>
      <trkpt lat="43.56845" lon="2.98435">
        <ele>172.546121</ele>
        <time>2025-10-23T07:58:00Z</time>
      </trkpt>
      <trkpt lat="43.56846" lon="2.98437">
        <ele>172.548449</ele>
        <time>2025-10-23T07:58:01Z</time>
      </trkpt>
      <trkpt lat="43.56847" lon="2.98439">
        <ele>172.549712</ele>
        <time>2025-10-23T07:58:02Z</time>
      </trkpt>
      <trkpt lat="43.56848" lon="2.98441">
        <ele>172.551637</ele>
        <time>2025-10-23T07:58:03Z</time>
      </trkpt>
      <trkpt lat="43.56848" lon="2.98441">
        <ele>172.551983</ele>
        <time>2025-10-23T07:58:04Z</time>
      </trkpt>
      <trkpt lat="43.56849" lon="2.98444">
        <ele>172.554522</ele>
        <time>2025-10-23T07:58:05Z</time>
      </trkpt>
      <trkpt lat="43.5685" lon="2.98445">
        <ele>172.556072</ele>
        <time>2025-10-23T07:58:06Z</time>
      </trkpt>
      <trkpt lat="43.5685" lon="2.98447">
        <ele>172.557278</ele>
        <time>2025-10-23T07:58:07Z</time>
      </trkpt>
      <trkpt lat="43.5685" lon="2.98448">
        <ele>172.558609</ele>
        <time>2025-10-23T07:58:08Z</time>
      </trkpt>
      <trkpt lat="43.56851" lon="2.98451">
        <ele>172.560707</ele>
        <time>2025-10-23T07:58:09Z</time>
      </trkpt>
      <trkpt lat="43.56851" lon="2.98453">
        <ele>172.562287</ele>
        <time>2025-10-23T07:58:10Z</time>
      </trkpt>
      <trkpt lat="43.56852" lon="2.98453">
        <ele>172.562755</ele>
        <time>2025-10-23T07:58:11Z</time>
      </trkpt>
      <trkpt lat="43.56852" lon="2.98454">
        <ele>172.563621</ele>
        <time>2025-10-23T07:58:12Z</time>
      </trkpt>
      <trkpt lat="43.56858" lon="2.98462">
        <ele>172.573139</ele>
        <time>2025-10-23T07:58:13Z</time>
      </trkpt>
      <trkpt lat="43.56853" lon="2.98454">
        <ele>172.581965</ele>
        <time>2025-10-23T07:58:14Z</time>
      </trkpt>
      <trkpt lat="43.56857" lon="2.98462">
        <ele>172.590166</ele>
        <time>2025-10-23T07:58:15Z</time>
      </trkpt>
      <trkpt lat="43.5685" lon="2.98451">
        <ele>172.602408</ele>
        <time>2025-10-23T07:58:16Z</time>
      </trkpt>
      <trkpt lat="43.56854" lon="2.98456">
        <ele>172.608629</ele>
        <time>2025-10-23T07:58:17Z</time>
      </trkpt>
      <trkpt lat="43.56844" lon="2.98447">
        <ele>172.62201</ele>
        <time>2025-10-23T07:58:18Z</time>
      </trkpt>
      <trkpt lat="43.5684" lon="2.98437">
        <ele>172.631738</ele>
        <time>2025-10-23T07:58:19Z</time>
      </trkpt>
      <trkpt lat="43.56838" lon="2.98432">
        <ele>172.636475</ele>
        <time>2025-10-23T07:58:20Z</time>
      </trkpt>
      <trkpt lat="43.56836" lon="2.98428">
        <ele>172.640135</ele>
        <time>2025-10-23T07:58:21Z</time>
      </trkpt>
      <trkpt lat="43.56835" lon="2.98427">
        <ele>172.642277</ele>
        <time>2025-10-23T07:58:22Z</time>
      </trkpt>
      <trkpt lat="43.56833" lon="2.98426">
        <ele>172.643647</ele>
        <time>2025-10-23T07:58:23Z</time>
      </trkpt>
      <trkpt lat="43.56833" lon="2.98426">
        <ele>172.644107</ele>
        <time>2025-10-23T07:58:24Z</time>
      </trkpt>
      <trkpt lat="43.56833" lon="2.98426">
        <ele>172.644441</ele>
        <time>2025-10-23T07:58:25Z</time>
      </trkpt>
      <trkpt lat="43.56833" lon="2.98426">
        <ele>172.644866</ele>
        <time>2025-10-23T07:58:26Z</time>
      </trkpt>
      <trkpt lat="43.56833" lon="2.98424">
        <ele>172.646277</ele>
        <time>2025-10-23T07:58:27Z</time>
      </trkpt>
      <trkpt lat="43.56833" lon="2.98428">
        <ele>172.649967</ele>
        <time>2025-10-23T07:58:28Z</time>
      </trkpt>
      <trkpt lat="43.56833" lon="2.98421">
        <ele>172.656151</ele>
        <time>2025-10-23T07:58:29Z</time>
      </trkpt>
      <trkpt lat="43.56833" lon="2.98419">
        <ele>172.657462</ele>
        <time>2025-10-23T07:58:30Z</time>
      </trkpt>
      <trkpt lat="43.56833" lon="2.98424">
        <ele>172.660987</ele>
        <time>2025-10-23T07:58:31Z</time>
      </trkpt>
      <trkpt lat="43.56833" lon="2.98418">
        <ele>172.665354</ele>
        <time>2025-10-23T07:58:32Z</time>
      </trkpt>
      <trkpt lat="43.56834" lon="2.9842">
        <ele>172.666617</ele>
        <time>2025-10-23T07:58:33Z</time>
      </trkpt>
      <trkpt lat="43.56835" lon="2.98419">
        <ele>172.667714</ele>
        <time>2025-10-23T07:58:34Z</time>
      </trkpt>
      <trkpt lat="43.56836" lon="2.98419">
        <ele>172.668848</ele>
        <time>2025-10-23T07:58:35Z</time>
      </trkpt>
      <trkpt lat="43.56836" lon="2.98419">
        <ele>172.66942</ele>
        <time>2025-10-23T07:58:36Z</time>
      </trkpt>
      <trkpt lat="43.56837" lon="2.98419">
        <ele>172.669991</ele>
        <time>2025-10-23T07:58:37Z</time>
      </trkpt>
      <trkpt lat="43.56837" lon="2.98419">
        <ele>172.670368</ele>
        <time>2025-10-23T07:58:38Z</time>
      </trkpt>
      <trkpt lat="43.56837" lon="2.98418">
        <ele>172.670787</ele>
        <time>2025-10-23T07:58:39Z</time>
      </trkpt>
      <trkpt lat="43.56837" lon="2.98418">
        <ele>172.671533</ele>
        <time>2025-10-23T07:58:40Z</time>
      </trkpt>
      <trkpt lat="43.56837" lon="2.98417">
        <ele>172.672353</ele>
        <time>2025-10-23T07:58:41Z</time>
      </trkpt>
      <trkpt lat="43.56837" lon="2.98415">
        <ele>172.673282</ele>
        <time>2025-10-23T07:58:42Z</time>
      </trkpt>
      <trkpt lat="43.56836" lon="2.98413">
        <ele>172.674983</ele>
        <time>2025-10-23T07:58:43Z</time>
      </trkpt>
      <trkpt lat="43.56836" lon="2.98411">
        <ele>172.676833</ele>
        <time>2025-10-23T07:58:44Z</time>
      </trkpt>
      <trkpt lat="43.56835" lon="2.98409">
        <ele>172.67888</ele>
        <time>2025-10-23T07:58:45Z</time>
      </trkpt>
      <trkpt lat="43.56835" lon="2.98407">
        <ele>172.680284</ele>
        <time>2025-10-23T07:58:46Z</time>
      </trkpt>
      <trkpt lat="43.56834" lon="2.98406">
        <ele>172.681402</ele>
        <time>2025-10-23T07:58:47Z</time>
      </trkpt>
      <trkpt lat="43.56834" lon="2.98405">
        <ele>172.682173</ele>
        <time>2025-10-23T07:58:48Z</time>
      </trkpt>
      <trkpt lat="43.56834" lon="2.98403">
        <ele>172.683753</ele>
        <time>2025-10-23T07:58:49Z</time>
      </trkpt>
      <trkpt lat="43.56833" lon="2.98402">
        <ele>172.685333</ele>
        <time>2025-10-23T07:58:50Z</time>
      </trkpt>
      <trkpt lat="43.56833" lon="2.984">
        <ele>172.686583</ele>
        <time>2025-10-23T07:58:51Z</time>
      </trkpt>
      <trkpt lat="43.56833" lon="2.98398">
        <ele>172.688522</ele>
        <time>2025-10-23T07:58:52Z</time>
      </trkpt>
      <trkpt lat="43.56832" lon="2.98396">
        <ele>172.690448</ele>
        <time>2025-10-23T07:58:53Z</time>
      </trkpt>
      <trkpt lat="43.56831" lon="2.98393">
        <ele>172.692452</ele>
        <time>2025-10-23T07:58:54Z</time>
      </trkpt>
      <trkpt lat="43.56831" lon="2.98391">
        <ele>172.694226</ele>
        <time>2025-10-23T07:58:55Z</time>
      </trkpt>
      <trkpt lat="43.5683" lon="2.98389">
        <ele>172.696152</ele>
        <time>2025-10-23T07:58:56Z</time>
      </trkpt>
      <trkpt lat="43.56829" lon="2.98386">
        <ele>172.698588</ele>
        <time>2025-10-23T07:58:57Z</time>
      </trkpt>
      <trkpt lat="43.56828" lon="2.98384">
        <ele>172.700803</ele>
        <time>2025-10-23T07:58:58Z</time>
      </trkpt>
      <trkpt lat="43.56828" lon="2.98381">
        <ele>172.703164</ele>
        <time>2025-10-23T07:58:59Z</time>
      </trkpt>
      <trkpt lat="43.56827" lon="2.98381">
        <ele>172.70403</ele>
        <time>2025-10-23T07:59:00Z</time>
      </trkpt>
      <trkpt lat="43.56827" lon="2.9838">
        <ele>172.704562</ele>
        <time>2025-10-23T07:59:01Z</time>
      </trkpt>
      <trkpt lat="43.56826" lon="2.98379">
        <ele>172.705558</ele>
        <time>2025-10-23T07:59:02Z</time>
      </trkpt>
      <trkpt lat="43.56826" lon="2.98378">
        <ele>172.706554</ele>
        <time>2025-10-23T07:59:03Z</time>
      </trkpt>
      <trkpt lat="43.56825" lon="2.98377">
        <ele>172.707359</ele>
        <time>2025-10-23T07:59:04Z</time>
      </trkpt>
      <trkpt lat="43.56825" lon="2.98377">
        <ele>172.708058</ele>
        <time>2025-10-23T07:59:05Z</time>
      </trkpt>
      <trkpt lat="43.56823" lon="2.98375">
        <ele>172.710514</ele>
        <time>2025-10-23T07:59:06Z</time>
      </trkpt>
      <trkpt lat="43.56826" lon="2.98381">
        <ele>172.716869</ele>
        <time>2025-10-23T07:59:07Z</time>
      </trkpt>
      <trkpt lat="43.56827" lon="2.98385">
        <ele>172.719725</ele>
        <time>2025-10-23T07:59:08Z</time>
      </trkpt>
      <trkpt lat="43.56826" lon="2.98383">
        <ele>172.721061</ele>
        <time>2025-10-23T07:59:09Z</time>
      </trkpt>
      <trkpt lat="43.56826" lon="2.98383">
        <ele>172.721514</ele>
        <time>2025-10-23T07:59:10Z</time>
      </trkpt>
      <trkpt lat="43.56828" lon="2.9839">
        <ele>172.72769</ele>
        <time>2025-10-23T07:59:11Z</time>
      </trkpt>
      <trkpt lat="43.5683" lon="2.98393">
        <ele>172.730087</ele>
        <time>2025-10-23T07:59:12Z</time>
      </trkpt>
      <trkpt lat="43.5683" lon="2.98392">
        <ele>172.730555</ele>
        <time>2025-10-23T07:59:13Z</time>
      </trkpt>
      <trkpt lat="43.56831" lon="2.98395">
        <ele>172.733238</ele>
        <time>2025-10-23T07:59:14Z</time>
      </trkpt>
      <trkpt lat="43.56832" lon="2.98398">
        <ele>172.735705</ele>
        <time>2025-10-23T07:59:15Z</time>
      </trkpt>
      <trkpt lat="43.56831" lon="2.98398">
        <ele>172.736103</ele>
        <time>2025-10-23T07:59:16Z</time>
      </trkpt>
      <trkpt lat="43.56832" lon="2.984">
        <ele>172.737514</ele>
        <time>2025-10-23T07:59:17Z</time>
      </trkpt>
      <trkpt lat="43.56831" lon="2.98399">
        <ele>172.738578</ele>
        <time>2025-10-23T07:59:18Z</time>
      </trkpt>
      <trkpt lat="43.5683" lon="2.98398">
        <ele>172.740394</ele>
        <time>2025-10-23T07:59:19Z</time>
      </trkpt>
      <trkpt lat="43.56831" lon="2.98401">
        <ele>172.743275</ele>
        <time>2025-10-23T07:59:20Z</time>
      </trkpt>
      <trkpt lat="43.56831" lon="2.984">
        <ele>172.742065</ele>
        <time>2025-10-23T07:59:21Z</time>
      </trkpt>
      <trkpt lat="43.5683" lon="2.98401">
        <ele>172.737875</ele>
        <time>2025-10-23T07:59:22Z</time>
      </trkpt>
      <trkpt lat="43.56829" lon="2.98402">
        <ele>172.732788</ele>
        <time>2025-10-23T07:59:23Z</time>
      </trkpt>
      <trkpt lat="43.56829" lon="2.98403">
        <ele>172.728208</ele>
        <time>2025-10-23T07:59:24Z</time>
      </trkpt>
      <trkpt lat="43.56831" lon="2.98405">
        <ele>172.721286</ele>
        <time>2025-10-23T07:59:25Z</time>
      </trkpt>
      <trkpt lat="43.56829" lon="2.98408">
        <ele>172.710387</ele>
        <time>2025-10-23T07:59:26Z</time>
      </trkpt>
      <trkpt lat="43.5683" lon="2.98408">
        <ele>172.707443</ele>
        <time>2025-10-23T07:59:27Z</time>
      </trkpt>
      <trkpt lat="43.5683" lon="2.98409">
        <ele>172.703698</ele>
        <time>2025-10-23T07:59:28Z</time>
      </trkpt>
      <trkpt lat="43.56831" lon="2.98411">
        <ele>172.6994</ele>
        <time>2025-10-23T07:59:29Z</time>
      </trkpt>
      <trkpt lat="43.56831" lon="2.98411">
        <ele>172.697325</ele>
        <time>2025-10-23T07:59:30Z</time>
      </trkpt>
      <trkpt lat="43.56832" lon="2.98412">
        <ele>172.694543</ele>
        <time>2025-10-23T07:59:31Z</time>
      </trkpt>
      <trkpt lat="43.56832" lon="2.98412">
        <ele>172.694543</ele>
        <time>2025-10-23T07:59:33Z</time>
      </trkpt>
      <trkpt lat="43.56832" lon="2.98412">
        <ele>172.694543</ele>
        <time>2025-10-23T07:59:35Z</time>
      </trkpt>
      <trkpt lat="43.56832" lon="2.98412">
        <ele>172.694543</ele>
        <time>2025-10-23T07:59:37Z</time>
      </trkpt>
      <trkpt lat="43.56832" lon="2.98412">
        <ele>172.694543</ele>
        <time>2025-10-23T07:59:39Z</time>
      </trkpt>
      <trkpt lat="43.56832" lon="2.98412">
        <ele>172.694543</ele>
        <time>2025-10-23T07:59:44Z</time>
      </trkpt>
      <trkpt lat="43.56832" lon="2.98412">
        <ele>172.694543</ele>
        <time>2025-10-23T07:59:53Z</time>
      </trkpt>
      <trkpt lat="43.56832" lon="2.98412">
        <ele>172.694543</ele>
        <time>2025-10-23T07:59:56Z</time>
      </trkpt>
      <trkpt lat="43.56832" lon="2.98412">
        <ele>172.694543</ele>
        <time>2025-10-23T08:00:00Z</time>
      </trkpt>
      <trkpt lat="43.56832" lon="2.98412">
        <ele>172.694543</ele>
        <time>2025-10-23T08:00:03Z</time>
      </trkpt>
      <trkpt lat="43.56832" lon="2.98412">
        <ele>172.694543</ele>
        <time>2025-10-23T08:00:16Z</time>
      </trkpt>
      <trkpt lat="43.56832" lon="2.98412">
        <ele>172.694543</ele>
        <time>2025-10-23T08:00:19Z</time>
      </trkpt>
      <trkpt lat="43.56914" lon="2.98722">
        <ele>171.855825</ele>
        <time>2025-10-23T08:00:23Z</time>
      </trkpt>
      <trkpt lat="43.56919" lon="2.98722">
        <ele>171.846196</ele>
        <time>2025-10-23T08:00:24Z</time>
      </trkpt>
      <trkpt lat="43.56924" lon="2.98727">
        <ele>171.83575</ele>
        <time>2025-10-23T08:00:25Z</time>
      </trkpt>
      <trkpt lat="43.56929" lon="2.98731">
        <ele>171.824552</ele>
        <time>2025-10-23T08:00:26Z</time>
      </trkpt>
      <trkpt lat="43.56933" lon="2.98735">
        <ele>171.815379</ele>
        <time>2025-10-23T08:00:27Z</time>
      </trkpt>
      <trkpt lat="43.56938" lon="2.9874">
        <ele>171.803374</ele>
        <time>2025-10-23T08:00:28Z</time>
      </trkpt>
      <trkpt lat="43.56944" lon="2.98747">
        <ele>171.790286</ele>
        <time>2025-10-23T08:00:29Z</time>
      </trkpt>
      <trkpt lat="43.56949" lon="2.98753">
        <ele>171.777572</ele>
        <time>2025-10-23T08:00:30Z</time>
      </trkpt>
      <trkpt lat="43.56953" lon="2.98759">
        <ele>171.76599</ele>
        <time>2025-10-23T08:00:31Z</time>
      </trkpt>
      <trkpt lat="43.56957" lon="2.98764">
        <ele>171.755863</ele>
        <time>2025-10-23T08:00:32Z</time>
      </trkpt>
      <trkpt lat="43.56962" lon="2.9877">
        <ele>171.744239</ele>
        <time>2025-10-23T08:00:33Z</time>
      </trkpt>
      <trkpt lat="43.56967" lon="2.98776">
        <ele>171.731797</ele>
        <time>2025-10-23T08:00:34Z</time>
      </trkpt>
      <trkpt lat="43.56971" lon="2.98782">
        <ele>171.720531</ele>
        <time>2025-10-23T08:00:35Z</time>
      </trkpt>
      <trkpt lat="43.56976" lon="2.98787">
        <ele>171.709814</ele>
        <time>2025-10-23T08:00:36Z</time>
      </trkpt>
      <trkpt lat="43.5698" lon="2.98793">
        <ele>171.699005</ele>
        <time>2025-10-23T08:00:37Z</time>
      </trkpt>
      <trkpt lat="43.56984" lon="2.98797">
        <ele>171.69009</ele>
        <time>2025-10-23T08:00:38Z</time>
      </trkpt>
      <trkpt lat="43.56988" lon="2.98801">
        <ele>171.680734</ele>
        <time>2025-10-23T08:00:39Z</time>
      </trkpt>
      <trkpt lat="43.56991" lon="2.98807">
        <ele>171.670316</ele>
        <time>2025-10-23T08:00:40Z</time>
      </trkpt>
      <trkpt lat="43.56996" lon="2.98812">
        <ele>171.659506</ele>
        <time>2025-10-23T08:00:41Z</time>
      </trkpt>
      <trkpt lat="43.57" lon="2.98818">
        <ele>171.649394</ele>
        <time>2025-10-23T08:00:42Z</time>
      </trkpt>
      <trkpt lat="43.57005" lon="2.98824">
        <ele>171.640087</ele>
        <time>2025-10-23T08:00:43Z</time>
      </trkpt>
      <trkpt lat="43.57009" lon="2.9883">
        <ele>171.630358</ele>
        <time>2025-10-23T08:00:44Z</time>
      </trkpt>
      <trkpt lat="43.57014" lon="2.98836">
        <ele>171.620938</ele>
        <time>2025-10-23T08:00:45Z</time>
      </trkpt>
      <trkpt lat="43.57019" lon="2.98841">
        <ele>171.611404</ele>
        <time>2025-10-23T08:00:46Z</time>
      </trkpt>
      <trkpt lat="43.57023" lon="2.98846">
        <ele>171.601638</ele>
        <time>2025-10-23T08:00:47Z</time>
      </trkpt>
      <trkpt lat="43.57028" lon="2.98852">
        <ele>171.592176</ele>
        <time>2025-10-23T08:00:48Z</time>
      </trkpt>
      <trkpt lat="43.57032" lon="2.98858">
        <ele>171.583227</ele>
        <time>2025-10-23T08:00:49Z</time>
      </trkpt>
      <trkpt lat="43.57036" lon="2.98864">
        <ele>171.574116</ele>
        <time>2025-10-23T08:00:50Z</time>
      </trkpt>
      <trkpt lat="43.5704" lon="2.9887">
        <ele>171.564941</ele>
        <time>2025-10-23T08:00:51Z</time>
      </trkpt>
      <trkpt lat="43.57044" lon="2.98876">
        <ele>171.555537</ele>
        <time>2025-10-23T08:00:52Z</time>
      </trkpt>
      <trkpt lat="43.57048" lon="2.98883">
        <ele>171.54565</ele>
        <time>2025-10-23T08:00:53Z</time>
      </trkpt>
      <trkpt lat="43.57053" lon="2.98889">
        <ele>171.535604</ele>
        <time>2025-10-23T08:00:54Z</time>
      </trkpt>
      <trkpt lat="43.57057" lon="2.98896">
        <ele>171.525768</ele>
        <time>2025-10-23T08:00:55Z</time>
      </trkpt>
      <trkpt lat="43.57061" lon="2.98902">
        <ele>171.516177</ele>
        <time>2025-10-23T08:00:56Z</time>
      </trkpt>
      <trkpt lat="43.57066" lon="2.98908">
        <ele>171.507041</ele>
        <time>2025-10-23T08:00:57Z</time>
      </trkpt>
      <trkpt lat="43.5707" lon="2.98913">
        <ele>171.498253</ele>
        <time>2025-10-23T08:00:58Z</time>
      </trkpt>
      <trkpt lat="43.57074" lon="2.98919">
        <ele>171.489246</ele>
        <time>2025-10-23T08:00:59Z</time>
      </trkpt>
      <trkpt lat="43.57078" lon="2.98925">
        <ele>171.480485</ele>
        <time>2025-10-23T08:01:00Z</time>
      </trkpt>
      <trkpt lat="43.57081" lon="2.98931">
        <ele>171.471519</ele>
        <time>2025-10-23T08:01:01Z</time>
      </trkpt>
      <trkpt lat="43.57085" lon="2.98937">
        <ele>171.463007</ele>
        <time>2025-10-23T08:01:02Z</time>
      </trkpt>
      <trkpt lat="43.57088" lon="2.98943">
        <ele>171.454572</ele>
        <time>2025-10-23T08:01:03Z</time>
      </trkpt>
      <trkpt lat="43.57092" lon="2.98949">
        <ele>171.445866</ele>
        <time>2025-10-23T08:01:04Z</time>
      </trkpt>
      <trkpt lat="43.57095" lon="2.98955">
        <ele>171.43689</ele>
        <time>2025-10-23T08:01:05Z</time>
      </trkpt>
      <trkpt lat="43.57099" lon="2.98962">
        <ele>171.42784</ele>
        <time>2025-10-23T08:01:06Z</time>
      </trkpt>
      <trkpt lat="43.57102" lon="2.98969">
        <ele>171.418034</ele>
        <time>2025-10-23T08:01:07Z</time>
      </trkpt>
      <trkpt lat="43.57105" lon="2.98977">
        <ele>171.407822</ele>
        <time>2025-10-23T08:01:08Z</time>
      </trkpt>
      <trkpt lat="43.57108" lon="2.98985">
        <ele>171.397826</ele>
        <time>2025-10-23T08:01:09Z</time>
      </trkpt>
      <trkpt lat="43.57111" lon="2.98993">
        <ele>171.387786</ele>
        <time>2025-10-23T08:01:10Z</time>
      </trkpt>
      <trkpt lat="43.57115" lon="2.99">
        <ele>171.37806</ele>
        <time>2025-10-23T08:01:11Z</time>
      </trkpt>
      <trkpt lat="43.57117" lon="2.99008">
        <ele>171.387338</ele>
        <time>2025-10-23T08:01:12Z</time>
      </trkpt>
      <trkpt lat="43.57119" lon="2.99014">
        <ele>171.395698</ele>
        <time>2025-10-23T08:01:13Z</time>
      </trkpt>
      <trkpt lat="43.57122" lon="2.99022">
        <ele>171.406051</ele>
        <time>2025-10-23T08:01:14Z</time>
      </trkpt>
      <trkpt lat="43.57125" lon="2.99029">
        <ele>171.416546</ele>
        <time>2025-10-23T08:01:15Z</time>
      </trkpt>
      <trkpt lat="43.57128" lon="2.99036">
        <ele>171.426937</ele>
        <time>2025-10-23T08:01:16Z</time>
      </trkpt>
      <trkpt lat="43.57131" lon="2.99044">
        <ele>171.437032</ele>
        <time>2025-10-23T08:01:17Z</time>
      </trkpt>
      <trkpt lat="43.57134" lon="2.99051">
        <ele>171.446689</ele>
        <time>2025-10-23T08:01:18Z</time>
      </trkpt>
      <trkpt lat="43.57136" lon="2.99057">
        <ele>171.455759</ele>
        <time>2025-10-23T08:01:19Z</time>
      </trkpt>
      <trkpt lat="43.57139" lon="2.99064">
        <ele>171.4653</ele>
        <time>2025-10-23T08:01:20Z</time>
      </trkpt>
      <trkpt lat="43.5714" lon="2.99072">
        <ele>171.474307</ele>
        <time>2025-10-23T08:01:21Z</time>
      </trkpt>
      <trkpt lat="43.57142" lon="2.99078">
        <ele>171.482498</ele>
        <time>2025-10-23T08:01:22Z</time>
      </trkpt>
      <trkpt lat="43.57144" lon="2.99085">
        <ele>171.491791</ele>
        <time>2025-10-23T08:01:23Z</time>
      </trkpt>
      <trkpt lat="43.57146" lon="2.99092">
        <ele>171.501066</ele>
        <time>2025-10-23T08:01:24Z</time>
      </trkpt>
      <trkpt lat="43.57148" lon="2.991">
        <ele>171.510858</ele>
        <time>2025-10-23T08:01:25Z</time>
      </trkpt>
      <trkpt lat="43.5715" lon="2.99106">
        <ele>171.51956</ele>
        <time>2025-10-23T08:01:26Z</time>
      </trkpt>
      <trkpt lat="43.57152" lon="2.99114">
        <ele>171.528951</ele>
        <time>2025-10-23T08:01:27Z</time>
      </trkpt>
      <trkpt lat="43.57154" lon="2.99121">
        <ele>171.539041</ele>
        <time>2025-10-23T08:01:28Z</time>
      </trkpt>
      <trkpt lat="43.57157" lon="2.99129">
        <ele>171.549184</ele>
        <time>2025-10-23T08:01:29Z</time>
      </trkpt>
      <trkpt lat="43.57159" lon="2.99137">
        <ele>171.560121</ele>
        <time>2025-10-23T08:01:30Z</time>
      </trkpt>
      <trkpt lat="43.57161" lon="2.99145">
        <ele>171.57077</ele>
        <time>2025-10-23T08:01:31Z</time>
      </trkpt>
      <trkpt lat="43.57164" lon="2.99153">
        <ele>171.581407</ele>
        <time>2025-10-23T08:01:32Z</time>
      </trkpt>
      <trkpt lat="43.57166" lon="2.99161">
        <ele>171.591213</ele>
        <time>2025-10-23T08:01:33Z</time>
      </trkpt>
      <trkpt lat="43.57168" lon="2.99167">
        <ele>171.599975</ele>
        <time>2025-10-23T08:01:34Z</time>
      </trkpt>
      <trkpt lat="43.5717" lon="2.99174">
        <ele>171.609231</ele>
        <time>2025-10-23T08:01:35Z</time>
      </trkpt>
      <trkpt lat="43.57172" lon="2.99182">
        <ele>171.619593</ele>
        <time>2025-10-23T08:01:36Z</time>
      </trkpt>
      <trkpt lat="43.57175" lon="2.99191">
        <ele>171.6307</ele>
        <time>2025-10-23T08:01:37Z</time>
      </trkpt>
      <trkpt lat="43.57177" lon="2.99199">
        <ele>171.641983</ele>
        <time>2025-10-23T08:01:38Z</time>
      </trkpt>
      <trkpt lat="43.57179" lon="2.99208">
        <ele>171.653033</ele>
        <time>2025-10-23T08:01:39Z</time>
      </trkpt>
      <trkpt lat="43.57181" lon="2.99216">
        <ele>171.663796</ele>
        <time>2025-10-23T08:01:40Z</time>
      </trkpt>
      <trkpt lat="43.57183" lon="2.99224">
        <ele>171.674103</ele>
        <time>2025-10-23T08:01:41Z</time>
      </trkpt>
      <trkpt lat="43.57186" lon="2.99232">
        <ele>171.662064</ele>
        <time>2025-10-23T08:01:42Z</time>
      </trkpt>
      <trkpt lat="43.57188" lon="2.99239">
        <ele>171.616761</ele>
        <time>2025-10-23T08:01:43Z</time>
      </trkpt>
      <trkpt lat="43.5719" lon="2.99246">
        <ele>171.572273</ele>
        <time>2025-10-23T08:01:44Z</time>
      </trkpt>
      <trkpt lat="43.57192" lon="2.99253">
        <ele>171.52794</ele>
        <time>2025-10-23T08:01:45Z</time>
      </trkpt>
      <trkpt lat="43.57194" lon="2.99261">
        <ele>171.480362</ele>
        <time>2025-10-23T08:01:46Z</time>
      </trkpt>
      <trkpt lat="43.57197" lon="2.99268">
        <ele>171.434766</ele>
        <time>2025-10-23T08:01:47Z</time>
      </trkpt>
      <trkpt lat="43.57199" lon="2.99275">
        <ele>171.393986</ele>
        <time>2025-10-23T08:01:48Z</time>
      </trkpt>
      <trkpt lat="43.57201" lon="2.99282">
        <ele>171.352973</ele>
        <time>2025-10-23T08:01:49Z</time>
      </trkpt>
      <trkpt lat="43.57203" lon="2.99288">
        <ele>171.314899</ele>
        <time>2025-10-23T08:01:50Z</time>
      </trkpt>
      <trkpt lat="43.57205" lon="2.99294">
        <ele>171.272446</ele>
        <time>2025-10-23T08:01:51Z</time>
      </trkpt>
      <trkpt lat="43.57209" lon="2.99302">
        <ele>171.223321</ele>
        <time>2025-10-23T08:01:52Z</time>
      </trkpt>
      <trkpt lat="43.57212" lon="2.99309">
        <ele>171.176068</ele>
        <time>2025-10-23T08:01:53Z</time>
      </trkpt>
      <trkpt lat="43.57215" lon="2.99316">
        <ele>171.129788</ele>
        <time>2025-10-23T08:01:54Z</time>
      </trkpt>
      <trkpt lat="43.57218" lon="2.99323">
        <ele>171.08183</ele>
        <time>2025-10-23T08:01:55Z</time>
      </trkpt>
      <trkpt lat="43.57221" lon="2.9933">
        <ele>171.034166</ele>
        <time>2025-10-23T08:01:56Z</time>
      </trkpt>
      <trkpt lat="43.57225" lon="2.99337">
        <ele>170.983849</ele>
        <time>2025-10-23T08:01:57Z</time>
      </trkpt>
      <trkpt lat="43.57228" lon="2.99344">
        <ele>170.935336</ele>
        <time>2025-10-23T08:01:58Z</time>
      </trkpt>
      <trkpt lat="43.57232" lon="2.99351">
        <ele>170.885848</ele>
        <time>2025-10-23T08:01:59Z</time>
      </trkpt>
      <trkpt lat="43.57236" lon="2.99358">
        <ele>170.834609</ele>
        <time>2025-10-23T08:02:00Z</time>
      </trkpt>
      <trkpt lat="43.5724" lon="2.99365">
        <ele>170.78379</ele>
        <time>2025-10-23T08:02:01Z</time>
      </trkpt>
      <trkpt lat="43.57244" lon="2.99372">
        <ele>170.732855</ele>
        <time>2025-10-23T08:02:02Z</time>
      </trkpt>
      <trkpt lat="43.57248" lon="2.99379">
        <ele>170.682781</ele>
        <time>2025-10-23T08:02:03Z</time>
      </trkpt>
      <trkpt lat="43.57252" lon="2.99386">
        <ele>170.632464</ele>
        <time>2025-10-23T08:02:04Z</time>
      </trkpt>
      <trkpt lat="43.57256" lon="2.99393">
        <ele>170.583988</ele>
        <time>2025-10-23T08:02:05Z</time>
      </trkpt>
      <trkpt lat="43.57259" lon="2.994">
        <ele>170.535056</ele>
        <time>2025-10-23T08:02:06Z</time>
      </trkpt>
      <trkpt lat="43.57263" lon="2.99407">
        <ele>170.485664</ele>
        <time>2025-10-23T08:02:07Z</time>
      </trkpt>
      <trkpt lat="43.57267" lon="2.99413">
        <ele>170.439965</ele>
        <time>2025-10-23T08:02:08Z</time>
      </trkpt>
      <trkpt lat="43.5727" lon="2.99419">
        <ele>170.395162</ele>
        <time>2025-10-23T08:02:09Z</time>
      </trkpt>
      <trkpt lat="43.57273" lon="2.99426">
        <ele>170.348066</ele>
        <time>2025-10-23T08:02:10Z</time>
      </trkpt>
      <trkpt lat="43.57277" lon="2.99433">
        <ele>170.298629</ele>
        <time>2025-10-23T08:02:11Z</time>
      </trkpt>
      <trkpt lat="43.57281" lon="2.9944">
        <ele>170.251168</ele>
        <time>2025-10-23T08:02:12Z</time>
      </trkpt>
      <trkpt lat="43.57286" lon="2.99446">
        <ele>170.213334</ele>
        <time>2025-10-23T08:02:13Z</time>
      </trkpt>
      <trkpt lat="43.57289" lon="2.99454">
        <ele>170.17569</ele>
        <time>2025-10-23T08:02:14Z</time>
      </trkpt>
      <trkpt lat="43.57293" lon="2.9946">
        <ele>170.139809</ele>
        <time>2025-10-23T08:02:15Z</time>
      </trkpt>
      <trkpt lat="43.57297" lon="2.99468">
        <ele>170.10005</ele>
        <time>2025-10-23T08:02:16Z</time>
      </trkpt>
      <trkpt lat="43.57301" lon="2.99474">
        <ele>170.061663</ele>
        <time>2025-10-23T08:02:17Z</time>
      </trkpt>
      <trkpt lat="43.57305" lon="2.99481">
        <ele>170.024667</ele>
        <time>2025-10-23T08:02:18Z</time>
      </trkpt>
      <trkpt lat="43.57309" lon="2.99488">
        <ele>169.98767</ele>
        <time>2025-10-23T08:02:19Z</time>
      </trkpt>
      <trkpt lat="43.57312" lon="2.99494">
        <ele>169.952811</ele>
        <time>2025-10-23T08:02:20Z</time>
      </trkpt>
      <trkpt lat="43.57315" lon="2.99501">
        <ele>169.91693</ele>
        <time>2025-10-23T08:02:21Z</time>
      </trkpt>
      <trkpt lat="43.57319" lon="2.99507">
        <ele>169.880144</ele>
        <time>2025-10-23T08:02:22Z</time>
      </trkpt>
      <trkpt lat="43.57323" lon="2.99514">
        <ele>169.842855</ele>
        <time>2025-10-23T08:02:23Z</time>
      </trkpt>
      <trkpt lat="43.57327" lon="2.99521">
        <ele>169.805913</ele>
        <time>2025-10-23T08:02:24Z</time>
      </trkpt>
      <trkpt lat="43.57331" lon="2.99528">
        <ele>169.769293</ele>
        <time>2025-10-23T08:02:25Z</time>
      </trkpt>
      <trkpt lat="43.57334" lon="2.99535">
        <ele>169.732357</ele>
        <time>2025-10-23T08:02:26Z</time>
      </trkpt>
      <trkpt lat="43.57338" lon="2.99542">
        <ele>169.691165</ele>
        <time>2025-10-23T08:02:27Z</time>
      </trkpt>
      <trkpt lat="43.57342" lon="2.9955">
        <ele>169.651063</ele>
        <time>2025-10-23T08:02:28Z</time>
      </trkpt>
      <trkpt lat="43.57346" lon="2.99558">
        <ele>169.609203</ele>
        <time>2025-10-23T08:02:29Z</time>
      </trkpt>
      <trkpt lat="43.5735" lon="2.99566">
        <ele>169.568704</ele>
        <time>2025-10-23T08:02:30Z</time>
      </trkpt>
      <trkpt lat="43.57353" lon="2.99573">
        <ele>169.527841</ele>
        <time>2025-10-23T08:02:31Z</time>
      </trkpt>
      <trkpt lat="43.57357" lon="2.9958">
        <ele>169.490905</ele>
        <time>2025-10-23T08:02:32Z</time>
      </trkpt>
      <trkpt lat="43.5736" lon="2.99587">
        <ele>169.455376</ele>
        <time>2025-10-23T08:02:33Z</time>
      </trkpt>
      <trkpt lat="43.57364" lon="2.99594">
        <ele>169.419142</ele>
        <time>2025-10-23T08:02:34Z</time>
      </trkpt>
      <trkpt lat="43.57367" lon="2.996">
        <ele>169.384668</ele>
        <time>2025-10-23T08:02:35Z</time>
      </trkpt>
      <trkpt lat="43.57371" lon="2.99606">
        <ele>169.349472</ele>
        <time>2025-10-23T08:02:36Z</time>
      </trkpt>
      <trkpt lat="43.57375" lon="2.99613">
        <ele>169.313144</ele>
        <time>2025-10-23T08:02:37Z</time>
      </trkpt>
      <trkpt lat="43.57379" lon="2.9962">
        <ele>169.276203</ele>
        <time>2025-10-23T08:02:38Z</time>
      </trkpt>
      <trkpt lat="43.57382" lon="2.99627">
        <ele>169.238914</ele>
        <time>2025-10-23T08:02:39Z</time>
      </trkpt>
      <trkpt lat="43.57386" lon="2.99634">
        <ele>169.201275</ele>
        <time>2025-10-23T08:02:40Z</time>
      </trkpt>
      <trkpt lat="43.5739" lon="2.99641">
        <ele>169.180948</ele>
        <time>2025-10-23T08:02:41Z</time>
      </trkpt>
      <trkpt lat="43.57393" lon="2.99648">
        <ele>169.1722</ele>
        <time>2025-10-23T08:02:42Z</time>
      </trkpt>
      <trkpt lat="43.57397" lon="2.99656">
        <ele>169.163059</ele>
        <time>2025-10-23T08:02:43Z</time>
      </trkpt>
      <trkpt lat="43.574" lon="2.99663">
        <ele>169.154226</ele>
        <time>2025-10-23T08:02:44Z</time>
      </trkpt>
      <trkpt lat="43.57404" lon="2.99671">
        <ele>169.144851</ele>
        <time>2025-10-23T08:02:45Z</time>
      </trkpt>
      <trkpt lat="43.57407" lon="2.99679">
        <ele>169.13537</ele>
        <time>2025-10-23T08:02:46Z</time>
      </trkpt>
      <trkpt lat="43.57411" lon="2.99686">
        <ele>169.126481</ele>
        <time>2025-10-23T08:02:47Z</time>
      </trkpt>
      <trkpt lat="43.57415" lon="2.99694">
        <ele>169.11735</ele>
        <time>2025-10-23T08:02:48Z</time>
      </trkpt>
      <trkpt lat="43.57418" lon="2.99702">
        <ele>169.10817</ele>
        <time>2025-10-23T08:02:49Z</time>
      </trkpt>
      <trkpt lat="43.57422" lon="2.99709">
        <ele>169.098953</ele>
        <time>2025-10-23T08:02:50Z</time>
      </trkpt>
      <trkpt lat="43.57425" lon="2.99717">
        <ele>169.089727</ele>
        <time>2025-10-23T08:02:51Z</time>
      </trkpt>
      <trkpt lat="43.57429" lon="2.99724">
        <ele>169.080808</ele>
        <time>2025-10-23T08:02:52Z</time>
      </trkpt>
      <trkpt lat="43.57432" lon="2.99732">
        <ele>169.07173</ele>
        <time>2025-10-23T08:02:53Z</time>
      </trkpt>
      <trkpt lat="43.57435" lon="2.9974">
        <ele>169.063125</ele>
        <time>2025-10-23T08:02:54Z</time>
      </trkpt>
      <trkpt lat="43.57438" lon="2.99747">
        <ele>169.054785</ele>
        <time>2025-10-23T08:02:55Z</time>
      </trkpt>
      <trkpt lat="43.5744" lon="2.99754">
        <ele>169.046898</ele>
        <time>2025-10-23T08:02:56Z</time>
      </trkpt>
      <trkpt lat="43.57443" lon="2.9976">
        <ele>169.039643</ele>
        <time>2025-10-23T08:02:57Z</time>
      </trkpt>
      <trkpt lat="43.57445" lon="2.99768">
        <ele>169.031302</ele>
        <time>2025-10-23T08:02:58Z</time>
      </trkpt>
      <trkpt lat="43.57448" lon="2.99775">
        <ele>169.022898</ele>
        <time>2025-10-23T08:02:59Z</time>
      </trkpt>
      <trkpt lat="43.57451" lon="2.99782">
        <ele>169.014711</ele>
        <time>2025-10-23T08:03:00Z</time>
      </trkpt>
      <trkpt lat="43.57454" lon="2.99789">
        <ele>169.00661</ele>
        <time>2025-10-23T08:03:01Z</time>
      </trkpt>
      <trkpt lat="43.57457" lon="2.99796">
        <ele>168.998998</ele>
        <time>2025-10-23T08:03:02Z</time>
      </trkpt>
      <trkpt lat="43.5746" lon="2.99802">
        <ele>168.991321</ele>
        <time>2025-10-23T08:03:03Z</time>
      </trkpt>
      <trkpt lat="43.57462" lon="2.99809">
        <ele>168.983338</ele>
        <time>2025-10-23T08:03:04Z</time>
      </trkpt>
      <trkpt lat="43.57465" lon="2.99817">
        <ele>168.975112</ele>
        <time>2025-10-23T08:03:05Z</time>
      </trkpt>
      <trkpt lat="43.57468" lon="2.99823">
        <ele>168.967513</ele>
        <time>2025-10-23T08:03:06Z</time>
      </trkpt>
      <trkpt lat="43.57471" lon="2.99829">
        <ele>168.960746</ele>
        <time>2025-10-23T08:03:07Z</time>
      </trkpt>
      <trkpt lat="43.57473" lon="2.99833">
        <ele>168.955117</ele>
        <time>2025-10-23T08:03:08Z</time>
      </trkpt>
      <trkpt lat="43.57475" lon="2.99837">
        <ele>168.950714</ele>
        <time>2025-10-23T08:03:09Z</time>
      </trkpt>
      <trkpt lat="43.57476" lon="2.99838">
        <ele>168.948226</ele>
        <time>2025-10-23T08:03:10Z</time>
      </trkpt>
      <trkpt lat="43.57477" lon="2.99839">
        <ele>168.947492</ele>
        <time>2025-10-23T08:03:11Z</time>
      </trkpt>
      <trkpt lat="43.57476" lon="2.99839">
        <ele>168.946499</ele>
        <time>2025-10-23T08:03:12Z</time>
      </trkpt>
      <trkpt lat="43.57475" lon="2.99839">
        <ele>168.945797</ele>
        <time>2025-10-23T08:03:13Z</time>
      </trkpt>
      <trkpt lat="43.57476" lon="2.99839">
        <ele>168.945552</ele>
        <time>2025-10-23T08:03:14Z</time>
      </trkpt>
      <trkpt lat="43.57475" lon="2.99839">
        <ele>168.945274</ele>
        <time>2025-10-23T08:03:15Z</time>
      </trkpt>
      <trkpt lat="43.57475" lon="2.99839">
        <ele>168.945103</ele>
        <time>2025-10-23T08:03:16Z</time>
      </trkpt>
      <trkpt lat="43.57476" lon="2.99839">
        <ele>168.944858</ele>
        <time>2025-10-23T08:03:17Z</time>
      </trkpt>
      <trkpt lat="43.57476" lon="2.9984">
        <ele>168.944526</ele>
        <time>2025-10-23T08:03:18Z</time>
      </trkpt>
      <trkpt lat="43.57476" lon="2.99839">
        <ele>168.944182</ele>
        <time>2025-10-23T08:03:19Z</time>
      </trkpt>
      <trkpt lat="43.57476" lon="2.99839">
        <ele>168.944182</ele>
        <time>2025-10-23T08:03:20Z</time>
      </trkpt>
      <trkpt lat="43.57476" lon="2.99839">
        <ele>168.944043</ele>
        <time>2025-10-23T08:03:21Z</time>
      </trkpt>
      <trkpt lat="43.57476" lon="2.99839">
        <ele>168.943905</ele>
        <time>2025-10-23T08:03:22Z</time>
      </trkpt>
      <trkpt lat="43.57476" lon="2.99839">
        <ele>168.943905</ele>
        <time>2025-10-23T08:03:23Z</time>
      </trkpt>
      <trkpt lat="43.57476" lon="2.99839">
        <ele>168.943766</ele>
        <time>2025-10-23T08:03:24Z</time>
      </trkpt>
      <trkpt lat="43.57476" lon="2.99839">
        <ele>168.943766</ele>
        <time>2025-10-23T08:03:25Z</time>
      </trkpt>
      <trkpt lat="43.57476" lon="2.99839">
        <ele>168.943766</ele>
        <time>2025-10-23T08:03:26Z</time>
      </trkpt>
      <trkpt lat="43.57476" lon="2.99839">
        <ele>168.943766</ele>
        <time>2025-10-23T08:03:27Z</time>
      </trkpt>
      <trkpt lat="43.57476" lon="2.99839">
        <ele>168.943766</ele>
        <time>2025-10-23T08:03:28Z</time>
      </trkpt>
      <trkpt lat="43.57476" lon="2.99839">
        <ele>168.943766</ele>
        <time>2025-10-23T08:03:29Z</time>
      </trkpt>
      <trkpt lat="43.57476" lon="2.99839">
        <ele>168.943665</ele>
        <time>2025-10-23T08:03:30Z</time>
      </trkpt>
      <trkpt lat="43.57476" lon="2.99839">
        <ele>168.943665</ele>
        <time>2025-10-23T08:03:31Z</time>
      </trkpt>
      <trkpt lat="43.57476" lon="2.99839">
        <ele>168.943665</ele>
        <time>2025-10-23T08:03:32Z</time>
      </trkpt>
      <trkpt lat="43.57476" lon="2.99839">
        <ele>168.943665</ele>
        <time>2025-10-23T08:03:33Z</time>
      </trkpt>
      <trkpt lat="43.57476" lon="2.99839">
        <ele>168.943665</ele>
        <time>2025-10-23T08:03:34Z</time>
      </trkpt>
      <trkpt lat="43.57476" lon="2.99839">
        <ele>168.943665</ele>
        <time>2025-10-23T08:03:35Z</time>
      </trkpt>
      <trkpt lat="43.57476" lon="2.99839">
        <ele>168.943665</ele>
        <time>2025-10-23T08:03:36Z</time>
      </trkpt>
      <trkpt lat="43.57476" lon="2.99839">
        <ele>168.943665</ele>
        <time>2025-10-23T08:03:37Z</time>
      </trkpt>
      <trkpt lat="43.57476" lon="2.99839">
        <ele>168.943665</ele>
        <time>2025-10-23T08:03:38Z</time>
      </trkpt>
      <trkpt lat="43.57476" lon="2.99839">
        <ele>168.943665</ele>
        <time>2025-10-23T08:03:39Z</time>
      </trkpt>
      <trkpt lat="43.57476" lon="2.99839">
        <ele>168.943564</ele>
        <time>2025-10-23T08:03:41Z</time>
      </trkpt>
      <trkpt lat="43.57476" lon="2.99839">
        <ele>168.943425</ele>
        <time>2025-10-23T08:03:43Z</time>
      </trkpt>
      <trkpt lat="43.57476" lon="2.99839">
        <ele>168.943425</ele>
        <time>2025-10-23T08:03:44Z</time>
      </trkpt>
      <trkpt lat="43.57476" lon="2.99839">
        <ele>168.943425</ele>
        <time>2025-10-23T08:03:45Z</time>
      </trkpt>
      <trkpt lat="43.57476" lon="2.99839">
        <ele>168.943425</ele>
        <time>2025-10-23T08:03:46Z</time>
      </trkpt>
      <trkpt lat="43.57476" lon="2.99839">
        <ele>168.943425</ele>
        <time>2025-10-23T08:03:47Z</time>
      </trkpt>
      <trkpt lat="43.57476" lon="2.99839">
        <ele>168.943425</ele>
        <time>2025-10-23T08:03:48Z</time>
      </trkpt>
      <trkpt lat="43.57476" lon="2.99839">
        <ele>168.943425</ele>
        <time>2025-10-23T08:03:50Z</time>
      </trkpt>
      <trkpt lat="43.57476" lon="2.99839">
        <ele>168.943425</ele>
        <time>2025-10-23T08:03:51Z</time>
      </trkpt>
      <trkpt lat="43.57476" lon="2.99839">
        <ele>168.943425</ele>
        <time>2025-10-23T08:03:53Z</time>
      </trkpt>
      <trkpt lat="43.57476" lon="2.99839">
        <ele>168.943425</ele>
        <time>2025-10-23T08:03:54Z</time>
      </trkpt>
      <trkpt lat="43.57476" lon="2.99839">
        <ele>168.943425</ele>
        <time>2025-10-23T08:03:55Z</time>
      </trkpt>
      <trkpt lat="43.57476" lon="2.99839">
        <ele>168.943425</ele>
        <time>2025-10-23T08:03:57Z</time>
      </trkpt>
      <trkpt lat="43.57476" lon="2.99839">
        <ele>168.943425</ele>
        <time>2025-10-23T08:03:58Z</time>
      </trkpt>
      <trkpt lat="43.57476" lon="2.99839">
        <ele>168.943425</ele>
        <time>2025-10-23T08:03:59Z</time>
      </trkpt>
      <trkpt lat="43.57476" lon="2.99839">
        <ele>168.943425</ele>
        <time>2025-10-23T08:04:01Z</time>
      </trkpt>
      <trkpt lat="43.57476" lon="2.99839">
        <ele>168.943425</ele>
        <time>2025-10-23T08:04:03Z</time>
      </trkpt>
      <trkpt lat="43.57476" lon="2.99839">
        <ele>168.943425</ele>
        <time>2025-10-23T08:04:04Z</time>
      </trkpt>
      <trkpt lat="43.57476" lon="2.99839">
        <ele>168.943425</ele>
        <time>2025-10-23T08:04:08Z</time>
      </trkpt>
      <trkpt lat="43.57476" lon="2.99839">
        <ele>168.943425</ele>
        <time>2025-10-23T08:04:09Z</time>
      </trkpt>
      <trkpt lat="43.57476" lon="2.99839">
        <ele>168.943425</ele>
        <time>2025-10-23T08:04:10Z</time>
      </trkpt>
      <trkpt lat="43.57476" lon="2.99839">
        <ele>168.943425</ele>
        <time>2025-10-23T08:04:11Z</time>
      </trkpt>
      <trkpt lat="43.57476" lon="2.99839">
        <ele>168.943425</ele>
        <time>2025-10-23T08:04:13Z</time>
      </trkpt>
      <trkpt lat="43.57476" lon="2.99839">
        <ele>168.943425</ele>
        <time>2025-10-23T08:04:14Z</time>
      </trkpt>
      <trkpt lat="43.57476" lon="2.99839">
        <ele>168.943425</ele>
        <time>2025-10-23T08:04:15Z</time>
      </trkpt>
      <trkpt lat="43.57476" lon="2.99839">
        <ele>168.943425</ele>
        <time>2025-10-23T08:04:16Z</time>
      </trkpt>
      <trkpt lat="43.57476" lon="2.99839">
        <ele>168.943425</ele>
        <time>2025-10-23T08:04:17Z</time>
      </trkpt>
      <trkpt lat="43.57476" lon="2.99839">
        <ele>168.943425</ele>
        <time>2025-10-23T08:04:19Z</time>
      </trkpt>
      <trkpt lat="43.57476" lon="2.99839">
        <ele>168.943425</ele>
        <time>2025-10-23T08:04:20Z</time>
      </trkpt>
      <trkpt lat="43.57476" lon="2.99839">
        <ele>168.943425</ele>
        <time>2025-10-23T08:04:21Z</time>
      </trkpt>
      <trkpt lat="43.57476" lon="2.99839">
        <ele>168.943425</ele>
        <time>2025-10-23T08:04:23Z</time>
      </trkpt>
      <trkpt lat="43.57476" lon="2.99839">
        <ele>168.943425</ele>
        <time>2025-10-23T08:04:26Z</time>
      </trkpt>
      <trkpt lat="43.57476" lon="2.99839">
        <ele>168.943425</ele>
        <time>2025-10-23T08:04:27Z</time>
      </trkpt>
      <trkpt lat="43.57476" lon="2.99839">
        <ele>168.943425</ele>
        <time>2025-10-23T08:04:28Z</time>
      </trkpt>
      <trkpt lat="43.57476" lon="2.99839">
        <ele>168.943425</ele>
        <time>2025-10-23T08:04:29Z</time>
      </trkpt>
      <trkpt lat="43.57476" lon="2.99839">
        <ele>168.943425</ele>
        <time>2025-10-23T08:04:30Z</time>
      </trkpt>
      <trkpt lat="43.57476" lon="2.99839">
        <ele>168.943425</ele>
        <time>2025-10-23T08:04:31Z</time>
      </trkpt>
      <trkpt lat="43.57476" lon="2.99839">
        <ele>168.943425</ele>
        <time>2025-10-23T08:04:32Z</time>
      </trkpt>
      <trkpt lat="43.57476" lon="2.99839">
        <ele>168.943254</ele>
        <time>2025-10-23T08:04:33Z</time>
      </trkpt>
      <trkpt lat="43.57476" lon="2.99839">
        <ele>168.943254</ele>
        <time>2025-10-23T08:04:34Z</time>
      </trkpt>
      <trkpt lat="43.57476" lon="2.99839">
        <ele>168.943082</ele>
        <time>2025-10-23T08:04:35Z</time>
      </trkpt>
      <trkpt lat="43.57476" lon="2.99839">
        <ele>168.943082</ele>
        <time>2025-10-23T08:04:36Z</time>
      </trkpt>
      <trkpt lat="43.57476" lon="2.99839">
        <ele>168.942981</ele>
        <time>2025-10-23T08:04:37Z</time>
      </trkpt>
      <trkpt lat="43.57476" lon="2.99839">
        <ele>168.942981</ele>
        <time>2025-10-23T08:04:38Z</time>
      </trkpt>
      <trkpt lat="43.57476" lon="2.99839">
        <ele>168.942981</ele>
        <time>2025-10-23T08:04:39Z</time>
      </trkpt>
      <trkpt lat="43.57476" lon="2.99839">
        <ele>168.942981</ele>
        <time>2025-10-23T08:04:40Z</time>
      </trkpt>
      <trkpt lat="43.57476" lon="2.99839">
        <ele>168.942843</ele>
        <time>2025-10-23T08:04:41Z</time>
      </trkpt>
      <trkpt lat="43.57476" lon="2.99839">
        <ele>168.942843</ele>
        <time>2025-10-23T08:04:42Z</time>
      </trkpt>
      <trkpt lat="43.57476" lon="2.99839">
        <ele>168.942843</ele>
        <time>2025-10-23T08:04:43Z</time>
      </trkpt>
      <trkpt lat="43.57476" lon="2.99839">
        <ele>168.942843</ele>
        <time>2025-10-23T08:04:44Z</time>
      </trkpt>
      <trkpt lat="43.57476" lon="2.99839">
        <ele>168.942704</ele>
        <time>2025-10-23T08:04:45Z</time>
      </trkpt>
      <trkpt lat="43.57476" lon="2.99839">
        <ele>168.942532</ele>
        <time>2025-10-23T08:04:46Z</time>
      </trkpt>
      <trkpt lat="43.57477" lon="2.99841">
        <ele>168.941064</ele>
        <time>2025-10-23T08:04:47Z</time>
      </trkpt>
      <trkpt lat="43.57477" lon="2.99842">
        <ele>168.939948</ele>
        <time>2025-10-23T08:04:48Z</time>
      </trkpt>
      <trkpt lat="43.57477" lon="2.99842">
        <ele>168.939546</ele>
        <time>2025-10-23T08:04:49Z</time>
      </trkpt>
      <trkpt lat="43.57477" lon="2.99842">
        <ele>168.939445</ele>
        <time>2025-10-23T08:04:50Z</time>
      </trkpt>
      <trkpt lat="43.57477" lon="2.99842">
        <ele>168.939445</ele>
        <time>2025-10-23T08:04:51Z</time>
      </trkpt>
      <trkpt lat="43.57477" lon="2.99842">
        <ele>168.939273</ele>
        <time>2025-10-23T08:04:52Z</time>
      </trkpt>
      <trkpt lat="43.57477" lon="2.99842">
        <ele>168.939273</ele>
        <time>2025-10-23T08:04:53Z</time>
      </trkpt>
      <trkpt lat="43.57477" lon="2.99843">
        <ele>168.938555</ele>
        <time>2025-10-23T08:04:54Z</time>
      </trkpt>
      <trkpt lat="43.57477" lon="2.99845">
        <ele>168.938729</ele>
        <time>2025-10-23T08:04:55Z</time>
      </trkpt>
      <trkpt lat="43.57478" lon="2.99848">
        <ele>168.955771</ele>
        <time>2025-10-23T08:04:56Z</time>
      </trkpt>
      <trkpt lat="43.57479" lon="2.99851">
        <ele>168.973628</ele>
        <time>2025-10-23T08:04:57Z</time>
      </trkpt>
      <trkpt lat="43.5748" lon="2.99854">
        <ele>168.993764</ele>
        <time>2025-10-23T08:04:58Z</time>
      </trkpt>
      <trkpt lat="43.57481" lon="2.99858">
        <ele>169.015858</ele>
        <time>2025-10-23T08:04:59Z</time>
      </trkpt>
      <trkpt lat="43.57483" lon="2.99862">
        <ele>169.04104</ele>
        <time>2025-10-23T08:05:00Z</time>
      </trkpt>
      <trkpt lat="43.57484" lon="2.99867">
        <ele>169.068632</ele>
        <time>2025-10-23T08:05:01Z</time>
      </trkpt>
      <trkpt lat="43.57486" lon="2.99872">
        <ele>169.096899</ele>
        <time>2025-10-23T08:05:02Z</time>
      </trkpt>
      <trkpt lat="43.57488" lon="2.99877">
        <ele>169.12791</ele>
        <time>2025-10-23T08:05:03Z</time>
      </trkpt>
      <trkpt lat="43.5749" lon="2.99882">
        <ele>169.16094</ele>
        <time>2025-10-23T08:05:04Z</time>
      </trkpt>
      <trkpt lat="43.57492" lon="2.99887">
        <ele>169.19195</ele>
        <time>2025-10-23T08:05:05Z</time>
      </trkpt>
      <trkpt lat="43.57494" lon="2.99893">
        <ele>169.224783</ele>
        <time>2025-10-23T08:05:06Z</time>
      </trkpt>
      <trkpt lat="43.57495" lon="2.99898">
        <ele>169.256925</ele>
        <time>2025-10-23T08:05:07Z</time>
      </trkpt>
      <trkpt lat="43.57497" lon="2.99904">
        <ele>169.291542</ele>
        <time>2025-10-23T08:05:08Z</time>
      </trkpt>
      <trkpt lat="43.57499" lon="2.9991">
        <ele>169.326884</ele>
        <time>2025-10-23T08:05:09Z</time>
      </trkpt>
      <trkpt lat="43.57501" lon="2.99916">
        <ele>169.362</ele>
        <time>2025-10-23T08:05:10Z</time>
      </trkpt>
      <trkpt lat="43.57503" lon="2.99922">
        <ele>169.397401</ele>
        <time>2025-10-23T08:05:11Z</time>
      </trkpt>
      <trkpt lat="43.57505" lon="2.99928">
        <ele>169.433921</ele>
        <time>2025-10-23T08:05:12Z</time>
      </trkpt>
      <trkpt lat="43.57507" lon="2.99934">
        <ele>169.469675</ele>
        <time>2025-10-23T08:05:13Z</time>
      </trkpt>
      <trkpt lat="43.57509" lon="2.99939">
        <ele>169.504254</ele>
        <time>2025-10-23T08:05:14Z</time>
      </trkpt>
      <trkpt lat="43.57511" lon="2.99945">
        <ele>169.536805</ele>
        <time>2025-10-23T08:05:15Z</time>
      </trkpt>
      <trkpt lat="43.57513" lon="2.9995">
        <ele>169.567853</ele>
        <time>2025-10-23T08:05:16Z</time>
      </trkpt>
      <trkpt lat="43.57514" lon="2.99955">
        <ele>169.5966</ele>
        <time>2025-10-23T08:05:17Z</time>
      </trkpt>
      <trkpt lat="43.57516" lon="2.9996">
        <ele>169.625978</ele>
        <time>2025-10-23T08:05:18Z</time>
      </trkpt>
      <trkpt lat="43.57518" lon="2.99966">
        <ele>169.660595</ele>
        <time>2025-10-23T08:05:19Z</time>
      </trkpt>
      <trkpt lat="43.5752" lon="2.99972">
        <ele>169.698223</ele>
        <time>2025-10-23T08:05:20Z</time>
      </trkpt>
      <trkpt lat="43.57522" lon="2.99978">
        <ele>169.733769</ele>
        <time>2025-10-23T08:05:21Z</time>
      </trkpt>
      <trkpt lat="43.57524" lon="2.99984">
        <ele>169.769673</ele>
        <time>2025-10-23T08:05:22Z</time>
      </trkpt>
      <trkpt lat="43.57526" lon="2.9999">
        <ele>169.805879</ele>
        <time>2025-10-23T08:05:23Z</time>
      </trkpt>
      <trkpt lat="43.57528" lon="2.99997">
        <ele>169.841783</ele>
        <time>2025-10-23T08:05:24Z</time>
      </trkpt>
      <trkpt lat="43.5753" lon="3.00003">
        <ele>169.877989</ele>
        <time>2025-10-23T08:05:25Z</time>
      </trkpt>
      <trkpt lat="43.57531" lon="3.00008">
        <ele>169.911612</ele>
        <time>2025-10-23T08:05:26Z</time>
      </trkpt>
      <trkpt lat="43.57533" lon="3.00014">
        <ele>169.941122</ele>
        <time>2025-10-23T08:05:27Z</time>
      </trkpt>
      <trkpt lat="43.57533" lon="3.00019">
        <ele>169.97036</ele>
        <time>2025-10-23T08:05:28Z</time>
      </trkpt>
      <trkpt lat="43.57533" lon="3.00024">
        <ele>169.997407</ele>
        <time>2025-10-23T08:05:29Z</time>
      </trkpt>
      <trkpt lat="43.57534" lon="3.00028">
        <ele>170.02161</ele>
        <time>2025-10-23T08:05:30Z</time>
      </trkpt>
      <trkpt lat="43.57535" lon="3.00033">
        <ele>170.047101</ele>
        <time>2025-10-23T08:05:31Z</time>
      </trkpt>
      <trkpt lat="43.57537" lon="3.00037">
        <ele>170.074337</ele>
        <time>2025-10-23T08:05:32Z</time>
      </trkpt>
      <trkpt lat="43.57539" lon="3.00041">
        <ele>170.103737</ele>
        <time>2025-10-23T08:05:33Z</time>
      </trkpt>
      <trkpt lat="43.57541" lon="3.00046">
        <ele>170.130843</ele>
        <time>2025-10-23T08:05:34Z</time>
      </trkpt>
      <trkpt lat="43.57542" lon="3.00051">
        <ele>170.161333</ele>
        <time>2025-10-23T08:05:35Z</time>
      </trkpt>
      <trkpt lat="43.57543" lon="3.00058">
        <ele>170.196374</ele>
        <time>2025-10-23T08:05:36Z</time>
      </trkpt>
      <trkpt lat="43.57544" lon="3.00064">
        <ele>170.230193</ele>
        <time>2025-10-23T08:05:37Z</time>
      </trkpt>
      <trkpt lat="43.57545" lon="3.0007">
        <ele>170.265026</ele>
        <time>2025-10-23T08:05:38Z</time>
      </trkpt>
      <trkpt lat="43.57547" lon="3.00077">
        <ele>170.311472</ele>
        <time>2025-10-23T08:05:39Z</time>
      </trkpt>
      <trkpt lat="43.57548" lon="3.00083">
        <ele>170.363555</ele>
        <time>2025-10-23T08:05:40Z</time>
      </trkpt>
      <trkpt lat="43.5755" lon="3.00089">
        <ele>170.41279</ele>
        <time>2025-10-23T08:05:41Z</time>
      </trkpt>
      <trkpt lat="43.57552" lon="3.00096">
        <ele>170.462442</ele>
        <time>2025-10-23T08:05:42Z</time>
      </trkpt>
      <trkpt lat="43.57553" lon="3.00102">
        <ele>170.50985</ele>
        <time>2025-10-23T08:05:43Z</time>
      </trkpt>
      <trkpt lat="43.57554" lon="3.00108">
        <ele>170.558948</ele>
        <time>2025-10-23T08:05:44Z</time>
      </trkpt>
      <trkpt lat="43.57556" lon="3.00114">
        <ele>170.603359</ele>
        <time>2025-10-23T08:05:45Z</time>
      </trkpt>
      <trkpt lat="43.57557" lon="3.0012">
        <ele>170.64845</ele>
        <time>2025-10-23T08:05:46Z</time>
      </trkpt>
      <trkpt lat="43.57558" lon="3.00125">
        <ele>170.691402</ele>
        <time>2025-10-23T08:05:47Z</time>
      </trkpt>
      <trkpt lat="43.57559" lon="3.00131">
        <ele>170.739302</ele>
        <time>2025-10-23T08:05:48Z</time>
      </trkpt>
      <trkpt lat="43.5756" lon="3.00138">
        <ele>170.790313</ele>
        <time>2025-10-23T08:05:49Z</time>
      </trkpt>
      <trkpt lat="43.57561" lon="3.00145">
        <ele>170.841189</ele>
        <time>2025-10-23T08:05:50Z</time>
      </trkpt>
      <trkpt lat="43.57561" lon="3.00152">
        <ele>170.895016</ele>
        <time>2025-10-23T08:05:51Z</time>
      </trkpt>
      <trkpt lat="43.57562" lon="3.00159">
        <ele>170.948233</ele>
        <time>2025-10-23T08:05:52Z</time>
      </trkpt>
      <trkpt lat="43.57563" lon="3.00166">
        <ele>171.000303</ele>
        <time>2025-10-23T08:05:53Z</time>
      </trkpt>
      <trkpt lat="43.57563" lon="3.00173">
        <ele>171.053193</ele>
        <time>2025-10-23T08:05:54Z</time>
      </trkpt>
      <trkpt lat="43.57564" lon="3.0018">
        <ele>171.103217</ele>
        <time>2025-10-23T08:05:55Z</time>
      </trkpt>
      <trkpt lat="43.57564" lon="3.00187">
        <ele>171.151536</ele>
        <time>2025-10-23T08:05:56Z</time>
      </trkpt>
      <trkpt lat="43.57565" lon="3.00193">
        <ele>171.200503</ele>
        <time>2025-10-23T08:05:57Z</time>
      </trkpt>
      <trkpt lat="43.57565" lon="3.002">
        <ele>171.252117</ele>
        <time>2025-10-23T08:05:58Z</time>
      </trkpt>
      <trkpt lat="43.57566" lon="3.00207">
        <ele>171.302713</ele>
        <time>2025-10-23T08:05:59Z</time>
      </trkpt>
      <trkpt lat="43.57566" lon="3.00213">
        <ele>171.348583</ele>
        <time>2025-10-23T08:06:00Z</time>
      </trkpt>
      <trkpt lat="43.57567" lon="3.00219">
        <ele>171.396391</ele>
        <time>2025-10-23T08:06:01Z</time>
      </trkpt>
      <trkpt lat="43.57568" lon="3.00225">
        <ele>171.442431</ele>
        <time>2025-10-23T08:06:02Z</time>
      </trkpt>
      <trkpt lat="43.57568" lon="3.00231">
        <ele>171.487921</ele>
        <time>2025-10-23T08:06:03Z</time>
      </trkpt>
      <trkpt lat="43.57569" lon="3.00237">
        <ele>171.532323</ele>
        <time>2025-10-23T08:06:04Z</time>
      </trkpt>
      <trkpt lat="43.57569" lon="3.00244">
        <ele>171.58292</ele>
        <time>2025-10-23T08:06:05Z</time>
      </trkpt>
      <trkpt lat="43.57569" lon="3.00251">
        <ele>171.631949</ele>
        <time>2025-10-23T08:06:06Z</time>
      </trkpt>
      <trkpt lat="43.57569" lon="3.00257">
        <ele>171.681063</ele>
        <time>2025-10-23T08:06:07Z</time>
      </trkpt>
      <trkpt lat="43.5757" lon="3.00264">
        <ele>171.728772</ele>
        <time>2025-10-23T08:06:08Z</time>
      </trkpt>
      <trkpt lat="43.57571" lon="3.0027">
        <ele>171.775375</ele>
        <time>2025-10-23T08:06:09Z</time>
      </trkpt>
      <trkpt lat="43.57571" lon="3.00277">
        <ele>171.825177</ele>
        <time>2025-10-23T08:06:10Z</time>
      </trkpt>
      <trkpt lat="43.57571" lon="3.00283">
        <ele>171.870482</ele>
        <time>2025-10-23T08:06:11Z</time>
      </trkpt>
      <trkpt lat="43.57571" lon="3.0029">
        <ele>171.923995</ele>
        <time>2025-10-23T08:06:12Z</time>
      </trkpt>
      <trkpt lat="43.57571" lon="3.00296">
        <ele>171.970785</ele>
        <time>2025-10-23T08:06:13Z</time>
      </trkpt>
      <trkpt lat="43.57571" lon="3.00303">
        <ele>172.018361</ele>
        <time>2025-10-23T08:06:14Z</time>
      </trkpt>
      <trkpt lat="43.57571" lon="3.00309">
        <ele>172.064454</ele>
        <time>2025-10-23T08:06:15Z</time>
      </trkpt>
      <trkpt lat="43.57571" lon="3.00315">
        <ele>172.111986</ele>
        <time>2025-10-23T08:06:16Z</time>
      </trkpt>
      <trkpt lat="43.5757" lon="3.00323">
        <ele>172.179068</ele>
        <time>2025-10-23T08:06:17Z</time>
      </trkpt>
      <trkpt lat="43.5757" lon="3.0033">
        <ele>172.250804</ele>
        <time>2025-10-23T08:06:18Z</time>
      </trkpt>
      <trkpt lat="43.5757" lon="3.00338">
        <ele>172.316952</ele>
        <time>2025-10-23T08:06:19Z</time>
      </trkpt>
      <trkpt lat="43.5757" lon="3.00345">
        <ele>172.384032</ele>
        <time>2025-10-23T08:06:20Z</time>
      </trkpt>
      <trkpt lat="43.5757" lon="3.00352">
        <ele>172.448304</ele>
        <time>2025-10-23T08:06:21Z</time>
      </trkpt>
      <trkpt lat="43.57569" lon="3.00358">
        <ele>172.51136</ele>
        <time>2025-10-23T08:06:22Z</time>
      </trkpt>
      <trkpt lat="43.57569" lon="3.00365">
        <ele>172.577182</ele>
        <time>2025-10-23T08:06:23Z</time>
      </trkpt>
      <trkpt lat="43.57568" lon="3.00373">
        <ele>172.647995</ele>
        <time>2025-10-23T08:06:24Z</time>
      </trkpt>
      <trkpt lat="43.57567" lon="3.0038">
        <ele>172.719274</ele>
        <time>2025-10-23T08:06:25Z</time>
      </trkpt>
      <trkpt lat="43.57566" lon="3.00387">
        <ele>172.786019</ele>
        <time>2025-10-23T08:06:26Z</time>
      </trkpt>
      <trkpt lat="43.57566" lon="3.00395">
        <ele>172.855928</ele>
        <time>2025-10-23T08:06:27Z</time>
      </trkpt>
      <trkpt lat="43.57566" lon="3.00403">
        <ele>172.933242</ele>
        <time>2025-10-23T08:06:28Z</time>
      </trkpt>
      <trkpt lat="43.57566" lon="3.00411">
        <ele>173.008703</ele>
        <time>2025-10-23T08:06:29Z</time>
      </trkpt>
      <trkpt lat="43.57565" lon="3.0042">
        <ele>173.088976</ele>
        <time>2025-10-23T08:06:30Z</time>
      </trkpt>
      <trkpt lat="43.57565" lon="3.00428">
        <ele>173.166557</ele>
        <time>2025-10-23T08:06:31Z</time>
      </trkpt>
      <trkpt lat="43.57565" lon="3.00436">
        <ele>173.23643</ele>
        <time>2025-10-23T08:06:32Z</time>
      </trkpt>
      <trkpt lat="43.57564" lon="3.00444">
        <ele>173.310421</ele>
        <time>2025-10-23T08:06:33Z</time>
      </trkpt>
      <trkpt lat="43.57564" lon="3.0045">
        <ele>173.373161</ele>
        <time>2025-10-23T08:06:34Z</time>
      </trkpt>
      <trkpt lat="43.57564" lon="3.00456">
        <ele>173.429981</ele>
        <time>2025-10-23T08:06:35Z</time>
      </trkpt>
      <trkpt lat="43.57563" lon="3.00463">
        <ele>173.491942</ele>
        <time>2025-10-23T08:06:36Z</time>
      </trkpt>
      <trkpt lat="43.57563" lon="3.0047">
        <ele>173.559206</ele>
        <time>2025-10-23T08:06:37Z</time>
      </trkpt>
      <trkpt lat="43.57562" lon="3.00478">
        <ele>173.628899</ele>
        <time>2025-10-23T08:06:38Z</time>
      </trkpt>
      <trkpt lat="43.57561" lon="3.00484">
        <ele>173.69307</ele>
        <time>2025-10-23T08:06:39Z</time>
      </trkpt>
      <trkpt lat="43.57561" lon="3.00492">
        <ele>173.760334</ele>
        <time>2025-10-23T08:06:40Z</time>
      </trkpt>
      <trkpt lat="43.5756" lon="3.00499">
        <ele>173.827598</ele>
        <time>2025-10-23T08:06:41Z</time>
      </trkpt>
      <trkpt lat="43.5756" lon="3.00506">
        <ele>173.896959</ele>
        <time>2025-10-23T08:06:42Z</time>
      </trkpt>
      <trkpt lat="43.57559" lon="3.00513">
        <ele>173.962969</ele>
        <time>2025-10-23T08:06:43Z</time>
      </trkpt>
      <trkpt lat="43.57558" lon="3.00521">
        <ele>174.031404</ele>
        <time>2025-10-23T08:06:44Z</time>
      </trkpt>
      <trkpt lat="43.57558" lon="3.00528">
        <ele>174.101455</ele>
        <time>2025-10-23T08:06:45Z</time>
      </trkpt>
      <trkpt lat="43.57558" lon="3.00535">
        <ele>174.164849</ele>
        <time>2025-10-23T08:06:46Z</time>
      </trkpt>
      <trkpt lat="43.57558" lon="3.00542">
        <ele>174.227272</ele>
        <time>2025-10-23T08:06:47Z</time>
      </trkpt>
      <trkpt lat="43.57558" lon="3.00549">
        <ele>174.294351</ele>
        <time>2025-10-23T08:06:48Z</time>
      </trkpt>
      <trkpt lat="43.57558" lon="3.00556">
        <ele>174.362459</ele>
        <time>2025-10-23T08:06:49Z</time>
      </trkpt>
      <trkpt lat="43.57557" lon="3.00563">
        <ele>174.430894</ele>
        <time>2025-10-23T08:06:50Z</time>
      </trkpt>
      <trkpt lat="43.57557" lon="3.00571">
        <ele>174.427867</ele>
        <time>2025-10-23T08:06:51Z</time>
      </trkpt>
      <trkpt lat="43.57556" lon="3.00578">
        <ele>174.419816</ele>
        <time>2025-10-23T08:06:52Z</time>
      </trkpt>
      <trkpt lat="43.57557" lon="3.00585">
        <ele>174.411512</ele>
        <time>2025-10-23T08:06:53Z</time>
      </trkpt>
      <trkpt lat="43.57557" lon="3.00592">
        <ele>174.40323</ele>
        <time>2025-10-23T08:06:54Z</time>
      </trkpt>
      <trkpt lat="43.57556" lon="3.00599">
        <ele>174.395281</ele>
        <time>2025-10-23T08:06:55Z</time>
      </trkpt>
      <trkpt lat="43.57556" lon="3.00605">
        <ele>174.388108</ele>
        <time>2025-10-23T08:06:56Z</time>
      </trkpt>
      <trkpt lat="43.57555" lon="3.00609">
        <ele>174.383892</ele>
        <time>2025-10-23T08:06:57Z</time>
      </trkpt>
      <trkpt lat="43.57556" lon="3.00611">
        <ele>174.381507</ele>
        <time>2025-10-23T08:06:58Z</time>
      </trkpt>
      <trkpt lat="43.57556" lon="3.00611">
        <ele>174.380686</ele>
        <time>2025-10-23T08:06:59Z</time>
      </trkpt>
      <trkpt lat="43.57556" lon="3.00612">
        <ele>174.380306</ele>
        <time>2025-10-23T08:07:00Z</time>
      </trkpt>
      <trkpt lat="43.57556" lon="3.00612">
        <ele>174.37983</ele>
        <time>2025-10-23T08:07:01Z</time>
      </trkpt>
      <trkpt lat="43.57557" lon="3.00611">
        <ele>174.379301</ele>
        <time>2025-10-23T08:07:02Z</time>
      </trkpt>
      <trkpt lat="43.57557" lon="3.00611">
        <ele>174.378086</ele>
        <time>2025-10-23T08:07:03Z</time>
      </trkpt>
      <trkpt lat="43.57557" lon="3.00609">
        <ele>174.37624</ele>
        <time>2025-10-23T08:07:04Z</time>
      </trkpt>
      <trkpt lat="43.57557" lon="3.00608">
        <ele>174.374556</ele>
        <time>2025-10-23T08:07:05Z</time>
      </trkpt>
      <trkpt lat="43.57556" lon="3.00607">
        <ele>174.373159</ele>
        <time>2025-10-23T08:07:06Z</time>
      </trkpt>
      <trkpt lat="43.57556" lon="3.00606">
        <ele>174.372302</ele>
        <time>2025-10-23T08:07:07Z</time>
      </trkpt>
      <trkpt lat="43.57555" lon="3.00615">
        <ele>174.36192</ele>
        <time>2025-10-23T08:08:04Z</time>
      </trkpt>
      <trkpt lat="43.57554" lon="3.00619">
        <ele>174.358111</ele>
        <time>2025-10-23T08:08:05Z</time>
      </trkpt>
      <trkpt lat="43.57554" lon="3.00622">
        <ele>174.354198</ele>
        <time>2025-10-23T08:08:06Z</time>
      </trkpt>
      <trkpt lat="43.57554" lon="3.00626">
        <ele>174.349099</ele>
        <time>2025-10-23T08:08:07Z</time>
      </trkpt>
      <trkpt lat="43.57553" lon="3.00631">
        <ele>174.344063</ele>
        <time>2025-10-23T08:08:08Z</time>
      </trkpt>
      <trkpt lat="43.57553" lon="3.00636">
        <ele>174.338426</ele>
        <time>2025-10-23T08:08:09Z</time>
      </trkpt>
      <trkpt lat="43.57553" lon="3.00641">
        <ele>174.332657</ele>
        <time>2025-10-23T08:08:10Z</time>
      </trkpt>
      <trkpt lat="43.57553" lon="3.00647">
        <ele>174.32587</ele>
        <time>2025-10-23T08:08:11Z</time>
      </trkpt>
      <trkpt lat="43.57553" lon="3.00653">
        <ele>174.31861</ele>
        <time>2025-10-23T08:08:12Z</time>
      </trkpt>
      <trkpt lat="43.57552" lon="3.0066">
        <ele>174.31075</ele>
        <time>2025-10-23T08:08:13Z</time>
      </trkpt>
      <trkpt lat="43.57552" lon="3.00667">
        <ele>174.302216</ele>
        <time>2025-10-23T08:08:14Z</time>
      </trkpt>
      <trkpt lat="43.57551" lon="3.00674">
        <ele>174.293726</ele>
        <time>2025-10-23T08:08:15Z</time>
      </trkpt>
      <trkpt lat="43.5755" lon="3.00682">
        <ele>174.285278</ele>
        <time>2025-10-23T08:08:16Z</time>
      </trkpt>
      <trkpt lat="43.5755" lon="3.00689">
        <ele>174.276859</ele>
        <time>2025-10-23T08:08:17Z</time>
      </trkpt>
      <trkpt lat="43.5755" lon="3.00696">
        <ele>174.268228</ele>
        <time>2025-10-23T08:08:18Z</time>
      </trkpt>
      <trkpt lat="43.5755" lon="3.00704">
        <ele>174.259487</ele>
        <time>2025-10-23T08:08:19Z</time>
      </trkpt>
      <trkpt lat="43.57549" lon="3.00712">
        <ele>174.250627</ele>
        <time>2025-10-23T08:08:20Z</time>
      </trkpt>
      <trkpt lat="43.57549" lon="3.0072">
        <ele>174.241542</ele>
        <time>2025-10-23T08:08:21Z</time>
      </trkpt>
      <trkpt lat="43.57549" lon="3.00728">
        <ele>174.232111</ele>
        <time>2025-10-23T08:08:22Z</time>
      </trkpt>
      <trkpt lat="43.57549" lon="3.00736">
        <ele>174.223129</ele>
        <time>2025-10-23T08:08:23Z</time>
      </trkpt>
      <trkpt lat="43.57549" lon="3.00743">
        <ele>174.214137</ele>
        <time>2025-10-23T08:08:24Z</time>
      </trkpt>
      <trkpt lat="43.57548" lon="3.0075">
        <ele>174.206177</ele>
        <time>2025-10-23T08:08:25Z</time>
      </trkpt>
      <trkpt lat="43.57548" lon="3.00757">
        <ele>174.198228</ele>
        <time>2025-10-23T08:08:26Z</time>
      </trkpt>
      <trkpt lat="43.57547" lon="3.00764">
        <ele>174.190008</ele>
        <time>2025-10-23T08:08:27Z</time>
      </trkpt>
      <trkpt lat="43.57547" lon="3.00772">
        <ele>174.181589</ele>
        <time>2025-10-23T08:08:28Z</time>
      </trkpt>
      <trkpt lat="43.57547" lon="3.00779">
        <ele>174.173181</ele>
        <time>2025-10-23T08:08:29Z</time>
      </trkpt>
      <trkpt lat="43.57546" lon="3.00786">
        <ele>174.164543</ele>
        <time>2025-10-23T08:08:30Z</time>
      </trkpt>
      <trkpt lat="43.57546" lon="3.00795">
        <ele>174.154768</ele>
        <time>2025-10-23T08:08:31Z</time>
      </trkpt>
      <trkpt lat="43.57546" lon="3.00803">
        <ele>174.15037</ele>
        <time>2025-10-23T08:08:32Z</time>
      </trkpt>
      <trkpt lat="43.57546" lon="3.0081">
        <ele>174.150905</ele>
        <time>2025-10-23T08:08:33Z</time>
      </trkpt>
      <trkpt lat="43.57545" lon="3.00817">
        <ele>174.151426</ele>
        <time>2025-10-23T08:08:34Z</time>
      </trkpt>
      <trkpt lat="43.57545" lon="3.00824">
        <ele>174.151903</ele>
        <time>2025-10-23T08:08:35Z</time>
      </trkpt>
      <trkpt lat="43.57544" lon="3.00831">
        <ele>174.152404</ele>
        <time>2025-10-23T08:08:36Z</time>
      </trkpt>
      <trkpt lat="43.57544" lon="3.00837">
        <ele>174.152905</ele>
        <time>2025-10-23T08:08:37Z</time>
      </trkpt>
      <trkpt lat="43.57543" lon="3.00844">
        <ele>174.15339</ele>
        <time>2025-10-23T08:08:38Z</time>
      </trkpt>
      <trkpt lat="43.57542" lon="3.0085">
        <ele>174.153828</ele>
        <time>2025-10-23T08:08:39Z</time>
      </trkpt>
      <trkpt lat="43.57541" lon="3.00855">
        <ele>174.154236</ele>
        <time>2025-10-23T08:08:40Z</time>
      </trkpt>
      <trkpt lat="43.57541" lon="3.00861">
        <ele>174.154653</ele>
        <time>2025-10-23T08:08:41Z</time>
      </trkpt>
      <trkpt lat="43.57541" lon="3.00867">
        <ele>174.15507</ele>
        <time>2025-10-23T08:08:42Z</time>
      </trkpt>
      <trkpt lat="43.57541" lon="3.00872">
        <ele>174.155494</ele>
        <time>2025-10-23T08:08:43Z</time>
      </trkpt>
      <trkpt lat="43.57541" lon="3.00879">
        <ele>174.155979</ele>
        <time>2025-10-23T08:08:44Z</time>
      </trkpt>
      <trkpt lat="43.57541" lon="3.00885">
        <ele>174.156441</ele>
        <time>2025-10-23T08:08:45Z</time>
      </trkpt>
      <trkpt lat="43.5754" lon="3.00891">
        <ele>174.156874</ele>
        <time>2025-10-23T08:08:46Z</time>
      </trkpt>
      <trkpt lat="43.5754" lon="3.00898">
        <ele>174.157345</ele>
        <time>2025-10-23T08:08:47Z</time>
      </trkpt>
      <trkpt lat="43.57539" lon="3.00904">
        <ele>174.157813</ele>
        <time>2025-10-23T08:08:48Z</time>
      </trkpt>
      <trkpt lat="43.5754" lon="3.0091">
        <ele>174.158246</ele>
        <time>2025-10-23T08:08:49Z</time>
      </trkpt>
      <trkpt lat="43.5754" lon="3.00916">
        <ele>174.158662</ele>
        <time>2025-10-23T08:08:50Z</time>
      </trkpt>
      <trkpt lat="43.5754" lon="3.0092">
        <ele>174.158962</ele>
        <time>2025-10-23T08:08:51Z</time>
      </trkpt>
      <trkpt lat="43.5754" lon="3.00922">
        <ele>174.159147</ele>
        <time>2025-10-23T08:08:52Z</time>
      </trkpt>
      <trkpt lat="43.5754" lon="3.00924">
        <ele>174.159254</ele>
        <time>2025-10-23T08:08:53Z</time>
      </trkpt>
      <trkpt lat="43.5754" lon="3.00925">
        <ele>174.159327</ele>
        <time>2025-10-23T08:08:54Z</time>
      </trkpt>
      <trkpt lat="43.5754" lon="3.00926">
        <ele>174.159401</ele>
        <time>2025-10-23T08:08:55Z</time>
      </trkpt>
      <trkpt lat="43.57541" lon="3.00926">
        <ele>174.159425</ele>
        <time>2025-10-23T08:08:56Z</time>
      </trkpt>
      <trkpt lat="43.57541" lon="3.00926">
        <ele>174.159447</ele>
        <time>2025-10-23T08:08:57Z</time>
      </trkpt>
      <trkpt lat="43.57541" lon="3.00927">
        <ele>174.159513</ele>
        <time>2025-10-23T08:08:58Z</time>
      </trkpt>
      <trkpt lat="43.57541" lon="3.00928">
        <ele>174.159596</ele>
        <time>2025-10-23T08:08:59Z</time>
      </trkpt>
      <trkpt lat="43.57541" lon="3.00928">
        <ele>174.159625</ele>
        <time>2025-10-23T08:09:00Z</time>
      </trkpt>
      <trkpt lat="43.57541" lon="3.00928">
        <ele>174.159643</ele>
        <time>2025-10-23T08:09:01Z</time>
      </trkpt>
      <trkpt lat="43.57541" lon="3.00928">
        <ele>174.159681</ele>
        <time>2025-10-23T08:09:02Z</time>
      </trkpt>
      <trkpt lat="43.57538" lon="3.00938">
        <ele>174.160499</ele>
        <time>2025-10-23T08:10:07Z</time>
      </trkpt>
      <trkpt lat="43.57538" lon="3.00941">
        <ele>174.160665</ele>
        <time>2025-10-23T08:10:08Z</time>
      </trkpt>
      <trkpt lat="43.57538" lon="3.00944">
        <ele>174.160885</ele>
        <time>2025-10-23T08:10:09Z</time>
      </trkpt>
      <trkpt lat="43.57538" lon="3.00947">
        <ele>174.161156</ele>
        <time>2025-10-23T08:10:10Z</time>
      </trkpt>
      <trkpt lat="43.57538" lon="3.00952">
        <ele>174.1615</ele>
        <time>2025-10-23T08:10:11Z</time>
      </trkpt>
      <trkpt lat="43.57538" lon="3.00956">
        <ele>174.161822</ele>
        <time>2025-10-23T08:10:12Z</time>
      </trkpt>
      <trkpt lat="43.57538" lon="3.00961">
        <ele>174.162195</ele>
        <time>2025-10-23T08:10:13Z</time>
      </trkpt>
      <trkpt lat="43.57538" lon="3.00967">
        <ele>174.162627</ele>
        <time>2025-10-23T08:10:14Z</time>
      </trkpt>
      <trkpt lat="43.57537" lon="3.00973">
        <ele>174.163067</ele>
        <time>2025-10-23T08:10:15Z</time>
      </trkpt>
      <trkpt lat="43.57537" lon="3.00979">
        <ele>174.163465</ele>
        <time>2025-10-23T08:10:16Z</time>
      </trkpt>
      <trkpt lat="43.57536" lon="3.00984">
        <ele>174.163861</ele>
        <time>2025-10-23T08:10:17Z</time>
      </trkpt>
      <trkpt lat="43.57535" lon="3.0099">
        <ele>174.164316</ele>
        <time>2025-10-23T08:10:18Z</time>
      </trkpt>
      <trkpt lat="43.57534" lon="3.00996">
        <ele>174.164764</ele>
        <time>2025-10-23T08:10:19Z</time>
      </trkpt>
      <trkpt lat="43.57534" lon="3.01002">
        <ele>174.165188</ele>
        <time>2025-10-23T08:10:20Z</time>
      </trkpt>
      <trkpt lat="43.57534" lon="3.01009">
        <ele>174.165671</ele>
        <time>2025-10-23T08:10:21Z</time>
      </trkpt>
      <trkpt lat="43.57533" lon="3.01014">
        <ele>174.166096</ele>
        <time>2025-10-23T08:10:22Z</time>
      </trkpt>
      <trkpt lat="43.57533" lon="3.0102">
        <ele>174.166528</ele>
        <time>2025-10-23T08:10:23Z</time>
      </trkpt>
      <trkpt lat="43.57532" lon="3.01026">
        <ele>174.16696</ele>
        <time>2025-10-23T08:10:24Z</time>
      </trkpt>
      <trkpt lat="43.57532" lon="3.01032">
        <ele>174.167396</ele>
        <time>2025-10-23T08:10:25Z</time>
      </trkpt>
      <trkpt lat="43.57531" lon="3.01037">
        <ele>174.1678</ele>
        <time>2025-10-23T08:10:26Z</time>
      </trkpt>
      <trkpt lat="43.57531" lon="3.01043">
        <ele>174.168234</ele>
        <time>2025-10-23T08:10:27Z</time>
      </trkpt>
      <trkpt lat="43.57531" lon="3.01049">
        <ele>174.177258</ele>
        <time>2025-10-23T08:10:28Z</time>
      </trkpt>
      <trkpt lat="43.57531" lon="3.01056">
        <ele>174.186876</ele>
        <time>2025-10-23T08:10:29Z</time>
      </trkpt>
      <trkpt lat="43.5753" lon="3.01062">
        <ele>174.197323</ele>
        <time>2025-10-23T08:10:30Z</time>
      </trkpt>
      <trkpt lat="43.5753" lon="3.0107">
        <ele>174.208202</ele>
        <time>2025-10-23T08:10:31Z</time>
      </trkpt>
      <trkpt lat="43.57529" lon="3.01076">
        <ele>174.218635</ele>
        <time>2025-10-23T08:10:32Z</time>
      </trkpt>
      <trkpt lat="43.57527" lon="3.01083">
        <ele>174.229857</ele>
        <time>2025-10-23T08:10:33Z</time>
      </trkpt>
      <trkpt lat="43.57527" lon="3.0109">
        <ele>174.2407</ele>
        <time>2025-10-23T08:10:34Z</time>
      </trkpt>
      <trkpt lat="43.57525" lon="3.01097">
        <ele>174.251721</ele>
        <time>2025-10-23T08:10:35Z</time>
      </trkpt>
      <trkpt lat="43.57524" lon="3.01104">
        <ele>174.262303</ele>
        <time>2025-10-23T08:10:36Z</time>
      </trkpt>
      <trkpt lat="43.57523" lon="3.01111">
        <ele>174.272545</ele>
        <time>2025-10-23T08:10:37Z</time>
      </trkpt>
      <trkpt lat="43.57522" lon="3.01117">
        <ele>174.282082</ele>
        <time>2025-10-23T08:10:38Z</time>
      </trkpt>
      <trkpt lat="43.57521" lon="3.01122">
        <ele>174.29004</ele>
        <time>2025-10-23T08:10:39Z</time>
      </trkpt>
      <trkpt lat="43.57519" lon="3.01127">
        <ele>174.298429</ele>
        <time>2025-10-23T08:10:40Z</time>
      </trkpt>
      <trkpt lat="43.57518" lon="3.01132">
        <ele>174.306838</ele>
        <time>2025-10-23T08:10:41Z</time>
      </trkpt>
      <trkpt lat="43.57517" lon="3.01137">
        <ele>174.315083</ele>
        <time>2025-10-23T08:10:42Z</time>
      </trkpt>
      <trkpt lat="43.57516" lon="3.01143">
        <ele>174.323785</ele>
        <time>2025-10-23T08:10:43Z</time>
      </trkpt>
      <trkpt lat="43.57515" lon="3.01149">
        <ele>174.33372</ele>
        <time>2025-10-23T08:10:44Z</time>
      </trkpt>
      <trkpt lat="43.57514" lon="3.01155">
        <ele>174.343109</ele>
        <time>2025-10-23T08:10:45Z</time>
      </trkpt>
      <trkpt lat="43.57513" lon="3.01162">
        <ele>174.353502</ele>
        <time>2025-10-23T08:10:46Z</time>
      </trkpt>
      <trkpt lat="43.57512" lon="3.01168">
        <ele>174.363533</ele>
        <time>2025-10-23T08:10:47Z</time>
      </trkpt>
      <trkpt lat="43.5751" lon="3.01174">
        <ele>174.373173</ele>
        <time>2025-10-23T08:10:48Z</time>
      </trkpt>
      <trkpt lat="43.57509" lon="3.0118">
        <ele>174.382924</ele>
        <time>2025-10-23T08:10:49Z</time>
      </trkpt>
      <trkpt lat="43.57507" lon="3.01187">
        <ele>174.394264</ele>
        <time>2025-10-23T08:10:50Z</time>
      </trkpt>
      <trkpt lat="43.57506" lon="3.01193">
        <ele>174.403757</ele>
        <time>2025-10-23T08:10:51Z</time>
      </trkpt>
      <trkpt lat="43.57505" lon="3.01199">
        <ele>174.412871</ele>
        <time>2025-10-23T08:10:52Z</time>
      </trkpt>
      <trkpt lat="43.57503" lon="3.01205">
        <ele>174.42213</ele>
        <time>2025-10-23T08:10:53Z</time>
      </trkpt>
      <trkpt lat="43.57502" lon="3.01211">
        <ele>174.432121</ele>
        <time>2025-10-23T08:10:54Z</time>
      </trkpt>
      <trkpt lat="43.57501" lon="3.01217">
        <ele>174.441615</ele>
        <time>2025-10-23T08:10:55Z</time>
      </trkpt>
      <trkpt lat="43.575" lon="3.01223">
        <ele>174.450938</ele>
        <time>2025-10-23T08:10:56Z</time>
      </trkpt>
      <trkpt lat="43.57498" lon="3.01229">
        <ele>174.460689</ele>
        <time>2025-10-23T08:10:57Z</time>
      </trkpt>
      <trkpt lat="43.57497" lon="3.01235">
        <ele>174.470094</ele>
        <time>2025-10-23T08:10:58Z</time>
      </trkpt>
      <trkpt lat="43.57495" lon="3.01241">
        <ele>174.47956</ele>
        <time>2025-10-23T08:10:59Z</time>
      </trkpt>
      <trkpt lat="43.57494" lon="3.01246">
        <ele>174.488679</ele>
        <time>2025-10-23T08:11:00Z</time>
      </trkpt>
      <trkpt lat="43.57492" lon="3.01252">
        <ele>174.497745</ele>
        <time>2025-10-23T08:11:01Z</time>
      </trkpt>
      <trkpt lat="43.57489" lon="3.01257">
        <ele>174.506649</ele>
        <time>2025-10-23T08:11:02Z</time>
      </trkpt>
      <trkpt lat="43.57487" lon="3.01261">
        <ele>174.515227</ele>
        <time>2025-10-23T08:11:03Z</time>
      </trkpt>
      <trkpt lat="43.57485" lon="3.01267">
        <ele>174.525445</ele>
        <time>2025-10-23T08:11:04Z</time>
      </trkpt>
      <trkpt lat="43.57483" lon="3.01273">
        <ele>174.536108</ele>
        <time>2025-10-23T08:11:05Z</time>
      </trkpt>
      <trkpt lat="43.5748" lon="3.01279">
        <ele>174.546494</ele>
        <time>2025-10-23T08:11:06Z</time>
      </trkpt>
      <trkpt lat="43.57478" lon="3.01285">
        <ele>174.522344</ele>
        <time>2025-10-23T08:11:07Z</time>
      </trkpt>
      <trkpt lat="43.57475" lon="3.01291">
        <ele>174.496362</ele>
        <time>2025-10-23T08:11:08Z</time>
      </trkpt>
      <trkpt lat="43.57473" lon="3.01297">
        <ele>174.472458</ele>
        <time>2025-10-23T08:11:09Z</time>
      </trkpt>
      <trkpt lat="43.57471" lon="3.01302">
        <ele>174.44879</ele>
        <time>2025-10-23T08:11:10Z</time>
      </trkpt>
      <trkpt lat="43.57469" lon="3.01308">
        <ele>174.42288</ele>
        <time>2025-10-23T08:11:11Z</time>
      </trkpt>
      <trkpt lat="43.57466" lon="3.01314">
        <ele>174.396709</ele>
        <time>2025-10-23T08:11:12Z</time>
      </trkpt>
      <trkpt lat="43.57464" lon="3.01321">
        <ele>174.368562</ele>
        <time>2025-10-23T08:11:13Z</time>
      </trkpt>
      <trkpt lat="43.57462" lon="3.01327">
        <ele>174.34296</ele>
        <time>2025-10-23T08:11:14Z</time>
      </trkpt>
      <trkpt lat="43.5746" lon="3.01333">
        <ele>174.31838</ele>
        <time>2025-10-23T08:11:15Z</time>
      </trkpt>
      <trkpt lat="43.57457" lon="3.01338">
        <ele>174.292846</ele>
        <time>2025-10-23T08:11:16Z</time>
      </trkpt>
      <trkpt lat="43.57454" lon="3.01344">
        <ele>174.267346</ele>
        <time>2025-10-23T08:11:17Z</time>
      </trkpt>
      <trkpt lat="43.57452" lon="3.0135">
        <ele>174.242613</ele>
        <time>2025-10-23T08:11:18Z</time>
      </trkpt>
      <trkpt lat="43.5745" lon="3.01356">
        <ele>174.21688</ele>
        <time>2025-10-23T08:11:19Z</time>
      </trkpt>
      <trkpt lat="43.57447" lon="3.01361">
        <ele>174.192147</ele>
        <time>2025-10-23T08:11:20Z</time>
      </trkpt>
      <trkpt lat="43.57445" lon="3.01367">
        <ele>174.167906</ele>
        <time>2025-10-23T08:11:21Z</time>
      </trkpt>
      <trkpt lat="43.57443" lon="3.01373">
        <ele>174.143832</ele>
        <time>2025-10-23T08:11:22Z</time>
      </trkpt>
      <trkpt lat="43.57441" lon="3.01378">
        <ele>174.120802</ele>
        <time>2025-10-23T08:11:23Z</time>
      </trkpt>
      <trkpt lat="43.57438" lon="3.01383">
        <ele>174.09835</ele>
        <time>2025-10-23T08:11:24Z</time>
      </trkpt>
      <trkpt lat="43.57436" lon="3.01388">
        <ele>174.075898</ele>
        <time>2025-10-23T08:11:25Z</time>
      </trkpt>
      <trkpt lat="43.57434" lon="3.01393">
        <ele>174.051495</ele>
        <time>2025-10-23T08:11:26Z</time>
      </trkpt>
      <trkpt lat="43.57432" lon="3.01399">
        <ele>174.027591</ele>
        <time>2025-10-23T08:11:27Z</time>
      </trkpt>
      <trkpt lat="43.5743" lon="3.01404">
        <ele>174.003923</ele>
        <time>2025-10-23T08:11:28Z</time>
      </trkpt>
      <trkpt lat="43.57428" lon="3.0141">
        <ele>173.980905</ele>
        <time>2025-10-23T08:11:29Z</time>
      </trkpt>
      <trkpt lat="43.57426" lon="3.01415">
        <ele>173.958252</ele>
        <time>2025-10-23T08:11:30Z</time>
      </trkpt>
      <trkpt lat="43.57424" lon="3.01421">
        <ele>173.936062</ele>
        <time>2025-10-23T08:11:31Z</time>
      </trkpt>
      <trkpt lat="43.57423" lon="3.01426">
        <ele>173.914491</ele>
        <time>2025-10-23T08:11:32Z</time>
      </trkpt>
      <trkpt lat="43.5742" lon="3.01432">
        <ele>173.887068</ele>
        <time>2025-10-23T08:11:33Z</time>
      </trkpt>
      <trkpt lat="43.57418" lon="3.01438">
        <ele>173.862133</ele>
        <time>2025-10-23T08:11:34Z</time>
      </trkpt>
      <trkpt lat="43.57415" lon="3.01444">
        <ele>173.836873</ele>
        <time>2025-10-23T08:11:35Z</time>
      </trkpt>
      <trkpt lat="43.57413" lon="3.01449">
        <ele>173.81239</ele>
        <time>2025-10-23T08:11:36Z</time>
      </trkpt>
      <trkpt lat="43.57411" lon="3.01454">
        <ele>173.790072</ele>
        <time>2025-10-23T08:11:37Z</time>
      </trkpt>
      <trkpt lat="43.57409" lon="3.0146">
        <ele>173.765998</ele>
        <time>2025-10-23T08:11:38Z</time>
      </trkpt>
      <trkpt lat="43.57407" lon="3.01466">
        <ele>173.742557</ele>
        <time>2025-10-23T08:11:39Z</time>
      </trkpt>
      <trkpt lat="43.57405" lon="3.01471">
        <ele>173.72071</ele>
        <time>2025-10-23T08:11:40Z</time>
      </trkpt>
      <trkpt lat="43.57402" lon="3.01477">
        <ele>173.693335</ele>
        <time>2025-10-23T08:11:41Z</time>
      </trkpt>
      <trkpt lat="43.57399" lon="3.01482">
        <ele>173.66907</ele>
        <time>2025-10-23T08:11:42Z</time>
      </trkpt>
      <trkpt lat="43.57397" lon="3.01489">
        <ele>173.639587</ele>
        <time>2025-10-23T08:11:43Z</time>
      </trkpt>
      <trkpt lat="43.57395" lon="3.01496">
        <ele>173.611017</ele>
        <time>2025-10-23T08:11:44Z</time>
      </trkpt>
      <trkpt lat="43.57392" lon="3.01503">
        <ele>173.642664</ele>
        <time>2025-10-23T08:11:45Z</time>
      </trkpt>
      <trkpt lat="43.5739" lon="3.0151">
        <ele>173.685722</ele>
        <time>2025-10-23T08:11:46Z</time>
      </trkpt>
      <trkpt lat="43.57388" lon="3.01516">
        <ele>173.725387</ele>
        <time>2025-10-23T08:11:47Z</time>
      </trkpt>
      <trkpt lat="43.57386" lon="3.01521">
        <ele>173.763275</ele>
        <time>2025-10-23T08:11:48Z</time>
      </trkpt>
      <trkpt lat="43.57383" lon="3.01528">
        <ele>173.806554</ele>
        <time>2025-10-23T08:11:49Z</time>
      </trkpt>
      <trkpt lat="43.57381" lon="3.01533">
        <ele>173.843857</ele>
        <time>2025-10-23T08:11:50Z</time>
      </trkpt>
      <trkpt lat="43.57378" lon="3.01539">
        <ele>173.881728</ele>
        <time>2025-10-23T08:11:51Z</time>
      </trkpt>
      <trkpt lat="43.57376" lon="3.01544">
        <ele>173.920728</ele>
        <time>2025-10-23T08:11:52Z</time>
      </trkpt>
      <trkpt lat="43.57374" lon="3.0155">
        <ele>173.959728</ele>
        <time>2025-10-23T08:11:53Z</time>
      </trkpt>
      <trkpt lat="43.57372" lon="3.01556">
        <ele>173.997084</ele>
        <time>2025-10-23T08:11:54Z</time>
      </trkpt>
      <trkpt lat="43.5737" lon="3.01562">
        <ele>174.036577</ele>
        <time>2025-10-23T08:11:55Z</time>
      </trkpt>
      <trkpt lat="43.57367" lon="3.01568">
        <ele>174.079984</ele>
        <time>2025-10-23T08:11:56Z</time>
      </trkpt>
      <trkpt lat="43.57365" lon="3.01575">
        <ele>174.123542</ele>
        <time>2025-10-23T08:11:57Z</time>
      </trkpt>
      <trkpt lat="43.57363" lon="3.01582">
        <ele>174.168157</ele>
        <time>2025-10-23T08:11:58Z</time>
      </trkpt>
      <trkpt lat="43.5736" lon="3.01589">
        <ele>174.214369</ele>
        <time>2025-10-23T08:11:59Z</time>
      </trkpt>
      <trkpt lat="43.57358" lon="3.01596">
        <ele>174.261117</ele>
        <time>2025-10-23T08:12:00Z</time>
      </trkpt>
      <trkpt lat="43.57355" lon="3.01603">
        <ele>174.304149</ele>
        <time>2025-10-23T08:12:01Z</time>
      </trkpt>
      <trkpt lat="43.57353" lon="3.01609">
        <ele>174.344575</ele>
        <time>2025-10-23T08:12:02Z</time>
      </trkpt>
      <trkpt lat="43.5735" lon="3.01615">
        <ele>174.388769</ele>
        <time>2025-10-23T08:12:03Z</time>
      </trkpt>
      <trkpt lat="43.57347" lon="3.01622">
        <ele>174.435729</ele>
        <time>2025-10-23T08:12:04Z</time>
      </trkpt>
      <trkpt lat="43.57345" lon="3.01628">
        <ele>174.47629</ele>
        <time>2025-10-23T08:12:05Z</time>
      </trkpt>
      <trkpt lat="43.57343" lon="3.01634">
        <ele>174.518429</ele>
        <time>2025-10-23T08:12:06Z</time>
      </trkpt>
      <trkpt lat="43.5734" lon="3.01641">
        <ele>174.55968</ele>
        <time>2025-10-23T08:12:07Z</time>
      </trkpt>
      <trkpt lat="43.57338" lon="3.01648">
        <ele>174.602969</ele>
        <time>2025-10-23T08:12:08Z</time>
      </trkpt>
      <trkpt lat="43.57337" lon="3.01655">
        <ele>174.647075</ele>
        <time>2025-10-23T08:12:09Z</time>
      </trkpt>
      <trkpt lat="43.57335" lon="3.01662">
        <ele>174.691742</ele>
        <time>2025-10-23T08:12:10Z</time>
      </trkpt>
      <trkpt lat="43.57334" lon="3.01668">
        <ele>174.731418</ele>
        <time>2025-10-23T08:12:11Z</time>
      </trkpt>
      <trkpt lat="43.57332" lon="3.01674">
        <ele>174.76916</ele>
        <time>2025-10-23T08:12:12Z</time>
      </trkpt>
      <trkpt lat="43.57331" lon="3.01681">
        <ele>174.808366</ele>
        <time>2025-10-23T08:12:13Z</time>
      </trkpt>
      <trkpt lat="43.57329" lon="3.01687">
        <ele>174.849166</ele>
        <time>2025-10-23T08:12:14Z</time>
      </trkpt>
      <trkpt lat="43.57328" lon="3.01694">
        <ele>174.889729</ele>
        <time>2025-10-23T08:12:15Z</time>
      </trkpt>
      <trkpt lat="43.57327" lon="3.017">
        <ele>174.929727</ele>
        <time>2025-10-23T08:12:16Z</time>
      </trkpt>
      <trkpt lat="43.57326" lon="3.01707">
        <ele>174.96992</ele>
        <time>2025-10-23T08:12:17Z</time>
      </trkpt>
      <trkpt lat="43.57325" lon="3.01715">
        <ele>175.016643</ele>
        <time>2025-10-23T08:12:18Z</time>
      </trkpt>
      <trkpt lat="43.57324" lon="3.01722">
        <ele>175.06032</ele>
        <time>2025-10-23T08:12:19Z</time>
      </trkpt>
      <trkpt lat="43.57323" lon="3.01729">
        <ele>175.134551</ele>
        <time>2025-10-23T08:12:20Z</time>
      </trkpt>
      <trkpt lat="43.57322" lon="3.01736">
        <ele>175.216775</ele>
        <time>2025-10-23T08:12:21Z</time>
      </trkpt>
      <trkpt lat="43.57321" lon="3.01741">
        <ele>175.283463</ele>
        <time>2025-10-23T08:12:22Z</time>
      </trkpt>
      <trkpt lat="43.57321" lon="3.01747">
        <ele>175.355413</ele>
        <time>2025-10-23T08:12:23Z</time>
      </trkpt>
      <trkpt lat="43.5732" lon="3.01752">
        <ele>175.427656</ele>
        <time>2025-10-23T08:12:24Z</time>
      </trkpt>
      <trkpt lat="43.57319" lon="3.01759">
        <ele>175.504708</ele>
        <time>2025-10-23T08:12:25Z</time>
      </trkpt>
      <trkpt lat="43.57319" lon="3.01764">
        <ele>175.577564</ele>
        <time>2025-10-23T08:12:26Z</time>
      </trkpt>
      <trkpt lat="43.57318" lon="3.0177">
        <ele>175.647963</ele>
        <time>2025-10-23T08:12:27Z</time>
      </trkpt>
      <trkpt lat="43.57318" lon="3.01776">
        <ele>175.720959</ele>
        <time>2025-10-23T08:12:28Z</time>
      </trkpt>
      <trkpt lat="43.57317" lon="3.01783">
        <ele>175.802897</ele>
        <time>2025-10-23T08:12:29Z</time>
      </trkpt>
      <trkpt lat="43.57317" lon="3.01789">
        <ele>175.885064</ele>
        <time>2025-10-23T08:12:30Z</time>
      </trkpt>
      <trkpt lat="43.57316" lon="3.01794">
        <ele>175.947979</ele>
        <time>2025-10-23T08:12:31Z</time>
      </trkpt>
      <trkpt lat="43.57316" lon="3.01799">
        <ele>176.010894</ele>
        <time>2025-10-23T08:12:32Z</time>
      </trkpt>
      <trkpt lat="43.57316" lon="3.01804">
        <ele>176.073069</ele>
        <time>2025-10-23T08:12:33Z</time>
      </trkpt>
      <trkpt lat="43.57316" lon="3.0181">
        <ele>176.137124</ele>
        <time>2025-10-23T08:12:34Z</time>
      </trkpt>
      <trkpt lat="43.57315" lon="3.01815">
        <ele>176.206294</ele>
        <time>2025-10-23T08:12:35Z</time>
      </trkpt>
      <trkpt lat="43.57315" lon="3.01821">
        <ele>176.277821</ele>
        <time>2025-10-23T08:12:36Z</time>
      </trkpt>
      <trkpt lat="43.57316" lon="3.01826">
        <ele>176.341011</ele>
        <time>2025-10-23T08:12:37Z</time>
      </trkpt>
      <trkpt lat="43.57316" lon="3.01832">
        <ele>176.408953</ele>
        <time>2025-10-23T08:12:38Z</time>
      </trkpt>
      <trkpt lat="43.57316" lon="3.01837">
        <ele>176.474329</ele>
        <time>2025-10-23T08:12:39Z</time>
      </trkpt>
      <trkpt lat="43.57317" lon="3.01843">
        <ele>176.547324</ele>
        <time>2025-10-23T08:12:40Z</time>
      </trkpt>
      <trkpt lat="43.57317" lon="3.01849">
        <ele>176.626326</ele>
        <time>2025-10-23T08:12:41Z</time>
      </trkpt>
      <trkpt lat="43.57317" lon="3.01855">
        <ele>176.70164</ele>
        <time>2025-10-23T08:12:42Z</time>
      </trkpt>
      <trkpt lat="43.57318" lon="3.01862">
        <ele>176.780152</ele>
        <time>2025-10-23T08:12:43Z</time>
      </trkpt>
      <trkpt lat="43.57319" lon="3.01869">
        <ele>176.874413</ele>
        <time>2025-10-23T08:12:44Z</time>
      </trkpt>
      <trkpt lat="43.5732" lon="3.01876">
        <ele>176.961442</ele>
        <time>2025-10-23T08:12:45Z</time>
      </trkpt>
      <trkpt lat="43.57321" lon="3.01883">
        <ele>177.053607</ele>
        <time>2025-10-23T08:12:46Z</time>
      </trkpt>
      <trkpt lat="43.57321" lon="3.01892">
        <ele>177.153905</ele>
        <time>2025-10-23T08:12:47Z</time>
      </trkpt>
      <trkpt lat="43.57322" lon="3.019">
        <ele>177.254605</ele>
        <time>2025-10-23T08:12:48Z</time>
      </trkpt>
      <trkpt lat="43.57323" lon="3.01907">
        <ele>177.349218</ele>
        <time>2025-10-23T08:12:49Z</time>
      </trkpt>
      <trkpt lat="43.57324" lon="3.01915">
        <ele>177.443157</ele>
        <time>2025-10-23T08:12:50Z</time>
      </trkpt>
      <trkpt lat="43.57326" lon="3.01922">
        <ele>177.537417</ele>
        <time>2025-10-23T08:12:51Z</time>
      </trkpt>
      <trkpt lat="43.57326" lon="3.0193">
        <ele>177.633012</ele>
        <time>2025-10-23T08:12:52Z</time>
      </trkpt>
      <trkpt lat="43.57327" lon="3.01938">
        <ele>177.731521</ele>
        <time>2025-10-23T08:12:53Z</time>
      </trkpt>
      <trkpt lat="43.57328" lon="3.01946">
        <ele>177.832466</ele>
        <time>2025-10-23T08:12:54Z</time>
      </trkpt>
      <trkpt lat="43.57329" lon="3.01954">
        <ele>177.939842</ele>
        <time>2025-10-23T08:12:55Z</time>
      </trkpt>
      <trkpt lat="43.57331" lon="3.01962">
        <ele>178.043722</ele>
        <time>2025-10-23T08:12:56Z</time>
      </trkpt>
      <trkpt lat="43.57332" lon="3.0197">
        <ele>178.135783</ele>
        <time>2025-10-23T08:12:57Z</time>
      </trkpt>
      <trkpt lat="43.57334" lon="3.01977">
        <ele>178.253291</ele>
        <time>2025-10-23T08:12:58Z</time>
      </trkpt>
      <trkpt lat="43.57335" lon="3.01984">
        <ele>178.36259</ele>
        <time>2025-10-23T08:12:59Z</time>
      </trkpt>
      <trkpt lat="43.57337" lon="3.01991">
        <ele>178.470342</ele>
        <time>2025-10-23T08:13:00Z</time>
      </trkpt>
      <trkpt lat="43.57339" lon="3.01996">
        <ele>178.564504</ele>
        <time>2025-10-23T08:13:01Z</time>
      </trkpt>
      <trkpt lat="43.57341" lon="3.02004">
        <ele>178.67934</ele>
        <time>2025-10-23T08:13:02Z</time>
      </trkpt>
      <trkpt lat="43.57343" lon="3.0201">
        <ele>178.791828</ele>
        <time>2025-10-23T08:13:03Z</time>
      </trkpt>
      <trkpt lat="43.57346" lon="3.02017">
        <ele>178.902884</ele>
        <time>2025-10-23T08:13:04Z</time>
      </trkpt>
      <trkpt lat="43.57348" lon="3.02023">
        <ele>179.013581</ele>
        <time>2025-10-23T08:13:05Z</time>
      </trkpt>
      <trkpt lat="43.57351" lon="3.02028">
        <ele>179.114675</ele>
        <time>2025-10-23T08:13:06Z</time>
      </trkpt>
      <trkpt lat="43.57353" lon="3.02034">
        <ele>179.214474</ele>
        <time>2025-10-23T08:13:07Z</time>
      </trkpt>
      <trkpt lat="43.57356" lon="3.0204">
        <ele>179.324227</ele>
        <time>2025-10-23T08:13:08Z</time>
      </trkpt>
      <trkpt lat="43.57358" lon="3.02047">
        <ele>179.435575</ele>
        <time>2025-10-23T08:13:09Z</time>
      </trkpt>
      <trkpt lat="43.5736" lon="3.02054">
        <ele>179.546333</ele>
        <time>2025-10-23T08:13:10Z</time>
      </trkpt>
      <trkpt lat="43.57362" lon="3.0206">
        <ele>179.656338</ele>
        <time>2025-10-23T08:13:11Z</time>
      </trkpt>
      <trkpt lat="43.57365" lon="3.02067">
        <ele>179.765321</ele>
        <time>2025-10-23T08:13:12Z</time>
      </trkpt>
      <trkpt lat="43.57368" lon="3.02072">
        <ele>179.871199</ele>
        <time>2025-10-23T08:13:13Z</time>
      </trkpt>
      <trkpt lat="43.57371" lon="3.02078">
        <ele>179.98063</ele>
        <time>2025-10-23T08:13:14Z</time>
      </trkpt>
      <trkpt lat="43.57373" lon="3.02085">
        <ele>180.092284</ele>
        <time>2025-10-23T08:13:15Z</time>
      </trkpt>
      <trkpt lat="43.57376" lon="3.02091">
        <ele>180.200973</ele>
        <time>2025-10-23T08:13:16Z</time>
      </trkpt>
      <trkpt lat="43.57378" lon="3.02098">
        <ele>180.314373</ele>
        <time>2025-10-23T08:13:17Z</time>
      </trkpt>
      <trkpt lat="43.57381" lon="3.02104">
        <ele>180.423356</ele>
        <time>2025-10-23T08:13:18Z</time>
      </trkpt>
      <trkpt lat="43.57383" lon="3.02111">
        <ele>180.534681</ele>
        <time>2025-10-23T08:13:19Z</time>
      </trkpt>
      <trkpt lat="43.57386" lon="3.02116">
        <ele>180.641608</ele>
        <time>2025-10-23T08:13:20Z</time>
      </trkpt>
      <trkpt lat="43.5739" lon="3.02122">
        <ele>180.752309</ele>
        <time>2025-10-23T08:13:21Z</time>
      </trkpt>
      <trkpt lat="43.57393" lon="3.02128">
        <ele>180.8642</ele>
        <time>2025-10-23T08:13:22Z</time>
      </trkpt>
      <trkpt lat="43.57396" lon="3.02133">
        <ele>180.966563</ele>
        <time>2025-10-23T08:13:23Z</time>
      </trkpt>
      <trkpt lat="43.57399" lon="3.02138">
        <ele>181.06991</ele>
        <time>2025-10-23T08:13:24Z</time>
      </trkpt>
      <trkpt lat="43.57403" lon="3.02143">
        <ele>181.178714</ele>
        <time>2025-10-23T08:13:25Z</time>
      </trkpt>
      <trkpt lat="43.57406" lon="3.02148">
        <ele>181.28505</ele>
        <time>2025-10-23T08:13:26Z</time>
      </trkpt>
      <trkpt lat="43.5741" lon="3.02153">
        <ele>181.394554</ele>
        <time>2025-10-23T08:13:27Z</time>
      </trkpt>
      <trkpt lat="43.57414" lon="3.02159">
        <ele>181.50877</ele>
        <time>2025-10-23T08:13:28Z</time>
      </trkpt>
      <trkpt lat="43.57418" lon="3.02164">
        <ele>181.622985</ele>
        <time>2025-10-23T08:13:29Z</time>
      </trkpt>
      <trkpt lat="43.57421" lon="3.02169">
        <ele>181.730168</ele>
        <time>2025-10-23T08:13:30Z</time>
      </trkpt>
      <trkpt lat="43.57425" lon="3.02174">
        <ele>181.836504</ele>
        <time>2025-10-23T08:13:31Z</time>
      </trkpt>
      <trkpt lat="43.57428" lon="3.02179">
        <ele>181.915009</ele>
        <time>2025-10-23T08:13:32Z</time>
      </trkpt>
      <trkpt lat="43.57431" lon="3.02184">
        <ele>181.962509</ele>
        <time>2025-10-23T08:13:33Z</time>
      </trkpt>
      <trkpt lat="43.57434" lon="3.02189">
        <ele>182.007599</ele>
        <time>2025-10-23T08:13:34Z</time>
      </trkpt>
      <trkpt lat="43.57437" lon="3.02194">
        <ele>182.053276</ele>
        <time>2025-10-23T08:13:35Z</time>
      </trkpt>
      <trkpt lat="43.5744" lon="3.02199">
        <ele>182.097676</ele>
        <time>2025-10-23T08:13:36Z</time>
      </trkpt>
      <trkpt lat="43.57442" lon="3.02204">
        <ele>182.14055</ele>
        <time>2025-10-23T08:13:37Z</time>
      </trkpt>
      <trkpt lat="43.57446" lon="3.02209">
        <ele>182.190306</ele>
        <time>2025-10-23T08:13:38Z</time>
      </trkpt>
      <trkpt lat="43.57449" lon="3.02214">
        <ele>182.237161</ele>
        <time>2025-10-23T08:13:39Z</time>
      </trkpt>
      <trkpt lat="43.57452" lon="3.02219">
        <ele>182.285649</ele>
        <time>2025-10-23T08:13:40Z</time>
      </trkpt>
      <trkpt lat="43.57456" lon="3.02223">
        <ele>182.334854</ele>
        <time>2025-10-23T08:13:41Z</time>
      </trkpt>
      <trkpt lat="43.5746" lon="3.02228">
        <ele>182.383598</ele>
        <time>2025-10-23T08:13:42Z</time>
      </trkpt>
      <trkpt lat="43.57463" lon="3.02233">
        <ele>182.432086</ele>
        <time>2025-10-23T08:13:43Z</time>
      </trkpt>
      <trkpt lat="43.57466" lon="3.02238">
        <ele>182.481756</ele>
        <time>2025-10-23T08:13:44Z</time>
      </trkpt>
      <trkpt lat="43.5747" lon="3.02243">
        <ele>182.528725</ele>
        <time>2025-10-23T08:13:45Z</time>
      </trkpt>
      <trkpt lat="43.57473" lon="3.02248">
        <ele>182.57957</ele>
        <time>2025-10-23T08:13:46Z</time>
      </trkpt>
      <trkpt lat="43.57476" lon="3.02254">
        <ele>182.631157</ele>
        <time>2025-10-23T08:13:47Z</time>
      </trkpt>
      <trkpt lat="43.5748" lon="3.02259">
        <ele>182.678657</ele>
        <time>2025-10-23T08:13:48Z</time>
      </trkpt>
      <trkpt lat="43.57483" lon="3.02263">
        <ele>182.724062</ele>
        <time>2025-10-23T08:13:49Z</time>
      </trkpt>
      <trkpt lat="43.57486" lon="3.02268">
        <ele>182.771695</ele>
        <time>2025-10-23T08:13:50Z</time>
      </trkpt>
      <trkpt lat="43.57489" lon="3.02273">
        <ele>182.815234</ele>
        <time>2025-10-23T08:13:51Z</time>
      </trkpt>
      <trkpt lat="43.57492" lon="3.02277">
        <ele>182.859301</ele>
        <time>2025-10-23T08:13:52Z</time>
      </trkpt>
      <trkpt lat="43.57495" lon="3.02282">
        <ele>182.903899</ele>
        <time>2025-10-23T08:13:53Z</time>
      </trkpt>
      <trkpt lat="43.57499" lon="3.02287">
        <ele>182.95377</ele>
        <time>2025-10-23T08:13:54Z</time>
      </trkpt>
      <trkpt lat="43.57502" lon="3.02292">
        <ele>182.999572</ele>
        <time>2025-10-23T08:13:55Z</time>
      </trkpt>
      <trkpt lat="43.57505" lon="3.02297">
        <ele>183.045889</ele>
        <time>2025-10-23T08:13:56Z</time>
      </trkpt>
      <trkpt lat="43.57508" lon="3.02302">
        <ele>183.094045</ele>
        <time>2025-10-23T08:13:57Z</time>
      </trkpt>
      <trkpt lat="43.57511" lon="3.02306">
        <ele>183.137876</ele>
        <time>2025-10-23T08:13:58Z</time>
      </trkpt>
      <trkpt lat="43.57513" lon="3.02311">
        <ele>183.176528</ele>
        <time>2025-10-23T08:13:59Z</time>
      </trkpt>
      <trkpt lat="43.57515" lon="3.02314">
        <ele>183.201321</ele>
        <time>2025-10-23T08:14:00Z</time>
      </trkpt>
      <trkpt lat="43.57515" lon="3.02315">
        <ele>183.211702</ele>
        <time>2025-10-23T08:14:01Z</time>
      </trkpt>
      <trkpt lat="43.57515" lon="3.02316">
        <ele>183.215974</ele>
        <time>2025-10-23T08:14:02Z</time>
      </trkpt>
      <trkpt lat="43.57515" lon="3.02316">
        <ele>183.222862</ele>
        <time>2025-10-23T08:14:03Z</time>
      </trkpt>
      <trkpt lat="43.57514" lon="3.02316">
        <ele>183.228801</ele>
        <time>2025-10-23T08:14:04Z</time>
      </trkpt>
      <trkpt lat="43.57514" lon="3.02316">
        <ele>183.233917</ele>
        <time>2025-10-23T08:14:05Z</time>
      </trkpt>
      <trkpt lat="43.57513" lon="3.02313">
        <ele>183.257494</ele>
        <time>2025-10-23T08:14:48Z</time>
      </trkpt>
      <trkpt lat="43.57515" lon="3.02313">
        <ele>183.268513</ele>
        <time>2025-10-23T08:14:49Z</time>
      </trkpt>
      <trkpt lat="43.57515" lon="3.02313">
        <ele>183.275393</ele>
        <time>2025-10-23T08:14:50Z</time>
      </trkpt>
      <trkpt lat="43.57516" lon="3.02313">
        <ele>183.279866</ele>
        <time>2025-10-23T08:14:51Z</time>
      </trkpt>
      <trkpt lat="43.57517" lon="3.02314">
        <ele>183.290885</ele>
        <time>2025-10-23T08:14:52Z</time>
      </trkpt>
      <trkpt lat="43.57518" lon="3.02315">
        <ele>183.304752</ele>
        <time>2025-10-23T08:14:53Z</time>
      </trkpt>
      <trkpt lat="43.57519" lon="3.02318">
        <ele>183.327816</ele>
        <time>2025-10-23T08:14:54Z</time>
      </trkpt>
      <trkpt lat="43.57521" lon="3.02321">
        <ele>183.353769</ele>
        <time>2025-10-23T08:14:55Z</time>
      </trkpt>
      <trkpt lat="43.57523" lon="3.02324">
        <ele>183.384666</ele>
        <time>2025-10-23T08:14:56Z</time>
      </trkpt>
      <trkpt lat="43.57525" lon="3.02327">
        <ele>183.417785</ele>
        <time>2025-10-23T08:14:57Z</time>
      </trkpt>
      <trkpt lat="43.57528" lon="3.02332">
        <ele>183.460288</ele>
        <time>2025-10-23T08:14:58Z</time>
      </trkpt>
      <trkpt lat="43.57531" lon="3.02336">
        <ele>183.501084</ele>
        <time>2025-10-23T08:14:59Z</time>
      </trkpt>
      <trkpt lat="43.57534" lon="3.0234">
        <ele>183.54278</ele>
        <time>2025-10-23T08:15:00Z</time>
      </trkpt>
      <trkpt lat="43.57537" lon="3.02345">
        <ele>183.588871</ele>
        <time>2025-10-23T08:15:01Z</time>
      </trkpt>
      <trkpt lat="43.5754" lon="3.02349">
        <ele>183.634459</ele>
        <time>2025-10-23T08:15:02Z</time>
      </trkpt>
      <trkpt lat="43.57543" lon="3.02354">
        <ele>183.68339</ele>
        <time>2025-10-23T08:15:03Z</time>
      </trkpt>
      <trkpt lat="43.57546" lon="3.02359">
        <ele>183.745451</ele>
        <time>2025-10-23T08:15:04Z</time>
      </trkpt>
      <trkpt lat="43.57549" lon="3.02364">
        <ele>183.808379</ele>
        <time>2025-10-23T08:15:05Z</time>
      </trkpt>
      <trkpt lat="43.57552" lon="3.02368">
        <ele>183.865702</ele>
        <time>2025-10-23T08:15:06Z</time>
      </trkpt>
      <trkpt lat="43.57554" lon="3.02373">
        <ele>183.927018</ele>
        <time>2025-10-23T08:15:07Z</time>
      </trkpt>
      <trkpt lat="43.57557" lon="3.02378">
        <ele>183.984319</ele>
        <time>2025-10-23T08:15:08Z</time>
      </trkpt>
      <trkpt lat="43.57559" lon="3.02382">
        <ele>184.039348</ele>
        <time>2025-10-23T08:15:09Z</time>
      </trkpt>
      <trkpt lat="43.57562" lon="3.02386">
        <ele>184.093258</ele>
        <time>2025-10-23T08:15:10Z</time>
      </trkpt>
      <trkpt lat="43.57565" lon="3.02389">
        <ele>184.135894</ele>
        <time>2025-10-23T08:15:11Z</time>
      </trkpt>
      <trkpt lat="43.57567" lon="3.02393">
        <ele>184.186327</ele>
        <time>2025-10-23T08:15:12Z</time>
      </trkpt>
      <trkpt lat="43.5757" lon="3.02397">
        <ele>184.240886</ele>
        <time>2025-10-23T08:15:13Z</time>
      </trkpt>
      <trkpt lat="43.57573" lon="3.02401">
        <ele>184.296055</ele>
        <time>2025-10-23T08:15:14Z</time>
      </trkpt>
      <trkpt lat="43.57576" lon="3.02405">
        <ele>184.352708</ele>
        <time>2025-10-23T08:15:15Z</time>
      </trkpt>
      <trkpt lat="43.57579" lon="3.02409">
        <ele>184.410657</ele>
        <time>2025-10-23T08:15:16Z</time>
      </trkpt>
      <trkpt lat="43.57582" lon="3.02413">
        <ele>184.465877</ele>
        <time>2025-10-23T08:15:17Z</time>
      </trkpt>
      <trkpt lat="43.57584" lon="3.02417">
        <ele>184.519433</ele>
        <time>2025-10-23T08:15:18Z</time>
      </trkpt>
      <trkpt lat="43.57587" lon="3.0242">
        <ele>184.570342</ele>
        <time>2025-10-23T08:15:19Z</time>
      </trkpt>
      <trkpt lat="43.5759" lon="3.02424">
        <ele>184.618914</ele>
        <time>2025-10-23T08:15:20Z</time>
      </trkpt>
      <trkpt lat="43.57592" lon="3.02428">
        <ele>184.670986</ele>
        <time>2025-10-23T08:15:21Z</time>
      </trkpt>
      <trkpt lat="43.57592" lon="3.02428">
        <ele>184.670986</ele>
        <time>2025-10-23T08:15:22Z</time>
      </trkpt>
      <trkpt lat="43.57592" lon="3.02428">
        <ele>184.670986</ele>
        <time>2025-10-23T08:15:23Z</time>
      </trkpt>
      <trkpt lat="43.57592" lon="3.02428">
        <ele>184.670986</ele>
        <time>2025-10-23T08:15:24Z</time>
      </trkpt>
      <trkpt lat="43.57592" lon="3.02428">
        <ele>184.670986</ele>
        <time>2025-10-23T08:15:31Z</time>
      </trkpt>
      <trkpt lat="43.57592" lon="3.02428">
        <ele>184.670986</ele>
        <time>2025-10-23T08:15:32Z</time>
      </trkpt>
      <trkpt lat="43.57592" lon="3.02428">
        <ele>184.670986</ele>
        <time>2025-10-23T08:15:33Z</time>
      </trkpt>
      <trkpt lat="43.57592" lon="3.02428">
        <ele>184.670986</ele>
        <time>2025-10-23T08:15:36Z</time>
      </trkpt>
      <trkpt lat="43.57592" lon="3.02428">
        <ele>184.670986</ele>
        <time>2025-10-23T08:15:41Z</time>
      </trkpt>
      <trkpt lat="43.57592" lon="3.02428">
        <ele>184.670986</ele>
        <time>2025-10-23T08:15:43Z</time>
      </trkpt>
      <trkpt lat="43.57592" lon="3.02428">
        <ele>184.670986</ele>
        <time>2025-10-23T08:15:45Z</time>
      </trkpt>
      <trkpt lat="43.57592" lon="3.02428">
        <ele>184.670986</ele>
        <time>2025-10-23T08:15:46Z</time>
      </trkpt>
      <trkpt lat="43.57592" lon="3.02428">
        <ele>184.670986</ele>
        <time>2025-10-23T08:15:59Z</time>
      </trkpt>
      <trkpt lat="43.57736" lon="3.02634">
        <ele>185.800047</ele>
        <time>2025-10-23T08:16:01Z</time>
      </trkpt>
      <trkpt lat="43.57739" lon="3.02643">
        <ele>185.778427</ele>
        <time>2025-10-23T08:16:02Z</time>
      </trkpt>
      <trkpt lat="43.57743" lon="3.0265">
        <ele>185.760127</ele>
        <time>2025-10-23T08:16:03Z</time>
      </trkpt>
      <trkpt lat="43.57747" lon="3.02655">
        <ele>185.743075</ele>
        <time>2025-10-23T08:16:04Z</time>
      </trkpt>
      <trkpt lat="43.57751" lon="3.02662">
        <ele>185.724718</ele>
        <time>2025-10-23T08:16:05Z</time>
      </trkpt>
      <trkpt lat="43.57755" lon="3.02668">
        <ele>185.707097</ele>
        <time>2025-10-23T08:16:06Z</time>
      </trkpt>
      <trkpt lat="43.57759" lon="3.02674">
        <ele>185.690166</ele>
        <time>2025-10-23T08:16:07Z</time>
      </trkpt>
      <trkpt lat="43.57764" lon="3.0268">
        <ele>185.671363</ele>
        <time>2025-10-23T08:16:08Z</time>
      </trkpt>
      <trkpt lat="43.57767" lon="3.02686">
        <ele>185.653788</ele>
        <time>2025-10-23T08:16:09Z</time>
      </trkpt>
      <trkpt lat="43.57771" lon="3.02693">
        <ele>185.635654</ele>
        <time>2025-10-23T08:16:10Z</time>
      </trkpt>
      <trkpt lat="43.57775" lon="3.027">
        <ele>185.616833</ele>
        <time>2025-10-23T08:16:11Z</time>
      </trkpt>
      <trkpt lat="43.57779" lon="3.02706">
        <ele>185.599351</ele>
        <time>2025-10-23T08:16:12Z</time>
      </trkpt>
      <trkpt lat="43.57782" lon="3.02712">
        <ele>185.583856</ele>
        <time>2025-10-23T08:16:13Z</time>
      </trkpt>
      <trkpt lat="43.57786" lon="3.02717">
        <ele>185.567305</ele>
        <time>2025-10-23T08:16:14Z</time>
      </trkpt>
      <trkpt lat="43.5779" lon="3.02722">
        <ele>185.518511</ele>
        <time>2025-10-23T08:16:15Z</time>
      </trkpt>
      <trkpt lat="43.57793" lon="3.02727">
        <ele>185.476849</ele>
        <time>2025-10-23T08:16:16Z</time>
      </trkpt>
      <trkpt lat="43.57797" lon="3.02733">
        <ele>185.426254</ele>
        <time>2025-10-23T08:16:17Z</time>
      </trkpt>
      <trkpt lat="43.57801" lon="3.02739">
        <ele>185.371669</ele>
        <time>2025-10-23T08:16:18Z</time>
      </trkpt>
      <trkpt lat="43.57805" lon="3.02744">
        <ele>185.323098</ele>
        <time>2025-10-23T08:16:19Z</time>
      </trkpt>
      <trkpt lat="43.57809" lon="3.02749">
        <ele>185.274031</ele>
        <time>2025-10-23T08:16:20Z</time>
      </trkpt>
      <trkpt lat="43.57813" lon="3.02755">
        <ele>185.224597</ele>
        <time>2025-10-23T08:16:21Z</time>
      </trkpt>
      <trkpt lat="43.57818" lon="3.0276">
        <ele>185.174517</ele>
        <time>2025-10-23T08:16:22Z</time>
      </trkpt>
      <trkpt lat="43.57822" lon="3.02765">
        <ele>185.126161</ele>
        <time>2025-10-23T08:16:23Z</time>
      </trkpt>
      <trkpt lat="43.57826" lon="3.02771">
        <ele>185.076289</ele>
        <time>2025-10-23T08:16:24Z</time>
      </trkpt>
      <trkpt lat="43.5783" lon="3.02776">
        <ele>185.024899</ele>
        <time>2025-10-23T08:16:25Z</time>
      </trkpt>
      <trkpt lat="43.57834" lon="3.02782">
        <ele>184.975027</ele>
        <time>2025-10-23T08:16:26Z</time>
      </trkpt>
      <trkpt lat="43.57838" lon="3.02787">
        <ele>184.92596</ele>
        <time>2025-10-23T08:16:27Z</time>
      </trkpt>
      <trkpt lat="43.57842" lon="3.02793">
        <ele>184.876273</ele>
        <time>2025-10-23T08:16:28Z</time>
      </trkpt>
      <trkpt lat="43.57846" lon="3.02798">
        <ele>184.825324</ele>
        <time>2025-10-23T08:16:29Z</time>
      </trkpt>
      <trkpt lat="43.5785" lon="3.02804">
        <ele>184.773659</ele>
        <time>2025-10-23T08:16:30Z</time>
      </trkpt>
      <trkpt lat="43.57854" lon="3.0281">
        <ele>184.721882</ele>
        <time>2025-10-23T08:16:31Z</time>
      </trkpt>
      <trkpt lat="43.57858" lon="3.02816">
        <ele>184.669617</ele>
        <time>2025-10-23T08:16:32Z</time>
      </trkpt>
      <trkpt lat="43.57861" lon="3.02823">
        <ele>184.614887</ele>
        <time>2025-10-23T08:16:33Z</time>
      </trkpt>
      <trkpt lat="43.57865" lon="3.0283">
        <ele>184.559535</ele>
        <time>2025-10-23T08:16:34Z</time>
      </trkpt>
      <trkpt lat="43.57869" lon="3.02837">
        <ele>184.504183</ele>
        <time>2025-10-23T08:16:35Z</time>
      </trkpt>
      <trkpt lat="43.57873" lon="3.02843">
        <ele>184.449809</ele>
        <time>2025-10-23T08:16:36Z</time>
      </trkpt>
      <trkpt lat="43.57877" lon="3.0285">
        <ele>184.393894</ele>
        <time>2025-10-23T08:16:37Z</time>
      </trkpt>
      <trkpt lat="43.57881" lon="3.02857">
        <ele>184.339098</ele>
        <time>2025-10-23T08:16:38Z</time>
      </trkpt>
      <trkpt lat="43.57885" lon="3.02863">
        <ele>184.284724</ele>
        <time>2025-10-23T08:16:39Z</time>
      </trkpt>
      <trkpt lat="43.57889" lon="3.0287">
        <ele>184.229473</ele>
        <time>2025-10-23T08:16:40Z</time>
      </trkpt>
      <trkpt lat="43.57893" lon="3.02877">
        <ele>184.172666</ele>
        <time>2025-10-23T08:16:41Z</time>
      </trkpt>
      <trkpt lat="43.57897" lon="3.02885">
        <ele>184.114816</ele>
        <time>2025-10-23T08:16:42Z</time>
      </trkpt>
      <trkpt lat="43.579" lon="3.02893">
        <ele>184.055684</ele>
        <time>2025-10-23T08:16:43Z</time>
      </trkpt>
      <trkpt lat="43.57904" lon="3.029">
        <ele>183.998616</ele>
        <time>2025-10-23T08:16:44Z</time>
      </trkpt>
      <trkpt lat="43.57908" lon="3.02906">
        <ele>183.969225</ele>
        <time>2025-10-23T08:16:45Z</time>
      </trkpt>
      <trkpt lat="43.57912" lon="3.02913">
        <ele>183.946689</ele>
        <time>2025-10-23T08:16:46Z</time>
      </trkpt>
      <trkpt lat="43.57916" lon="3.02921">
        <ele>183.923137</ele>
        <time>2025-10-23T08:16:47Z</time>
      </trkpt>
      <trkpt lat="43.5792" lon="3.02929">
        <ele>183.89938</ele>
        <time>2025-10-23T08:16:48Z</time>
      </trkpt>
      <trkpt lat="43.57924" lon="3.02937">
        <ele>183.876196</ele>
        <time>2025-10-23T08:16:49Z</time>
      </trkpt>
      <trkpt lat="43.57927" lon="3.02945">
        <ele>183.8528</ele>
        <time>2025-10-23T08:16:50Z</time>
      </trkpt>
      <trkpt lat="43.57931" lon="3.02953">
        <ele>183.828509</ele>
        <time>2025-10-23T08:16:51Z</time>
      </trkpt>
      <trkpt lat="43.57934" lon="3.02961">
        <ele>183.805649</ele>
        <time>2025-10-23T08:16:52Z</time>
      </trkpt>
      <trkpt lat="43.57937" lon="3.02968">
        <ele>183.783894</ele>
        <time>2025-10-23T08:16:53Z</time>
      </trkpt>
      <trkpt lat="43.5794" lon="3.02976">
        <ele>183.762418</ele>
        <time>2025-10-23T08:16:54Z</time>
      </trkpt>
      <trkpt lat="43.57944" lon="3.02983">
        <ele>183.740206</ele>
        <time>2025-10-23T08:16:55Z</time>
      </trkpt>
      <trkpt lat="43.57947" lon="3.02991">
        <ele>183.717995</ele>
        <time>2025-10-23T08:16:56Z</time>
      </trkpt>
      <trkpt lat="43.5795" lon="3.02998">
        <ele>183.69666</ele>
        <time>2025-10-23T08:16:57Z</time>
      </trkpt>
      <trkpt lat="43.57953" lon="3.03006">
        <ele>183.67499</ele>
        <time>2025-10-23T08:16:58Z</time>
      </trkpt>
      <trkpt lat="43.57955" lon="3.03014">
        <ele>183.652714</ele>
        <time>2025-10-23T08:16:59Z</time>
      </trkpt>
      <trkpt lat="43.57958" lon="3.03022">
        <ele>183.630777</ele>
        <time>2025-10-23T08:17:00Z</time>
      </trkpt>
      <trkpt lat="43.5796" lon="3.03031">
        <ele>183.607781</ele>
        <time>2025-10-23T08:17:01Z</time>
      </trkpt>
      <trkpt lat="43.57963" lon="3.03039">
        <ele>183.584189</ele>
        <time>2025-10-23T08:17:02Z</time>
      </trkpt>
      <trkpt lat="43.57966" lon="3.03048">
        <ele>183.560863</ele>
        <time>2025-10-23T08:17:03Z</time>
      </trkpt>
      <trkpt lat="43.57968" lon="3.03057">
        <ele>183.536445</ele>
        <time>2025-10-23T08:17:04Z</time>
      </trkpt>
      <trkpt lat="43.5797" lon="3.03067">
        <ele>183.511886</ele>
        <time>2025-10-23T08:17:05Z</time>
      </trkpt>
      <trkpt lat="43.57972" lon="3.03076">
        <ele>183.487087</ele>
        <time>2025-10-23T08:17:06Z</time>
      </trkpt>
      <trkpt lat="43.57974" lon="3.03085">
        <ele>183.463623</ele>
        <time>2025-10-23T08:17:07Z</time>
      </trkpt>
      <trkpt lat="43.57975" lon="3.03094">
        <ele>183.439337</ele>
        <time>2025-10-23T08:17:08Z</time>
      </trkpt>
      <trkpt lat="43.57977" lon="3.03104">
        <ele>183.415698</ele>
        <time>2025-10-23T08:17:09Z</time>
      </trkpt>
      <trkpt lat="43.57979" lon="3.03112">
        <ele>183.394076</ele>
        <time>2025-10-23T08:17:10Z</time>
      </trkpt>
      <trkpt lat="43.57981" lon="3.03121">
        <ele>183.369277</ele>
        <time>2025-10-23T08:17:11Z</time>
      </trkpt>
      <trkpt lat="43.57982" lon="3.0313">
        <ele>183.33122</ele>
        <time>2025-10-23T08:17:12Z</time>
      </trkpt>
      <trkpt lat="43.57983" lon="3.03139">
        <ele>183.286373</ele>
        <time>2025-10-23T08:17:13Z</time>
      </trkpt>
      <trkpt lat="43.57984" lon="3.03148">
        <ele>183.23819</ele>
        <time>2025-10-23T08:17:14Z</time>
      </trkpt>
      <trkpt lat="43.57985" lon="3.03157">
        <ele>183.194672</ele>
        <time>2025-10-23T08:17:15Z</time>
      </trkpt>
      <trkpt lat="43.57987" lon="3.03166">
        <ele>183.149692</ele>
        <time>2025-10-23T08:17:16Z</time>
      </trkpt>
      <trkpt lat="43.57988" lon="3.03175">
        <ele>183.103595</ele>
        <time>2025-10-23T08:17:17Z</time>
      </trkpt>
      <trkpt lat="43.57989" lon="3.03184">
        <ele>183.057003</ele>
        <time>2025-10-23T08:17:18Z</time>
      </trkpt>
      <trkpt lat="43.5799" lon="3.03193">
        <ele>183.01314</ele>
        <time>2025-10-23T08:17:19Z</time>
      </trkpt>
      <trkpt lat="43.57991" lon="3.03201">
        <ele>182.969811</ele>
        <time>2025-10-23T08:17:20Z</time>
      </trkpt>
      <trkpt lat="43.57992" lon="3.0321">
        <ele>182.925694</ele>
        <time>2025-10-23T08:17:21Z</time>
      </trkpt>
      <trkpt lat="43.57994" lon="3.03219">
        <ele>182.878122</ele>
        <time>2025-10-23T08:17:22Z</time>
      </trkpt>
      <trkpt lat="43.57995" lon="3.03227">
        <ele>182.836074</ele>
        <time>2025-10-23T08:17:23Z</time>
      </trkpt>
      <trkpt lat="43.57997" lon="3.03235">
        <ele>182.792957</ele>
        <time>2025-10-23T08:17:24Z</time>
      </trkpt>
      <trkpt lat="43.57998" lon="3.03243">
        <ele>182.753159</ele>
        <time>2025-10-23T08:17:25Z</time>
      </trkpt>
      <trkpt lat="43.57999" lon="3.03252">
        <ele>182.709641</ele>
        <time>2025-10-23T08:17:26Z</time>
      </trkpt>
      <trkpt lat="43.58" lon="3.03261">
        <ele>182.664139</ele>
        <time>2025-10-23T08:17:27Z</time>
      </trkpt>
      <trkpt lat="43.58001" lon="3.0327">
        <ele>182.617732</ele>
        <time>2025-10-23T08:17:28Z</time>
      </trkpt>
      <trkpt lat="43.58001" lon="3.03278">
        <ele>182.575521</ele>
        <time>2025-10-23T08:17:29Z</time>
      </trkpt>
      <trkpt lat="43.58002" lon="3.03286">
        <ele>182.535805</ele>
        <time>2025-10-23T08:17:30Z</time>
      </trkpt>
      <trkpt lat="43.58003" lon="3.03295">
        <ele>182.491193</ele>
        <time>2025-10-23T08:17:31Z</time>
      </trkpt>
      <trkpt lat="43.58004" lon="3.03304">
        <ele>182.444106</ele>
        <time>2025-10-23T08:17:32Z</time>
      </trkpt>
      <trkpt lat="43.58004" lon="3.03313">
        <ele>182.399446</ele>
        <time>2025-10-23T08:17:33Z</time>
      </trkpt>
      <trkpt lat="43.58005" lon="3.03322">
        <ele>182.357235</ele>
        <time>2025-10-23T08:17:34Z</time>
      </trkpt>
      <trkpt lat="43.58005" lon="3.0333">
        <ele>182.31516</ele>
        <time>2025-10-23T08:17:35Z</time>
      </trkpt>
      <trkpt lat="43.58005" lon="3.03339">
        <ele>182.271087</ele>
        <time>2025-10-23T08:17:36Z</time>
      </trkpt>
      <trkpt lat="43.58005" lon="3.03348">
        <ele>182.223989</ele>
        <time>2025-10-23T08:17:37Z</time>
      </trkpt>
      <trkpt lat="43.58005" lon="3.03358">
        <ele>182.175404</ele>
        <time>2025-10-23T08:17:38Z</time>
      </trkpt>
      <trkpt lat="43.58005" lon="3.03367">
        <ele>182.129824</ele>
        <time>2025-10-23T08:17:39Z</time>
      </trkpt>
      <trkpt lat="43.58005" lon="3.03376">
        <ele>182.030181</ele>
        <time>2025-10-23T08:17:40Z</time>
      </trkpt>
      <trkpt lat="43.58005" lon="3.03385">
        <ele>181.920674</ele>
        <time>2025-10-23T08:17:41Z</time>
      </trkpt>
      <trkpt lat="43.58005" lon="3.03395">
        <ele>181.803868</ele>
        <time>2025-10-23T08:17:42Z</time>
      </trkpt>
      <trkpt lat="43.58005" lon="3.03404">
        <ele>181.695578</ele>
        <time>2025-10-23T08:17:43Z</time>
      </trkpt>
      <trkpt lat="43.58005" lon="3.03412">
        <ele>181.590896</ele>
        <time>2025-10-23T08:17:44Z</time>
      </trkpt>
      <trkpt lat="43.58005" lon="3.03421">
        <ele>181.492294</ele>
        <time>2025-10-23T08:17:45Z</time>
      </trkpt>
      <trkpt lat="43.58005" lon="3.03429">
        <ele>181.393692</ele>
        <time>2025-10-23T08:17:46Z</time>
      </trkpt>
      <trkpt lat="43.58005" lon="3.03437">
        <ele>181.292658</ele>
        <time>2025-10-23T08:17:47Z</time>
      </trkpt>
      <trkpt lat="43.58004" lon="3.03445">
        <ele>181.193984</ele>
        <time>2025-10-23T08:17:48Z</time>
      </trkpt>
      <trkpt lat="43.58004" lon="3.03454">
        <ele>181.089303</ele>
        <time>2025-10-23T08:17:49Z</time>
      </trkpt>
      <trkpt lat="43.58004" lon="3.03462">
        <ele>180.982123</ele>
        <time>2025-10-23T08:17:50Z</time>
      </trkpt>
      <trkpt lat="43.58003" lon="3.03471">
        <ele>180.880922</ele>
        <time>2025-10-23T08:17:51Z</time>
      </trkpt>
      <trkpt lat="43.58003" lon="3.03479">
        <ele>180.780653</ele>
        <time>2025-10-23T08:17:52Z</time>
      </trkpt>
      <trkpt lat="43.58002" lon="3.03488">
        <ele>180.67201</ele>
        <time>2025-10-23T08:17:53Z</time>
      </trkpt>
      <trkpt lat="43.58" lon="3.03497">
        <ele>180.561873</ele>
        <time>2025-10-23T08:17:54Z</time>
      </trkpt>
      <trkpt lat="43.57999" lon="3.03505">
        <ele>180.462927</ele>
        <time>2025-10-23T08:17:55Z</time>
      </trkpt>
      <trkpt lat="43.57998" lon="3.03513">
        <ele>180.35744</ele>
        <time>2025-10-23T08:17:56Z</time>
      </trkpt>
      <trkpt lat="43.57998" lon="3.03522">
        <ele>180.248526</ele>
        <time>2025-10-23T08:17:57Z</time>
      </trkpt>
      <trkpt lat="43.57997" lon="3.03531">
        <ele>180.137993</ele>
        <time>2025-10-23T08:17:58Z</time>
      </trkpt>
      <trkpt lat="43.57996" lon="3.0354">
        <ele>180.032026</ele>
        <time>2025-10-23T08:17:59Z</time>
      </trkpt>
      <trkpt lat="43.57995" lon="3.03549">
        <ele>179.920048</ele>
        <time>2025-10-23T08:18:00Z</time>
      </trkpt>
      <trkpt lat="43.57994" lon="3.03557">
        <ele>179.814081</ele>
        <time>2025-10-23T08:18:01Z</time>
      </trkpt>
      <trkpt lat="43.57992" lon="3.03566">
        <ele>179.702431</ele>
        <time>2025-10-23T08:18:02Z</time>
      </trkpt>
      <trkpt lat="43.57991" lon="3.03575">
        <ele>179.598866</ele>
        <time>2025-10-23T08:18:03Z</time>
      </trkpt>
      <trkpt lat="43.5799" lon="3.03583">
        <ele>179.490441</ele>
        <time>2025-10-23T08:18:04Z</time>
      </trkpt>
      <trkpt lat="43.57989" lon="3.03592">
        <ele>179.388318</ele>
        <time>2025-10-23T08:18:05Z</time>
      </trkpt>
      <trkpt lat="43.57987" lon="3.036">
        <ele>179.287733</ele>
        <time>2025-10-23T08:18:06Z</time>
      </trkpt>
      <trkpt lat="43.57986" lon="3.03608">
        <ele>179.185238</ele>
        <time>2025-10-23T08:18:07Z</time>
      </trkpt>
      <trkpt lat="43.57985" lon="3.03616">
        <ele>179.098166</ele>
        <time>2025-10-23T08:18:08Z</time>
      </trkpt>
      <trkpt lat="43.57983" lon="3.03625">
        <ele>179.094731</ele>
        <time>2025-10-23T08:18:09Z</time>
      </trkpt>
      <trkpt lat="43.57981" lon="3.03633">
        <ele>179.091303</ele>
        <time>2025-10-23T08:18:10Z</time>
      </trkpt>
      <trkpt lat="43.57979" lon="3.03642">
        <ele>179.087777</ele>
        <time>2025-10-23T08:18:11Z</time>
      </trkpt>
      <trkpt lat="43.57977" lon="3.0365">
        <ele>179.084387</ele>
        <time>2025-10-23T08:18:12Z</time>
      </trkpt>
      <trkpt lat="43.57974" lon="3.03658">
        <ele>179.081027</ele>
        <time>2025-10-23T08:18:13Z</time>
      </trkpt>
      <trkpt lat="43.57972" lon="3.03665">
        <ele>179.077681</ele>
        <time>2025-10-23T08:18:14Z</time>
      </trkpt>
      <trkpt lat="43.57969" lon="3.03673">
        <ele>179.074364</ele>
        <time>2025-10-23T08:18:15Z</time>
      </trkpt>
      <trkpt lat="43.57967" lon="3.03681">
        <ele>179.071123</ele>
        <time>2025-10-23T08:18:16Z</time>
      </trkpt>
      <trkpt lat="43.57965" lon="3.03689">
        <ele>179.06779</ele>
        <time>2025-10-23T08:18:17Z</time>
      </trkpt>
      <trkpt lat="43.57963" lon="3.03697">
        <ele>179.064493</ele>
        <time>2025-10-23T08:18:18Z</time>
      </trkpt>
      <trkpt lat="43.57962" lon="3.03705">
        <ele>179.061194</ele>
        <time>2025-10-23T08:18:19Z</time>
      </trkpt>
      <trkpt lat="43.5796" lon="3.03713">
        <ele>179.057898</ele>
        <time>2025-10-23T08:18:20Z</time>
      </trkpt>
      <trkpt lat="43.57958" lon="3.0372">
        <ele>179.054602</ele>
        <time>2025-10-23T08:18:21Z</time>
      </trkpt>
      <trkpt lat="43.57956" lon="3.03728">
        <ele>179.051323</ele>
        <time>2025-10-23T08:18:22Z</time>
      </trkpt>
      <trkpt lat="43.57954" lon="3.03736">
        <ele>179.048249</ele>
        <time>2025-10-23T08:18:23Z</time>
      </trkpt>
      <trkpt lat="43.57952" lon="3.03743">
        <ele>179.045304</ele>
        <time>2025-10-23T08:18:24Z</time>
      </trkpt>
      <trkpt lat="43.5795" lon="3.0375">
        <ele>179.042284</ele>
        <time>2025-10-23T08:18:25Z</time>
      </trkpt>
      <trkpt lat="43.57947" lon="3.03757">
        <ele>179.03928</ele>
        <time>2025-10-23T08:18:26Z</time>
      </trkpt>
      <trkpt lat="43.57945" lon="3.03764">
        <ele>179.036239</ele>
        <time>2025-10-23T08:18:27Z</time>
      </trkpt>
      <trkpt lat="43.57943" lon="3.03771">
        <ele>179.033291</ele>
        <time>2025-10-23T08:18:28Z</time>
      </trkpt>
      <trkpt lat="43.57941" lon="3.03778">
        <ele>179.030253</ele>
        <time>2025-10-23T08:18:29Z</time>
      </trkpt>
      <trkpt lat="43.57939" lon="3.03785">
        <ele>179.027235</ele>
        <time>2025-10-23T08:18:30Z</time>
      </trkpt>
      <trkpt lat="43.57937" lon="3.03792">
        <ele>179.024136</ele>
        <time>2025-10-23T08:18:31Z</time>
      </trkpt>
      <trkpt lat="43.57934" lon="3.03799">
        <ele>179.021026</ele>
        <time>2025-10-23T08:18:32Z</time>
      </trkpt>
      <trkpt lat="43.57932" lon="3.03806">
        <ele>179.017917</ele>
        <time>2025-10-23T08:18:33Z</time>
      </trkpt>
      <trkpt lat="43.57929" lon="3.03814">
        <ele>179.014817</ele>
        <time>2025-10-23T08:18:34Z</time>
      </trkpt>
      <trkpt lat="43.57927" lon="3.03821">
        <ele>179.01174</ele>
        <time>2025-10-23T08:18:35Z</time>
      </trkpt>
      <trkpt lat="43.57925" lon="3.03828">
        <ele>179.008682</ele>
        <time>2025-10-23T08:18:36Z</time>
      </trkpt>
      <trkpt lat="43.57923" lon="3.03835">
        <ele>179.005691</ele>
        <time>2025-10-23T08:18:37Z</time>
      </trkpt>
      <trkpt lat="43.57921" lon="3.03842">
        <ele>179.002727</ele>
        <time>2025-10-23T08:18:38Z</time>
      </trkpt>
      <trkpt lat="43.57919" lon="3.03849">
        <ele>178.966716</ele>
        <time>2025-10-23T08:18:39Z</time>
      </trkpt>
      <trkpt lat="43.57917" lon="3.03855">
        <ele>178.879087</ele>
        <time>2025-10-23T08:18:40Z</time>
      </trkpt>
      <trkpt lat="43.57915" lon="3.03862">
        <ele>178.796493</ele>
        <time>2025-10-23T08:18:41Z</time>
      </trkpt>
      <trkpt lat="43.57913" lon="3.03869">
        <ele>178.715008</ele>
        <time>2025-10-23T08:18:42Z</time>
      </trkpt>
      <trkpt lat="43.57911" lon="3.03876">
        <ele>178.624583</ele>
        <time>2025-10-23T08:18:43Z</time>
      </trkpt>
      <trkpt lat="43.57909" lon="3.03882">
        <ele>178.537421</ele>
        <time>2025-10-23T08:18:44Z</time>
      </trkpt>
      <trkpt lat="43.57907" lon="3.03889">
        <ele>178.449792</ele>
        <time>2025-10-23T08:18:45Z</time>
      </trkpt>
      <trkpt lat="43.57905" lon="3.03896">
        <ele>178.359821</ele>
        <time>2025-10-23T08:18:46Z</time>
      </trkpt>
      <trkpt lat="43.57903" lon="3.03903">
        <ele>178.272191</ele>
        <time>2025-10-23T08:18:47Z</time>
      </trkpt>
      <trkpt lat="43.57901" lon="3.0391">
        <ele>178.186746</ele>
        <time>2025-10-23T08:18:48Z</time>
      </trkpt>
      <trkpt lat="43.57899" lon="3.03916">
        <ele>178.102828</ele>
        <time>2025-10-23T08:18:49Z</time>
      </trkpt>
      <trkpt lat="43.57897" lon="3.03923">
        <ele>178.021724</ele>
        <time>2025-10-23T08:18:50Z</time>
      </trkpt>
      <trkpt lat="43.57895" lon="3.03929">
        <ele>177.94515</ele>
        <time>2025-10-23T08:18:51Z</time>
      </trkpt>
      <trkpt lat="43.57893" lon="3.03935">
        <ele>177.866201</ele>
        <time>2025-10-23T08:18:52Z</time>
      </trkpt>
      <trkpt lat="43.57891" lon="3.03941">
        <ele>177.785249</ele>
        <time>2025-10-23T08:18:53Z</time>
      </trkpt>
      <trkpt lat="43.57889" lon="3.03948">
        <ele>177.700411</ele>
        <time>2025-10-23T08:18:54Z</time>
      </trkpt>
      <trkpt lat="43.57887" lon="3.03954">
        <ele>177.622119</ele>
        <time>2025-10-23T08:18:55Z</time>
      </trkpt>
      <trkpt lat="43.57886" lon="3.03959">
        <ele>177.55485</ele>
        <time>2025-10-23T08:18:56Z</time>
      </trkpt>
      <trkpt lat="43.57885" lon="3.03962">
        <ele>177.512363</ele>
        <time>2025-10-23T08:18:57Z</time>
      </trkpt>
      <trkpt lat="43.57884" lon="3.03964">
        <ele>177.496275</ele>
        <time>2025-10-23T08:18:58Z</time>
      </trkpt>
      <trkpt lat="43.57884" lon="3.03964">
        <ele>177.495096</ele>
        <time>2025-10-23T08:18:59Z</time>
      </trkpt>
      <trkpt lat="43.57884" lon="3.03963">
        <ele>177.485663</ele>
        <time>2025-10-23T08:19:00Z</time>
      </trkpt>
      <trkpt lat="43.57884" lon="3.03962">
        <ele>177.472901</ele>
        <time>2025-10-23T08:19:01Z</time>
      </trkpt>
      <trkpt lat="43.57884" lon="3.03961">
        <ele>177.466785</ele>
        <time>2025-10-23T08:19:02Z</time>
      </trkpt>
      <trkpt lat="43.57884" lon="3.0396">
        <ele>177.454023</ele>
        <time>2025-10-23T08:19:03Z</time>
      </trkpt>
      <trkpt lat="43.57885" lon="3.0396">
        <ele>177.44079</ele>
        <time>2025-10-23T08:19:04Z</time>
      </trkpt>
      <trkpt lat="43.57886" lon="3.03961">
        <ele>177.42873</ele>
        <time>2025-10-23T08:19:05Z</time>
      </trkpt>
      <trkpt lat="43.57886" lon="3.0396">
        <ele>177.423923</ele>
        <time>2025-10-23T08:19:06Z</time>
      </trkpt>
      <trkpt lat="43.57886" lon="3.0396">
        <ele>177.417413</ele>
        <time>2025-10-23T08:19:07Z</time>
      </trkpt>
      <trkpt lat="43.57886" lon="3.0396">
        <ele>177.417413</ele>
        <time>2025-10-23T08:19:08Z</time>
      </trkpt>
      <trkpt lat="43.57886" lon="3.0396">
        <ele>177.415785</ele>
        <time>2025-10-23T08:19:09Z</time>
      </trkpt>
      <trkpt lat="43.57887" lon="3.03961">
        <ele>177.409168</ele>
        <time>2025-10-23T08:19:10Z</time>
      </trkpt>
      <trkpt lat="43.57887" lon="3.0396">
        <ele>177.407158</ele>
        <time>2025-10-23T08:19:11Z</time>
      </trkpt>
      <trkpt lat="43.57885" lon="3.03963">
        <ele>177.366933</ele>
        <time>2025-10-23T08:20:33Z</time>
      </trkpt>
      <trkpt lat="43.57885" lon="3.03963">
        <ele>177.364923</ele>
        <time>2025-10-23T08:20:34Z</time>
      </trkpt>
      <trkpt lat="43.57885" lon="3.03963">
        <ele>177.361461</ele>
        <time>2025-10-23T08:20:35Z</time>
      </trkpt>
      <trkpt lat="43.57884" lon="3.03964">
        <ele>177.348633</ele>
        <time>2025-10-23T08:20:36Z</time>
      </trkpt>
      <trkpt lat="43.57884" lon="3.03965">
        <ele>177.329533</ele>
        <time>2025-10-23T08:20:37Z</time>
      </trkpt>
      <trkpt lat="43.57883" lon="3.03967">
        <ele>177.301557</ele>
        <time>2025-10-23T08:20:38Z</time>
      </trkpt>
      <trkpt lat="43.57882" lon="3.0397">
        <ele>177.26327</ele>
        <time>2025-10-23T08:20:39Z</time>
      </trkpt>
      <trkpt lat="43.57881" lon="3.03974">
        <ele>177.21932</ele>
        <time>2025-10-23T08:20:40Z</time>
      </trkpt>
      <trkpt lat="43.57881" lon="3.03978">
        <ele>177.169999</ele>
        <time>2025-10-23T08:20:41Z</time>
      </trkpt>
      <trkpt lat="43.5788" lon="3.03982">
        <ele>177.118033</ele>
        <time>2025-10-23T08:20:42Z</time>
      </trkpt>
      <trkpt lat="43.57879" lon="3.03986">
        <ele>177.063763</ele>
        <time>2025-10-23T08:20:43Z</time>
      </trkpt>
      <trkpt lat="43.57879" lon="3.03991">
        <ele>177.004717</ele>
        <time>2025-10-23T08:20:44Z</time>
      </trkpt>
      <trkpt lat="43.5788" lon="3.03996">
        <ele>176.950447</ele>
        <time>2025-10-23T08:20:45Z</time>
      </trkpt>
      <trkpt lat="43.57879" lon="3.03999">
        <ele>176.909355</ele>
        <time>2025-10-23T08:20:46Z</time>
      </trkpt>
      <trkpt lat="43.57877" lon="3.04002">
        <ele>176.865214</ele>
        <time>2025-10-23T08:20:47Z</time>
      </trkpt>
      <trkpt lat="43.57876" lon="3.04005">
        <ele>176.821227</ele>
        <time>2025-10-23T08:20:48Z</time>
      </trkpt>
      <trkpt lat="43.57875" lon="3.04008">
        <ele>176.781005</ele>
        <time>2025-10-23T08:20:49Z</time>
      </trkpt>
      <trkpt lat="43.57877" lon="3.04012">
        <ele>176.736019</ele>
        <time>2025-10-23T08:20:50Z</time>
      </trkpt>
      <trkpt lat="43.57878" lon="3.04015">
        <ele>176.69099</ele>
        <time>2025-10-23T08:20:51Z</time>
      </trkpt>
      <trkpt lat="43.57881" lon="3.04016">
        <ele>176.643618</ele>
        <time>2025-10-23T08:20:52Z</time>
      </trkpt>
      <trkpt lat="43.57884" lon="3.04017">
        <ele>176.589645</ele>
        <time>2025-10-23T08:20:53Z</time>
      </trkpt>
      <trkpt lat="43.57887" lon="3.0402">
        <ele>176.528601</ele>
        <time>2025-10-23T08:20:54Z</time>
      </trkpt>
      <trkpt lat="43.57891" lon="3.04023">
        <ele>176.46698</ele>
        <time>2025-10-23T08:20:55Z</time>
      </trkpt>
      <trkpt lat="43.57893" lon="3.04026">
        <ele>176.409057</ele>
        <time>2025-10-23T08:20:56Z</time>
      </trkpt>
      <trkpt lat="43.57895" lon="3.0403">
        <ele>176.355203</ele>
        <time>2025-10-23T08:20:57Z</time>
      </trkpt>
      <trkpt lat="43.57894" lon="3.04035">
        <ele>176.303093</ele>
        <time>2025-10-23T08:20:58Z</time>
      </trkpt>
      <trkpt lat="43.57893" lon="3.04038">
        <ele>176.255143</ele>
        <time>2025-10-23T08:20:59Z</time>
      </trkpt>
      <trkpt lat="43.57891" lon="3.04042">
        <ele>176.200709</ele>
        <time>2025-10-23T08:21:00Z</time>
      </trkpt>
      <trkpt lat="43.57888" lon="3.04045">
        <ele>176.148794</ele>
        <time>2025-10-23T08:21:01Z</time>
      </trkpt>
      <trkpt lat="43.57886" lon="3.04048">
        <ele>176.090096</ele>
        <time>2025-10-23T08:21:02Z</time>
      </trkpt>
      <trkpt lat="43.57883" lon="3.04051">
        <ele>176.094562</ele>
        <time>2025-10-23T08:21:03Z</time>
      </trkpt>
      <trkpt lat="43.5788" lon="3.04055">
        <ele>176.12376</ele>
        <time>2025-10-23T08:21:04Z</time>
      </trkpt>
      <trkpt lat="43.57876" lon="3.04058">
        <ele>176.154227</ele>
        <time>2025-10-23T08:21:05Z</time>
      </trkpt>
      <trkpt lat="43.57873" lon="3.04061">
        <ele>176.184711</ele>
        <time>2025-10-23T08:21:06Z</time>
      </trkpt>
      <trkpt lat="43.57869" lon="3.04064">
        <ele>176.215566</ele>
        <time>2025-10-23T08:21:07Z</time>
      </trkpt>
      <trkpt lat="43.57866" lon="3.04066">
        <ele>176.246816</ele>
        <time>2025-10-23T08:21:08Z</time>
      </trkpt>
      <trkpt lat="43.57862" lon="3.04069">
        <ele>176.280307</ele>
        <time>2025-10-23T08:21:09Z</time>
      </trkpt>
      <trkpt lat="43.57858" lon="3.04071">
        <ele>176.313574</ele>
        <time>2025-10-23T08:21:10Z</time>
      </trkpt>
      <trkpt lat="43.57854" lon="3.04075">
        <ele>176.349985</ele>
        <time>2025-10-23T08:21:11Z</time>
      </trkpt>
      <trkpt lat="43.57851" lon="3.0408">
        <ele>176.388282</ele>
        <time>2025-10-23T08:21:12Z</time>
      </trkpt>
      <trkpt lat="43.57848" lon="3.04086">
        <ele>176.42605</ele>
        <time>2025-10-23T08:21:13Z</time>
      </trkpt>
      <trkpt lat="43.57846" lon="3.04092">
        <ele>176.463551</ele>
        <time>2025-10-23T08:21:14Z</time>
      </trkpt>
      <trkpt lat="43.57844" lon="3.04099">
        <ele>176.502002</ele>
        <time>2025-10-23T08:21:15Z</time>
      </trkpt>
      <trkpt lat="43.57842" lon="3.04105">
        <ele>176.541023</ele>
        <time>2025-10-23T08:21:16Z</time>
      </trkpt>
      <trkpt lat="43.5784" lon="3.04112">
        <ele>176.580854</ele>
        <time>2025-10-23T08:21:17Z</time>
      </trkpt>
      <trkpt lat="43.57838" lon="3.04118">
        <ele>176.619676</ele>
        <time>2025-10-23T08:21:18Z</time>
      </trkpt>
      <trkpt lat="43.57836" lon="3.04124">
        <ele>176.657383</ele>
        <time>2025-10-23T08:21:19Z</time>
      </trkpt>
      <trkpt lat="43.57834" lon="3.0413">
        <ele>176.69306</ele>
        <time>2025-10-23T08:21:20Z</time>
      </trkpt>
      <trkpt lat="43.57832" lon="3.04137">
        <ele>176.729967</ele>
        <time>2025-10-23T08:21:21Z</time>
      </trkpt>
      <trkpt lat="43.5783" lon="3.04143">
        <ele>176.767785</ele>
        <time>2025-10-23T08:21:22Z</time>
      </trkpt>
      <trkpt lat="43.57828" lon="3.04149">
        <ele>176.806141</ele>
        <time>2025-10-23T08:21:23Z</time>
      </trkpt>
      <trkpt lat="43.57826" lon="3.04155">
        <ele>176.843959</ele>
        <time>2025-10-23T08:21:24Z</time>
      </trkpt>
      <trkpt lat="43.57824" lon="3.04161">
        <ele>176.882473</ele>
        <time>2025-10-23T08:21:25Z</time>
      </trkpt>
      <trkpt lat="43.57822" lon="3.04168">
        <ele>176.922003</ele>
        <time>2025-10-23T08:21:26Z</time>
      </trkpt>
      <trkpt lat="43.5782" lon="3.04175">
        <ele>176.961835</ele>
        <time>2025-10-23T08:21:27Z</time>
      </trkpt>
      <trkpt lat="43.57818" lon="3.04181">
        <ele>176.998524</ele>
        <time>2025-10-23T08:21:28Z</time>
      </trkpt>
      <trkpt lat="43.57816" lon="3.04187">
        <ele>177.035019</ele>
        <time>2025-10-23T08:21:29Z</time>
      </trkpt>
      <trkpt lat="43.57814" lon="3.04193">
        <ele>177.070696</ele>
        <time>2025-10-23T08:21:30Z</time>
      </trkpt>
      <trkpt lat="43.57812" lon="3.04198">
        <ele>177.106189</ele>
        <time>2025-10-23T08:21:31Z</time>
      </trkpt>
      <trkpt lat="43.5781" lon="3.04205">
        <ele>177.142879</ele>
        <time>2025-10-23T08:21:32Z</time>
      </trkpt>
      <trkpt lat="43.57808" lon="3.04211">
        <ele>177.179786</ele>
        <time>2025-10-23T08:21:33Z</time>
      </trkpt>
      <trkpt lat="43.57806" lon="3.04217">
        <ele>177.214651</ele>
        <time>2025-10-23T08:21:34Z</time>
      </trkpt>
      <trkpt lat="43.57805" lon="3.04223">
        <ele>177.250535</ele>
        <time>2025-10-23T08:21:35Z</time>
      </trkpt>
      <trkpt lat="43.57803" lon="3.04228">
        <ele>177.283069</ele>
        <time>2025-10-23T08:21:36Z</time>
      </trkpt>
      <trkpt lat="43.57801" lon="3.04234">
        <ele>177.320776</ele>
        <time>2025-10-23T08:21:37Z</time>
      </trkpt>
      <trkpt lat="43.57799" lon="3.04241">
        <ele>177.358483</ele>
        <time>2025-10-23T08:21:38Z</time>
      </trkpt>
      <trkpt lat="43.57797" lon="3.04247">
        <ele>177.396997</ele>
        <time>2025-10-23T08:21:39Z</time>
      </trkpt>
      <trkpt lat="43.57795" lon="3.04254">
        <ele>177.436223</ele>
        <time>2025-10-23T08:21:40Z</time>
      </trkpt>
      <trkpt lat="43.57794" lon="3.0426">
        <ele>177.490476</ele>
        <time>2025-10-23T08:21:41Z</time>
      </trkpt>
      <trkpt lat="43.57792" lon="3.04267">
        <ele>177.549042</ele>
        <time>2025-10-23T08:21:42Z</time>
      </trkpt>
      <trkpt lat="43.5779" lon="3.04273">
        <ele>177.607186</ele>
        <time>2025-10-23T08:21:43Z</time>
      </trkpt>
      <trkpt lat="43.57788" lon="3.0428">
        <ele>177.665752</ele>
        <time>2025-10-23T08:21:44Z</time>
      </trkpt>
      <trkpt lat="43.57786" lon="3.04286">
        <ele>177.725529</ele>
        <time>2025-10-23T08:21:45Z</time>
      </trkpt>
      <trkpt lat="43.57784" lon="3.04293">
        <ele>177.784095</ele>
        <time>2025-10-23T08:21:46Z</time>
      </trkpt>
      <trkpt lat="43.57782" lon="3.04299">
        <ele>177.843437</ele>
        <time>2025-10-23T08:21:47Z</time>
      </trkpt>
      <trkpt lat="43.5778" lon="3.04306">
        <ele>177.901676</ele>
        <time>2025-10-23T08:21:48Z</time>
      </trkpt>
      <trkpt lat="43.57778" lon="3.04313">
        <ele>177.962574</ele>
        <time>2025-10-23T08:21:49Z</time>
      </trkpt>
      <trkpt lat="43.57776" lon="3.04319">
        <ele>178.023472</ele>
        <time>2025-10-23T08:21:50Z</time>
      </trkpt>
      <trkpt lat="43.57774" lon="3.04326">
        <ele>178.082479</ele>
        <time>2025-10-23T08:21:51Z</time>
      </trkpt>
      <trkpt lat="43.57772" lon="3.04332">
        <ele>178.140719</ele>
        <time>2025-10-23T08:21:52Z</time>
      </trkpt>
      <trkpt lat="43.5777" lon="3.04338">
        <ele>178.196665</ele>
        <time>2025-10-23T08:21:53Z</time>
      </trkpt>
      <trkpt lat="43.57768" lon="3.04345">
        <ele>178.256442</ele>
        <time>2025-10-23T08:21:54Z</time>
      </trkpt>
      <trkpt lat="43.57766" lon="3.04352">
        <ele>178.318669</ele>
        <time>2025-10-23T08:21:55Z</time>
      </trkpt>
      <trkpt lat="43.57764" lon="3.04359">
        <ele>178.380767</ele>
        <time>2025-10-23T08:21:56Z</time>
      </trkpt>
      <trkpt lat="43.57762" lon="3.04365">
        <ele>178.441316</ele>
        <time>2025-10-23T08:21:57Z</time>
      </trkpt>
      <trkpt lat="43.5776" lon="3.04372">
        <ele>178.498336</ele>
        <time>2025-10-23T08:21:58Z</time>
      </trkpt>
      <trkpt lat="43.57758" lon="3.04378">
        <ele>178.55305</ele>
        <time>2025-10-23T08:21:59Z</time>
      </trkpt>
      <trkpt lat="43.57757" lon="3.04384">
        <ele>178.6093</ele>
        <time>2025-10-23T08:22:00Z</time>
      </trkpt>
      <trkpt lat="43.57755" lon="3.0439">
        <ele>178.667539</ele>
        <time>2025-10-23T08:22:01Z</time>
      </trkpt>
      <trkpt lat="43.57753" lon="3.04397">
        <ele>178.727317</ele>
        <time>2025-10-23T08:22:02Z</time>
      </trkpt>
      <trkpt lat="43.5775" lon="3.04403">
        <ele>178.785754</ele>
        <time>2025-10-23T08:22:03Z</time>
      </trkpt>
      <trkpt lat="43.57748" lon="3.0441">
        <ele>178.843993</ele>
        <time>2025-10-23T08:22:04Z</time>
      </trkpt>
      <trkpt lat="43.57746" lon="3.04416">
        <ele>178.901466</ele>
        <time>2025-10-23T08:22:05Z</time>
      </trkpt>
      <trkpt lat="43.57744" lon="3.04423">
        <ele>178.960808</ele>
        <time>2025-10-23T08:22:06Z</time>
      </trkpt>
      <trkpt lat="43.57742" lon="3.04429">
        <ele>179.018282</ele>
        <time>2025-10-23T08:22:07Z</time>
      </trkpt>
      <trkpt lat="43.5774" lon="3.04436">
        <ele>179.078831</ele>
        <time>2025-10-23T08:22:08Z</time>
      </trkpt>
      <trkpt lat="43.57739" lon="3.04442">
        <ele>179.13854</ele>
        <time>2025-10-23T08:22:09Z</time>
      </trkpt>
      <trkpt lat="43.57737" lon="3.04448">
        <ele>179.193726</ele>
        <time>2025-10-23T08:22:10Z</time>
      </trkpt>
      <trkpt lat="43.57735" lon="3.04455">
        <ele>179.251966</ele>
        <time>2025-10-23T08:22:11Z</time>
      </trkpt>
      <trkpt lat="43.57733" lon="3.04462">
        <ele>179.312863</ele>
        <time>2025-10-23T08:22:12Z</time>
      </trkpt>
      <trkpt lat="43.57731" lon="3.04468">
        <ele>179.371429</ele>
        <time>2025-10-23T08:22:13Z</time>
      </trkpt>
      <trkpt lat="43.57729" lon="3.04475">
        <ele>179.429996</ele>
        <time>2025-10-23T08:22:14Z</time>
      </trkpt>
      <trkpt lat="43.57727" lon="3.04481">
        <ele>179.489773</ele>
        <time>2025-10-23T08:22:15Z</time>
      </trkpt>
      <trkpt lat="43.57725" lon="3.04488">
        <ele>179.541096</ele>
        <time>2025-10-23T08:22:16Z</time>
      </trkpt>
      <trkpt lat="43.57723" lon="3.04495">
        <ele>179.584414</ele>
        <time>2025-10-23T08:22:17Z</time>
      </trkpt>
      <trkpt lat="43.57721" lon="3.04502">
        <ele>179.628869</ele>
        <time>2025-10-23T08:22:18Z</time>
      </trkpt>
      <trkpt lat="43.57719" lon="3.04509">
        <ele>179.673551</ele>
        <time>2025-10-23T08:22:19Z</time>
      </trkpt>
      <trkpt lat="43.57717" lon="3.04517">
        <ele>179.719581</ele>
        <time>2025-10-23T08:22:20Z</time>
      </trkpt>
      <trkpt lat="43.57716" lon="3.04525">
        <ele>179.765696</ele>
        <time>2025-10-23T08:22:21Z</time>
      </trkpt>
      <trkpt lat="43.57714" lon="3.04532">
        <ele>179.811485</ele>
        <time>2025-10-23T08:22:22Z</time>
      </trkpt>
      <trkpt lat="43.57712" lon="3.04539">
        <ele>179.856415</ele>
        <time>2025-10-23T08:22:23Z</time>
      </trkpt>
      <trkpt lat="43.57709" lon="3.04547">
        <ele>179.904142</ele>
        <time>2025-10-23T08:22:24Z</time>
      </trkpt>
      <trkpt lat="43.57708" lon="3.04555">
        <ele>179.95072</ele>
        <time>2025-10-23T08:22:25Z</time>
      </trkpt>
      <trkpt lat="43.57706" lon="3.04562">
        <ele>179.993296</ele>
        <time>2025-10-23T08:22:26Z</time>
      </trkpt>
      <trkpt lat="43.57705" lon="3.04569">
        <ele>180.036768</ele>
        <time>2025-10-23T08:22:27Z</time>
      </trkpt>
      <trkpt lat="43.57704" lon="3.04576">
        <ele>180.078406</ele>
        <time>2025-10-23T08:22:28Z</time>
      </trkpt>
      <trkpt lat="43.57703" lon="3.04583">
        <ele>180.119641</ele>
        <time>2025-10-23T08:22:29Z</time>
      </trkpt>
      <trkpt lat="43.57702" lon="3.04591">
        <ele>180.164421</ele>
        <time>2025-10-23T08:22:30Z</time>
      </trkpt>
      <trkpt lat="43.57701" lon="3.04599">
        <ele>180.209096</ele>
        <time>2025-10-23T08:22:31Z</time>
      </trkpt>
      <trkpt lat="43.577" lon="3.04606">
        <ele>180.252293</ele>
        <time>2025-10-23T08:22:32Z</time>
      </trkpt>
      <trkpt lat="43.57699" lon="3.04613">
        <ele>180.294496</ele>
        <time>2025-10-23T08:22:33Z</time>
      </trkpt>
      <trkpt lat="43.57698" lon="3.0462">
        <ele>180.336857</ele>
        <time>2025-10-23T08:22:34Z</time>
      </trkpt>
      <trkpt lat="43.57697" lon="3.04627">
        <ele>180.375844</ele>
        <time>2025-10-23T08:22:35Z</time>
      </trkpt>
      <trkpt lat="43.57696" lon="3.04634">
        <ele>180.417815</ele>
        <time>2025-10-23T08:22:36Z</time>
      </trkpt>
      <trkpt lat="43.57695" lon="3.04641">
        <ele>180.457162</ele>
        <time>2025-10-23T08:22:37Z</time>
      </trkpt>
      <trkpt lat="43.57695" lon="3.04647">
        <ele>180.494791</ele>
        <time>2025-10-23T08:22:38Z</time>
      </trkpt>
      <trkpt lat="43.57694" lon="3.04655">
        <ele>180.536883</ele>
        <time>2025-10-23T08:22:39Z</time>
      </trkpt>
      <trkpt lat="43.57694" lon="3.04661">
        <ele>180.574144</ele>
        <time>2025-10-23T08:22:40Z</time>
      </trkpt>
      <trkpt lat="43.57694" lon="3.04668">
        <ele>180.614442</ele>
        <time>2025-10-23T08:22:41Z</time>
      </trkpt>
      <trkpt lat="43.57694" lon="3.04675">
        <ele>180.65705</ele>
        <time>2025-10-23T08:22:42Z</time>
      </trkpt>
      <trkpt lat="43.57693" lon="3.04683">
        <ele>180.700255</ele>
        <time>2025-10-23T08:22:43Z</time>
      </trkpt>
      <trkpt lat="43.57693" lon="3.0469">
        <ele>180.741711</ele>
        <time>2025-10-23T08:22:44Z</time>
      </trkpt>
      <trkpt lat="43.57693" lon="3.04697">
        <ele>180.782017</ele>
        <time>2025-10-23T08:22:45Z</time>
      </trkpt>
      <trkpt lat="43.57694" lon="3.04704">
        <ele>180.824109</ele>
        <time>2025-10-23T08:22:46Z</time>
      </trkpt>
      <trkpt lat="43.57694" lon="3.04712">
        <ele>180.868436</ele>
        <time>2025-10-23T08:22:47Z</time>
      </trkpt>
      <trkpt lat="43.57694" lon="3.0472">
        <ele>180.913346</ele>
        <time>2025-10-23T08:22:48Z</time>
      </trkpt>
      <trkpt lat="43.57694" lon="3.04728">
        <ele>180.960552</ele>
        <time>2025-10-23T08:22:49Z</time>
      </trkpt>
      <trkpt lat="43.57694" lon="3.04736">
        <ele>181.009088</ele>
        <time>2025-10-23T08:22:50Z</time>
      </trkpt>
      <trkpt lat="43.57694" lon="3.04744">
        <ele>181.063269</ele>
        <time>2025-10-23T08:22:51Z</time>
      </trkpt>
      <trkpt lat="43.57694" lon="3.04753">
        <ele>181.118321</ele>
        <time>2025-10-23T08:22:52Z</time>
      </trkpt>
      <trkpt lat="43.57693" lon="3.04762">
        <ele>181.173152</ele>
        <time>2025-10-23T08:22:53Z</time>
      </trkpt>
      <trkpt lat="43.57694" lon="3.0477">
        <ele>181.226704</ele>
        <time>2025-10-23T08:22:54Z</time>
      </trkpt>
      <trkpt lat="43.57694" lon="3.04778">
        <ele>181.279341</ele>
        <time>2025-10-23T08:22:55Z</time>
      </trkpt>
      <trkpt lat="43.57695" lon="3.04787">
        <ele>181.333335</ele>
        <time>2025-10-23T08:22:56Z</time>
      </trkpt>
      <trkpt lat="43.57696" lon="3.04795">
        <ele>181.383233</ele>
        <time>2025-10-23T08:22:57Z</time>
      </trkpt>
      <trkpt lat="43.57697" lon="3.04802">
        <ele>181.431932</ele>
        <time>2025-10-23T08:22:58Z</time>
      </trkpt>
      <trkpt lat="43.57697" lon="3.0481">
        <ele>181.481686</ele>
        <time>2025-10-23T08:22:59Z</time>
      </trkpt>
      <trkpt lat="43.57698" lon="3.04818">
        <ele>181.529441</ele>
        <time>2025-10-23T08:23:00Z</time>
      </trkpt>
      <trkpt lat="43.57699" lon="3.04826">
        <ele>181.579576</ele>
        <time>2025-10-23T08:23:01Z</time>
      </trkpt>
      <trkpt lat="43.577" lon="3.04833">
        <ele>181.62452</ele>
        <time>2025-10-23T08:23:02Z</time>
      </trkpt>
      <trkpt lat="43.57701" lon="3.0484">
        <ele>181.67106</ele>
        <time>2025-10-23T08:23:03Z</time>
      </trkpt>
      <trkpt lat="43.57702" lon="3.04847">
        <ele>181.718646</ele>
        <time>2025-10-23T08:23:04Z</time>
      </trkpt>
      <trkpt lat="43.57703" lon="3.04855">
        <ele>181.769644</ele>
        <time>2025-10-23T08:23:05Z</time>
      </trkpt>
      <trkpt lat="43.57704" lon="3.04863">
        <ele>181.820063</ele>
        <time>2025-10-23T08:23:06Z</time>
      </trkpt>
      <trkpt lat="43.57706" lon="3.04871">
        <ele>181.869918</ele>
        <time>2025-10-23T08:23:07Z</time>
      </trkpt>
      <trkpt lat="43.57708" lon="3.04878">
        <ele>181.919537</ele>
        <time>2025-10-23T08:23:08Z</time>
      </trkpt>
      <trkpt lat="43.57709" lon="3.04886">
        <ele>181.969642</ele>
        <time>2025-10-23T08:23:09Z</time>
      </trkpt>
      <trkpt lat="43.57711" lon="3.04893">
        <ele>182.017686</ele>
        <time>2025-10-23T08:23:10Z</time>
      </trkpt>
      <trkpt lat="43.57712" lon="3.049">
        <ele>182.06343</ele>
        <time>2025-10-23T08:23:11Z</time>
      </trkpt>
      <trkpt lat="43.57714" lon="3.04906">
        <ele>182.10288</ele>
        <time>2025-10-23T08:23:12Z</time>
      </trkpt>
      <trkpt lat="43.57715" lon="3.04912">
        <ele>182.142268</ele>
        <time>2025-10-23T08:23:13Z</time>
      </trkpt>
      <trkpt lat="43.57717" lon="3.04918">
        <ele>182.183439</ele>
        <time>2025-10-23T08:23:14Z</time>
      </trkpt>
      <trkpt lat="43.57719" lon="3.04925">
        <ele>182.230004</ele>
        <time>2025-10-23T08:23:15Z</time>
      </trkpt>
      <trkpt lat="43.57721" lon="3.04932">
        <ele>182.275327</ele>
        <time>2025-10-23T08:23:16Z</time>
      </trkpt>
      <trkpt lat="43.57722" lon="3.04938">
        <ele>182.319169</ele>
        <time>2025-10-23T08:23:17Z</time>
      </trkpt>
      <trkpt lat="43.57724" lon="3.04945">
        <ele>182.362141</ele>
        <time>2025-10-23T08:23:18Z</time>
      </trkpt>
      <trkpt lat="43.57725" lon="3.04951">
        <ele>182.403008</ele>
        <time>2025-10-23T08:23:19Z</time>
      </trkpt>
      <trkpt lat="43.57727" lon="3.04957">
        <ele>182.444179</ele>
        <time>2025-10-23T08:23:20Z</time>
      </trkpt>
      <trkpt lat="43.57729" lon="3.04964">
        <ele>182.493071</ele>
        <time>2025-10-23T08:23:21Z</time>
      </trkpt>
      <trkpt lat="43.57731" lon="3.04971">
        <ele>182.52779</ele>
        <time>2025-10-23T08:23:22Z</time>
      </trkpt>
      <trkpt lat="43.57734" lon="3.04978">
        <ele>182.552131</ele>
        <time>2025-10-23T08:23:23Z</time>
      </trkpt>
      <trkpt lat="43.57736" lon="3.04984">
        <ele>182.576979</ele>
        <time>2025-10-23T08:23:24Z</time>
      </trkpt>
      <trkpt lat="43.57739" lon="3.04991">
        <ele>182.601916</ele>
        <time>2025-10-23T08:23:25Z</time>
      </trkpt>
      <trkpt lat="43.57741" lon="3.04998">
        <ele>182.627357</ele>
        <time>2025-10-23T08:23:26Z</time>
      </trkpt>
      <trkpt lat="43.57744" lon="3.05005">
        <ele>182.653011</ele>
        <time>2025-10-23T08:23:27Z</time>
      </trkpt>
      <trkpt lat="43.57746" lon="3.05011">
        <ele>182.679175</ele>
        <time>2025-10-23T08:23:28Z</time>
      </trkpt>
      <trkpt lat="43.57749" lon="3.05018">
        <ele>182.705339</ele>
        <time>2025-10-23T08:23:29Z</time>
      </trkpt>
      <trkpt lat="43.57752" lon="3.05025">
        <ele>182.731726</ele>
        <time>2025-10-23T08:23:30Z</time>
      </trkpt>
      <trkpt lat="43.57755" lon="3.05032">
        <ele>182.756724</ele>
        <time>2025-10-23T08:23:31Z</time>
      </trkpt>
      <trkpt lat="43.57757" lon="3.05038">
        <ele>182.782083</ele>
        <time>2025-10-23T08:23:32Z</time>
      </trkpt>
      <trkpt lat="43.5776" lon="3.05045">
        <ele>182.806792</ele>
        <time>2025-10-23T08:23:33Z</time>
      </trkpt>
      <trkpt lat="43.57763" lon="3.05051">
        <ele>182.831977</ele>
        <time>2025-10-23T08:23:34Z</time>
      </trkpt>
      <trkpt lat="43.57766" lon="3.05057">
        <ele>182.857111</ele>
        <time>2025-10-23T08:23:35Z</time>
      </trkpt>
      <trkpt lat="43.57769" lon="3.05063">
        <ele>182.880923</ele>
        <time>2025-10-23T08:23:36Z</time>
      </trkpt>
      <trkpt lat="43.57772" lon="3.0507">
        <ele>182.905798</ele>
        <time>2025-10-23T08:23:37Z</time>
      </trkpt>
      <trkpt lat="43.57775" lon="3.05076">
        <ele>182.930115</ele>
        <time>2025-10-23T08:23:38Z</time>
      </trkpt>
      <trkpt lat="43.57778" lon="3.05081">
        <ele>182.954164</ele>
        <time>2025-10-23T08:23:39Z</time>
      </trkpt>
      <trkpt lat="43.57781" lon="3.05088">
        <ele>182.979349</ele>
        <time>2025-10-23T08:23:40Z</time>
      </trkpt>
      <trkpt lat="43.57784" lon="3.05094">
        <ele>183.005035</ele>
        <time>2025-10-23T08:23:41Z</time>
      </trkpt>
      <trkpt lat="43.57787" lon="3.05101">
        <ele>183.032055</ele>
        <time>2025-10-23T08:23:42Z</time>
      </trkpt>
      <trkpt lat="43.5779" lon="3.05107">
        <ele>183.058018</ele>
        <time>2025-10-23T08:23:43Z</time>
      </trkpt>
      <trkpt lat="43.57793" lon="3.05114">
        <ele>183.083825</ele>
        <time>2025-10-23T08:23:44Z</time>
      </trkpt>
      <trkpt lat="43.57796" lon="3.05121">
        <ele>183.109788</ele>
        <time>2025-10-23T08:23:45Z</time>
      </trkpt>
      <trkpt lat="43.578" lon="3.05127">
        <ele>183.136537</ele>
        <time>2025-10-23T08:23:46Z</time>
      </trkpt>
      <trkpt lat="43.57803" lon="3.05134">
        <ele>183.164116</ele>
        <time>2025-10-23T08:23:47Z</time>
      </trkpt>
      <trkpt lat="43.57807" lon="3.0514">
        <ele>183.192216</ele>
        <time>2025-10-23T08:23:48Z</time>
      </trkpt>
      <trkpt lat="43.5781" lon="3.05147">
        <ele>183.219235</ele>
        <time>2025-10-23T08:23:49Z</time>
      </trkpt>
      <trkpt lat="43.57814" lon="3.05153">
        <ele>183.24518</ele>
        <time>2025-10-23T08:23:50Z</time>
      </trkpt>
      <trkpt lat="43.57817" lon="3.0516">
        <ele>183.271117</ele>
        <time>2025-10-23T08:23:51Z</time>
      </trkpt>
      <trkpt lat="43.5782" lon="3.05166">
        <ele>183.297337</ele>
        <time>2025-10-23T08:23:52Z</time>
      </trkpt>
      <trkpt lat="43.57824" lon="3.05173">
        <ele>183.324655</ele>
        <time>2025-10-23T08:23:53Z</time>
      </trkpt>
      <trkpt lat="43.57827" lon="3.05179">
        <ele>183.343061</ele>
        <time>2025-10-23T08:23:54Z</time>
      </trkpt>
      <trkpt lat="43.57831" lon="3.05185">
        <ele>183.347222</ele>
        <time>2025-10-23T08:23:55Z</time>
      </trkpt>
      <trkpt lat="43.57834" lon="3.05192">
        <ele>183.351345</ele>
        <time>2025-10-23T08:23:56Z</time>
      </trkpt>
      <trkpt lat="43.57837" lon="3.05198">
        <ele>183.355319</ele>
        <time>2025-10-23T08:23:57Z</time>
      </trkpt>
      <trkpt lat="43.5784" lon="3.05205">
        <ele>183.359403</ele>
        <time>2025-10-23T08:23:58Z</time>
      </trkpt>
      <trkpt lat="43.57843" lon="3.05212">
        <ele>183.363445</ele>
        <time>2025-10-23T08:23:59Z</time>
      </trkpt>
      <trkpt lat="43.57846" lon="3.05219">
        <ele>183.367411</ele>
        <time>2025-10-23T08:24:00Z</time>
      </trkpt>
      <trkpt lat="43.57849" lon="3.05225">
        <ele>183.37134</ele>
        <time>2025-10-23T08:24:01Z</time>
      </trkpt>
      <trkpt lat="43.57851" lon="3.05232">
        <ele>183.375359</ele>
        <time>2025-10-23T08:24:02Z</time>
      </trkpt>
      <trkpt lat="43.57854" lon="3.05239">
        <ele>183.37931</ele>
        <time>2025-10-23T08:24:03Z</time>
      </trkpt>
      <trkpt lat="43.57857" lon="3.05246">
        <ele>183.383294</ele>
        <time>2025-10-23T08:24:04Z</time>
      </trkpt>
      <trkpt lat="43.57859" lon="3.05253">
        <ele>183.387337</ele>
        <time>2025-10-23T08:24:05Z</time>
      </trkpt>
      <trkpt lat="43.57862" lon="3.0526">
        <ele>183.391439</ele>
        <time>2025-10-23T08:24:06Z</time>
      </trkpt>
      <trkpt lat="43.57864" lon="3.05268">
        <ele>183.395604</ele>
        <time>2025-10-23T08:24:07Z</time>
      </trkpt>
      <trkpt lat="43.57866" lon="3.05275">
        <ele>183.399753</ele>
        <time>2025-10-23T08:24:08Z</time>
      </trkpt>
      <trkpt lat="43.57869" lon="3.05282">
        <ele>183.403937</ele>
        <time>2025-10-23T08:24:09Z</time>
      </trkpt>
      <trkpt lat="43.57871" lon="3.0529">
        <ele>183.408197</ele>
        <time>2025-10-23T08:24:10Z</time>
      </trkpt>
      <trkpt lat="43.57873" lon="3.05298">
        <ele>183.412521</ele>
        <time>2025-10-23T08:24:11Z</time>
      </trkpt>
      <trkpt lat="43.57875" lon="3.05306">
        <ele>183.416869</ele>
        <time>2025-10-23T08:24:12Z</time>
      </trkpt>
      <trkpt lat="43.57877" lon="3.05314">
        <ele>183.421097</ele>
        <time>2025-10-23T08:24:13Z</time>
      </trkpt>
      <trkpt lat="43.5788" lon="3.05321">
        <ele>183.425498</ele>
        <time>2025-10-23T08:24:14Z</time>
      </trkpt>
      <trkpt lat="43.57882" lon="3.05329">
        <ele>183.429701</ele>
        <time>2025-10-23T08:24:15Z</time>
      </trkpt>
      <trkpt lat="43.57883" lon="3.05337">
        <ele>183.433698</ele>
        <time>2025-10-23T08:24:16Z</time>
      </trkpt>
      <trkpt lat="43.57885" lon="3.05344">
        <ele>183.437578</ele>
        <time>2025-10-23T08:24:17Z</time>
      </trkpt>
      <trkpt lat="43.57886" lon="3.05351">
        <ele>183.441346</ele>
        <time>2025-10-23T08:24:18Z</time>
      </trkpt>
      <trkpt lat="43.57888" lon="3.05358">
        <ele>183.445404</ele>
        <time>2025-10-23T08:24:19Z</time>
      </trkpt>
      <trkpt lat="43.5789" lon="3.05366">
        <ele>183.449421</ele>
        <time>2025-10-23T08:24:20Z</time>
      </trkpt>
      <trkpt lat="43.57891" lon="3.05373">
        <ele>183.4535</ele>
        <time>2025-10-23T08:24:21Z</time>
      </trkpt>
      <trkpt lat="43.57893" lon="3.05381">
        <ele>183.457597</ele>
        <time>2025-10-23T08:24:22Z</time>
      </trkpt>
      <trkpt lat="43.57894" lon="3.05389">
        <ele>183.461809</ele>
        <time>2025-10-23T08:24:23Z</time>
      </trkpt>
      <trkpt lat="43.57896" lon="3.05397">
        <ele>183.465971</ele>
        <time>2025-10-23T08:24:24Z</time>
      </trkpt>
      <trkpt lat="43.57897" lon="3.05405">
        <ele>183.477224</ele>
        <time>2025-10-23T08:24:25Z</time>
      </trkpt>
      <trkpt lat="43.57898" lon="3.05413">
        <ele>183.508661</ele>
        <time>2025-10-23T08:24:26Z</time>
      </trkpt>
      <trkpt lat="43.579" lon="3.05421">
        <ele>183.539253</ele>
        <time>2025-10-23T08:24:27Z</time>
      </trkpt>
      <trkpt lat="43.57901" lon="3.05429">
        <ele>183.568762</ele>
        <time>2025-10-23T08:24:28Z</time>
      </trkpt>
      <trkpt lat="43.57903" lon="3.05437">
        <ele>183.598537</ele>
        <time>2025-10-23T08:24:29Z</time>
      </trkpt>
      <trkpt lat="43.57904" lon="3.05444">
        <ele>183.627817</ele>
        <time>2025-10-23T08:24:30Z</time>
      </trkpt>
      <trkpt lat="43.57905" lon="3.05452">
        <ele>183.655641</ele>
        <time>2025-10-23T08:24:31Z</time>
      </trkpt>
      <trkpt lat="43.57907" lon="3.05459">
        <ele>183.683488</ele>
        <time>2025-10-23T08:24:32Z</time>
      </trkpt>
      <trkpt lat="43.57908" lon="3.05466">
        <ele>183.711336</ele>
        <time>2025-10-23T08:24:33Z</time>
      </trkpt>
      <trkpt lat="43.5791" lon="3.05473">
        <ele>183.739541</ele>
        <time>2025-10-23T08:24:34Z</time>
      </trkpt>
      <trkpt lat="43.57911" lon="3.0548">
        <ele>183.767388</ele>
        <time>2025-10-23T08:24:35Z</time>
      </trkpt>
      <trkpt lat="43.57913" lon="3.05488">
        <ele>183.795575</ele>
        <time>2025-10-23T08:24:36Z</time>
      </trkpt>
      <trkpt lat="43.57914" lon="3.05495">
        <ele>183.824488</ele>
        <time>2025-10-23T08:24:37Z</time>
      </trkpt>
      <trkpt lat="43.57915" lon="3.05503">
        <ele>183.852198</ele>
        <time>2025-10-23T08:24:38Z</time>
      </trkpt>
      <trkpt lat="43.57917" lon="3.0551">
        <ele>183.879689</ele>
        <time>2025-10-23T08:24:39Z</time>
      </trkpt>
      <trkpt lat="43.57918" lon="3.05517">
        <ele>183.907304</ele>
        <time>2025-10-23T08:24:40Z</time>
      </trkpt>
      <trkpt lat="43.57919" lon="3.05524">
        <ele>183.935195</ele>
        <time>2025-10-23T08:24:41Z</time>
      </trkpt>
      <trkpt lat="43.5792" lon="3.05532">
        <ele>183.962657</ele>
        <time>2025-10-23T08:24:42Z</time>
      </trkpt>
      <trkpt lat="43.57921" lon="3.05539">
        <ele>183.990272</ele>
        <time>2025-10-23T08:24:43Z</time>
      </trkpt>
      <trkpt lat="43.57922" lon="3.05546">
        <ele>184.018977</ele>
        <time>2025-10-23T08:24:44Z</time>
      </trkpt>
      <trkpt lat="43.57924" lon="3.05554">
        <ele>184.047766</ele>
        <time>2025-10-23T08:24:45Z</time>
      </trkpt>
      <trkpt lat="43.57925" lon="3.05561">
        <ele>184.075117</ele>
        <time>2025-10-23T08:24:46Z</time>
      </trkpt>
      <trkpt lat="43.57927" lon="3.05568">
        <ele>184.100828</ele>
        <time>2025-10-23T08:24:47Z</time>
      </trkpt>
      <trkpt lat="43.57928" lon="3.05574">
        <ele>184.126256</ele>
        <time>2025-10-23T08:24:48Z</time>
      </trkpt>
      <trkpt lat="43.57929" lon="3.05581">
        <ele>184.150829</ele>
        <time>2025-10-23T08:24:49Z</time>
      </trkpt>
      <trkpt lat="43.5793" lon="3.05587">
        <ele>184.173968</ele>
        <time>2025-10-23T08:24:50Z</time>
      </trkpt>
      <trkpt lat="43.57931" lon="3.05593">
        <ele>184.19701</ele>
        <time>2025-10-23T08:24:51Z</time>
      </trkpt>
      <trkpt lat="43.57932" lon="3.05599">
        <ele>184.220506</ele>
        <time>2025-10-23T08:24:52Z</time>
      </trkpt>
      <trkpt lat="43.57933" lon="3.05605">
        <ele>184.244098</ele>
        <time>2025-10-23T08:24:53Z</time>
      </trkpt>
      <trkpt lat="43.57935" lon="3.05611">
        <ele>184.26699</ele>
        <time>2025-10-23T08:24:54Z</time>
      </trkpt>
      <trkpt lat="43.57936" lon="3.05616">
        <ele>184.289054</ele>
        <time>2025-10-23T08:24:55Z</time>
      </trkpt>
      <trkpt lat="43.57937" lon="3.05623">
        <ele>184.31278</ele>
        <time>2025-10-23T08:24:56Z</time>
      </trkpt>
      <trkpt lat="43.57939" lon="3.05629">
        <ele>184.338492</ele>
        <time>2025-10-23T08:24:57Z</time>
      </trkpt>
      <trkpt lat="43.5794" lon="3.05636">
        <ele>184.364054</ele>
        <time>2025-10-23T08:24:58Z</time>
      </trkpt>
      <trkpt lat="43.57941" lon="3.05642">
        <ele>184.388904</ele>
        <time>2025-10-23T08:24:59Z</time>
      </trkpt>
      <trkpt lat="43.57943" lon="3.05648">
        <ele>184.294211</ele>
        <time>2025-10-23T08:25:00Z</time>
      </trkpt>
      <trkpt lat="43.57944" lon="3.05653">
        <ele>184.193619</ele>
        <time>2025-10-23T08:25:01Z</time>
      </trkpt>
      <trkpt lat="43.57946" lon="3.05658">
        <ele>184.102147</ele>
        <time>2025-10-23T08:25:02Z</time>
      </trkpt>
      <trkpt lat="43.57947" lon="3.05661">
        <ele>184.03562</ele>
        <time>2025-10-23T08:25:03Z</time>
      </trkpt>
      <trkpt lat="43.57948" lon="3.05663">
        <ele>183.99258</ele>
        <time>2025-10-23T08:25:04Z</time>
      </trkpt>
      <trkpt lat="43.57949" lon="3.05663">
        <ele>183.974234</ele>
        <time>2025-10-23T08:25:05Z</time>
      </trkpt>
      <trkpt lat="43.57949" lon="3.05663">
        <ele>183.97242</ele>
        <time>2025-10-23T08:25:06Z</time>
      </trkpt>
      <trkpt lat="43.57949" lon="3.05663">
        <ele>183.966239</ele>
        <time>2025-10-23T08:25:07Z</time>
      </trkpt>
      <trkpt lat="43.5795" lon="3.05664">
        <ele>183.94253</ele>
        <time>2025-10-23T08:25:08Z</time>
      </trkpt>
      <trkpt lat="43.57951" lon="3.05663">
        <ele>183.91647</ele>
        <time>2025-10-23T08:25:09Z</time>
      </trkpt>
      <trkpt lat="43.57952" lon="3.05662">
        <ele>183.880223</ele>
        <time>2025-10-23T08:25:10Z</time>
      </trkpt>
      <trkpt lat="43.57953" lon="3.0566">
        <ele>183.83612</ele>
        <time>2025-10-23T08:25:11Z</time>
      </trkpt>
      <trkpt lat="43.57953" lon="3.05658">
        <ele>183.802851</ele>
        <time>2025-10-23T08:25:12Z</time>
      </trkpt>
      <trkpt lat="43.57953" lon="3.05656">
        <ele>183.770116</ele>
        <time>2025-10-23T08:25:13Z</time>
      </trkpt>
      <trkpt lat="43.57953" lon="3.05655">
        <ele>183.737381</ele>
        <time>2025-10-23T08:25:14Z</time>
      </trkpt>
      <trkpt lat="43.57953" lon="3.05653">
        <ele>183.706151</ele>
        <time>2025-10-23T08:25:15Z</time>
      </trkpt>
      <trkpt lat="43.57953" lon="3.05651">
        <ele>183.667745</ele>
        <time>2025-10-23T08:25:16Z</time>
      </trkpt>
      <trkpt lat="43.57953" lon="3.05649">
        <ele>183.631089</ele>
        <time>2025-10-23T08:25:17Z</time>
      </trkpt>
      <trkpt lat="43.57952" lon="3.05647">
        <ele>183.594055</ele>
        <time>2025-10-23T08:25:18Z</time>
      </trkpt>
      <trkpt lat="43.57952" lon="3.05645">
        <ele>183.561643</ele>
        <time>2025-10-23T08:25:19Z</time>
      </trkpt>
      <trkpt lat="43.57951" lon="3.05644">
        <ele>183.53266</ele>
        <time>2025-10-23T08:25:20Z</time>
      </trkpt>
      <trkpt lat="43.57951" lon="3.05642">
        <ele>183.505004</ele>
        <time>2025-10-23T08:25:21Z</time>
      </trkpt>
      <trkpt lat="43.57951" lon="3.05641">
        <ele>183.481431</ele>
        <time>2025-10-23T08:25:22Z</time>
      </trkpt>
      <trkpt lat="43.57951" lon="3.0564">
        <ele>183.463298</ele>
        <time>2025-10-23T08:25:23Z</time>
      </trkpt>
      <trkpt lat="43.57951" lon="3.05639">
        <ele>183.446788</ele>
        <time>2025-10-23T08:25:24Z</time>
      </trkpt>
      <trkpt lat="43.57951" lon="3.05639">
        <ele>183.437382</ele>
        <time>2025-10-23T08:25:25Z</time>
      </trkpt>
      <trkpt lat="43.57952" lon="3.05638">
        <ele>183.423738</ele>
        <time>2025-10-23T08:25:26Z</time>
      </trkpt>
      <trkpt lat="43.57952" lon="3.05637">
        <ele>183.404592</ele>
        <time>2025-10-23T08:25:27Z</time>
      </trkpt>
      <trkpt lat="43.57952" lon="3.05636">
        <ele>183.384966</ele>
        <time>2025-10-23T08:25:28Z</time>
      </trkpt>
      <trkpt lat="43.57953" lon="3.05635">
        <ele>183.366154</ele>
        <time>2025-10-23T08:25:29Z</time>
      </trkpt>
      <trkpt lat="43.57952" lon="3.05634">
        <ele>183.343826</ele>
        <time>2025-10-23T08:25:30Z</time>
      </trkpt>
      <trkpt lat="43.57952" lon="3.05633">
        <ele>183.321499</ele>
        <time>2025-10-23T08:25:31Z</time>
      </trkpt>
      <trkpt lat="43.57952" lon="3.05631">
        <ele>183.296759</ele>
        <time>2025-10-23T08:25:32Z</time>
      </trkpt>
      <trkpt lat="43.57952" lon="3.0563">
        <ele>183.275446</ele>
        <time>2025-10-23T08:25:33Z</time>
      </trkpt>
      <trkpt lat="43.57951" lon="3.05629">
        <ele>183.249571</ele>
        <time>2025-10-23T08:25:34Z</time>
      </trkpt>
      <trkpt lat="43.57951" lon="3.05627">
        <ele>183.224062</ele>
        <time>2025-10-23T08:25:35Z</time>
      </trkpt>
      <trkpt lat="43.57951" lon="3.05626">
        <ele>183.205757</ele>
        <time>2025-10-23T08:25:36Z</time>
      </trkpt>
      <trkpt lat="43.57951" lon="3.05625">
        <ele>183.180248</ele>
        <time>2025-10-23T08:25:37Z</time>
      </trkpt>
      <trkpt lat="43.57951" lon="3.05623">
        <ele>183.152934</ele>
        <time>2025-10-23T08:25:38Z</time>
      </trkpt>
      <trkpt lat="43.57951" lon="3.05622">
        <ele>183.123922</ele>
        <time>2025-10-23T08:25:39Z</time>
      </trkpt>
      <trkpt lat="43.57951" lon="3.0562">
        <ele>183.094801</ele>
        <time>2025-10-23T08:25:40Z</time>
      </trkpt>
      <trkpt lat="43.57951" lon="3.05619">
        <ele>183.068926</ele>
        <time>2025-10-23T08:25:41Z</time>
      </trkpt>
      <trkpt lat="43.57951" lon="3.05617">
        <ele>183.037999</ele>
        <time>2025-10-23T08:25:42Z</time>
      </trkpt>
      <trkpt lat="43.5795" lon="3.05616">
        <ele>183.013259</ele>
        <time>2025-10-23T08:25:43Z</time>
      </trkpt>
      <trkpt lat="43.5795" lon="3.05614">
        <ele>182.985603</ele>
        <time>2025-10-23T08:25:44Z</time>
      </trkpt>
      <trkpt lat="43.5795" lon="3.05613">
        <ele>182.963571</ele>
        <time>2025-10-23T08:25:45Z</time>
      </trkpt>
      <trkpt lat="43.57949" lon="3.05613">
        <ele>182.941935</ele>
        <time>2025-10-23T08:25:46Z</time>
      </trkpt>
      <trkpt lat="43.57948" lon="3.05612">
        <ele>182.924309</ele>
        <time>2025-10-23T08:25:47Z</time>
      </trkpt>
      <trkpt lat="43.57948" lon="3.05611">
        <ele>182.907238</ele>
        <time>2025-10-23T08:25:48Z</time>
      </trkpt>
      <trkpt lat="43.57948" lon="3.0561">
        <ele>182.885479</ele>
        <time>2025-10-23T08:25:49Z</time>
      </trkpt>
      <trkpt lat="43.57948" lon="3.05609">
        <ele>182.868896</ele>
        <time>2025-10-23T08:25:50Z</time>
      </trkpt>
      <trkpt lat="43.57948" lon="3.0561">
        <ele>182.85692</ele>
        <time>2025-10-23T08:25:51Z</time>
      </trkpt>
      <trkpt lat="43.57948" lon="3.0561">
        <ele>182.85692</ele>
        <time>2025-10-23T08:25:52Z</time>
      </trkpt>
      <trkpt lat="43.57948" lon="3.0561">
        <ele>182.85692</ele>
        <time>2025-10-23T08:25:53Z</time>
      </trkpt>
      <trkpt lat="43.57948" lon="3.0561">
        <ele>182.85692</ele>
        <time>2025-10-23T08:25:54Z</time>
      </trkpt>
      <trkpt lat="43.57949" lon="3.05609">
        <ele>182.820516</ele>
        <time>2025-10-23T08:26:52Z</time>
      </trkpt>
      <trkpt lat="43.57949" lon="3.05609">
        <ele>182.820516</ele>
        <time>2025-10-23T08:26:53Z</time>
      </trkpt>
      <trkpt lat="43.57949" lon="3.05609">
        <ele>182.820516</ele>
        <time>2025-10-23T08:26:54Z</time>
      </trkpt>
      <trkpt lat="43.57949" lon="3.05609">
        <ele>182.818013</ele>
        <time>2025-10-23T08:26:55Z</time>
      </trkpt>
      <trkpt lat="43.57949" lon="3.05609">
        <ele>182.813607</ele>
        <time>2025-10-23T08:26:56Z</time>
      </trkpt>
      <trkpt lat="43.57949" lon="3.05608">
        <ele>182.804334</ele>
        <time>2025-10-23T08:26:57Z</time>
      </trkpt>
      <trkpt lat="43.57949" lon="3.05608">
        <ele>182.796661</ele>
        <time>2025-10-23T08:26:58Z</time>
      </trkpt>
      <trkpt lat="43.5795" lon="3.05608">
        <ele>182.781211</ele>
        <time>2025-10-23T08:26:59Z</time>
      </trkpt>
      <trkpt lat="43.5795" lon="3.05609">
        <ele>182.763585</ele>
        <time>2025-10-23T08:27:00Z</time>
      </trkpt>
      <trkpt lat="43.57951" lon="3.05611">
        <ele>182.726826</ele>
        <time>2025-10-23T08:27:01Z</time>
      </trkpt>
      <trkpt lat="43.57952" lon="3.05613">
        <ele>182.678226</ele>
        <time>2025-10-23T08:27:02Z</time>
      </trkpt>
      <trkpt lat="43.57952" lon="3.05617">
        <ele>182.611242</ele>
        <time>2025-10-23T08:27:03Z</time>
      </trkpt>
      <trkpt lat="43.57953" lon="3.05621">
        <ele>182.535396</ele>
        <time>2025-10-23T08:27:04Z</time>
      </trkpt>
      <trkpt lat="43.57953" lon="3.05625">
        <ele>182.46631</ele>
        <time>2025-10-23T08:27:05Z</time>
      </trkpt>
      <trkpt lat="43.57953" lon="3.05629">
        <ele>182.393091</ele>
        <time>2025-10-23T08:27:06Z</time>
      </trkpt>
      <trkpt lat="43.57953" lon="3.05633">
        <ele>182.316933</ele>
        <time>2025-10-23T08:27:07Z</time>
      </trkpt>
      <trkpt lat="43.57953" lon="3.05636">
        <ele>182.253419</ele>
        <time>2025-10-23T08:27:08Z</time>
      </trkpt>
      <trkpt lat="43.57954" lon="3.0564">
        <ele>182.19534</ele>
        <time>2025-10-23T08:27:09Z</time>
      </trkpt>
      <trkpt lat="43.57954" lon="3.05643">
        <ele>182.129631</ele>
        <time>2025-10-23T08:27:10Z</time>
      </trkpt>
      <trkpt lat="43.57954" lon="3.05647">
        <ele>182.050662</ele>
        <time>2025-10-23T08:27:11Z</time>
      </trkpt>
      <trkpt lat="43.57955" lon="3.05652">
        <ele>181.975939</ele>
        <time>2025-10-23T08:27:12Z</time>
      </trkpt>
      <trkpt lat="43.57955" lon="3.05655">
        <ele>181.908801</ele>
        <time>2025-10-23T08:27:13Z</time>
      </trkpt>
      <trkpt lat="43.57954" lon="3.05659">
        <ele>181.840578</ele>
        <time>2025-10-23T08:27:14Z</time>
      </trkpt>
      <trkpt lat="43.57952" lon="3.05663">
        <ele>181.758251</ele>
        <time>2025-10-23T08:27:15Z</time>
      </trkpt>
      <trkpt lat="43.57951" lon="3.05666">
        <ele>181.684031</ele>
        <time>2025-10-23T08:27:16Z</time>
      </trkpt>
      <trkpt lat="43.57951" lon="3.0567">
        <ele>181.614403</ele>
        <time>2025-10-23T08:27:17Z</time>
      </trkpt>
      <trkpt lat="43.57952" lon="3.05674">
        <ele>181.539158</ele>
        <time>2025-10-23T08:27:18Z</time>
      </trkpt>
      <trkpt lat="43.57953" lon="3.05678">
        <ele>181.455325</ele>
        <time>2025-10-23T08:27:19Z</time>
      </trkpt>
      <trkpt lat="43.57955" lon="3.05683">
        <ele>181.360879</ele>
        <time>2025-10-23T08:27:20Z</time>
      </trkpt>
      <trkpt lat="43.57958" lon="3.05688">
        <ele>181.253625</ele>
        <time>2025-10-23T08:27:21Z</time>
      </trkpt>
      <trkpt lat="43.5796" lon="3.05693">
        <ele>181.143653</ele>
        <time>2025-10-23T08:27:22Z</time>
      </trkpt>
      <trkpt lat="43.57961" lon="3.05699">
        <ele>181.036889</ele>
        <time>2025-10-23T08:27:23Z</time>
      </trkpt>
      <trkpt lat="43.57964" lon="3.05704">
        <ele>180.925755</ele>
        <time>2025-10-23T08:27:24Z</time>
      </trkpt>
      <trkpt lat="43.57965" lon="3.05709">
        <ele>180.818527</ele>
        <time>2025-10-23T08:27:25Z</time>
      </trkpt>
      <trkpt lat="43.57967" lon="3.05715">
        <ele>180.711771</ele>
        <time>2025-10-23T08:27:26Z</time>
      </trkpt>
      <trkpt lat="43.57969" lon="3.0572">
        <ele>180.605981</ele>
        <time>2025-10-23T08:27:27Z</time>
      </trkpt>
      <trkpt lat="43.57971" lon="3.05725">
        <ele>180.498509</ele>
        <time>2025-10-23T08:27:28Z</time>
      </trkpt>
      <trkpt lat="43.57973" lon="3.05731">
        <ele>180.385296</ele>
        <time>2025-10-23T08:27:29Z</time>
      </trkpt>
      <trkpt lat="43.57975" lon="3.05737">
        <ele>180.272561</ele>
        <time>2025-10-23T08:27:30Z</time>
      </trkpt>
      <trkpt lat="43.57977" lon="3.05742">
        <ele>180.163021</ele>
        <time>2025-10-23T08:27:31Z</time>
      </trkpt>
      <trkpt lat="43.57979" lon="3.05747">
        <ele>180.050287</ele>
        <time>2025-10-23T08:27:32Z</time>
      </trkpt>
      <trkpt lat="43.57981" lon="3.05753">
        <ele>179.93381</ele>
        <time>2025-10-23T08:27:33Z</time>
      </trkpt>
      <trkpt lat="43.57983" lon="3.05759">
        <ele>179.898102</ele>
        <time>2025-10-23T08:27:34Z</time>
      </trkpt>
      <trkpt lat="43.57985" lon="3.05765">
        <ele>179.911105</ele>
        <time>2025-10-23T08:27:35Z</time>
      </trkpt>
      <trkpt lat="43.57988" lon="3.0577">
        <ele>179.924094</ele>
        <time>2025-10-23T08:27:36Z</time>
      </trkpt>
      <trkpt lat="43.5799" lon="3.05776">
        <ele>179.937038</ele>
        <time>2025-10-23T08:27:37Z</time>
      </trkpt>
      <trkpt lat="43.57993" lon="3.05781">
        <ele>179.950169</ele>
        <time>2025-10-23T08:27:38Z</time>
      </trkpt>
      <trkpt lat="43.57995" lon="3.05787">
        <ele>179.963113</ele>
        <time>2025-10-23T08:27:39Z</time>
      </trkpt>
      <trkpt lat="43.57998" lon="3.05792">
        <ele>179.975348</ele>
        <time>2025-10-23T08:27:40Z</time>
      </trkpt>
      <trkpt lat="43.58" lon="3.05798">
        <ele>179.987759</ele>
        <time>2025-10-23T08:27:41Z</time>
      </trkpt>
      <trkpt lat="43.58002" lon="3.05803">
        <ele>180.000525</ele>
        <time>2025-10-23T08:27:42Z</time>
      </trkpt>
      <trkpt lat="43.58004" lon="3.05809">
        <ele>180.012455</ele>
        <time>2025-10-23T08:27:43Z</time>
      </trkpt>
      <trkpt lat="43.58006" lon="3.05814">
        <ele>180.025132</ele>
        <time>2025-10-23T08:27:44Z</time>
      </trkpt>
      <trkpt lat="43.58009" lon="3.0582">
        <ele>180.038605</ele>
        <time>2025-10-23T08:27:45Z</time>
      </trkpt>
      <trkpt lat="43.58011" lon="3.05826">
        <ele>180.052287</ele>
        <time>2025-10-23T08:27:46Z</time>
      </trkpt>
      <trkpt lat="43.58013" lon="3.05833">
        <ele>180.067208</ele>
        <time>2025-10-23T08:27:47Z</time>
      </trkpt>
      <trkpt lat="43.58015" lon="3.05839">
        <ele>180.081598</ele>
        <time>2025-10-23T08:27:48Z</time>
      </trkpt>
      <trkpt lat="43.58018" lon="3.05846">
        <ele>180.096171</ele>
        <time>2025-10-23T08:27:49Z</time>
      </trkpt>
      <trkpt lat="43.5802" lon="3.05852">
        <ele>180.110086</ele>
        <time>2025-10-23T08:27:50Z</time>
      </trkpt>
      <trkpt lat="43.58022" lon="3.05859">
        <ele>180.12393</ele>
        <time>2025-10-23T08:27:51Z</time>
      </trkpt>
      <trkpt lat="43.58023" lon="3.05865">
        <ele>180.1366</ele>
        <time>2025-10-23T08:27:52Z</time>
      </trkpt>
      <trkpt lat="43.58025" lon="3.05871">
        <ele>180.150678</ele>
        <time>2025-10-23T08:27:53Z</time>
      </trkpt>
      <trkpt lat="43.58027" lon="3.05878">
        <ele>180.164756</ele>
        <time>2025-10-23T08:27:54Z</time>
      </trkpt>
      <trkpt lat="43.58029" lon="3.05885">
        <ele>180.179209</ele>
        <time>2025-10-23T08:27:55Z</time>
      </trkpt>
      <trkpt lat="43.5803" lon="3.05892">
        <ele>180.194131</ele>
        <time>2025-10-23T08:27:56Z</time>
      </trkpt>
      <trkpt lat="43.58032" lon="3.05899">
        <ele>180.209336</ele>
        <time>2025-10-23T08:27:57Z</time>
      </trkpt>
      <trkpt lat="43.58034" lon="3.05906">
        <ele>180.224353</ele>
        <time>2025-10-23T08:27:58Z</time>
      </trkpt>
      <trkpt lat="43.58036" lon="3.05913">
        <ele>180.238713</ele>
        <time>2025-10-23T08:27:59Z</time>
      </trkpt>
      <trkpt lat="43.58037" lon="3.0592">
        <ele>180.253556</ele>
        <time>2025-10-23T08:28:00Z</time>
      </trkpt>
      <trkpt lat="43.58039" lon="3.05927">
        <ele>180.268105</ele>
        <time>2025-10-23T08:28:01Z</time>
      </trkpt>
      <trkpt lat="43.5804" lon="3.05933">
        <ele>180.281495</ele>
        <time>2025-10-23T08:28:02Z</time>
      </trkpt>
      <trkpt lat="43.58041" lon="3.05939">
        <ele>180.293923</ele>
        <time>2025-10-23T08:28:03Z</time>
      </trkpt>
      <trkpt lat="43.58042" lon="3.05945">
        <ele>180.305223</ele>
        <time>2025-10-23T08:28:04Z</time>
      </trkpt>
      <trkpt lat="43.58043" lon="3.05951">
        <ele>180.317192</ele>
        <time>2025-10-23T08:28:05Z</time>
      </trkpt>
      <trkpt lat="43.58044" lon="3.05957">
        <ele>180.329396</ele>
        <time>2025-10-23T08:28:06Z</time>
      </trkpt>
      <trkpt lat="43.58044" lon="3.05956">
        <ele>180.330536</ele>
        <time>2025-10-23T08:28:07Z</time>
      </trkpt>
      <trkpt lat="43.58044" lon="3.05956">
        <ele>180.330536</ele>
        <time>2025-10-23T08:28:09Z</time>
      </trkpt>
      <trkpt lat="43.58044" lon="3.05956">
        <ele>180.330536</ele>
        <time>2025-10-23T08:28:11Z</time>
      </trkpt>
      <trkpt lat="43.58052" lon="3.05999">
        <ele>180.419623</ele>
        <time>2025-10-23T08:28:12Z</time>
      </trkpt>
      <trkpt lat="43.58053" lon="3.06009">
        <ele>180.439264</ele>
        <time>2025-10-23T08:28:13Z</time>
      </trkpt>
      <trkpt lat="43.58053" lon="3.06018">
        <ele>180.458664</ele>
        <time>2025-10-23T08:28:14Z</time>
      </trkpt>
      <trkpt lat="43.58053" lon="3.06027">
        <ele>180.476863</ele>
        <time>2025-10-23T08:28:15Z</time>
      </trkpt>
      <trkpt lat="43.58054" lon="3.06037">
        <ele>180.496255</ele>
        <time>2025-10-23T08:28:16Z</time>
      </trkpt>
      <trkpt lat="43.58055" lon="3.06045">
        <ele>180.513008</ele>
        <time>2025-10-23T08:28:17Z</time>
      </trkpt>
      <trkpt lat="43.58057" lon="3.06053">
        <ele>180.529044</ele>
        <time>2025-10-23T08:28:18Z</time>
      </trkpt>
      <trkpt lat="43.58058" lon="3.06061">
        <ele>180.546062</ele>
        <time>2025-10-23T08:28:19Z</time>
      </trkpt>
      <trkpt lat="43.5806" lon="3.06069">
        <ele>180.563021</ele>
        <time>2025-10-23T08:28:20Z</time>
      </trkpt>
      <trkpt lat="43.58061" lon="3.06077">
        <ele>180.579977</ele>
        <time>2025-10-23T08:28:21Z</time>
      </trkpt>
      <trkpt lat="43.58062" lon="3.06085">
        <ele>180.595751</ele>
        <time>2025-10-23T08:28:22Z</time>
      </trkpt>
      <trkpt lat="43.58064" lon="3.06093">
        <ele>180.612444</ele>
        <time>2025-10-23T08:28:23Z</time>
      </trkpt>
      <trkpt lat="43.58065" lon="3.06099">
        <ele>180.626224</ele>
        <time>2025-10-23T08:28:24Z</time>
      </trkpt>
      <trkpt lat="43.58066" lon="3.06107">
        <ele>180.641998</ele>
        <time>2025-10-23T08:28:25Z</time>
      </trkpt>
      <trkpt lat="43.58068" lon="3.06115">
        <ele>180.65771</ele>
        <time>2025-10-23T08:28:26Z</time>
      </trkpt>
      <trkpt lat="43.58069" lon="3.06121">
        <ele>180.670681</ele>
        <time>2025-10-23T08:28:27Z</time>
      </trkpt>
      <trkpt lat="43.5807" lon="3.06129">
        <ele>180.687251</ele>
        <time>2025-10-23T08:28:28Z</time>
      </trkpt>
      <trkpt lat="43.58072" lon="3.06136">
        <ele>180.703493</ele>
        <time>2025-10-23T08:28:29Z</time>
      </trkpt>
      <trkpt lat="43.58074" lon="3.06144">
        <ele>180.719368</ele>
        <time>2025-10-23T08:28:30Z</time>
      </trkpt>
      <trkpt lat="43.58076" lon="3.06151">
        <ele>180.735322</ele>
        <time>2025-10-23T08:28:31Z</time>
      </trkpt>
      <trkpt lat="43.58078" lon="3.06159">
        <ele>180.751277</ele>
        <time>2025-10-23T08:28:32Z</time>
      </trkpt>
      <trkpt lat="43.5808" lon="3.06166">
        <ele>180.767708</ele>
        <time>2025-10-23T08:28:33Z</time>
      </trkpt>
      <trkpt lat="43.58082" lon="3.06174">
        <ele>180.783567</ele>
        <time>2025-10-23T08:28:34Z</time>
      </trkpt>
      <trkpt lat="43.58084" lon="3.06181">
        <ele>180.799332</ele>
        <time>2025-10-23T08:28:35Z</time>
      </trkpt>
      <trkpt lat="43.58086" lon="3.06189">
        <ele>180.815763</ele>
        <time>2025-10-23T08:28:36Z</time>
      </trkpt>
      <trkpt lat="43.58088" lon="3.06196">
        <ele>180.831907</ele>
        <time>2025-10-23T08:28:37Z</time>
      </trkpt>
      <trkpt lat="43.5809" lon="3.06204">
        <ele>180.847961</ele>
        <time>2025-10-23T08:28:38Z</time>
      </trkpt>
      <trkpt lat="43.58092" lon="3.06211">
        <ele>180.864203</ele>
        <time>2025-10-23T08:28:39Z</time>
      </trkpt>
      <trkpt lat="43.58094" lon="3.06218">
        <ele>180.87978</ele>
        <time>2025-10-23T08:28:40Z</time>
      </trkpt>
      <trkpt lat="43.58096" lon="3.06225">
        <ele>180.883819</ele>
        <time>2025-10-23T08:28:41Z</time>
      </trkpt>
      <trkpt lat="43.58098" lon="3.06232">
        <ele>180.87749</ele>
        <time>2025-10-23T08:28:42Z</time>
      </trkpt>
      <trkpt lat="43.581" lon="3.06239">
        <ele>180.871073</ele>
        <time>2025-10-23T08:28:43Z</time>
      </trkpt>
      <trkpt lat="43.58102" lon="3.06246">
        <ele>180.864863</ele>
        <time>2025-10-23T08:28:44Z</time>
      </trkpt>
      <trkpt lat="43.58105" lon="3.06253">
        <ele>180.858601</ele>
        <time>2025-10-23T08:28:45Z</time>
      </trkpt>
      <trkpt lat="43.58107" lon="3.0626">
        <ele>180.852265</ele>
        <time>2025-10-23T08:28:46Z</time>
      </trkpt>
      <trkpt lat="43.5811" lon="3.06267">
        <ele>180.845706</ele>
        <time>2025-10-23T08:28:47Z</time>
      </trkpt>
      <trkpt lat="43.58112" lon="3.06274">
        <ele>180.83947</ele>
        <time>2025-10-23T08:28:48Z</time>
      </trkpt>
      <trkpt lat="43.58115" lon="3.0628">
        <ele>180.83311</ele>
        <time>2025-10-23T08:28:49Z</time>
      </trkpt>
      <trkpt lat="43.58117" lon="3.06287">
        <ele>180.826724</ele>
        <time>2025-10-23T08:28:50Z</time>
      </trkpt>
      <trkpt lat="43.58119" lon="3.06294">
        <ele>180.820439</ele>
        <time>2025-10-23T08:28:51Z</time>
      </trkpt>
      <trkpt lat="43.58122" lon="3.06301">
        <ele>180.814154</ele>
        <time>2025-10-23T08:28:52Z</time>
      </trkpt>
      <trkpt lat="43.58124" lon="3.06308">
        <ele>180.807719</ele>
        <time>2025-10-23T08:28:53Z</time>
      </trkpt>
      <trkpt lat="43.58126" lon="3.06315">
        <ele>180.801484</ele>
        <time>2025-10-23T08:28:54Z</time>
      </trkpt>
      <trkpt lat="43.58129" lon="3.06322">
        <ele>180.795274</ele>
        <time>2025-10-23T08:28:55Z</time>
      </trkpt>
      <trkpt lat="43.58131" lon="3.06328">
        <ele>180.788976</ele>
        <time>2025-10-23T08:28:56Z</time>
      </trkpt>
      <trkpt lat="43.58134" lon="3.06335">
        <ele>180.782763</ele>
        <time>2025-10-23T08:28:57Z</time>
      </trkpt>
      <trkpt lat="43.58137" lon="3.06341">
        <ele>180.776499</ele>
        <time>2025-10-23T08:28:58Z</time>
      </trkpt>
      <trkpt lat="43.5814" lon="3.06347">
        <ele>180.770235</ele>
        <time>2025-10-23T08:28:59Z</time>
      </trkpt>
      <trkpt lat="43.58143" lon="3.06353">
        <ele>180.764246</ele>
        <time>2025-10-23T08:29:00Z</time>
      </trkpt>
      <trkpt lat="43.58146" lon="3.06359">
        <ele>180.758257</ele>
        <time>2025-10-23T08:29:01Z</time>
      </trkpt>
      <trkpt lat="43.58149" lon="3.06364">
        <ele>180.752532</ele>
        <time>2025-10-23T08:29:02Z</time>
      </trkpt>
      <trkpt lat="43.58152" lon="3.0637">
        <ele>180.746947</ele>
        <time>2025-10-23T08:29:03Z</time>
      </trkpt>
      <trkpt lat="43.58155" lon="3.06375">
        <ele>180.741552</ele>
        <time>2025-10-23T08:29:04Z</time>
      </trkpt>
      <trkpt lat="43.58158" lon="3.06379">
        <ele>180.736332</ele>
        <time>2025-10-23T08:29:05Z</time>
      </trkpt>
      <trkpt lat="43.58162" lon="3.06383">
        <ele>180.731184</ele>
        <time>2025-10-23T08:29:06Z</time>
      </trkpt>
      <trkpt lat="43.58165" lon="3.06388">
        <ele>180.726084</ele>
        <time>2025-10-23T08:29:07Z</time>
      </trkpt>
      <trkpt lat="43.58168" lon="3.06392">
        <ele>180.721217</ele>
        <time>2025-10-23T08:29:08Z</time>
      </trkpt>
      <trkpt lat="43.58171" lon="3.06396">
        <ele>180.716515</ele>
        <time>2025-10-23T08:29:09Z</time>
      </trkpt>
      <trkpt lat="43.58173" lon="3.064">
        <ele>180.712408</ele>
        <time>2025-10-23T08:29:10Z</time>
      </trkpt>
      <trkpt lat="43.58176" lon="3.064">
        <ele>180.708931</ele>
        <time>2025-10-23T08:29:11Z</time>
      </trkpt>
      <trkpt lat="43.58179" lon="3.06399">
        <ele>180.705856</ele>
        <time>2025-10-23T08:29:12Z</time>
      </trkpt>
      <trkpt lat="43.58181" lon="3.06399">
        <ele>180.702758</ele>
        <time>2025-10-23T08:29:13Z</time>
      </trkpt>
      <trkpt lat="43.58183" lon="3.064">
        <ele>180.700299</ele>
        <time>2025-10-23T08:29:14Z</time>
      </trkpt>
      <trkpt lat="43.58184" lon="3.064">
        <ele>180.699079</ele>
        <time>2025-10-23T08:29:15Z</time>
      </trkpt>
      <trkpt lat="43.58184" lon="3.06401">
        <ele>180.698414</ele>
        <time>2025-10-23T08:29:16Z</time>
      </trkpt>
      <trkpt lat="43.58185" lon="3.06402">
        <ele>180.697808</ele>
        <time>2025-10-23T08:29:17Z</time>
      </trkpt>
      <trkpt lat="43.58185" lon="3.06402">
        <ele>180.697606</ele>
        <time>2025-10-23T08:29:18Z</time>
      </trkpt>
      <trkpt lat="43.58184" lon="3.06402">
        <ele>180.696918</ele>
        <time>2025-10-23T08:29:19Z</time>
      </trkpt>
      <trkpt lat="43.58184" lon="3.06401">
        <ele>180.696536</ele>
        <time>2025-10-23T08:29:20Z</time>
      </trkpt>
      <trkpt lat="43.58186" lon="3.06401">
        <ele>180.694122</ele>
        <time>2025-10-23T08:40:50Z</time>
      </trkpt>
      <trkpt lat="43.58186" lon="3.06401">
        <ele>180.693955</ele>
        <time>2025-10-23T08:40:51Z</time>
      </trkpt>
      <trkpt lat="43.58186" lon="3.06401">
        <ele>180.693617</ele>
        <time>2025-10-23T08:40:52Z</time>
      </trkpt>
      <trkpt lat="43.58186" lon="3.06401">
        <ele>180.693617</ele>
        <time>2025-10-23T08:40:53Z</time>
      </trkpt>
      <trkpt lat="43.58186" lon="3.06401">
        <ele>180.693617</ele>
        <time>2025-10-23T08:40:54Z</time>
      </trkpt>
      <trkpt lat="43.58186" lon="3.06401">
        <ele>180.692998</ele>
        <time>2025-10-23T08:40:55Z</time>
      </trkpt>
      <trkpt lat="43.58188" lon="3.06402">
        <ele>180.69115</ele>
        <time>2025-10-23T08:40:56Z</time>
      </trkpt>
      <trkpt lat="43.5819" lon="3.06404">
        <ele>180.688317</ele>
        <time>2025-10-23T08:40:57Z</time>
      </trkpt>
      <trkpt lat="43.58192" lon="3.06408">
        <ele>180.684652</ele>
        <time>2025-10-23T08:40:58Z</time>
      </trkpt>
      <trkpt lat="43.58193" lon="3.06412">
        <ele>180.680353</ele>
        <time>2025-10-23T08:40:59Z</time>
      </trkpt>
      <trkpt lat="43.58195" lon="3.06416">
        <ele>180.667371</ele>
        <time>2025-10-23T08:41:00Z</time>
      </trkpt>
      <trkpt lat="43.58196" lon="3.0642">
        <ele>180.654737</ele>
        <time>2025-10-23T08:41:01Z</time>
      </trkpt>
      <trkpt lat="43.58198" lon="3.06425">
        <ele>180.641376</ele>
        <time>2025-10-23T08:41:02Z</time>
      </trkpt>
      <trkpt lat="43.58201" lon="3.06429">
        <ele>180.628039</ele>
        <time>2025-10-23T08:41:03Z</time>
      </trkpt>
      <trkpt lat="43.58203" lon="3.06432">
        <ele>180.614638</ele>
        <time>2025-10-23T08:41:04Z</time>
      </trkpt>
      <trkpt lat="43.58206" lon="3.06435">
        <ele>180.601916</ele>
        <time>2025-10-23T08:41:05Z</time>
      </trkpt>
      <trkpt lat="43.58208" lon="3.06437">
        <ele>180.591186</ele>
        <time>2025-10-23T08:41:06Z</time>
      </trkpt>
      <trkpt lat="43.58211" lon="3.06439">
        <ele>180.580423</ele>
        <time>2025-10-23T08:41:07Z</time>
      </trkpt>
      <trkpt lat="43.58213" lon="3.06442">
        <ele>180.570004</ele>
        <time>2025-10-23T08:41:08Z</time>
      </trkpt>
      <trkpt lat="43.58214" lon="3.06446">
        <ele>180.557928</ele>
        <time>2025-10-23T08:41:09Z</time>
      </trkpt>
      <trkpt lat="43.58214" lon="3.0645">
        <ele>180.546976</ele>
        <time>2025-10-23T08:41:10Z</time>
      </trkpt>
      <trkpt lat="43.58216" lon="3.06454">
        <ele>180.534519</ele>
        <time>2025-10-23T08:41:11Z</time>
      </trkpt>
      <trkpt lat="43.58219" lon="3.06457">
        <ele>180.521257</ele>
        <time>2025-10-23T08:41:12Z</time>
      </trkpt>
      <trkpt lat="43.58222" lon="3.0646">
        <ele>180.507919</ele>
        <time>2025-10-23T08:41:13Z</time>
      </trkpt>
      <trkpt lat="43.58225" lon="3.06463">
        <ele>180.493338</ele>
        <time>2025-10-23T08:41:14Z</time>
      </trkpt>
      <trkpt lat="43.58228" lon="3.06467">
        <ele>180.47846</ele>
        <time>2025-10-23T08:41:15Z</time>
      </trkpt>
      <trkpt lat="43.58232" lon="3.0647">
        <ele>180.4625</ele>
        <time>2025-10-23T08:41:16Z</time>
      </trkpt>
      <trkpt lat="43.58235" lon="3.06475">
        <ele>180.445324</ele>
        <time>2025-10-23T08:41:17Z</time>
      </trkpt>
      <trkpt lat="43.58238" lon="3.06479">
        <ele>180.427664</ele>
        <time>2025-10-23T08:41:18Z</time>
      </trkpt>
      <trkpt lat="43.58242" lon="3.06484">
        <ele>180.410196</ele>
        <time>2025-10-23T08:41:19Z</time>
      </trkpt>
      <trkpt lat="43.58245" lon="3.06489">
        <ele>180.39174</ele>
        <time>2025-10-23T08:41:20Z</time>
      </trkpt>
      <trkpt lat="43.58249" lon="3.06493">
        <ele>180.374356</ele>
        <time>2025-10-23T08:41:21Z</time>
      </trkpt>
      <trkpt lat="43.58253" lon="3.06497">
        <ele>180.355531</ele>
        <time>2025-10-23T08:41:22Z</time>
      </trkpt>
      <trkpt lat="43.58256" lon="3.06502">
        <ele>180.336889</ele>
        <time>2025-10-23T08:41:23Z</time>
      </trkpt>
      <trkpt lat="43.5826" lon="3.06506">
        <ele>180.318874</ele>
        <time>2025-10-23T08:41:24Z</time>
      </trkpt>
      <trkpt lat="43.58263" lon="3.06511">
        <ele>180.300785</ele>
        <time>2025-10-23T08:41:25Z</time>
      </trkpt>
      <trkpt lat="43.58267" lon="3.06515">
        <ele>180.283333</ele>
        <time>2025-10-23T08:41:26Z</time>
      </trkpt>
      <trkpt lat="43.5827" lon="3.06519">
        <ele>180.267071</ele>
        <time>2025-10-23T08:41:27Z</time>
      </trkpt>
      <trkpt lat="43.58273" lon="3.06524">
        <ele>180.249982</ele>
        <time>2025-10-23T08:41:28Z</time>
      </trkpt>
      <trkpt lat="43.58277" lon="3.06528">
        <ele>180.23316</ele>
        <time>2025-10-23T08:41:29Z</time>
      </trkpt>
      <trkpt lat="43.5828" lon="3.06532">
        <ele>180.216713</ele>
        <time>2025-10-23T08:41:30Z</time>
      </trkpt>
      <trkpt lat="43.58283" lon="3.06536">
        <ele>180.1995</ele>
        <time>2025-10-23T08:41:31Z</time>
      </trkpt>
      <trkpt lat="43.58287" lon="3.0654">
        <ele>180.181658</ele>
        <time>2025-10-23T08:41:32Z</time>
      </trkpt>
      <trkpt lat="43.58291" lon="3.06544">
        <ele>180.164613</ele>
        <time>2025-10-23T08:41:33Z</time>
      </trkpt>
      <trkpt lat="43.58294" lon="3.06549">
        <ele>180.147254</ele>
        <time>2025-10-23T08:41:34Z</time>
      </trkpt>
      <trkpt lat="43.58298" lon="3.06553">
        <ele>180.130079</ele>
        <time>2025-10-23T08:41:35Z</time>
      </trkpt>
      <trkpt lat="43.58301" lon="3.06558">
        <ele>180.111771</ele>
        <time>2025-10-23T08:41:36Z</time>
      </trkpt>
      <trkpt lat="43.58305" lon="3.06562">
        <ele>180.093756</ele>
        <time>2025-10-23T08:41:37Z</time>
      </trkpt>
      <trkpt lat="43.58309" lon="3.06567">
        <ele>180.075165</ele>
        <time>2025-10-23T08:41:38Z</time>
      </trkpt>
      <trkpt lat="43.58312" lon="3.06571">
        <ele>180.056906</ele>
        <time>2025-10-23T08:41:39Z</time>
      </trkpt>
      <trkpt lat="43.58316" lon="3.06575">
        <ele>180.038792</ele>
        <time>2025-10-23T08:41:40Z</time>
      </trkpt>
      <trkpt lat="43.58319" lon="3.0658">
        <ele>180.02106</ele>
        <time>2025-10-23T08:41:41Z</time>
      </trkpt>
      <trkpt lat="43.58323" lon="3.06584">
        <ele>179.990357</ele>
        <time>2025-10-23T08:41:42Z</time>
      </trkpt>
      <trkpt lat="43.58326" lon="3.06589">
        <ele>179.938435</ele>
        <time>2025-10-23T08:41:43Z</time>
      </trkpt>
      <trkpt lat="43.58329" lon="3.06594">
        <ele>179.883274</ele>
        <time>2025-10-23T08:41:44Z</time>
      </trkpt>
      <trkpt lat="43.58332" lon="3.06598">
        <ele>179.828908</ele>
        <time>2025-10-23T08:41:45Z</time>
      </trkpt>
      <trkpt lat="43.58336" lon="3.06602">
        <ele>179.775925</ele>
        <time>2025-10-23T08:41:46Z</time>
      </trkpt>
      <trkpt lat="43.58339" lon="3.06606">
        <ele>179.725042</ele>
        <time>2025-10-23T08:41:47Z</time>
      </trkpt>
      <trkpt lat="43.58342" lon="3.0661">
        <ele>179.67465</ele>
        <time>2025-10-23T08:41:48Z</time>
      </trkpt>
      <trkpt lat="43.58345" lon="3.06614">
        <ele>179.625333</ele>
        <time>2025-10-23T08:41:49Z</time>
      </trkpt>
      <trkpt lat="43.58349" lon="3.06619">
        <ele>179.573788</ele>
        <time>2025-10-23T08:41:50Z</time>
      </trkpt>
      <trkpt lat="43.58352" lon="3.06623">
        <ele>179.525063</ele>
        <time>2025-10-23T08:41:51Z</time>
      </trkpt>
      <trkpt lat="43.58355" lon="3.06627">
        <ele>179.473518</ele>
        <time>2025-10-23T08:41:52Z</time>
      </trkpt>
      <trkpt lat="43.58358" lon="3.06631">
        <ele>179.426761</ele>
        <time>2025-10-23T08:41:53Z</time>
      </trkpt>
      <trkpt lat="43.58361" lon="3.06634">
        <ele>179.377807</ele>
        <time>2025-10-23T08:41:54Z</time>
      </trkpt>
      <trkpt lat="43.58365" lon="3.06638">
        <ele>179.326563</ele>
        <time>2025-10-23T08:41:55Z</time>
      </trkpt>
      <trkpt lat="43.58368" lon="3.06643">
        <ele>179.273838</ele>
        <time>2025-10-23T08:41:56Z</time>
      </trkpt>
      <trkpt lat="43.58371" lon="3.06647">
        <ele>179.221461</ele>
        <time>2025-10-23T08:41:57Z</time>
      </trkpt>
      <trkpt lat="43.58374" lon="3.06652">
        <ele>179.165047</ele>
        <time>2025-10-23T08:41:58Z</time>
      </trkpt>
      <trkpt lat="43.58377" lon="3.06657">
        <ele>179.108809</ele>
        <time>2025-10-23T08:41:59Z</time>
      </trkpt>
      <trkpt lat="43.5838" lon="3.06663">
        <ele>179.053228</ele>
        <time>2025-10-23T08:42:00Z</time>
      </trkpt>
      <trkpt lat="43.58383" lon="3.06667">
        <ele>179.000082</ele>
        <time>2025-10-23T08:42:01Z</time>
      </trkpt>
      <trkpt lat="43.58386" lon="3.06672">
        <ele>178.947705</ele>
        <time>2025-10-23T08:42:02Z</time>
      </trkpt>
      <trkpt lat="43.5839" lon="3.06677">
        <ele>178.893938</ele>
        <time>2025-10-23T08:42:03Z</time>
      </trkpt>
      <trkpt lat="43.58393" lon="3.06682">
        <ele>178.83689</ele>
        <time>2025-10-23T08:42:04Z</time>
      </trkpt>
      <trkpt lat="43.58396" lon="3.06687">
        <ele>178.778939</ele>
        <time>2025-10-23T08:42:05Z</time>
      </trkpt>
      <trkpt lat="43.58399" lon="3.06693">
        <ele>178.722735</ele>
        <time>2025-10-23T08:42:06Z</time>
      </trkpt>
      <trkpt lat="43.58402" lon="3.06698">
        <ele>178.667121</ele>
        <time>2025-10-23T08:42:07Z</time>
      </trkpt>
      <trkpt lat="43.58404" lon="3.06703">
        <ele>178.614293</ele>
        <time>2025-10-23T08:42:08Z</time>
      </trkpt>
      <trkpt lat="43.58407" lon="3.06709">
        <ele>178.558758</ele>
        <time>2025-10-23T08:42:09Z</time>
      </trkpt>
      <trkpt lat="43.5841" lon="3.06714">
        <ele>178.502451</ele>
        <time>2025-10-23T08:42:10Z</time>
      </trkpt>
      <trkpt lat="43.58413" lon="3.06719">
        <ele>178.447424</ele>
        <time>2025-10-23T08:42:11Z</time>
      </trkpt>
      <trkpt lat="43.58416" lon="3.06724">
        <ele>178.39189</ele>
        <time>2025-10-23T08:42:12Z</time>
      </trkpt>
      <trkpt lat="43.58419" lon="3.0673">
        <ele>178.337487</ele>
        <time>2025-10-23T08:42:13Z</time>
      </trkpt>
      <trkpt lat="43.58421" lon="3.06734">
        <ele>178.290072</ele>
        <time>2025-10-23T08:42:14Z</time>
      </trkpt>
      <trkpt lat="43.58424" lon="3.06739">
        <ele>178.237891</ele>
        <time>2025-10-23T08:42:15Z</time>
      </trkpt>
      <trkpt lat="43.58426" lon="3.06745">
        <ele>178.185515</ele>
        <time>2025-10-23T08:42:16Z</time>
      </trkpt>
      <trkpt lat="43.58428" lon="3.0675">
        <ele>178.132545</ele>
        <time>2025-10-23T08:42:17Z</time>
      </trkpt>
      <trkpt lat="43.58431" lon="3.06756">
        <ele>178.078963</ele>
        <time>2025-10-23T08:42:18Z</time>
      </trkpt>
      <trkpt lat="43.58434" lon="3.06761">
        <ele>178.021319</ele>
        <time>2025-10-23T08:42:19Z</time>
      </trkpt>
      <trkpt lat="43.58437" lon="3.06767">
        <ele>177.961732</ele>
        <time>2025-10-23T08:42:20Z</time>
      </trkpt>
      <trkpt lat="43.58439" lon="3.06773">
        <ele>177.947379</ele>
        <time>2025-10-23T08:42:21Z</time>
      </trkpt>
      <trkpt lat="43.58442" lon="3.06779">
        <ele>177.969555</ele>
        <time>2025-10-23T08:42:22Z</time>
      </trkpt>
      <trkpt lat="43.58445" lon="3.06784">
        <ele>177.991512</ele>
        <time>2025-10-23T08:42:23Z</time>
      </trkpt>
      <trkpt lat="43.58447" lon="3.06789">
        <ele>178.012622</ele>
        <time>2025-10-23T08:42:24Z</time>
      </trkpt>
      <trkpt lat="43.5845" lon="3.06795">
        <ele>178.033733</ele>
        <time>2025-10-23T08:42:25Z</time>
      </trkpt>
      <trkpt lat="43.58452" lon="3.068">
        <ele>178.056171</ele>
        <time>2025-10-23T08:42:26Z</time>
      </trkpt>
      <trkpt lat="43.58456" lon="3.06805">
        <ele>178.07865</ele>
        <time>2025-10-23T08:42:27Z</time>
      </trkpt>
      <trkpt lat="43.58458" lon="3.06811">
        <ele>178.100551</ele>
        <time>2025-10-23T08:42:28Z</time>
      </trkpt>
      <trkpt lat="43.58461" lon="3.06817">
        <ele>178.123845</ele>
        <time>2025-10-23T08:42:29Z</time>
      </trkpt>
      <trkpt lat="43.58464" lon="3.06823">
        <ele>178.147182</ele>
        <time>2025-10-23T08:42:30Z</time>
      </trkpt>
      <trkpt lat="43.58466" lon="3.06828">
        <ele>178.169914</ele>
        <time>2025-10-23T08:42:31Z</time>
      </trkpt>
      <trkpt lat="43.58469" lon="3.06834">
        <ele>178.191557</ele>
        <time>2025-10-23T08:42:32Z</time>
      </trkpt>
      <trkpt lat="43.58471" lon="3.0684">
        <ele>178.216206</ele>
        <time>2025-10-23T08:42:33Z</time>
      </trkpt>
      <trkpt lat="43.58474" lon="3.06847">
        <ele>178.240067</ele>
        <time>2025-10-23T08:42:34Z</time>
      </trkpt>
      <trkpt lat="43.58477" lon="3.06853">
        <ele>178.263928</ele>
        <time>2025-10-23T08:42:35Z</time>
      </trkpt>
      <trkpt lat="43.58479" lon="3.06859">
        <ele>178.286979</ele>
        <time>2025-10-23T08:42:36Z</time>
      </trkpt>
      <trkpt lat="43.58482" lon="3.06864">
        <ele>178.30996</ele>
        <time>2025-10-23T08:42:37Z</time>
      </trkpt>
      <trkpt lat="43.58485" lon="3.06869">
        <ele>178.333247</ele>
        <time>2025-10-23T08:42:38Z</time>
      </trkpt>
      <trkpt lat="43.58488" lon="3.06875">
        <ele>178.355413</ele>
        <time>2025-10-23T08:42:39Z</time>
      </trkpt>
      <trkpt lat="43.58491" lon="3.06881">
        <ele>178.378228</ele>
        <time>2025-10-23T08:42:40Z</time>
      </trkpt>
      <trkpt lat="43.58493" lon="3.06887">
        <ele>178.401873</ele>
        <time>2025-10-23T08:42:41Z</time>
      </trkpt>
      <trkpt lat="43.58495" lon="3.06893">
        <ele>178.423313</ele>
        <time>2025-10-23T08:42:42Z</time>
      </trkpt>
      <trkpt lat="43.58498" lon="3.06898">
        <ele>178.444956</ele>
        <time>2025-10-23T08:42:43Z</time>
      </trkpt>
      <trkpt lat="43.585" lon="3.06904">
        <ele>178.466861</ele>
        <time>2025-10-23T08:42:44Z</time>
      </trkpt>
      <trkpt lat="43.58503" lon="3.06909">
        <ele>178.489298</ele>
        <time>2025-10-23T08:42:45Z</time>
      </trkpt>
      <trkpt lat="43.58506" lon="3.06915">
        <ele>178.512592</ele>
        <time>2025-10-23T08:42:46Z</time>
      </trkpt>
      <trkpt lat="43.58509" lon="3.0692">
        <ele>178.534793</ele>
        <time>2025-10-23T08:42:47Z</time>
      </trkpt>
      <trkpt lat="43.58512" lon="3.06926">
        <ele>178.557231</ele>
        <time>2025-10-23T08:42:48Z</time>
      </trkpt>
      <trkpt lat="43.58515" lon="3.06931">
        <ele>178.580518</ele>
        <time>2025-10-23T08:42:49Z</time>
      </trkpt>
      <trkpt lat="43.58518" lon="3.06937">
        <ele>178.605128</ele>
        <time>2025-10-23T08:42:50Z</time>
      </trkpt>
      <trkpt lat="43.58521" lon="3.06944">
        <ele>178.630042</ele>
        <time>2025-10-23T08:42:51Z</time>
      </trkpt>
      <trkpt lat="43.58523" lon="3.0695">
        <ele>178.655707</ele>
        <time>2025-10-23T08:42:52Z</time>
      </trkpt>
      <trkpt lat="43.58526" lon="3.06957">
        <ele>178.680949</ele>
        <time>2025-10-23T08:42:53Z</time>
      </trkpt>
      <trkpt lat="43.58529" lon="3.06964">
        <ele>178.707057</ele>
        <time>2025-10-23T08:42:54Z</time>
      </trkpt>
      <trkpt lat="43.58531" lon="3.06971">
        <ele>178.732304</ele>
        <time>2025-10-23T08:42:55Z</time>
      </trkpt>
      <trkpt lat="43.58534" lon="3.06977">
        <ele>178.757546</ele>
        <time>2025-10-23T08:42:56Z</time>
      </trkpt>
      <trkpt lat="43.58537" lon="3.06984">
        <ele>178.808997</ele>
        <time>2025-10-23T08:42:57Z</time>
      </trkpt>
      <trkpt lat="43.5854" lon="3.0699">
        <ele>178.861445</ele>
        <time>2025-10-23T08:42:58Z</time>
      </trkpt>
      <trkpt lat="43.58543" lon="3.06995">
        <ele>178.915454</ele>
        <time>2025-10-23T08:42:59Z</time>
      </trkpt>
      <trkpt lat="43.58545" lon="3.07">
        <ele>178.958441</ele>
        <time>2025-10-23T08:43:00Z</time>
      </trkpt>
      <trkpt lat="43.58547" lon="3.07006">
        <ele>179.007115</ele>
        <time>2025-10-23T08:43:01Z</time>
      </trkpt>
      <trkpt lat="43.58549" lon="3.07012">
        <ele>179.059894</ele>
        <time>2025-10-23T08:43:02Z</time>
      </trkpt>
      <trkpt lat="43.58552" lon="3.07017">
        <ele>179.110831</ele>
        <time>2025-10-23T08:43:03Z</time>
      </trkpt>
      <trkpt lat="43.58555" lon="3.07022">
        <ele>179.157613</ele>
        <time>2025-10-23T08:43:04Z</time>
      </trkpt>
      <trkpt lat="43.58559" lon="3.07027">
        <ele>179.207757</ele>
        <time>2025-10-23T08:43:05Z</time>
      </trkpt>
      <trkpt lat="43.58562" lon="3.07032">
        <ele>179.258129</ele>
        <time>2025-10-23T08:43:06Z</time>
      </trkpt>
      <trkpt lat="43.58564" lon="3.07037">
        <ele>179.307261</ele>
        <time>2025-10-23T08:43:07Z</time>
      </trkpt>
      <trkpt lat="43.58566" lon="3.07043">
        <ele>179.355532</ele>
        <time>2025-10-23T08:43:08Z</time>
      </trkpt>
      <trkpt lat="43.58569" lon="3.07049">
        <ele>179.410473</ele>
        <time>2025-10-23T08:43:09Z</time>
      </trkpt>
      <trkpt lat="43.58572" lon="3.07055">
        <ele>179.464482</ele>
        <time>2025-10-23T08:43:10Z</time>
      </trkpt>
      <trkpt lat="43.58575" lon="3.07061">
        <ele>179.522191</ele>
        <time>2025-10-23T08:43:11Z</time>
      </trkpt>
      <trkpt lat="43.58578" lon="3.07067">
        <ele>179.578648</ele>
        <time>2025-10-23T08:43:12Z</time>
      </trkpt>
      <trkpt lat="43.58582" lon="3.07073">
        <ele>179.635718</ele>
        <time>2025-10-23T08:43:13Z</time>
      </trkpt>
      <trkpt lat="43.58585" lon="3.07079">
        <ele>179.692845</ele>
        <time>2025-10-23T08:43:14Z</time>
      </trkpt>
      <trkpt lat="43.58589" lon="3.07085">
        <ele>179.749014</ele>
        <time>2025-10-23T08:43:15Z</time>
      </trkpt>
      <trkpt lat="43.58592" lon="3.0709">
        <ele>179.8028</ele>
        <time>2025-10-23T08:43:16Z</time>
      </trkpt>
      <trkpt lat="43.58596" lon="3.07095">
        <ele>179.856218</ele>
        <time>2025-10-23T08:43:17Z</time>
      </trkpt>
      <trkpt lat="43.58599" lon="3.071">
        <ele>179.908304</ele>
        <time>2025-10-23T08:43:18Z</time>
      </trkpt>
      <trkpt lat="43.58603" lon="3.07104">
        <ele>179.957822</ele>
        <time>2025-10-23T08:43:19Z</time>
      </trkpt>
      <trkpt lat="43.58607" lon="3.07109">
        <ele>180.011976</ele>
        <time>2025-10-23T08:43:20Z</time>
      </trkpt>
      <trkpt lat="43.58611" lon="3.07113">
        <ele>180.064844</ele>
        <time>2025-10-23T08:43:21Z</time>
      </trkpt>
      <trkpt lat="43.58614" lon="3.07119">
        <ele>180.121166</ele>
        <time>2025-10-23T08:43:22Z</time>
      </trkpt>
      <trkpt lat="43.58618" lon="3.07124">
        <ele>180.17969</ele>
        <time>2025-10-23T08:43:23Z</time>
      </trkpt>
      <trkpt lat="43.58622" lon="3.07129">
        <ele>180.237212</ele>
        <time>2025-10-23T08:43:24Z</time>
      </trkpt>
      <trkpt lat="43.58626" lon="3.07135">
        <ele>180.296623</ele>
        <time>2025-10-23T08:43:25Z</time>
      </trkpt>
      <trkpt lat="43.5863" lon="3.0714">
        <ele>180.350582</ele>
        <time>2025-10-23T08:43:26Z</time>
      </trkpt>
      <trkpt lat="43.58633" lon="3.07146">
        <ele>180.408366</ele>
        <time>2025-10-23T08:43:27Z</time>
      </trkpt>
      <trkpt lat="43.58637" lon="3.07151">
        <ele>180.463804</ele>
        <time>2025-10-23T08:43:28Z</time>
      </trkpt>
      <trkpt lat="43.58641" lon="3.07156">
        <ele>180.520127</ele>
        <time>2025-10-23T08:43:29Z</time>
      </trkpt>
      <trkpt lat="43.58645" lon="3.07161">
        <ele>180.574782</ele>
        <time>2025-10-23T08:43:30Z</time>
      </trkpt>
      <trkpt lat="43.58648" lon="3.07166">
        <ele>180.629125</ele>
        <time>2025-10-23T08:43:31Z</time>
      </trkpt>
      <trkpt lat="43.58652" lon="3.07171">
        <ele>180.615781</ele>
        <time>2025-10-23T08:43:32Z</time>
      </trkpt>
      <trkpt lat="43.58655" lon="3.07176">
        <ele>180.576783</ele>
        <time>2025-10-23T08:43:33Z</time>
      </trkpt>
      <trkpt lat="43.58659" lon="3.07182">
        <ele>180.536765</ele>
        <time>2025-10-23T08:43:34Z</time>
      </trkpt>
      <trkpt lat="43.58662" lon="3.07187">
        <ele>180.496817</ele>
        <time>2025-10-23T08:43:35Z</time>
      </trkpt>
      <trkpt lat="43.58666" lon="3.07192">
        <ele>180.454795</ele>
        <time>2025-10-23T08:43:36Z</time>
      </trkpt>
      <trkpt lat="43.58669" lon="3.07197">
        <ele>180.416902</ele>
        <time>2025-10-23T08:43:37Z</time>
      </trkpt>
      <trkpt lat="43.58672" lon="3.07201">
        <ele>180.381032</ele>
        <time>2025-10-23T08:43:38Z</time>
      </trkpt>
      <trkpt lat="43.58676" lon="3.07206">
        <ele>180.342179</ele>
        <time>2025-10-23T08:43:39Z</time>
      </trkpt>
      <trkpt lat="43.58679" lon="3.07212">
        <ele>180.299319</ele>
        <time>2025-10-23T08:43:40Z</time>
      </trkpt>
      <trkpt lat="43.58684" lon="3.07217">
        <ele>180.256075</ele>
        <time>2025-10-23T08:43:41Z</time>
      </trkpt>
      <trkpt lat="43.58688" lon="3.07221">
        <ele>180.212608</ele>
        <time>2025-10-23T08:43:42Z</time>
      </trkpt>
      <trkpt lat="43.58691" lon="3.07226">
        <ele>180.172645</ele>
        <time>2025-10-23T08:43:43Z</time>
      </trkpt>
      <trkpt lat="43.58695" lon="3.07231">
        <ele>180.131542</ele>
        <time>2025-10-23T08:43:44Z</time>
      </trkpt>
      <trkpt lat="43.58698" lon="3.07236">
        <ele>180.092385</ele>
        <time>2025-10-23T08:43:45Z</time>
      </trkpt>
      <trkpt lat="43.58702" lon="3.07241">
        <ele>180.050492</ele>
        <time>2025-10-23T08:43:46Z</time>
      </trkpt>
      <trkpt lat="43.58706" lon="3.07246">
        <ele>180.011088</ele>
        <time>2025-10-23T08:43:47Z</time>
      </trkpt>
      <trkpt lat="43.58709" lon="3.07251">
        <ele>179.971921</ele>
        <time>2025-10-23T08:43:48Z</time>
      </trkpt>
      <trkpt lat="43.58712" lon="3.07256">
        <ele>179.934237</ele>
        <time>2025-10-23T08:43:49Z</time>
      </trkpt>
      <trkpt lat="43.58715" lon="3.07261">
        <ele>179.897561</ele>
        <time>2025-10-23T08:43:50Z</time>
      </trkpt>
      <trkpt lat="43.58718" lon="3.07266">
        <ele>179.860461</ele>
        <time>2025-10-23T08:43:51Z</time>
      </trkpt>
      <trkpt lat="43.58722" lon="3.07272">
        <ele>179.818859</ele>
        <time>2025-10-23T08:43:52Z</time>
      </trkpt>
      <trkpt lat="43.58725" lon="3.07278">
        <ele>179.772023</ele>
        <time>2025-10-23T08:43:53Z</time>
      </trkpt>
      <trkpt lat="43.58729" lon="3.07284">
        <ele>179.726388</ele>
        <time>2025-10-23T08:43:54Z</time>
      </trkpt>
      <trkpt lat="43.58733" lon="3.0729">
        <ele>179.680653</ele>
        <time>2025-10-23T08:43:55Z</time>
      </trkpt>
      <trkpt lat="43.58736" lon="3.07297">
        <ele>179.634279</ele>
        <time>2025-10-23T08:43:56Z</time>
      </trkpt>
      <trkpt lat="43.5874" lon="3.07304">
        <ele>179.587301</ele>
        <time>2025-10-23T08:43:57Z</time>
      </trkpt>
      <trkpt lat="43.58743" lon="3.0731">
        <ele>179.539537</ele>
        <time>2025-10-23T08:43:58Z</time>
      </trkpt>
      <trkpt lat="43.58747" lon="3.07317">
        <ele>179.492595</ele>
        <time>2025-10-23T08:43:59Z</time>
      </trkpt>
      <trkpt lat="43.58751" lon="3.07323">
        <ele>179.445212</ele>
        <time>2025-10-23T08:44:00Z</time>
      </trkpt>
      <trkpt lat="43.58754" lon="3.0733">
        <ele>179.396478</ele>
        <time>2025-10-23T08:44:01Z</time>
      </trkpt>
      <trkpt lat="43.58757" lon="3.07338">
        <ele>179.347922</ele>
        <time>2025-10-23T08:44:02Z</time>
      </trkpt>
      <trkpt lat="43.5876" lon="3.07344">
        <ele>179.305019</ele>
        <time>2025-10-23T08:44:03Z</time>
      </trkpt>
      <trkpt lat="43.58762" lon="3.07351">
        <ele>179.259818</ele>
        <time>2025-10-23T08:44:04Z</time>
      </trkpt>
      <trkpt lat="43.58765" lon="3.07358">
        <ele>179.221852</ele>
        <time>2025-10-23T08:44:05Z</time>
      </trkpt>
      <trkpt lat="43.58768" lon="3.07364">
        <ele>179.215774</ele>
        <time>2025-10-23T08:44:06Z</time>
      </trkpt>
      <trkpt lat="43.5877" lon="3.0737">
        <ele>179.210297</ele>
        <time>2025-10-23T08:44:07Z</time>
      </trkpt>
      <trkpt lat="43.58772" lon="3.07373">
        <ele>179.206538</ele>
        <time>2025-10-23T08:44:08Z</time>
      </trkpt>
      <trkpt lat="43.58773" lon="3.07375">
        <ele>179.204556</ele>
        <time>2025-10-23T08:44:09Z</time>
      </trkpt>
      <trkpt lat="43.58774" lon="3.07376">
        <ele>179.203729</ele>
        <time>2025-10-23T08:44:10Z</time>
      </trkpt>
      <trkpt lat="43.58774" lon="3.07376">
        <ele>179.20356</ele>
        <time>2025-10-23T08:44:11Z</time>
      </trkpt>
      <trkpt lat="43.58774" lon="3.07376">
        <ele>179.203444</ele>
        <time>2025-10-23T08:44:12Z</time>
      </trkpt>
      <trkpt lat="43.58774" lon="3.07376">
        <ele>179.20324</ele>
        <time>2025-10-23T08:44:13Z</time>
      </trkpt>
      <trkpt lat="43.58774" lon="3.07376">
        <ele>179.202992</ele>
        <time>2025-10-23T08:44:14Z</time>
      </trkpt>
      <trkpt lat="43.58774" lon="3.07376">
        <ele>179.202788</ele>
        <time>2025-10-23T08:44:15Z</time>
      </trkpt>
      <trkpt lat="43.58774" lon="3.07377">
        <ele>179.202445</ele>
        <time>2025-10-23T08:44:16Z</time>
      </trkpt>
      <trkpt lat="43.58774" lon="3.07377">
        <ele>179.20224</ele>
        <time>2025-10-23T08:44:17Z</time>
      </trkpt>
      <trkpt lat="43.58774" lon="3.07376">
        <ele>179.201962</ele>
        <time>2025-10-23T08:44:18Z</time>
      </trkpt>
      <trkpt lat="43.58774" lon="3.07377">
        <ele>179.201606</ele>
        <time>2025-10-23T08:44:19Z</time>
      </trkpt>
      <trkpt lat="43.58775" lon="3.07377">
        <ele>179.201125</ele>
        <time>2025-10-23T08:44:20Z</time>
      </trkpt>
      <trkpt lat="43.58775" lon="3.07378">
        <ele>179.200716</ele>
        <time>2025-10-23T08:44:21Z</time>
      </trkpt>
      <trkpt lat="43.58775" lon="3.07378">
        <ele>179.200235</ele>
        <time>2025-10-23T08:44:22Z</time>
      </trkpt>
      <trkpt lat="43.58775" lon="3.07378">
        <ele>179.199948</ele>
        <time>2025-10-23T08:44:23Z</time>
      </trkpt>
      <trkpt lat="43.58775" lon="3.07379">
        <ele>179.19967</ele>
        <time>2025-10-23T08:44:24Z</time>
      </trkpt>
      <trkpt lat="43.58775" lon="3.07379">
        <ele>179.199037</ele>
        <time>2025-10-23T08:44:25Z</time>
      </trkpt>
      <trkpt lat="43.58776" lon="3.0738">
        <ele>179.198245</ele>
        <time>2025-10-23T08:44:26Z</time>
      </trkpt>
      <trkpt lat="43.58776" lon="3.07381">
        <ele>179.197283</ele>
        <time>2025-10-23T08:44:27Z</time>
      </trkpt>
      <trkpt lat="43.58776" lon="3.07381">
        <ele>179.197167</ele>
        <time>2025-10-23T08:44:28Z</time>
      </trkpt>
      <trkpt lat="43.58776" lon="3.07381">
        <ele>179.196702</ele>
        <time>2025-10-23T08:44:29Z</time>
      </trkpt>
      <trkpt lat="43.58775" lon="3.07381">
        <ele>179.196115</ele>
        <time>2025-10-23T08:44:30Z</time>
      </trkpt>
      <trkpt lat="43.58775" lon="3.07382">
        <ele>179.195323</ele>
        <time>2025-10-23T08:44:31Z</time>
      </trkpt>
      <trkpt lat="43.58775" lon="3.07385">
        <ele>179.19314</ele>
        <time>2025-10-23T08:44:32Z</time>
      </trkpt>
      <trkpt lat="43.58776" lon="3.07388">
        <ele>179.190407</ele>
        <time>2025-10-23T08:44:33Z</time>
      </trkpt>
      <trkpt lat="43.58777" lon="3.07391">
        <ele>179.186995</ele>
        <time>2025-10-23T08:44:34Z</time>
      </trkpt>
      <trkpt lat="43.58779" lon="3.07395">
        <ele>179.183246</ele>
        <time>2025-10-23T08:44:35Z</time>
      </trkpt>
      <trkpt lat="43.58781" lon="3.07399">
        <ele>179.179415</ele>
        <time>2025-10-23T08:44:36Z</time>
      </trkpt>
      <trkpt lat="43.58783" lon="3.07403">
        <ele>179.175143</ele>
        <time>2025-10-23T08:44:37Z</time>
      </trkpt>
      <trkpt lat="43.58785" lon="3.07408">
        <ele>179.170643</ele>
        <time>2025-10-23T08:44:38Z</time>
      </trkpt>
      <trkpt lat="43.58787" lon="3.07412">
        <ele>179.165928</ele>
        <time>2025-10-23T08:44:39Z</time>
      </trkpt>
      <trkpt lat="43.58789" lon="3.07417">
        <ele>179.161304</ele>
        <time>2025-10-23T08:44:40Z</time>
      </trkpt>
      <trkpt lat="43.58791" lon="3.07423">
        <ele>179.156224</ele>
        <time>2025-10-23T08:44:41Z</time>
      </trkpt>
      <trkpt lat="43.58792" lon="3.07428">
        <ele>179.151079</ele>
        <time>2025-10-23T08:44:42Z</time>
      </trkpt>
      <trkpt lat="43.58794" lon="3.07434">
        <ele>179.145974</ele>
        <time>2025-10-23T08:44:43Z</time>
      </trkpt>
      <trkpt lat="43.58795" lon="3.0744">
        <ele>179.140276</ele>
        <time>2025-10-23T08:44:44Z</time>
      </trkpt>
      <trkpt lat="43.58797" lon="3.07447">
        <ele>179.134221</ele>
        <time>2025-10-23T08:44:45Z</time>
      </trkpt>
      <trkpt lat="43.58799" lon="3.07454">
        <ele>179.128087</ele>
        <time>2025-10-23T08:44:46Z</time>
      </trkpt>
      <trkpt lat="43.58801" lon="3.07461">
        <ele>179.122109</ele>
        <time>2025-10-23T08:44:47Z</time>
      </trkpt>
      <trkpt lat="43.58803" lon="3.07467">
        <ele>179.116165</ele>
        <time>2025-10-23T08:44:48Z</time>
      </trkpt>
      <trkpt lat="43.58805" lon="3.07474">
        <ele>179.110307</ele>
        <time>2025-10-23T08:44:49Z</time>
      </trkpt>
      <trkpt lat="43.58806" lon="3.0748">
        <ele>179.104491</ele>
        <time>2025-10-23T08:44:50Z</time>
      </trkpt>
      <trkpt lat="43.58808" lon="3.07487">
        <ele>179.098571</ele>
        <time>2025-10-23T08:44:51Z</time>
      </trkpt>
      <trkpt lat="43.58809" lon="3.07494">
        <ele>179.092669</ele>
        <time>2025-10-23T08:44:52Z</time>
      </trkpt>
      <trkpt lat="43.5881" lon="3.075">
        <ele>179.086961</ele>
        <time>2025-10-23T08:44:53Z</time>
      </trkpt>
      <trkpt lat="43.58812" lon="3.07507">
        <ele>179.0813</ele>
        <time>2025-10-23T08:44:54Z</time>
      </trkpt>
      <trkpt lat="43.58813" lon="3.07513">
        <ele>179.075543</ele>
        <time>2025-10-23T08:44:55Z</time>
      </trkpt>
      <trkpt lat="43.58814" lon="3.0752">
        <ele>179.07016</ele>
        <time>2025-10-23T08:44:56Z</time>
      </trkpt>
      <trkpt lat="43.58815" lon="3.07526">
        <ele>179.064377</ele>
        <time>2025-10-23T08:44:57Z</time>
      </trkpt>
      <trkpt lat="43.58817" lon="3.07533">
        <ele>179.058636</ele>
        <time>2025-10-23T08:44:58Z</time>
      </trkpt>
      <trkpt lat="43.58818" lon="3.07539">
        <ele>179.052908</ele>
        <time>2025-10-23T08:44:59Z</time>
      </trkpt>
      <trkpt lat="43.58819" lon="3.07546">
        <ele>179.047276</ele>
        <time>2025-10-23T08:45:00Z</time>
      </trkpt>
      <trkpt lat="43.5882" lon="3.07552">
        <ele>179.041683</ele>
        <time>2025-10-23T08:45:01Z</time>
      </trkpt>
      <trkpt lat="43.5882" lon="3.0756">
        <ele>179.035469</ele>
        <time>2025-10-23T08:45:02Z</time>
      </trkpt>
      <trkpt lat="43.58821" lon="3.07567">
        <ele>179.029453</ele>
        <time>2025-10-23T08:45:03Z</time>
      </trkpt>
      <trkpt lat="43.58822" lon="3.07574">
        <ele>179.023155</ele>
        <time>2025-10-23T08:45:04Z</time>
      </trkpt>
      <trkpt lat="43.58823" lon="3.07582">
        <ele>179.016941</ele>
        <time>2025-10-23T08:45:05Z</time>
      </trkpt>
      <trkpt lat="43.58824" lon="3.07588">
        <ele>179.047931</ele>
        <time>2025-10-23T08:45:06Z</time>
      </trkpt>
      <trkpt lat="43.58824" lon="3.07595">
        <ele>179.111701</ele>
        <time>2025-10-23T08:45:07Z</time>
      </trkpt>
      <trkpt lat="43.58825" lon="3.07601">
        <ele>179.173537</ele>
        <time>2025-10-23T08:45:08Z</time>
      </trkpt>
      <trkpt lat="43.58826" lon="3.07607">
        <ele>179.236588</ele>
        <time>2025-10-23T08:45:09Z</time>
      </trkpt>
      <trkpt lat="43.58827" lon="3.07614">
        <ele>179.305</ele>
        <time>2025-10-23T08:45:10Z</time>
      </trkpt>
      <trkpt lat="43.58828" lon="3.07621">
        <ele>179.371909</ele>
        <time>2025-10-23T08:45:11Z</time>
      </trkpt>
      <trkpt lat="43.58829" lon="3.07627">
        <ele>179.436196</ele>
        <time>2025-10-23T08:45:12Z</time>
      </trkpt>
      <trkpt lat="43.58829" lon="3.07634">
        <ele>179.503458</ele>
        <time>2025-10-23T08:45:13Z</time>
      </trkpt>
      <trkpt lat="43.5883" lon="3.0764">
        <ele>179.567745</ele>
        <time>2025-10-23T08:45:14Z</time>
      </trkpt>
      <trkpt lat="43.58831" lon="3.07647">
        <ele>179.63388</ele>
        <time>2025-10-23T08:45:15Z</time>
      </trkpt>
      <trkpt lat="43.58831" lon="3.07653">
        <ele>179.696109</ele>
        <time>2025-10-23T08:45:16Z</time>
      </trkpt>
      <trkpt lat="43.58832" lon="3.07659">
        <ele>179.757228</ele>
        <time>2025-10-23T08:45:17Z</time>
      </trkpt>
      <trkpt lat="43.58832" lon="3.07665">
        <ele>179.813261</ele>
        <time>2025-10-23T08:45:18Z</time>
      </trkpt>
      <trkpt lat="43.58833" lon="3.07671">
        <ele>179.869817</ele>
        <time>2025-10-23T08:45:19Z</time>
      </trkpt>
      <trkpt lat="43.58833" lon="3.07677">
        <ele>179.93143</ele>
        <time>2025-10-23T08:45:20Z</time>
      </trkpt>
      <trkpt lat="43.58834" lon="3.07684">
        <ele>179.999667</ele>
        <time>2025-10-23T08:45:21Z</time>
      </trkpt>
      <trkpt lat="43.58835" lon="3.07691">
        <ele>180.065163</ele>
        <time>2025-10-23T08:45:22Z</time>
      </trkpt>
      <trkpt lat="43.58835" lon="3.07697">
        <ele>180.130194</ele>
        <time>2025-10-23T08:45:23Z</time>
      </trkpt>
      <trkpt lat="43.58835" lon="3.07701">
        <ele>180.169494</ele>
        <time>2025-10-23T08:45:24Z</time>
      </trkpt>
      <trkpt lat="43.58834" lon="3.07704">
        <ele>180.194633</ele>
        <time>2025-10-23T08:45:25Z</time>
      </trkpt>
      <trkpt lat="43.58834" lon="3.07705">
        <ele>180.212648</ele>
        <time>2025-10-23T08:45:26Z</time>
      </trkpt>
      <trkpt lat="43.58834" lon="3.07706">
        <ele>180.22062</ele>
        <time>2025-10-23T08:45:27Z</time>
      </trkpt>
      <trkpt lat="43.58834" lon="3.07706">
        <ele>180.224623</ele>
        <time>2025-10-23T08:45:28Z</time>
      </trkpt>
      <trkpt lat="43.58834" lon="3.07705">
        <ele>180.233867</ele>
        <time>2025-10-23T08:45:29Z</time>
      </trkpt>
      <trkpt lat="43.58834" lon="3.07705">
        <ele>180.241257</ele>
        <time>2025-10-23T08:45:30Z</time>
      </trkpt>
      <trkpt lat="43.58833" lon="3.07705">
        <ele>180.246768</ele>
        <time>2025-10-23T08:45:31Z</time>
      </trkpt>
      <trkpt lat="43.5883" lon="3.07703">
        <ele>180.289965</ele>
        <time>2025-10-23T08:46:13Z</time>
      </trkpt>
      <trkpt lat="43.5883" lon="3.07703">
        <ele>180.298098</ele>
        <time>2025-10-23T08:46:14Z</time>
      </trkpt>
      <trkpt lat="43.58829" lon="3.07703">
        <ele>180.313298</ele>
        <time>2025-10-23T08:46:15Z</time>
      </trkpt>
      <trkpt lat="43.58828" lon="3.07704">
        <ele>180.328363</ele>
        <time>2025-10-23T08:46:16Z</time>
      </trkpt>
      <trkpt lat="43.58827" lon="3.07706">
        <ele>180.34685</ele>
        <time>2025-10-23T08:46:17Z</time>
      </trkpt>
      <trkpt lat="43.58827" lon="3.07708">
        <ele>180.366488</ele>
        <time>2025-10-23T08:46:18Z</time>
      </trkpt>
      <trkpt lat="43.58827" lon="3.07711">
        <ele>180.398919</ele>
        <time>2025-10-23T08:46:19Z</time>
      </trkpt>
      <trkpt lat="43.58828" lon="3.07715">
        <ele>180.436833</ele>
        <time>2025-10-23T08:46:20Z</time>
      </trkpt>
      <trkpt lat="43.58829" lon="3.07719">
        <ele>180.483918</ele>
        <time>2025-10-23T08:46:21Z</time>
      </trkpt>
      <trkpt lat="43.5883" lon="3.07723">
        <ele>180.525611</ele>
        <time>2025-10-23T08:46:22Z</time>
      </trkpt>
      <trkpt lat="43.5883" lon="3.07728">
        <ele>180.575761</ele>
        <time>2025-10-23T08:46:23Z</time>
      </trkpt>
      <trkpt lat="43.5883" lon="3.07734">
        <ele>180.627801</ele>
        <time>2025-10-23T08:46:24Z</time>
      </trkpt>
      <trkpt lat="43.5883" lon="3.07739">
        <ele>180.676218</ele>
        <time>2025-10-23T08:46:25Z</time>
      </trkpt>
      <trkpt lat="43.5883" lon="3.07745">
        <ele>180.736175</ele>
        <time>2025-10-23T08:46:26Z</time>
      </trkpt>
      <trkpt lat="43.5883" lon="3.0775">
        <ele>180.79327</ele>
        <time>2025-10-23T08:46:27Z</time>
      </trkpt>
      <trkpt lat="43.5883" lon="3.07755">
        <ele>180.840401</ele>
        <time>2025-10-23T08:46:28Z</time>
      </trkpt>
      <trkpt lat="43.5883" lon="3.07761">
        <ele>180.892441</ele>
        <time>2025-10-23T08:46:29Z</time>
      </trkpt>
      <trkpt lat="43.58829" lon="3.07766">
        <ele>180.950437</ele>
        <time>2025-10-23T08:46:30Z</time>
      </trkpt>
      <trkpt lat="43.5883" lon="3.07773">
        <ele>181.01047</ele>
        <time>2025-10-23T08:46:31Z</time>
      </trkpt>
      <trkpt lat="43.5883" lon="3.07779">
        <ele>181.076271</ele>
        <time>2025-10-23T08:46:32Z</time>
      </trkpt>
      <trkpt lat="43.5883" lon="3.07786">
        <ele>181.144035</ele>
        <time>2025-10-23T08:46:33Z</time>
      </trkpt>
      <trkpt lat="43.5883" lon="3.07793">
        <ele>181.209194</ele>
        <time>2025-10-23T08:46:34Z</time>
      </trkpt>
      <trkpt lat="43.5883" lon="3.078">
        <ele>181.280987</ele>
        <time>2025-10-23T08:46:35Z</time>
      </trkpt>
      <trkpt lat="43.5883" lon="3.07807">
        <ele>181.3518</ele>
        <time>2025-10-23T08:46:36Z</time>
      </trkpt>
      <trkpt lat="43.58829" lon="3.07814">
        <ele>181.417713</ele>
        <time>2025-10-23T08:46:37Z</time>
      </trkpt>
      <trkpt lat="43.58829" lon="3.0782">
        <ele>181.472502</ele>
        <time>2025-10-23T08:46:38Z</time>
      </trkpt>
      <trkpt lat="43.58829" lon="3.07826">
        <ele>181.513921</ele>
        <time>2025-10-23T08:46:39Z</time>
      </trkpt>
      <trkpt lat="43.58829" lon="3.07832">
        <ele>181.557511</ele>
        <time>2025-10-23T08:46:40Z</time>
      </trkpt>
      <trkpt lat="43.58828" lon="3.07839">
        <ele>181.605376</ele>
        <time>2025-10-23T08:46:41Z</time>
      </trkpt>
      <trkpt lat="43.58827" lon="3.07846">
        <ele>181.653486</ele>
        <time>2025-10-23T08:46:42Z</time>
      </trkpt>
      <trkpt lat="43.58826" lon="3.07853">
        <ele>181.702584</ele>
        <time>2025-10-23T08:46:43Z</time>
      </trkpt>
      <trkpt lat="43.58825" lon="3.07859">
        <ele>181.745017</ele>
        <time>2025-10-23T08:46:44Z</time>
      </trkpt>
      <trkpt lat="43.58824" lon="3.07864">
        <ele>181.783139</ele>
        <time>2025-10-23T08:46:45Z</time>
      </trkpt>
      <trkpt lat="43.58824" lon="3.07869">
        <ele>181.819874</ele>
        <time>2025-10-23T08:46:46Z</time>
      </trkpt>
      <trkpt lat="43.58823" lon="3.07875">
        <ele>181.859978</ele>
        <time>2025-10-23T08:46:47Z</time>
      </trkpt>
      <trkpt lat="43.58823" lon="3.0788">
        <ele>181.897017</ele>
        <time>2025-10-23T08:46:48Z</time>
      </trkpt>
      <trkpt lat="43.58822" lon="3.07886">
        <ele>181.939052</ele>
        <time>2025-10-23T08:46:49Z</time>
      </trkpt>
      <trkpt lat="43.58821" lon="3.07892">
        <ele>181.979906</ele>
        <time>2025-10-23T08:46:50Z</time>
      </trkpt>
      <trkpt lat="43.5882" lon="3.07898">
        <ele>182.025289</ele>
        <time>2025-10-23T08:46:51Z</time>
      </trkpt>
      <trkpt lat="43.58819" lon="3.07905">
        <ele>182.072263</ele>
        <time>2025-10-23T08:46:52Z</time>
      </trkpt>
      <trkpt lat="43.58817" lon="3.07911">
        <ele>182.120424</ele>
        <time>2025-10-23T08:46:53Z</time>
      </trkpt>
      <trkpt lat="43.58816" lon="3.07919">
        <ele>182.174506</ele>
        <time>2025-10-23T08:46:54Z</time>
      </trkpt>
      <trkpt lat="43.58814" lon="3.07926">
        <ele>182.226299</ele>
        <time>2025-10-23T08:46:55Z</time>
      </trkpt>
      <trkpt lat="43.58812" lon="3.07932">
        <ele>182.277339</ele>
        <time>2025-10-23T08:46:56Z</time>
      </trkpt>
      <trkpt lat="43.5881" lon="3.07939">
        <ele>182.327383</ele>
        <time>2025-10-23T08:46:57Z</time>
      </trkpt>
      <trkpt lat="43.58809" lon="3.07946">
        <ele>182.377098</ele>
        <time>2025-10-23T08:46:58Z</time>
      </trkpt>
      <trkpt lat="43.58807" lon="3.07953">
        <ele>182.425672</ele>
        <time>2025-10-23T08:46:59Z</time>
      </trkpt>
      <trkpt lat="43.58807" lon="3.07961">
        <ele>182.487087</ele>
        <time>2025-10-23T08:47:00Z</time>
      </trkpt>
      <trkpt lat="43.58805" lon="3.07966">
        <ele>182.52331</ele>
        <time>2025-10-23T08:47:01Z</time>
      </trkpt>
      <trkpt lat="43.58804" lon="3.07971">
        <ele>182.559547</ele>
        <time>2025-10-23T08:47:02Z</time>
      </trkpt>
      <trkpt lat="43.58803" lon="3.07976">
        <ele>182.595515</ele>
        <time>2025-10-23T08:47:03Z</time>
      </trkpt>
      <trkpt lat="43.58801" lon="3.07981">
        <ele>182.637327</ele>
        <time>2025-10-23T08:47:04Z</time>
      </trkpt>
      <trkpt lat="43.58799" lon="3.07987">
        <ele>182.67874</ele>
        <time>2025-10-23T08:47:05Z</time>
      </trkpt>
      <trkpt lat="43.58798" lon="3.07992">
        <ele>182.719566</ele>
        <time>2025-10-23T08:47:06Z</time>
      </trkpt>
      <trkpt lat="43.58796" lon="3.07998">
        <ele>182.764399</ele>
        <time>2025-10-23T08:47:07Z</time>
      </trkpt>
      <trkpt lat="43.58794" lon="3.08003">
        <ele>182.804992</ele>
        <time>2025-10-23T08:47:08Z</time>
      </trkpt>
      <trkpt lat="43.58792" lon="3.08008">
        <ele>182.844533</ele>
        <time>2025-10-23T08:47:09Z</time>
      </trkpt>
      <trkpt lat="43.58791" lon="3.08013">
        <ele>182.881764</ele>
        <time>2025-10-23T08:47:10Z</time>
      </trkpt>
      <trkpt lat="43.58789" lon="3.08018">
        <ele>182.919336</ele>
        <time>2025-10-23T08:47:11Z</time>
      </trkpt>
      <trkpt lat="43.58787" lon="3.08022">
        <ele>182.951503</ele>
        <time>2025-10-23T08:47:12Z</time>
      </trkpt>
      <trkpt lat="43.58787" lon="3.08025">
        <ele>182.9741</ele>
        <time>2025-10-23T08:47:13Z</time>
      </trkpt>
      <trkpt lat="43.58787" lon="3.08026">
        <ele>182.984649</ele>
        <time>2025-10-23T08:47:14Z</time>
      </trkpt>
      <trkpt lat="43.58787" lon="3.08027">
        <ele>182.98787</ele>
        <time>2025-10-23T08:47:15Z</time>
      </trkpt>
      <trkpt lat="43.58787" lon="3.08026">
        <ele>182.993566</ele>
        <time>2025-10-23T08:47:16Z</time>
      </trkpt>
      <trkpt lat="43.58787" lon="3.08025">
        <ele>182.997877</ele>
        <time>2025-10-23T08:47:17Z</time>
      </trkpt>
      <trkpt lat="43.58787" lon="3.08025">
        <ele>183.002189</ele>
        <time>2025-10-23T08:47:18Z</time>
      </trkpt>
      <trkpt lat="43.58787" lon="3.08024">
        <ele>183.005821</ele>
        <time>2025-10-23T08:47:19Z</time>
      </trkpt>
      <trkpt lat="43.58787" lon="3.08024">
        <ele>183.007523</ele>
        <time>2025-10-23T08:47:20Z</time>
      </trkpt>
      <trkpt lat="43.58788" lon="3.08024">
        <ele>183.010744</ele>
        <time>2025-10-23T08:47:21Z</time>
      </trkpt>
      <trkpt lat="43.58788" lon="3.08024">
        <ele>183.011711</ele>
        <time>2025-10-23T08:47:22Z</time>
      </trkpt>
      <trkpt lat="43.58788" lon="3.08024">
        <ele>183.014099</ele>
        <time>2025-10-23T08:47:23Z</time>
      </trkpt>
      <trkpt lat="43.58788" lon="3.08024">
        <ele>183.01768</ele>
        <time>2025-10-23T08:47:24Z</time>
      </trkpt>
      <trkpt lat="43.58789" lon="3.08025">
        <ele>183.021713</ele>
        <time>2025-10-23T08:47:25Z</time>
      </trkpt>
      <trkpt lat="43.58789" lon="3.08025">
        <ele>183.023813</ele>
        <time>2025-10-23T08:47:26Z</time>
      </trkpt>
      <trkpt lat="43.58789" lon="3.08025">
        <ele>183.026126</ele>
        <time>2025-10-23T08:47:27Z</time>
      </trkpt>
      <trkpt lat="43.58788" lon="3.08026">
        <ele>183.030673</ele>
        <time>2025-10-23T08:47:28Z</time>
      </trkpt>
      <trkpt lat="43.58788" lon="3.08026">
        <ele>183.031867</ele>
        <time>2025-10-23T08:47:29Z</time>
      </trkpt>
      <trkpt lat="43.58788" lon="3.08026">
        <ele>183.033061</ele>
        <time>2025-10-23T08:47:30Z</time>
      </trkpt>
      <trkpt lat="43.58788" lon="3.08026">
        <ele>183.034027</ele>
        <time>2025-10-23T08:47:31Z</time>
      </trkpt>
      <trkpt lat="43.58788" lon="3.08026">
        <ele>183.034994</ele>
        <time>2025-10-23T08:47:32Z</time>
      </trkpt>
      <trkpt lat="43.58788" lon="3.08026">
        <ele>183.035695</ele>
        <time>2025-10-23T08:47:33Z</time>
      </trkpt>
      <trkpt lat="43.58788" lon="3.08026">
        <ele>183.035695</ele>
        <time>2025-10-23T08:47:34Z</time>
      </trkpt>
      <trkpt lat="43.58788" lon="3.08026">
        <ele>183.036888</ele>
        <time>2025-10-23T08:47:35Z</time>
      </trkpt>
      <trkpt lat="43.58787" lon="3.08027">
        <ele>183.048232</ele>
        <time>2025-10-23T08:47:36Z</time>
      </trkpt>
      <trkpt lat="43.58788" lon="3.08028">
        <ele>183.059164</ele>
        <time>2025-10-23T08:47:37Z</time>
      </trkpt>
      <trkpt lat="43.58788" lon="3.0803">
        <ele>183.070095</ele>
        <time>2025-10-23T08:47:38Z</time>
      </trkpt>
      <trkpt lat="43.58789" lon="3.08031">
        <ele>183.078718</ele>
        <time>2025-10-23T08:47:39Z</time>
      </trkpt>
      <trkpt lat="43.5879" lon="3.08032">
        <ele>183.091452</ele>
        <time>2025-10-23T08:47:40Z</time>
      </trkpt>
      <trkpt lat="43.58791" lon="3.08032">
        <ele>183.10404</ele>
        <time>2025-10-23T08:47:41Z</time>
      </trkpt>
      <trkpt lat="43.58792" lon="3.08032">
        <ele>183.115642</ele>
        <time>2025-10-23T08:47:42Z</time>
      </trkpt>
      <trkpt lat="43.58793" lon="3.08033">
        <ele>183.127761</ele>
        <time>2025-10-23T08:47:43Z</time>
      </trkpt>
      <trkpt lat="43.58794" lon="3.08033">
        <ele>183.136903</ele>
        <time>2025-10-23T08:47:44Z</time>
      </trkpt>
      <trkpt lat="43.58795" lon="3.08032">
        <ele>183.143495</ele>
        <time>2025-10-23T08:47:45Z</time>
      </trkpt>
      <trkpt lat="43.58795" lon="3.08033">
        <ele>183.146297</ele>
        <time>2025-10-23T08:47:46Z</time>
      </trkpt>
      <trkpt lat="43.58796" lon="3.08033">
        <ele>183.160058</ele>
        <time>2025-10-23T08:47:47Z</time>
      </trkpt>
      <trkpt lat="43.58798" lon="3.08035">
        <ele>183.178847</ele>
        <time>2025-10-23T08:47:48Z</time>
      </trkpt>
      <trkpt lat="43.58799" lon="3.08037">
        <ele>183.174657</ele>
        <time>2025-10-23T08:47:49Z</time>
      </trkpt>
      <trkpt lat="43.58801" lon="3.0804">
        <ele>183.091031</ele>
        <time>2025-10-23T08:47:50Z</time>
      </trkpt>
      <trkpt lat="43.58803" lon="3.08043">
        <ele>182.999247</ele>
        <time>2025-10-23T08:47:51Z</time>
      </trkpt>
      <trkpt lat="43.58805" lon="3.08047">
        <ele>182.897453</ele>
        <time>2025-10-23T08:47:52Z</time>
      </trkpt>
      <trkpt lat="43.58807" lon="3.08052">
        <ele>182.786145</ele>
        <time>2025-10-23T08:47:53Z</time>
      </trkpt>
      <trkpt lat="43.58808" lon="3.08057">
        <ele>182.673581</ele>
        <time>2025-10-23T08:47:54Z</time>
      </trkpt>
      <trkpt lat="43.58809" lon="3.08062">
        <ele>182.5603</ele>
        <time>2025-10-23T08:47:55Z</time>
      </trkpt>
      <trkpt lat="43.58811" lon="3.08068">
        <ele>182.444785</ele>
        <time>2025-10-23T08:47:56Z</time>
      </trkpt>
      <trkpt lat="43.58811" lon="3.08073">
        <ele>182.330955</ele>
        <time>2025-10-23T08:47:57Z</time>
      </trkpt>
      <trkpt lat="43.58811" lon="3.08079">
        <ele>182.217126</ele>
        <time>2025-10-23T08:47:58Z</time>
      </trkpt>
      <trkpt lat="43.5881" lon="3.08084">
        <ele>182.104342</ele>
        <time>2025-10-23T08:47:59Z</time>
      </trkpt>
      <trkpt lat="43.58808" lon="3.0809">
        <ele>181.980127</ele>
        <time>2025-10-23T08:48:00Z</time>
      </trkpt>
      <trkpt lat="43.58807" lon="3.08095">
        <ele>181.86381</ele>
        <time>2025-10-23T08:48:01Z</time>
      </trkpt>
      <trkpt lat="43.58806" lon="3.08101">
        <ele>181.743675</ele>
        <time>2025-10-23T08:48:02Z</time>
      </trkpt>
      <trkpt lat="43.58806" lon="3.08106">
        <ele>181.640085</ele>
        <time>2025-10-23T08:48:03Z</time>
      </trkpt>
      <trkpt lat="43.58806" lon="3.08111">
        <ele>181.526789</ele>
        <time>2025-10-23T08:48:04Z</time>
      </trkpt>
      <trkpt lat="43.58806" lon="3.08117">
        <ele>181.413387</ele>
        <time>2025-10-23T08:48:05Z</time>
      </trkpt>
      <trkpt lat="43.58805" lon="3.08122">
        <ele>181.297927</ele>
        <time>2025-10-23T08:48:06Z</time>
      </trkpt>
      <trkpt lat="43.58805" lon="3.08128">
        <ele>181.174811</ele>
        <time>2025-10-23T08:48:07Z</time>
      </trkpt>
      <trkpt lat="43.58804" lon="3.08134">
        <ele>181.049178</ele>
        <time>2025-10-23T08:48:08Z</time>
      </trkpt>
      <trkpt lat="43.58803" lon="3.08141">
        <ele>180.919961</ele>
        <time>2025-10-23T08:48:09Z</time>
      </trkpt>
      <trkpt lat="43.58803" lon="3.08148">
        <ele>180.774806</ele>
        <time>2025-10-23T08:48:10Z</time>
      </trkpt>
      <trkpt lat="43.58802" lon="3.08155">
        <ele>180.622317</ele>
        <time>2025-10-23T08:48:11Z</time>
      </trkpt>
      <trkpt lat="43.588" lon="3.08162">
        <ele>180.459613</ele>
        <time>2025-10-23T08:48:12Z</time>
      </trkpt>
      <trkpt lat="43.58798" lon="3.0817">
        <ele>180.292995</ele>
        <time>2025-10-23T08:48:13Z</time>
      </trkpt>
      <trkpt lat="43.58796" lon="3.08178">
        <ele>180.119703</ele>
        <time>2025-10-23T08:48:14Z</time>
      </trkpt>
      <trkpt lat="43.58795" lon="3.08186">
        <ele>179.94743</ele>
        <time>2025-10-23T08:48:15Z</time>
      </trkpt>
      <trkpt lat="43.58795" lon="3.08196">
        <ele>179.753107</ele>
        <time>2025-10-23T08:48:16Z</time>
      </trkpt>
      <trkpt lat="43.58797" lon="3.08205">
        <ele>179.547402</ele>
        <time>2025-10-23T08:48:17Z</time>
      </trkpt>
      <trkpt lat="43.588" lon="3.08215">
        <ele>179.33341</ele>
        <time>2025-10-23T08:48:18Z</time>
      </trkpt>
      <trkpt lat="43.58804" lon="3.08224">
        <ele>179.112088</ele>
        <time>2025-10-23T08:48:19Z</time>
      </trkpt>
      <trkpt lat="43.58808" lon="3.08233">
        <ele>178.89194</ele>
        <time>2025-10-23T08:48:20Z</time>
      </trkpt>
      <trkpt lat="43.58813" lon="3.0824">
        <ele>178.688017</ele>
        <time>2025-10-23T08:48:21Z</time>
      </trkpt>
      <trkpt lat="43.58819" lon="3.08246">
        <ele>178.488985</ele>
        <time>2025-10-23T08:48:22Z</time>
      </trkpt>
      <trkpt lat="43.58825" lon="3.08251">
        <ele>178.284847</ele>
        <time>2025-10-23T08:48:23Z</time>
      </trkpt>
      <trkpt lat="43.58831" lon="3.08256">
        <ele>178.077543</ele>
        <time>2025-10-23T08:48:24Z</time>
      </trkpt>
      <trkpt lat="43.58838" lon="3.08262">
        <ele>177.877272</ele>
        <time>2025-10-23T08:48:25Z</time>
      </trkpt>
      <trkpt lat="43.58844" lon="3.08267">
        <ele>177.666619</ele>
        <time>2025-10-23T08:48:26Z</time>
      </trkpt>
      <trkpt lat="43.5885" lon="3.08272">
        <ele>177.487415</ele>
        <time>2025-10-23T08:48:27Z</time>
      </trkpt>
      <trkpt lat="43.58856" lon="3.08277">
        <ele>177.307461</ele>
        <time>2025-10-23T08:48:28Z</time>
      </trkpt>
      <trkpt lat="43.58862" lon="3.08281">
        <ele>177.126286</ele>
        <time>2025-10-23T08:48:29Z</time>
      </trkpt>
      <trkpt lat="43.58868" lon="3.08286">
        <ele>176.94506</ele>
        <time>2025-10-23T08:48:30Z</time>
      </trkpt>
      <trkpt lat="43.58873" lon="3.08291">
        <ele>176.779099</ele>
        <time>2025-10-23T08:48:31Z</time>
      </trkpt>
      <trkpt lat="43.58878" lon="3.08296">
        <ele>176.633644</ele>
        <time>2025-10-23T08:48:32Z</time>
      </trkpt>
      <trkpt lat="43.58881" lon="3.08299">
        <ele>176.532553</ele>
        <time>2025-10-23T08:48:33Z</time>
      </trkpt>
      <trkpt lat="43.58883" lon="3.08303">
        <ele>176.431925</ele>
        <time>2025-10-23T08:48:34Z</time>
      </trkpt>
      <trkpt lat="43.58884" lon="3.08306">
        <ele>176.36603</ele>
        <time>2025-10-23T08:48:35Z</time>
      </trkpt>
      <trkpt lat="43.58885" lon="3.08309">
        <ele>176.306621</ele>
        <time>2025-10-23T08:48:36Z</time>
      </trkpt>
      <trkpt lat="43.58886" lon="3.08312">
        <ele>176.244132</ele>
        <time>2025-10-23T08:48:37Z</time>
      </trkpt>
      <trkpt lat="43.58889" lon="3.08315">
        <ele>176.156043</ele>
        <time>2025-10-23T08:48:38Z</time>
      </trkpt>
      <trkpt lat="43.58892" lon="3.08317">
        <ele>176.062375</ele>
        <time>2025-10-23T08:48:39Z</time>
      </trkpt>
      <trkpt lat="43.58896" lon="3.08319">
        <ele>175.952052</ele>
        <time>2025-10-23T08:48:40Z</time>
      </trkpt>
      <trkpt lat="43.589" lon="3.0832">
        <ele>175.83509</ele>
        <time>2025-10-23T08:48:41Z</time>
      </trkpt>
      <trkpt lat="43.58904" lon="3.0832">
        <ele>175.716479</ele>
        <time>2025-10-23T08:48:42Z</time>
      </trkpt>
      <trkpt lat="43.58909" lon="3.0832">
        <ele>175.597745</ele>
        <time>2025-10-23T08:48:43Z</time>
      </trkpt>
      <trkpt lat="43.58913" lon="3.0832">
        <ele>175.484276</ele>
        <time>2025-10-23T08:48:44Z</time>
      </trkpt>
      <trkpt lat="43.58918" lon="3.08318">
        <ele>175.358642</ele>
        <time>2025-10-23T08:48:45Z</time>
      </trkpt>
      <trkpt lat="43.58922" lon="3.08317">
        <ele>175.234624</ele>
        <time>2025-10-23T08:48:46Z</time>
      </trkpt>
      <trkpt lat="43.58928" lon="3.08315">
        <ele>175.098585</ele>
        <time>2025-10-23T08:48:47Z</time>
      </trkpt>
      <trkpt lat="43.58933" lon="3.08314">
        <ele>174.96515</ele>
        <time>2025-10-23T08:48:48Z</time>
      </trkpt>
      <trkpt lat="43.58937" lon="3.08313">
        <ele>174.837216</ele>
        <time>2025-10-23T08:48:49Z</time>
      </trkpt>
      <trkpt lat="43.58942" lon="3.08312">
        <ele>174.713743</ele>
        <time>2025-10-23T08:48:50Z</time>
      </trkpt>
      <trkpt lat="43.58947" lon="3.0831">
        <ele>174.578033</ele>
        <time>2025-10-23T08:48:51Z</time>
      </trkpt>
      <trkpt lat="43.58952" lon="3.08308">
        <ele>174.448966</ele>
        <time>2025-10-23T08:48:52Z</time>
      </trkpt>
      <trkpt lat="43.58957" lon="3.08307">
        <ele>174.307099</ele>
        <time>2025-10-23T08:48:53Z</time>
      </trkpt>
      <trkpt lat="43.58962" lon="3.08306">
        <ele>174.169405</ele>
        <time>2025-10-23T08:48:54Z</time>
      </trkpt>
      <trkpt lat="43.58967" lon="3.08305">
        <ele>174.041742</ele>
        <time>2025-10-23T08:48:55Z</time>
      </trkpt>
      <trkpt lat="43.58972" lon="3.08304">
        <ele>173.909293</ele>
        <time>2025-10-23T08:48:56Z</time>
      </trkpt>
      <trkpt lat="43.58977" lon="3.08306">
        <ele>173.774027</ele>
        <time>2025-10-23T08:48:57Z</time>
      </trkpt>
      <trkpt lat="43.58982" lon="3.08307">
        <ele>173.640591</ele>
        <time>2025-10-23T08:48:58Z</time>
      </trkpt>
      <trkpt lat="43.58986" lon="3.08307">
        <ele>173.5193</ele>
        <time>2025-10-23T08:48:59Z</time>
      </trkpt>
      <trkpt lat="43.5899" lon="3.08307">
        <ele>173.42698</ele>
        <time>2025-10-23T08:49:00Z</time>
      </trkpt>
      <trkpt lat="43.58992" lon="3.08308">
        <ele>173.368219</ele>
        <time>2025-10-23T08:49:01Z</time>
      </trkpt>
      <trkpt lat="43.58994" lon="3.08307">
        <ele>173.356648</ele>
        <time>2025-10-23T08:49:02Z</time>
      </trkpt>
      <trkpt lat="43.58996" lon="3.08307">
        <ele>173.397087</ele>
        <time>2025-10-23T08:49:03Z</time>
      </trkpt>
      <trkpt lat="43.58999" lon="3.08308">
        <ele>173.44844</ele>
        <time>2025-10-23T08:49:04Z</time>
      </trkpt>
      <trkpt lat="43.59002" lon="3.08306">
        <ele>173.509453</ele>
        <time>2025-10-23T08:49:05Z</time>
      </trkpt>
      <trkpt lat="43.59005" lon="3.08307">
        <ele>173.585618</ele>
        <time>2025-10-23T08:49:06Z</time>
      </trkpt>
      <trkpt lat="43.5901" lon="3.08305">
        <ele>173.6835</ele>
        <time>2025-10-23T08:49:07Z</time>
      </trkpt>
      <trkpt lat="43.59014" lon="3.08304">
        <ele>173.770312</ele>
        <time>2025-10-23T08:49:08Z</time>
      </trkpt>
      <trkpt lat="43.59019" lon="3.08302">
        <ele>173.856771</ele>
        <time>2025-10-23T08:49:09Z</time>
      </trkpt>
      <trkpt lat="43.59023" lon="3.08301">
        <ele>173.943231</ele>
        <time>2025-10-23T08:49:10Z</time>
      </trkpt>
      <trkpt lat="43.59027" lon="3.083">
        <ele>174.031637</ele>
        <time>2025-10-23T08:49:11Z</time>
      </trkpt>
      <trkpt lat="43.59032" lon="3.08299">
        <ele>174.123732</ele>
        <time>2025-10-23T08:49:12Z</time>
      </trkpt>
      <trkpt lat="43.59037" lon="3.08299">
        <ele>174.230273</ele>
        <time>2025-10-23T08:49:13Z</time>
      </trkpt>
      <trkpt lat="43.59042" lon="3.08298">
        <ele>174.337521</ele>
        <time>2025-10-23T08:49:14Z</time>
      </trkpt>
      <trkpt lat="43.59047" lon="3.08296">
        <ele>174.442177</ele>
        <time>2025-10-23T08:49:15Z</time>
      </trkpt>
      <trkpt lat="43.59052" lon="3.08295">
        <ele>174.527018</ele>
        <time>2025-10-23T08:49:16Z</time>
      </trkpt>
      <trkpt lat="43.59056" lon="3.08295">
        <ele>174.605543</ele>
        <time>2025-10-23T08:49:17Z</time>
      </trkpt>
      <trkpt lat="43.59059" lon="3.08294">
        <ele>174.667593</ele>
        <time>2025-10-23T08:49:18Z</time>
      </trkpt>
      <trkpt lat="43.59061" lon="3.08294">
        <ele>174.7217</ele>
        <time>2025-10-23T08:49:19Z</time>
      </trkpt>
      <trkpt lat="43.59064" lon="3.08294">
        <ele>174.770269</ele>
        <time>2025-10-23T08:49:20Z</time>
      </trkpt>
      <trkpt lat="43.59066" lon="3.08293">
        <ele>174.820484</ele>
        <time>2025-10-23T08:49:21Z</time>
      </trkpt>
      <trkpt lat="43.59069" lon="3.08293">
        <ele>174.868859</ele>
        <time>2025-10-23T08:49:22Z</time>
      </trkpt>
      <trkpt lat="43.59071" lon="3.08293">
        <ele>174.920907</ele>
        <time>2025-10-23T08:49:23Z</time>
      </trkpt>
      <trkpt lat="43.59073" lon="3.08293">
        <ele>174.964954</ele>
        <time>2025-10-23T08:49:24Z</time>
      </trkpt>
      <trkpt lat="43.59076" lon="3.08292">
        <ele>175.023208</ele>
        <time>2025-10-23T08:49:25Z</time>
      </trkpt>
      <trkpt lat="43.5908" lon="3.0829">
        <ele>175.095568</ele>
        <time>2025-10-23T08:49:26Z</time>
      </trkpt>
      <trkpt lat="43.59083" lon="3.08289">
        <ele>175.167929</ele>
        <time>2025-10-23T08:49:27Z</time>
      </trkpt>
      <trkpt lat="43.59087" lon="3.08287">
        <ele>175.24663</ele>
        <time>2025-10-23T08:49:28Z</time>
      </trkpt>
      <trkpt lat="43.59091" lon="3.08287">
        <ele>175.326883</ele>
        <time>2025-10-23T08:49:29Z</time>
      </trkpt>
      <trkpt lat="43.59095" lon="3.08288">
        <ele>175.408227</ele>
        <time>2025-10-23T08:49:30Z</time>
      </trkpt>
      <trkpt lat="43.59099" lon="3.08289">
        <ele>175.492094</ele>
        <time>2025-10-23T08:49:31Z</time>
      </trkpt>
      <trkpt lat="43.59103" lon="3.0829">
        <ele>175.581573</ele>
        <time>2025-10-23T08:49:32Z</time>
      </trkpt>
      <trkpt lat="43.59107" lon="3.08291">
        <ele>175.658109</ele>
        <time>2025-10-23T08:49:33Z</time>
      </trkpt>
      <trkpt lat="43.59111" lon="3.08291">
        <ele>175.736272</ele>
        <time>2025-10-23T08:49:34Z</time>
      </trkpt>
      <trkpt lat="43.59115" lon="3.08291">
        <ele>175.824617</ele>
        <time>2025-10-23T08:49:35Z</time>
      </trkpt>
      <trkpt lat="43.5912" lon="3.08292">
        <ele>175.91144</ele>
        <time>2025-10-23T08:49:36Z</time>
      </trkpt>
      <trkpt lat="43.59124" lon="3.08293">
        <ele>175.993599</ele>
        <time>2025-10-23T08:49:37Z</time>
      </trkpt>
      <trkpt lat="43.59127" lon="3.08293">
        <ele>176.061636</ele>
        <time>2025-10-23T08:49:38Z</time>
      </trkpt>
      <trkpt lat="43.59131" lon="3.08292">
        <ele>176.127687</ele>
        <time>2025-10-23T08:49:39Z</time>
      </trkpt>
      <trkpt lat="43.59134" lon="3.08292">
        <ele>176.189991</ele>
        <time>2025-10-23T08:49:40Z</time>
      </trkpt>
      <trkpt lat="43.59137" lon="3.08292">
        <ele>176.254172</ele>
        <time>2025-10-23T08:49:41Z</time>
      </trkpt>
      <trkpt lat="43.59141" lon="3.08291">
        <ele>176.33833</ele>
        <time>2025-10-23T08:49:42Z</time>
      </trkpt>
      <trkpt lat="43.59146" lon="3.08291">
        <ele>176.430482</ele>
        <time>2025-10-23T08:49:43Z</time>
      </trkpt>
      <trkpt lat="43.59149" lon="3.0829">
        <ele>176.506881</ele>
        <time>2025-10-23T08:49:44Z</time>
      </trkpt>
      <trkpt lat="43.59153" lon="3.08289">
        <ele>176.578123</ele>
        <time>2025-10-23T08:49:45Z</time>
      </trkpt>
      <trkpt lat="43.59157" lon="3.08288">
        <ele>176.665633</ele>
        <time>2025-10-23T08:49:46Z</time>
      </trkpt>
      <trkpt lat="43.59161" lon="3.08286">
        <ele>176.755978</ele>
        <time>2025-10-23T08:49:47Z</time>
      </trkpt>
      <trkpt lat="43.59165" lon="3.08284">
        <ele>176.837356</ele>
        <time>2025-10-23T08:49:48Z</time>
      </trkpt>
      <trkpt lat="43.5917" lon="3.08281">
        <ele>176.936952</ele>
        <time>2025-10-23T08:49:49Z</time>
      </trkpt>
      <trkpt lat="43.59175" lon="3.08278">
        <ele>176.939352</ele>
        <time>2025-10-23T08:49:50Z</time>
      </trkpt>
      <trkpt lat="43.59179" lon="3.08275">
        <ele>176.941684</ele>
        <time>2025-10-23T08:49:51Z</time>
      </trkpt>
      <trkpt lat="43.59182" lon="3.08271">
        <ele>176.943928</ele>
        <time>2025-10-23T08:49:52Z</time>
      </trkpt>
      <trkpt lat="43.59186" lon="3.08267">
        <ele>176.946254</ele>
        <time>2025-10-23T08:49:53Z</time>
      </trkpt>
      <trkpt lat="43.5919" lon="3.08263">
        <ele>176.948563</ele>
        <time>2025-10-23T08:49:54Z</time>
      </trkpt>
      <trkpt lat="43.59194" lon="3.0826">
        <ele>176.950974</ele>
        <time>2025-10-23T08:49:55Z</time>
      </trkpt>
      <trkpt lat="43.59198" lon="3.08257">
        <ele>176.953167</ele>
        <time>2025-10-23T08:49:56Z</time>
      </trkpt>
      <trkpt lat="43.59202" lon="3.08254">
        <ele>176.955331</ele>
        <time>2025-10-23T08:49:57Z</time>
      </trkpt>
      <trkpt lat="43.59206" lon="3.0825">
        <ele>176.957575</ele>
        <time>2025-10-23T08:49:58Z</time>
      </trkpt>
      <trkpt lat="43.5921" lon="3.08246">
        <ele>176.960021</ele>
        <time>2025-10-23T08:49:59Z</time>
      </trkpt>
      <trkpt lat="43.59214" lon="3.08243">
        <ele>176.962662</ele>
        <time>2025-10-23T08:50:00Z</time>
      </trkpt>
      <trkpt lat="43.59219" lon="3.0824">
        <ele>176.965073</ele>
        <time>2025-10-23T08:50:01Z</time>
      </trkpt>
      <trkpt lat="43.59223" lon="3.08237">
        <ele>176.967484</ele>
        <time>2025-10-23T08:50:02Z</time>
      </trkpt>
      <trkpt lat="43.59227" lon="3.08233">
        <ele>176.96981</ele>
        <time>2025-10-23T08:50:03Z</time>
      </trkpt>
      <trkpt lat="43.59231" lon="3.0823">
        <ele>176.972082</ele>
        <time>2025-10-23T08:50:04Z</time>
      </trkpt>
      <trkpt lat="43.59235" lon="3.08227">
        <ele>176.974285</ele>
        <time>2025-10-23T08:50:05Z</time>
      </trkpt>
      <trkpt lat="43.5924" lon="3.08225">
        <ele>176.976714</ele>
        <time>2025-10-23T08:50:06Z</time>
      </trkpt>
      <trkpt lat="43.59245" lon="3.08223">
        <ele>176.979205</ele>
        <time>2025-10-23T08:50:07Z</time>
      </trkpt>
      <trkpt lat="43.59249" lon="3.0822">
        <ele>176.981452</ele>
        <time>2025-10-23T08:50:08Z</time>
      </trkpt>
      <trkpt lat="43.59253" lon="3.08218">
        <ele>176.983602</ele>
        <time>2025-10-23T08:50:09Z</time>
      </trkpt>
      <trkpt lat="43.59258" lon="3.08217">
        <ele>176.985885</ele>
        <time>2025-10-23T08:50:10Z</time>
      </trkpt>
      <trkpt lat="43.59262" lon="3.08215">
        <ele>176.988046</ele>
        <time>2025-10-23T08:50:11Z</time>
      </trkpt>
      <trkpt lat="43.59266" lon="3.08213">
        <ele>176.990092</ele>
        <time>2025-10-23T08:50:12Z</time>
      </trkpt>
      <trkpt lat="43.5927" lon="3.0821">
        <ele>176.992548</ele>
        <time>2025-10-23T08:50:13Z</time>
      </trkpt>
      <trkpt lat="43.59275" lon="3.08206">
        <ele>176.995177</ele>
        <time>2025-10-23T08:50:14Z</time>
      </trkpt>
      <trkpt lat="43.59278" lon="3.08201">
        <ele>176.997763</ele>
        <time>2025-10-23T08:50:15Z</time>
      </trkpt>
      <trkpt lat="43.59282" lon="3.08195">
        <ele>177.000572</ele>
        <time>2025-10-23T08:50:16Z</time>
      </trkpt>
      <trkpt lat="43.59286" lon="3.08191">
        <ele>177.003046</ele>
        <time>2025-10-23T08:50:17Z</time>
      </trkpt>
      <trkpt lat="43.59332" lon="3.08148">
        <ele>181.153442</ele>
        <time>2025-10-23T08:52:02Z</time>
      </trkpt>
      <trkpt lat="43.59334" lon="3.08146">
        <ele>181.234477</ele>
        <time>2025-10-23T08:52:03Z</time>
      </trkpt>
      <trkpt lat="43.59336" lon="3.08143">
        <ele>181.312759</ele>
        <time>2025-10-23T08:52:04Z</time>
      </trkpt>
      <trkpt lat="43.59338" lon="3.0814">
        <ele>181.400219</ele>
        <time>2025-10-23T08:52:05Z</time>
      </trkpt>
      <trkpt lat="43.5934" lon="3.08137">
        <ele>181.492796</ele>
        <time>2025-10-23T08:52:06Z</time>
      </trkpt>
      <trkpt lat="43.59343" lon="3.08134">
        <ele>181.581172</ele>
        <time>2025-10-23T08:52:07Z</time>
      </trkpt>
      <trkpt lat="43.59346" lon="3.08132">
        <ele>181.6786</ele>
        <time>2025-10-23T08:52:08Z</time>
      </trkpt>
      <trkpt lat="43.59349" lon="3.08133">
        <ele>181.763268</ele>
        <time>2025-10-23T08:52:09Z</time>
      </trkpt>
      <trkpt lat="43.59352" lon="3.08134">
        <ele>181.853742</ele>
        <time>2025-10-23T08:52:10Z</time>
      </trkpt>
      <trkpt lat="43.59355" lon="3.08136">
        <ele>181.941532</ele>
        <time>2025-10-23T08:52:11Z</time>
      </trkpt>
      <trkpt lat="43.59357" lon="3.08138">
        <ele>182.026653</ele>
        <time>2025-10-23T08:52:12Z</time>
      </trkpt>
      <trkpt lat="43.5936" lon="3.08138">
        <ele>182.106241</ele>
        <time>2025-10-23T08:52:13Z</time>
      </trkpt>
      <trkpt lat="43.59363" lon="3.08139">
        <ele>182.20412</ele>
        <time>2025-10-23T08:52:14Z</time>
      </trkpt>
      <trkpt lat="43.59367" lon="3.0814">
        <ele>182.303725</ele>
        <time>2025-10-23T08:52:15Z</time>
      </trkpt>
      <trkpt lat="43.59369" lon="3.08141">
        <ele>182.389818</ele>
        <time>2025-10-23T08:52:16Z</time>
      </trkpt>
      <trkpt lat="43.59372" lon="3.08142">
        <ele>182.483193</ele>
        <time>2025-10-23T08:52:17Z</time>
      </trkpt>
      <trkpt lat="43.59375" lon="3.08143">
        <ele>182.569707</ele>
        <time>2025-10-23T08:52:18Z</time>
      </trkpt>
      <trkpt lat="43.59378" lon="3.08144">
        <ele>182.647351</ele>
        <time>2025-10-23T08:52:19Z</time>
      </trkpt>
      <trkpt lat="43.5938" lon="3.08144">
        <ele>182.717077</ele>
        <time>2025-10-23T08:52:20Z</time>
      </trkpt>
      <trkpt lat="43.59382" lon="3.08144">
        <ele>182.789723</ele>
        <time>2025-10-23T08:52:21Z</time>
      </trkpt>
      <trkpt lat="43.59385" lon="3.08144">
        <ele>182.871678</ele>
        <time>2025-10-23T08:52:22Z</time>
      </trkpt>
      <trkpt lat="43.59387" lon="3.08143">
        <ele>182.936034</ele>
        <time>2025-10-23T08:52:23Z</time>
      </trkpt>
      <trkpt lat="43.59389" lon="3.08141">
        <ele>183.001193</ele>
        <time>2025-10-23T08:52:24Z</time>
      </trkpt>
      <trkpt lat="43.5939" lon="3.08139">
        <ele>183.074073</ele>
        <time>2025-10-23T08:52:25Z</time>
      </trkpt>
      <trkpt lat="43.59391" lon="3.08136">
        <ele>183.146953</ele>
        <time>2025-10-23T08:52:26Z</time>
      </trkpt>
      <trkpt lat="43.59392" lon="3.08134">
        <ele>183.203868</ele>
        <time>2025-10-23T08:52:27Z</time>
      </trkpt>
      <trkpt lat="43.59393" lon="3.08131">
        <ele>183.257833</ele>
        <time>2025-10-23T08:52:28Z</time>
      </trkpt>
      <trkpt lat="43.59393" lon="3.08129">
        <ele>183.303252</ele>
        <time>2025-10-23T08:52:29Z</time>
      </trkpt>
      <trkpt lat="43.59393" lon="3.08127">
        <ele>183.355842</ele>
        <time>2025-10-23T08:52:30Z</time>
      </trkpt>
      <trkpt lat="43.59394" lon="3.08124">
        <ele>183.415083</ele>
        <time>2025-10-23T08:52:31Z</time>
      </trkpt>
      <trkpt lat="43.59393" lon="3.08121">
        <ele>183.477106</ele>
        <time>2025-10-23T08:52:32Z</time>
      </trkpt>
      <trkpt lat="43.59393" lon="3.08118">
        <ele>183.547811</ele>
        <time>2025-10-23T08:52:33Z</time>
      </trkpt>
      <trkpt lat="43.59393" lon="3.08116">
        <ele>183.604863</ele>
        <time>2025-10-23T08:52:34Z</time>
      </trkpt>
      <trkpt lat="43.59393" lon="3.08113">
        <ele>183.662554</ele>
        <time>2025-10-23T08:52:35Z</time>
      </trkpt>
      <trkpt lat="43.59394" lon="3.08111">
        <ele>183.714548</ele>
        <time>2025-10-23T08:52:36Z</time>
      </trkpt>
      <trkpt lat="43.59394" lon="3.08109">
        <ele>183.76927</ele>
        <time>2025-10-23T08:52:37Z</time>
      </trkpt>
      <trkpt lat="43.59395" lon="3.08106">
        <ele>183.826981</ele>
        <time>2025-10-23T08:52:38Z</time>
      </trkpt>
      <trkpt lat="43.59396" lon="3.08103">
        <ele>183.891889</ele>
        <time>2025-10-23T08:52:39Z</time>
      </trkpt>
      <trkpt lat="43.59396" lon="3.081">
        <ele>183.960953</ele>
        <time>2025-10-23T08:52:40Z</time>
      </trkpt>
      <trkpt lat="43.59397" lon="3.08098">
        <ele>184.020809</ele>
        <time>2025-10-23T08:52:41Z</time>
      </trkpt>
      <trkpt lat="43.59397" lon="3.08095">
        <ele>184.0785</ele>
        <time>2025-10-23T08:52:42Z</time>
      </trkpt>
      <trkpt lat="43.59397" lon="3.08093">
        <ele>184.127086</ele>
        <time>2025-10-23T08:52:43Z</time>
      </trkpt>
      <trkpt lat="43.59398" lon="3.08091">
        <ele>184.168343</ele>
        <time>2025-10-23T08:52:44Z</time>
      </trkpt>
      <trkpt lat="43.59398" lon="3.08089">
        <ele>184.204526</ele>
        <time>2025-10-23T08:52:45Z</time>
      </trkpt>
      <trkpt lat="43.59399" lon="3.08088">
        <ele>184.23678</ele>
        <time>2025-10-23T08:52:46Z</time>
      </trkpt>
      <trkpt lat="43.59399" lon="3.08087">
        <ele>184.256318</ele>
        <time>2025-10-23T08:52:47Z</time>
      </trkpt>
      <trkpt lat="43.59399" lon="3.08087">
        <ele>184.268834</ele>
        <time>2025-10-23T08:52:48Z</time>
      </trkpt>
      <trkpt lat="43.594" lon="3.08087">
        <ele>184.287509</ele>
        <time>2025-10-23T08:52:49Z</time>
      </trkpt>
      <trkpt lat="43.594" lon="3.08087">
        <ele>184.306188</ele>
        <time>2025-10-23T08:52:50Z</time>
      </trkpt>
      <trkpt lat="43.59401" lon="3.08085">
        <ele>184.33531</ele>
        <time>2025-10-23T08:52:51Z</time>
      </trkpt>
      <trkpt lat="43.59401" lon="3.08084">
        <ele>184.355262</ele>
        <time>2025-10-23T08:52:52Z</time>
      </trkpt>
      <trkpt lat="43.59401" lon="3.08084">
        <ele>184.373051</ele>
        <time>2025-10-23T08:52:53Z</time>
      </trkpt>
      <trkpt lat="43.59401" lon="3.08083">
        <ele>184.381816</ele>
        <time>2025-10-23T08:52:54Z</time>
      </trkpt>
      <trkpt lat="43.594" lon="3.08083">
        <ele>184.389052</ele>
        <time>2025-10-23T08:52:55Z</time>
      </trkpt>
      <trkpt lat="43.594" lon="3.08083">
        <ele>184.392788</ele>
        <time>2025-10-23T08:52:56Z</time>
      </trkpt>
      <trkpt lat="43.594" lon="3.08083">
        <ele>184.395814</ele>
        <time>2025-10-23T08:52:57Z</time>
      </trkpt>
      <trkpt lat="43.594" lon="3.08083">
        <ele>184.399549</ele>
        <time>2025-10-23T08:52:58Z</time>
      </trkpt>
      <trkpt lat="43.59401" lon="3.08083">
        <ele>184.4056</ele>
        <time>2025-10-23T08:52:59Z</time>
      </trkpt>
      <trkpt lat="43.59392" lon="3.08086">
        <ele>184.659334</ele>
        <time>2025-10-23T08:53:28Z</time>
      </trkpt>
      <trkpt lat="43.59393" lon="3.08085">
        <ele>184.687152</ele>
        <time>2025-10-23T08:53:29Z</time>
      </trkpt>
      <trkpt lat="43.59393" lon="3.08083">
        <ele>184.712908</ele>
        <time>2025-10-23T08:53:30Z</time>
      </trkpt>
      <trkpt lat="43.59393" lon="3.08083">
        <ele>184.730778</ele>
        <time>2025-10-23T08:53:31Z</time>
      </trkpt>
      <trkpt lat="43.59394" lon="3.08082">
        <ele>184.748261</ele>
        <time>2025-10-23T08:53:32Z</time>
      </trkpt>
      <trkpt lat="43.59395" lon="3.08082">
        <ele>184.766415</ele>
        <time>2025-10-23T08:53:33Z</time>
      </trkpt>
      <trkpt lat="43.59395" lon="3.08083">
        <ele>184.77285</ele>
        <time>2025-10-23T08:53:34Z</time>
      </trkpt>
      <trkpt lat="43.59396" lon="3.08083">
        <ele>184.797154</ele>
        <time>2025-10-23T08:53:35Z</time>
      </trkpt>
      <trkpt lat="43.59396" lon="3.08083">
        <ele>184.824384</ele>
        <time>2025-10-23T08:53:36Z</time>
      </trkpt>
      <trkpt lat="43.59397" lon="3.08082">
        <ele>184.852396</ele>
        <time>2025-10-23T08:53:37Z</time>
      </trkpt>
      <trkpt lat="43.59398" lon="3.08082">
        <ele>184.867682</ele>
        <time>2025-10-23T08:53:38Z</time>
      </trkpt>
      <trkpt lat="43.59398" lon="3.08082">
        <ele>184.877019</ele>
        <time>2025-10-23T08:53:39Z</time>
      </trkpt>
      <trkpt lat="43.59398" lon="3.08083">
        <ele>184.889637</ele>
        <time>2025-10-23T08:53:40Z</time>
      </trkpt>
      <trkpt lat="43.59399" lon="3.08084">
        <ele>184.914669</ele>
        <time>2025-10-23T08:53:41Z</time>
      </trkpt>
      <trkpt lat="43.59399" lon="3.08085">
        <ele>184.941652</ele>
        <time>2025-10-23T08:53:42Z</time>
      </trkpt>
      <trkpt lat="43.594" lon="3.08085">
        <ele>184.982481</ele>
        <time>2025-10-23T08:53:43Z</time>
      </trkpt>
      <trkpt lat="43.59402" lon="3.08086">
        <ele>185.022057</ele>
        <time>2025-10-23T08:53:44Z</time>
      </trkpt>
      <trkpt lat="43.59403" lon="3.08086">
        <ele>185.070516</ele>
        <time>2025-10-23T08:53:45Z</time>
      </trkpt>
      <trkpt lat="43.59405" lon="3.08086">
        <ele>185.119712</ele>
        <time>2025-10-23T08:53:46Z</time>
      </trkpt>
      <trkpt lat="43.59407" lon="3.08086">
        <ele>185.189438</ele>
        <time>2025-10-23T08:53:47Z</time>
      </trkpt>
      <trkpt lat="43.59409" lon="3.08086">
        <ele>185.246923</ele>
        <time>2025-10-23T08:53:48Z</time>
      </trkpt>
      <trkpt lat="43.59411" lon="3.08087">
        <ele>185.299099</ele>
        <time>2025-10-23T08:53:49Z</time>
      </trkpt>
      <trkpt lat="43.59412" lon="3.08087">
        <ele>185.345786</ele>
        <time>2025-10-23T08:53:50Z</time>
      </trkpt>
      <trkpt lat="43.59413" lon="3.08087">
        <ele>185.382093</ele>
        <time>2025-10-23T08:53:51Z</time>
      </trkpt>
      <trkpt lat="43.59415" lon="3.08086">
        <ele>185.432256</ele>
        <time>2025-10-23T08:53:52Z</time>
      </trkpt>
      <trkpt lat="43.59416" lon="3.08087">
        <ele>185.472553</ele>
        <time>2025-10-23T08:53:53Z</time>
      </trkpt>
      <trkpt lat="43.59417" lon="3.08088">
        <ele>185.51636</ele>
        <time>2025-10-23T08:53:54Z</time>
      </trkpt>
      <trkpt lat="43.59419" lon="3.08089">
        <ele>185.557453</ele>
        <time>2025-10-23T08:53:55Z</time>
      </trkpt>
      <trkpt lat="43.5942" lon="3.0809">
        <ele>185.605143</ele>
        <time>2025-10-23T08:53:56Z</time>
      </trkpt>
      <trkpt lat="43.59422" lon="3.08091">
        <ele>185.659221</ele>
        <time>2025-10-23T08:53:57Z</time>
      </trkpt>
      <trkpt lat="43.59424" lon="3.08091">
        <ele>185.722796</ele>
        <time>2025-10-23T08:53:58Z</time>
      </trkpt>
      <trkpt lat="43.59426" lon="3.08091">
        <ele>185.789933</ele>
        <time>2025-10-23T08:53:59Z</time>
      </trkpt>
      <trkpt lat="43.59429" lon="3.08091">
        <ele>185.878111</ele>
        <time>2025-10-23T08:54:00Z</time>
      </trkpt>
      <trkpt lat="43.59432" lon="3.0809">
        <ele>185.969536</ele>
        <time>2025-10-23T08:54:01Z</time>
      </trkpt>
      <trkpt lat="43.59434" lon="3.08089">
        <ele>186.053086</ele>
        <time>2025-10-23T08:54:02Z</time>
      </trkpt>
      <trkpt lat="43.59437" lon="3.08088">
        <ele>186.12833</ele>
        <time>2025-10-23T08:54:03Z</time>
      </trkpt>
      <trkpt lat="43.59439" lon="3.08088">
        <ele>186.18685</ele>
        <time>2025-10-23T08:54:04Z</time>
      </trkpt>
      <trkpt lat="43.5944" lon="3.08088">
        <ele>186.235259</ele>
        <time>2025-10-23T08:54:05Z</time>
      </trkpt>
      <trkpt lat="43.59442" lon="3.08088">
        <ele>186.28688</ele>
        <time>2025-10-23T08:54:06Z</time>
      </trkpt>
      <trkpt lat="43.59444" lon="3.08087">
        <ele>186.339469</ele>
        <time>2025-10-23T08:54:07Z</time>
      </trkpt>
      <trkpt lat="43.59446" lon="3.08088">
        <ele>186.403607</ele>
        <time>2025-10-23T08:54:08Z</time>
      </trkpt>
      <trkpt lat="43.59448" lon="3.08088">
        <ele>186.467144</ele>
        <time>2025-10-23T08:54:09Z</time>
      </trkpt>
      <trkpt lat="43.5945" lon="3.08087">
        <ele>186.520232</ele>
        <time>2025-10-23T08:54:10Z</time>
      </trkpt>
      <trkpt lat="43.59452" lon="3.08086">
        <ele>186.583876</ele>
        <time>2025-10-23T08:54:11Z</time>
      </trkpt>
      <trkpt lat="43.59453" lon="3.08085">
        <ele>186.634657</ele>
        <time>2025-10-23T08:54:12Z</time>
      </trkpt>
      <trkpt lat="43.59454" lon="3.08084">
        <ele>186.682586</ele>
        <time>2025-10-23T08:54:13Z</time>
      </trkpt>
      <trkpt lat="43.59457" lon="3.08107">
        <ele>185.952238</ele>
        <time>2025-10-23T08:54:49Z</time>
      </trkpt>
      <trkpt lat="43.59458" lon="3.08114">
        <ele>185.730724</ele>
        <time>2025-10-23T08:54:50Z</time>
      </trkpt>
      <trkpt lat="43.59458" lon="3.08122">
        <ele>185.480496</ele>
        <time>2025-10-23T08:54:51Z</time>
      </trkpt>
      <trkpt lat="43.59459" lon="3.0813">
        <ele>185.224962</ele>
        <time>2025-10-23T08:54:52Z</time>
      </trkpt>
      <trkpt lat="43.5946" lon="3.08139">
        <ele>184.957555</ele>
        <time>2025-10-23T08:54:53Z</time>
      </trkpt>
      <trkpt lat="43.59461" lon="3.08148">
        <ele>184.667274</ele>
        <time>2025-10-23T08:54:54Z</time>
      </trkpt>
      <trkpt lat="43.59462" lon="3.08158">
        <ele>184.345111</ele>
        <time>2025-10-23T08:54:55Z</time>
      </trkpt>
      <trkpt lat="43.59463" lon="3.08167">
        <ele>184.053754</ele>
        <time>2025-10-23T08:54:56Z</time>
      </trkpt>
      <trkpt lat="43.59463" lon="3.08177">
        <ele>183.761828</ele>
        <time>2025-10-23T08:54:57Z</time>
      </trkpt>
      <trkpt lat="43.59463" lon="3.08185">
        <ele>183.506295</ele>
        <time>2025-10-23T08:54:58Z</time>
      </trkpt>
      <trkpt lat="43.59465" lon="3.08192">
        <ele>183.266822</ele>
        <time>2025-10-23T08:54:59Z</time>
      </trkpt>
      <trkpt lat="43.59465" lon="3.082">
        <ele>183.038159</ele>
        <time>2025-10-23T08:55:00Z</time>
      </trkpt>
      <trkpt lat="43.59466" lon="3.08205">
        <ele>182.86033</ele>
        <time>2025-10-23T08:55:01Z</time>
      </trkpt>
      <trkpt lat="43.59466" lon="3.0821">
        <ele>182.726529</ele>
        <time>2025-10-23T08:55:02Z</time>
      </trkpt>
      <trkpt lat="43.59466" lon="3.08213">
        <ele>182.620863</ele>
        <time>2025-10-23T08:55:03Z</time>
      </trkpt>
      <trkpt lat="43.59465" lon="3.08215">
        <ele>182.548928</ele>
        <time>2025-10-23T08:55:04Z</time>
      </trkpt>
      <trkpt lat="43.59465" lon="3.08217">
        <ele>182.49851</ele>
        <time>2025-10-23T08:55:05Z</time>
      </trkpt>
      <trkpt lat="43.59466" lon="3.08219">
        <ele>182.43408</ele>
        <time>2025-10-23T08:55:06Z</time>
      </trkpt>
      <trkpt lat="43.59468" lon="3.08221">
        <ele>182.326431</ele>
        <time>2025-10-23T08:55:07Z</time>
      </trkpt>
      <trkpt lat="43.5947" lon="3.08222">
        <ele>182.20573</ele>
        <time>2025-10-23T08:55:08Z</time>
      </trkpt>
      <trkpt lat="43.59473" lon="3.08223">
        <ele>182.075277</ele>
        <time>2025-10-23T08:55:09Z</time>
      </trkpt>
      <trkpt lat="43.59477" lon="3.08223">
        <ele>181.937932</ele>
        <time>2025-10-23T08:55:10Z</time>
      </trkpt>
      <trkpt lat="43.5948" lon="3.08222">
        <ele>181.774263</ele>
        <time>2025-10-23T08:55:11Z</time>
      </trkpt>
      <trkpt lat="43.59484" lon="3.08222">
        <ele>181.626382</ele>
        <time>2025-10-23T08:55:12Z</time>
      </trkpt>
      <trkpt lat="43.59487" lon="3.08221">
        <ele>181.465806</ele>
        <time>2025-10-23T08:55:13Z</time>
      </trkpt>
      <trkpt lat="43.59491" lon="3.08221">
        <ele>181.32846</ele>
        <time>2025-10-23T08:55:14Z</time>
      </trkpt>
      <trkpt lat="43.59494" lon="3.08221">
        <ele>181.191221</ele>
        <time>2025-10-23T08:55:15Z</time>
      </trkpt>
      <trkpt lat="43.59497" lon="3.08221">
        <ele>181.058304</ele>
        <time>2025-10-23T08:55:16Z</time>
      </trkpt>
      <trkpt lat="43.595" lon="3.0822">
        <ele>180.916505</ele>
        <time>2025-10-23T08:55:17Z</time>
      </trkpt>
      <trkpt lat="43.59503" lon="3.0822">
        <ele>180.778425</ele>
        <time>2025-10-23T08:55:18Z</time>
      </trkpt>
      <trkpt lat="43.59507" lon="3.08219">
        <ele>180.632868</ele>
        <time>2025-10-23T08:55:19Z</time>
      </trkpt>
      <trkpt lat="43.5951" lon="3.08217">
        <ele>180.47674</ele>
        <time>2025-10-23T08:55:20Z</time>
      </trkpt>
      <trkpt lat="43.59513" lon="3.08216">
        <ele>180.35008</ele>
        <time>2025-10-23T08:55:21Z</time>
      </trkpt>
      <trkpt lat="43.59515" lon="3.08215">
        <ele>180.256676</ele>
        <time>2025-10-23T08:55:22Z</time>
      </trkpt>
      <trkpt lat="43.59517" lon="3.08214">
        <ele>180.176496</ele>
        <time>2025-10-23T08:55:23Z</time>
      </trkpt>
      <trkpt lat="43.5952" lon="3.08216">
        <ele>180.039693</ele>
        <time>2025-10-23T08:55:24Z</time>
      </trkpt>
      <trkpt lat="43.59522" lon="3.08216">
        <ele>179.956512</ele>
        <time>2025-10-23T08:55:25Z</time>
      </trkpt>
      <trkpt lat="43.59524" lon="3.08217">
        <ele>179.932855</ele>
        <time>2025-10-23T08:55:26Z</time>
      </trkpt>
      <trkpt lat="43.59526" lon="3.08217">
        <ele>179.911904</ele>
        <time>2025-10-23T08:55:27Z</time>
      </trkpt>
      <trkpt lat="43.59528" lon="3.08218">
        <ele>179.889318</ele>
        <time>2025-10-23T08:55:28Z</time>
      </trkpt>
      <trkpt lat="43.59528" lon="3.08218">
        <ele>179.882283</ele>
        <time>2025-10-23T08:55:29Z</time>
      </trkpt>
      <trkpt lat="43.59529" lon="3.08218">
        <ele>179.870651</ele>
        <time>2025-10-23T08:55:30Z</time>
      </trkpt>
      <trkpt lat="43.59529" lon="3.08217">
        <ele>179.862456</ele>
        <time>2025-10-23T08:55:31Z</time>
      </trkpt>
      <trkpt lat="43.59529" lon="3.08216">
        <ele>179.856889</ele>
        <time>2025-10-23T08:55:32Z</time>
      </trkpt>
      <trkpt lat="43.59529" lon="3.08216">
        <ele>179.850014</ele>
        <time>2025-10-23T08:55:33Z</time>
      </trkpt>
      <trkpt lat="43.59528" lon="3.08216">
        <ele>179.847966</ele>
        <time>2025-10-23T08:55:34Z</time>
      </trkpt>
      <trkpt lat="43.59531" lon="3.08216">
        <ele>179.817517</ele>
        <time>2025-10-23T08:55:35Z</time>
      </trkpt>
      <trkpt lat="43.59531" lon="3.08216">
        <ele>179.81608</ele>
        <time>2025-10-23T08:55:36Z</time>
      </trkpt>
      <trkpt lat="43.59531" lon="3.08216">
        <ele>179.813752</ele>
        <time>2025-10-23T08:55:37Z</time>
      </trkpt>
      <trkpt lat="43.5953" lon="3.08216">
        <ele>179.807871</ele>
        <time>2025-10-23T08:55:38Z</time>
      </trkpt>
      <trkpt lat="43.59529" lon="3.08216">
        <ele>179.798522</ele>
        <time>2025-10-23T08:55:39Z</time>
      </trkpt>
      <trkpt lat="43.59529" lon="3.08216">
        <ele>179.792773</ele>
        <time>2025-10-23T08:55:40Z</time>
      </trkpt>
      <trkpt lat="43.59529" lon="3.08216">
        <ele>179.790446</ele>
        <time>2025-10-23T08:55:41Z</time>
      </trkpt>
      <trkpt lat="43.59529" lon="3.08216">
        <ele>179.787571</ele>
        <time>2025-10-23T08:55:42Z</time>
      </trkpt>
      <trkpt lat="43.59528" lon="3.08216">
        <ele>179.781823</ele>
        <time>2025-10-23T08:55:43Z</time>
      </trkpt>
      <trkpt lat="43.59528" lon="3.08217">
        <ele>179.773005</ele>
        <time>2025-10-23T08:55:44Z</time>
      </trkpt>
      <trkpt lat="43.59527" lon="3.08217">
        <ele>179.77053</ele>
        <time>2025-10-23T08:55:45Z</time>
      </trkpt>
      <trkpt lat="43.59527" lon="3.08216">
        <ele>179.766963</ele>
        <time>2025-10-23T08:55:46Z</time>
      </trkpt>
      <trkpt lat="43.59527" lon="3.08216">
        <ele>179.763396</ele>
        <time>2025-10-23T08:55:47Z</time>
      </trkpt>
      <trkpt lat="43.59527" lon="3.08216">
        <ele>179.760867</ele>
        <time>2025-10-23T08:55:48Z</time>
      </trkpt>
      <trkpt lat="43.59527" lon="3.08216">
        <ele>179.757993</ele>
        <time>2025-10-23T08:55:49Z</time>
      </trkpt>
      <trkpt lat="43.59527" lon="3.08216">
        <ele>179.755517</ele>
        <time>2025-10-23T08:55:50Z</time>
      </trkpt>
      <trkpt lat="43.59529" lon="3.08217">
        <ele>179.732629</ele>
        <time>2025-10-23T08:58:57Z</time>
      </trkpt>
      <trkpt lat="43.59528" lon="3.08217">
        <ele>179.728531</ele>
        <time>2025-10-23T08:58:58Z</time>
      </trkpt>
      <trkpt lat="43.59529" lon="3.08218">
        <ele>179.723717</ele>
        <time>2025-10-23T08:58:59Z</time>
      </trkpt>
      <trkpt lat="43.59529" lon="3.08218">
        <ele>179.713814</ele>
        <time>2025-10-23T08:59:00Z</time>
      </trkpt>
      <trkpt lat="43.59531" lon="3.08219">
        <ele>179.697497</ele>
        <time>2025-10-23T08:59:01Z</time>
      </trkpt>
      <trkpt lat="43.59532" lon="3.0822">
        <ele>179.675989</ele>
        <time>2025-10-23T08:59:02Z</time>
      </trkpt>
      <trkpt lat="43.59534" lon="3.08222">
        <ele>179.649499</ele>
        <time>2025-10-23T08:59:03Z</time>
      </trkpt>
      <trkpt lat="43.59537" lon="3.08223">
        <ele>179.618103</ele>
        <time>2025-10-23T08:59:04Z</time>
      </trkpt>
      <trkpt lat="43.59539" lon="3.08225">
        <ele>179.582154</ele>
        <time>2025-10-23T08:59:05Z</time>
      </trkpt>
      <trkpt lat="43.59543" lon="3.08226">
        <ele>179.544901</ele>
        <time>2025-10-23T08:59:06Z</time>
      </trkpt>
      <trkpt lat="43.59546" lon="3.08227">
        <ele>179.505182</ele>
        <time>2025-10-23T08:59:07Z</time>
      </trkpt>
      <trkpt lat="43.59549" lon="3.08228">
        <ele>179.466185</ele>
        <time>2025-10-23T08:59:08Z</time>
      </trkpt>
      <trkpt lat="43.59552" lon="3.08229">
        <ele>179.428702</ele>
        <time>2025-10-23T08:59:09Z</time>
      </trkpt>
      <trkpt lat="43.59556" lon="3.0823">
        <ele>179.384819</ele>
        <time>2025-10-23T08:59:10Z</time>
      </trkpt>
      <trkpt lat="43.5956" lon="3.08231">
        <ele>179.336038</ele>
        <time>2025-10-23T08:59:11Z</time>
      </trkpt>
      <trkpt lat="43.59564" lon="3.08232">
        <ele>179.285545</ele>
        <time>2025-10-23T08:59:12Z</time>
      </trkpt>
      <trkpt lat="43.59568" lon="3.08234">
        <ele>179.239769</ele>
        <time>2025-10-23T08:59:13Z</time>
      </trkpt>
      <trkpt lat="43.59572" lon="3.08236">
        <ele>179.193276</ele>
        <time>2025-10-23T08:59:14Z</time>
      </trkpt>
      <trkpt lat="43.59576" lon="3.08236">
        <ele>179.141621</ele>
        <time>2025-10-23T08:59:15Z</time>
      </trkpt>
      <trkpt lat="43.5958" lon="3.08237">
        <ele>179.094874</ele>
        <time>2025-10-23T08:59:16Z</time>
      </trkpt>
      <trkpt lat="43.59584" lon="3.08237">
        <ele>179.052939</ele>
        <time>2025-10-23T08:59:17Z</time>
      </trkpt>
      <trkpt lat="43.59587" lon="3.08237">
        <ele>179.020306</ele>
        <time>2025-10-23T08:59:18Z</time>
      </trkpt>
      <trkpt lat="43.5959" lon="3.08238">
        <ele>178.98604</ele>
        <time>2025-10-23T08:59:19Z</time>
      </trkpt>
      <trkpt lat="43.59592" lon="3.08238">
        <ele>178.960685</ele>
        <time>2025-10-23T08:59:20Z</time>
      </trkpt>
      <trkpt lat="43.59593" lon="3.08239">
        <ele>178.944195</ele>
        <time>2025-10-23T08:59:21Z</time>
      </trkpt>
      <trkpt lat="43.59594" lon="3.08238">
        <ele>178.932077</ele>
        <time>2025-10-23T08:59:22Z</time>
      </trkpt>
      <trkpt lat="43.59595" lon="3.08237">
        <ele>178.92317</ele>
        <time>2025-10-23T08:59:23Z</time>
      </trkpt>
      <trkpt lat="43.59595" lon="3.08237">
        <ele>178.915234</ele>
        <time>2025-10-23T08:59:24Z</time>
      </trkpt>
      <trkpt lat="43.59595" lon="3.08236">
        <ele>178.910044</ele>
        <time>2025-10-23T08:59:25Z</time>
      </trkpt>
      <trkpt lat="43.59595" lon="3.08235">
        <ele>178.90291</ele>
        <time>2025-10-23T08:59:26Z</time>
      </trkpt>
      <trkpt lat="43.59595" lon="3.08235">
        <ele>178.897853</ele>
        <time>2025-10-23T08:59:27Z</time>
      </trkpt>
      <trkpt lat="43.59594" lon="3.08234">
        <ele>178.892901</ele>
        <time>2025-10-23T08:59:28Z</time>
      </trkpt>
      <trkpt lat="43.59593" lon="3.08233">
        <ele>178.873712</ele>
        <time>2025-10-23T08:59:29Z</time>
      </trkpt>
      <trkpt lat="43.59593" lon="3.08232">
        <ele>178.869498</ele>
        <time>2025-10-23T08:59:30Z</time>
      </trkpt>
      <trkpt lat="43.59593" lon="3.08233">
        <ele>178.865906</ele>
        <time>2025-10-23T08:59:31Z</time>
      </trkpt>
      <trkpt lat="43.59593" lon="3.08233">
        <ele>178.863122</ele>
        <time>2025-10-23T08:59:32Z</time>
      </trkpt>
      <trkpt lat="43.59593" lon="3.08234">
        <ele>178.852421</ele>
        <time>2025-10-23T08:59:33Z</time>
      </trkpt>
      <trkpt lat="43.59593" lon="3.08235">
        <ele>178.842861</ele>
        <time>2025-10-23T08:59:34Z</time>
      </trkpt>
      <trkpt lat="43.59593" lon="3.08237">
        <ele>178.830217</ele>
        <time>2025-10-23T08:59:35Z</time>
      </trkpt>
      <trkpt lat="43.59593" lon="3.08237">
        <ele>178.82665</ele>
        <time>2025-10-23T08:59:36Z</time>
      </trkpt>
      <trkpt lat="43.59592" lon="3.08238">
        <ele>178.818455</ele>
        <time>2025-10-23T08:59:37Z</time>
      </trkpt>
      <trkpt lat="43.59592" lon="3.08239">
        <ele>178.808826</ele>
        <time>2025-10-23T08:59:38Z</time>
      </trkpt>
      <trkpt lat="43.59591" lon="3.0824">
        <ele>178.796534</ele>
        <time>2025-10-23T08:59:39Z</time>
      </trkpt>
      <trkpt lat="43.59591" lon="3.08241">
        <ele>178.786904</ele>
        <time>2025-10-23T08:59:40Z</time>
      </trkpt>
      <trkpt lat="43.59591" lon="3.08241">
        <ele>178.785467</ele>
        <time>2025-10-23T08:59:41Z</time>
      </trkpt>
      <trkpt lat="43.59591" lon="3.08241">
        <ele>178.782683</ele>
        <time>2025-10-23T08:59:42Z</time>
      </trkpt>
      <trkpt lat="43.59591" lon="3.08241">
        <ele>178.780998</ele>
        <time>2025-10-23T08:59:43Z</time>
      </trkpt>
      <trkpt lat="43.59591" lon="3.08241">
        <ele>178.77956</ele>
        <time>2025-10-23T08:59:44Z</time>
      </trkpt>
      <trkpt lat="43.59591" lon="3.08241">
        <ele>178.777233</ele>
        <time>2025-10-23T08:59:45Z</time>
      </trkpt>
      <trkpt lat="43.59591" lon="3.08241">
        <ele>178.777233</ele>
        <time>2025-10-23T08:59:46Z</time>
      </trkpt>
      <trkpt lat="43.59591" lon="3.08241">
        <ele>178.776069</ele>
        <time>2025-10-23T08:59:47Z</time>
      </trkpt>
      <trkpt lat="43.59591" lon="3.08241">
        <ele>178.774905</ele>
        <time>2025-10-23T08:59:48Z</time>
      </trkpt>
      <trkpt lat="43.59591" lon="3.08241">
        <ele>178.773219</ele>
        <time>2025-10-23T08:59:49Z</time>
      </trkpt>
      <trkpt lat="43.59591" lon="3.08241">
        <ele>178.77069</ele>
        <time>2025-10-23T08:59:50Z</time>
      </trkpt>
      <trkpt lat="43.59591" lon="3.08242">
        <ele>178.763947</ele>
        <time>2025-10-23T08:59:51Z</time>
      </trkpt>
      <trkpt lat="43.59591" lon="3.08242">
        <ele>178.761898</ele>
        <time>2025-10-23T08:59:52Z</time>
      </trkpt>
      <trkpt lat="43.59592" lon="3.08241">
        <ele>178.747527</ele>
        <time>2025-10-23T08:59:53Z</time>
      </trkpt>
      <trkpt lat="43.59593" lon="3.08241">
        <ele>178.738064</ele>
        <time>2025-10-23T08:59:54Z</time>
      </trkpt>
      <trkpt lat="43.59594" lon="3.08241">
        <ele>178.732184</ele>
        <time>2025-10-23T08:59:55Z</time>
      </trkpt>
      <trkpt lat="43.59594" lon="3.08241">
        <ele>178.730747</ele>
        <time>2025-10-23T08:59:56Z</time>
      </trkpt>
      <trkpt lat="43.59594" lon="3.08241">
        <ele>178.728698</ele>
        <time>2025-10-23T08:59:57Z</time>
      </trkpt>
      <trkpt lat="43.59594" lon="3.08241">
        <ele>178.723967</ele>
        <time>2025-10-23T08:59:58Z</time>
      </trkpt>
      <trkpt lat="43.59594" lon="3.0824">
        <ele>178.71711</ele>
        <time>2025-10-23T08:59:59Z</time>
      </trkpt>
      <trkpt lat="43.59594" lon="3.0824">
        <ele>178.712896</ele>
        <time>2025-10-23T09:00:00Z</time>
      </trkpt>
      <trkpt lat="43.59594" lon="3.08239">
        <ele>178.708081</ele>
        <time>2025-10-23T09:00:01Z</time>
      </trkpt>
      <trkpt lat="43.59594" lon="3.08239">
        <ele>178.705605</ele>
        <time>2025-10-23T09:00:02Z</time>
      </trkpt>
      <trkpt lat="43.59594" lon="3.08239">
        <ele>178.705605</ele>
        <time>2025-10-23T09:00:03Z</time>
      </trkpt>
      <trkpt lat="43.59594" lon="3.08239">
        <ele>178.703129</ele>
        <time>2025-10-23T09:00:04Z</time>
      </trkpt>
      <trkpt lat="43.59595" lon="3.08239">
        <ele>178.701692</ele>
        <time>2025-10-23T09:00:05Z</time>
      </trkpt>
      <trkpt lat="43.59595" lon="3.08239">
        <ele>178.700849</ele>
        <time>2025-10-23T09:00:06Z</time>
      </trkpt>
      <trkpt lat="43.59595" lon="3.0824">
        <ele>178.697478</ele>
        <time>2025-10-23T09:00:07Z</time>
      </trkpt>
      <trkpt lat="43.59594" lon="3.0824">
        <ele>178.691729</ele>
        <time>2025-10-23T09:00:08Z</time>
      </trkpt>
      <trkpt lat="43.59594" lon="3.0824">
        <ele>178.690292</ele>
        <time>2025-10-23T09:00:09Z</time>
      </trkpt>
      <trkpt lat="43.59594" lon="3.08241">
        <ele>178.68692</ele>
        <time>2025-10-23T09:00:10Z</time>
      </trkpt>
      <trkpt lat="43.59594" lon="3.08241">
        <ele>178.683354</ele>
        <time>2025-10-23T09:00:11Z</time>
      </trkpt>
      <trkpt lat="43.59594" lon="3.08242">
        <ele>178.677786</ele>
        <time>2025-10-23T09:00:12Z</time>
      </trkpt>
      <trkpt lat="43.59594" lon="3.08241">
        <ele>178.675737</ele>
        <time>2025-10-23T09:00:13Z</time>
      </trkpt>
      <trkpt lat="43.59594" lon="3.08241">
        <ele>178.6723</ele>
        <time>2025-10-23T09:00:14Z</time>
      </trkpt>
      <trkpt lat="43.59593" lon="3.08241">
        <ele>178.666481</ele>
        <time>2025-10-23T09:00:15Z</time>
      </trkpt>
      <trkpt lat="43.59593" lon="3.08241">
        <ele>178.660661</ele>
        <time>2025-10-23T09:00:16Z</time>
      </trkpt>
      <trkpt lat="43.59592" lon="3.08241">
        <ele>178.653627</ele>
        <time>2025-10-23T09:00:17Z</time>
      </trkpt>
      <trkpt lat="43.59577" lon="3.08254">
        <ele>178.446956</ele>
        <time>2025-10-23T09:01:58Z</time>
      </trkpt>
      <trkpt lat="43.59577" lon="3.08254">
        <ele>178.44448</ele>
        <time>2025-10-23T09:01:59Z</time>
      </trkpt>
      <trkpt lat="43.59576" lon="3.08255">
        <ele>178.43677</ele>
        <time>2025-10-23T09:02:00Z</time>
      </trkpt>
      <trkpt lat="43.59576" lon="3.08256">
        <ele>178.420286</ele>
        <time>2025-10-23T09:02:01Z</time>
      </trkpt>
      <trkpt lat="43.59575" lon="3.08259">
        <ele>178.399526</ele>
        <time>2025-10-23T09:02:02Z</time>
      </trkpt>
      <trkpt lat="43.59575" lon="3.08262">
        <ele>178.372153</ele>
        <time>2025-10-23T09:02:03Z</time>
      </trkpt>
      <trkpt lat="43.59575" lon="3.08266">
        <ele>178.335888</ele>
        <time>2025-10-23T09:02:04Z</time>
      </trkpt>
      <trkpt lat="43.59575" lon="3.08271">
        <ele>178.297043</ele>
        <time>2025-10-23T09:02:05Z</time>
      </trkpt>
      <trkpt lat="43.59575" lon="3.08276">
        <ele>178.258268</ele>
        <time>2025-10-23T09:02:06Z</time>
      </trkpt>
      <trkpt lat="43.59575" lon="3.08281">
        <ele>178.215263</ele>
        <time>2025-10-23T09:02:07Z</time>
      </trkpt>
      <trkpt lat="43.59575" lon="3.08286">
        <ele>178.171414</ele>
        <time>2025-10-23T09:02:08Z</time>
      </trkpt>
      <trkpt lat="43.59575" lon="3.08291">
        <ele>178.125836</ele>
        <time>2025-10-23T09:02:09Z</time>
      </trkpt>
      <trkpt lat="43.59575" lon="3.08297">
        <ele>178.080318</ele>
        <time>2025-10-23T09:02:10Z</time>
      </trkpt>
      <trkpt lat="43.59575" lon="3.08302">
        <ele>178.031427</ele>
        <time>2025-10-23T09:02:11Z</time>
      </trkpt>
      <trkpt lat="43.59575" lon="3.08309">
        <ele>177.977429</ele>
        <time>2025-10-23T09:02:12Z</time>
      </trkpt>
      <trkpt lat="43.59575" lon="3.08316">
        <ele>177.920844</ele>
        <time>2025-10-23T09:02:13Z</time>
      </trkpt>
      <trkpt lat="43.59576" lon="3.08322">
        <ele>177.86768</ele>
        <time>2025-10-23T09:02:14Z</time>
      </trkpt>
      <trkpt lat="43.59576" lon="3.08328">
        <ele>177.783957</ele>
        <time>2025-10-23T09:02:15Z</time>
      </trkpt>
      <trkpt lat="43.59575" lon="3.08334">
        <ele>177.712397</ele>
        <time>2025-10-23T09:02:16Z</time>
      </trkpt>
      <trkpt lat="43.59575" lon="3.08339">
        <ele>177.649703</ele>
        <time>2025-10-23T09:02:17Z</time>
      </trkpt>
      <trkpt lat="43.59575" lon="3.08344">
        <ele>177.582137</ele>
        <time>2025-10-23T09:02:18Z</time>
      </trkpt>
      <trkpt lat="43.59575" lon="3.0835">
        <ele>177.510911</ele>
        <time>2025-10-23T09:02:19Z</time>
      </trkpt>
      <trkpt lat="43.59574" lon="3.08356">
        <ele>177.441644</ele>
        <time>2025-10-23T09:02:20Z</time>
      </trkpt>
      <trkpt lat="43.59574" lon="3.08361">
        <ele>177.37023</ele>
        <time>2025-10-23T09:02:21Z</time>
      </trkpt>
      <trkpt lat="43.59574" lon="3.08367">
        <ele>177.295175</ele>
        <time>2025-10-23T09:02:22Z</time>
      </trkpt>
      <trkpt lat="43.59574" lon="3.08374">
        <ele>177.213933</ele>
        <time>2025-10-23T09:02:23Z</time>
      </trkpt>
      <trkpt lat="43.59574" lon="3.08379">
        <ele>177.147346</ele>
        <time>2025-10-23T09:02:24Z</time>
      </trkpt>
      <trkpt lat="43.59574" lon="3.08385">
        <ele>177.077348</ele>
        <time>2025-10-23T09:02:25Z</time>
      </trkpt>
      <trkpt lat="43.59574" lon="3.0839">
        <ele>177.016021</ele>
        <time>2025-10-23T09:02:26Z</time>
      </trkpt>
      <trkpt lat="43.59573" lon="3.08395">
        <ele>176.94993</ele>
        <time>2025-10-23T09:02:27Z</time>
      </trkpt>
      <trkpt lat="43.59572" lon="3.08399">
        <ele>176.898127</ele>
        <time>2025-10-23T09:02:28Z</time>
      </trkpt>
      <trkpt lat="43.59571" lon="3.08403">
        <ele>176.844273</ele>
        <time>2025-10-23T09:02:29Z</time>
      </trkpt>
      <trkpt lat="43.5957" lon="3.08406">
        <ele>176.797217</ele>
        <time>2025-10-23T09:02:30Z</time>
      </trkpt>
      <trkpt lat="43.5957" lon="3.0841">
        <ele>176.757231</ele>
        <time>2025-10-23T09:02:31Z</time>
      </trkpt>
      <trkpt lat="43.59571" lon="3.08412">
        <ele>176.724558</ele>
        <time>2025-10-23T09:02:32Z</time>
      </trkpt>
      <trkpt lat="43.59571" lon="3.08413">
        <ele>176.711033</ele>
        <time>2025-10-23T09:02:33Z</time>
      </trkpt>
      <trkpt lat="43.5957" lon="3.08414">
        <ele>176.69453</ele>
        <time>2025-10-23T09:02:34Z</time>
      </trkpt>
      <trkpt lat="43.5957" lon="3.08415">
        <ele>176.67723</ele>
        <time>2025-10-23T09:02:35Z</time>
      </trkpt>
      <trkpt lat="43.59569" lon="3.08417">
        <ele>176.657724</ele>
        <time>2025-10-23T09:02:36Z</time>
      </trkpt>
      <trkpt lat="43.59569" lon="3.08417">
        <ele>176.647534</ele>
        <time>2025-10-23T09:02:37Z</time>
      </trkpt>
      <trkpt lat="43.59568" lon="3.08418">
        <ele>176.631307</ele>
        <time>2025-10-23T09:02:38Z</time>
      </trkpt>
      <trkpt lat="43.59568" lon="3.08418">
        <ele>176.631307</ele>
        <time>2025-10-23T09:02:39Z</time>
      </trkpt>
      <trkpt lat="43.59568" lon="3.08418">
        <ele>176.629581</ele>
        <time>2025-10-23T09:02:40Z</time>
      </trkpt>
      <trkpt lat="43.59568" lon="3.08418">
        <ele>176.627451</ele>
        <time>2025-10-23T09:02:41Z</time>
      </trkpt>
      <trkpt lat="43.59568" lon="3.08419">
        <ele>176.623702</ele>
        <time>2025-10-23T09:02:42Z</time>
      </trkpt>
      <trkpt lat="43.59568" lon="3.08421">
        <ele>176.597263</ele>
        <time>2025-10-23T09:02:43Z</time>
      </trkpt>
      <trkpt lat="43.59567" lon="3.08421">
        <ele>176.585115</ele>
        <time>2025-10-23T09:02:44Z</time>
      </trkpt>
      <trkpt lat="43.59567" lon="3.08422">
        <ele>176.577261</ele>
        <time>2025-10-23T09:02:45Z</time>
      </trkpt>
      <trkpt lat="43.59566" lon="3.08422">
        <ele>176.568279</ele>
        <time>2025-10-23T09:02:46Z</time>
      </trkpt>
      <trkpt lat="43.59566" lon="3.08422">
        <ele>176.564153</ele>
        <time>2025-10-23T09:02:47Z</time>
      </trkpt>
      <trkpt lat="43.59566" lon="3.08422">
        <ele>176.559892</ele>
        <time>2025-10-23T09:02:48Z</time>
      </trkpt>
      <trkpt lat="43.59566" lon="3.08422">
        <ele>176.556222</ele>
        <time>2025-10-23T09:02:49Z</time>
      </trkpt>
      <trkpt lat="43.59566" lon="3.08421">
        <ele>176.538727</ele>
        <time>2025-10-23T09:02:50Z</time>
      </trkpt>
      <trkpt lat="43.59567" lon="3.08419">
        <ele>176.50984</ele>
        <time>2025-10-23T09:02:51Z</time>
      </trkpt>
      <trkpt lat="43.59567" lon="3.08418">
        <ele>176.498698</ele>
        <time>2025-10-23T09:02:52Z</time>
      </trkpt>
      <trkpt lat="43.59568" lon="3.08417">
        <ele>176.484524</ele>
        <time>2025-10-23T09:02:53Z</time>
      </trkpt>
      <trkpt lat="43.59568" lon="3.08416">
        <ele>176.470249</ele>
        <time>2025-10-23T09:02:54Z</time>
      </trkpt>
      <trkpt lat="43.59569" lon="3.08416">
        <ele>176.461727</ele>
        <time>2025-10-23T09:02:55Z</time>
      </trkpt>
      <trkpt lat="43.59569" lon="3.08415">
        <ele>176.450297</ele>
        <time>2025-10-23T09:02:56Z</time>
      </trkpt>
      <trkpt lat="43.5957" lon="3.08415">
        <ele>176.439287</ele>
        <time>2025-10-23T09:02:57Z</time>
      </trkpt>
      <trkpt lat="43.5957" lon="3.08414">
        <ele>176.428637</ele>
        <time>2025-10-23T09:02:58Z</time>
      </trkpt>
      <trkpt lat="43.59571" lon="3.08414">
        <ele>176.418284</ele>
        <time>2025-10-23T09:02:59Z</time>
      </trkpt>
      <trkpt lat="43.59571" lon="3.08414">
        <ele>176.407634</ele>
        <time>2025-10-23T09:03:00Z</time>
      </trkpt>
      <trkpt lat="43.59572" lon="3.08415">
        <ele>176.392954</ele>
        <time>2025-10-23T09:03:01Z</time>
      </trkpt>
      <trkpt lat="43.59573" lon="3.08415">
        <ele>176.379883</ele>
        <time>2025-10-23T09:03:02Z</time>
      </trkpt>
      <trkpt lat="43.59573" lon="3.08415">
        <ele>176.369912</ele>
        <time>2025-10-23T09:03:03Z</time>
      </trkpt>
      <trkpt lat="43.59574" lon="3.08416">
        <ele>176.360506</ele>
        <time>2025-10-23T09:03:04Z</time>
      </trkpt>
      <trkpt lat="43.59574" lon="3.08416">
        <ele>176.35533</ele>
        <time>2025-10-23T09:03:05Z</time>
      </trkpt>
      <trkpt lat="43.59574" lon="3.08416">
        <ele>176.349256</ele>
        <time>2025-10-23T09:03:06Z</time>
      </trkpt>
      <trkpt lat="43.59575" lon="3.08417">
        <ele>176.336641</ele>
        <time>2025-10-23T09:03:07Z</time>
      </trkpt>
      <trkpt lat="43.59575" lon="3.08418">
        <ele>176.326497</ele>
        <time>2025-10-23T09:03:08Z</time>
      </trkpt>
      <trkpt lat="43.59575" lon="3.08419">
        <ele>176.31775</ele>
        <time>2025-10-23T09:03:09Z</time>
      </trkpt>
      <trkpt lat="43.59575" lon="3.0842">
        <ele>176.304004</ele>
        <time>2025-10-23T09:03:10Z</time>
      </trkpt>
      <trkpt lat="43.59575" lon="3.0842">
        <ele>176.299877</ele>
        <time>2025-10-23T09:03:11Z</time>
      </trkpt>
      <trkpt lat="43.59575" lon="3.0842">
        <ele>176.297747</ele>
        <time>2025-10-23T09:03:12Z</time>
      </trkpt>
      <trkpt lat="43.59575" lon="3.0842">
        <ele>176.296497</ele>
        <time>2025-10-23T09:03:13Z</time>
      </trkpt>
      <trkpt lat="43.59575" lon="3.0842">
        <ele>176.293998</ele>
        <time>2025-10-23T09:03:14Z</time>
      </trkpt>
      <trkpt lat="43.59575" lon="3.0842">
        <ele>176.291868</ele>
        <time>2025-10-23T09:03:15Z</time>
      </trkpt>
      <trkpt lat="43.59574" lon="3.0842">
        <ele>176.284854</ele>
        <time>2025-10-23T09:03:16Z</time>
      </trkpt>
      <trkpt lat="43.59574" lon="3.08422">
        <ele>176.270166</ele>
        <time>2025-10-23T09:03:17Z</time>
      </trkpt>
      <trkpt lat="43.59574" lon="3.08423">
        <ele>176.254785</ele>
        <time>2025-10-23T09:03:18Z</time>
      </trkpt>
      <trkpt lat="43.59575" lon="3.08425">
        <ele>176.224758</ele>
        <time>2025-10-23T09:03:19Z</time>
      </trkpt>
      <trkpt lat="43.59575" lon="3.08428">
        <ele>176.184438</ele>
        <time>2025-10-23T09:03:20Z</time>
      </trkpt>
      <trkpt lat="43.59576" lon="3.08432">
        <ele>176.13769</ele>
        <time>2025-10-23T09:03:21Z</time>
      </trkpt>
      <trkpt lat="43.59576" lon="3.08436">
        <ele>176.083709</ele>
        <time>2025-10-23T09:03:22Z</time>
      </trkpt>
      <trkpt lat="43.59576" lon="3.08441">
        <ele>176.02682</ele>
        <time>2025-10-23T09:03:23Z</time>
      </trkpt>
      <trkpt lat="43.59577" lon="3.08444">
        <ele>175.982119</ele>
        <time>2025-10-23T09:03:24Z</time>
      </trkpt>
      <trkpt lat="43.59577" lon="3.08448">
        <ele>175.931868</ele>
        <time>2025-10-23T09:03:25Z</time>
      </trkpt>
      <trkpt lat="43.59576" lon="3.08452">
        <ele>175.875226</ele>
        <time>2025-10-23T09:03:26Z</time>
      </trkpt>
      <trkpt lat="43.59573" lon="3.08456">
        <ele>175.812222</ele>
        <time>2025-10-23T09:03:27Z</time>
      </trkpt>
      <trkpt lat="43.59572" lon="3.08459">
        <ele>175.764496</ele>
        <time>2025-10-23T09:03:28Z</time>
      </trkpt>
      <trkpt lat="43.59571" lon="3.08461">
        <ele>175.731961</ele>
        <time>2025-10-23T09:03:29Z</time>
      </trkpt>
      <trkpt lat="43.59573" lon="3.08463">
        <ele>175.695982</ele>
        <time>2025-10-23T09:03:30Z</time>
      </trkpt>
      <trkpt lat="43.59575" lon="3.08463">
        <ele>175.659214</ele>
        <time>2025-10-23T09:03:31Z</time>
      </trkpt>
      <trkpt lat="43.59577" lon="3.0846">
        <ele>175.610071</ele>
        <time>2025-10-23T09:03:32Z</time>
      </trkpt>
      <trkpt lat="43.59578" lon="3.08457">
        <ele>175.565902</ele>
        <time>2025-10-23T09:03:33Z</time>
      </trkpt>
      <trkpt lat="43.59575" lon="3.08454">
        <ele>175.518326</ele>
        <time>2025-10-23T09:03:34Z</time>
      </trkpt>
      <trkpt lat="43.59573" lon="3.08454">
        <ele>175.474312</ele>
        <time>2025-10-23T09:03:35Z</time>
      </trkpt>
      <trkpt lat="43.59571" lon="3.08455">
        <ele>175.439654</ele>
        <time>2025-10-23T09:03:36Z</time>
      </trkpt>
      <trkpt lat="43.5957" lon="3.08456">
        <ele>175.412321</ele>
        <time>2025-10-23T09:03:37Z</time>
      </trkpt>
      <trkpt lat="43.59569" lon="3.08457">
        <ele>175.394942</ele>
        <time>2025-10-23T09:03:38Z</time>
      </trkpt>
      <trkpt lat="43.59569" lon="3.08457">
        <ele>175.391492</ele>
        <time>2025-10-23T09:03:39Z</time>
      </trkpt>
      <trkpt lat="43.59568" lon="3.08458">
        <ele>175.37515</ele>
        <time>2025-10-23T09:03:40Z</time>
      </trkpt>
      <trkpt lat="43.59559" lon="3.0846">
        <ele>175.202515</ele>
        <time>2025-10-23T09:04:22Z</time>
      </trkpt>
      <trkpt lat="43.59554" lon="3.08458">
        <ele>175.126998</ele>
        <time>2025-10-23T09:04:23Z</time>
      </trkpt>
      <trkpt lat="43.5955" lon="3.08456">
        <ele>175.050176</ele>
        <time>2025-10-23T09:04:24Z</time>
      </trkpt>
      <trkpt lat="43.59547" lon="3.08453">
        <ele>174.977548</ele>
        <time>2025-10-23T09:04:25Z</time>
      </trkpt>
      <trkpt lat="43.59543" lon="3.08451">
        <ele>174.906597</ele>
        <time>2025-10-23T09:04:26Z</time>
      </trkpt>
      <trkpt lat="43.59539" lon="3.0845">
        <ele>174.837675</ele>
        <time>2025-10-23T09:04:27Z</time>
      </trkpt>
      <trkpt lat="43.59535" lon="3.08448">
        <ele>174.769011</ele>
        <time>2025-10-23T09:04:28Z</time>
      </trkpt>
      <trkpt lat="43.59531" lon="3.08446">
        <ele>174.772236</ele>
        <time>2025-10-23T09:04:29Z</time>
      </trkpt>
      <trkpt lat="43.59527" lon="3.08444">
        <ele>174.775423</ele>
        <time>2025-10-23T09:04:30Z</time>
      </trkpt>
      <trkpt lat="43.59523" lon="3.08442">
        <ele>174.778798</ele>
        <time>2025-10-23T09:04:31Z</time>
      </trkpt>
      <trkpt lat="43.59519" lon="3.08441">
        <ele>174.782401</ele>
        <time>2025-10-23T09:04:32Z</time>
      </trkpt>
      <trkpt lat="43.59515" lon="3.08438">
        <ele>174.78623</ele>
        <time>2025-10-23T09:04:33Z</time>
      </trkpt>
      <trkpt lat="43.5951" lon="3.08437">
        <ele>174.790313</ele>
        <time>2025-10-23T09:04:34Z</time>
      </trkpt>
      <trkpt lat="43.59504" lon="3.08435">
        <ele>174.794541</ele>
        <time>2025-10-23T09:04:35Z</time>
      </trkpt>
      <trkpt lat="43.59499" lon="3.08435">
        <ele>174.798771</ele>
        <time>2025-10-23T09:04:36Z</time>
      </trkpt>
      <trkpt lat="43.59494" lon="3.08435">
        <ele>174.803004</ele>
        <time>2025-10-23T09:04:37Z</time>
      </trkpt>
      <trkpt lat="43.59489" lon="3.08436">
        <ele>174.806949</ele>
        <time>2025-10-23T09:04:38Z</time>
      </trkpt>
      <trkpt lat="43.59484" lon="3.08438">
        <ele>174.81072</ele>
        <time>2025-10-23T09:04:39Z</time>
      </trkpt>
      <trkpt lat="43.5948" lon="3.0844">
        <ele>174.814171</ele>
        <time>2025-10-23T09:04:40Z</time>
      </trkpt>
      <trkpt lat="43.59476" lon="3.08441">
        <ele>174.817373</ele>
        <time>2025-10-23T09:04:41Z</time>
      </trkpt>
      <trkpt lat="43.59473" lon="3.08442">
        <ele>174.820125</ele>
        <time>2025-10-23T09:04:42Z</time>
      </trkpt>
      <trkpt lat="43.5947" lon="3.08442">
        <ele>174.822781</ele>
        <time>2025-10-23T09:04:43Z</time>
      </trkpt>
      <trkpt lat="43.59467" lon="3.08441">
        <ele>174.82498</ele>
        <time>2025-10-23T09:04:44Z</time>
      </trkpt>
      <trkpt lat="43.59465" lon="3.08439">
        <ele>174.827285</ele>
        <time>2025-10-23T09:04:45Z</time>
      </trkpt>
      <trkpt lat="43.59463" lon="3.08437">
        <ele>174.829424</ele>
        <time>2025-10-23T09:04:46Z</time>
      </trkpt>
      <trkpt lat="43.59461" lon="3.08435">
        <ele>174.831329</ele>
        <time>2025-10-23T09:04:47Z</time>
      </trkpt>
      <trkpt lat="43.59459" lon="3.08434">
        <ele>174.832321</ele>
        <time>2025-10-23T09:04:48Z</time>
      </trkpt>
      <trkpt lat="43.59459" lon="3.08434">
        <ele>174.832646</ele>
        <time>2025-10-23T09:04:49Z</time>
      </trkpt>
      <trkpt lat="43.59459" lon="3.08434">
        <ele>174.832786</ele>
        <time>2025-10-23T09:04:50Z</time>
      </trkpt>
      <trkpt lat="43.59459" lon="3.08434">
        <ele>174.832977</ele>
        <time>2025-10-23T09:04:51Z</time>
      </trkpt>
      <trkpt lat="43.59459" lon="3.08434">
        <ele>174.832977</ele>
        <time>2025-10-23T09:04:52Z</time>
      </trkpt>
      <trkpt lat="43.5946" lon="3.08433">
        <ele>174.83347</ele>
        <time>2025-10-23T09:06:05Z</time>
      </trkpt>
      <trkpt lat="43.59459" lon="3.08433">
        <ele>174.833549</ele>
        <time>2025-10-23T09:06:06Z</time>
      </trkpt>
      <trkpt lat="43.59459" lon="3.08433">
        <ele>174.833648</ele>
        <time>2025-10-23T09:06:07Z</time>
      </trkpt>
      <trkpt lat="43.59459" lon="3.08434">
        <ele>174.834448</ele>
        <time>2025-10-23T09:06:08Z</time>
      </trkpt>
      <trkpt lat="43.59459" lon="3.08436">
        <ele>174.835204</ele>
        <time>2025-10-23T09:06:09Z</time>
      </trkpt>
      <trkpt lat="43.5946" lon="3.08437">
        <ele>174.835967</ele>
        <time>2025-10-23T09:06:10Z</time>
      </trkpt>
      <trkpt lat="43.59461" lon="3.08437">
        <ele>174.836911</ele>
        <time>2025-10-23T09:06:11Z</time>
      </trkpt>
      <trkpt lat="43.59462" lon="3.08437">
        <ele>174.838268</ele>
        <time>2025-10-23T09:06:12Z</time>
      </trkpt>
      <trkpt lat="43.59464" lon="3.08437">
        <ele>174.83955</ele>
        <time>2025-10-23T09:06:13Z</time>
      </trkpt>
      <trkpt lat="43.59466" lon="3.08437">
        <ele>174.841262</ele>
        <time>2025-10-23T09:06:14Z</time>
      </trkpt>
      <trkpt lat="43.59468" lon="3.08438">
        <ele>174.842985</ele>
        <time>2025-10-23T09:06:15Z</time>
      </trkpt>
      <trkpt lat="43.5947" lon="3.08439">
        <ele>174.844315</ele>
        <time>2025-10-23T09:06:16Z</time>
      </trkpt>
      <trkpt lat="43.59471" lon="3.0844">
        <ele>174.845547</ele>
        <time>2025-10-23T09:06:17Z</time>
      </trkpt>
      <trkpt lat="43.59472" lon="3.08441">
        <ele>174.846448</ele>
        <time>2025-10-23T09:06:18Z</time>
      </trkpt>
      <trkpt lat="43.59472" lon="3.08443">
        <ele>174.84735</ele>
        <time>2025-10-23T09:06:19Z</time>
      </trkpt>
      <trkpt lat="43.59473" lon="3.08444">
        <ele>174.848476</ele>
        <time>2025-10-23T09:06:20Z</time>
      </trkpt>
      <trkpt lat="43.59474" lon="3.08446">
        <ele>174.849834</ele>
        <time>2025-10-23T09:06:21Z</time>
      </trkpt>
      <trkpt lat="43.59474" lon="3.08449">
        <ele>174.851654</ele>
        <time>2025-10-23T09:06:22Z</time>
      </trkpt>
      <trkpt lat="43.59472" lon="3.08451">
        <ele>174.853318</ele>
        <time>2025-10-23T09:06:23Z</time>
      </trkpt>
      <trkpt lat="43.5947" lon="3.08453">
        <ele>174.855487</ele>
        <time>2025-10-23T09:06:24Z</time>
      </trkpt>
      <trkpt lat="43.59467" lon="3.08455">
        <ele>174.857844</ele>
        <time>2025-10-23T09:06:25Z</time>
      </trkpt>
      <trkpt lat="43.59464" lon="3.08456">
        <ele>174.860336</ele>
        <time>2025-10-23T09:06:26Z</time>
      </trkpt>
      <trkpt lat="43.59461" lon="3.08458">
        <ele>174.862733</ele>
        <time>2025-10-23T09:06:27Z</time>
      </trkpt>
      <trkpt lat="43.59459" lon="3.08458">
        <ele>174.864836</ele>
        <time>2025-10-23T09:06:28Z</time>
      </trkpt>
      <trkpt lat="43.59456" lon="3.08459">
        <ele>174.867052</ele>
        <time>2025-10-23T09:06:29Z</time>
      </trkpt>
      <trkpt lat="43.59453" lon="3.08461">
        <ele>174.869301</ele>
        <time>2025-10-23T09:06:30Z</time>
      </trkpt>
      <trkpt lat="43.59451" lon="3.08463">
        <ele>174.871493</ele>
        <time>2025-10-23T09:06:31Z</time>
      </trkpt>
      <trkpt lat="43.5945" lon="3.08467">
        <ele>174.874021</ele>
        <time>2025-10-23T09:06:32Z</time>
      </trkpt>
      <trkpt lat="43.59447" lon="3.08471">
        <ele>174.876784</ele>
        <time>2025-10-23T09:06:33Z</time>
      </trkpt>
      <trkpt lat="43.59445" lon="3.08474">
        <ele>174.87955</ele>
        <time>2025-10-23T09:06:34Z</time>
      </trkpt>
      <trkpt lat="43.59443" lon="3.08478">
        <ele>174.882197</ele>
        <time>2025-10-23T09:06:35Z</time>
      </trkpt>
      <trkpt lat="43.59441" lon="3.08481">
        <ele>174.884859</ele>
        <time>2025-10-23T09:06:36Z</time>
      </trkpt>
      <trkpt lat="43.59438" lon="3.08484">
        <ele>174.887345</ele>
        <time>2025-10-23T09:06:37Z</time>
      </trkpt>
      <trkpt lat="43.59436" lon="3.08487">
        <ele>174.889693</ele>
        <time>2025-10-23T09:06:38Z</time>
      </trkpt>
      <trkpt lat="43.59434" lon="3.08489">
        <ele>174.891901</ele>
        <time>2025-10-23T09:06:39Z</time>
      </trkpt>
      <trkpt lat="43.59432" lon="3.08493">
        <ele>174.894563</ele>
        <time>2025-10-23T09:06:40Z</time>
      </trkpt>
      <trkpt lat="43.59429" lon="3.08495">
        <ele>174.897223</ele>
        <time>2025-10-23T09:06:41Z</time>
      </trkpt>
      <trkpt lat="43.59426" lon="3.08498">
        <ele>174.899883</ele>
        <time>2025-10-23T09:06:42Z</time>
      </trkpt>
      <trkpt lat="43.59424" lon="3.085">
        <ele>174.902483</ele>
        <time>2025-10-23T09:06:43Z</time>
      </trkpt>
      <trkpt lat="43.5942" lon="3.08502">
        <ele>174.90524</ele>
        <time>2025-10-23T09:06:44Z</time>
      </trkpt>
      <trkpt lat="43.59418" lon="3.08504">
        <ele>174.907778</ele>
        <time>2025-10-23T09:06:45Z</time>
      </trkpt>
      <trkpt lat="43.59415" lon="3.08506">
        <ele>174.910222</ele>
        <time>2025-10-23T09:06:46Z</time>
      </trkpt>
      <trkpt lat="43.59412" lon="3.08507">
        <ele>174.918872</ele>
        <time>2025-10-23T09:06:47Z</time>
      </trkpt>
      <trkpt lat="43.59409" lon="3.08508">
        <ele>174.995347</ele>
        <time>2025-10-23T09:06:48Z</time>
      </trkpt>
      <trkpt lat="43.59406" lon="3.0851">
        <ele>175.075775</ele>
        <time>2025-10-23T09:06:49Z</time>
      </trkpt>
      <trkpt lat="43.59403" lon="3.08512">
        <ele>175.148433</ele>
        <time>2025-10-23T09:06:50Z</time>
      </trkpt>
      <trkpt lat="43.59401" lon="3.08514">
        <ele>175.222986</ele>
        <time>2025-10-23T09:06:51Z</time>
      </trkpt>
      <trkpt lat="43.59399" lon="3.08517">
        <ele>175.296245</ele>
        <time>2025-10-23T09:06:52Z</time>
      </trkpt>
      <trkpt lat="43.59397" lon="3.08521">
        <ele>175.37419</ele>
        <time>2025-10-23T09:06:53Z</time>
      </trkpt>
      <trkpt lat="43.59395" lon="3.08525">
        <ele>175.454909</ele>
        <time>2025-10-23T09:06:54Z</time>
      </trkpt>
      <trkpt lat="43.59394" lon="3.08528">
        <ele>175.528168</ele>
        <time>2025-10-23T09:06:55Z</time>
      </trkpt>
      <trkpt lat="43.59392" lon="3.08531">
        <ele>175.596654</ele>
        <time>2025-10-23T09:06:56Z</time>
      </trkpt>
      <trkpt lat="43.5939" lon="3.08533">
        <ele>175.660141</ele>
        <time>2025-10-23T09:06:57Z</time>
      </trkpt>
      <trkpt lat="43.59387" lon="3.08535">
        <ele>175.728777</ele>
        <time>2025-10-23T09:06:58Z</time>
      </trkpt>
      <trkpt lat="43.59385" lon="3.08537">
        <ele>175.797812</ele>
        <time>2025-10-23T09:06:59Z</time>
      </trkpt>
      <trkpt lat="43.59382" lon="3.08539">
        <ele>175.861688</ele>
        <time>2025-10-23T09:07:00Z</time>
      </trkpt>
      <trkpt lat="43.5938" lon="3.0854">
        <ele>175.927772</ele>
        <time>2025-10-23T09:07:01Z</time>
      </trkpt>
      <trkpt lat="43.59377" lon="3.08541">
        <ele>175.992017</ele>
        <time>2025-10-23T09:07:02Z</time>
      </trkpt>
      <trkpt lat="43.59375" lon="3.08542">
        <ele>176.061714</ele>
        <time>2025-10-23T09:07:03Z</time>
      </trkpt>
      <trkpt lat="43.59372" lon="3.08543">
        <ele>176.127798</ele>
        <time>2025-10-23T09:07:04Z</time>
      </trkpt>
      <trkpt lat="43.59369" lon="3.08545">
        <ele>176.195504</ele>
        <time>2025-10-23T09:07:05Z</time>
      </trkpt>
      <trkpt lat="43.59367" lon="3.08546">
        <ele>176.25938</ele>
        <time>2025-10-23T09:07:06Z</time>
      </trkpt>
      <trkpt lat="43.59365" lon="3.08548">
        <ele>176.324634</ele>
        <time>2025-10-23T09:07:07Z</time>
      </trkpt>
      <trkpt lat="43.59362" lon="3.08549">
        <ele>176.391216</ele>
        <time>2025-10-23T09:07:08Z</time>
      </trkpt>
      <trkpt lat="43.59359" lon="3.0855">
        <ele>176.463299</ele>
        <time>2025-10-23T09:07:09Z</time>
      </trkpt>
      <trkpt lat="43.59356" lon="3.08551">
        <ele>176.536935</ele>
        <time>2025-10-23T09:07:10Z</time>
      </trkpt>
      <trkpt lat="43.59354" lon="3.08551">
        <ele>176.606313</ele>
        <time>2025-10-23T09:07:11Z</time>
      </trkpt>
      <trkpt lat="43.59351" lon="3.08552">
        <ele>176.675691</ele>
        <time>2025-10-23T09:07:12Z</time>
      </trkpt>
      <trkpt lat="43.59348" lon="3.08552">
        <ele>176.744615</ele>
        <time>2025-10-23T09:07:13Z</time>
      </trkpt>
      <trkpt lat="43.59345" lon="3.08553">
        <ele>176.811574</ele>
        <time>2025-10-23T09:07:14Z</time>
      </trkpt>
      <trkpt lat="43.59343" lon="3.08554">
        <ele>176.874032</ele>
        <time>2025-10-23T09:07:15Z</time>
      </trkpt>
      <trkpt lat="43.5934" lon="3.08554">
        <ele>176.940141</ele>
        <time>2025-10-23T09:07:16Z</time>
      </trkpt>
      <trkpt lat="43.59337" lon="3.08553">
        <ele>177.009064</ele>
        <time>2025-10-23T09:07:17Z</time>
      </trkpt>
      <trkpt lat="43.59334" lon="3.08553">
        <ele>177.080621</ele>
        <time>2025-10-23T09:07:18Z</time>
      </trkpt>
      <trkpt lat="43.59331" lon="3.08552">
        <ele>177.152704</ele>
        <time>2025-10-23T09:07:19Z</time>
      </trkpt>
      <trkpt lat="43.59329" lon="3.08551">
        <ele>177.22634</ele>
        <time>2025-10-23T09:07:20Z</time>
      </trkpt>
      <trkpt lat="43.59326" lon="3.08552">
        <ele>177.29875</ele>
        <time>2025-10-23T09:07:21Z</time>
      </trkpt>
      <trkpt lat="43.59323" lon="3.08552">
        <ele>177.370548</ele>
        <time>2025-10-23T09:07:22Z</time>
      </trkpt>
      <trkpt lat="43.5932" lon="3.08553">
        <ele>177.450508</ele>
        <time>2025-10-23T09:07:23Z</time>
      </trkpt>
      <trkpt lat="43.59316" lon="3.08554">
        <ele>177.532544</ele>
        <time>2025-10-23T09:07:24Z</time>
      </trkpt>
      <trkpt lat="43.59313" lon="3.08555">
        <ele>177.611614</ele>
        <time>2025-10-23T09:07:25Z</time>
      </trkpt>
      <trkpt lat="43.5931" lon="3.08555">
        <ele>177.683697</ele>
        <time>2025-10-23T09:07:26Z</time>
      </trkpt>
      <trkpt lat="43.59307" lon="3.08556">
        <ele>177.756106</ele>
        <time>2025-10-23T09:07:27Z</time>
      </trkpt>
      <trkpt lat="43.59304" lon="3.08557">
        <ele>177.829743</ele>
        <time>2025-10-23T09:07:28Z</time>
      </trkpt>
      <trkpt lat="43.59301" lon="3.08559">
        <ele>177.911415</ele>
        <time>2025-10-23T09:07:29Z</time>
      </trkpt>
      <trkpt lat="43.59298" lon="3.0856">
        <ele>177.994536</ele>
        <time>2025-10-23T09:07:30Z</time>
      </trkpt>
      <trkpt lat="43.59295" lon="3.08561">
        <ele>178.072483</ele>
        <time>2025-10-23T09:07:31Z</time>
      </trkpt>
      <trkpt lat="43.59292" lon="3.08562">
        <ele>178.154673</ele>
        <time>2025-10-23T09:07:32Z</time>
      </trkpt>
      <trkpt lat="43.59288" lon="3.08563">
        <ele>178.239789</ele>
        <time>2025-10-23T09:07:33Z</time>
      </trkpt>
      <trkpt lat="43.59285" lon="3.08564">
        <ele>178.329009</ele>
        <time>2025-10-23T09:07:34Z</time>
      </trkpt>
      <trkpt lat="43.59281" lon="3.08566">
        <ele>178.420584</ele>
        <time>2025-10-23T09:07:35Z</time>
      </trkpt>
      <trkpt lat="43.59278" lon="3.08567">
        <ele>178.503705</ele>
        <time>2025-10-23T09:07:36Z</time>
      </trkpt>
      <trkpt lat="43.59275" lon="3.08568">
        <ele>178.585895</ele>
        <time>2025-10-23T09:07:37Z</time>
      </trkpt>
      <trkpt lat="43.59271" lon="3.0857">
        <ele>178.66894</ele>
        <time>2025-10-23T09:07:38Z</time>
      </trkpt>
      <trkpt lat="43.59269" lon="3.08572">
        <ele>178.746791</ele>
        <time>2025-10-23T09:07:39Z</time>
      </trkpt>
      <trkpt lat="43.59265" lon="3.08574">
        <ele>178.832958</ele>
        <time>2025-10-23T09:07:40Z</time>
      </trkpt>
      <trkpt lat="43.59263" lon="3.08577">
        <ele>178.913652</ele>
        <time>2025-10-23T09:07:41Z</time>
      </trkpt>
      <trkpt lat="43.5926" lon="3.08578">
        <ele>178.984089</ele>
        <time>2025-10-23T09:07:42Z</time>
      </trkpt>
      <trkpt lat="43.59257" lon="3.0858">
        <ele>179.058286</ele>
        <time>2025-10-23T09:07:43Z</time>
      </trkpt>
      <trkpt lat="43.59255" lon="3.08582">
        <ele>179.120155</ele>
        <time>2025-10-23T09:07:44Z</time>
      </trkpt>
      <trkpt lat="43.59253" lon="3.08585">
        <ele>179.189894</ele>
        <time>2025-10-23T09:07:45Z</time>
      </trkpt>
      <trkpt lat="43.59251" lon="3.08588">
        <ele>179.262616</ele>
        <time>2025-10-23T09:07:46Z</time>
      </trkpt>
      <trkpt lat="43.59249" lon="3.08591">
        <ele>179.362893</ele>
        <time>2025-10-23T09:07:47Z</time>
      </trkpt>
      <trkpt lat="43.59247" lon="3.08593">
        <ele>179.633872</ele>
        <time>2025-10-23T09:07:48Z</time>
      </trkpt>
      <trkpt lat="43.59245" lon="3.08595">
        <ele>179.904254</ele>
        <time>2025-10-23T09:07:49Z</time>
      </trkpt>
      <trkpt lat="43.59243" lon="3.08597">
        <ele>180.175232</ele>
        <time>2025-10-23T09:07:50Z</time>
      </trkpt>
      <trkpt lat="43.59241" lon="3.086">
        <ele>180.445666</ele>
        <time>2025-10-23T09:07:51Z</time>
      </trkpt>
      <trkpt lat="43.59239" lon="3.08603">
        <ele>180.714355</ele>
        <time>2025-10-23T09:07:52Z</time>
      </trkpt>
      <trkpt lat="43.59238" lon="3.08606">
        <ele>180.988476</ele>
        <time>2025-10-23T09:07:53Z</time>
      </trkpt>
      <trkpt lat="43.59236" lon="3.08609">
        <ele>181.273715</ele>
        <time>2025-10-23T09:07:54Z</time>
      </trkpt>
      <trkpt lat="43.59234" lon="3.08611">
        <ele>181.558865</ele>
        <time>2025-10-23T09:07:55Z</time>
      </trkpt>
      <trkpt lat="43.59232" lon="3.08613">
        <ele>181.797097</ele>
        <time>2025-10-23T09:07:56Z</time>
      </trkpt>
      <trkpt lat="43.5923" lon="3.08616">
        <ele>182.062427</ele>
        <time>2025-10-23T09:07:57Z</time>
      </trkpt>
      <trkpt lat="43.59228" lon="3.08618">
        <ele>182.357768</ele>
        <time>2025-10-23T09:07:58Z</time>
      </trkpt>
      <trkpt lat="43.59225" lon="3.0862">
        <ele>182.641218</ele>
        <time>2025-10-23T09:07:59Z</time>
      </trkpt>
      <trkpt lat="43.59223" lon="3.08623">
        <ele>182.933972</ele>
        <time>2025-10-23T09:08:00Z</time>
      </trkpt>
      <trkpt lat="43.59221" lon="3.08626">
        <ele>183.239169</ele>
        <time>2025-10-23T09:08:01Z</time>
      </trkpt>
      <trkpt lat="43.59219" lon="3.08628">
        <ele>183.527215</ele>
        <time>2025-10-23T09:08:02Z</time>
      </trkpt>
      <trkpt lat="43.59217" lon="3.08631">
        <ele>183.80999</ele>
        <time>2025-10-23T09:08:03Z</time>
      </trkpt>
      <trkpt lat="43.59214" lon="3.08633">
        <ele>184.101439</ele>
        <time>2025-10-23T09:08:04Z</time>
      </trkpt>
      <trkpt lat="43.59212" lon="3.08636">
        <ele>184.392889</ele>
        <time>2025-10-23T09:08:05Z</time>
      </trkpt>
      <trkpt lat="43.5921" lon="3.08638">
        <ele>184.684339</ele>
        <time>2025-10-23T09:08:06Z</time>
      </trkpt>
      <trkpt lat="43.59207" lon="3.0864">
        <ele>184.992615</ele>
        <time>2025-10-23T09:08:07Z</time>
      </trkpt>
      <trkpt lat="43.59205" lon="3.08643">
        <ele>185.292318</ele>
        <time>2025-10-23T09:08:08Z</time>
      </trkpt>
      <trkpt lat="43.59202" lon="3.08645">
        <ele>185.604378</ele>
        <time>2025-10-23T09:08:09Z</time>
      </trkpt>
      <trkpt lat="43.592" lon="3.08648">
        <ele>185.909575</ele>
        <time>2025-10-23T09:08:10Z</time>
      </trkpt>
      <trkpt lat="43.59197" lon="3.0865">
        <ele>186.221739</ele>
        <time>2025-10-23T09:08:11Z</time>
      </trkpt>
      <trkpt lat="43.59194" lon="3.08652">
        <ele>186.552786</ele>
        <time>2025-10-23T09:08:12Z</time>
      </trkpt>
      <trkpt lat="43.59192" lon="3.08654">
        <ele>186.869726</ele>
        <time>2025-10-23T09:08:13Z</time>
      </trkpt>
      <trkpt lat="43.59189" lon="3.08656">
        <ele>187.191854</ele>
        <time>2025-10-23T09:08:14Z</time>
      </trkpt>
      <trkpt lat="43.59186" lon="3.08659">
        <ele>187.491432</ele>
        <time>2025-10-23T09:08:15Z</time>
      </trkpt>
      <trkpt lat="43.59184" lon="3.08661">
        <ele>187.754566</ele>
        <time>2025-10-23T09:08:16Z</time>
      </trkpt>
      <trkpt lat="43.59182" lon="3.08663">
        <ele>188.017701</ele>
        <time>2025-10-23T09:08:17Z</time>
      </trkpt>
      <trkpt lat="43.59181" lon="3.08665">
        <ele>188.242384</ele>
        <time>2025-10-23T09:08:18Z</time>
      </trkpt>
      <trkpt lat="43.59179" lon="3.08667">
        <ele>188.447744</ele>
        <time>2025-10-23T09:08:19Z</time>
      </trkpt>
      <trkpt lat="43.59177" lon="3.08668">
        <ele>188.697624</ele>
        <time>2025-10-23T09:08:20Z</time>
      </trkpt>
      <trkpt lat="43.59174" lon="3.0867">
        <ele>189.002139</ele>
        <time>2025-10-23T09:08:21Z</time>
      </trkpt>
      <trkpt lat="43.59172" lon="3.08673">
        <ele>189.304621</ele>
        <time>2025-10-23T09:08:22Z</time>
      </trkpt>
      <trkpt lat="43.5917" lon="3.08676">
        <ele>189.61541</ele>
        <time>2025-10-23T09:08:23Z</time>
      </trkpt>
      <trkpt lat="43.59169" lon="3.08679">
        <ele>189.841148</ele>
        <time>2025-10-23T09:08:24Z</time>
      </trkpt>
      <trkpt lat="43.59168" lon="3.08682">
        <ele>190.078904</ele>
        <time>2025-10-23T09:08:25Z</time>
      </trkpt>
      <trkpt lat="43.59167" lon="3.08685">
        <ele>190.295788</ele>
        <time>2025-10-23T09:08:26Z</time>
      </trkpt>
      <trkpt lat="43.59166" lon="3.08687">
        <ele>190.506783</ele>
        <time>2025-10-23T09:08:27Z</time>
      </trkpt>
      <trkpt lat="43.59165" lon="3.08689">
        <ele>190.696542</ele>
        <time>2025-10-23T09:08:28Z</time>
      </trkpt>
      <trkpt lat="43.59164" lon="3.08692">
        <ele>190.916522</ele>
        <time>2025-10-23T09:08:29Z</time>
      </trkpt>
      <trkpt lat="43.59162" lon="3.08694">
        <ele>191.130139</ele>
        <time>2025-10-23T09:08:30Z</time>
      </trkpt>
      <trkpt lat="43.59161" lon="3.08696">
        <ele>191.338095</ele>
        <time>2025-10-23T09:08:31Z</time>
      </trkpt>
      <trkpt lat="43.5916" lon="3.08699">
        <ele>191.534514</ele>
        <time>2025-10-23T09:08:32Z</time>
      </trkpt>
      <trkpt lat="43.59159" lon="3.08701">
        <ele>191.734633</ele>
        <time>2025-10-23T09:08:33Z</time>
      </trkpt>
      <trkpt lat="43.59159" lon="3.08704">
        <ele>191.930884</ele>
        <time>2025-10-23T09:08:34Z</time>
      </trkpt>
      <trkpt lat="43.59158" lon="3.08706">
        <ele>192.117702</ele>
        <time>2025-10-23T09:08:35Z</time>
      </trkpt>
      <trkpt lat="43.59157" lon="3.08708">
        <ele>192.307143</ele>
        <time>2025-10-23T09:08:36Z</time>
      </trkpt>
      <trkpt lat="43.59156" lon="3.08711">
        <ele>192.51398</ele>
        <time>2025-10-23T09:08:37Z</time>
      </trkpt>
      <trkpt lat="43.59156" lon="3.08714">
        <ele>192.720818</ele>
        <time>2025-10-23T09:08:38Z</time>
      </trkpt>
      <trkpt lat="43.59155" lon="3.08716">
        <ele>192.923916</ele>
        <time>2025-10-23T09:08:39Z</time>
      </trkpt>
      <trkpt lat="43.59154" lon="3.08719">
        <ele>193.130754</ele>
        <time>2025-10-23T09:08:40Z</time>
      </trkpt>
      <trkpt lat="43.59153" lon="3.08721">
        <ele>193.322166</ele>
        <time>2025-10-23T09:08:41Z</time>
      </trkpt>
      <trkpt lat="43.59152" lon="3.08724">
        <ele>193.524897</ele>
        <time>2025-10-23T09:08:42Z</time>
      </trkpt>
      <trkpt lat="43.59151" lon="3.08726">
        <ele>193.734006</ele>
        <time>2025-10-23T09:08:43Z</time>
      </trkpt>
      <trkpt lat="43.59151" lon="3.08728">
        <ele>193.923447</ele>
        <time>2025-10-23T09:08:44Z</time>
      </trkpt>
      <trkpt lat="43.5915" lon="3.08731">
        <ele>194.121331</ele>
        <time>2025-10-23T09:08:45Z</time>
      </trkpt>
      <trkpt lat="43.59149" lon="3.08733">
        <ele>194.283973</ele>
        <time>2025-10-23T09:08:46Z</time>
      </trkpt>
      <trkpt lat="43.59148" lon="3.08735">
        <ele>194.422439</ele>
        <time>2025-10-23T09:08:47Z</time>
      </trkpt>
      <trkpt lat="43.59148" lon="3.08736">
        <ele>194.541548</ele>
        <time>2025-10-23T09:08:48Z</time>
      </trkpt>
      <trkpt lat="43.59147" lon="3.08738">
        <ele>194.700052</ele>
        <time>2025-10-23T09:08:49Z</time>
      </trkpt>
      <trkpt lat="43.59146" lon="3.08741">
        <ele>194.916937</ele>
        <time>2025-10-23T09:08:50Z</time>
      </trkpt>
      <trkpt lat="43.59145" lon="3.08744">
        <ele>195.169695</ele>
        <time>2025-10-23T09:08:51Z</time>
      </trkpt>
      <trkpt lat="43.59145" lon="3.08747">
        <ele>195.407451</ele>
        <time>2025-10-23T09:08:52Z</time>
      </trkpt>
      <trkpt lat="43.59143" lon="3.0875">
        <ele>195.690983</ele>
        <time>2025-10-23T09:08:53Z</time>
      </trkpt>
      <trkpt lat="43.59143" lon="3.08754">
        <ele>195.945784</ele>
        <time>2025-10-23T09:08:54Z</time>
      </trkpt>
      <trkpt lat="43.59142" lon="3.08757">
        <ele>196.221503</ele>
        <time>2025-10-23T09:08:55Z</time>
      </trkpt>
      <trkpt lat="43.59141" lon="3.08761">
        <ele>196.485349</ele>
        <time>2025-10-23T09:08:56Z</time>
      </trkpt>
      <trkpt lat="43.5914" lon="3.08764">
        <ele>196.705937</ele>
        <time>2025-10-23T09:08:57Z</time>
      </trkpt>
      <trkpt lat="43.59141" lon="3.08765">
        <ele>196.849908</ele>
        <time>2025-10-23T09:08:58Z</time>
      </trkpt>
      <trkpt lat="43.59143" lon="3.08765">
        <ele>196.961352</ele>
        <time>2025-10-23T09:08:59Z</time>
      </trkpt>
      <trkpt lat="43.59143" lon="3.08764">
        <ele>197.075491</ele>
        <time>2025-10-23T09:09:00Z</time>
      </trkpt>
      <trkpt lat="43.59144" lon="3.08761">
        <ele>197.261036</ele>
        <time>2025-10-23T09:09:01Z</time>
      </trkpt>
      <trkpt lat="43.59144" lon="3.08759">
        <ele>197.42495</ele>
        <time>2025-10-23T09:09:02Z</time>
      </trkpt>
      <trkpt lat="43.59145" lon="3.08757">
        <ele>197.632802</ele>
        <time>2025-10-23T09:09:03Z</time>
      </trkpt>
      <trkpt lat="43.59147" lon="3.08755">
        <ele>197.855367</ele>
        <time>2025-10-23T09:09:04Z</time>
      </trkpt>
      <trkpt lat="43.59149" lon="3.08754">
        <ele>198.077408</ele>
        <time>2025-10-23T09:09:05Z</time>
      </trkpt>
      <trkpt lat="43.59152" lon="3.08752">
        <ele>198.320045</ele>
        <time>2025-10-23T09:09:06Z</time>
      </trkpt>
      <trkpt lat="43.59154" lon="3.08751">
        <ele>198.531424</ele>
        <time>2025-10-23T09:09:07Z</time>
      </trkpt>
      <trkpt lat="43.59156" lon="3.08749">
        <ele>198.720355</ele>
        <time>2025-10-23T09:09:08Z</time>
      </trkpt>
      <trkpt lat="43.59158" lon="3.08748">
        <ele>198.920583</ele>
        <time>2025-10-23T09:09:09Z</time>
      </trkpt>
      <trkpt lat="43.59159" lon="3.08747">
        <ele>199.109514</ele>
        <time>2025-10-23T09:09:10Z</time>
      </trkpt>
      <trkpt lat="43.59161" lon="3.08746">
        <ele>199.274229</ele>
        <time>2025-10-23T09:09:11Z</time>
      </trkpt>
      <trkpt lat="43.59163" lon="3.08745">
        <ele>199.452279</ele>
        <time>2025-10-23T09:09:12Z</time>
      </trkpt>
      <trkpt lat="43.59165" lon="3.08745">
        <ele>199.619825</ele>
        <time>2025-10-23T09:09:13Z</time>
      </trkpt>
      <trkpt lat="43.59167" lon="3.08744">
        <ele>199.820053</ele>
        <time>2025-10-23T09:09:14Z</time>
      </trkpt>
      <trkpt lat="43.59169" lon="3.08742">
        <ele>200.036941</ele>
        <time>2025-10-23T09:09:15Z</time>
      </trkpt>
      <trkpt lat="43.59171" lon="3.08741">
        <ele>200.239552</ele>
        <time>2025-10-23T09:09:16Z</time>
      </trkpt>
      <trkpt lat="43.59173" lon="3.08741">
        <ele>200.418305</ele>
        <time>2025-10-23T09:09:17Z</time>
      </trkpt>
      <trkpt lat="43.59174" lon="3.08741">
        <ele>200.587871</ele>
        <time>2025-10-23T09:09:18Z</time>
      </trkpt>
      <trkpt lat="43.59176" lon="3.0874">
        <ele>200.765734</ele>
        <time>2025-10-23T09:09:19Z</time>
      </trkpt>
      <trkpt lat="43.59178" lon="3.0874">
        <ele>200.933686</ele>
        <time>2025-10-23T09:09:20Z</time>
      </trkpt>
      <trkpt lat="43.5918" lon="3.0874">
        <ele>201.147599</ele>
        <time>2025-10-23T09:09:21Z</time>
      </trkpt>
      <trkpt lat="43.59183" lon="3.0874">
        <ele>201.380991</ele>
        <time>2025-10-23T09:09:22Z</time>
      </trkpt>
      <trkpt lat="43.59185" lon="3.0874">
        <ele>201.585604</ele>
        <time>2025-10-23T09:09:23Z</time>
      </trkpt>
      <trkpt lat="43.59188" lon="3.0874">
        <ele>201.827513</ele>
        <time>2025-10-23T09:09:24Z</time>
      </trkpt>
      <trkpt lat="43.5919" lon="3.08741">
        <ele>202.043117</ele>
        <time>2025-10-23T09:09:25Z</time>
      </trkpt>
      <trkpt lat="43.59192" lon="3.08741">
        <ele>202.258721</ele>
        <time>2025-10-23T09:09:26Z</time>
      </trkpt>
      <trkpt lat="43.59195" lon="3.08742">
        <ele>202.503891</ele>
        <time>2025-10-23T09:09:27Z</time>
      </trkpt>
      <trkpt lat="43.59197" lon="3.08742">
        <ele>202.737282</ele>
        <time>2025-10-23T09:09:28Z</time>
      </trkpt>
      <trkpt lat="43.592" lon="3.08743">
        <ele>203.004663</ele>
        <time>2025-10-23T09:09:29Z</time>
      </trkpt>
      <trkpt lat="43.59203" lon="3.08744">
        <ele>203.253962</ele>
        <time>2025-10-23T09:09:30Z</time>
      </trkpt>
      <trkpt lat="43.59205" lon="3.08745">
        <ele>203.501709</ele>
        <time>2025-10-23T09:09:31Z</time>
      </trkpt>
      <trkpt lat="43.59208" lon="3.08745">
        <ele>203.736651</ele>
        <time>2025-10-23T09:09:32Z</time>
      </trkpt>
      <trkpt lat="43.59211" lon="3.08745">
        <ele>203.987858</ele>
        <time>2025-10-23T09:09:33Z</time>
      </trkpt>
      <trkpt lat="43.59213" lon="3.08744">
        <ele>204.235605</ele>
        <time>2025-10-23T09:09:34Z</time>
      </trkpt>
      <trkpt lat="43.59215" lon="3.08744">
        <ele>204.441984</ele>
        <time>2025-10-23T09:09:35Z</time>
      </trkpt>
      <trkpt lat="43.59218" lon="3.08744">
        <ele>204.648364</ele>
        <time>2025-10-23T09:09:36Z</time>
      </trkpt>
      <trkpt lat="43.5922" lon="3.08743">
        <ele>204.837401</ele>
        <time>2025-10-23T09:09:37Z</time>
      </trkpt>
      <trkpt lat="43.59222" lon="3.08742">
        <ele>205.040011</ele>
        <time>2025-10-23T09:09:38Z</time>
      </trkpt>
      <trkpt lat="43.59224" lon="3.08742">
        <ele>205.229047</ele>
        <time>2025-10-23T09:09:39Z</time>
      </trkpt>
      <trkpt lat="43.59226" lon="3.08741">
        <ele>205.425403</ele>
        <time>2025-10-23T09:09:40Z</time>
      </trkpt>
      <trkpt lat="43.59228" lon="3.08741">
        <ele>205.631011</ele>
        <time>2025-10-23T09:09:41Z</time>
      </trkpt>
      <trkpt lat="43.5923" lon="3.08741">
        <ele>205.828174</ele>
        <time>2025-10-23T09:09:42Z</time>
      </trkpt>
      <trkpt lat="43.59233" lon="3.0874">
        <ele>206.053008</ele>
        <time>2025-10-23T09:09:43Z</time>
      </trkpt>
      <trkpt lat="43.59235" lon="3.08741">
        <ele>206.277843</ele>
        <time>2025-10-23T09:09:44Z</time>
      </trkpt>
      <trkpt lat="43.59237" lon="3.08741">
        <ele>206.50197</ele>
        <time>2025-10-23T09:09:45Z</time>
      </trkpt>
      <trkpt lat="43.5924" lon="3.08742">
        <ele>206.751269</ele>
        <time>2025-10-23T09:09:46Z</time>
      </trkpt>
      <trkpt lat="43.59242" lon="3.08743">
        <ele>206.984426</ele>
        <time>2025-10-23T09:09:47Z</time>
      </trkpt>
      <trkpt lat="43.59244" lon="3.08745">
        <ele>207.2141</ele>
        <time>2025-10-23T09:09:48Z</time>
      </trkpt>
      <trkpt lat="43.59246" lon="3.08747">
        <ele>207.427639</ele>
        <time>2025-10-23T09:09:49Z</time>
      </trkpt>
      <trkpt lat="43.59247" lon="3.0875">
        <ele>207.637933</ele>
        <time>2025-10-23T09:09:50Z</time>
      </trkpt>
      <trkpt lat="43.59248" lon="3.08753">
        <ele>207.840689</ele>
        <time>2025-10-23T09:09:51Z</time>
      </trkpt>
      <trkpt lat="43.59248" lon="3.08755">
        <ele>208.024795</ele>
        <time>2025-10-23T09:09:52Z</time>
      </trkpt>
      <trkpt lat="43.59249" lon="3.08758">
        <ele>208.23509</ele>
        <time>2025-10-23T09:09:53Z</time>
      </trkpt>
      <trkpt lat="43.5925" lon="3.08761">
        <ele>208.435302</ele>
        <time>2025-10-23T09:09:54Z</time>
      </trkpt>
      <trkpt lat="43.59252" lon="3.08763">
        <ele>208.63175</ele>
        <time>2025-10-23T09:09:55Z</time>
      </trkpt>
      <trkpt lat="43.59253" lon="3.08766">
        <ele>208.833627</ele>
        <time>2025-10-23T09:09:56Z</time>
      </trkpt>
      <trkpt lat="43.59254" lon="3.08768">
        <ele>209.041303</ele>
        <time>2025-10-23T09:09:57Z</time>
      </trkpt>
      <trkpt lat="43.59255" lon="3.08771">
        <ele>209.237828</ele>
        <time>2025-10-23T09:09:58Z</time>
      </trkpt>
      <trkpt lat="43.59257" lon="3.08773">
        <ele>209.423916</ele>
        <time>2025-10-23T09:09:59Z</time>
      </trkpt>
      <trkpt lat="43.59258" lon="3.08775">
        <ele>209.625793</ele>
        <time>2025-10-23T09:10:00Z</time>
      </trkpt>
      <trkpt lat="43.5926" lon="3.08777">
        <ele>209.82207</ele>
        <time>2025-10-23T09:10:01Z</time>
      </trkpt>
      <trkpt lat="43.59261" lon="3.08779">
        <ele>210.002558</ele>
        <time>2025-10-23T09:10:02Z</time>
      </trkpt>
      <trkpt lat="43.59263" lon="3.0878">
        <ele>210.183298</ele>
        <time>2025-10-23T09:10:03Z</time>
      </trkpt>
      <trkpt lat="43.59264" lon="3.08781">
        <ele>210.360873</ele>
        <time>2025-10-23T09:10:04Z</time>
      </trkpt>
      <trkpt lat="43.59266" lon="3.08782">
        <ele>210.55249</ele>
        <time>2025-10-23T09:10:05Z</time>
      </trkpt>
      <trkpt lat="43.59268" lon="3.08783">
        <ele>210.727102</ele>
        <time>2025-10-23T09:10:06Z</time>
      </trkpt>
      <trkpt lat="43.5927" lon="3.08785">
        <ele>210.913005</ele>
        <time>2025-10-23T09:10:07Z</time>
      </trkpt>
      <trkpt lat="43.59272" lon="3.08786">
        <ele>211.10212</ele>
        <time>2025-10-23T09:10:08Z</time>
      </trkpt>
      <trkpt lat="43.59274" lon="3.08786">
        <ele>211.292472</ele>
        <time>2025-10-23T09:10:09Z</time>
      </trkpt>
      <trkpt lat="43.59276" lon="3.08787">
        <ele>211.479579</ele>
        <time>2025-10-23T09:10:10Z</time>
      </trkpt>
      <trkpt lat="43.59278" lon="3.08787">
        <ele>211.660853</ele>
        <time>2025-10-23T09:10:11Z</time>
      </trkpt>
      <trkpt lat="43.59279" lon="3.08788">
        <ele>211.824047</ele>
        <time>2025-10-23T09:10:12Z</time>
      </trkpt>
      <trkpt lat="43.59281" lon="3.08788">
        <ele>212.003939</ele>
        <time>2025-10-23T09:10:13Z</time>
      </trkpt>
      <trkpt lat="43.59283" lon="3.08788">
        <ele>212.153357</ele>
        <time>2025-10-23T09:10:14Z</time>
      </trkpt>
      <trkpt lat="43.59285" lon="3.08789">
        <ele>212.330581</ele>
        <time>2025-10-23T09:10:15Z</time>
      </trkpt>
      <trkpt lat="43.59287" lon="3.08789">
        <ele>212.555416</ele>
        <time>2025-10-23T09:10:16Z</time>
      </trkpt>
      <trkpt lat="43.5929" lon="3.0879">
        <ele>212.783556</ele>
        <time>2025-10-23T09:10:17Z</time>
      </trkpt>
      <trkpt lat="43.59292" lon="3.0879">
        <ele>213.007683</ele>
        <time>2025-10-23T09:10:18Z</time>
      </trkpt>
      <trkpt lat="43.59294" lon="3.0879">
        <ele>213.221597</ele>
        <time>2025-10-23T09:10:19Z</time>
      </trkpt>
      <trkpt lat="43.59297" lon="3.0879">
        <ele>213.435617</ele>
        <time>2025-10-23T09:10:20Z</time>
      </trkpt>
      <trkpt lat="43.59299" lon="3.08791">
        <ele>213.633812</ele>
        <time>2025-10-23T09:10:21Z</time>
      </trkpt>
      <trkpt lat="43.59301" lon="3.08791">
        <ele>213.838868</ele>
        <time>2025-10-23T09:10:22Z</time>
      </trkpt>
      <trkpt lat="43.59303" lon="3.08791">
        <ele>214.034181</ele>
        <time>2025-10-23T09:10:23Z</time>
      </trkpt>
      <trkpt lat="43.59305" lon="3.08791">
        <ele>214.21102</ele>
        <time>2025-10-23T09:10:24Z</time>
      </trkpt>
      <trkpt lat="43.59307" lon="3.08791">
        <ele>214.313991</ele>
        <time>2025-10-23T09:10:25Z</time>
      </trkpt>
      <trkpt lat="43.59308" lon="3.08791">
        <ele>214.400309</ele>
        <time>2025-10-23T09:10:26Z</time>
      </trkpt>
      <trkpt lat="43.5931" lon="3.08791">
        <ele>214.500481</ele>
        <time>2025-10-23T09:10:27Z</time>
      </trkpt>
      <trkpt lat="43.59313" lon="3.08791">
        <ele>214.616513</ele>
        <time>2025-10-23T09:10:28Z</time>
      </trkpt>
      <trkpt lat="43.59315" lon="3.08791">
        <ele>214.72663</ele>
        <time>2025-10-23T09:10:29Z</time>
      </trkpt>
      <trkpt lat="43.59317" lon="3.08791">
        <ele>214.838229</ele>
        <time>2025-10-23T09:10:30Z</time>
      </trkpt>
      <trkpt lat="43.5932" lon="3.08791">
        <ele>214.958357</ele>
        <time>2025-10-23T09:10:31Z</time>
      </trkpt>
      <trkpt lat="43.59322" lon="3.08791">
        <ele>215.068534</ele>
        <time>2025-10-23T09:10:32Z</time>
      </trkpt>
      <trkpt lat="43.59324" lon="3.08791">
        <ele>215.178711</ele>
        <time>2025-10-23T09:10:33Z</time>
      </trkpt>
      <trkpt lat="43.59326" lon="3.08791">
        <ele>215.263801</ele>
        <time>2025-10-23T09:10:34Z</time>
      </trkpt>
      <trkpt lat="43.59328" lon="3.08791">
        <ele>215.369163</ele>
        <time>2025-10-23T09:10:35Z</time>
      </trkpt>
      <trkpt lat="43.5933" lon="3.0879">
        <ele>215.506379</ele>
        <time>2025-10-23T09:10:36Z</time>
      </trkpt>
      <trkpt lat="43.59333" lon="3.08788">
        <ele>215.636788</ele>
        <time>2025-10-23T09:10:37Z</time>
      </trkpt>
      <trkpt lat="43.59335" lon="3.08787">
        <ele>215.769267</ele>
        <time>2025-10-23T09:10:38Z</time>
      </trkpt>
      <trkpt lat="43.59337" lon="3.08787">
        <ele>215.871001</ele>
        <time>2025-10-23T09:10:39Z</time>
      </trkpt>
      <trkpt lat="43.59339" lon="3.08786">
        <ele>215.98585</ele>
        <time>2025-10-23T09:10:40Z</time>
      </trkpt>
      <trkpt lat="43.59341" lon="3.08785">
        <ele>216.093606</ele>
        <time>2025-10-23T09:10:41Z</time>
      </trkpt>
      <trkpt lat="43.59343" lon="3.08783">
        <ele>216.201402</ele>
        <time>2025-10-23T09:10:42Z</time>
      </trkpt>
      <trkpt lat="43.59345" lon="3.08782">
        <ele>216.312796</ele>
        <time>2025-10-23T09:10:43Z</time>
      </trkpt>
      <trkpt lat="43.59347" lon="3.0878">
        <ele>216.408361</ele>
        <time>2025-10-23T09:10:44Z</time>
      </trkpt>
      <trkpt lat="43.59349" lon="3.08779">
        <ele>216.514498</ele>
        <time>2025-10-23T09:10:45Z</time>
      </trkpt>
      <trkpt lat="43.59351" lon="3.08778">
        <ele>216.619077</ele>
        <time>2025-10-23T09:10:46Z</time>
      </trkpt>
      <trkpt lat="43.59353" lon="3.08777">
        <ele>216.726833</ele>
        <time>2025-10-23T09:10:47Z</time>
      </trkpt>
      <trkpt lat="43.59355" lon="3.08776">
        <ele>216.834589</ele>
        <time>2025-10-23T09:10:48Z</time>
      </trkpt>
      <trkpt lat="43.59357" lon="3.08775">
        <ele>216.944648</ele>
        <time>2025-10-23T09:10:49Z</time>
      </trkpt>
      <trkpt lat="43.59359" lon="3.08774">
        <ele>217.043077</ele>
        <time>2025-10-23T09:10:50Z</time>
      </trkpt>
      <trkpt lat="43.59361" lon="3.08773">
        <ele>217.149545</ele>
        <time>2025-10-23T09:10:51Z</time>
      </trkpt>
      <trkpt lat="43.59363" lon="3.08772">
        <ele>217.245366</ele>
        <time>2025-10-23T09:10:52Z</time>
      </trkpt>
      <trkpt lat="43.59364" lon="3.08771">
        <ele>217.349944</ele>
        <time>2025-10-23T09:10:53Z</time>
      </trkpt>
      <trkpt lat="43.59366" lon="3.0877">
        <ele>217.45172</ele>
        <time>2025-10-23T09:10:54Z</time>
      </trkpt>
      <trkpt lat="43.59368" lon="3.08769">
        <ele>217.559516</ele>
        <time>2025-10-23T09:10:55Z</time>
      </trkpt>
      <trkpt lat="43.5937" lon="3.08767">
        <ele>217.667312</ele>
        <time>2025-10-23T09:10:56Z</time>
      </trkpt>
      <trkpt lat="43.59372" lon="3.08766">
        <ele>217.77189</ele>
        <time>2025-10-23T09:10:57Z</time>
      </trkpt>
      <trkpt lat="43.59374" lon="3.08765">
        <ele>217.878358</ele>
        <time>2025-10-23T09:10:58Z</time>
      </trkpt>
      <trkpt lat="43.59376" lon="3.08764">
        <ele>217.99223</ele>
        <time>2025-10-23T09:10:59Z</time>
      </trkpt>
      <trkpt lat="43.59378" lon="3.08763">
        <ele>218.106102</ele>
        <time>2025-10-23T09:11:00Z</time>
      </trkpt>
      <trkpt lat="43.5938" lon="3.08762">
        <ele>218.215252</ele>
        <time>2025-10-23T09:11:01Z</time>
      </trkpt>
      <trkpt lat="43.59382" lon="3.08761">
        <ele>218.318659</ele>
        <time>2025-10-23T09:11:02Z</time>
      </trkpt>
      <trkpt lat="43.59384" lon="3.08759">
        <ele>218.407356</ele>
        <time>2025-10-23T09:11:03Z</time>
      </trkpt>
      <trkpt lat="43.59386" lon="3.08758">
        <ele>218.521277</ele>
        <time>2025-10-23T09:11:04Z</time>
      </trkpt>
      <trkpt lat="43.59388" lon="3.08756">
        <ele>218.63267</ele>
        <time>2025-10-23T09:11:05Z</time>
      </trkpt>
      <trkpt lat="43.5939" lon="3.08755">
        <ele>218.747863</ele>
        <time>2025-10-23T09:11:06Z</time>
      </trkpt>
      <trkpt lat="43.59392" lon="3.08754">
        <ele>218.858508</ele>
        <time>2025-10-23T09:11:07Z</time>
      </trkpt>
      <trkpt lat="43.59394" lon="3.08752">
        <ele>218.976906</ele>
        <time>2025-10-23T09:11:08Z</time>
      </trkpt>
      <trkpt lat="43.59396" lon="3.08751">
        <ele>219.096958</ele>
        <time>2025-10-23T09:11:09Z</time>
      </trkpt>
      <trkpt lat="43.59398" lon="3.0875">
        <ele>219.200081</ele>
        <time>2025-10-23T09:11:10Z</time>
      </trkpt>
      <trkpt lat="43.594" lon="3.08749">
        <ele>219.306549</ele>
        <time>2025-10-23T09:11:11Z</time>
      </trkpt>
      <trkpt lat="43.59402" lon="3.08748">
        <ele>219.405075</ele>
        <time>2025-10-23T09:11:12Z</time>
      </trkpt>
      <trkpt lat="43.59403" lon="3.08747">
        <ele>219.497566</ele>
        <time>2025-10-23T09:11:13Z</time>
      </trkpt>
      <trkpt lat="43.59405" lon="3.08746">
        <ele>219.586359</ele>
        <time>2025-10-23T09:11:14Z</time>
      </trkpt>
      <trkpt lat="43.59407" lon="3.08745">
        <ele>219.686901</ele>
        <time>2025-10-23T09:11:15Z</time>
      </trkpt>
      <trkpt lat="43.59409" lon="3.08744">
        <ele>219.787443</ele>
        <time>2025-10-23T09:11:16Z</time>
      </trkpt>
      <trkpt lat="43.59411" lon="3.08743">
        <ele>219.885969</ele>
        <time>2025-10-23T09:11:17Z</time>
      </trkpt>
      <trkpt lat="43.59413" lon="3.08742">
        <ele>219.992437</ele>
        <time>2025-10-23T09:11:18Z</time>
      </trkpt>
      <trkpt lat="43.59415" lon="3.08741">
        <ele>220.109552</ele>
        <time>2025-10-23T09:11:19Z</time>
      </trkpt>
      <trkpt lat="43.59417" lon="3.0874">
        <ele>220.230801</ele>
        <time>2025-10-23T09:11:20Z</time>
      </trkpt>
      <trkpt lat="43.59419" lon="3.08738">
        <ele>220.347524</ele>
        <time>2025-10-23T09:11:21Z</time>
      </trkpt>
      <trkpt lat="43.59421" lon="3.08736">
        <ele>220.465079</ele>
        <time>2025-10-23T09:11:22Z</time>
      </trkpt>
      <trkpt lat="43.59423" lon="3.08735">
        <ele>220.583422</ele>
        <time>2025-10-23T09:11:23Z</time>
      </trkpt>
      <trkpt lat="43.59426" lon="3.08733">
        <ele>220.715284</ele>
        <time>2025-10-23T09:11:24Z</time>
      </trkpt>
      <trkpt lat="43.59428" lon="3.08732">
        <ele>220.835979</ele>
        <time>2025-10-23T09:11:25Z</time>
      </trkpt>
      <trkpt lat="43.5943" lon="3.08732">
        <ele>220.954698</ele>
        <time>2025-10-23T09:11:26Z</time>
      </trkpt>
      <trkpt lat="43.59432" lon="3.08731">
        <ele>221.065351</ele>
        <time>2025-10-23T09:11:27Z</time>
      </trkpt>
      <trkpt lat="43.59435" lon="3.08731">
        <ele>221.183237</ele>
        <time>2025-10-23T09:11:28Z</time>
      </trkpt>
      <trkpt lat="43.59437" lon="3.0873">
        <ele>221.300352</ele>
        <time>2025-10-23T09:11:29Z</time>
      </trkpt>
      <trkpt lat="43.59439" lon="3.08729">
        <ele>221.406819</ele>
        <time>2025-10-23T09:11:30Z</time>
      </trkpt>
      <trkpt lat="43.59442" lon="3.08727">
        <ele>221.558352</ele>
        <time>2025-10-23T09:11:31Z</time>
      </trkpt>
      <trkpt lat="43.59444" lon="3.08726">
        <ele>221.686114</ele>
        <time>2025-10-23T09:11:32Z</time>
      </trkpt>
      <trkpt lat="43.59447" lon="3.08725">
        <ele>221.817975</ele>
        <time>2025-10-23T09:11:33Z</time>
      </trkpt>
      <trkpt lat="43.59449" lon="3.08723">
        <ele>221.959017</ele>
        <time>2025-10-23T09:11:34Z</time>
      </trkpt>
      <trkpt lat="43.59452" lon="3.08722">
        <ele>222.106877</ele>
        <time>2025-10-23T09:11:35Z</time>
      </trkpt>
      <trkpt lat="43.59455" lon="3.0872">
        <ele>222.246561</ele>
        <time>2025-10-23T09:11:36Z</time>
      </trkpt>
      <trkpt lat="43.59457" lon="3.08719">
        <ele>222.395092</ele>
        <time>2025-10-23T09:11:37Z</time>
      </trkpt>
      <trkpt lat="43.5946" lon="3.08717">
        <ele>222.546769</ele>
        <time>2025-10-23T09:11:38Z</time>
      </trkpt>
      <trkpt lat="43.59463" lon="3.08715">
        <ele>222.702928</ele>
        <time>2025-10-23T09:11:39Z</time>
      </trkpt>
      <trkpt lat="43.59465" lon="3.08714">
        <ele>222.842413</ele>
        <time>2025-10-23T09:11:40Z</time>
      </trkpt>
      <trkpt lat="43.59468" lon="3.08712">
        <ele>223.000107</ele>
        <time>2025-10-23T09:11:41Z</time>
      </trkpt>
      <trkpt lat="43.59471" lon="3.0871">
        <ele>223.149078</ele>
        <time>2025-10-23T09:11:42Z</time>
      </trkpt>
      <trkpt lat="43.59473" lon="3.08708">
        <ele>223.355471</ele>
        <time>2025-10-23T09:11:43Z</time>
      </trkpt>
      <trkpt lat="43.59476" lon="3.08705">
        <ele>223.630457</ele>
        <time>2025-10-23T09:11:44Z</time>
      </trkpt>
      <trkpt lat="43.59478" lon="3.08703">
        <ele>223.913665</ele>
        <time>2025-10-23T09:11:45Z</time>
      </trkpt>
      <trkpt lat="43.59481" lon="3.08701">
        <ele>224.200579</ele>
        <time>2025-10-23T09:11:46Z</time>
      </trkpt>
      <trkpt lat="43.59483" lon="3.08699">
        <ele>224.4957</ele>
        <time>2025-10-23T09:11:47Z</time>
      </trkpt>
      <trkpt lat="43.59486" lon="3.08697">
        <ele>224.765402</ele>
        <time>2025-10-23T09:11:48Z</time>
      </trkpt>
      <trkpt lat="43.59488" lon="3.08696">
        <ele>225.026457</ele>
        <time>2025-10-23T09:11:49Z</time>
      </trkpt>
      <trkpt lat="43.5949" lon="3.08694">
        <ele>225.265673</ele>
        <time>2025-10-23T09:11:50Z</time>
      </trkpt>
      <trkpt lat="43.59492" lon="3.08692">
        <ele>225.492717</ele>
        <time>2025-10-23T09:11:51Z</time>
      </trkpt>
      <trkpt lat="43.59494" lon="3.0869">
        <ele>225.739614</ele>
        <time>2025-10-23T09:11:52Z</time>
      </trkpt>
      <trkpt lat="43.59496" lon="3.08688">
        <ele>225.962619</ele>
        <time>2025-10-23T09:11:53Z</time>
      </trkpt>
      <trkpt lat="43.59498" lon="3.08687">
        <ele>226.179634</ele>
        <time>2025-10-23T09:11:54Z</time>
      </trkpt>
      <trkpt lat="43.595" lon="3.08685">
        <ele>226.402365</ele>
        <time>2025-10-23T09:11:55Z</time>
      </trkpt>
      <trkpt lat="43.59502" lon="3.08684">
        <ele>226.628055</ele>
        <time>2025-10-23T09:11:56Z</time>
      </trkpt>
      <trkpt lat="43.59505" lon="3.08683">
        <ele>226.848012</ele>
        <time>2025-10-23T09:11:57Z</time>
      </trkpt>
      <trkpt lat="43.59507" lon="3.08681">
        <ele>227.085473</ele>
        <time>2025-10-23T09:11:58Z</time>
      </trkpt>
      <trkpt lat="43.59509" lon="3.0868">
        <ele>227.300857</ele>
        <time>2025-10-23T09:11:59Z</time>
      </trkpt>
      <trkpt lat="43.59511" lon="3.08678">
        <ele>227.524561</ele>
        <time>2025-10-23T09:12:00Z</time>
      </trkpt>
      <trkpt lat="43.59512" lon="3.08677">
        <ele>227.721158</ele>
        <time>2025-10-23T09:12:01Z</time>
      </trkpt>
      <trkpt lat="43.59514" lon="3.08675">
        <ele>227.912726</ele>
        <time>2025-10-23T09:12:02Z</time>
      </trkpt>
      <trkpt lat="43.59516" lon="3.08674">
        <ele>228.107978</ele>
        <time>2025-10-23T09:12:03Z</time>
      </trkpt>
      <trkpt lat="43.59518" lon="3.08673">
        <ele>228.32501</ele>
        <time>2025-10-23T09:12:04Z</time>
      </trkpt>
      <trkpt lat="43.5952" lon="3.08673">
        <ele>228.523088</ele>
        <time>2025-10-23T09:12:05Z</time>
      </trkpt>
      <trkpt lat="43.59522" lon="3.08672">
        <ele>228.75445</ele>
        <time>2025-10-23T09:12:06Z</time>
      </trkpt>
      <trkpt lat="43.59524" lon="3.08671">
        <ele>228.965284</ele>
        <time>2025-10-23T09:12:07Z</time>
      </trkpt>
      <trkpt lat="43.59527" lon="3.0867">
        <ele>229.188015</ele>
        <time>2025-10-23T09:12:08Z</time>
      </trkpt>
      <trkpt lat="43.59528" lon="3.08669">
        <ele>229.380258</ele>
        <time>2025-10-23T09:12:09Z</time>
      </trkpt>
      <trkpt lat="43.5953" lon="3.08669">
        <ele>229.565341</ele>
        <time>2025-10-23T09:12:10Z</time>
      </trkpt>
      <trkpt lat="43.59532" lon="3.08669">
        <ele>229.73224</ele>
        <time>2025-10-23T09:12:11Z</time>
      </trkpt>
      <trkpt lat="43.59534" lon="3.08669">
        <ele>229.90771</ele>
        <time>2025-10-23T09:12:12Z</time>
      </trkpt>
      <trkpt lat="43.59536" lon="3.08669">
        <ele>230.093719</ele>
        <time>2025-10-23T09:12:13Z</time>
      </trkpt>
      <trkpt lat="43.59537" lon="3.08669">
        <ele>230.258396</ele>
        <time>2025-10-23T09:12:14Z</time>
      </trkpt>
      <trkpt lat="43.59539" lon="3.08669">
        <ele>230.413879</ele>
        <time>2025-10-23T09:12:15Z</time>
      </trkpt>
      <trkpt lat="43.59541" lon="3.08669">
        <ele>230.60858</ele>
        <time>2025-10-23T09:12:16Z</time>
      </trkpt>
      <trkpt lat="43.59543" lon="3.0867">
        <ele>230.792997</ele>
        <time>2025-10-23T09:12:17Z</time>
      </trkpt>
      <trkpt lat="43.59545" lon="3.0867">
        <ele>230.970693</ele>
        <time>2025-10-23T09:12:18Z</time>
      </trkpt>
      <trkpt lat="43.59547" lon="3.0867">
        <ele>231.155776</ele>
        <time>2025-10-23T09:12:19Z</time>
      </trkpt>
      <trkpt lat="43.59548" lon="3.08671">
        <ele>231.331246</ele>
        <time>2025-10-23T09:12:20Z</time>
      </trkpt>
      <trkpt lat="43.5955" lon="3.08671">
        <ele>231.49637</ele>
        <time>2025-10-23T09:12:21Z</time>
      </trkpt>
      <trkpt lat="43.59552" lon="3.0867">
        <ele>231.683564</ele>
        <time>2025-10-23T09:12:22Z</time>
      </trkpt>
      <trkpt lat="43.59554" lon="3.08669">
        <ele>231.857384</ele>
        <time>2025-10-23T09:12:23Z</time>
      </trkpt>
      <trkpt lat="43.59556" lon="3.08669">
        <ele>232.044578</ele>
        <time>2025-10-23T09:12:24Z</time>
      </trkpt>
      <trkpt lat="43.59557" lon="3.08668">
        <ele>232.221025</ele>
        <time>2025-10-23T09:12:25Z</time>
      </trkpt>
      <trkpt lat="43.5956" lon="3.08668">
        <ele>232.424265</ele>
        <time>2025-10-23T09:12:26Z</time>
      </trkpt>
      <trkpt lat="43.59561" lon="3.08669">
        <ele>232.586702</ele>
        <time>2025-10-23T09:12:27Z</time>
      </trkpt>
      <trkpt lat="43.59563" lon="3.0867">
        <ele>232.76292</ele>
        <time>2025-10-23T09:12:28Z</time>
      </trkpt>
      <trkpt lat="43.59564" lon="3.08671">
        <ele>232.91048</ele>
        <time>2025-10-23T09:12:29Z</time>
      </trkpt>
      <trkpt lat="43.59566" lon="3.08672">
        <ele>233.072917</ele>
        <time>2025-10-23T09:12:30Z</time>
      </trkpt>
      <trkpt lat="43.59567" lon="3.08672">
        <ele>233.220771</ele>
        <time>2025-10-23T09:12:31Z</time>
      </trkpt>
      <trkpt lat="43.59568" lon="3.08673">
        <ele>233.328149</ele>
        <time>2025-10-23T09:12:32Z</time>
      </trkpt>
      <trkpt lat="43.5957" lon="3.08673">
        <ele>233.454159</ele>
        <time>2025-10-23T09:12:33Z</time>
      </trkpt>
      <trkpt lat="43.59571" lon="3.08673">
        <ele>233.590376</ele>
        <time>2025-10-23T09:12:34Z</time>
      </trkpt>
      <trkpt lat="43.59572" lon="3.08674">
        <ele>233.743614</ele>
        <time>2025-10-23T09:12:35Z</time>
      </trkpt>
      <trkpt lat="43.59574" lon="3.08674">
        <ele>233.911833</ele>
        <time>2025-10-23T09:12:36Z</time>
      </trkpt>
      <trkpt lat="43.59576" lon="3.08675">
        <ele>234.08165</ele>
        <time>2025-10-23T09:12:37Z</time>
      </trkpt>
      <trkpt lat="43.59577" lon="3.08675">
        <ele>234.221603</ele>
        <time>2025-10-23T09:12:38Z</time>
      </trkpt>
      <trkpt lat="43.59578" lon="3.08676">
        <ele>234.341076</ele>
        <time>2025-10-23T09:12:39Z</time>
      </trkpt>
      <trkpt lat="43.5958" lon="3.08677">
        <ele>234.484471</ele>
        <time>2025-10-23T09:12:40Z</time>
      </trkpt>
      <trkpt lat="43.59581" lon="3.08678">
        <ele>234.622216</ele>
        <time>2025-10-23T09:12:41Z</time>
      </trkpt>
      <trkpt lat="43.59582" lon="3.08678">
        <ele>234.766319</ele>
        <time>2025-10-23T09:12:42Z</time>
      </trkpt>
      <trkpt lat="43.59584" lon="3.08679">
        <ele>234.919558</ele>
        <time>2025-10-23T09:12:43Z</time>
      </trkpt>
      <trkpt lat="43.59586" lon="3.0868">
        <ele>235.093378</ele>
        <time>2025-10-23T09:12:44Z</time>
      </trkpt>
      <trkpt lat="43.59587" lon="3.08681">
        <ele>235.242836</ele>
        <time>2025-10-23T09:12:45Z</time>
      </trkpt>
      <trkpt lat="43.59588" lon="3.08682">
        <ele>235.398461</ele>
        <time>2025-10-23T09:12:46Z</time>
      </trkpt>
      <trkpt lat="43.5959" lon="3.08682">
        <ele>235.545098</ele>
        <time>2025-10-23T09:12:47Z</time>
      </trkpt>
      <trkpt lat="43.59592" lon="3.08684">
        <ele>235.736666</ele>
        <time>2025-10-23T09:12:48Z</time>
      </trkpt>
      <trkpt lat="43.59593" lon="3.08685">
        <ele>235.901042</ele>
        <time>2025-10-23T09:12:49Z</time>
      </trkpt>
      <trkpt lat="43.59594" lon="3.08686">
        <ele>236.053591</ele>
        <time>2025-10-23T09:12:50Z</time>
      </trkpt>
      <trkpt lat="43.59596" lon="3.08686">
        <ele>236.221809</ele>
        <time>2025-10-23T09:12:51Z</time>
      </trkpt>
      <trkpt lat="43.59597" lon="3.08687">
        <ele>236.333661</ele>
        <time>2025-10-23T09:12:52Z</time>
      </trkpt>
      <trkpt lat="43.59598" lon="3.08688">
        <ele>236.457177</ele>
        <time>2025-10-23T09:12:53Z</time>
      </trkpt>
      <trkpt lat="43.596" lon="3.08688">
        <ele>236.614545</ele>
        <time>2025-10-23T09:12:54Z</time>
      </trkpt>
      <trkpt lat="43.59602" lon="3.08689">
        <ele>236.786232</ele>
        <time>2025-10-23T09:12:55Z</time>
      </trkpt>
      <trkpt lat="43.59603" lon="3.0869">
        <ele>236.950607</ele>
        <time>2025-10-23T09:12:56Z</time>
      </trkpt>
      <trkpt lat="43.59605" lon="3.08691">
        <ele>237.138681</ele>
        <time>2025-10-23T09:12:57Z</time>
      </trkpt>
      <trkpt lat="43.59606" lon="3.08692">
        <ele>237.273725</ele>
        <time>2025-10-23T09:12:58Z</time>
      </trkpt>
      <trkpt lat="43.59607" lon="3.08693">
        <ele>237.408768</ele>
        <time>2025-10-23T09:12:59Z</time>
      </trkpt>
      <trkpt lat="43.59609" lon="3.08694">
        <ele>237.536229</ele>
        <time>2025-10-23T09:13:00Z</time>
      </trkpt>
      <trkpt lat="43.59609" lon="3.08695">
        <ele>237.655799</ele>
        <time>2025-10-23T09:13:01Z</time>
      </trkpt>
      <trkpt lat="43.5961" lon="3.08697">
        <ele>237.799001</ele>
        <time>2025-10-23T09:13:02Z</time>
      </trkpt>
      <trkpt lat="43.59611" lon="3.08698">
        <ele>237.9419</ele>
        <time>2025-10-23T09:13:03Z</time>
      </trkpt>
      <trkpt lat="43.59612" lon="3.087">
        <ele>238.10586</ele>
        <time>2025-10-23T09:13:04Z</time>
      </trkpt>
      <trkpt lat="43.59613" lon="3.08701">
        <ele>238.193802</ele>
        <time>2025-10-23T09:13:05Z</time>
      </trkpt>
      <trkpt lat="43.59613" lon="3.087">
        <ele>238.22367</ele>
        <time>2025-10-23T09:13:06Z</time>
      </trkpt>
      <trkpt lat="43.59613" lon="3.087">
        <ele>238.240705</ele>
        <time>2025-10-23T09:13:07Z</time>
      </trkpt>
      <trkpt lat="43.59613" lon="3.087">
        <ele>238.252654</ele>
        <time>2025-10-23T09:13:08Z</time>
      </trkpt>
      <trkpt lat="43.59614" lon="3.087">
        <ele>238.291367</ele>
        <time>2025-10-23T09:13:09Z</time>
      </trkpt>
      <trkpt lat="43.59614" lon="3.08701">
        <ele>238.33452</ele>
        <time>2025-10-23T09:13:10Z</time>
      </trkpt>
      <trkpt lat="43.59614" lon="3.08701">
        <ele>238.355107</ele>
        <time>2025-10-23T09:13:11Z</time>
      </trkpt>
      <trkpt lat="43.59614" lon="3.08701">
        <ele>238.355107</ele>
        <time>2025-10-23T09:13:12Z</time>
      </trkpt>
      <trkpt lat="43.59614" lon="3.08701">
        <ele>238.355107</ele>
        <time>2025-10-23T09:13:13Z</time>
      </trkpt>
      <trkpt lat="43.59614" lon="3.08701">
        <ele>238.367056</ele>
        <time>2025-10-23T09:13:14Z</time>
      </trkpt>
      <trkpt lat="43.59614" lon="3.08701">
        <ele>238.381074</ele>
        <time>2025-10-23T09:13:15Z</time>
      </trkpt>
      <trkpt lat="43.59615" lon="3.08702">
        <ele>238.527712</ele>
        <time>2025-10-23T09:13:16Z</time>
      </trkpt>
      <trkpt lat="43.59616" lon="3.08703">
        <ele>238.627581</ele>
        <time>2025-10-23T09:13:17Z</time>
      </trkpt>
      <trkpt lat="43.59617" lon="3.08704">
        <ele>238.739383</ele>
        <time>2025-10-23T09:13:18Z</time>
      </trkpt>
      <trkpt lat="43.59618" lon="3.08705">
        <ele>238.858879</ele>
        <time>2025-10-23T09:13:19Z</time>
      </trkpt>
      <trkpt lat="43.59619" lon="3.08705">
        <ele>238.998831</ele>
        <time>2025-10-23T09:13:20Z</time>
      </trkpt>
      <trkpt lat="43.59621" lon="3.08706">
        <ele>239.139574</ele>
        <time>2025-10-23T09:13:21Z</time>
      </trkpt>
      <trkpt lat="43.59622" lon="3.08707">
        <ele>239.283596</ele>
        <time>2025-10-23T09:13:22Z</time>
      </trkpt>
      <trkpt lat="43.59623" lon="3.08708">
        <ele>239.419244</ele>
        <time>2025-10-23T09:13:23Z</time>
      </trkpt>
      <trkpt lat="43.59624" lon="3.08709">
        <ele>239.531046</ele>
        <time>2025-10-23T09:13:24Z</time>
      </trkpt>
      <trkpt lat="43.59625" lon="3.0871">
        <ele>239.642848</ele>
        <time>2025-10-23T09:13:25Z</time>
      </trkpt>
      <trkpt lat="43.59626" lon="3.08711">
        <ele>239.762343</ele>
        <time>2025-10-23T09:13:26Z</time>
      </trkpt>
      <trkpt lat="43.59627" lon="3.08712">
        <ele>239.898019</ele>
        <time>2025-10-23T09:13:27Z</time>
      </trkpt>
      <trkpt lat="43.59628" lon="3.08714">
        <ele>240.029227</ele>
        <time>2025-10-23T09:13:28Z</time>
      </trkpt>
      <trkpt lat="43.59629" lon="3.08715">
        <ele>240.154221</ele>
        <time>2025-10-23T09:13:29Z</time>
      </trkpt>
      <trkpt lat="43.59629" lon="3.08716">
        <ele>240.258659</ele>
        <time>2025-10-23T09:13:30Z</time>
      </trkpt>
      <trkpt lat="43.59631" lon="3.08717">
        <ele>240.382404</ele>
        <time>2025-10-23T09:13:31Z</time>
      </trkpt>
      <trkpt lat="43.59631" lon="3.08717">
        <ele>240.462633</ele>
        <time>2025-10-23T09:13:32Z</time>
      </trkpt>
      <trkpt lat="43.59632" lon="3.08717">
        <ele>240.53038</ele>
        <time>2025-10-23T09:13:33Z</time>
      </trkpt>
      <trkpt lat="43.59633" lon="3.08718">
        <ele>240.599562</ele>
        <time>2025-10-23T09:13:34Z</time>
      </trkpt>
      <trkpt lat="43.59634" lon="3.08718">
        <ele>240.704405</ele>
        <time>2025-10-23T09:13:35Z</time>
      </trkpt>
      <trkpt lat="43.59635" lon="3.08718">
        <ele>240.799543</ele>
        <time>2025-10-23T09:13:36Z</time>
      </trkpt>
      <trkpt lat="43.59636" lon="3.08719">
        <ele>240.914767</ele>
        <time>2025-10-23T09:13:37Z</time>
      </trkpt>
      <trkpt lat="43.59637" lon="3.0872">
        <ele>241.068964</ele>
        <time>2025-10-23T09:13:38Z</time>
      </trkpt>
      <trkpt lat="43.59638" lon="3.0872">
        <ele>241.184189</ele>
        <time>2025-10-23T09:13:39Z</time>
      </trkpt>
      <trkpt lat="43.59639" lon="3.0872">
        <ele>241.29366</ele>
        <time>2025-10-23T09:13:40Z</time>
      </trkpt>
      <trkpt lat="43.5964" lon="3.08721">
        <ele>241.421796</ele>
        <time>2025-10-23T09:13:41Z</time>
      </trkpt>
      <trkpt lat="43.59641" lon="3.08722">
        <ele>241.560066</ele>
        <time>2025-10-23T09:13:42Z</time>
      </trkpt>
      <trkpt lat="43.59643" lon="3.08722">
        <ele>241.737256</ele>
        <time>2025-10-23T09:13:43Z</time>
      </trkpt>
      <trkpt lat="43.59644" lon="3.08723">
        <ele>241.921616</ele>
        <time>2025-10-23T09:13:44Z</time>
      </trkpt>
      <trkpt lat="43.59646" lon="3.08724">
        <ele>242.099344</ele>
        <time>2025-10-23T09:13:45Z</time>
      </trkpt>
      <trkpt lat="43.59647" lon="3.08724">
        <ele>242.256013</ele>
        <time>2025-10-23T09:13:46Z</time>
      </trkpt>
      <trkpt lat="43.59649" lon="3.08725">
        <ele>242.412681</ele>
        <time>2025-10-23T09:13:47Z</time>
      </trkpt>
      <trkpt lat="43.5965" lon="3.08725">
        <ele>242.546424</ele>
        <time>2025-10-23T09:13:48Z</time>
      </trkpt>
      <trkpt lat="43.59651" lon="3.08726">
        <ele>242.687558</ele>
        <time>2025-10-23T09:13:49Z</time>
      </trkpt>
      <trkpt lat="43.59652" lon="3.08726">
        <ele>242.806991</ele>
        <time>2025-10-23T09:13:50Z</time>
      </trkpt>
      <trkpt lat="43.59653" lon="3.08726">
        <ele>242.926423</ele>
        <time>2025-10-23T09:13:51Z</time>
      </trkpt>
      <trkpt lat="43.59654" lon="3.08726">
        <ele>243.056669</ele>
        <time>2025-10-23T09:13:52Z</time>
      </trkpt>
      <trkpt lat="43.59656" lon="3.08725">
        <ele>243.232832</ele>
        <time>2025-10-23T09:13:53Z</time>
      </trkpt>
      <trkpt lat="43.59657" lon="3.08726">
        <ele>243.331593</ele>
        <time>2025-10-23T09:13:54Z</time>
      </trkpt>
      <trkpt lat="43.59658" lon="3.08726">
        <ele>243.473307</ele>
        <time>2025-10-23T09:13:55Z</time>
      </trkpt>
      <trkpt lat="43.5966" lon="3.08726">
        <ele>243.625187</ele>
        <time>2025-10-23T09:13:56Z</time>
      </trkpt>
      <trkpt lat="43.59661" lon="3.08726">
        <ele>243.755432</ele>
        <time>2025-10-23T09:13:57Z</time>
      </trkpt>
      <trkpt lat="43.59662" lon="3.08726">
        <ele>243.874864</ele>
        <time>2025-10-23T09:13:58Z</time>
      </trkpt>
      <trkpt lat="43.59663" lon="3.08726">
        <ele>244.005817</ele>
        <time>2025-10-23T09:13:59Z</time>
      </trkpt>
      <trkpt lat="43.59664" lon="3.08726">
        <ele>244.114157</ele>
        <time>2025-10-23T09:14:00Z</time>
      </trkpt>
      <trkpt lat="43.59665" lon="3.08726">
        <ele>244.249956</ele>
        <time>2025-10-23T09:14:01Z</time>
      </trkpt>
      <trkpt lat="43.59666" lon="3.08726">
        <ele>244.35858</ele>
        <time>2025-10-23T09:14:02Z</time>
      </trkpt>
      <trkpt lat="43.59667" lon="3.08726">
        <ele>244.484046</ele>
        <time>2025-10-23T09:14:03Z</time>
      </trkpt>
      <trkpt lat="43.59669" lon="3.08725">
        <ele>244.658982</ele>
        <time>2025-10-23T09:14:04Z</time>
      </trkpt>
      <trkpt lat="43.5967" lon="3.08725">
        <ele>244.780459</ele>
        <time>2025-10-23T09:14:05Z</time>
      </trkpt>
      <trkpt lat="43.59671" lon="3.08725">
        <ele>244.922173</ele>
        <time>2025-10-23T09:14:06Z</time>
      </trkpt>
      <trkpt lat="43.59673" lon="3.08725">
        <ele>245.08638</ele>
        <time>2025-10-23T09:14:07Z</time>
      </trkpt>
      <trkpt lat="43.59675" lon="3.08724">
        <ele>245.282808</ele>
        <time>2025-10-23T09:14:08Z</time>
      </trkpt>
      <trkpt lat="43.59676" lon="3.08724">
        <ele>245.469642</ele>
        <time>2025-10-23T09:14:09Z</time>
      </trkpt>
      <trkpt lat="43.59678" lon="3.08724">
        <ele>245.612438</ele>
        <time>2025-10-23T09:14:10Z</time>
      </trkpt>
      <trkpt lat="43.59679" lon="3.08723">
        <ele>245.746181</ele>
        <time>2025-10-23T09:14:11Z</time>
      </trkpt>
      <trkpt lat="43.5968" lon="3.08723">
        <ele>245.887242</ele>
        <time>2025-10-23T09:14:12Z</time>
      </trkpt>
      <trkpt lat="43.59681" lon="3.08723">
        <ele>246.019365</ele>
        <time>2025-10-23T09:14:13Z</time>
      </trkpt>
      <trkpt lat="43.59683" lon="3.08722">
        <ele>246.155164</ele>
        <time>2025-10-23T09:14:14Z</time>
      </trkpt>
      <trkpt lat="43.59684" lon="3.08722">
        <ele>246.29796</ele>
        <time>2025-10-23T09:14:15Z</time>
      </trkpt>
      <trkpt lat="43.59685" lon="3.08722">
        <ele>246.452849</ele>
        <time>2025-10-23T09:14:16Z</time>
      </trkpt>
      <trkpt lat="43.59687" lon="3.08721">
        <ele>246.583802</ele>
        <time>2025-10-23T09:14:17Z</time>
      </trkpt>
      <trkpt lat="43.59687" lon="3.08721">
        <ele>246.682563</ele>
        <time>2025-10-23T09:14:18Z</time>
      </trkpt>
      <trkpt lat="43.59689" lon="3.08721">
        <ele>246.814685</ele>
        <time>2025-10-23T09:14:19Z</time>
      </trkpt>
      <trkpt lat="43.5969" lon="3.08721">
        <ele>246.92748</ele>
        <time>2025-10-23T09:14:20Z</time>
      </trkpt>
      <trkpt lat="43.59691" lon="3.0872">
        <ele>247.070276</ele>
        <time>2025-10-23T09:14:21Z</time>
      </trkpt>
      <trkpt lat="43.59692" lon="3.0872">
        <ele>247.234483</ele>
        <time>2025-10-23T09:14:22Z</time>
      </trkpt>
      <trkpt lat="43.59694" lon="3.08719">
        <ele>247.422793</ele>
        <time>2025-10-23T09:14:23Z</time>
      </trkpt>
      <trkpt lat="43.59696" lon="3.08719">
        <ele>247.589972</ele>
        <time>2025-10-23T09:14:24Z</time>
      </trkpt>
      <trkpt lat="43.59697" lon="3.08719">
        <ele>247.755486</ele>
        <time>2025-10-23T09:14:25Z</time>
      </trkpt>
      <trkpt lat="43.59699" lon="3.08718">
        <ele>247.907972</ele>
        <time>2025-10-23T09:14:26Z</time>
      </trkpt>
      <trkpt lat="43.597" lon="3.08718">
        <ele>248.050768</ele>
        <time>2025-10-23T09:14:27Z</time>
      </trkpt>
      <trkpt lat="43.59701" lon="3.08718">
        <ele>248.182891</ele>
        <time>2025-10-23T09:14:28Z</time>
      </trkpt>
      <trkpt lat="43.59702" lon="3.08717">
        <ele>248.306129</ele>
        <time>2025-10-23T09:14:29Z</time>
      </trkpt>
      <trkpt lat="43.59703" lon="3.08717">
        <ele>248.426332</ele>
        <time>2025-10-23T09:14:30Z</time>
      </trkpt>
      <trkpt lat="43.59704" lon="3.08717">
        <ele>248.545765</ele>
        <time>2025-10-23T09:14:31Z</time>
      </trkpt>
      <trkpt lat="43.59706" lon="3.08717">
        <ele>248.67601</ele>
        <time>2025-10-23T09:14:32Z</time>
      </trkpt>
      <trkpt lat="43.59707" lon="3.08717">
        <ele>248.817724</ele>
        <time>2025-10-23T09:14:33Z</time>
      </trkpt>
      <trkpt lat="43.59708" lon="3.08716">
        <ele>248.974392</ele>
        <time>2025-10-23T09:14:34Z</time>
      </trkpt>
      <trkpt lat="43.5971" lon="3.08716">
        <ele>249.125565</ele>
        <time>2025-10-23T09:14:35Z</time>
      </trkpt>
      <trkpt lat="43.59711" lon="3.08715">
        <ele>249.253701</ele>
        <time>2025-10-23T09:14:36Z</time>
      </trkpt>
      <trkpt lat="43.59712" lon="3.08715">
        <ele>249.394762</ele>
        <time>2025-10-23T09:14:37Z</time>
      </trkpt>
      <trkpt lat="43.59713" lon="3.08715">
        <ele>249.535823</ele>
        <time>2025-10-23T09:14:38Z</time>
      </trkpt>
      <trkpt lat="43.59715" lon="3.08715">
        <ele>249.687702</ele>
        <time>2025-10-23T09:14:39Z</time>
      </trkpt>
      <trkpt lat="43.59716" lon="3.08714">
        <ele>249.823501</ele>
        <time>2025-10-23T09:14:40Z</time>
      </trkpt>
      <trkpt lat="43.59717" lon="3.08714">
        <ele>249.944978</ele>
        <time>2025-10-23T09:14:41Z</time>
      </trkpt>
      <trkpt lat="43.59718" lon="3.08714">
        <ele>250.032005</ele>
        <time>2025-10-23T09:14:42Z</time>
      </trkpt>
      <trkpt lat="43.59719" lon="3.08714">
        <ele>250.151179</ele>
        <time>2025-10-23T09:14:43Z</time>
      </trkpt>
      <trkpt lat="43.5972" lon="3.08714">
        <ele>250.292241</ele>
        <time>2025-10-23T09:14:44Z</time>
      </trkpt>
      <trkpt lat="43.59722" lon="3.08714">
        <ele>250.448909</ele>
        <time>2025-10-23T09:14:45Z</time>
      </trkpt>
      <trkpt lat="43.59723" lon="3.08715">
        <ele>250.581031</ele>
        <time>2025-10-23T09:14:46Z</time>
      </trkpt>
      <trkpt lat="43.59724" lon="3.08715">
        <ele>250.711276</ele>
        <time>2025-10-23T09:14:47Z</time>
      </trkpt>
      <trkpt lat="43.59725" lon="3.08715">
        <ele>250.841521</ele>
        <time>2025-10-23T09:14:48Z</time>
      </trkpt>
      <trkpt lat="43.59726" lon="3.08715">
        <ele>250.982582</ele>
        <time>2025-10-23T09:14:49Z</time>
      </trkpt>
      <trkpt lat="43.59728" lon="3.08715">
        <ele>251.123644</ele>
        <time>2025-10-23T09:14:50Z</time>
      </trkpt>
      <trkpt lat="43.59729" lon="3.08715">
        <ele>251.28691</ele>
        <time>2025-10-23T09:14:51Z</time>
      </trkpt>
      <trkpt lat="43.59731" lon="3.08715">
        <ele>251.460964</ele>
        <time>2025-10-23T09:14:52Z</time>
      </trkpt>
      <trkpt lat="43.59732" lon="3.08715">
        <ele>251.612844</ele>
        <time>2025-10-23T09:14:53Z</time>
      </trkpt>
      <trkpt lat="43.59733" lon="3.08715">
        <ele>251.744966</ele>
        <time>2025-10-23T09:14:54Z</time>
      </trkpt>
      <trkpt lat="43.59735" lon="3.08715">
        <ele>251.875918</ele>
        <time>2025-10-23T09:14:55Z</time>
      </trkpt>
      <trkpt lat="43.59736" lon="3.08715">
        <ele>252.027595</ele>
        <time>2025-10-23T09:14:56Z</time>
      </trkpt>
      <trkpt lat="43.59738" lon="3.08715">
        <ele>252.190295</ele>
        <time>2025-10-23T09:14:57Z</time>
      </trkpt>
      <trkpt lat="43.59739" lon="3.08715">
        <ele>252.363817</ele>
        <time>2025-10-23T09:14:58Z</time>
      </trkpt>
      <trkpt lat="43.59741" lon="3.08715">
        <ele>252.518707</ele>
        <time>2025-10-23T09:14:59Z</time>
      </trkpt>
      <trkpt lat="43.59741" lon="3.08715">
        <ele>252.616529</ele>
        <time>2025-10-23T09:15:00Z</time>
      </trkpt>
      <trkpt lat="43.59743" lon="3.08715">
        <ele>252.735961</ele>
        <time>2025-10-23T09:15:01Z</time>
      </trkpt>
      <trkpt lat="43.59744" lon="3.08715">
        <ele>252.877023</ele>
        <time>2025-10-23T09:15:02Z</time>
      </trkpt>
      <trkpt lat="43.59745" lon="3.08715">
        <ele>253.028902</ele>
        <time>2025-10-23T09:15:03Z</time>
      </trkpt>
      <trkpt lat="43.59747" lon="3.08715">
        <ele>253.180782</ele>
        <time>2025-10-23T09:15:04Z</time>
      </trkpt>
      <trkpt lat="43.59748" lon="3.08715">
        <ele>253.311734</ele>
        <time>2025-10-23T09:15:05Z</time>
      </trkpt>
      <trkpt lat="43.59749" lon="3.08714">
        <ele>253.441979</ele>
        <time>2025-10-23T09:15:06Z</time>
      </trkpt>
      <trkpt lat="43.5975" lon="3.08715">
        <ele>253.58304</ele>
        <time>2025-10-23T09:15:07Z</time>
      </trkpt>
      <trkpt lat="43.59752" lon="3.08714">
        <ele>253.725836</ele>
        <time>2025-10-23T09:15:08Z</time>
      </trkpt>
      <trkpt lat="43.59753" lon="3.08714">
        <ele>253.877513</ele>
        <time>2025-10-23T09:15:09Z</time>
      </trkpt>
      <trkpt lat="43.59754" lon="3.08714">
        <ele>254.02919</ele>
        <time>2025-10-23T09:15:10Z</time>
      </trkpt>
      <trkpt lat="43.59756" lon="3.08715">
        <ele>254.162933</ele>
        <time>2025-10-23T09:15:11Z</time>
      </trkpt>
      <trkpt lat="43.59757" lon="3.08715">
        <ele>254.31461</ele>
        <time>2025-10-23T09:15:12Z</time>
      </trkpt>
      <trkpt lat="43.59758" lon="3.08715">
        <ele>254.455671</ele>
        <time>2025-10-23T09:15:13Z</time>
      </trkpt>
      <trkpt lat="43.5976" lon="3.08715">
        <ele>254.58568</ele>
        <time>2025-10-23T09:15:14Z</time>
      </trkpt>
      <trkpt lat="43.59761" lon="3.08715">
        <ele>254.705883</ele>
        <time>2025-10-23T09:15:15Z</time>
      </trkpt>
      <trkpt lat="43.59762" lon="3.08715">
        <ele>254.826086</ele>
        <time>2025-10-23T09:15:16Z</time>
      </trkpt>
      <trkpt lat="43.59763" lon="3.08715">
        <ele>254.945519</ele>
        <time>2025-10-23T09:15:17Z</time>
      </trkpt>
      <trkpt lat="43.59764" lon="3.08715">
        <ele>255.064951</ele>
        <time>2025-10-23T09:15:18Z</time>
      </trkpt>
      <trkpt lat="43.59765" lon="3.08715">
        <ele>255.185155</ele>
        <time>2025-10-23T09:15:19Z</time>
      </trkpt>
      <trkpt lat="43.59766" lon="3.08715">
        <ele>255.304587</ele>
        <time>2025-10-23T09:15:20Z</time>
      </trkpt>
      <trkpt lat="43.59768" lon="3.08715">
        <ele>255.456264</ele>
        <time>2025-10-23T09:15:21Z</time>
      </trkpt>
      <trkpt lat="43.59769" lon="3.08715">
        <ele>255.575697</ele>
        <time>2025-10-23T09:15:22Z</time>
      </trkpt>
      <trkpt lat="43.5977" lon="3.08715">
        <ele>255.695129</ele>
        <time>2025-10-23T09:15:23Z</time>
      </trkpt>
      <trkpt lat="43.59771" lon="3.08715">
        <ele>255.827252</ele>
        <time>2025-10-23T09:15:24Z</time>
      </trkpt>
      <trkpt lat="43.59772" lon="3.08715">
        <ele>255.924758</ele>
        <time>2025-10-23T09:15:25Z</time>
      </trkpt>
      <trkpt lat="43.59773" lon="3.08716">
        <ele>256.033879</ele>
        <time>2025-10-23T09:15:26Z</time>
      </trkpt>
      <trkpt lat="43.59774" lon="3.08716">
        <ele>256.146674</ele>
        <time>2025-10-23T09:15:27Z</time>
      </trkpt>
      <trkpt lat="43.59774" lon="3.08717">
        <ele>256.245306</ele>
        <time>2025-10-23T09:15:28Z</time>
      </trkpt>
      <trkpt lat="43.59775" lon="3.08717">
        <ele>256.360531</ele>
        <time>2025-10-23T09:15:29Z</time>
      </trkpt>
      <trkpt lat="43.59776" lon="3.08718">
        <ele>256.472441</ele>
        <time>2025-10-23T09:15:30Z</time>
      </trkpt>
      <trkpt lat="43.59777" lon="3.08718">
        <ele>256.567578</ele>
        <time>2025-10-23T09:15:31Z</time>
      </trkpt>
      <trkpt lat="43.59778" lon="3.08719">
        <ele>256.695714</ele>
        <time>2025-10-23T09:15:32Z</time>
      </trkpt>
      <trkpt lat="43.59779" lon="3.08719">
        <ele>256.829457</ele>
        <time>2025-10-23T09:15:33Z</time>
      </trkpt>
      <trkpt lat="43.5978" lon="3.0872">
        <ele>256.937733</ele>
        <time>2025-10-23T09:15:34Z</time>
      </trkpt>
      <trkpt lat="43.59781" lon="3.08721">
        <ele>257.076002</ele>
        <time>2025-10-23T09:15:35Z</time>
      </trkpt>
      <trkpt lat="43.59783" lon="3.08721">
        <ele>257.217716</ele>
        <time>2025-10-23T09:15:36Z</time>
      </trkpt>
      <trkpt lat="43.59784" lon="3.08721">
        <ele>257.376531</ele>
        <time>2025-10-23T09:15:37Z</time>
      </trkpt>
      <trkpt lat="43.59785" lon="3.08722">
        <ele>257.512329</ele>
        <time>2025-10-23T09:15:38Z</time>
      </trkpt>
      <trkpt lat="43.59787" lon="3.08722">
        <ele>257.646072</ele>
        <time>2025-10-23T09:15:39Z</time>
      </trkpt>
      <trkpt lat="43.59788" lon="3.08723">
        <ele>257.794574</ele>
        <time>2025-10-23T09:15:40Z</time>
      </trkpt>
      <trkpt lat="43.59789" lon="3.08724">
        <ele>257.92479</ele>
        <time>2025-10-23T09:15:41Z</time>
      </trkpt>
      <trkpt lat="43.5979" lon="3.08725">
        <ele>258.055007</ele>
        <time>2025-10-23T09:15:42Z</time>
      </trkpt>
      <trkpt lat="43.5979" lon="3.08726">
        <ele>258.156904</ele>
        <time>2025-10-23T09:15:43Z</time>
      </trkpt>
      <trkpt lat="43.59792" lon="3.08725">
        <ele>258.364308</ele>
        <time>2025-10-23T09:15:44Z</time>
      </trkpt>
      <trkpt lat="43.59793" lon="3.08725">
        <ele>258.484511</ele>
        <time>2025-10-23T09:15:45Z</time>
      </trkpt>
      <trkpt lat="43.59794" lon="3.08725">
        <ele>258.61452</ele>
        <time>2025-10-23T09:15:46Z</time>
      </trkpt>
      <trkpt lat="43.59795" lon="3.08725">
        <ele>258.744529</ele>
        <time>2025-10-23T09:15:47Z</time>
      </trkpt>
      <trkpt lat="43.59797" lon="3.08725">
        <ele>258.863961</ele>
        <time>2025-10-23T09:15:48Z</time>
      </trkpt>
      <trkpt lat="43.59798" lon="3.08726">
        <ele>258.979186</ele>
        <time>2025-10-23T09:15:49Z</time>
      </trkpt>
      <trkpt lat="43.59798" lon="3.08726">
        <ele>259.081619</ele>
        <time>2025-10-23T09:15:50Z</time>
      </trkpt>
      <trkpt lat="43.59799" lon="3.08726">
        <ele>259.17944</ele>
        <time>2025-10-23T09:15:51Z</time>
      </trkpt>
      <trkpt lat="43.598" lon="3.08727">
        <ele>259.274577</ele>
        <time>2025-10-23T09:15:52Z</time>
      </trkpt>
      <trkpt lat="43.59802" lon="3.08727">
        <ele>259.437278</ele>
        <time>2025-10-23T09:15:53Z</time>
      </trkpt>
      <trkpt lat="43.59803" lon="3.08727">
        <ele>259.621457</ele>
        <time>2025-10-23T09:15:54Z</time>
      </trkpt>
      <trkpt lat="43.59805" lon="3.08727">
        <ele>259.763171</ele>
        <time>2025-10-23T09:15:55Z</time>
      </trkpt>
      <trkpt lat="43.59806" lon="3.08727">
        <ele>259.925682</ele>
        <time>2025-10-23T09:15:56Z</time>
      </trkpt>
      <trkpt lat="43.59808" lon="3.08727">
        <ele>260.100617</ele>
        <time>2025-10-23T09:15:57Z</time>
      </trkpt>
      <trkpt lat="43.59809" lon="3.08728">
        <ele>260.189944</ele>
        <time>2025-10-23T09:15:58Z</time>
      </trkpt>
      <trkpt lat="43.5981" lon="3.08728">
        <ele>260.250575</ele>
        <time>2025-10-23T09:15:59Z</time>
      </trkpt>
      <trkpt lat="43.59811" lon="3.08728">
        <ele>260.323751</ele>
        <time>2025-10-23T09:16:00Z</time>
      </trkpt>
      <trkpt lat="43.59813" lon="3.08728">
        <ele>260.401878</ele>
        <time>2025-10-23T09:16:01Z</time>
      </trkpt>
      <trkpt lat="43.59814" lon="3.08728">
        <ele>260.479884</ele>
        <time>2025-10-23T09:16:02Z</time>
      </trkpt>
      <trkpt lat="43.59815" lon="3.08728">
        <ele>260.55202</ele>
        <time>2025-10-23T09:16:03Z</time>
      </trkpt>
      <trkpt lat="43.59816" lon="3.08728">
        <ele>260.624026</ele>
        <time>2025-10-23T09:16:04Z</time>
      </trkpt>
      <trkpt lat="43.59818" lon="3.08728">
        <ele>260.702153</ele>
        <time>2025-10-23T09:16:05Z</time>
      </trkpt>
      <trkpt lat="43.59819" lon="3.08729">
        <ele>260.768728</ele>
        <time>2025-10-23T09:16:06Z</time>
      </trkpt>
      <trkpt lat="43.5982" lon="3.08729">
        <ele>260.85374</ele>
        <time>2025-10-23T09:16:07Z</time>
      </trkpt>
      <trkpt lat="43.59822" lon="3.08729">
        <ele>260.946332</ele>
        <time>2025-10-23T09:16:08Z</time>
      </trkpt>
      <trkpt lat="43.59823" lon="3.0873">
        <ele>261.030787</ele>
        <time>2025-10-23T09:16:09Z</time>
      </trkpt>
      <trkpt lat="43.59824" lon="3.0873">
        <ele>261.099043</ele>
        <time>2025-10-23T09:16:10Z</time>
      </trkpt>
      <trkpt lat="43.59825" lon="3.0873">
        <ele>261.168532</ele>
        <time>2025-10-23T09:16:11Z</time>
      </trkpt>
      <trkpt lat="43.59826" lon="3.08731">
        <ele>261.228694</ele>
        <time>2025-10-23T09:16:12Z</time>
      </trkpt>
      <trkpt lat="43.59827" lon="3.08731">
        <ele>261.270921</ele>
        <time>2025-10-23T09:16:13Z</time>
      </trkpt>
      <trkpt lat="43.59827" lon="3.08731">
        <ele>261.302157</ele>
        <time>2025-10-23T09:16:14Z</time>
      </trkpt>
      <trkpt lat="43.59828" lon="3.08731">
        <ele>261.3519</ele>
        <time>2025-10-23T09:16:15Z</time>
      </trkpt>
      <trkpt lat="43.59829" lon="3.08731">
        <ele>261.41253</ele>
        <time>2025-10-23T09:16:16Z</time>
      </trkpt>
      <trkpt lat="43.5983" lon="3.08732">
        <ele>261.48202</ele>
        <time>2025-10-23T09:16:17Z</time>
      </trkpt>
      <trkpt lat="43.59831" lon="3.08732">
        <ele>261.557232</ele>
        <time>2025-10-23T09:16:18Z</time>
      </trkpt>
      <trkpt lat="43.59833" lon="3.08733">
        <ele>261.642244</ele>
        <time>2025-10-23T09:16:19Z</time>
      </trkpt>
      <trkpt lat="43.59834" lon="3.08733">
        <ele>261.725971</ele>
        <time>2025-10-23T09:16:20Z</time>
      </trkpt>
      <trkpt lat="43.59835" lon="3.08734">
        <ele>261.808219</ele>
        <time>2025-10-23T09:16:21Z</time>
      </trkpt>
      <trkpt lat="43.59837" lon="3.08735">
        <ele>261.884941</ele>
        <time>2025-10-23T09:16:22Z</time>
      </trkpt>
      <trkpt lat="43.59838" lon="3.08736">
        <ele>261.968668</ele>
        <time>2025-10-23T09:16:23Z</time>
      </trkpt>
      <trkpt lat="43.59839" lon="3.08736">
        <ele>262.05407</ele>
        <time>2025-10-23T09:16:24Z</time>
      </trkpt>
      <trkpt lat="43.59841" lon="3.08737">
        <ele>262.143414</ele>
        <time>2025-10-23T09:16:25Z</time>
      </trkpt>
      <trkpt lat="43.59842" lon="3.08738">
        <ele>262.227141</ele>
        <time>2025-10-23T09:16:26Z</time>
      </trkpt>
      <trkpt lat="43.59843" lon="3.08739">
        <ele>262.309082</ele>
        <time>2025-10-23T09:16:27Z</time>
      </trkpt>
      <trkpt lat="43.59844" lon="3.0874">
        <ele>262.39712</ele>
        <time>2025-10-23T09:16:28Z</time>
      </trkpt>
      <trkpt lat="43.59845" lon="3.08741">
        <ele>262.481238</ele>
        <time>2025-10-23T09:16:29Z</time>
      </trkpt>
      <trkpt lat="43.59846" lon="3.08742">
        <ele>262.573902</ele>
        <time>2025-10-23T09:16:30Z</time>
      </trkpt>
      <trkpt lat="43.59848" lon="3.08744">
        <ele>262.668167</ele>
        <time>2025-10-23T09:16:31Z</time>
      </trkpt>
      <trkpt lat="43.59848" lon="3.08745">
        <ele>262.732918</ele>
        <time>2025-10-23T09:16:32Z</time>
      </trkpt>
      <trkpt lat="43.5985" lon="3.08746">
        <ele>262.809639</ele>
        <time>2025-10-23T09:16:33Z</time>
      </trkpt>
      <trkpt lat="43.5985" lon="3.08746">
        <ele>262.856772</ele>
        <time>2025-10-23T09:16:34Z</time>
      </trkpt>
      <trkpt lat="43.5985" lon="3.08746">
        <ele>262.871589</ele>
        <time>2025-10-23T09:16:35Z</time>
      </trkpt>
      <trkpt lat="43.5985" lon="3.08746">
        <ele>262.871589</ele>
        <time>2025-10-23T09:16:36Z</time>
      </trkpt>
      <trkpt lat="43.5985" lon="3.08746">
        <ele>262.871589</ele>
        <time>2025-10-23T09:16:37Z</time>
      </trkpt>
      <trkpt lat="43.5985" lon="3.08746">
        <ele>262.871589</ele>
        <time>2025-10-23T09:16:38Z</time>
      </trkpt>
      <trkpt lat="43.5985" lon="3.08746">
        <ele>262.875935</ele>
        <time>2025-10-23T09:16:39Z</time>
      </trkpt>
      <trkpt lat="43.59861" lon="3.08756">
        <ele>263.656192</ele>
        <time>2025-10-23T09:17:37Z</time>
      </trkpt>
      <trkpt lat="43.59863" lon="3.08758">
        <ele>263.785417</ele>
        <time>2025-10-23T09:17:38Z</time>
      </trkpt>
      <trkpt lat="43.59865" lon="3.08759">
        <ele>263.911638</ele>
        <time>2025-10-23T09:17:39Z</time>
      </trkpt>
      <trkpt lat="43.59867" lon="3.0876">
        <ele>264.049899</ele>
        <time>2025-10-23T09:17:40Z</time>
      </trkpt>
      <trkpt lat="43.59869" lon="3.08762">
        <ele>264.188532</ele>
        <time>2025-10-23T09:17:41Z</time>
      </trkpt>
      <trkpt lat="43.59871" lon="3.08764">
        <ele>264.343067</ele>
        <time>2025-10-23T09:17:42Z</time>
      </trkpt>
      <trkpt lat="43.59874" lon="3.08766">
        <ele>264.517589</ele>
        <time>2025-10-23T09:17:43Z</time>
      </trkpt>
      <trkpt lat="43.59876" lon="3.08768">
        <ele>264.680684</ele>
        <time>2025-10-23T09:17:44Z</time>
      </trkpt>
      <trkpt lat="43.59878" lon="3.0877">
        <ele>264.846136</ele>
        <time>2025-10-23T09:17:45Z</time>
      </trkpt>
      <trkpt lat="43.59881" lon="3.08772">
        <ele>265.01434</ele>
        <time>2025-10-23T09:17:46Z</time>
      </trkpt>
      <trkpt lat="43.59883" lon="3.08774">
        <ele>265.155105</ele>
        <time>2025-10-23T09:17:47Z</time>
      </trkpt>
      <trkpt lat="43.59885" lon="3.08776">
        <ele>265.310808</ele>
        <time>2025-10-23T09:17:48Z</time>
      </trkpt>
      <trkpt lat="43.59887" lon="3.08777">
        <ele>265.481612</ele>
        <time>2025-10-23T09:17:49Z</time>
      </trkpt>
      <trkpt lat="43.5989" lon="3.08779">
        <ele>265.656133</ele>
        <time>2025-10-23T09:17:50Z</time>
      </trkpt>
      <trkpt lat="43.59893" lon="3.08781">
        <ele>265.839985</ele>
        <time>2025-10-23T09:17:51Z</time>
      </trkpt>
      <trkpt lat="43.59895" lon="3.08783">
        <ele>266.025929</ele>
        <time>2025-10-23T09:17:52Z</time>
      </trkpt>
      <trkpt lat="43.59897" lon="3.08785">
        <ele>266.166853</ele>
        <time>2025-10-23T09:17:53Z</time>
      </trkpt>
      <trkpt lat="43.599" lon="3.08787">
        <ele>266.337252</ele>
        <time>2025-10-23T09:17:54Z</time>
      </trkpt>
      <trkpt lat="43.59902" lon="3.08789">
        <ele>266.492834</ele>
        <time>2025-10-23T09:17:55Z</time>
      </trkpt>
      <trkpt lat="43.59904" lon="3.08791">
        <ele>266.636191</ele>
        <time>2025-10-23T09:17:56Z</time>
      </trkpt>
      <trkpt lat="43.59906" lon="3.08793">
        <ele>266.789634</ele>
        <time>2025-10-23T09:17:57Z</time>
      </trkpt>
      <trkpt lat="43.59908" lon="3.08795">
        <ele>266.953516</ele>
        <time>2025-10-23T09:17:58Z</time>
      </trkpt>
      <trkpt lat="43.59911" lon="3.08796">
        <ele>267.10985</ele>
        <time>2025-10-23T09:17:59Z</time>
      </trkpt>
      <trkpt lat="43.59913" lon="3.08798">
        <ele>267.282468</ele>
        <time>2025-10-23T09:18:00Z</time>
      </trkpt>
      <trkpt lat="43.59915" lon="3.08801">
        <ele>267.445164</ele>
        <time>2025-10-23T09:18:01Z</time>
      </trkpt>
      <trkpt lat="43.59917" lon="3.08803">
        <ele>267.602643</ele>
        <time>2025-10-23T09:18:02Z</time>
      </trkpt>
      <trkpt lat="43.59918" lon="3.08806">
        <ele>267.747173</ele>
        <time>2025-10-23T09:18:03Z</time>
      </trkpt>
      <trkpt lat="43.5992" lon="3.08809">
        <ele>267.912815</ele>
        <time>2025-10-23T09:18:04Z</time>
      </trkpt>
      <trkpt lat="43.59921" lon="3.08812">
        <ele>268.054197</ele>
        <time>2025-10-23T09:18:05Z</time>
      </trkpt>
      <trkpt lat="43.59923" lon="3.08814">
        <ele>268.204338</ele>
        <time>2025-10-23T09:18:06Z</time>
      </trkpt>
      <trkpt lat="43.59924" lon="3.08816">
        <ele>268.32521</ele>
        <time>2025-10-23T09:18:07Z</time>
      </trkpt>
      <trkpt lat="43.59926" lon="3.08818">
        <ele>268.458566</ele>
        <time>2025-10-23T09:18:08Z</time>
      </trkpt>
      <trkpt lat="43.59928" lon="3.0882">
        <ele>268.594053</ele>
        <time>2025-10-23T09:18:09Z</time>
      </trkpt>
      <trkpt lat="43.59929" lon="3.08823">
        <ele>268.736863</ele>
        <time>2025-10-23T09:18:10Z</time>
      </trkpt>
      <trkpt lat="43.59931" lon="3.08825">
        <ele>268.859002</ele>
        <time>2025-10-23T09:18:11Z</time>
      </trkpt>
      <trkpt lat="43.59932" lon="3.08827">
        <ele>268.985627</ele>
        <time>2025-10-23T09:18:12Z</time>
      </trkpt>
      <trkpt lat="43.59933" lon="3.08828">
        <ele>269.087692</ele>
        <time>2025-10-23T09:18:13Z</time>
      </trkpt>
      <trkpt lat="43.59935" lon="3.0883">
        <ele>269.209831</ele>
        <time>2025-10-23T09:18:14Z</time>
      </trkpt>
      <trkpt lat="43.59937" lon="3.08832">
        <ele>269.340679</ele>
        <time>2025-10-23T09:18:15Z</time>
      </trkpt>
      <trkpt lat="43.59939" lon="3.08833">
        <ele>269.457285</ele>
        <time>2025-10-23T09:18:16Z</time>
      </trkpt>
      <trkpt lat="43.5994" lon="3.08834">
        <ele>269.586509</ele>
        <time>2025-10-23T09:18:17Z</time>
      </trkpt>
      <trkpt lat="43.59942" lon="3.08835">
        <ele>269.691893</ele>
        <time>2025-10-23T09:18:18Z</time>
      </trkpt>
      <trkpt lat="43.59944" lon="3.08836">
        <ele>269.79556</ele>
        <time>2025-10-23T09:18:19Z</time>
      </trkpt>
      <trkpt lat="43.59946" lon="3.08838">
        <ele>269.933821</ele>
        <time>2025-10-23T09:18:20Z</time>
      </trkpt>
      <trkpt lat="43.59947" lon="3.08839">
        <ele>270.061058</ele>
        <time>2025-10-23T09:18:21Z</time>
      </trkpt>
      <trkpt lat="43.59949" lon="3.0884">
        <ele>270.174523</ele>
        <time>2025-10-23T09:18:22Z</time>
      </trkpt>
      <trkpt lat="43.59951" lon="3.08841">
        <ele>270.287988</ele>
        <time>2025-10-23T09:18:23Z</time>
      </trkpt>
      <trkpt lat="43.59953" lon="3.08842">
        <ele>270.418705</ele>
        <time>2025-10-23T09:18:24Z</time>
      </trkpt>
      <trkpt lat="43.59955" lon="3.08842">
        <ele>270.547384</ele>
        <time>2025-10-23T09:18:25Z</time>
      </trkpt>
      <trkpt lat="43.59957" lon="3.08843">
        <ele>270.674587</ele>
        <time>2025-10-23T09:18:26Z</time>
      </trkpt>
      <trkpt lat="43.59959" lon="3.08843">
        <ele>270.793778</ele>
        <time>2025-10-23T09:18:27Z</time>
      </trkpt>
      <trkpt lat="43.59961" lon="3.08844">
        <ele>270.909838</ele>
        <time>2025-10-23T09:18:28Z</time>
      </trkpt>
      <trkpt lat="43.59963" lon="3.08844">
        <ele>271.018205</ele>
        <time>2025-10-23T09:18:29Z</time>
      </trkpt>
      <trkpt lat="43.59965" lon="3.08845">
        <ele>271.115508</ele>
        <time>2025-10-23T09:18:30Z</time>
      </trkpt>
      <trkpt lat="43.59966" lon="3.08845">
        <ele>271.210208</ele>
        <time>2025-10-23T09:18:31Z</time>
      </trkpt>
      <trkpt lat="43.59968" lon="3.08846">
        <ele>271.331677</ele>
        <time>2025-10-23T09:18:32Z</time>
      </trkpt>
      <trkpt lat="43.5997" lon="3.08847">
        <ele>271.453569</ele>
        <time>2025-10-23T09:18:33Z</time>
      </trkpt>
      <trkpt lat="43.59973" lon="3.08848">
        <ele>271.57318</ele>
        <time>2025-10-23T09:18:34Z</time>
      </trkpt>
      <trkpt lat="43.59974" lon="3.08847">
        <ele>271.669187</ele>
        <time>2025-10-23T09:18:35Z</time>
      </trkpt>
      <trkpt lat="43.59976" lon="3.08847">
        <ele>271.748286</ele>
        <time>2025-10-23T09:18:36Z</time>
      </trkpt>
      <trkpt lat="43.59977" lon="3.08847">
        <ele>271.844293</ele>
        <time>2025-10-23T09:18:37Z</time>
      </trkpt>
      <trkpt lat="43.59979" lon="3.08848">
        <ele>271.936038</ele>
        <time>2025-10-23T09:18:38Z</time>
      </trkpt>
      <trkpt lat="43.59981" lon="3.08848">
        <ele>272.04918</ele>
        <time>2025-10-23T09:18:39Z</time>
      </trkpt>
      <trkpt lat="43.59983" lon="3.08848">
        <ele>272.157624</ele>
        <time>2025-10-23T09:18:40Z</time>
      </trkpt>
      <trkpt lat="43.59985" lon="3.08849">
        <ele>272.262103</ele>
        <time>2025-10-23T09:18:41Z</time>
      </trkpt>
      <trkpt lat="43.59986" lon="3.08849">
        <ele>272.358023</ele>
        <time>2025-10-23T09:18:42Z</time>
      </trkpt>
      <trkpt lat="43.59988" lon="3.0885">
        <ele>272.456094</ele>
        <time>2025-10-23T09:18:43Z</time>
      </trkpt>
      <trkpt lat="43.5999" lon="3.0885">
        <ele>272.546464</ele>
        <time>2025-10-23T09:18:44Z</time>
      </trkpt>
      <trkpt lat="43.59991" lon="3.0885">
        <ele>272.642471</ele>
        <time>2025-10-23T09:18:45Z</time>
      </trkpt>
      <trkpt lat="43.59993" lon="3.08849">
        <ele>272.744116</ele>
        <time>2025-10-23T09:18:46Z</time>
      </trkpt>
      <trkpt lat="43.59995" lon="3.0885">
        <ele>272.837663</ele>
        <time>2025-10-23T09:18:47Z</time>
      </trkpt>
      <trkpt lat="43.59996" lon="3.0885">
        <ele>272.917601</ele>
        <time>2025-10-23T09:18:48Z</time>
      </trkpt>
      <trkpt lat="43.59998" lon="3.08851">
        <ele>273.000311</ele>
        <time>2025-10-23T09:18:49Z</time>
      </trkpt>
      <trkpt lat="43.59999" lon="3.08852">
        <ele>273.096325</ele>
        <time>2025-10-23T09:18:50Z</time>
      </trkpt>
      <trkpt lat="43.60001" lon="3.08852">
        <ele>273.175739</ele>
        <time>2025-10-23T09:18:51Z</time>
      </trkpt>
      <trkpt lat="43.60002" lon="3.08851">
        <ele>273.260768</ele>
        <time>2025-10-23T09:18:52Z</time>
      </trkpt>
      <trkpt lat="43.60004" lon="3.08851">
        <ele>273.345502</ele>
        <time>2025-10-23T09:18:53Z</time>
      </trkpt>
      <trkpt lat="43.60005" lon="3.08852">
        <ele>273.430991</ele>
        <time>2025-10-23T09:18:54Z</time>
      </trkpt>
      <trkpt lat="43.60006" lon="3.08853">
        <ele>273.519105</ele>
        <time>2025-10-23T09:18:55Z</time>
      </trkpt>
      <trkpt lat="43.60008" lon="3.08853">
        <ele>273.60722</ele>
        <time>2025-10-23T09:18:56Z</time>
      </trkpt>
      <trkpt lat="43.60009" lon="3.08854">
        <ele>273.695334</ele>
        <time>2025-10-23T09:18:57Z</time>
      </trkpt>
      <trkpt lat="43.60011" lon="3.08855">
        <ele>273.794338</ele>
        <time>2025-10-23T09:18:58Z</time>
      </trkpt>
      <trkpt lat="43.60013" lon="3.08856">
        <ele>273.898598</ele>
        <time>2025-10-23T09:18:59Z</time>
      </trkpt>
      <trkpt lat="43.60015" lon="3.08856">
        <ele>274.015013</ele>
        <time>2025-10-23T09:19:00Z</time>
      </trkpt>
      <trkpt lat="43.60017" lon="3.08857">
        <ele>274.15646</ele>
        <time>2025-10-23T09:19:01Z</time>
      </trkpt>
      <trkpt lat="43.60019" lon="3.08858">
        <ele>274.272875</ele>
        <time>2025-10-23T09:19:02Z</time>
      </trkpt>
      <trkpt lat="43.60022" lon="3.08858">
        <ele>274.403227</ele>
        <time>2025-10-23T09:19:03Z</time>
      </trkpt>
      <trkpt lat="43.60024" lon="3.08858">
        <ele>274.533065</ele>
        <time>2025-10-23T09:19:04Z</time>
      </trkpt>
      <trkpt lat="43.60026" lon="3.08859">
        <ele>274.635364</ele>
        <time>2025-10-23T09:19:05Z</time>
      </trkpt>
      <trkpt lat="43.60027" lon="3.08858">
        <ele>274.732667</ele>
        <time>2025-10-23T09:19:06Z</time>
      </trkpt>
      <trkpt lat="43.60029" lon="3.08858">
        <ele>274.8174</ele>
        <time>2025-10-23T09:19:07Z</time>
      </trkpt>
      <trkpt lat="43.6003" lon="3.08858">
        <ele>274.893543</ele>
        <time>2025-10-23T09:19:08Z</time>
      </trkpt>
      <trkpt lat="43.60031" lon="3.08857">
        <ele>274.968692</ele>
        <time>2025-10-23T09:19:09Z</time>
      </trkpt>
      <trkpt lat="43.60033" lon="3.08857">
        <ele>275.048107</ele>
        <time>2025-10-23T09:19:10Z</time>
      </trkpt>
      <trkpt lat="43.60034" lon="3.08857">
        <ele>275.110173</ele>
        <time>2025-10-23T09:19:11Z</time>
      </trkpt>
      <trkpt lat="43.60036" lon="3.08857">
        <ele>275.200543</ele>
        <time>2025-10-23T09:19:12Z</time>
      </trkpt>
      <trkpt lat="43.60037" lon="3.08857">
        <ele>275.29681</ele>
        <time>2025-10-23T09:19:13Z</time>
      </trkpt>
      <trkpt lat="43.60039" lon="3.08857">
        <ele>275.392817</ele>
        <time>2025-10-23T09:19:14Z</time>
      </trkpt>
      <trkpt lat="43.60041" lon="3.08857">
        <ele>275.483187</ele>
        <time>2025-10-23T09:19:15Z</time>
      </trkpt>
      <trkpt lat="43.60042" lon="3.08857">
        <ele>275.584749</ele>
        <time>2025-10-23T09:19:16Z</time>
      </trkpt>
      <trkpt lat="43.60044" lon="3.08857">
        <ele>275.692032</ele>
        <time>2025-10-23T09:19:17Z</time>
      </trkpt>
      <trkpt lat="43.60046" lon="3.08857">
        <ele>275.799547</ele>
        <time>2025-10-23T09:19:18Z</time>
      </trkpt>
      <trkpt lat="43.60048" lon="3.08856">
        <ele>275.89685</ele>
        <time>2025-10-23T09:19:19Z</time>
      </trkpt>
      <trkpt lat="43.6005" lon="3.08856">
        <ele>275.992857</ele>
        <time>2025-10-23T09:19:20Z</time>
      </trkpt>
      <trkpt lat="43.60051" lon="3.08856">
        <ele>276.100061</ele>
        <time>2025-10-23T09:19:21Z</time>
      </trkpt>
      <trkpt lat="43.60053" lon="3.08857">
        <ele>276.20236</ele>
        <time>2025-10-23T09:19:22Z</time>
      </trkpt>
      <trkpt lat="43.60055" lon="3.08857">
        <ele>276.321972</ele>
        <time>2025-10-23T09:19:23Z</time>
      </trkpt>
      <trkpt lat="43.60057" lon="3.08858">
        <ele>276.443864</ele>
        <time>2025-10-23T09:19:24Z</time>
      </trkpt>
      <trkpt lat="43.60059" lon="3.08859">
        <ele>276.537846</ele>
        <time>2025-10-23T09:19:25Z</time>
      </trkpt>
      <trkpt lat="43.60061" lon="3.0886">
        <ele>276.645861</ele>
        <time>2025-10-23T09:19:26Z</time>
      </trkpt>
      <trkpt lat="43.60062" lon="3.0886">
        <ele>276.727914</ele>
        <time>2025-10-23T09:19:27Z</time>
      </trkpt>
      <trkpt lat="43.60063" lon="3.08861">
        <ele>276.815047</ele>
        <time>2025-10-23T09:19:28Z</time>
      </trkpt>
      <trkpt lat="43.60065" lon="3.08862">
        <ele>276.893777</ele>
        <time>2025-10-23T09:19:29Z</time>
      </trkpt>
      <trkpt lat="43.60066" lon="3.08863">
        <ele>276.984505</ele>
        <time>2025-10-23T09:19:30Z</time>
      </trkpt>
      <trkpt lat="43.60068" lon="3.08864">
        <ele>277.07344</ele>
        <time>2025-10-23T09:19:31Z</time>
      </trkpt>
      <trkpt lat="43.60069" lon="3.08865">
        <ele>277.172534</ele>
        <time>2025-10-23T09:19:32Z</time>
      </trkpt>
      <trkpt lat="43.60071" lon="3.08866">
        <ele>277.265553</ele>
        <time>2025-10-23T09:19:33Z</time>
      </trkpt>
      <trkpt lat="43.60072" lon="3.08868">
        <ele>277.377235</ele>
        <time>2025-10-23T09:19:34Z</time>
      </trkpt>
      <trkpt lat="43.60074" lon="3.08869">
        <ele>277.493315</ele>
        <time>2025-10-23T09:19:35Z</time>
      </trkpt>
      <trkpt lat="43.60076" lon="3.08871">
        <ele>277.607144</ele>
        <time>2025-10-23T09:19:36Z</time>
      </trkpt>
      <trkpt lat="43.60077" lon="3.08872">
        <ele>277.721052</ele>
        <time>2025-10-23T09:19:37Z</time>
      </trkpt>
      <trkpt lat="43.60079" lon="3.08874">
        <ele>277.840119</ele>
        <time>2025-10-23T09:19:38Z</time>
      </trkpt>
      <trkpt lat="43.6008" lon="3.08876">
        <ele>277.940087</ele>
        <time>2025-10-23T09:19:39Z</time>
      </trkpt>
      <trkpt lat="43.60081" lon="3.08877">
        <ele>278.026145</ele>
        <time>2025-10-23T09:19:40Z</time>
      </trkpt>
      <trkpt lat="43.60083" lon="3.08879">
        <ele>278.117029</ele>
        <time>2025-10-23T09:19:41Z</time>
      </trkpt>
      <trkpt lat="43.60084" lon="3.0888">
        <ele>278.222957</ele>
        <time>2025-10-23T09:19:42Z</time>
      </trkpt>
      <trkpt lat="43.60086" lon="3.08881">
        <ele>278.336786</ele>
        <time>2025-10-23T09:19:43Z</time>
      </trkpt>
      <trkpt lat="43.60088" lon="3.08882">
        <ele>278.459825</ele>
        <time>2025-10-23T09:19:44Z</time>
      </trkpt>
      <trkpt lat="43.6009" lon="3.08883">
        <ele>278.587209</ele>
        <time>2025-10-23T09:19:45Z</time>
      </trkpt>
      <trkpt lat="43.60092" lon="3.08883">
        <ele>278.666308</ele>
        <time>2025-10-23T09:19:46Z</time>
      </trkpt>
      <trkpt lat="43.60094" lon="3.08884">
        <ele>278.787307</ele>
        <time>2025-10-23T09:19:47Z</time>
      </trkpt>
      <trkpt lat="43.60095" lon="3.08885">
        <ele>278.888643</ele>
        <time>2025-10-23T09:19:48Z</time>
      </trkpt>
      <trkpt lat="43.60098" lon="3.08886">
        <ele>279.024698</ele>
        <time>2025-10-23T09:19:49Z</time>
      </trkpt>
      <trkpt lat="43.601" lon="3.08886">
        <ele>279.151227</ele>
        <time>2025-10-23T09:19:50Z</time>
      </trkpt>
      <trkpt lat="43.60103" lon="3.08887">
        <ele>279.326902</ele>
        <time>2025-10-23T09:19:51Z</time>
      </trkpt>
      <trkpt lat="43.60106" lon="3.08887">
        <ele>279.493011</ele>
        <time>2025-10-23T09:19:52Z</time>
      </trkpt>
      <trkpt lat="43.60109" lon="3.08888">
        <ele>279.66072</ele>
        <time>2025-10-23T09:19:53Z</time>
      </trkpt>
      <trkpt lat="43.60112" lon="3.0889">
        <ele>279.868742</ele>
        <time>2025-10-23T09:19:54Z</time>
      </trkpt>
      <trkpt lat="43.60116" lon="3.0889">
        <ele>280.050035</ele>
        <time>2025-10-23T09:19:55Z</time>
      </trkpt>
      <trkpt lat="43.60119" lon="3.08891">
        <ele>280.255773</ele>
        <time>2025-10-23T09:19:56Z</time>
      </trkpt>
      <trkpt lat="43.60122" lon="3.08891">
        <ele>280.419452</ele>
        <time>2025-10-23T09:19:57Z</time>
      </trkpt>
      <trkpt lat="43.60125" lon="3.08891">
        <ele>280.577438</ele>
        <time>2025-10-23T09:19:58Z</time>
      </trkpt>
      <trkpt lat="43.60128" lon="3.08891">
        <ele>280.752542</ele>
        <time>2025-10-23T09:19:59Z</time>
      </trkpt>
      <trkpt lat="43.60131" lon="3.08891">
        <ele>280.938739</ele>
        <time>2025-10-23T09:20:00Z</time>
      </trkpt>
      <trkpt lat="43.60135" lon="3.08891">
        <ele>281.109873</ele>
        <time>2025-10-23T09:20:01Z</time>
      </trkpt>
      <trkpt lat="43.60138" lon="3.08891">
        <ele>281.227287</ele>
        <time>2025-10-23T09:20:02Z</time>
      </trkpt>
      <trkpt lat="43.60142" lon="3.08891">
        <ele>281.351023</ele>
        <time>2025-10-23T09:20:03Z</time>
      </trkpt>
      <trkpt lat="43.60146" lon="3.08892">
        <ele>281.481587</ele>
        <time>2025-10-23T09:20:04Z</time>
      </trkpt>
      <trkpt lat="43.6015" lon="3.08892">
        <ele>281.615067</ele>
        <time>2025-10-23T09:20:05Z</time>
      </trkpt>
      <trkpt lat="43.60154" lon="3.08891">
        <ele>281.748734</ele>
        <time>2025-10-23T09:20:06Z</time>
      </trkpt>
      <trkpt lat="43.60159" lon="3.08892">
        <ele>281.895406</ele>
        <time>2025-10-23T09:20:07Z</time>
      </trkpt>
      <trkpt lat="43.60164" lon="3.08893">
        <ele>282.057419</ele>
        <time>2025-10-23T09:20:08Z</time>
      </trkpt>
      <trkpt lat="43.60168" lon="3.08895">
        <ele>282.199907</ele>
        <time>2025-10-23T09:20:09Z</time>
      </trkpt>
      <trkpt lat="43.60172" lon="3.08897">
        <ele>282.334545</ele>
        <time>2025-10-23T09:20:10Z</time>
      </trkpt>
      <trkpt lat="43.60175" lon="3.08898">
        <ele>282.44002</ele>
        <time>2025-10-23T09:20:11Z</time>
      </trkpt>
      <trkpt lat="43.60178" lon="3.089">
        <ele>282.534707</ele>
        <time>2025-10-23T09:20:12Z</time>
      </trkpt>
      <trkpt lat="43.60181" lon="3.08901">
        <ele>282.636375</ele>
        <time>2025-10-23T09:20:13Z</time>
      </trkpt>
      <trkpt lat="43.60184" lon="3.08903">
        <ele>282.740248</ele>
        <time>2025-10-23T09:20:14Z</time>
      </trkpt>
      <trkpt lat="43.60186" lon="3.08904">
        <ele>282.83756</ele>
        <time>2025-10-23T09:20:15Z</time>
      </trkpt>
      <trkpt lat="43.6019" lon="3.08905">
        <ele>282.944373</ele>
        <time>2025-10-23T09:20:16Z</time>
      </trkpt>
      <trkpt lat="43.60193" lon="3.08906">
        <ele>283.05547</ele>
        <time>2025-10-23T09:20:17Z</time>
      </trkpt>
      <trkpt lat="43.60196" lon="3.08907">
        <ele>283.155485</ele>
        <time>2025-10-23T09:20:18Z</time>
      </trkpt>
      <trkpt lat="43.60199" lon="3.08909">
        <ele>283.26859</ele>
        <time>2025-10-23T09:20:19Z</time>
      </trkpt>
      <trkpt lat="43.60202" lon="3.0891">
        <ele>283.370954</ele>
        <time>2025-10-23T09:20:20Z</time>
      </trkpt>
      <trkpt lat="43.60205" lon="3.08911">
        <ele>283.463295</ele>
        <time>2025-10-23T09:20:21Z</time>
      </trkpt>
      <trkpt lat="43.60207" lon="3.08912">
        <ele>283.537995</ele>
        <time>2025-10-23T09:20:22Z</time>
      </trkpt>
      <trkpt lat="43.60209" lon="3.08913">
        <ele>283.589542</ele>
        <time>2025-10-23T09:20:23Z</time>
      </trkpt>
      <trkpt lat="43.60209" lon="3.08913">
        <ele>283.609076</ele>
        <time>2025-10-23T09:20:24Z</time>
      </trkpt>
      <trkpt lat="43.60209" lon="3.08913">
        <ele>283.619052</ele>
        <time>2025-10-23T09:20:25Z</time>
      </trkpt>
      <trkpt lat="43.60209" lon="3.08913">
        <ele>283.62141</ele>
        <time>2025-10-23T09:20:26Z</time>
      </trkpt>
      <trkpt lat="43.60209" lon="3.08912">
        <ele>283.626125</ele>
        <time>2025-10-23T09:20:27Z</time>
      </trkpt>
      <trkpt lat="43.60209" lon="3.08912">
        <ele>283.62938</ele>
        <time>2025-10-23T09:20:28Z</time>
      </trkpt>
      <trkpt lat="43.60209" lon="3.08912">
        <ele>283.632636</ele>
        <time>2025-10-23T09:20:29Z</time>
      </trkpt>
      <trkpt lat="43.60209" lon="3.08912">
        <ele>283.635891</ele>
        <time>2025-10-23T09:20:30Z</time>
      </trkpt>
      <trkpt lat="43.60214" lon="3.08914">
        <ele>283.81358</ele>
        <time>2025-10-23T09:20:58Z</time>
      </trkpt>
      <trkpt lat="43.60217" lon="3.08915">
        <ele>283.899001</ele>
        <time>2025-10-23T09:20:59Z</time>
      </trkpt>
      <trkpt lat="43.60219" lon="3.08917">
        <ele>283.996609</ele>
        <time>2025-10-23T09:21:00Z</time>
      </trkpt>
      <trkpt lat="43.60223" lon="3.08919">
        <ele>284.107027</ele>
        <time>2025-10-23T09:21:01Z</time>
      </trkpt>
      <trkpt lat="43.60226" lon="3.08921">
        <ele>284.215617</ele>
        <time>2025-10-23T09:21:02Z</time>
      </trkpt>
      <trkpt lat="43.60229" lon="3.08923">
        <ele>284.331128</ele>
        <time>2025-10-23T09:21:03Z</time>
      </trkpt>
      <trkpt lat="43.60232" lon="3.08925">
        <ele>284.444002</ele>
        <time>2025-10-23T09:21:04Z</time>
      </trkpt>
      <trkpt lat="43.60235" lon="3.08927">
        <ele>284.553501</ele>
        <time>2025-10-23T09:21:05Z</time>
      </trkpt>
      <trkpt lat="43.60238" lon="3.08929">
        <ele>284.669202</ele>
        <time>2025-10-23T09:21:06Z</time>
      </trkpt>
      <trkpt lat="43.60241" lon="3.08931">
        <ele>284.771831</ele>
        <time>2025-10-23T09:21:07Z</time>
      </trkpt>
      <trkpt lat="43.60244" lon="3.08934">
        <ele>284.880707</ele>
        <time>2025-10-23T09:21:08Z</time>
      </trkpt>
      <trkpt lat="43.60247" lon="3.08936">
        <ele>284.991292</ele>
        <time>2025-10-23T09:21:09Z</time>
      </trkpt>
      <trkpt lat="43.6025" lon="3.08938">
        <ele>285.096823</ele>
        <time>2025-10-23T09:21:10Z</time>
      </trkpt>
      <trkpt lat="43.60253" lon="3.0894">
        <ele>285.208217</ele>
        <time>2025-10-23T09:21:11Z</time>
      </trkpt>
      <trkpt lat="43.60256" lon="3.08942">
        <ele>285.317092</ele>
        <time>2025-10-23T09:21:12Z</time>
      </trkpt>
      <trkpt lat="43.60258" lon="3.08945">
        <ele>285.426941</ele>
        <time>2025-10-23T09:21:13Z</time>
      </trkpt>
      <trkpt lat="43.60261" lon="3.08948">
        <ele>285.54214</ele>
        <time>2025-10-23T09:21:14Z</time>
      </trkpt>
      <trkpt lat="43.60264" lon="3.0895">
        <ele>285.656006</ele>
        <time>2025-10-23T09:21:15Z</time>
      </trkpt>
      <trkpt lat="43.60267" lon="3.08953">
        <ele>285.767187</ele>
        <time>2025-10-23T09:21:16Z</time>
      </trkpt>
      <trkpt lat="43.6027" lon="3.08956">
        <ele>285.875715</ele>
        <time>2025-10-23T09:21:17Z</time>
      </trkpt>
      <trkpt lat="43.60272" lon="3.08959">
        <ele>285.985642</ele>
        <time>2025-10-23T09:21:18Z</time>
      </trkpt>
      <trkpt lat="43.60275" lon="3.08961">
        <ele>286.094169</ele>
        <time>2025-10-23T09:21:19Z</time>
      </trkpt>
      <trkpt lat="43.60278" lon="3.08964">
        <ele>286.198706</ele>
        <time>2025-10-23T09:21:20Z</time>
      </trkpt>
      <trkpt lat="43.6028" lon="3.08966">
        <ele>286.293812</ele>
        <time>2025-10-23T09:21:21Z</time>
      </trkpt>
      <trkpt lat="43.60282" lon="3.08968">
        <ele>286.375546</ele>
        <time>2025-10-23T09:21:22Z</time>
      </trkpt>
      <trkpt lat="43.60285" lon="3.0897">
        <ele>286.464033</ele>
        <time>2025-10-23T09:21:23Z</time>
      </trkpt>
      <trkpt lat="43.60287" lon="3.08971">
        <ele>286.544981</ele>
        <time>2025-10-23T09:21:24Z</time>
      </trkpt>
      <trkpt lat="43.60289" lon="3.08973">
        <ele>286.631744</ele>
        <time>2025-10-23T09:21:25Z</time>
      </trkpt>
      <trkpt lat="43.60292" lon="3.08975">
        <ele>286.72145</ele>
        <time>2025-10-23T09:21:26Z</time>
      </trkpt>
      <trkpt lat="43.60294" lon="3.08976">
        <ele>286.813238</ele>
        <time>2025-10-23T09:21:27Z</time>
      </trkpt>
      <trkpt lat="43.60297" lon="3.08979">
        <ele>286.9204</ele>
        <time>2025-10-23T09:21:28Z</time>
      </trkpt>
      <trkpt lat="43.60299" lon="3.08981">
        <ele>287.007833</ele>
        <time>2025-10-23T09:21:29Z</time>
      </trkpt>
      <trkpt lat="43.60302" lon="3.08984">
        <ele>287.109928</ele>
        <time>2025-10-23T09:21:30Z</time>
      </trkpt>
      <trkpt lat="43.60304" lon="3.08986">
        <ele>287.206592</ele>
        <time>2025-10-23T09:21:31Z</time>
      </trkpt>
      <trkpt lat="43.60306" lon="3.08989">
        <ele>287.303256</ele>
        <time>2025-10-23T09:21:32Z</time>
      </trkpt>
      <trkpt lat="43.60308" lon="3.08991">
        <ele>287.389691</ele>
        <time>2025-10-23T09:21:33Z</time>
      </trkpt>
      <trkpt lat="43.6031" lon="3.08993">
        <ele>287.47159</ele>
        <time>2025-10-23T09:21:34Z</time>
      </trkpt>
      <trkpt lat="43.60313" lon="3.08995">
        <ele>287.55902</ele>
        <time>2025-10-23T09:21:35Z</time>
      </trkpt>
      <trkpt lat="43.60315" lon="3.08997">
        <ele>287.630159</ele>
        <time>2025-10-23T09:21:36Z</time>
      </trkpt>
      <trkpt lat="43.60317" lon="3.08999">
        <ele>287.713376</ele>
        <time>2025-10-23T09:21:37Z</time>
      </trkpt>
      <trkpt lat="43.60319" lon="3.09">
        <ele>287.79136</ele>
        <time>2025-10-23T09:21:38Z</time>
      </trkpt>
      <trkpt lat="43.60321" lon="3.09001">
        <ele>287.871567</ele>
        <time>2025-10-23T09:21:39Z</time>
      </trkpt>
      <trkpt lat="43.60324" lon="3.09002">
        <ele>287.957504</ele>
        <time>2025-10-23T09:21:40Z</time>
      </trkpt>
      <trkpt lat="43.60326" lon="3.09004">
        <ele>288.05387</ele>
        <time>2025-10-23T09:21:41Z</time>
      </trkpt>
      <trkpt lat="43.60329" lon="3.09005">
        <ele>288.134076</ele>
        <time>2025-10-23T09:21:42Z</time>
      </trkpt>
      <trkpt lat="43.60331" lon="3.09006">
        <ele>288.225997</ele>
        <time>2025-10-23T09:21:43Z</time>
      </trkpt>
      <trkpt lat="43.60334" lon="3.09007">
        <ele>288.308489</ele>
        <time>2025-10-23T09:21:44Z</time>
      </trkpt>
      <trkpt lat="43.60336" lon="3.09009">
        <ele>288.387898</ele>
        <time>2025-10-23T09:21:45Z</time>
      </trkpt>
      <trkpt lat="43.60338" lon="3.0901">
        <ele>288.478934</ele>
        <time>2025-10-23T09:21:46Z</time>
      </trkpt>
      <trkpt lat="43.60341" lon="3.09012">
        <ele>288.587607</ele>
        <time>2025-10-23T09:21:47Z</time>
      </trkpt>
      <trkpt lat="43.60344" lon="3.09014">
        <ele>288.679049</ele>
        <time>2025-10-23T09:21:48Z</time>
      </trkpt>
      <trkpt lat="43.60346" lon="3.09016">
        <ele>288.769955</ele>
        <time>2025-10-23T09:21:49Z</time>
      </trkpt>
      <trkpt lat="43.60349" lon="3.09018">
        <ele>288.872791</ele>
        <time>2025-10-23T09:21:50Z</time>
      </trkpt>
      <trkpt lat="43.60352" lon="3.09019">
        <ele>288.97155</ele>
        <time>2025-10-23T09:21:51Z</time>
      </trkpt>
      <trkpt lat="43.60355" lon="3.09021">
        <ele>289.075633</ele>
        <time>2025-10-23T09:21:52Z</time>
      </trkpt>
      <trkpt lat="43.60358" lon="3.09023">
        <ele>289.185923</ele>
        <time>2025-10-23T09:21:53Z</time>
      </trkpt>
      <trkpt lat="43.6036" lon="3.09025">
        <ele>289.261289</ele>
        <time>2025-10-23T09:21:54Z</time>
      </trkpt>
      <trkpt lat="43.60362" lon="3.09028">
        <ele>289.355437</ele>
        <time>2025-10-23T09:21:55Z</time>
      </trkpt>
      <trkpt lat="43.60364" lon="3.09031">
        <ele>289.464267</ele>
        <time>2025-10-23T09:21:56Z</time>
      </trkpt>
      <trkpt lat="43.60366" lon="3.09035">
        <ele>289.561862</ele>
        <time>2025-10-23T09:21:57Z</time>
      </trkpt>
      <trkpt lat="43.60367" lon="3.09038">
        <ele>289.654782</ele>
        <time>2025-10-23T09:21:58Z</time>
      </trkpt>
      <trkpt lat="43.60368" lon="3.09042">
        <ele>289.745865</ele>
        <time>2025-10-23T09:21:59Z</time>
      </trkpt>
      <trkpt lat="43.60369" lon="3.09045">
        <ele>289.835831</ele>
        <time>2025-10-23T09:22:00Z</time>
      </trkpt>
      <trkpt lat="43.6037" lon="3.09049">
        <ele>289.933858</ele>
        <time>2025-10-23T09:22:01Z</time>
      </trkpt>
      <trkpt lat="43.60371" lon="3.09054">
        <ele>290.042584</ele>
        <time>2025-10-23T09:22:02Z</time>
      </trkpt>
      <trkpt lat="43.60371" lon="3.09058">
        <ele>290.149682</ele>
        <time>2025-10-23T09:22:03Z</time>
      </trkpt>
      <trkpt lat="43.60371" lon="3.09063">
        <ele>290.257227</ele>
        <time>2025-10-23T09:22:04Z</time>
      </trkpt>
      <trkpt lat="43.60372" lon="3.09067">
        <ele>290.348443</ele>
        <time>2025-10-23T09:22:05Z</time>
      </trkpt>
      <trkpt lat="43.60374" lon="3.0907">
        <ele>290.437185</ele>
        <time>2025-10-23T09:22:06Z</time>
      </trkpt>
      <trkpt lat="43.60376" lon="3.09073">
        <ele>290.529192</ele>
        <time>2025-10-23T09:22:07Z</time>
      </trkpt>
      <trkpt lat="43.60378" lon="3.09074">
        <ele>290.625994</ele>
        <time>2025-10-23T09:22:08Z</time>
      </trkpt>
      <trkpt lat="43.60382" lon="3.09075">
        <ele>290.730624</ele>
        <time>2025-10-23T09:22:09Z</time>
      </trkpt>
      <trkpt lat="43.60384" lon="3.09074">
        <ele>290.822239</ele>
        <time>2025-10-23T09:22:10Z</time>
      </trkpt>
      <trkpt lat="43.60387" lon="3.09074">
        <ele>290.905016</ele>
        <time>2025-10-23T09:22:11Z</time>
      </trkpt>
      <trkpt lat="43.60389" lon="3.09073">
        <ele>290.990611</ele>
        <time>2025-10-23T09:22:12Z</time>
      </trkpt>
      <trkpt lat="43.60392" lon="3.09072">
        <ele>291.07063</ele>
        <time>2025-10-23T09:22:13Z</time>
      </trkpt>
      <trkpt lat="43.60394" lon="3.09071">
        <ele>291.147793</ele>
        <time>2025-10-23T09:22:14Z</time>
      </trkpt>
      <trkpt lat="43.60396" lon="3.0907">
        <ele>291.220948</ele>
        <time>2025-10-23T09:22:15Z</time>
      </trkpt>
      <trkpt lat="43.60399" lon="3.09069">
        <ele>291.308388</ele>
        <time>2025-10-23T09:22:16Z</time>
      </trkpt>
      <trkpt lat="43.60401" lon="3.09069">
        <ele>291.384343</ele>
        <time>2025-10-23T09:22:17Z</time>
      </trkpt>
      <trkpt lat="43.60403" lon="3.09068">
        <ele>291.463907</ele>
        <time>2025-10-23T09:22:18Z</time>
      </trkpt>
      <trkpt lat="43.60406" lon="3.09068">
        <ele>291.546313</ele>
        <time>2025-10-23T09:22:19Z</time>
      </trkpt>
      <trkpt lat="43.60408" lon="3.09067">
        <ele>291.619046</ele>
        <time>2025-10-23T09:22:20Z</time>
      </trkpt>
      <trkpt lat="43.60411" lon="3.09067">
        <ele>291.701147</ele>
        <time>2025-10-23T09:22:21Z</time>
      </trkpt>
      <trkpt lat="43.60413" lon="3.09066">
        <ele>291.780711</ele>
        <time>2025-10-23T09:22:22Z</time>
      </trkpt>
      <trkpt lat="43.60415" lon="3.09066">
        <ele>291.859324</ele>
        <time>2025-10-23T09:22:23Z</time>
      </trkpt>
      <trkpt lat="43.60418" lon="3.09065">
        <ele>291.957446</ele>
        <time>2025-10-23T09:22:24Z</time>
      </trkpt>
      <trkpt lat="43.60422" lon="3.09065">
        <ele>292.072813</ele>
        <time>2025-10-23T09:22:25Z</time>
      </trkpt>
      <trkpt lat="43.60425" lon="3.09064">
        <ele>292.167779</ele>
        <time>2025-10-23T09:22:26Z</time>
      </trkpt>
      <trkpt lat="43.60427" lon="3.09063">
        <ele>292.256646</ele>
        <time>2025-10-23T09:22:27Z</time>
      </trkpt>
      <trkpt lat="43.6043" lon="3.09062">
        <ele>292.347837</ele>
        <time>2025-10-23T09:22:28Z</time>
      </trkpt>
      <trkpt lat="43.60432" lon="3.09061">
        <ele>292.423393</ele>
        <time>2025-10-23T09:22:29Z</time>
      </trkpt>
      <trkpt lat="43.60435" lon="3.0906">
        <ele>292.506607</ele>
        <time>2025-10-23T09:22:30Z</time>
      </trkpt>
      <trkpt lat="43.60437" lon="3.0906">
        <ele>292.585468</ele>
        <time>2025-10-23T09:22:31Z</time>
      </trkpt>
      <trkpt lat="43.6044" lon="3.0906">
        <ele>292.670317</ele>
        <time>2025-10-23T09:22:32Z</time>
      </trkpt>
      <trkpt lat="43.60442" lon="3.0906">
        <ele>292.752179</ele>
        <time>2025-10-23T09:22:33Z</time>
      </trkpt>
      <trkpt lat="43.60444" lon="3.09059">
        <ele>292.841474</ele>
        <time>2025-10-23T09:22:34Z</time>
      </trkpt>
      <trkpt lat="43.60447" lon="3.09058">
        <ele>292.964473</ele>
        <time>2025-10-23T09:22:35Z</time>
      </trkpt>
      <trkpt lat="43.60449" lon="3.09058">
        <ele>293.076503</ele>
        <time>2025-10-23T09:22:36Z</time>
      </trkpt>
      <trkpt lat="43.60451" lon="3.09057">
        <ele>293.20547</ele>
        <time>2025-10-23T09:22:37Z</time>
      </trkpt>
      <trkpt lat="43.60454" lon="3.09056">
        <ele>293.328469</ele>
        <time>2025-10-23T09:22:38Z</time>
      </trkpt>
      <trkpt lat="43.60456" lon="3.09055">
        <ele>293.457436</ele>
        <time>2025-10-23T09:22:39Z</time>
      </trkpt>
      <trkpt lat="43.60458" lon="3.09054">
        <ele>293.587438</ele>
        <time>2025-10-23T09:22:40Z</time>
      </trkpt>
      <trkpt lat="43.60461" lon="3.09054">
        <ele>293.703061</ele>
        <time>2025-10-23T09:22:41Z</time>
      </trkpt>
      <trkpt lat="43.60463" lon="3.09053">
        <ele>293.818684</ele>
        <time>2025-10-23T09:22:42Z</time>
      </trkpt>
      <trkpt lat="43.60465" lon="3.09052">
        <ele>293.961887</ele>
        <time>2025-10-23T09:22:43Z</time>
      </trkpt>
      <trkpt lat="43.60468" lon="3.09052">
        <ele>294.113955</ele>
        <time>2025-10-23T09:22:44Z</time>
      </trkpt>
      <trkpt lat="43.60471" lon="3.09051">
        <ele>294.255774</ele>
        <time>2025-10-23T09:22:45Z</time>
      </trkpt>
      <trkpt lat="43.60474" lon="3.0905">
        <ele>294.404052</ele>
        <time>2025-10-23T09:22:46Z</time>
      </trkpt>
      <trkpt lat="43.60477" lon="3.0905">
        <ele>294.56125</ele>
        <time>2025-10-23T09:22:47Z</time>
      </trkpt>
      <trkpt lat="43.60479" lon="3.09049">
        <ele>294.687733</ele>
        <time>2025-10-23T09:22:48Z</time>
      </trkpt>
      <trkpt lat="43.60482" lon="3.09048">
        <ele>294.827696</ele>
        <time>2025-10-23T09:22:49Z</time>
      </trkpt>
      <trkpt lat="43.60484" lon="3.09047">
        <ele>294.966698</ele>
        <time>2025-10-23T09:22:50Z</time>
      </trkpt>
      <trkpt lat="43.60487" lon="3.09046">
        <ele>295.106575</ele>
        <time>2025-10-23T09:22:51Z</time>
      </trkpt>
      <trkpt lat="43.60489" lon="3.09044">
        <ele>295.250035</ele>
        <time>2025-10-23T09:22:52Z</time>
      </trkpt>
      <trkpt lat="43.60492" lon="3.09041">
        <ele>295.410101</ele>
        <time>2025-10-23T09:22:53Z</time>
      </trkpt>
      <trkpt lat="43.60494" lon="3.09039">
        <ele>295.574395</ele>
        <time>2025-10-23T09:22:54Z</time>
      </trkpt>
      <trkpt lat="43.60497" lon="3.09036">
        <ele>295.737323</ele>
        <time>2025-10-23T09:22:55Z</time>
      </trkpt>
      <trkpt lat="43.60499" lon="3.09033">
        <ele>295.906021</ele>
        <time>2025-10-23T09:22:56Z</time>
      </trkpt>
      <trkpt lat="43.60502" lon="3.0903">
        <ele>296.070605</ele>
        <time>2025-10-23T09:22:57Z</time>
      </trkpt>
      <trkpt lat="43.60504" lon="3.09028">
        <ele>296.235188</ele>
        <time>2025-10-23T09:22:58Z</time>
      </trkpt>
      <trkpt lat="43.60507" lon="3.09025">
        <ele>296.410887</ele>
        <time>2025-10-23T09:22:59Z</time>
      </trkpt>
      <trkpt lat="43.6051" lon="3.09022">
        <ele>296.601066</ele>
        <time>2025-10-23T09:23:00Z</time>
      </trkpt>
      <trkpt lat="43.60513" lon="3.09019">
        <ele>296.791726</ele>
        <time>2025-10-23T09:23:01Z</time>
      </trkpt>
      <trkpt lat="43.60516" lon="3.09017">
        <ele>296.981755</ele>
        <time>2025-10-23T09:23:02Z</time>
      </trkpt>
      <trkpt lat="43.6052" lon="3.09015">
        <ele>297.163905</ele>
        <time>2025-10-23T09:23:03Z</time>
      </trkpt>
      <trkpt lat="43.60523" lon="3.09014">
        <ele>297.357856</ele>
        <time>2025-10-23T09:23:04Z</time>
      </trkpt>
      <trkpt lat="43.60526" lon="3.09012">
        <ele>297.533101</ele>
        <time>2025-10-23T09:23:05Z</time>
      </trkpt>
      <trkpt lat="43.60529" lon="3.09011">
        <ele>297.693693</ele>
        <time>2025-10-23T09:23:06Z</time>
      </trkpt>
      <trkpt lat="43.60532" lon="3.09009">
        <ele>297.844615</ele>
        <time>2025-10-23T09:23:07Z</time>
      </trkpt>
      <trkpt lat="43.60535" lon="3.09008">
        <ele>297.990739</ele>
        <time>2025-10-23T09:23:08Z</time>
      </trkpt>
      <trkpt lat="43.60537" lon="3.09006">
        <ele>298.132901</ele>
        <time>2025-10-23T09:23:09Z</time>
      </trkpt>
      <trkpt lat="43.6054" lon="3.09005">
        <ele>298.281184</ele>
        <time>2025-10-23T09:23:10Z</time>
      </trkpt>
      <trkpt lat="43.60543" lon="3.09004">
        <ele>298.447167</ele>
        <time>2025-10-23T09:23:11Z</time>
      </trkpt>
      <trkpt lat="43.60546" lon="3.09003">
        <ele>298.599234</ele>
        <time>2025-10-23T09:23:12Z</time>
      </trkpt>
      <trkpt lat="43.60549" lon="3.09002">
        <ele>298.758438</ele>
        <time>2025-10-23T09:23:13Z</time>
      </trkpt>
      <trkpt lat="43.60552" lon="3.09002">
        <ele>298.925907</ele>
        <time>2025-10-23T09:23:14Z</time>
      </trkpt>
      <trkpt lat="43.60556" lon="3.09002">
        <ele>299.112635</ele>
        <time>2025-10-23T09:23:15Z</time>
      </trkpt>
      <trkpt lat="43.60559" lon="3.09002">
        <ele>299.268933</ele>
        <time>2025-10-23T09:23:16Z</time>
      </trkpt>
      <trkpt lat="43.60562" lon="3.09003">
        <ele>299.421</ele>
        <time>2025-10-23T09:23:17Z</time>
      </trkpt>
      <trkpt lat="43.60564" lon="3.09004">
        <ele>299.554979</ele>
        <time>2025-10-23T09:23:18Z</time>
      </trkpt>
      <trkpt lat="43.60567" lon="3.09005">
        <ele>299.705901</ele>
        <time>2025-10-23T09:23:19Z</time>
      </trkpt>
      <trkpt lat="43.6057" lon="3.09007">
        <ele>299.864517</ele>
        <time>2025-10-23T09:23:20Z</time>
      </trkpt>
      <trkpt lat="43.60572" lon="3.09009">
        <ele>299.9998</ele>
        <time>2025-10-23T09:23:21Z</time>
      </trkpt>
      <trkpt lat="43.60574" lon="3.09009">
        <ele>300.13484</ele>
        <time>2025-10-23T09:23:22Z</time>
      </trkpt>
      <trkpt lat="43.60577" lon="3.0901">
        <ele>300.274803</ele>
        <time>2025-10-23T09:23:23Z</time>
      </trkpt>
      <trkpt lat="43.60579" lon="3.0901">
        <ele>300.386833</ele>
        <time>2025-10-23T09:23:24Z</time>
      </trkpt>
      <trkpt lat="43.60582" lon="3.09011">
        <ele>300.517831</ele>
        <time>2025-10-23T09:23:25Z</time>
      </trkpt>
      <trkpt lat="43.60584" lon="3.09011">
        <ele>300.664243</ele>
        <time>2025-10-23T09:23:26Z</time>
      </trkpt>
      <trkpt lat="43.60587" lon="3.09012">
        <ele>300.817603</ele>
        <time>2025-10-23T09:23:27Z</time>
      </trkpt>
      <trkpt lat="43.6059" lon="3.09013">
        <ele>300.958874</ele>
        <time>2025-10-23T09:23:28Z</time>
      </trkpt>
      <trkpt lat="43.60593" lon="3.09013">
        <ele>301.088574</ele>
        <time>2025-10-23T09:23:29Z</time>
      </trkpt>
      <trkpt lat="43.60595" lon="3.09013">
        <ele>301.218274</ele>
        <time>2025-10-23T09:23:30Z</time>
      </trkpt>
      <trkpt lat="43.60598" lon="3.09012">
        <ele>301.358493</ele>
        <time>2025-10-23T09:23:31Z</time>
      </trkpt>
      <trkpt lat="43.60601" lon="3.09013">
        <ele>301.509069</ele>
        <time>2025-10-23T09:23:32Z</time>
      </trkpt>
      <trkpt lat="43.60604" lon="3.09013">
        <ele>301.66983</ele>
        <time>2025-10-23T09:23:33Z</time>
      </trkpt>
      <trkpt lat="43.60607" lon="3.09012">
        <ele>301.841333</ele>
        <time>2025-10-23T09:23:34Z</time>
      </trkpt>
      <trkpt lat="43.6061" lon="3.09012">
        <ele>302.007322</ele>
        <time>2025-10-23T09:23:35Z</time>
      </trkpt>
      <trkpt lat="43.60613" lon="3.09012">
        <ele>302.116025</ele>
        <time>2025-10-23T09:23:36Z</time>
      </trkpt>
      <trkpt lat="43.60616" lon="3.09013">
        <ele>302.113457</ele>
        <time>2025-10-23T09:23:37Z</time>
      </trkpt>
      <trkpt lat="43.60619" lon="3.09014">
        <ele>302.110648</ele>
        <time>2025-10-23T09:23:38Z</time>
      </trkpt>
      <trkpt lat="43.60622" lon="3.09016">
        <ele>302.107795</ele>
        <time>2025-10-23T09:23:39Z</time>
      </trkpt>
      <trkpt lat="43.60625" lon="3.09018">
        <ele>302.105061</ele>
        <time>2025-10-23T09:23:40Z</time>
      </trkpt>
      <trkpt lat="43.60628" lon="3.09021">
        <ele>302.10226</ele>
        <time>2025-10-23T09:23:41Z</time>
      </trkpt>
      <trkpt lat="43.60631" lon="3.09023">
        <ele>302.099028</ele>
        <time>2025-10-23T09:23:42Z</time>
      </trkpt>
      <trkpt lat="43.60634" lon="3.09026">
        <ele>302.095401</ele>
        <time>2025-10-23T09:23:43Z</time>
      </trkpt>
      <trkpt lat="43.60637" lon="3.0903">
        <ele>302.092056</ele>
        <time>2025-10-23T09:23:44Z</time>
      </trkpt>
      <trkpt lat="43.60641" lon="3.09033">
        <ele>302.088237</ele>
        <time>2025-10-23T09:23:45Z</time>
      </trkpt>
      <trkpt lat="43.60645" lon="3.09036">
        <ele>302.084602</ele>
        <time>2025-10-23T09:23:46Z</time>
      </trkpt>
      <trkpt lat="43.60648" lon="3.09039">
        <ele>302.08076</ele>
        <time>2025-10-23T09:23:47Z</time>
      </trkpt>
      <trkpt lat="43.60652" lon="3.09042">
        <ele>302.077109</ele>
        <time>2025-10-23T09:23:48Z</time>
      </trkpt>
      <trkpt lat="43.60656" lon="3.09045">
        <ele>302.073215</ele>
        <time>2025-10-23T09:23:49Z</time>
      </trkpt>
      <trkpt lat="43.6066" lon="3.09047">
        <ele>302.069437</ele>
        <time>2025-10-23T09:23:50Z</time>
      </trkpt>
      <trkpt lat="43.60664" lon="3.0905">
        <ele>302.065633</ele>
        <time>2025-10-23T09:23:51Z</time>
      </trkpt>
      <trkpt lat="43.60668" lon="3.09051">
        <ele>302.061849</ele>
        <time>2025-10-23T09:23:52Z</time>
      </trkpt>
      <trkpt lat="43.60672" lon="3.09052">
        <ele>302.057948</ele>
        <time>2025-10-23T09:23:53Z</time>
      </trkpt>
      <trkpt lat="43.60677" lon="3.09053">
        <ele>302.053657</ele>
        <time>2025-10-23T09:23:54Z</time>
      </trkpt>
      <trkpt lat="43.60682" lon="3.09053">
        <ele>302.049293</ele>
        <time>2025-10-23T09:23:55Z</time>
      </trkpt>
      <trkpt lat="43.60687" lon="3.09053">
        <ele>302.045279</ele>
        <time>2025-10-23T09:23:56Z</time>
      </trkpt>
      <trkpt lat="43.60691" lon="3.09054">
        <ele>302.041867</ele>
        <time>2025-10-23T09:23:57Z</time>
      </trkpt>
      <trkpt lat="43.60694" lon="3.09054">
        <ele>302.038814</ele>
        <time>2025-10-23T09:23:58Z</time>
      </trkpt>
      <trkpt lat="43.60698" lon="3.09054">
        <ele>302.035847</ele>
        <time>2025-10-23T09:23:59Z</time>
      </trkpt>
      <trkpt lat="43.60701" lon="3.09053">
        <ele>302.033044</ele>
        <time>2025-10-23T09:24:00Z</time>
      </trkpt>
      <trkpt lat="43.60704" lon="3.09053">
        <ele>302.030253</ele>
        <time>2025-10-23T09:24:01Z</time>
      </trkpt>
      <trkpt lat="43.60708" lon="3.09053">
        <ele>302.027024</ele>
        <time>2025-10-23T09:24:02Z</time>
      </trkpt>
      <trkpt lat="43.60712" lon="3.09053">
        <ele>302.023617</ele>
        <time>2025-10-23T09:24:03Z</time>
      </trkpt>
      <trkpt lat="43.60716" lon="3.09053">
        <ele>302.0203</ele>
        <time>2025-10-23T09:24:04Z</time>
      </trkpt>
      <trkpt lat="43.6072" lon="3.09053">
        <ele>302.016808</ele>
        <time>2025-10-23T09:24:05Z</time>
      </trkpt>
      <trkpt lat="43.60724" lon="3.09054">
        <ele>302.013314</ele>
        <time>2025-10-23T09:24:06Z</time>
      </trkpt>
      <trkpt lat="43.60728" lon="3.09054">
        <ele>302.009293</ele>
        <time>2025-10-23T09:24:07Z</time>
      </trkpt>
      <trkpt lat="43.60733" lon="3.09055">
        <ele>302.005162</ele>
        <time>2025-10-23T09:24:08Z</time>
      </trkpt>
      <trkpt lat="43.60738" lon="3.09056">
        <ele>302.000952</ele>
        <time>2025-10-23T09:24:09Z</time>
      </trkpt>
      <trkpt lat="43.60743" lon="3.09056">
        <ele>301.996487</ele>
        <time>2025-10-23T09:24:10Z</time>
      </trkpt>
      <trkpt lat="43.60748" lon="3.09056">
        <ele>301.991776</ele>
        <time>2025-10-23T09:24:11Z</time>
      </trkpt>
      <trkpt lat="43.60754" lon="3.09056">
        <ele>301.986887</ele>
        <time>2025-10-23T09:24:12Z</time>
      </trkpt>
      <trkpt lat="43.60759" lon="3.09055">
        <ele>301.982248</ele>
        <time>2025-10-23T09:24:13Z</time>
      </trkpt>
      <trkpt lat="43.60765" lon="3.09054">
        <ele>301.977401</ele>
        <time>2025-10-23T09:24:14Z</time>
      </trkpt>
      <trkpt lat="43.6077" lon="3.09053">
        <ele>301.972388</ele>
        <time>2025-10-23T09:24:15Z</time>
      </trkpt>
      <trkpt lat="43.60776" lon="3.09051">
        <ele>301.967216</ele>
        <time>2025-10-23T09:24:16Z</time>
      </trkpt>
      <trkpt lat="43.60782" lon="3.0905">
        <ele>301.962228</ele>
        <time>2025-10-23T09:24:17Z</time>
      </trkpt>
      <trkpt lat="43.60787" lon="3.09048">
        <ele>301.89779</ele>
        <time>2025-10-23T09:24:18Z</time>
      </trkpt>
      <trkpt lat="43.60793" lon="3.09047">
        <ele>301.768439</ele>
        <time>2025-10-23T09:24:19Z</time>
      </trkpt>
      <trkpt lat="43.60798" lon="3.09046">
        <ele>301.644176</ele>
        <time>2025-10-23T09:24:20Z</time>
      </trkpt>
      <trkpt lat="43.60804" lon="3.09046">
        <ele>301.514404</ele>
        <time>2025-10-23T09:24:21Z</time>
      </trkpt>
      <trkpt lat="43.6081" lon="3.09046">
        <ele>301.388688</ele>
        <time>2025-10-23T09:24:22Z</time>
      </trkpt>
      <trkpt lat="43.60816" lon="3.09047">
        <ele>301.26118</ele>
        <time>2025-10-23T09:24:23Z</time>
      </trkpt>
      <trkpt lat="43.60821" lon="3.09047">
        <ele>301.138063</ele>
        <time>2025-10-23T09:24:24Z</time>
      </trkpt>
      <trkpt lat="43.60827" lon="3.09047">
        <ele>301.014781</ele>
        <time>2025-10-23T09:24:25Z</time>
      </trkpt>
      <trkpt lat="43.60833" lon="3.09048">
        <ele>300.889307</ele>
        <time>2025-10-23T09:24:26Z</time>
      </trkpt>
      <trkpt lat="43.60838" lon="3.09049">
        <ele>300.76344</ele>
        <time>2025-10-23T09:24:27Z</time>
      </trkpt>
      <trkpt lat="43.60844" lon="3.09049">
        <ele>300.644128</ele>
        <time>2025-10-23T09:24:28Z</time>
      </trkpt>
      <trkpt lat="43.60849" lon="3.0905">
        <ele>300.522455</ele>
        <time>2025-10-23T09:24:29Z</time>
      </trkpt>
      <trkpt lat="43.60855" lon="3.09051">
        <ele>300.398927</ele>
        <time>2025-10-23T09:24:30Z</time>
      </trkpt>
      <trkpt lat="43.6086" lon="3.09052">
        <ele>300.277056</ele>
        <time>2025-10-23T09:24:31Z</time>
      </trkpt>
      <trkpt lat="43.60866" lon="3.09053">
        <ele>300.152793</ele>
        <time>2025-10-23T09:24:32Z</time>
      </trkpt>
      <trkpt lat="43.60872" lon="3.09054">
        <ele>300.028938</ele>
        <time>2025-10-23T09:24:33Z</time>
      </trkpt>
      <trkpt lat="43.60877" lon="3.09055">
        <ele>299.903071</ele>
        <time>2025-10-23T09:24:34Z</time>
      </trkpt>
      <trkpt lat="43.60883" lon="3.09055">
        <ele>299.777486</ele>
        <time>2025-10-23T09:24:35Z</time>
      </trkpt>
      <trkpt lat="43.60889" lon="3.09057">
        <ele>299.651047</ele>
        <time>2025-10-23T09:24:36Z</time>
      </trkpt>
      <trkpt lat="43.60894" lon="3.09057">
        <ele>299.529551</ele>
        <time>2025-10-23T09:24:37Z</time>
      </trkpt>
      <trkpt lat="43.609" lon="3.09059">
        <ele>299.400465</ele>
        <time>2025-10-23T09:24:38Z</time>
      </trkpt>
      <trkpt lat="43.60906" lon="3.0906">
        <ele>299.27788</ele>
        <time>2025-10-23T09:24:39Z</time>
      </trkpt>
      <trkpt lat="43.60912" lon="3.09062">
        <ele>299.142994</ele>
        <time>2025-10-23T09:24:40Z</time>
      </trkpt>
      <trkpt lat="43.60918" lon="3.09064">
        <ele>299.004884</ele>
        <time>2025-10-23T09:24:41Z</time>
      </trkpt>
      <trkpt lat="43.60924" lon="3.09066">
        <ele>298.865543</ele>
        <time>2025-10-23T09:24:42Z</time>
      </trkpt>
      <trkpt lat="43.6093" lon="3.09069">
        <ele>298.724819</ele>
        <time>2025-10-23T09:24:43Z</time>
      </trkpt>
      <trkpt lat="43.60935" lon="3.09072">
        <ele>298.603654</ele>
        <time>2025-10-23T09:24:44Z</time>
      </trkpt>
      <trkpt lat="43.60939" lon="3.09074">
        <ele>298.505826</ele>
        <time>2025-10-23T09:24:45Z</time>
      </trkpt>
      <trkpt lat="43.60942" lon="3.09076">
        <ele>298.435311</ele>
        <time>2025-10-23T09:24:46Z</time>
      </trkpt>
      <trkpt lat="43.60944" lon="3.09078">
        <ele>298.386053</ele>
        <time>2025-10-23T09:24:47Z</time>
      </trkpt>
      <trkpt lat="43.60945" lon="3.09078">
        <ele>298.364098</ele>
        <time>2025-10-23T09:24:48Z</time>
      </trkpt>
      <trkpt lat="43.60945" lon="3.09078">
        <ele>298.361386</ele>
        <time>2025-10-23T09:24:49Z</time>
      </trkpt>
      <trkpt lat="43.60944" lon="3.09078">
        <ele>298.354795</ele>
        <time>2025-10-23T09:24:50Z</time>
      </trkpt>
      <trkpt lat="43.60944" lon="3.09078">
        <ele>298.345865</ele>
        <time>2025-10-23T09:24:51Z</time>
      </trkpt>
      <trkpt lat="43.60945" lon="3.09077">
        <ele>298.326405</ele>
        <time>2025-10-23T09:24:52Z</time>
      </trkpt>
      <trkpt lat="43.60945" lon="3.09076">
        <ele>298.297437</ele>
        <time>2025-10-23T09:24:53Z</time>
      </trkpt>
      <trkpt lat="43.60945" lon="3.09074">
        <ele>298.268057</ele>
        <time>2025-10-23T09:24:54Z</time>
      </trkpt>
      <trkpt lat="43.60944" lon="3.09072">
        <ele>298.237069</ele>
        <time>2025-10-23T09:24:55Z</time>
      </trkpt>
      <trkpt lat="43.60943" lon="3.09071">
        <ele>298.210667</ele>
        <time>2025-10-23T09:24:56Z</time>
      </trkpt>
      <trkpt lat="43.60942" lon="3.09071">
        <ele>298.193354</ele>
        <time>2025-10-23T09:24:57Z</time>
      </trkpt>
      <trkpt lat="43.60942" lon="3.0907">
        <ele>298.184193</ele>
        <time>2025-10-23T09:24:58Z</time>
      </trkpt>
      <trkpt lat="43.60942" lon="3.0907">
        <ele>298.182602</ele>
        <time>2025-10-23T09:24:59Z</time>
      </trkpt>
      <trkpt lat="43.60945" lon="3.09079">
        <ele>298.029322</ele>
        <time>2025-10-23T09:25:55Z</time>
      </trkpt>
      <trkpt lat="43.60948" lon="3.09081">
        <ele>297.975796</ele>
        <time>2025-10-23T09:25:56Z</time>
      </trkpt>
      <trkpt lat="43.60952" lon="3.09083">
        <ele>297.92323</ele>
        <time>2025-10-23T09:25:57Z</time>
      </trkpt>
      <trkpt lat="43.60956" lon="3.09085">
        <ele>297.863764</ele>
        <time>2025-10-23T09:25:58Z</time>
      </trkpt>
      <trkpt lat="43.6096" lon="3.09088">
        <ele>297.800161</ele>
        <time>2025-10-23T09:25:59Z</time>
      </trkpt>
      <trkpt lat="43.60964" lon="3.09091">
        <ele>297.736105</ele>
        <time>2025-10-23T09:26:00Z</time>
      </trkpt>
      <trkpt lat="43.60968" lon="3.09095">
        <ele>297.669663</ele>
        <time>2025-10-23T09:26:01Z</time>
      </trkpt>
      <trkpt lat="43.60973" lon="3.09098">
        <ele>297.59902</ele>
        <time>2025-10-23T09:26:02Z</time>
      </trkpt>
      <trkpt lat="43.60978" lon="3.09102">
        <ele>297.521448</ele>
        <time>2025-10-23T09:26:03Z</time>
      </trkpt>
      <trkpt lat="43.60983" lon="3.09107">
        <ele>297.442831</ele>
        <time>2025-10-23T09:26:04Z</time>
      </trkpt>
      <trkpt lat="43.60988" lon="3.09111">
        <ele>297.362457</ele>
        <time>2025-10-23T09:26:05Z</time>
      </trkpt>
      <trkpt lat="43.60993" lon="3.09116">
        <ele>297.278257</ele>
        <time>2025-10-23T09:26:06Z</time>
      </trkpt>
      <trkpt lat="43.60998" lon="3.09122">
        <ele>297.189187</ele>
        <time>2025-10-23T09:26:07Z</time>
      </trkpt>
      <trkpt lat="43.61003" lon="3.09129">
        <ele>297.097629</ele>
        <time>2025-10-23T09:26:08Z</time>
      </trkpt>
      <trkpt lat="43.61006" lon="3.09137">
        <ele>297.005761</ele>
        <time>2025-10-23T09:26:09Z</time>
      </trkpt>
      <trkpt lat="43.61009" lon="3.09145">
        <ele>296.917811</ele>
        <time>2025-10-23T09:26:10Z</time>
      </trkpt>
      <trkpt lat="43.61011" lon="3.09154">
        <ele>296.829897</ele>
        <time>2025-10-23T09:26:11Z</time>
      </trkpt>
      <trkpt lat="43.61012" lon="3.09162">
        <ele>296.742147</ele>
        <time>2025-10-23T09:26:12Z</time>
      </trkpt>
      <trkpt lat="43.61013" lon="3.09172">
        <ele>296.652292</ele>
        <time>2025-10-23T09:26:13Z</time>
      </trkpt>
      <trkpt lat="43.61015" lon="3.0918">
        <ele>296.566729</ele>
        <time>2025-10-23T09:26:14Z</time>
      </trkpt>
      <trkpt lat="43.61016" lon="3.09188">
        <ele>296.486571</ele>
        <time>2025-10-23T09:26:15Z</time>
      </trkpt>
      <trkpt lat="43.61017" lon="3.09196">
        <ele>296.409422</ele>
        <time>2025-10-23T09:26:16Z</time>
      </trkpt>
      <trkpt lat="43.61018" lon="3.09203">
        <ele>296.34057</ele>
        <time>2025-10-23T09:26:17Z</time>
      </trkpt>
      <trkpt lat="43.6102" lon="3.09209">
        <ele>296.274894</ele>
        <time>2025-10-23T09:26:18Z</time>
      </trkpt>
      <trkpt lat="43.61021" lon="3.09216">
        <ele>296.209563</ele>
        <time>2025-10-23T09:26:19Z</time>
      </trkpt>
      <trkpt lat="43.61022" lon="3.09222">
        <ele>296.146447</ele>
        <time>2025-10-23T09:26:20Z</time>
      </trkpt>
      <trkpt lat="43.61023" lon="3.09228">
        <ele>296.088053</ele>
        <time>2025-10-23T09:26:21Z</time>
      </trkpt>
      <trkpt lat="43.61024" lon="3.09233">
        <ele>296.03397</ele>
        <time>2025-10-23T09:26:22Z</time>
      </trkpt>
      <trkpt lat="43.61025" lon="3.09239">
        <ele>295.978379</ele>
        <time>2025-10-23T09:26:23Z</time>
      </trkpt>
      <trkpt lat="43.61026" lon="3.09244">
        <ele>295.926604</ele>
        <time>2025-10-23T09:26:24Z</time>
      </trkpt>
      <trkpt lat="43.61026" lon="3.09249">
        <ele>295.877243</ele>
        <time>2025-10-23T09:26:25Z</time>
      </trkpt>
      <trkpt lat="43.61027" lon="3.09254">
        <ele>295.83051</ele>
        <time>2025-10-23T09:26:26Z</time>
      </trkpt>
      <trkpt lat="43.61028" lon="3.09258">
        <ele>295.782823</ele>
        <time>2025-10-23T09:26:27Z</time>
      </trkpt>
      <trkpt lat="43.61029" lon="3.09263">
        <ele>295.738948</ele>
        <time>2025-10-23T09:26:28Z</time>
      </trkpt>
      <trkpt lat="43.61029" lon="3.09267">
        <ele>295.694384</ele>
        <time>2025-10-23T09:26:29Z</time>
      </trkpt>
      <trkpt lat="43.6103" lon="3.09272">
        <ele>295.650201</ele>
        <time>2025-10-23T09:26:30Z</time>
      </trkpt>
      <trkpt lat="43.61031" lon="3.09276">
        <ele>295.604421</ele>
        <time>2025-10-23T09:26:31Z</time>
      </trkpt>
      <trkpt lat="43.61031" lon="3.09281">
        <ele>295.718231</ele>
        <time>2025-10-23T09:26:32Z</time>
      </trkpt>
      <trkpt lat="43.61032" lon="3.09285">
        <ele>295.902184</ele>
        <time>2025-10-23T09:26:33Z</time>
      </trkpt>
      <trkpt lat="43.61033" lon="3.09289">
        <ele>296.076903</ele>
        <time>2025-10-23T09:26:34Z</time>
      </trkpt>
      <trkpt lat="43.61034" lon="3.09293">
        <ele>296.251003</ele>
        <time>2025-10-23T09:26:35Z</time>
      </trkpt>
      <trkpt lat="43.61036" lon="3.09297">
        <ele>296.436886</ele>
        <time>2025-10-23T09:26:36Z</time>
      </trkpt>
      <trkpt lat="43.61038" lon="3.093">
        <ele>296.621003</ele>
        <time>2025-10-23T09:26:37Z</time>
      </trkpt>
      <trkpt lat="43.61041" lon="3.09304">
        <ele>296.817407</ele>
        <time>2025-10-23T09:26:38Z</time>
      </trkpt>
      <trkpt lat="43.61044" lon="3.09306">
        <ele>297.02085</ele>
        <time>2025-10-23T09:26:39Z</time>
      </trkpt>
      <trkpt lat="43.61047" lon="3.09307">
        <ele>297.208963</ele>
        <time>2025-10-23T09:26:40Z</time>
      </trkpt>
      <trkpt lat="43.61051" lon="3.09307">
        <ele>297.423425</ele>
        <time>2025-10-23T09:26:41Z</time>
      </trkpt>
      <trkpt lat="43.61055" lon="3.09307">
        <ele>297.63245</ele>
        <time>2025-10-23T09:26:42Z</time>
      </trkpt>
      <trkpt lat="43.61058" lon="3.09306">
        <ele>297.823901</ele>
        <time>2025-10-23T09:26:43Z</time>
      </trkpt>
      <trkpt lat="43.61061" lon="3.09305">
        <ele>297.997154</ele>
        <time>2025-10-23T09:26:44Z</time>
      </trkpt>
      <trkpt lat="43.61064" lon="3.09303">
        <ele>298.159801</ele>
        <time>2025-10-23T09:26:45Z</time>
      </trkpt>
      <trkpt lat="43.61066" lon="3.09301">
        <ele>298.332589</ele>
        <time>2025-10-23T09:26:46Z</time>
      </trkpt>
      <trkpt lat="43.61069" lon="3.09298">
        <ele>298.523005</ele>
        <time>2025-10-23T09:26:47Z</time>
      </trkpt>
      <trkpt lat="43.61072" lon="3.09296">
        <ele>298.710997</ele>
        <time>2025-10-23T09:26:48Z</time>
      </trkpt>
      <trkpt lat="43.61074" lon="3.09293">
        <ele>298.889976</ele>
        <time>2025-10-23T09:26:49Z</time>
      </trkpt>
      <trkpt lat="43.61077" lon="3.0929">
        <ele>299.081043</ele>
        <time>2025-10-23T09:26:50Z</time>
      </trkpt>
      <trkpt lat="43.61079" lon="3.09287">
        <ele>299.27211</ele>
        <time>2025-10-23T09:26:51Z</time>
      </trkpt>
      <trkpt lat="43.61082" lon="3.09284">
        <ele>299.460585</ele>
        <time>2025-10-23T09:26:52Z</time>
      </trkpt>
      <trkpt lat="43.61085" lon="3.09281">
        <ele>299.644707</ele>
        <time>2025-10-23T09:26:53Z</time>
      </trkpt>
      <trkpt lat="43.61087" lon="3.09278">
        <ele>299.846625</ele>
        <time>2025-10-23T09:26:54Z</time>
      </trkpt>
      <trkpt lat="43.6109" lon="3.09276">
        <ele>300.022989</ele>
        <time>2025-10-23T09:26:55Z</time>
      </trkpt>
      <trkpt lat="43.61093" lon="3.09274">
        <ele>300.205794</ele>
        <time>2025-10-23T09:26:56Z</time>
      </trkpt>
      <trkpt lat="43.61096" lon="3.09273">
        <ele>300.377743</ele>
        <time>2025-10-23T09:26:57Z</time>
      </trkpt>
      <trkpt lat="43.61099" lon="3.09271">
        <ele>300.564744</ele>
        <time>2025-10-23T09:26:58Z</time>
      </trkpt>
      <trkpt lat="43.61102" lon="3.09271">
        <ele>300.73472</ele>
        <time>2025-10-23T09:26:59Z</time>
      </trkpt>
      <trkpt lat="43.61105" lon="3.09271">
        <ele>300.904352</ele>
        <time>2025-10-23T09:27:00Z</time>
      </trkpt>
      <trkpt lat="43.61108" lon="3.09271">
        <ele>301.05684</ele>
        <time>2025-10-23T09:27:01Z</time>
      </trkpt>
      <trkpt lat="43.61111" lon="3.09271">
        <ele>301.221659</ele>
        <time>2025-10-23T09:27:02Z</time>
      </trkpt>
      <trkpt lat="43.61113" lon="3.09272">
        <ele>301.382912</ele>
        <time>2025-10-23T09:27:03Z</time>
      </trkpt>
      <trkpt lat="43.61118" lon="3.09273">
        <ele>301.62261</ele>
        <time>2025-10-23T09:27:04Z</time>
      </trkpt>
      <trkpt lat="43.6112" lon="3.09274">
        <ele>301.779252</ele>
        <time>2025-10-23T09:27:05Z</time>
      </trkpt>
      <trkpt lat="43.61124" lon="3.09275">
        <ele>301.980818</ele>
        <time>2025-10-23T09:27:06Z</time>
      </trkpt>
      <trkpt lat="43.61128" lon="3.09276">
        <ele>302.208071</ele>
        <time>2025-10-23T09:27:07Z</time>
      </trkpt>
      <trkpt lat="43.61132" lon="3.09277">
        <ele>302.438085</ele>
        <time>2025-10-23T09:27:08Z</time>
      </trkpt>
      <trkpt lat="43.61136" lon="3.09278">
        <ele>302.688935</ele>
        <time>2025-10-23T09:27:09Z</time>
      </trkpt>
      <trkpt lat="43.61141" lon="3.09279">
        <ele>302.944812</ele>
        <time>2025-10-23T09:27:10Z</time>
      </trkpt>
      <trkpt lat="43.61145" lon="3.0928">
        <ele>303.196987</ele>
        <time>2025-10-23T09:27:11Z</time>
      </trkpt>
      <trkpt lat="43.61149" lon="3.09281">
        <ele>303.448468</ele>
        <time>2025-10-23T09:27:12Z</time>
      </trkpt>
      <trkpt lat="43.61154" lon="3.09282">
        <ele>303.689554</ele>
        <time>2025-10-23T09:27:13Z</time>
      </trkpt>
      <trkpt lat="43.61157" lon="3.09284">
        <ele>303.861502</ele>
        <time>2025-10-23T09:27:14Z</time>
      </trkpt>
      <trkpt lat="43.6116" lon="3.09285">
        <ele>304.037643</ele>
        <time>2025-10-23T09:27:15Z</time>
      </trkpt>
      <trkpt lat="43.61167" lon="3.0932">
        <ele>305.222021</ele>
        <time>2025-10-23T09:29:41Z</time>
      </trkpt>
      <trkpt lat="43.61165" lon="3.09327">
        <ele>305.193154</ele>
        <time>2025-10-23T09:29:42Z</time>
      </trkpt>
      <trkpt lat="43.61163" lon="3.09333">
        <ele>305.162477</ele>
        <time>2025-10-23T09:29:43Z</time>
      </trkpt>
      <trkpt lat="43.61161" lon="3.09341">
        <ele>305.130404</ele>
        <time>2025-10-23T09:29:44Z</time>
      </trkpt>
      <trkpt lat="43.61159" lon="3.09348">
        <ele>305.095723</ele>
        <time>2025-10-23T09:29:45Z</time>
      </trkpt>
      <trkpt lat="43.61157" lon="3.09356">
        <ele>305.059198</ele>
        <time>2025-10-23T09:29:46Z</time>
      </trkpt>
      <trkpt lat="43.61155" lon="3.09364">
        <ele>305.022517</ele>
        <time>2025-10-23T09:29:47Z</time>
      </trkpt>
      <trkpt lat="43.61153" lon="3.09373">
        <ele>304.984433</ele>
        <time>2025-10-23T09:29:48Z</time>
      </trkpt>
      <trkpt lat="43.6115" lon="3.0938">
        <ele>304.948527</ele>
        <time>2025-10-23T09:29:49Z</time>
      </trkpt>
      <trkpt lat="43.61148" lon="3.09389">
        <ele>304.90963</ele>
        <time>2025-10-23T09:29:50Z</time>
      </trkpt>
      <trkpt lat="43.61145" lon="3.09398">
        <ele>304.868532</ele>
        <time>2025-10-23T09:29:51Z</time>
      </trkpt>
      <trkpt lat="43.61143" lon="3.09407">
        <ele>304.828839</ele>
        <time>2025-10-23T09:29:52Z</time>
      </trkpt>
      <trkpt lat="43.61141" lon="3.09415">
        <ele>304.788933</ele>
        <time>2025-10-23T09:29:53Z</time>
      </trkpt>
      <trkpt lat="43.61138" lon="3.09424">
        <ele>304.748842</ele>
        <time>2025-10-23T09:29:54Z</time>
      </trkpt>
      <trkpt lat="43.61136" lon="3.09433">
        <ele>304.709149</ele>
        <time>2025-10-23T09:29:55Z</time>
      </trkpt>
      <trkpt lat="43.61133" lon="3.09441">
        <ele>304.697318</ele>
        <time>2025-10-23T09:29:56Z</time>
      </trkpt>
      <trkpt lat="43.61129" lon="3.09449">
        <ele>304.907654</ele>
        <time>2025-10-23T09:29:57Z</time>
      </trkpt>
      <trkpt lat="43.61124" lon="3.09456">
        <ele>305.120225</ele>
        <time>2025-10-23T09:29:58Z</time>
      </trkpt>
      <trkpt lat="43.6112" lon="3.09463">
        <ele>305.327715</ele>
        <time>2025-10-23T09:29:59Z</time>
      </trkpt>
      <trkpt lat="43.61116" lon="3.0947">
        <ele>305.525565</ele>
        <time>2025-10-23T09:30:00Z</time>
      </trkpt>
      <trkpt lat="43.61113" lon="3.09475">
        <ele>305.681578</ele>
        <time>2025-10-23T09:30:01Z</time>
      </trkpt>
      <trkpt lat="43.6111" lon="3.09481">
        <ele>305.841463</ele>
        <time>2025-10-23T09:30:02Z</time>
      </trkpt>
      <trkpt lat="43.61107" lon="3.09486">
        <ele>305.983121</ele>
        <time>2025-10-23T09:30:03Z</time>
      </trkpt>
      <trkpt lat="43.61104" lon="3.0949">
        <ele>306.117635</ele>
        <time>2025-10-23T09:30:04Z</time>
      </trkpt>
      <trkpt lat="43.61101" lon="3.09495">
        <ele>306.246378</ele>
        <time>2025-10-23T09:30:05Z</time>
      </trkpt>
      <trkpt lat="43.61099" lon="3.09499">
        <ele>306.360944</ele>
        <time>2025-10-23T09:30:06Z</time>
      </trkpt>
      <trkpt lat="43.61097" lon="3.09502">
        <ele>306.460745</ele>
        <time>2025-10-23T09:30:07Z</time>
      </trkpt>
      <trkpt lat="43.61095" lon="3.09505">
        <ele>306.544265</ele>
        <time>2025-10-23T09:30:08Z</time>
      </trkpt>
      <trkpt lat="43.61093" lon="3.09508">
        <ele>306.623864</ele>
        <time>2025-10-23T09:30:09Z</time>
      </trkpt>
      <trkpt lat="43.61092" lon="3.0951">
        <ele>306.69483</ele>
        <time>2025-10-23T09:30:10Z</time>
      </trkpt>
      <trkpt lat="43.6109" lon="3.09513">
        <ele>306.769242</ele>
        <time>2025-10-23T09:30:11Z</time>
      </trkpt>
      <trkpt lat="43.61089" lon="3.09515">
        <ele>306.850852</ele>
        <time>2025-10-23T09:30:12Z</time>
      </trkpt>
      <trkpt lat="43.61088" lon="3.09518">
        <ele>306.916333</ele>
        <time>2025-10-23T09:30:13Z</time>
      </trkpt>
      <trkpt lat="43.61086" lon="3.0952">
        <ele>306.987299</ele>
        <time>2025-10-23T09:30:14Z</time>
      </trkpt>
      <trkpt lat="43.61085" lon="3.09523">
        <ele>307.05261</ele>
        <time>2025-10-23T09:30:15Z</time>
      </trkpt>
      <trkpt lat="43.61083" lon="3.09525">
        <ele>307.122407</ele>
        <time>2025-10-23T09:30:16Z</time>
      </trkpt>
      <trkpt lat="43.61082" lon="3.09527">
        <ele>307.187691</ele>
        <time>2025-10-23T09:30:17Z</time>
      </trkpt>
      <trkpt lat="43.6108" lon="3.0953">
        <ele>307.26126</ele>
        <time>2025-10-23T09:30:18Z</time>
      </trkpt>
      <trkpt lat="43.61079" lon="3.09532">
        <ele>307.333936</ele>
        <time>2025-10-23T09:30:19Z</time>
      </trkpt>
      <trkpt lat="43.61078" lon="3.09534">
        <ele>307.401025</ele>
        <time>2025-10-23T09:30:20Z</time>
      </trkpt>
      <trkpt lat="43.61076" lon="3.09537">
        <ele>307.475478</ele>
        <time>2025-10-23T09:30:21Z</time>
      </trkpt>
      <trkpt lat="43.61075" lon="3.0954">
        <ele>307.54989</ele>
        <time>2025-10-23T09:30:22Z</time>
      </trkpt>
      <trkpt lat="43.61073" lon="3.09543">
        <ele>307.628148</ele>
        <time>2025-10-23T09:30:23Z</time>
      </trkpt>
      <trkpt lat="43.61072" lon="3.09546">
        <ele>307.708038</ele>
        <time>2025-10-23T09:30:24Z</time>
      </trkpt>
      <trkpt lat="43.61071" lon="3.09549">
        <ele>307.786296</ele>
        <time>2025-10-23T09:30:25Z</time>
      </trkpt>
      <trkpt lat="43.61069" lon="3.09553">
        <ele>307.889664</ele>
        <time>2025-10-23T09:30:26Z</time>
      </trkpt>
      <trkpt lat="43.61067" lon="3.09557">
        <ele>308.003891</ele>
        <time>2025-10-23T09:30:27Z</time>
      </trkpt>
      <trkpt lat="43.61064" lon="3.09562">
        <ele>308.13807</ele>
        <time>2025-10-23T09:30:28Z</time>
      </trkpt>
      <trkpt lat="43.61061" lon="3.09566">
        <ele>308.279728</ele>
        <time>2025-10-23T09:30:29Z</time>
      </trkpt>
      <trkpt lat="43.61058" lon="3.09571">
        <ele>308.427431</ele>
        <time>2025-10-23T09:30:30Z</time>
      </trkpt>
      <trkpt lat="43.61055" lon="3.09576">
        <ele>308.582607</ele>
        <time>2025-10-23T09:30:31Z</time>
      </trkpt>
      <trkpt lat="43.61051" lon="3.09581">
        <ele>308.729151</ele>
        <time>2025-10-23T09:30:32Z</time>
      </trkpt>
      <trkpt lat="43.61048" lon="3.09585">
        <ele>308.871671</ele>
        <time>2025-10-23T09:30:33Z</time>
      </trkpt>
      <trkpt lat="43.61045" lon="3.0959">
        <ele>309.004361</ele>
        <time>2025-10-23T09:30:34Z</time>
      </trkpt>
      <trkpt lat="43.61042" lon="3.09594">
        <ele>309.133809</ele>
        <time>2025-10-23T09:30:35Z</time>
      </trkpt>
      <trkpt lat="43.6104" lon="3.09598">
        <ele>309.255346</ele>
        <time>2025-10-23T09:30:36Z</time>
      </trkpt>
      <trkpt lat="43.61038" lon="3.09603">
        <ele>309.375181</ele>
        <time>2025-10-23T09:30:37Z</time>
      </trkpt>
      <trkpt lat="43.61035" lon="3.09608">
        <ele>309.502159</ele>
        <time>2025-10-23T09:30:38Z</time>
      </trkpt>
      <trkpt lat="43.61033" lon="3.09612">
        <ele>309.625558</ele>
        <time>2025-10-23T09:30:39Z</time>
      </trkpt>
      <trkpt lat="43.61031" lon="3.09616">
        <ele>309.73641</ele>
        <time>2025-10-23T09:30:40Z</time>
      </trkpt>
      <trkpt lat="43.6103" lon="3.09621">
        <ele>309.846622</ele>
        <time>2025-10-23T09:30:41Z</time>
      </trkpt>
      <trkpt lat="43.61028" lon="3.09626">
        <ele>309.962453</ele>
        <time>2025-10-23T09:30:42Z</time>
      </trkpt>
      <trkpt lat="43.61027" lon="3.0963">
        <ele>310.068765</ele>
        <time>2025-10-23T09:30:43Z</time>
      </trkpt>
      <trkpt lat="43.61026" lon="3.09635">
        <ele>310.185786</ele>
        <time>2025-10-23T09:30:44Z</time>
      </trkpt>
      <trkpt lat="43.61024" lon="3.0964">
        <ele>310.178916</ele>
        <time>2025-10-23T09:30:45Z</time>
      </trkpt>
      <trkpt lat="43.61022" lon="3.09646">
        <ele>310.069646</ele>
        <time>2025-10-23T09:30:46Z</time>
      </trkpt>
      <trkpt lat="43.61019" lon="3.09652">
        <ele>309.942569</ele>
        <time>2025-10-23T09:30:47Z</time>
      </trkpt>
      <trkpt lat="43.61014" lon="3.09658">
        <ele>309.805675</ele>
        <time>2025-10-23T09:30:48Z</time>
      </trkpt>
      <trkpt lat="43.61009" lon="3.09663">
        <ele>309.656934</ele>
        <time>2025-10-23T09:30:49Z</time>
      </trkpt>
      <trkpt lat="43.61005" lon="3.0967">
        <ele>309.505974</ele>
        <time>2025-10-23T09:30:50Z</time>
      </trkpt>
      <trkpt lat="43.61" lon="3.09676">
        <ele>309.35067</ele>
        <time>2025-10-23T09:30:51Z</time>
      </trkpt>
      <trkpt lat="43.60996" lon="3.09684">
        <ele>309.19194</ele>
        <time>2025-10-23T09:30:52Z</time>
      </trkpt>
      <trkpt lat="43.60992" lon="3.09691">
        <ele>309.045858</ele>
        <time>2025-10-23T09:30:53Z</time>
      </trkpt>
      <trkpt lat="43.60988" lon="3.09698">
        <ele>308.895779</ele>
        <time>2025-10-23T09:30:54Z</time>
      </trkpt>
      <trkpt lat="43.60984" lon="3.09705">
        <ele>308.747883</ele>
        <time>2025-10-23T09:30:55Z</time>
      </trkpt>
      <trkpt lat="43.60979" lon="3.0971">
        <ele>308.604131</ele>
        <time>2025-10-23T09:30:56Z</time>
      </trkpt>
      <trkpt lat="43.60974" lon="3.09714">
        <ele>308.458461</ele>
        <time>2025-10-23T09:30:57Z</time>
      </trkpt>
      <trkpt lat="43.60968" lon="3.09718">
        <ele>308.313998</ele>
        <time>2025-10-23T09:30:58Z</time>
      </trkpt>
      <trkpt lat="43.60962" lon="3.09721">
        <ele>308.162916</ele>
        <time>2025-10-23T09:30:59Z</time>
      </trkpt>
      <trkpt lat="43.60955" lon="3.09723">
        <ele>308.013139</ele>
        <time>2025-10-23T09:31:00Z</time>
      </trkpt>
      <trkpt lat="43.60949" lon="3.09724">
        <ele>307.862924</ele>
        <time>2025-10-23T09:31:01Z</time>
      </trkpt>
      <trkpt lat="43.60942" lon="3.09726">
        <ele>307.709018</ele>
        <time>2025-10-23T09:31:02Z</time>
      </trkpt>
      <trkpt lat="43.60936" lon="3.09728">
        <ele>307.558803</ele>
        <time>2025-10-23T09:31:03Z</time>
      </trkpt>
      <trkpt lat="43.6093" lon="3.09729">
        <ele>307.415033</ele>
        <time>2025-10-23T09:31:04Z</time>
      </trkpt>
      <trkpt lat="43.60925" lon="3.09731">
        <ele>307.29449</ele>
        <time>2025-10-23T09:31:05Z</time>
      </trkpt>
      <trkpt lat="43.60921" lon="3.09732">
        <ele>307.207592</ele>
        <time>2025-10-23T09:31:06Z</time>
      </trkpt>
      <trkpt lat="43.60919" lon="3.09733">
        <ele>307.151376</ele>
        <time>2025-10-23T09:31:07Z</time>
      </trkpt>
      <trkpt lat="43.60918" lon="3.09733">
        <ele>307.128087</ele>
        <time>2025-10-23T09:31:08Z</time>
      </trkpt>
      <trkpt lat="43.60918" lon="3.09733">
        <ele>307.120409</ele>
        <time>2025-10-23T09:31:09Z</time>
      </trkpt>
      <trkpt lat="43.60918" lon="3.09733">
        <ele>307.118104</ele>
        <time>2025-10-23T09:31:10Z</time>
      </trkpt>
      <trkpt lat="43.60918" lon="3.09732">
        <ele>307.104493</ele>
        <time>2025-10-23T09:31:11Z</time>
      </trkpt>
      <trkpt lat="43.60919" lon="3.09732">
        <ele>307.085754</ele>
        <time>2025-10-23T09:31:12Z</time>
      </trkpt>
      <trkpt lat="43.6092" lon="3.09733">
        <ele>307.058717</ele>
        <time>2025-10-23T09:31:13Z</time>
      </trkpt>
      <trkpt lat="43.6092" lon="3.09734">
        <ele>307.05006</ele>
        <time>2025-10-23T09:31:14Z</time>
      </trkpt>
      <trkpt lat="43.6092" lon="3.09733">
        <ele>307.039569</ele>
        <time>2025-10-23T09:31:15Z</time>
      </trkpt>
      <trkpt lat="43.6092" lon="3.09733">
        <ele>307.0379</ele>
        <time>2025-10-23T09:31:16Z</time>
      </trkpt>
      <trkpt lat="43.60919" lon="3.09733">
        <ele>307.007202</ele>
        <time>2025-10-23T09:31:43Z</time>
      </trkpt>
      <trkpt lat="43.60919" lon="3.09733">
        <ele>307.007202</ele>
        <time>2025-10-23T09:31:44Z</time>
      </trkpt>
      <trkpt lat="43.60919" lon="3.09732">
        <ele>307.000397</ele>
        <time>2025-10-23T09:31:45Z</time>
      </trkpt>
      <trkpt lat="43.60918" lon="3.09732">
        <ele>306.984245</ele>
        <time>2025-10-23T09:31:46Z</time>
      </trkpt>
      <trkpt lat="43.60918" lon="3.09732">
        <ele>306.978733</ele>
        <time>2025-10-23T09:31:47Z</time>
      </trkpt>
      <trkpt lat="43.60918" lon="3.09733">
        <ele>306.973727</ele>
        <time>2025-10-23T09:31:48Z</time>
      </trkpt>
      <trkpt lat="43.60918" lon="3.09732">
        <ele>306.95462</ele>
        <time>2025-10-23T09:31:49Z</time>
      </trkpt>
      <trkpt lat="43.60917" lon="3.09733">
        <ele>306.932829</ele>
        <time>2025-10-23T09:31:50Z</time>
      </trkpt>
      <trkpt lat="43.60915" lon="3.09733">
        <ele>306.895018</ele>
        <time>2025-10-23T09:31:51Z</time>
      </trkpt>
      <trkpt lat="43.60913" lon="3.09734">
        <ele>306.8503</ele>
        <time>2025-10-23T09:31:52Z</time>
      </trkpt>
      <trkpt lat="43.60911" lon="3.09735">
        <ele>306.801817</ele>
        <time>2025-10-23T09:31:53Z</time>
      </trkpt>
      <trkpt lat="43.60908" lon="3.09737">
        <ele>306.723377</ele>
        <time>2025-10-23T09:31:54Z</time>
      </trkpt>
      <trkpt lat="43.60904" lon="3.09738">
        <ele>306.636707</ele>
        <time>2025-10-23T09:31:55Z</time>
      </trkpt>
      <trkpt lat="43.60901" lon="3.09739">
        <ele>306.549107</ele>
        <time>2025-10-23T09:31:56Z</time>
      </trkpt>
      <trkpt lat="43.60897" lon="3.09741">
        <ele>306.456636</ele>
        <time>2025-10-23T09:31:57Z</time>
      </trkpt>
      <trkpt lat="43.60893" lon="3.09742">
        <ele>306.362291</ele>
        <time>2025-10-23T09:31:58Z</time>
      </trkpt>
      <trkpt lat="43.60888" lon="3.09743">
        <ele>306.259228</ele>
        <time>2025-10-23T09:31:59Z</time>
      </trkpt>
      <trkpt lat="43.60884" lon="3.09744">
        <ele>306.154427</ele>
        <time>2025-10-23T09:32:00Z</time>
      </trkpt>
      <trkpt lat="43.6088" lon="3.09745">
        <ele>306.150308</ele>
        <time>2025-10-23T09:32:01Z</time>
      </trkpt>
      <trkpt lat="43.60875" lon="3.09745">
        <ele>306.314421</ele>
        <time>2025-10-23T09:32:02Z</time>
      </trkpt>
      <trkpt lat="43.60872" lon="3.09746">
        <ele>306.463864</ele>
        <time>2025-10-23T09:32:03Z</time>
      </trkpt>
      <trkpt lat="43.60868" lon="3.09747">
        <ele>306.617173</ele>
        <time>2025-10-23T09:32:04Z</time>
      </trkpt>
      <trkpt lat="43.60864" lon="3.09747">
        <ele>306.765411</ele>
        <time>2025-10-23T09:32:05Z</time>
      </trkpt>
      <trkpt lat="43.6086" lon="3.09747">
        <ele>306.926454</ele>
        <time>2025-10-23T09:32:06Z</time>
      </trkpt>
      <trkpt lat="43.60856" lon="3.09748">
        <ele>307.086504</ele>
        <time>2025-10-23T09:32:07Z</time>
      </trkpt>
      <trkpt lat="43.60852" lon="3.09748">
        <ele>307.234743</ele>
        <time>2025-10-23T09:32:08Z</time>
      </trkpt>
      <trkpt lat="43.60848" lon="3.09748">
        <ele>307.398565</ele>
        <time>2025-10-23T09:32:09Z</time>
      </trkpt>
      <trkpt lat="43.60844" lon="3.09748">
        <ele>307.559285</ele>
        <time>2025-10-23T09:32:10Z</time>
      </trkpt>
      <trkpt lat="43.60839" lon="3.09749">
        <ele>307.725425</ele>
        <time>2025-10-23T09:32:11Z</time>
      </trkpt>
      <trkpt lat="43.60835" lon="3.0975">
        <ele>307.892067</ele>
        <time>2025-10-23T09:32:12Z</time>
      </trkpt>
      <trkpt lat="43.60831" lon="3.09752">
        <ele>308.062541</ele>
        <time>2025-10-23T09:32:13Z</time>
      </trkpt>
      <trkpt lat="43.60827" lon="3.09753">
        <ele>308.225684</ele>
        <time>2025-10-23T09:32:14Z</time>
      </trkpt>
      <trkpt lat="43.60823" lon="3.09755">
        <ele>308.38428</ele>
        <time>2025-10-23T09:32:15Z</time>
      </trkpt>
      <trkpt lat="43.6082" lon="3.09757">
        <ele>308.52259</ele>
        <time>2025-10-23T09:32:16Z</time>
      </trkpt>
      <trkpt lat="43.60816" lon="3.09758">
        <ele>308.663547</ele>
        <time>2025-10-23T09:32:17Z</time>
      </trkpt>
      <trkpt lat="43.60814" lon="3.0976">
        <ele>308.774114</ele>
        <time>2025-10-23T09:32:18Z</time>
      </trkpt>
      <trkpt lat="43.60811" lon="3.09761">
        <ele>308.868111</ele>
        <time>2025-10-23T09:32:19Z</time>
      </trkpt>
      <trkpt lat="43.60809" lon="3.09762">
        <ele>308.974974</ele>
        <time>2025-10-23T09:32:20Z</time>
      </trkpt>
      <trkpt lat="43.60806" lon="3.09763">
        <ele>309.083944</ele>
        <time>2025-10-23T09:32:21Z</time>
      </trkpt>
      <trkpt lat="43.60803" lon="3.09763">
        <ele>309.205609</ele>
        <time>2025-10-23T09:32:22Z</time>
      </trkpt>
      <trkpt lat="43.608" lon="3.09763">
        <ele>309.326486</ele>
        <time>2025-10-23T09:32:23Z</time>
      </trkpt>
      <trkpt lat="43.60796" lon="3.09764">
        <ele>309.46397</ele>
        <time>2025-10-23T09:32:24Z</time>
      </trkpt>
      <trkpt lat="43.60792" lon="3.09765">
        <ele>309.625013</ele>
        <time>2025-10-23T09:32:25Z</time>
      </trkpt>
      <trkpt lat="43.60789" lon="3.09765">
        <ele>309.766056</ele>
        <time>2025-10-23T09:32:26Z</time>
      </trkpt>
      <trkpt lat="43.60785" lon="3.09765">
        <ele>309.902492</ele>
        <time>2025-10-23T09:32:27Z</time>
      </trkpt>
      <trkpt lat="43.60782" lon="3.09765">
        <ele>310.027267</ele>
        <time>2025-10-23T09:32:28Z</time>
      </trkpt>
      <trkpt lat="43.60779" lon="3.09765">
        <ele>310.152519</ele>
        <time>2025-10-23T09:32:29Z</time>
      </trkpt>
      <trkpt lat="43.60775" lon="3.09764">
        <ele>310.278405</ele>
        <time>2025-10-23T09:32:30Z</time>
      </trkpt>
      <trkpt lat="43.60772" lon="3.09764">
        <ele>310.403275</ele>
        <time>2025-10-23T09:32:31Z</time>
      </trkpt>
      <trkpt lat="43.60769" lon="3.09763">
        <ele>310.524941</ele>
        <time>2025-10-23T09:32:32Z</time>
      </trkpt>
      <trkpt lat="43.60766" lon="3.09763">
        <ele>310.647876</ele>
        <time>2025-10-23T09:32:33Z</time>
      </trkpt>
      <trkpt lat="43.60763" lon="3.09762">
        <ele>310.76818</ele>
        <time>2025-10-23T09:32:34Z</time>
      </trkpt>
      <trkpt lat="43.6076" lon="3.09761">
        <ele>310.888484</ele>
        <time>2025-10-23T09:32:35Z</time>
      </trkpt>
      <trkpt lat="43.60757" lon="3.0976">
        <ele>311.020185</ele>
        <time>2025-10-23T09:32:36Z</time>
      </trkpt>
      <trkpt lat="43.60753" lon="3.09759">
        <ele>311.165107</ele>
        <time>2025-10-23T09:32:37Z</time>
      </trkpt>
      <trkpt lat="43.6075" lon="3.09758">
        <ele>311.296232</ele>
        <time>2025-10-23T09:32:38Z</time>
      </trkpt>
      <trkpt lat="43.60746" lon="3.09757">
        <ele>311.427932</ele>
        <time>2025-10-23T09:32:39Z</time>
      </trkpt>
      <trkpt lat="43.60743" lon="3.09757">
        <ele>311.564486</ele>
        <time>2025-10-23T09:32:40Z</time>
      </trkpt>
      <trkpt lat="43.60739" lon="3.09757">
        <ele>311.701389</ele>
        <time>2025-10-23T09:32:41Z</time>
      </trkpt>
      <trkpt lat="43.60736" lon="3.09756">
        <ele>311.830308</ele>
        <time>2025-10-23T09:32:42Z</time>
      </trkpt>
      <trkpt lat="43.60733" lon="3.09755">
        <ele>311.945589</ele>
        <time>2025-10-23T09:32:43Z</time>
      </trkpt>
      <trkpt lat="43.6073" lon="3.09754">
        <ele>312.074137</ele>
        <time>2025-10-23T09:32:44Z</time>
      </trkpt>
      <trkpt lat="43.60727" lon="3.09753">
        <ele>312.205838</ele>
        <time>2025-10-23T09:32:45Z</time>
      </trkpt>
      <trkpt lat="43.60724" lon="3.09752">
        <ele>312.328405</ele>
        <time>2025-10-23T09:32:46Z</time>
      </trkpt>
      <trkpt lat="43.6072" lon="3.09751">
        <ele>312.482103</ele>
        <time>2025-10-23T09:32:47Z</time>
      </trkpt>
      <trkpt lat="43.60716" lon="3.0975">
        <ele>312.623388</ele>
        <time>2025-10-23T09:32:48Z</time>
      </trkpt>
      <trkpt lat="43.60713" lon="3.09748">
        <ele>312.76997</ele>
        <time>2025-10-23T09:32:49Z</time>
      </trkpt>
      <trkpt lat="43.60709" lon="3.09747">
        <ele>312.924833</ele>
        <time>2025-10-23T09:32:50Z</time>
      </trkpt>
      <trkpt lat="43.60705" lon="3.09745">
        <ele>313.082649</ele>
        <time>2025-10-23T09:32:51Z</time>
      </trkpt>
      <trkpt lat="43.60701" lon="3.09744">
        <ele>313.271497</ele>
        <time>2025-10-23T09:32:52Z</time>
      </trkpt>
      <trkpt lat="43.60697" lon="3.09742">
        <ele>313.462676</ele>
        <time>2025-10-23T09:32:53Z</time>
      </trkpt>
      <trkpt lat="43.60693" lon="3.09741">
        <ele>313.64961</ele>
        <time>2025-10-23T09:32:54Z</time>
      </trkpt>
      <trkpt lat="43.60688" lon="3.0974">
        <ele>313.872936</ele>
        <time>2025-10-23T09:32:55Z</time>
      </trkpt>
      <trkpt lat="43.60683" lon="3.0974">
        <ele>314.09068</ele>
        <time>2025-10-23T09:32:56Z</time>
      </trkpt>
      <trkpt lat="43.60678" lon="3.09741">
        <ele>314.304586</ele>
        <time>2025-10-23T09:32:57Z</time>
      </trkpt>
      <trkpt lat="43.60674" lon="3.09741">
        <ele>314.4961</ele>
        <time>2025-10-23T09:32:58Z</time>
      </trkpt>
      <trkpt lat="43.6067" lon="3.09743">
        <ele>314.649507</ele>
        <time>2025-10-23T09:32:59Z</time>
      </trkpt>
      <trkpt lat="43.60667" lon="3.09744">
        <ele>314.804925</ele>
        <time>2025-10-23T09:33:00Z</time>
      </trkpt>
      <trkpt lat="43.60664" lon="3.09746">
        <ele>314.941076</ele>
        <time>2025-10-23T09:33:01Z</time>
      </trkpt>
      <trkpt lat="43.60662" lon="3.09748">
        <ele>315.056849</ele>
        <time>2025-10-23T09:33:02Z</time>
      </trkpt>
      <trkpt lat="43.6066" lon="3.09749">
        <ele>315.155076</ele>
        <time>2025-10-23T09:33:03Z</time>
      </trkpt>
      <trkpt lat="43.60658" lon="3.0975">
        <ele>315.2385</ele>
        <time>2025-10-23T09:33:04Z</time>
      </trkpt>
      <trkpt lat="43.60657" lon="3.09751">
        <ele>315.326456</ele>
        <time>2025-10-23T09:33:05Z</time>
      </trkpt>
      <trkpt lat="43.60655" lon="3.09753">
        <ele>315.419724</ele>
        <time>2025-10-23T09:33:06Z</time>
      </trkpt>
      <trkpt lat="43.60653" lon="3.09754">
        <ele>315.50768</ele>
        <time>2025-10-23T09:33:07Z</time>
      </trkpt>
      <trkpt lat="43.60651" lon="3.09756">
        <ele>315.601905</ele>
        <time>2025-10-23T09:33:08Z</time>
      </trkpt>
      <trkpt lat="43.60649" lon="3.09757">
        <ele>315.69613</ele>
        <time>2025-10-23T09:33:09Z</time>
      </trkpt>
      <trkpt lat="43.60648" lon="3.09758">
        <ele>315.779555</ele>
        <time>2025-10-23T09:33:10Z</time>
      </trkpt>
      <trkpt lat="43.60646" lon="3.0976">
        <ele>315.860006</ele>
        <time>2025-10-23T09:33:11Z</time>
      </trkpt>
      <trkpt lat="43.60644" lon="3.09761">
        <ele>315.955129</ele>
        <time>2025-10-23T09:33:12Z</time>
      </trkpt>
      <trkpt lat="43.60642" lon="3.09763">
        <ele>316.062771</ele>
        <time>2025-10-23T09:33:13Z</time>
      </trkpt>
      <trkpt lat="43.6064" lon="3.09764">
        <ele>316.169923</ele>
        <time>2025-10-23T09:33:14Z</time>
      </trkpt>
      <trkpt lat="43.60638" lon="3.09764">
        <ele>316.265922</ele>
        <time>2025-10-23T09:33:15Z</time>
      </trkpt>
      <trkpt lat="43.60636" lon="3.09765">
        <ele>316.367016</ele>
        <time>2025-10-23T09:33:16Z</time>
      </trkpt>
      <trkpt lat="43.60633" lon="3.09766">
        <ele>316.472414</ele>
        <time>2025-10-23T09:33:17Z</time>
      </trkpt>
      <trkpt lat="43.60631" lon="3.09766">
        <ele>316.558365</ele>
        <time>2025-10-23T09:33:18Z</time>
      </trkpt>
      <trkpt lat="43.60629" lon="3.09767">
        <ele>316.647763</ele>
        <time>2025-10-23T09:33:19Z</time>
      </trkpt>
      <trkpt lat="43.60627" lon="3.09766">
        <ele>316.732744</ele>
        <time>2025-10-23T09:33:20Z</time>
      </trkpt>
      <trkpt lat="43.60626" lon="3.09767">
        <ele>316.81299</ele>
        <time>2025-10-23T09:33:21Z</time>
      </trkpt>
      <trkpt lat="43.60623" lon="3.09767">
        <ele>316.937457</ele>
        <time>2025-10-23T09:33:22Z</time>
      </trkpt>
      <trkpt lat="43.60621" lon="3.09766">
        <ele>317.044608</ele>
        <time>2025-10-23T09:33:23Z</time>
      </trkpt>
      <trkpt lat="43.60616" lon="3.09766">
        <ele>317.227511</ele>
        <time>2025-10-23T09:33:24Z</time>
      </trkpt>
      <trkpt lat="43.60613" lon="3.09766">
        <ele>317.374472</ele>
        <time>2025-10-23T09:33:25Z</time>
      </trkpt>
      <trkpt lat="43.60609" lon="3.09767">
        <ele>317.543457</ele>
        <time>2025-10-23T09:33:26Z</time>
      </trkpt>
      <trkpt lat="43.60605" lon="3.09767">
        <ele>317.721469</ele>
        <time>2025-10-23T09:33:27Z</time>
      </trkpt>
      <trkpt lat="43.60601" lon="3.09767">
        <ele>317.917418</ele>
        <time>2025-10-23T09:33:28Z</time>
      </trkpt>
      <trkpt lat="43.60596" lon="3.09768">
        <ele>318.119472</ele>
        <time>2025-10-23T09:33:29Z</time>
      </trkpt>
      <trkpt lat="43.60592" lon="3.09769">
        <ele>318.303953</ele>
        <time>2025-10-23T09:33:30Z</time>
      </trkpt>
      <trkpt lat="43.60589" lon="3.0977">
        <ele>318.465986</ele>
        <time>2025-10-23T09:33:31Z</time>
      </trkpt>
      <trkpt lat="43.60586" lon="3.0977">
        <ele>318.608514</ele>
        <time>2025-10-23T09:33:32Z</time>
      </trkpt>
      <trkpt lat="43.60582" lon="3.0977">
        <ele>318.759738</ele>
        <time>2025-10-23T09:33:33Z</time>
      </trkpt>
      <trkpt lat="43.60579" lon="3.09771">
        <ele>318.902084</ele>
        <time>2025-10-23T09:33:34Z</time>
      </trkpt>
      <trkpt lat="43.60576" lon="3.09771">
        <ele>319.036787</ele>
        <time>2025-10-23T09:33:35Z</time>
      </trkpt>
      <trkpt lat="43.60573" lon="3.09772">
        <ele>319.153439</ele>
        <time>2025-10-23T09:33:36Z</time>
      </trkpt>
      <trkpt lat="43.60571" lon="3.09772">
        <ele>319.271152</ele>
        <time>2025-10-23T09:33:37Z</time>
      </trkpt>
      <trkpt lat="43.60568" lon="3.09773">
        <ele>319.382664</ele>
        <time>2025-10-23T09:33:38Z</time>
      </trkpt>
      <trkpt lat="43.60566" lon="3.09773">
        <ele>319.476867</ele>
        <time>2025-10-23T09:33:39Z</time>
      </trkpt>
      <trkpt lat="43.60564" lon="3.09773">
        <ele>319.570407</ele>
        <time>2025-10-23T09:33:40Z</time>
      </trkpt>
      <trkpt lat="43.60562" lon="3.09774">
        <ele>319.651424</ele>
        <time>2025-10-23T09:33:41Z</time>
      </trkpt>
      <trkpt lat="43.6056" lon="3.09774">
        <ele>319.75928</ele>
        <time>2025-10-23T09:33:42Z</time>
      </trkpt>
      <trkpt lat="43.60558" lon="3.09775">
        <ele>319.857886</ele>
        <time>2025-10-23T09:33:43Z</time>
      </trkpt>
      <trkpt lat="43.60555" lon="3.09775">
        <ele>319.975026</ele>
        <time>2025-10-23T09:33:44Z</time>
      </trkpt>
      <trkpt lat="43.60553" lon="3.09776">
        <ele>320.084739</ele>
        <time>2025-10-23T09:33:45Z</time>
      </trkpt>
      <trkpt lat="43.6055" lon="3.09777">
        <ele>320.202451</ele>
        <time>2025-10-23T09:33:46Z</time>
      </trkpt>
      <trkpt lat="43.60548" lon="3.09777">
        <ele>320.311454</ele>
        <time>2025-10-23T09:33:47Z</time>
      </trkpt>
      <trkpt lat="43.60545" lon="3.09778">
        <ele>320.411778</ele>
        <time>2025-10-23T09:33:48Z</time>
      </trkpt>
      <trkpt lat="43.60544" lon="3.09779">
        <ele>320.498388</ele>
        <time>2025-10-23T09:33:49Z</time>
      </trkpt>
      <trkpt lat="43.60542" lon="3.0978">
        <ele>320.583228</ele>
        <time>2025-10-23T09:33:50Z</time>
      </trkpt>
      <trkpt lat="43.6054" lon="3.09781">
        <ele>320.667256</ele>
        <time>2025-10-23T09:33:51Z</time>
      </trkpt>
      <trkpt lat="43.60538" lon="3.09781">
        <ele>320.752663</ele>
        <time>2025-10-23T09:33:52Z</time>
      </trkpt>
      <trkpt lat="43.60536" lon="3.09781">
        <ele>320.839273</ele>
        <time>2025-10-23T09:33:53Z</time>
      </trkpt>
      <trkpt lat="43.60535" lon="3.09782">
        <ele>320.914744</ele>
        <time>2025-10-23T09:33:54Z</time>
      </trkpt>
      <trkpt lat="43.60533" lon="3.09781">
        <ele>321.004142</ele>
        <time>2025-10-23T09:33:55Z</time>
      </trkpt>
      <trkpt lat="43.60531" lon="3.09782">
        <ele>321.096825</ele>
        <time>2025-10-23T09:33:56Z</time>
      </trkpt>
      <trkpt lat="43.60529" lon="3.09783">
        <ele>321.256902</ele>
        <time>2025-10-23T09:33:57Z</time>
      </trkpt>
      <trkpt lat="43.60527" lon="3.09783">
        <ele>321.420097</ele>
        <time>2025-10-23T09:33:58Z</time>
      </trkpt>
      <trkpt lat="43.60525" lon="3.09784">
        <ele>321.580174</ele>
        <time>2025-10-23T09:33:59Z</time>
      </trkpt>
      <trkpt lat="43.60523" lon="3.09785">
        <ele>321.751094</ele>
        <time>2025-10-23T09:34:00Z</time>
      </trkpt>
      <trkpt lat="43.6052" lon="3.09786">
        <ele>321.935801</ele>
        <time>2025-10-23T09:34:01Z</time>
      </trkpt>
      <trkpt lat="43.60518" lon="3.09787">
        <ele>322.115032</ele>
        <time>2025-10-23T09:34:02Z</time>
      </trkpt>
      <trkpt lat="43.60516" lon="3.09787">
        <ele>322.292218</ele>
        <time>2025-10-23T09:34:03Z</time>
      </trkpt>
      <trkpt lat="43.60513" lon="3.09788">
        <ele>322.470344</ele>
        <time>2025-10-23T09:34:04Z</time>
      </trkpt>
      <trkpt lat="43.60511" lon="3.09788">
        <ele>322.670114</ele>
        <time>2025-10-23T09:34:05Z</time>
      </trkpt>
      <trkpt lat="43.60508" lon="3.0979">
        <ele>322.887272</ele>
        <time>2025-10-23T09:34:06Z</time>
      </trkpt>
      <trkpt lat="43.60505" lon="3.09791">
        <ele>323.117657</ele>
        <time>2025-10-23T09:34:07Z</time>
      </trkpt>
      <trkpt lat="43.60502" lon="3.09793">
        <ele>323.392834</ele>
        <time>2025-10-23T09:34:08Z</time>
      </trkpt>
      <trkpt lat="43.60498" lon="3.09794">
        <ele>323.6883</ele>
        <time>2025-10-23T09:34:09Z</time>
      </trkpt>
      <trkpt lat="43.60494" lon="3.09795">
        <ele>323.964249</ele>
        <time>2025-10-23T09:34:10Z</time>
      </trkpt>
      <trkpt lat="43.60491" lon="3.09796">
        <ele>324.256771</ele>
        <time>2025-10-23T09:34:11Z</time>
      </trkpt>
      <trkpt lat="43.60487" lon="3.09797">
        <ele>324.562491</ele>
        <time>2025-10-23T09:34:12Z</time>
      </trkpt>
      <trkpt lat="43.60483" lon="3.09798">
        <ele>324.834482</ele>
        <time>2025-10-23T09:34:13Z</time>
      </trkpt>
      <trkpt lat="43.6048" lon="3.09799">
        <ele>325.112897</ele>
        <time>2025-10-23T09:34:14Z</time>
      </trkpt>
      <trkpt lat="43.60476" lon="3.098">
        <ele>325.373742</ele>
        <time>2025-10-23T09:34:15Z</time>
      </trkpt>
      <trkpt lat="43.60473" lon="3.09801">
        <ele>325.639488</ele>
        <time>2025-10-23T09:34:16Z</time>
      </trkpt>
      <trkpt lat="43.6047" lon="3.09802">
        <ele>325.894937</ele>
        <time>2025-10-23T09:34:17Z</time>
      </trkpt>
      <trkpt lat="43.60467" lon="3.09803">
        <ele>326.134932</ele>
        <time>2025-10-23T09:34:18Z</time>
      </trkpt>
      <trkpt lat="43.60464" lon="3.09804">
        <ele>326.335536</ele>
        <time>2025-10-23T09:34:19Z</time>
      </trkpt>
      <trkpt lat="43.60461" lon="3.09804">
        <ele>326.534087</ele>
        <time>2025-10-23T09:34:20Z</time>
      </trkpt>
      <trkpt lat="43.60459" lon="3.09804">
        <ele>326.725054</ele>
        <time>2025-10-23T09:34:21Z</time>
      </trkpt>
      <trkpt lat="43.60457" lon="3.09804">
        <ele>326.86975</ele>
        <time>2025-10-23T09:34:22Z</time>
      </trkpt>
      <trkpt lat="43.60455" lon="3.09804">
        <ele>326.991635</ele>
        <time>2025-10-23T09:34:23Z</time>
      </trkpt>
      <trkpt lat="43.60454" lon="3.09804">
        <ele>327.116474</ele>
        <time>2025-10-23T09:34:24Z</time>
      </trkpt>
      <trkpt lat="43.60452" lon="3.09804">
        <ele>327.245845</ele>
        <time>2025-10-23T09:34:25Z</time>
      </trkpt>
      <trkpt lat="43.60451" lon="3.09803">
        <ele>327.352954</ele>
        <time>2025-10-23T09:34:26Z</time>
      </trkpt>
      <trkpt lat="43.60449" lon="3.09803">
        <ele>327.475212</ele>
        <time>2025-10-23T09:34:27Z</time>
      </trkpt>
      <trkpt lat="43.60447" lon="3.09803">
        <ele>327.605051</ele>
        <time>2025-10-23T09:34:28Z</time>
      </trkpt>
      <trkpt lat="43.60446" lon="3.09803">
        <ele>327.726936</ele>
        <time>2025-10-23T09:34:29Z</time>
      </trkpt>
      <trkpt lat="43.60444" lon="3.09803">
        <ele>327.842278</ele>
        <time>2025-10-23T09:34:30Z</time>
      </trkpt>
      <trkpt lat="43.60442" lon="3.09803">
        <ele>328.002088</ele>
        <time>2025-10-23T09:34:31Z</time>
      </trkpt>
      <trkpt lat="43.6044" lon="3.09803">
        <ele>328.161994</ele>
        <time>2025-10-23T09:34:32Z</time>
      </trkpt>
      <trkpt lat="43.60437" lon="3.09802">
        <ele>328.371055</ele>
        <time>2025-10-23T09:34:33Z</time>
      </trkpt>
      <trkpt lat="43.60435" lon="3.09801">
        <ele>328.556664</ele>
        <time>2025-10-23T09:34:34Z</time>
      </trkpt>
      <trkpt lat="43.60433" lon="3.09801">
        <ele>328.748187</ele>
        <time>2025-10-23T09:34:35Z</time>
      </trkpt>
      <trkpt lat="43.60431" lon="3.09801">
        <ele>328.839674</ele>
        <time>2025-10-23T09:34:36Z</time>
      </trkpt>
      <trkpt lat="43.6043" lon="3.098">
        <ele>328.911624</ele>
        <time>2025-10-23T09:34:37Z</time>
      </trkpt>
      <trkpt lat="43.6043" lon="3.098">
        <ele>328.960185</ele>
        <time>2025-10-23T09:34:38Z</time>
      </trkpt>
      <trkpt lat="43.6043" lon="3.098">
        <ele>328.96958</ele>
        <time>2025-10-23T09:34:39Z</time>
      </trkpt>
      <trkpt lat="43.6043" lon="3.09801">
        <ele>328.992899</ele>
        <time>2025-10-23T09:34:40Z</time>
      </trkpt>
      <trkpt lat="43.60429" lon="3.098">
        <ele>329.009086</ele>
        <time>2025-10-23T09:34:41Z</time>
      </trkpt>
      <trkpt lat="43.60429" lon="3.098">
        <ele>329.040563</ele>
        <time>2025-10-23T09:34:42Z</time>
      </trkpt>
      <trkpt lat="43.60429" lon="3.098">
        <ele>329.078146</ele>
        <time>2025-10-23T09:34:43Z</time>
      </trkpt>
      <trkpt lat="43.60428" lon="3.09799">
        <ele>329.154446</ele>
        <time>2025-10-23T09:34:44Z</time>
      </trkpt>
      <trkpt lat="43.60427" lon="3.09799">
        <ele>329.238337</ele>
        <time>2025-10-23T09:34:45Z</time>
      </trkpt>
      <trkpt lat="43.60425" lon="3.09799">
        <ele>329.352621</ele>
        <time>2025-10-23T09:34:46Z</time>
      </trkpt>
      <trkpt lat="43.60424" lon="3.09799">
        <ele>329.459304</ele>
        <time>2025-10-23T09:34:47Z</time>
      </trkpt>
      <trkpt lat="43.60423" lon="3.09799">
        <ele>329.558387</ele>
        <time>2025-10-23T09:34:48Z</time>
      </trkpt>
      <trkpt lat="43.60422" lon="3.09799">
        <ele>329.634441</ele>
        <time>2025-10-23T09:34:49Z</time>
      </trkpt>
      <trkpt lat="43.60421" lon="3.09798">
        <ele>329.708266</ele>
        <time>2025-10-23T09:34:50Z</time>
      </trkpt>
      <trkpt lat="43.6042" lon="3.09798">
        <ele>329.787494</ele>
        <time>2025-10-23T09:34:51Z</time>
      </trkpt>
      <trkpt lat="43.60419" lon="3.09797">
        <ele>329.868429</ele>
        <time>2025-10-23T09:34:52Z</time>
      </trkpt>
      <trkpt lat="43.60418" lon="3.09796">
        <ele>329.969833</ele>
        <time>2025-10-23T09:34:53Z</time>
      </trkpt>
      <trkpt lat="43.60416" lon="3.09796">
        <ele>330.085134</ele>
        <time>2025-10-23T09:34:54Z</time>
      </trkpt>
      <trkpt lat="43.60415" lon="3.09795">
        <ele>330.202653</ele>
        <time>2025-10-23T09:34:55Z</time>
      </trkpt>
      <trkpt lat="43.60413" lon="3.09794">
        <ele>330.317954</ele>
        <time>2025-10-23T09:34:56Z</time>
      </trkpt>
      <trkpt lat="43.60412" lon="3.09793">
        <ele>330.426262</ele>
        <time>2025-10-23T09:34:57Z</time>
      </trkpt>
      <trkpt lat="43.60411" lon="3.09793">
        <ele>330.520205</ele>
        <time>2025-10-23T09:34:58Z</time>
      </trkpt>
      <trkpt lat="43.6041" lon="3.09793">
        <ele>330.612188</ele>
        <time>2025-10-23T09:34:59Z</time>
      </trkpt>
      <trkpt lat="43.60408" lon="3.09792">
        <ele>330.722854</ele>
        <time>2025-10-23T09:35:00Z</time>
      </trkpt>
      <trkpt lat="43.60407" lon="3.09791">
        <ele>330.834407</ele>
        <time>2025-10-23T09:35:01Z</time>
      </trkpt>
      <trkpt lat="43.60406" lon="3.0979">
        <ele>330.957581</ele>
        <time>2025-10-23T09:35:02Z</time>
      </trkpt>
      <trkpt lat="43.60404" lon="3.09789">
        <ele>331.07089</ele>
        <time>2025-10-23T09:35:03Z</time>
      </trkpt>
      <trkpt lat="43.60403" lon="3.09788">
        <ele>331.188408</ele>
        <time>2025-10-23T09:35:04Z</time>
      </trkpt>
      <trkpt lat="43.60402" lon="3.09787">
        <ele>331.308356</ele>
        <time>2025-10-23T09:35:05Z</time>
      </trkpt>
      <trkpt lat="43.604" lon="3.09786">
        <ele>331.39836</ele>
        <time>2025-10-23T09:35:06Z</time>
      </trkpt>
      <trkpt lat="43.60399" lon="3.09786">
        <ele>331.499764</ele>
        <time>2025-10-23T09:35:07Z</time>
      </trkpt>
      <trkpt lat="43.60398" lon="3.09785">
        <ele>331.604074</ele>
        <time>2025-10-23T09:35:08Z</time>
      </trkpt>
      <trkpt lat="43.60397" lon="3.09784">
        <ele>331.708383</ele>
        <time>2025-10-23T09:35:09Z</time>
      </trkpt>
      <trkpt lat="43.60395" lon="3.09783">
        <ele>331.828331</ele>
        <time>2025-10-23T09:35:10Z</time>
      </trkpt>
      <trkpt lat="43.60394" lon="3.09783">
        <ele>331.928633</ele>
        <time>2025-10-23T09:35:11Z</time>
      </trkpt>
      <trkpt lat="43.60393" lon="3.09783">
        <ele>332.03743</ele>
        <time>2025-10-23T09:35:12Z</time>
      </trkpt>
      <trkpt lat="43.60391" lon="3.09782">
        <ele>332.143615</ele>
        <time>2025-10-23T09:35:13Z</time>
      </trkpt>
      <trkpt lat="43.6039" lon="3.09781">
        <ele>332.235785</ele>
        <time>2025-10-23T09:35:14Z</time>
      </trkpt>
      <trkpt lat="43.60389" lon="3.09781">
        <ele>332.331172</ele>
        <time>2025-10-23T09:35:15Z</time>
      </trkpt>
      <trkpt lat="43.60388" lon="3.0978">
        <ele>332.435481</ele>
        <time>2025-10-23T09:35:16Z</time>
      </trkpt>
      <trkpt lat="43.60386" lon="3.09779">
        <ele>332.54879</ele>
        <time>2025-10-23T09:35:17Z</time>
      </trkpt>
      <trkpt lat="43.60385" lon="3.09779">
        <ele>332.660343</ele>
        <time>2025-10-23T09:35:18Z</time>
      </trkpt>
      <trkpt lat="43.60383" lon="3.09778">
        <ele>332.779186</ele>
        <time>2025-10-23T09:35:19Z</time>
      </trkpt>
      <trkpt lat="43.60382" lon="3.09777">
        <ele>332.876485</ele>
        <time>2025-10-23T09:35:20Z</time>
      </trkpt>
      <trkpt lat="43.60382" lon="3.09776">
        <ele>332.938995</ele>
        <time>2025-10-23T09:35:21Z</time>
      </trkpt>
      <trkpt lat="43.60381" lon="3.09776">
        <ele>332.97073</ele>
        <time>2025-10-23T09:35:22Z</time>
      </trkpt>
      <trkpt lat="43.60381" lon="3.09775">
        <ele>333.042802</ele>
        <time>2025-10-23T09:35:23Z</time>
      </trkpt>
      <trkpt lat="43.60379" lon="3.09775">
        <ele>333.144158</ele>
        <time>2025-10-23T09:35:24Z</time>
      </trkpt>
      <trkpt lat="43.60378" lon="3.09774">
        <ele>333.268997</ele>
        <time>2025-10-23T09:35:25Z</time>
      </trkpt>
      <trkpt lat="43.60376" lon="3.09774">
        <ele>333.41619</ele>
        <time>2025-10-23T09:35:26Z</time>
      </trkpt>
      <trkpt lat="43.60374" lon="3.09773">
        <ele>333.594246</ele>
        <time>2025-10-23T09:35:27Z</time>
      </trkpt>
      <trkpt lat="43.60371" lon="3.09772">
        <ele>333.781352</ele>
        <time>2025-10-23T09:35:28Z</time>
      </trkpt>
      <trkpt lat="43.60369" lon="3.0977">
        <ele>333.961359</ele>
        <time>2025-10-23T09:35:29Z</time>
      </trkpt>
      <trkpt lat="43.60367" lon="3.09769">
        <ele>334.13228</ele>
        <time>2025-10-23T09:35:30Z</time>
      </trkpt>
      <trkpt lat="43.60365" lon="3.09768">
        <ele>334.282073</ele>
        <time>2025-10-23T09:35:31Z</time>
      </trkpt>
      <trkpt lat="43.60363" lon="3.09767">
        <ele>334.445901</ele>
        <time>2025-10-23T09:35:32Z</time>
      </trkpt>
      <trkpt lat="43.60361" lon="3.09766">
        <ele>334.614118</ele>
        <time>2025-10-23T09:35:33Z</time>
      </trkpt>
      <trkpt lat="43.60359" lon="3.09764">
        <ele>334.790193</ele>
        <time>2025-10-23T09:35:34Z</time>
      </trkpt>
      <trkpt lat="43.60357" lon="3.09763">
        <ele>334.964017</ele>
        <time>2025-10-23T09:35:35Z</time>
      </trkpt>
      <trkpt lat="43.60355" lon="3.09762">
        <ele>335.128395</ele>
        <time>2025-10-23T09:35:36Z</time>
      </trkpt>
      <trkpt lat="43.60353" lon="3.0976">
        <ele>335.309167</ele>
        <time>2025-10-23T09:35:37Z</time>
      </trkpt>
      <trkpt lat="43.60351" lon="3.09759">
        <ele>335.488347</ele>
        <time>2025-10-23T09:35:38Z</time>
      </trkpt>
      <trkpt lat="43.60349" lon="3.09757">
        <ele>335.667527</ele>
        <time>2025-10-23T09:35:39Z</time>
      </trkpt>
      <trkpt lat="43.60347" lon="3.09755">
        <ele>335.84316</ele>
        <time>2025-10-23T09:35:40Z</time>
      </trkpt>
      <trkpt lat="43.60345" lon="3.09754">
        <ele>336.016984</ele>
        <time>2025-10-23T09:35:41Z</time>
      </trkpt>
      <trkpt lat="43.60343" lon="3.09753">
        <ele>336.183871</ele>
        <time>2025-10-23T09:35:42Z</time>
      </trkpt>
      <trkpt lat="43.60342" lon="3.09751">
        <ele>336.348249</ele>
        <time>2025-10-23T09:35:43Z</time>
      </trkpt>
      <trkpt lat="43.6034" lon="3.0975">
        <ele>336.50169</ele>
        <time>2025-10-23T09:35:44Z</time>
      </trkpt>
      <trkpt lat="43.60338" lon="3.09748">
        <ele>336.661673</ele>
        <time>2025-10-23T09:35:45Z</time>
      </trkpt>
      <trkpt lat="43.60337" lon="3.09747">
        <ele>336.818063</ele>
        <time>2025-10-23T09:35:46Z</time>
      </trkpt>
      <trkpt lat="43.60335" lon="3.09746">
        <ele>336.964651</ele>
        <time>2025-10-23T09:35:47Z</time>
      </trkpt>
      <trkpt lat="43.60333" lon="3.09745">
        <ele>337.131538</ele>
        <time>2025-10-23T09:35:48Z</time>
      </trkpt>
      <trkpt lat="43.60331" lon="3.09743">
        <ele>337.302897</ele>
        <time>2025-10-23T09:35:49Z</time>
      </trkpt>
      <trkpt lat="43.60328" lon="3.09742">
        <ele>337.498928</ele>
        <time>2025-10-23T09:35:50Z</time>
      </trkpt>
      <trkpt lat="43.60326" lon="3.09741">
        <ele>337.704105</ele>
        <time>2025-10-23T09:35:51Z</time>
      </trkpt>
      <trkpt lat="43.60323" lon="3.0974">
        <ele>337.918466</ele>
        <time>2025-10-23T09:35:52Z</time>
      </trkpt>
      <trkpt lat="43.60321" lon="3.09738">
        <ele>338.125554</ele>
        <time>2025-10-23T09:35:53Z</time>
      </trkpt>
      <trkpt lat="43.60318" lon="3.09738">
        <ele>338.316949</ele>
        <time>2025-10-23T09:35:54Z</time>
      </trkpt>
      <trkpt lat="43.60316" lon="3.09736">
        <ele>338.5118</ele>
        <time>2025-10-23T09:35:55Z</time>
      </trkpt>
      <trkpt lat="43.60314" lon="3.09735">
        <ele>338.70049</ele>
        <time>2025-10-23T09:35:56Z</time>
      </trkpt>
      <trkpt lat="43.60311" lon="3.09734">
        <ele>338.89109</ele>
        <time>2025-10-23T09:35:57Z</time>
      </trkpt>
      <trkpt lat="43.60309" lon="3.09733">
        <ele>339.085942</ele>
        <time>2025-10-23T09:35:58Z</time>
      </trkpt>
      <trkpt lat="43.60307" lon="3.09732">
        <ele>339.27287</ele>
        <time>2025-10-23T09:35:59Z</time>
      </trkpt>
      <trkpt lat="43.60304" lon="3.09731">
        <ele>339.480661</ele>
        <time>2025-10-23T09:36:00Z</time>
      </trkpt>
      <trkpt lat="43.60302" lon="3.0973">
        <ele>339.676693</ele>
        <time>2025-10-23T09:36:01Z</time>
      </trkpt>
      <trkpt lat="43.60299" lon="3.09728">
        <ele>339.880912</ele>
        <time>2025-10-23T09:36:02Z</time>
      </trkpt>
      <trkpt lat="43.60297" lon="3.09728">
        <ele>340.098045</ele>
        <time>2025-10-23T09:36:03Z</time>
      </trkpt>
      <trkpt lat="43.60294" lon="3.09727">
        <ele>340.300014</ele>
        <time>2025-10-23T09:36:04Z</time>
      </trkpt>
      <trkpt lat="43.60292" lon="3.09725">
        <ele>340.487799</ele>
        <time>2025-10-23T09:36:05Z</time>
      </trkpt>
      <trkpt lat="43.6029" lon="3.09724">
        <ele>340.699105</ele>
        <time>2025-10-23T09:36:06Z</time>
      </trkpt>
      <trkpt lat="43.60287" lon="3.09723">
        <ele>340.902508</ele>
        <time>2025-10-23T09:36:07Z</time>
      </trkpt>
      <trkpt lat="43.60285" lon="3.09722">
        <ele>341.101447</ele>
        <time>2025-10-23T09:36:08Z</time>
      </trkpt>
      <trkpt lat="43.60282" lon="3.0972">
        <ele>341.290152</ele>
        <time>2025-10-23T09:36:09Z</time>
      </trkpt>
      <trkpt lat="43.60281" lon="3.09719">
        <ele>341.426175</ele>
        <time>2025-10-23T09:36:10Z</time>
      </trkpt>
      <trkpt lat="43.60279" lon="3.0972">
        <ele>341.527109</ele>
        <time>2025-10-23T09:36:11Z</time>
      </trkpt>
      <trkpt lat="43.60279" lon="3.09719">
        <ele>341.551033</ele>
        <time>2025-10-23T09:36:12Z</time>
      </trkpt>
      <trkpt lat="43.60279" lon="3.09719">
        <ele>341.579101</ele>
        <time>2025-10-23T09:36:13Z</time>
      </trkpt>
      <trkpt lat="43.60279" lon="3.09719">
        <ele>341.602358</ele>
        <time>2025-10-23T09:36:14Z</time>
      </trkpt>
      <trkpt lat="43.60278" lon="3.09719">
        <ele>341.680688</ele>
        <time>2025-10-23T09:36:15Z</time>
      </trkpt>
      <trkpt lat="43.60277" lon="3.09718">
        <ele>341.772373</ele>
        <time>2025-10-23T09:36:16Z</time>
      </trkpt>
      <trkpt lat="43.60276" lon="3.09718">
        <ele>341.866911</ele>
        <time>2025-10-23T09:36:17Z</time>
      </trkpt>
      <trkpt lat="43.60274" lon="3.09718">
        <ele>341.953831</ele>
        <time>2025-10-23T09:36:18Z</time>
      </trkpt>
      <trkpt lat="43.60273" lon="3.09717">
        <ele>342.058445</ele>
        <time>2025-10-23T09:36:19Z</time>
      </trkpt>
      <trkpt lat="43.60272" lon="3.09717">
        <ele>342.16062</ele>
        <time>2025-10-23T09:36:20Z</time>
      </trkpt>
      <trkpt lat="43.60271" lon="3.09716">
        <ele>342.257789</ele>
        <time>2025-10-23T09:36:21Z</time>
      </trkpt>
      <trkpt lat="43.60269" lon="3.09716">
        <ele>342.37741</ele>
        <time>2025-10-23T09:36:22Z</time>
      </trkpt>
      <trkpt lat="43.60268" lon="3.09715">
        <ele>342.476346</ele>
        <time>2025-10-23T09:36:23Z</time>
      </trkpt>
      <trkpt lat="43.60267" lon="3.09715">
        <ele>342.582604</ele>
        <time>2025-10-23T09:36:24Z</time>
      </trkpt>
      <trkpt lat="43.60265" lon="3.09714">
        <ele>342.685902</ele>
        <time>2025-10-23T09:36:25Z</time>
      </trkpt>
      <trkpt lat="43.60264" lon="3.09713">
        <ele>342.794071</ele>
        <time>2025-10-23T09:36:26Z</time>
      </trkpt>
      <trkpt lat="43.60263" lon="3.09713">
        <ele>342.921241</ele>
        <time>2025-10-23T09:36:27Z</time>
      </trkpt>
      <trkpt lat="43.60261" lon="3.09712">
        <ele>343.034878</ele>
        <time>2025-10-23T09:36:28Z</time>
      </trkpt>
      <trkpt lat="43.6026" lon="3.09711">
        <ele>343.148514</ele>
        <time>2025-10-23T09:36:29Z</time>
      </trkpt>
      <trkpt lat="43.60258" lon="3.09711">
        <ele>343.266945</ele>
        <time>2025-10-23T09:36:30Z</time>
      </trkpt>
      <trkpt lat="43.60257" lon="3.0971">
        <ele>343.386567</ele>
        <time>2025-10-23T09:36:31Z</time>
      </trkpt>
      <trkpt lat="43.60255" lon="3.0971">
        <ele>343.492824</ele>
        <time>2025-10-23T09:36:32Z</time>
      </trkpt>
      <trkpt lat="43.60255" lon="3.09709">
        <ele>343.566118</ele>
        <time>2025-10-23T09:36:33Z</time>
      </trkpt>
      <trkpt lat="43.60253" lon="3.09709">
        <ele>343.661815</ele>
        <time>2025-10-23T09:36:34Z</time>
      </trkpt>
      <trkpt lat="43.60252" lon="3.09708">
        <ele>343.755708</ele>
        <time>2025-10-23T09:36:35Z</time>
      </trkpt>
      <trkpt lat="43.60251" lon="3.09708">
        <ele>343.825703</ele>
        <time>2025-10-23T09:36:36Z</time>
      </trkpt>
      <trkpt lat="43.6025" lon="3.09708">
        <ele>343.926687</ele>
        <time>2025-10-23T09:36:37Z</time>
      </trkpt>
      <trkpt lat="43.60249" lon="3.09707">
        <ele>343.999981</ele>
        <time>2025-10-23T09:36:38Z</time>
      </trkpt>
      <trkpt lat="43.60248" lon="3.09707">
        <ele>344.065938</ele>
        <time>2025-10-23T09:36:39Z</time>
      </trkpt>
      <trkpt lat="43.60247" lon="3.09706">
        <ele>344.160476</ele>
        <time>2025-10-23T09:36:40Z</time>
      </trkpt>
      <trkpt lat="43.60246" lon="3.09706">
        <ele>344.252161</ele>
        <time>2025-10-23T09:36:41Z</time>
      </trkpt>
      <trkpt lat="43.60244" lon="3.09706">
        <ele>344.391813</ele>
        <time>2025-10-23T09:36:42Z</time>
      </trkpt>
      <trkpt lat="43.60243" lon="3.09705">
        <ele>344.505449</ele>
        <time>2025-10-23T09:36:43Z</time>
      </trkpt>
      <trkpt lat="43.60241" lon="3.09705">
        <ele>344.633975</ele>
        <time>2025-10-23T09:36:44Z</time>
      </trkpt>
      <trkpt lat="43.6024" lon="3.09704">
        <ele>344.76589</ele>
        <time>2025-10-23T09:36:45Z</time>
      </trkpt>
      <trkpt lat="43.60238" lon="3.09703">
        <ele>344.910856</ele>
        <time>2025-10-23T09:36:46Z</time>
      </trkpt>
      <trkpt lat="43.60236" lon="3.09703">
        <ele>345.045599</ele>
        <time>2025-10-23T09:36:47Z</time>
      </trkpt>
      <trkpt lat="43.60234" lon="3.09702">
        <ele>345.18615</ele>
        <time>2025-10-23T09:36:48Z</time>
      </trkpt>
      <trkpt lat="43.60233" lon="3.09701">
        <ele>345.291434</ele>
        <time>2025-10-23T09:36:49Z</time>
      </trkpt>
      <trkpt lat="43.60232" lon="3.097">
        <ele>345.397294</ele>
        <time>2025-10-23T09:36:50Z</time>
      </trkpt>
      <trkpt lat="43.60231" lon="3.097">
        <ele>345.491186</ele>
        <time>2025-10-23T09:36:51Z</time>
      </trkpt>
      <trkpt lat="43.6023" lon="3.09699">
        <ele>345.594485</ele>
        <time>2025-10-23T09:36:52Z</time>
      </trkpt>
      <trkpt lat="43.60229" lon="3.09698">
        <ele>345.690862</ele>
        <time>2025-10-23T09:36:53Z</time>
      </trkpt>
      <trkpt lat="43.60228" lon="3.09697">
        <ele>345.780452</ele>
        <time>2025-10-23T09:36:54Z</time>
      </trkpt>
      <trkpt lat="43.60227" lon="3.09697">
        <ele>345.841547</ele>
        <time>2025-10-23T09:36:55Z</time>
      </trkpt>
      <trkpt lat="43.60226" lon="3.09696">
        <ele>345.921621</ele>
        <time>2025-10-23T09:36:56Z</time>
      </trkpt>
      <trkpt lat="43.60225" lon="3.09695">
        <ele>345.989694</ele>
        <time>2025-10-23T09:36:57Z</time>
      </trkpt>
      <trkpt lat="43.60224" lon="3.09695">
        <ele>346.081379</ele>
        <time>2025-10-23T09:36:58Z</time>
      </trkpt>
      <trkpt lat="43.60223" lon="3.09694">
        <ele>346.196804</ele>
        <time>2025-10-23T09:36:59Z</time>
      </trkpt>
      <trkpt lat="43.60222" lon="3.09694">
        <ele>346.303062</ele>
        <time>2025-10-23T09:37:00Z</time>
      </trkpt>
      <trkpt lat="43.6022" lon="3.09693">
        <ele>346.416699</ele>
        <time>2025-10-23T09:37:01Z</time>
      </trkpt>
      <trkpt lat="43.60219" lon="3.09693">
        <ele>346.527527</ele>
        <time>2025-10-23T09:37:02Z</time>
      </trkpt>
      <trkpt lat="43.60217" lon="3.09692">
        <ele>346.647149</ele>
        <time>2025-10-23T09:37:03Z</time>
      </trkpt>
      <trkpt lat="43.60216" lon="3.09692">
        <ele>346.7732</ele>
        <time>2025-10-23T09:37:04Z</time>
      </trkpt>
      <trkpt lat="43.60215" lon="3.09691">
        <ele>346.86138</ele>
        <time>2025-10-23T09:37:05Z</time>
      </trkpt>
      <trkpt lat="43.60214" lon="3.09691">
        <ele>346.900546</ele>
        <time>2025-10-23T09:37:06Z</time>
      </trkpt>
      <trkpt lat="43.60214" lon="3.09691">
        <ele>346.9409</ele>
        <time>2025-10-23T09:37:07Z</time>
      </trkpt>
      <trkpt lat="43.60213" lon="3.09691">
        <ele>346.987413</ele>
        <time>2025-10-23T09:37:08Z</time>
      </trkpt>
      <trkpt lat="43.60212" lon="3.09691">
        <ele>347.075593</ele>
        <time>2025-10-23T09:37:09Z</time>
      </trkpt>
      <trkpt lat="43.6021" lon="3.09691">
        <ele>347.192011</ele>
        <time>2025-10-23T09:37:10Z</time>
      </trkpt>
      <trkpt lat="43.60208" lon="3.09691">
        <ele>347.339729</ele>
        <time>2025-10-23T09:37:11Z</time>
      </trkpt>
      <trkpt lat="43.60207" lon="3.0969">
        <ele>347.467466</ele>
        <time>2025-10-23T09:37:12Z</time>
      </trkpt>
      <trkpt lat="43.60206" lon="3.09689">
        <ele>347.568868</ele>
        <time>2025-10-23T09:37:13Z</time>
      </trkpt>
      <trkpt lat="43.60204" lon="3.09689">
        <ele>347.726431</ele>
        <time>2025-10-23T09:37:14Z</time>
      </trkpt>
      <trkpt lat="43.60202" lon="3.09688">
        <ele>347.902792</ele>
        <time>2025-10-23T09:37:15Z</time>
      </trkpt>
      <trkpt lat="43.60199" lon="3.09688">
        <ele>348.083287</ele>
        <time>2025-10-23T09:37:16Z</time>
      </trkpt>
      <trkpt lat="43.60197" lon="3.09687">
        <ele>348.262995</ele>
        <time>2025-10-23T09:37:17Z</time>
      </trkpt>
      <trkpt lat="43.60195" lon="3.09687">
        <ele>348.435015</ele>
        <time>2025-10-23T09:37:18Z</time>
      </trkpt>
      <trkpt lat="43.60193" lon="3.09686">
        <ele>348.607856</ele>
        <time>2025-10-23T09:37:19Z</time>
      </trkpt>
      <trkpt lat="43.60191" lon="3.09686">
        <ele>348.747862</ele>
        <time>2025-10-23T09:37:20Z</time>
      </trkpt>
      <trkpt lat="43.60189" lon="3.09685">
        <ele>348.855799</ele>
        <time>2025-10-23T09:37:21Z</time>
      </trkpt>
      <trkpt lat="43.60187" lon="3.09685">
        <ele>348.951697</ele>
        <time>2025-10-23T09:37:22Z</time>
      </trkpt>
      <trkpt lat="43.60185" lon="3.09685">
        <ele>349.059633</ele>
        <time>2025-10-23T09:37:23Z</time>
      </trkpt>
      <trkpt lat="43.60183" lon="3.09684">
        <ele>349.147679</ele>
        <time>2025-10-23T09:37:24Z</time>
      </trkpt>
      <trkpt lat="43.60181" lon="3.09683">
        <ele>349.245183</ele>
        <time>2025-10-23T09:37:25Z</time>
      </trkpt>
      <trkpt lat="43.6018" lon="3.09683">
        <ele>349.335789</ele>
        <time>2025-10-23T09:37:26Z</time>
      </trkpt>
      <trkpt lat="43.60178" lon="3.09683">
        <ele>349.427368</ele>
        <time>2025-10-23T09:37:27Z</time>
      </trkpt>
      <trkpt lat="43.60177" lon="3.09682">
        <ele>349.509314</ele>
        <time>2025-10-23T09:37:28Z</time>
      </trkpt>
      <trkpt lat="43.60175" lon="3.09682">
        <ele>349.584551</ele>
        <time>2025-10-23T09:37:29Z</time>
      </trkpt>
      <trkpt lat="43.60174" lon="3.09682">
        <ele>349.661344</ele>
        <time>2025-10-23T09:37:30Z</time>
      </trkpt>
      <trkpt lat="43.60172" lon="3.09681">
        <ele>349.736926</ele>
        <time>2025-10-23T09:37:31Z</time>
      </trkpt>
      <trkpt lat="43.60171" lon="3.09681">
        <ele>349.827531</ele>
        <time>2025-10-23T09:37:32Z</time>
      </trkpt>
      <trkpt lat="43.60169" lon="3.0968">
        <ele>349.923198</ele>
        <time>2025-10-23T09:37:33Z</time>
      </trkpt>
      <trkpt lat="43.60167" lon="3.0968">
        <ele>350.018787</ele>
        <time>2025-10-23T09:37:34Z</time>
      </trkpt>
      <trkpt lat="43.60165" lon="3.0968">
        <ele>350.109393</ele>
        <time>2025-10-23T09:37:35Z</time>
      </trkpt>
      <trkpt lat="43.60164" lon="3.0968">
        <ele>350.199754</ele>
        <time>2025-10-23T09:37:36Z</time>
      </trkpt>
      <trkpt lat="43.60163" lon="3.0968">
        <ele>350.264516</ele>
        <time>2025-10-23T09:37:37Z</time>
      </trkpt>
      <trkpt lat="43.60161" lon="3.0968">
        <ele>350.350865</ele>
        <time>2025-10-23T09:37:38Z</time>
      </trkpt>
      <trkpt lat="43.60159" lon="3.09679">
        <ele>350.431354</ele>
        <time>2025-10-23T09:37:39Z</time>
      </trkpt>
      <trkpt lat="43.60158" lon="3.09679">
        <ele>350.518471</ele>
        <time>2025-10-23T09:37:40Z</time>
      </trkpt>
      <trkpt lat="43.60156" lon="3.09679">
        <ele>350.598499</ele>
        <time>2025-10-23T09:37:41Z</time>
      </trkpt>
      <trkpt lat="43.60155" lon="3.09678">
        <ele>350.689512</ele>
        <time>2025-10-23T09:37:42Z</time>
      </trkpt>
      <trkpt lat="43.60153" lon="3.09678">
        <ele>350.781092</ele>
        <time>2025-10-23T09:37:43Z</time>
      </trkpt>
      <trkpt lat="43.60151" lon="3.09677">
        <ele>350.874272</ele>
        <time>2025-10-23T09:37:44Z</time>
      </trkpt>
      <trkpt lat="43.6015" lon="3.09677">
        <ele>350.961389</ele>
        <time>2025-10-23T09:37:45Z</time>
      </trkpt>
      <trkpt lat="43.60148" lon="3.09677">
        <ele>351.041878</ele>
        <time>2025-10-23T09:37:46Z</time>
      </trkpt>
      <trkpt lat="43.60146" lon="3.09676">
        <ele>351.134182</ele>
        <time>2025-10-23T09:37:47Z</time>
      </trkpt>
      <trkpt lat="43.60145" lon="3.09676">
        <ele>351.220531</ele>
        <time>2025-10-23T09:37:48Z</time>
      </trkpt>
      <trkpt lat="43.60143" lon="3.09676">
        <ele>351.300189</ele>
        <time>2025-10-23T09:37:49Z</time>
      </trkpt>
      <trkpt lat="43.60142" lon="3.09675">
        <ele>351.375426</ele>
        <time>2025-10-23T09:37:50Z</time>
      </trkpt>
      <trkpt lat="43.60141" lon="3.09675">
        <ele>351.450663</ele>
        <time>2025-10-23T09:37:51Z</time>
      </trkpt>
      <trkpt lat="43.60139" lon="3.09675">
        <ele>351.531792</ele>
        <time>2025-10-23T09:37:52Z</time>
      </trkpt>
      <trkpt lat="43.60137" lon="3.09674">
        <ele>351.624096</ele>
        <time>2025-10-23T09:37:53Z</time>
      </trkpt>
      <trkpt lat="43.60136" lon="3.09674">
        <ele>351.703846</ele>
        <time>2025-10-23T09:37:54Z</time>
      </trkpt>
      <trkpt lat="43.60135" lon="3.09674">
        <ele>351.768608</ele>
        <time>2025-10-23T09:37:55Z</time>
      </trkpt>
      <trkpt lat="43.60133" lon="3.09674">
        <ele>351.843055</ele>
        <time>2025-10-23T09:37:56Z</time>
      </trkpt>
      <trkpt lat="43.60132" lon="3.09674">
        <ele>351.918977</ele>
        <time>2025-10-23T09:37:57Z</time>
      </trkpt>
      <trkpt lat="43.6013" lon="3.09674">
        <ele>351.999466</ele>
        <time>2025-10-23T09:37:58Z</time>
      </trkpt>
      <trkpt lat="43.60129" lon="3.09675">
        <ele>352.085214</ele>
        <time>2025-10-23T09:37:59Z</time>
      </trkpt>
      <trkpt lat="43.60127" lon="3.09674">
        <ele>352.181496</ele>
        <time>2025-10-23T09:38:00Z</time>
      </trkpt>
      <trkpt lat="43.60125" lon="3.09674">
        <ele>352.277779</ele>
        <time>2025-10-23T09:38:01Z</time>
      </trkpt>
      <trkpt lat="43.60123" lon="3.09674">
        <ele>352.373446</ele>
        <time>2025-10-23T09:38:02Z</time>
      </trkpt>
      <trkpt lat="43.60122" lon="3.09674">
        <ele>352.465026</ele>
        <time>2025-10-23T09:38:03Z</time>
      </trkpt>
      <trkpt lat="43.6012" lon="3.09673">
        <ele>352.556606</ele>
        <time>2025-10-23T09:38:04Z</time>
      </trkpt>
      <trkpt lat="43.60118" lon="3.09673">
        <ele>352.641661</ele>
        <time>2025-10-23T09:38:05Z</time>
      </trkpt>
      <trkpt lat="43.60116" lon="3.09673">
        <ele>352.742634</ele>
        <time>2025-10-23T09:38:06Z</time>
      </trkpt>
      <trkpt lat="43.60115" lon="3.09673">
        <ele>352.838223</ele>
        <time>2025-10-23T09:38:07Z</time>
      </trkpt>
      <trkpt lat="43.60113" lon="3.09673">
        <ele>352.917974</ele>
        <time>2025-10-23T09:38:08Z</time>
      </trkpt>
      <trkpt lat="43.60111" lon="3.09673">
        <ele>353.01364</ele>
        <time>2025-10-23T09:38:09Z</time>
      </trkpt>
      <trkpt lat="43.6011" lon="3.09673">
        <ele>353.098609</ele>
        <time>2025-10-23T09:38:10Z</time>
      </trkpt>
      <trkpt lat="43.60108" lon="3.09673">
        <ele>353.194198</ele>
        <time>2025-10-23T09:38:11Z</time>
      </trkpt>
      <trkpt lat="43.60106" lon="3.09673">
        <ele>353.284558</ele>
        <time>2025-10-23T09:38:12Z</time>
      </trkpt>
      <trkpt lat="43.60105" lon="3.09672">
        <ele>353.376138</ele>
        <time>2025-10-23T09:38:13Z</time>
      </trkpt>
      <trkpt lat="43.60103" lon="3.09672">
        <ele>353.472957</ele>
        <time>2025-10-23T09:38:14Z</time>
      </trkpt>
      <trkpt lat="43.60101" lon="3.09672">
        <ele>353.56924</ele>
        <time>2025-10-23T09:38:15Z</time>
      </trkpt>
      <trkpt lat="43.60099" lon="3.09671">
        <ele>353.665523</ele>
        <time>2025-10-23T09:38:16Z</time>
      </trkpt>
      <trkpt lat="43.60097" lon="3.09672">
        <ele>353.761421</ele>
        <time>2025-10-23T09:38:17Z</time>
      </trkpt>
      <trkpt lat="43.60095" lon="3.09671">
        <ele>353.873537</ele>
        <time>2025-10-23T09:38:18Z</time>
      </trkpt>
      <trkpt lat="43.60093" lon="3.09671">
        <ele>353.990432</ele>
        <time>2025-10-23T09:38:19Z</time>
      </trkpt>
      <trkpt lat="43.60091" lon="3.09672">
        <ele>354.107516</ele>
        <time>2025-10-23T09:38:20Z</time>
      </trkpt>
      <trkpt lat="43.60089" lon="3.09672">
        <ele>354.224348</ele>
        <time>2025-10-23T09:38:21Z</time>
      </trkpt>
      <trkpt lat="43.60087" lon="3.09672">
        <ele>354.325247</ele>
        <time>2025-10-23T09:38:22Z</time>
      </trkpt>
      <trkpt lat="43.60085" lon="3.09671">
        <ele>354.422751</ele>
        <time>2025-10-23T09:38:23Z</time>
      </trkpt>
      <trkpt lat="43.60083" lon="3.09671">
        <ele>354.515055</ele>
        <time>2025-10-23T09:38:24Z</time>
      </trkpt>
      <trkpt lat="43.60081" lon="3.0967">
        <ele>354.611874</ele>
        <time>2025-10-23T09:38:25Z</time>
      </trkpt>
      <trkpt lat="43.6008" lon="3.0967">
        <ele>354.715379</ele>
        <time>2025-10-23T09:38:26Z</time>
      </trkpt>
      <trkpt lat="43.60078" lon="3.09669">
        <ele>354.818883</ele>
        <time>2025-10-23T09:38:27Z</time>
      </trkpt>
      <trkpt lat="43.60075" lon="3.09668">
        <ele>354.949147</ele>
        <time>2025-10-23T09:38:28Z</time>
      </trkpt>
      <trkpt lat="43.60073" lon="3.09667">
        <ele>355.084697</ele>
        <time>2025-10-23T09:38:29Z</time>
      </trkpt>
      <trkpt lat="43.6007" lon="3.09666">
        <ele>355.229451</ele>
        <time>2025-10-23T09:38:30Z</time>
      </trkpt>
      <trkpt lat="43.60067" lon="3.09665">
        <ele>355.408867</ele>
        <time>2025-10-23T09:38:31Z</time>
      </trkpt>
      <trkpt lat="43.60064" lon="3.09664">
        <ele>355.571899</ele>
        <time>2025-10-23T09:38:32Z</time>
      </trkpt>
      <trkpt lat="43.60061" lon="3.09663">
        <ele>355.755744</ele>
        <time>2025-10-23T09:38:33Z</time>
      </trkpt>
      <trkpt lat="43.60058" lon="3.09661">
        <ele>355.921421</ele>
        <time>2025-10-23T09:38:34Z</time>
      </trkpt>
      <trkpt lat="43.60055" lon="3.09659">
        <ele>356.103128</ele>
        <time>2025-10-23T09:38:35Z</time>
      </trkpt>
      <trkpt lat="43.60052" lon="3.09657">
        <ele>356.287248</ele>
        <time>2025-10-23T09:38:36Z</time>
      </trkpt>
      <trkpt lat="43.60047" lon="3.09654">
        <ele>356.546296</ele>
        <time>2025-10-23T09:38:37Z</time>
      </trkpt>
      <trkpt lat="43.60043" lon="3.09651">
        <ele>356.813259</ele>
        <time>2025-10-23T09:38:38Z</time>
      </trkpt>
      <trkpt lat="43.60038" lon="3.09648">
        <ele>357.081797</ele>
        <time>2025-10-23T09:38:39Z</time>
      </trkpt>
      <trkpt lat="43.60034" lon="3.09646">
        <ele>357.323019</ele>
        <time>2025-10-23T09:38:40Z</time>
      </trkpt>
      <trkpt lat="43.6003" lon="3.09644">
        <ele>357.569015</ele>
        <time>2025-10-23T09:38:41Z</time>
      </trkpt>
      <trkpt lat="43.60025" lon="3.09641">
        <ele>357.818859</ele>
        <time>2025-10-23T09:38:42Z</time>
      </trkpt>
      <trkpt lat="43.60021" lon="3.09639">
        <ele>358.05054</ele>
        <time>2025-10-23T09:38:43Z</time>
      </trkpt>
      <trkpt lat="43.60018" lon="3.09636">
        <ele>358.224435</ele>
        <time>2025-10-23T09:38:44Z</time>
      </trkpt>
      <trkpt lat="43.60016" lon="3.09634">
        <ele>358.39266</ele>
        <time>2025-10-23T09:38:45Z</time>
      </trkpt>
      <trkpt lat="43.60014" lon="3.09631">
        <ele>358.553335</ele>
        <time>2025-10-23T09:38:46Z</time>
      </trkpt>
      <trkpt lat="43.60013" lon="3.09628">
        <ele>358.692015</ele>
        <time>2025-10-23T09:38:47Z</time>
      </trkpt>
      <trkpt lat="43.60012" lon="3.09625">
        <ele>358.812658</ele>
        <time>2025-10-23T09:38:48Z</time>
      </trkpt>
      <trkpt lat="43.60011" lon="3.09623">
        <ele>358.940423</ele>
        <time>2025-10-23T09:38:49Z</time>
      </trkpt>
      <trkpt lat="43.6001" lon="3.0962">
        <ele>359.059271</ele>
        <time>2025-10-23T09:38:50Z</time>
      </trkpt>
      <trkpt lat="43.60009" lon="3.09617">
        <ele>359.183411</ele>
        <time>2025-10-23T09:38:51Z</time>
      </trkpt>
      <trkpt lat="43.60009" lon="3.09615">
        <ele>359.29203</ele>
        <time>2025-10-23T09:38:52Z</time>
      </trkpt>
      <trkpt lat="43.60008" lon="3.09612">
        <ele>359.399861</ele>
        <time>2025-10-23T09:38:53Z</time>
      </trkpt>
      <trkpt lat="43.60008" lon="3.09609">
        <ele>359.512402</ele>
        <time>2025-10-23T09:38:54Z</time>
      </trkpt>
      <trkpt lat="43.60007" lon="3.09607">
        <ele>359.631338</ele>
        <time>2025-10-23T09:38:55Z</time>
      </trkpt>
      <trkpt lat="43.60007" lon="3.09604">
        <ele>359.76232</ele>
        <time>2025-10-23T09:38:56Z</time>
      </trkpt>
      <trkpt lat="43.60007" lon="3.09601">
        <ele>359.877796</ele>
        <time>2025-10-23T09:38:57Z</time>
      </trkpt>
      <trkpt lat="43.60007" lon="3.09598">
        <ele>360.001652</ele>
        <time>2025-10-23T09:38:58Z</time>
      </trkpt>
      <trkpt lat="43.60007" lon="3.09594">
        <ele>360.137869</ele>
        <time>2025-10-23T09:38:59Z</time>
      </trkpt>
      <trkpt lat="43.60007" lon="3.09592">
        <ele>360.249367</ele>
        <time>2025-10-23T09:39:00Z</time>
      </trkpt>
      <trkpt lat="43.60007" lon="3.09589">
        <ele>360.349</ele>
        <time>2025-10-23T09:39:01Z</time>
      </trkpt>
      <trkpt lat="43.60007" lon="3.09586">
        <ele>360.476976</ele>
        <time>2025-10-23T09:39:02Z</time>
      </trkpt>
      <trkpt lat="43.60007" lon="3.09583">
        <ele>360.604952</ele>
        <time>2025-10-23T09:39:03Z</time>
      </trkpt>
      <trkpt lat="43.60007" lon="3.0958">
        <ele>360.741525</ele>
        <time>2025-10-23T09:39:04Z</time>
      </trkpt>
      <trkpt lat="43.60007" lon="3.09577">
        <ele>360.857001</ele>
        <time>2025-10-23T09:39:05Z</time>
      </trkpt>
      <trkpt lat="43.60006" lon="3.09573">
        <ele>361.005581</ele>
        <time>2025-10-23T09:39:06Z</time>
      </trkpt>
      <trkpt lat="43.60006" lon="3.0957">
        <ele>361.141797</ele>
        <time>2025-10-23T09:39:07Z</time>
      </trkpt>
      <trkpt lat="43.60006" lon="3.09567">
        <ele>361.286255</ele>
        <time>2025-10-23T09:39:08Z</time>
      </trkpt>
      <trkpt lat="43.60006" lon="3.09564">
        <ele>361.385399</ele>
        <time>2025-10-23T09:39:09Z</time>
      </trkpt>
      <trkpt lat="43.60006" lon="3.09562">
        <ele>361.472752</ele>
        <time>2025-10-23T09:39:10Z</time>
      </trkpt>
      <trkpt lat="43.60006" lon="3.0956">
        <ele>361.576483</ele>
        <time>2025-10-23T09:39:11Z</time>
      </trkpt>
      <trkpt lat="43.60006" lon="3.09557">
        <ele>361.687836</ele>
        <time>2025-10-23T09:39:12Z</time>
      </trkpt>
      <trkpt lat="43.60006" lon="3.09554">
        <ele>361.815685</ele>
        <time>2025-10-23T09:39:13Z</time>
      </trkpt>
      <trkpt lat="43.60006" lon="3.09551">
        <ele>361.928341</ele>
        <time>2025-10-23T09:39:14Z</time>
      </trkpt>
      <trkpt lat="43.60005" lon="3.09548">
        <ele>362.044818</ele>
        <time>2025-10-23T09:39:15Z</time>
      </trkpt>
      <trkpt lat="43.60003" lon="3.09545">
        <ele>362.212311</ele>
        <time>2025-10-23T09:39:16Z</time>
      </trkpt>
      <trkpt lat="43.60001" lon="3.09543">
        <ele>362.345909</ele>
        <time>2025-10-23T09:39:17Z</time>
      </trkpt>
      <trkpt lat="43.59999" lon="3.09541">
        <ele>362.494135</ele>
        <time>2025-10-23T09:39:18Z</time>
      </trkpt>
      <trkpt lat="43.59997" lon="3.09539">
        <ele>362.639416</ele>
        <time>2025-10-23T09:39:19Z</time>
      </trkpt>
      <trkpt lat="43.59995" lon="3.09537">
        <ele>362.778013</ele>
        <time>2025-10-23T09:39:20Z</time>
      </trkpt>
      <trkpt lat="43.59993" lon="3.09536">
        <ele>362.923378</ele>
        <time>2025-10-23T09:39:21Z</time>
      </trkpt>
      <trkpt lat="43.5999" lon="3.09534">
        <ele>363.085486</ele>
        <time>2025-10-23T09:39:22Z</time>
      </trkpt>
      <trkpt lat="43.59988" lon="3.09532">
        <ele>363.259978</ele>
        <time>2025-10-23T09:39:23Z</time>
      </trkpt>
      <trkpt lat="43.59985" lon="3.09531">
        <ele>363.449935</ele>
        <time>2025-10-23T09:39:24Z</time>
      </trkpt>
      <trkpt lat="43.59982" lon="3.09529">
        <ele>363.639893</ele>
        <time>2025-10-23T09:39:25Z</time>
      </trkpt>
      <trkpt lat="43.59978" lon="3.09527">
        <ele>363.82985</ele>
        <time>2025-10-23T09:39:26Z</time>
      </trkpt>
      <trkpt lat="43.59975" lon="3.09526">
        <ele>364.019814</ele>
        <time>2025-10-23T09:39:27Z</time>
      </trkpt>
      <trkpt lat="43.59972" lon="3.09525">
        <ele>364.212221</ele>
        <time>2025-10-23T09:39:28Z</time>
      </trkpt>
      <trkpt lat="43.59969" lon="3.09524">
        <ele>364.39907</ele>
        <time>2025-10-23T09:39:29Z</time>
      </trkpt>
      <trkpt lat="43.59965" lon="3.09523">
        <ele>364.591478</ele>
        <time>2025-10-23T09:39:30Z</time>
      </trkpt>
      <trkpt lat="43.59962" lon="3.09522">
        <ele>364.776681</ele>
        <time>2025-10-23T09:39:31Z</time>
      </trkpt>
      <trkpt lat="43.59959" lon="3.09522">
        <ele>364.965339</ele>
        <time>2025-10-23T09:39:32Z</time>
      </trkpt>
      <trkpt lat="43.59956" lon="3.09522">
        <ele>365.130546</ele>
        <time>2025-10-23T09:39:33Z</time>
      </trkpt>
      <trkpt lat="43.59953" lon="3.09522">
        <ele>365.302636</ele>
        <time>2025-10-23T09:39:34Z</time>
      </trkpt>
      <trkpt lat="43.5995" lon="3.09522">
        <ele>365.456623</ele>
        <time>2025-10-23T09:39:35Z</time>
      </trkpt>
      <trkpt lat="43.59948" lon="3.09523">
        <ele>365.565533</ele>
        <time>2025-10-23T09:39:36Z</time>
      </trkpt>
      <trkpt lat="43.59947" lon="3.09523">
        <ele>365.674443</ele>
        <time>2025-10-23T09:39:37Z</time>
      </trkpt>
      <trkpt lat="43.59946" lon="3.09523">
        <ele>365.714308</ele>
        <time>2025-10-23T09:39:38Z</time>
      </trkpt>
      <trkpt lat="43.59945" lon="3.09523">
        <ele>365.743954</ele>
        <time>2025-10-23T09:39:39Z</time>
      </trkpt>
      <trkpt lat="43.59945" lon="3.09522">
        <ele>365.781506</ele>
        <time>2025-10-23T09:39:40Z</time>
      </trkpt>
      <trkpt lat="43.59945" lon="3.09522">
        <ele>365.801553</ele>
        <time>2025-10-23T09:39:41Z</time>
      </trkpt>
      <trkpt lat="43.59945" lon="3.09522">
        <ele>365.842263</ele>
        <time>2025-10-23T09:39:42Z</time>
      </trkpt>
      <trkpt lat="43.59944" lon="3.09523">
        <ele>365.891483</ele>
        <time>2025-10-23T09:39:43Z</time>
      </trkpt>
      <trkpt lat="43.59943" lon="3.09523">
        <ele>365.939938</ele>
        <time>2025-10-23T09:39:44Z</time>
      </trkpt>
      <trkpt lat="43.59942" lon="3.09524">
        <ele>365.99619</ele>
        <time>2025-10-23T09:39:45Z</time>
      </trkpt>
      <trkpt lat="43.59941" lon="3.09525">
        <ele>366.057645</ele>
        <time>2025-10-23T09:39:46Z</time>
      </trkpt>
      <trkpt lat="43.5994" lon="3.09525">
        <ele>366.115923</ele>
        <time>2025-10-23T09:39:47Z</time>
      </trkpt>
      <trkpt lat="43.59939" lon="3.09525">
        <ele>366.19576</ele>
        <time>2025-10-23T09:39:48Z</time>
      </trkpt>
      <trkpt lat="43.59938" lon="3.09525">
        <ele>366.275916</ele>
        <time>2025-10-23T09:39:49Z</time>
      </trkpt>
      <trkpt lat="43.59936" lon="3.09526">
        <ele>366.353977</ele>
        <time>2025-10-23T09:39:50Z</time>
      </trkpt>
      <trkpt lat="43.59935" lon="3.09527">
        <ele>366.440264</ele>
        <time>2025-10-23T09:39:51Z</time>
      </trkpt>
      <trkpt lat="43.59934" lon="3.09527">
        <ele>366.512946</ele>
        <time>2025-10-23T09:39:52Z</time>
      </trkpt>
      <trkpt lat="43.59933" lon="3.09528">
        <ele>366.587134</ele>
        <time>2025-10-23T09:39:53Z</time>
      </trkpt>
      <trkpt lat="43.59932" lon="3.09528">
        <ele>366.639049</ele>
        <time>2025-10-23T09:39:54Z</time>
      </trkpt>
      <trkpt lat="43.5993" lon="3.09529">
        <ele>366.727986</ele>
        <time>2025-10-23T09:39:55Z</time>
      </trkpt>
      <trkpt lat="43.59929" lon="3.0953">
        <ele>366.811468</ele>
        <time>2025-10-23T09:39:56Z</time>
      </trkpt>
      <trkpt lat="43.59928" lon="3.0953">
        <ele>366.872036</ele>
        <time>2025-10-23T09:39:57Z</time>
      </trkpt>
      <trkpt lat="43.59926" lon="3.09531">
        <ele>366.960973</ele>
        <time>2025-10-23T09:39:58Z</time>
      </trkpt>
      <trkpt lat="43.59925" lon="3.09531">
        <ele>367.030425</ele>
        <time>2025-10-23T09:39:59Z</time>
      </trkpt>
      <trkpt lat="43.59924" lon="3.09532">
        <ele>367.120596</ele>
        <time>2025-10-23T09:40:00Z</time>
      </trkpt>
      <trkpt lat="43.59922" lon="3.09533">
        <ele>367.208543</ele>
        <time>2025-10-23T09:40:01Z</time>
      </trkpt>
      <trkpt lat="43.59921" lon="3.09534">
        <ele>367.293291</ele>
        <time>2025-10-23T09:40:02Z</time>
      </trkpt>
      <trkpt lat="43.5992" lon="3.09534">
        <ele>367.344711</ele>
        <time>2025-10-23T09:40:03Z</time>
      </trkpt>
      <trkpt lat="43.59919" lon="3.09534">
        <ele>367.417394</ele>
        <time>2025-10-23T09:40:04Z</time>
      </trkpt>
      <trkpt lat="43.59918" lon="3.09535">
        <ele>367.493282</ele>
        <time>2025-10-23T09:40:05Z</time>
      </trkpt>
      <trkpt lat="43.59916" lon="3.09536">
        <ele>367.567469</ele>
        <time>2025-10-23T09:40:06Z</time>
      </trkpt>
      <trkpt lat="43.59915" lon="3.09536">
        <ele>367.670063</ele>
        <time>2025-10-23T09:40:07Z</time>
      </trkpt>
      <trkpt lat="43.59913" lon="3.09537">
        <ele>367.782053</ele>
        <time>2025-10-23T09:40:08Z</time>
      </trkpt>
      <trkpt lat="43.59911" lon="3.09537">
        <ele>367.884894</ele>
        <time>2025-10-23T09:40:09Z</time>
      </trkpt>
      <trkpt lat="43.59909" lon="3.09537">
        <ele>367.982497</ele>
        <time>2025-10-23T09:40:10Z</time>
      </trkpt>
      <trkpt lat="43.59908" lon="3.09537">
        <ele>368.069501</ele>
        <time>2025-10-23T09:40:11Z</time>
      </trkpt>
      <trkpt lat="43.59906" lon="3.09537">
        <ele>368.166316</ele>
        <time>2025-10-23T09:40:12Z</time>
      </trkpt>
      <trkpt lat="43.59904" lon="3.09537">
        <ele>368.26957</ele>
        <time>2025-10-23T09:40:13Z</time>
      </trkpt>
      <trkpt lat="43.59903" lon="3.09537">
        <ele>368.355887</ele>
        <time>2025-10-23T09:40:14Z</time>
      </trkpt>
      <trkpt lat="43.59901" lon="3.09536">
        <ele>368.437306</ele>
        <time>2025-10-23T09:40:15Z</time>
      </trkpt>
      <trkpt lat="43.599" lon="3.09536">
        <ele>368.500492</ele>
        <time>2025-10-23T09:40:16Z</time>
      </trkpt>
      <trkpt lat="43.59899" lon="3.09536">
        <ele>368.553754</ele>
        <time>2025-10-23T09:40:17Z</time>
      </trkpt>
      <trkpt lat="43.59898" lon="3.09535">
        <ele>368.611912</ele>
        <time>2025-10-23T09:40:18Z</time>
      </trkpt>
      <trkpt lat="43.59897" lon="3.09535">
        <ele>368.672038</ele>
        <time>2025-10-23T09:40:19Z</time>
      </trkpt>
      <trkpt lat="43.59895" lon="3.09534">
        <ele>368.737775</ele>
        <time>2025-10-23T09:40:20Z</time>
      </trkpt>
      <trkpt lat="43.59894" lon="3.09533">
        <ele>368.798012</ele>
        <time>2025-10-23T09:40:21Z</time>
      </trkpt>
      <trkpt lat="43.59893" lon="3.09533">
        <ele>368.862587</ele>
        <time>2025-10-23T09:40:22Z</time>
      </trkpt>
      <trkpt lat="43.59892" lon="3.09532">
        <ele>368.937181</ele>
        <time>2025-10-23T09:40:23Z</time>
      </trkpt>
      <trkpt lat="43.5989" lon="3.09531">
        <ele>369.002918</ele>
        <time>2025-10-23T09:40:24Z</time>
      </trkpt>
      <trkpt lat="43.59889" lon="3.0953">
        <ele>369.068949</ele>
        <time>2025-10-23T09:40:25Z</time>
      </trkpt>
      <trkpt lat="43.59888" lon="3.09529">
        <ele>369.130309</ele>
        <time>2025-10-23T09:40:26Z</time>
      </trkpt>
      <trkpt lat="43.59888" lon="3.09527">
        <ele>369.191294</ele>
        <time>2025-10-23T09:40:27Z</time>
      </trkpt>
      <trkpt lat="43.59888" lon="3.09525">
        <ele>369.249294</ele>
        <time>2025-10-23T09:40:28Z</time>
      </trkpt>
      <trkpt lat="43.59888" lon="3.09524">
        <ele>369.296277</ele>
        <time>2025-10-23T09:40:29Z</time>
      </trkpt>
      <trkpt lat="43.59889" lon="3.09524">
        <ele>369.331178</ele>
        <time>2025-10-23T09:40:30Z</time>
      </trkpt>
      <trkpt lat="43.5989" lon="3.09523">
        <ele>369.38353</ele>
        <time>2025-10-23T09:40:31Z</time>
      </trkpt>
      <trkpt lat="43.59891" lon="3.09522">
        <ele>369.428149</ele>
        <time>2025-10-23T09:40:32Z</time>
      </trkpt>
      <trkpt lat="43.59891" lon="3.09521">
        <ele>369.469884</ele>
        <time>2025-10-23T09:40:33Z</time>
      </trkpt>
      <trkpt lat="43.59892" lon="3.09521">
        <ele>369.5029</ele>
        <time>2025-10-23T09:40:34Z</time>
      </trkpt>
      <trkpt lat="43.59893" lon="3.09521">
        <ele>369.554835</ele>
        <time>2025-10-23T09:40:35Z</time>
      </trkpt>
      <trkpt lat="43.59894" lon="3.09521">
        <ele>369.60494</ele>
        <time>2025-10-23T09:40:36Z</time>
      </trkpt>
      <trkpt lat="43.59895" lon="3.09521">
        <ele>369.667035</ele>
        <time>2025-10-23T09:40:37Z</time>
      </trkpt>
      <trkpt lat="43.59896" lon="3.0952">
        <ele>369.731369</ele>
        <time>2025-10-23T09:40:38Z</time>
      </trkpt>
      <trkpt lat="43.59898" lon="3.09519">
        <ele>369.815574</ele>
        <time>2025-10-23T09:40:39Z</time>
      </trkpt>
      <trkpt lat="43.599" lon="3.09518">
        <ele>369.899007</ele>
        <time>2025-10-23T09:40:40Z</time>
      </trkpt>
      <trkpt lat="43.59902" lon="3.09516">
        <ele>370.006231</ele>
        <time>2025-10-23T09:40:41Z</time>
      </trkpt>
      <trkpt lat="43.59903" lon="3.09515">
        <ele>370.107083</ele>
        <time>2025-10-23T09:40:42Z</time>
      </trkpt>
      <trkpt lat="43.59905" lon="3.09513">
        <ele>370.195696</ele>
        <time>2025-10-23T09:40:43Z</time>
      </trkpt>
      <trkpt lat="43.59906" lon="3.09512">
        <ele>370.269954</ele>
        <time>2025-10-23T09:40:44Z</time>
      </trkpt>
      <trkpt lat="43.59907" lon="3.0951">
        <ele>370.337043</ele>
        <time>2025-10-23T09:40:45Z</time>
      </trkpt>
      <trkpt lat="43.59907" lon="3.09508">
        <ele>370.398635</ele>
        <time>2025-10-23T09:40:46Z</time>
      </trkpt>
      <trkpt lat="43.59907" lon="3.09507">
        <ele>370.449982</ele>
        <time>2025-10-23T09:40:47Z</time>
      </trkpt>
      <trkpt lat="43.59906" lon="3.09506">
        <ele>370.504405</ele>
        <time>2025-10-23T09:40:48Z</time>
      </trkpt>
      <trkpt lat="43.59905" lon="3.09505">
        <ele>370.555772</ele>
        <time>2025-10-23T09:40:49Z</time>
      </trkpt>
      <trkpt lat="43.59904" lon="3.09505">
        <ele>370.602855</ele>
        <time>2025-10-23T09:40:50Z</time>
      </trkpt>
      <trkpt lat="43.59903" lon="3.09505">
        <ele>370.66495</ele>
        <time>2025-10-23T09:40:51Z</time>
      </trkpt>
      <trkpt lat="43.59901" lon="3.09504">
        <ele>370.74102</ele>
        <time>2025-10-23T09:40:52Z</time>
      </trkpt>
      <trkpt lat="43.599" lon="3.09504">
        <ele>370.807065</ele>
        <time>2025-10-23T09:40:53Z</time>
      </trkpt>
      <trkpt lat="43.59898" lon="3.09504">
        <ele>370.873811</ele>
        <time>2025-10-23T09:40:54Z</time>
      </trkpt>
      <trkpt lat="43.59897" lon="3.09504">
        <ele>370.935905</ele>
        <time>2025-10-23T09:40:55Z</time>
      </trkpt>
      <trkpt lat="43.59896" lon="3.09503">
        <ele>370.979524</ele>
        <time>2025-10-23T09:40:56Z</time>
      </trkpt>
      <trkpt lat="43.59895" lon="3.09503">
        <ele>371.032348</ele>
        <time>2025-10-23T09:40:57Z</time>
      </trkpt>
      <trkpt lat="43.59894" lon="3.09503">
        <ele>371.088067</ele>
        <time>2025-10-23T09:40:58Z</time>
      </trkpt>
      <trkpt lat="43.59893" lon="3.09502">
        <ele>371.123758</ele>
        <time>2025-10-23T09:40:59Z</time>
      </trkpt>
      <trkpt lat="43.59893" lon="3.09502">
        <ele>371.147025</ele>
        <time>2025-10-23T09:41:00Z</time>
      </trkpt>
      <trkpt lat="43.59892" lon="3.09502">
        <ele>371.175292</ele>
        <time>2025-10-23T09:41:01Z</time>
      </trkpt>
      <trkpt lat="43.59892" lon="3.09501">
        <ele>371.208837</ele>
        <time>2025-10-23T09:41:02Z</time>
      </trkpt>
      <trkpt lat="43.59891" lon="3.095">
        <ele>371.261188</ele>
        <time>2025-10-23T09:41:03Z</time>
      </trkpt>
      <trkpt lat="43.5989" lon="3.09499">
        <ele>371.313539</ele>
        <time>2025-10-23T09:41:04Z</time>
      </trkpt>
      <trkpt lat="43.59889" lon="3.09499">
        <ele>371.367129</ele>
        <time>2025-10-23T09:41:05Z</time>
      </trkpt>
      <trkpt lat="43.59888" lon="3.09498">
        <ele>371.402819</ele>
        <time>2025-10-23T09:41:06Z</time>
      </trkpt>
      <trkpt lat="43.59887" lon="3.09498">
        <ele>371.446438</ele>
        <time>2025-10-23T09:41:07Z</time>
      </trkpt>
      <trkpt lat="43.59886" lon="3.09498">
        <ele>371.476501</ele>
        <time>2025-10-23T09:41:08Z</time>
      </trkpt>
      <trkpt lat="43.59886" lon="3.09497">
        <ele>371.529096</ele>
        <time>2025-10-23T09:41:09Z</time>
      </trkpt>
      <trkpt lat="43.59885" lon="3.09495">
        <ele>371.582283</ele>
        <time>2025-10-23T09:41:10Z</time>
      </trkpt>
      <trkpt lat="43.59884" lon="3.09495">
        <ele>371.64241</ele>
        <time>2025-10-23T09:41:11Z</time>
      </trkpt>
      <trkpt lat="43.59883" lon="3.09494">
        <ele>371.689493</ele>
        <time>2025-10-23T09:41:12Z</time>
      </trkpt>
      <trkpt lat="43.59882" lon="3.09494">
        <ele>371.743083</ele>
        <time>2025-10-23T09:41:13Z</time>
      </trkpt>
      <trkpt lat="43.59881" lon="3.09493">
        <ele>371.781898</ele>
        <time>2025-10-23T09:41:14Z</time>
      </trkpt>
      <trkpt lat="43.5988" lon="3.09493">
        <ele>371.853303</ele>
        <time>2025-10-23T09:41:15Z</time>
      </trkpt>
      <trkpt lat="43.59879" lon="3.09492">
        <ele>371.903729</ele>
        <time>2025-10-23T09:41:16Z</time>
      </trkpt>
      <trkpt lat="43.59878" lon="3.09491">
        <ele>371.961897</ele>
        <time>2025-10-23T09:41:17Z</time>
      </trkpt>
      <trkpt lat="43.59877" lon="3.0949">
        <ele>372.023256</ele>
        <time>2025-10-23T09:41:18Z</time>
      </trkpt>
      <trkpt lat="43.59876" lon="3.09488">
        <ele>372.090346</ele>
        <time>2025-10-23T09:41:19Z</time>
      </trkpt>
      <trkpt lat="43.59875" lon="3.09487">
        <ele>372.153903</ele>
        <time>2025-10-23T09:41:20Z</time>
      </trkpt>
      <trkpt lat="43.59875" lon="3.09486">
        <ele>372.195363</ele>
        <time>2025-10-23T09:41:21Z</time>
      </trkpt>
      <trkpt lat="43.59874" lon="3.09485">
        <ele>372.237358</ele>
        <time>2025-10-23T09:41:22Z</time>
      </trkpt>
      <trkpt lat="43.59874" lon="3.09484">
        <ele>372.271475</ele>
        <time>2025-10-23T09:41:23Z</time>
      </trkpt>
      <trkpt lat="43.59874" lon="3.09483">
        <ele>372.312417</ele>
        <time>2025-10-23T09:41:24Z</time>
      </trkpt>
      <trkpt lat="43.59874" lon="3.09481">
        <ele>372.353628</ele>
        <time>2025-10-23T09:41:25Z</time>
      </trkpt>
      <trkpt lat="43.59874" lon="3.0948">
        <ele>372.391452</ele>
        <time>2025-10-23T09:41:26Z</time>
      </trkpt>
      <trkpt lat="43.59874" lon="3.09479">
        <ele>372.428982</ele>
        <time>2025-10-23T09:41:27Z</time>
      </trkpt>
      <trkpt lat="43.59874" lon="3.09478">
        <ele>372.465009</ele>
        <time>2025-10-23T09:41:28Z</time>
      </trkpt>
      <trkpt lat="43.59873" lon="3.09477">
        <ele>372.506469</ele>
        <time>2025-10-23T09:41:29Z</time>
      </trkpt>
      <trkpt lat="43.59873" lon="3.09477">
        <ele>372.532143</ele>
        <time>2025-10-23T09:41:30Z</time>
      </trkpt>
      <trkpt lat="43.59873" lon="3.09476">
        <ele>372.548726</ele>
        <time>2025-10-23T09:41:31Z</time>
      </trkpt>
      <trkpt lat="43.59873" lon="3.09476">
        <ele>372.56286</ele>
        <time>2025-10-23T09:41:32Z</time>
      </trkpt>
      <trkpt lat="43.59873" lon="3.09476">
        <ele>372.567571</ele>
        <time>2025-10-23T09:41:33Z</time>
      </trkpt>
      <trkpt lat="43.59873" lon="3.09476">
        <ele>372.578839</ele>
        <time>2025-10-23T09:41:34Z</time>
      </trkpt>
      <trkpt lat="43.59873" lon="3.09475">
        <ele>372.61978</ele>
        <time>2025-10-23T09:41:35Z</time>
      </trkpt>
      <trkpt lat="43.59873" lon="3.09474">
        <ele>372.663092</ele>
        <time>2025-10-23T09:41:36Z</time>
      </trkpt>
      <trkpt lat="43.59873" lon="3.09472">
        <ele>372.704303</ele>
        <time>2025-10-23T09:41:37Z</time>
      </trkpt>
      <trkpt lat="43.59873" lon="3.09471">
        <ele>372.749646</ele>
        <time>2025-10-23T09:41:38Z</time>
      </trkpt>
      <trkpt lat="43.59873" lon="3.0947">
        <ele>372.796197</ele>
        <time>2025-10-23T09:41:39Z</time>
      </trkpt>
      <trkpt lat="43.59874" lon="3.09469">
        <ele>372.831592</ele>
        <time>2025-10-23T09:41:40Z</time>
      </trkpt>
      <trkpt lat="43.59874" lon="3.09468">
        <ele>372.873603</ele>
        <time>2025-10-23T09:41:41Z</time>
      </trkpt>
      <trkpt lat="43.59874" lon="3.09466">
        <ele>372.928999</ele>
        <time>2025-10-23T09:41:42Z</time>
      </trkpt>
      <trkpt lat="43.59874" lon="3.09464">
        <ele>372.994504</ele>
        <time>2025-10-23T09:41:43Z</time>
      </trkpt>
      <trkpt lat="43.59874" lon="3.09463">
        <ele>373.0425</ele>
        <time>2025-10-23T09:41:44Z</time>
      </trkpt>
      <trkpt lat="43.59875" lon="3.09461">
        <ele>373.092312</ele>
        <time>2025-10-23T09:41:45Z</time>
      </trkpt>
      <trkpt lat="43.59875" lon="3.0946">
        <ele>373.139296</ele>
        <time>2025-10-23T09:41:46Z</time>
      </trkpt>
      <trkpt lat="43.59876" lon="3.09459">
        <ele>373.183606</ele>
        <time>2025-10-23T09:41:47Z</time>
      </trkpt>
      <trkpt lat="43.59876" lon="3.09458">
        <ele>373.227912</ele>
        <time>2025-10-23T09:41:48Z</time>
      </trkpt>
      <trkpt lat="43.59877" lon="3.09457">
        <ele>373.269371</ele>
        <time>2025-10-23T09:41:49Z</time>
      </trkpt>
      <trkpt lat="43.59878" lon="3.09456">
        <ele>373.324641</ele>
        <time>2025-10-23T09:41:50Z</time>
      </trkpt>
      <trkpt lat="43.59878" lon="3.09455">
        <ele>373.374601</ele>
        <time>2025-10-23T09:41:51Z</time>
      </trkpt>
      <trkpt lat="43.59879" lon="3.09454">
        <ele>373.418908</ele>
        <time>2025-10-23T09:41:52Z</time>
      </trkpt>
      <trkpt lat="43.59879" lon="3.09453">
        <ele>373.452452</ele>
        <time>2025-10-23T09:41:53Z</time>
      </trkpt>
      <trkpt lat="43.5988" lon="3.09453">
        <ele>373.476977</ele>
        <time>2025-10-23T09:41:54Z</time>
      </trkpt>
      <trkpt lat="43.59881" lon="3.09452">
        <ele>373.514106</ele>
        <time>2025-10-23T09:41:55Z</time>
      </trkpt>
      <trkpt lat="43.59881" lon="3.09452">
        <ele>373.552921</ele>
        <time>2025-10-23T09:41:56Z</time>
      </trkpt>
      <trkpt lat="43.59882" lon="3.09451">
        <ele>373.593638</ele>
        <time>2025-10-23T09:41:57Z</time>
      </trkpt>
      <trkpt lat="43.59883" lon="3.0945">
        <ele>373.636528</ele>
        <time>2025-10-23T09:41:58Z</time>
      </trkpt>
      <trkpt lat="43.59884" lon="3.0945">
        <ele>373.67483</ele>
        <time>2025-10-23T09:41:59Z</time>
      </trkpt>
      <trkpt lat="43.59885" lon="3.0945">
        <ele>373.723041</ele>
        <time>2025-10-23T09:42:00Z</time>
      </trkpt>
      <trkpt lat="43.59886" lon="3.09449">
        <ele>373.788778</ele>
        <time>2025-10-23T09:42:01Z</time>
      </trkpt>
      <trkpt lat="43.59886" lon="3.09448">
        <ele>373.838998</ele>
        <time>2025-10-23T09:42:02Z</time>
      </trkpt>
      <trkpt lat="43.59887" lon="3.09447">
        <ele>373.877692</ele>
        <time>2025-10-23T09:42:03Z</time>
      </trkpt>
      <trkpt lat="43.59886" lon="3.09445">
        <ele>373.924243</ele>
        <time>2025-10-23T09:42:04Z</time>
      </trkpt>
      <trkpt lat="43.59886" lon="3.09444">
        <ele>373.973994</ele>
        <time>2025-10-23T09:42:05Z</time>
      </trkpt>
      <trkpt lat="43.59885" lon="3.09443">
        <ele>374.027182</ele>
        <time>2025-10-23T09:42:06Z</time>
      </trkpt>
      <trkpt lat="43.59884" lon="3.09442">
        <ele>374.082684</ele>
        <time>2025-10-23T09:42:07Z</time>
      </trkpt>
      <trkpt lat="43.59884" lon="3.09441">
        <ele>374.122787</ele>
        <time>2025-10-23T09:42:08Z</time>
      </trkpt>
      <trkpt lat="43.59884" lon="3.09439">
        <ele>374.172599</ele>
        <time>2025-10-23T09:42:09Z</time>
      </trkpt>
      <trkpt lat="43.59884" lon="3.09438">
        <ele>374.203664</ele>
        <time>2025-10-23T09:42:10Z</time>
      </trkpt>
      <trkpt lat="43.59883" lon="3.09437">
        <ele>374.267902</ele>
        <time>2025-10-23T09:42:11Z</time>
      </trkpt>
      <trkpt lat="43.59883" lon="3.09435">
        <ele>374.305726</ele>
        <time>2025-10-23T09:42:12Z</time>
      </trkpt>
      <trkpt lat="43.59883" lon="3.09435">
        <ele>374.330068</ele>
        <time>2025-10-23T09:42:13Z</time>
      </trkpt>
      <trkpt lat="43.59883" lon="3.09434">
        <ele>374.355742</ele>
        <time>2025-10-23T09:42:14Z</time>
      </trkpt>
      <trkpt lat="43.59883" lon="3.09434">
        <ele>374.364034</ele>
        <time>2025-10-23T09:42:15Z</time>
      </trkpt>
      <trkpt lat="43.59885" lon="3.09432">
        <ele>374.493444</ele>
        <time>2025-10-23T09:48:11Z</time>
      </trkpt>
      <trkpt lat="43.59885" lon="3.09432">
        <ele>374.507356</ele>
        <time>2025-10-23T09:48:12Z</time>
      </trkpt>
      <trkpt lat="43.59884" lon="3.09433">
        <ele>374.546649</ele>
        <time>2025-10-23T09:48:13Z</time>
      </trkpt>
      <trkpt lat="43.59884" lon="3.09433">
        <ele>374.566296</ele>
        <time>2025-10-23T09:48:14Z</time>
      </trkpt>
      <trkpt lat="43.59884" lon="3.09433">
        <ele>374.586338</ele>
        <time>2025-10-23T09:48:15Z</time>
      </trkpt>
      <trkpt lat="43.59884" lon="3.09433">
        <ele>374.59576</ele>
        <time>2025-10-23T09:48:16Z</time>
      </trkpt>
      <trkpt lat="43.59883" lon="3.09433">
        <ele>374.622984</ele>
        <time>2025-10-23T09:48:17Z</time>
      </trkpt>
      <trkpt lat="43.59882" lon="3.09433">
        <ele>374.653047</ele>
        <time>2025-10-23T09:48:18Z</time>
      </trkpt>
      <trkpt lat="43.59881" lon="3.09433">
        <ele>374.700282</ele>
        <time>2025-10-23T09:48:19Z</time>
      </trkpt>
      <trkpt lat="43.59881" lon="3.09433">
        <ele>374.724084</ele>
        <time>2025-10-23T09:48:20Z</time>
      </trkpt>
      <trkpt lat="43.59881" lon="3.09433">
        <ele>374.744126</ele>
        <time>2025-10-23T09:48:21Z</time>
      </trkpt>
      <trkpt lat="43.5988" lon="3.09433">
        <ele>374.773205</ele>
        <time>2025-10-23T09:48:22Z</time>
      </trkpt>
      <trkpt lat="43.59879" lon="3.09433">
        <ele>374.804594</ele>
        <time>2025-10-23T09:48:23Z</time>
      </trkpt>
      <trkpt lat="43.59879" lon="3.09434">
        <ele>374.808006</ele>
        <time>2025-10-23T09:48:24Z</time>
      </trkpt>
      <trkpt lat="43.59879" lon="3.09434">
        <ele>374.813822</ele>
        <time>2025-10-23T09:48:25Z</time>
      </trkpt>
      <trkpt lat="43.5988" lon="3.09434">
        <ele>374.837624</ele>
        <time>2025-10-23T09:48:26Z</time>
      </trkpt>
      <trkpt lat="43.5988" lon="3.09433">
        <ele>374.851536</ele>
        <time>2025-10-23T09:48:27Z</time>
      </trkpt>
      <trkpt lat="43.5988" lon="3.09433">
        <ele>374.87876</ele>
        <time>2025-10-23T09:48:28Z</time>
      </trkpt>
      <trkpt lat="43.59881" lon="3.09432">
        <ele>374.920495</ele>
        <time>2025-10-23T09:48:29Z</time>
      </trkpt>
      <trkpt lat="43.59882" lon="3.09432">
        <ele>374.967607</ele>
        <time>2025-10-23T09:48:30Z</time>
      </trkpt>
      <trkpt lat="43.59883" lon="3.09432">
        <ele>375.019542</ele>
        <time>2025-10-23T09:48:31Z</time>
      </trkpt>
      <trkpt lat="43.59884" lon="3.09433">
        <ele>375.066993</ele>
        <time>2025-10-23T09:48:32Z</time>
      </trkpt>
      <trkpt lat="43.59884" lon="3.09434">
        <ele>375.100161</ele>
        <time>2025-10-23T09:48:33Z</time>
      </trkpt>
      <trkpt lat="43.59884" lon="3.09434">
        <ele>375.110182</ele>
        <time>2025-10-23T09:48:34Z</time>
      </trkpt>
      <trkpt lat="43.59884" lon="3.09434">
        <ele>375.115998</ele>
        <time>2025-10-23T09:48:35Z</time>
      </trkpt>
      <trkpt lat="43.59885" lon="3.09435">
        <ele>375.15801</ele>
        <time>2025-10-23T09:48:36Z</time>
      </trkpt>
      <trkpt lat="43.59885" lon="3.09437">
        <ele>375.223004</ele>
        <time>2025-10-23T09:48:37Z</time>
      </trkpt>
      <trkpt lat="43.59885" lon="3.09439">
        <ele>375.296863</ele>
        <time>2025-10-23T09:48:38Z</time>
      </trkpt>
      <trkpt lat="43.59886" lon="3.09441">
        <ele>375.374815</ele>
        <time>2025-10-23T09:48:39Z</time>
      </trkpt>
      <trkpt lat="43.59887" lon="3.09443">
        <ele>375.443936</ele>
        <time>2025-10-23T09:48:40Z</time>
      </trkpt>
      <trkpt lat="43.59887" lon="3.09445">
        <ele>375.516964</ele>
        <time>2025-10-23T09:48:41Z</time>
      </trkpt>
      <trkpt lat="43.59887" lon="3.09448">
        <ele>375.611601</ele>
        <time>2025-10-23T09:48:42Z</time>
      </trkpt>
      <trkpt lat="43.59885" lon="3.0945">
        <ele>375.718341</ele>
        <time>2025-10-23T09:48:43Z</time>
      </trkpt>
      <trkpt lat="43.59882" lon="3.09451">
        <ele>375.846452</ele>
        <time>2025-10-23T09:48:44Z</time>
      </trkpt>
      <trkpt lat="43.5988" lon="3.09451">
        <ele>375.950992</ele>
        <time>2025-10-23T09:48:45Z</time>
      </trkpt>
      <trkpt lat="43.59878" lon="3.09452">
        <ele>376.042399</ele>
        <time>2025-10-23T09:48:46Z</time>
      </trkpt>
      <trkpt lat="43.59877" lon="3.09454">
        <ele>376.130673</ele>
        <time>2025-10-23T09:48:47Z</time>
      </trkpt>
      <trkpt lat="43.59877" lon="3.09457">
        <ele>376.216097</ele>
        <time>2025-10-23T09:48:48Z</time>
      </trkpt>
      <trkpt lat="43.59877" lon="3.0946">
        <ele>376.31394</ele>
        <time>2025-10-23T09:48:49Z</time>
      </trkpt>
      <trkpt lat="43.59876" lon="3.09462">
        <ele>376.399624</ele>
        <time>2025-10-23T09:48:50Z</time>
      </trkpt>
      <trkpt lat="43.59874" lon="3.09463">
        <ele>376.502733</ele>
        <time>2025-10-23T09:48:51Z</time>
      </trkpt>
      <trkpt lat="43.59872" lon="3.09465">
        <ele>376.591971</ele>
        <time>2025-10-23T09:48:52Z</time>
      </trkpt>
      <trkpt lat="43.59871" lon="3.09466">
        <ele>376.659828</ele>
        <time>2025-10-23T09:48:53Z</time>
      </trkpt>
      <trkpt lat="43.5987" lon="3.09466">
        <ele>376.700546</ele>
        <time>2025-10-23T09:48:54Z</time>
      </trkpt>
      <trkpt lat="43.5987" lon="3.09467">
        <ele>376.735447</ele>
        <time>2025-10-23T09:48:55Z</time>
      </trkpt>
      <trkpt lat="43.59869" lon="3.09468">
        <ele>376.772452</ele>
        <time>2025-10-23T09:48:56Z</time>
      </trkpt>
      <trkpt lat="43.59869" lon="3.09468">
        <ele>376.789036</ele>
        <time>2025-10-23T09:48:57Z</time>
      </trkpt>
      <trkpt lat="43.59868" lon="3.09469">
        <ele>376.81812</ele>
        <time>2025-10-23T09:48:58Z</time>
      </trkpt>
      <trkpt lat="43.59868" lon="3.09469">
        <ele>376.834704</ele>
        <time>2025-10-23T09:48:59Z</time>
      </trkpt>
      <trkpt lat="43.59869" lon="3.09469">
        <ele>376.851288</ele>
        <time>2025-10-23T09:49:00Z</time>
      </trkpt>
      <trkpt lat="43.59869" lon="3.09469">
        <ele>376.861309</ele>
        <time>2025-10-23T09:49:01Z</time>
      </trkpt>
      <trkpt lat="43.59869" lon="3.09469">
        <ele>376.867125</ele>
        <time>2025-10-23T09:49:02Z</time>
      </trkpt>
      <trkpt lat="43.59899" lon="3.09536">
        <ele>366.697591</ele>
        <time>2025-10-23T09:50:46Z</time>
      </trkpt>
      <trkpt lat="43.59899" lon="3.09536">
        <ele>366.664323</ele>
        <time>2025-10-23T09:50:47Z</time>
      </trkpt>
      <trkpt lat="43.59899" lon="3.09536">
        <ele>366.664323</ele>
        <time>2025-10-23T09:50:48Z</time>
      </trkpt>
      <trkpt lat="43.59899" lon="3.09536">
        <ele>366.636947</ele>
        <time>2025-10-23T09:50:49Z</time>
      </trkpt>
      <trkpt lat="43.59899" lon="3.09536">
        <ele>366.636947</ele>
        <time>2025-10-23T09:50:50Z</time>
      </trkpt>
      <trkpt lat="43.59899" lon="3.09536">
        <ele>366.613609</ele>
        <time>2025-10-23T09:50:51Z</time>
      </trkpt>
      <trkpt lat="43.59899" lon="3.09536">
        <ele>366.599921</ele>
        <time>2025-10-23T09:50:52Z</time>
      </trkpt>
      <trkpt lat="43.59899" lon="3.09537">
        <ele>366.521734</ele>
        <time>2025-10-23T09:50:53Z</time>
      </trkpt>
      <trkpt lat="43.599" lon="3.09537">
        <ele>366.48393</ele>
        <time>2025-10-23T09:50:54Z</time>
      </trkpt>
      <trkpt lat="43.599" lon="3.09537">
        <ele>366.48393</ele>
        <time>2025-10-23T09:50:55Z</time>
      </trkpt>
      <trkpt lat="43.599" lon="3.09537">
        <ele>366.48393</ele>
        <time>2025-10-23T09:50:56Z</time>
      </trkpt>
      <trkpt lat="43.599" lon="3.09537">
        <ele>366.460593</ele>
        <time>2025-10-23T09:50:57Z</time>
      </trkpt>
      <trkpt lat="43.599" lon="3.09537">
        <ele>366.460593</ele>
        <time>2025-10-23T09:50:58Z</time>
      </trkpt>
      <trkpt lat="43.599" lon="3.09537">
        <ele>366.446904</ele>
        <time>2025-10-23T09:50:59Z</time>
      </trkpt>
      <trkpt lat="43.599" lon="3.09537">
        <ele>366.446904</ele>
        <time>2025-10-23T09:51:00Z</time>
      </trkpt>
      <trkpt lat="43.599" lon="3.09537">
        <ele>366.446904</ele>
        <time>2025-10-23T09:51:01Z</time>
      </trkpt>
      <trkpt lat="43.599" lon="3.09537">
        <ele>366.433216</ele>
        <time>2025-10-23T09:51:02Z</time>
      </trkpt>
      <trkpt lat="43.599" lon="3.09537">
        <ele>366.414315</ele>
        <time>2025-10-23T09:51:03Z</time>
      </trkpt>
      <trkpt lat="43.599" lon="3.09537">
        <ele>366.400626</ele>
        <time>2025-10-23T09:51:04Z</time>
      </trkpt>
      <trkpt lat="43.599" lon="3.09537">
        <ele>366.400626</ele>
        <time>2025-10-23T09:51:05Z</time>
      </trkpt>
      <trkpt lat="43.599" lon="3.09537">
        <ele>366.367359</ele>
        <time>2025-10-23T09:51:06Z</time>
      </trkpt>
      <trkpt lat="43.599" lon="3.09539">
        <ele>366.127849</ele>
        <time>2025-10-23T09:51:07Z</time>
      </trkpt>
      <trkpt lat="43.599" lon="3.0954">
        <ele>366.012001</ele>
        <time>2025-10-23T09:51:08Z</time>
      </trkpt>
      <trkpt lat="43.599" lon="3.0954">
        <ele>365.923121</ele>
        <time>2025-10-23T09:51:09Z</time>
      </trkpt>
      <trkpt lat="43.599" lon="3.09541">
        <ele>365.865197</ele>
        <time>2025-10-23T09:51:10Z</time>
      </trkpt>
      <trkpt lat="43.599" lon="3.09541">
        <ele>365.720653</ele>
        <time>2025-10-23T09:51:11Z</time>
      </trkpt>
      <trkpt lat="43.59899" lon="3.09542">
        <ele>365.625158</ele>
        <time>2025-10-23T09:51:12Z</time>
      </trkpt>
      <trkpt lat="43.59899" lon="3.09542">
        <ele>365.544748</ele>
        <time>2025-10-23T09:51:13Z</time>
      </trkpt>
      <trkpt lat="43.59899" lon="3.09542">
        <ele>365.498073</ele>
        <time>2025-10-23T09:51:14Z</time>
      </trkpt>
      <trkpt lat="43.59898" lon="3.09543">
        <ele>365.34991</ele>
        <time>2025-10-23T09:51:15Z</time>
      </trkpt>
      <trkpt lat="43.59898" lon="3.09544">
        <ele>365.205365</ele>
        <time>2025-10-23T09:51:16Z</time>
      </trkpt>
      <trkpt lat="43.59897" lon="3.09545">
        <ele>364.979746</ele>
        <time>2025-10-23T09:51:17Z</time>
      </trkpt>
      <trkpt lat="43.59896" lon="3.09546">
        <ele>364.754127</ele>
        <time>2025-10-23T09:51:18Z</time>
      </trkpt>
      <trkpt lat="43.59895" lon="3.09546">
        <ele>364.605658</ele>
        <time>2025-10-23T09:51:19Z</time>
      </trkpt>
      <trkpt lat="43.59895" lon="3.09547">
        <ele>364.471074</ele>
        <time>2025-10-23T09:51:20Z</time>
      </trkpt>
      <trkpt lat="43.59894" lon="3.09548">
        <ele>364.335456</ele>
        <time>2025-10-23T09:51:21Z</time>
      </trkpt>
      <trkpt lat="43.59894" lon="3.09549">
        <ele>364.145949</ele>
        <time>2025-10-23T09:51:22Z</time>
      </trkpt>
      <trkpt lat="43.59894" lon="3.0955">
        <ele>363.985055</ele>
        <time>2025-10-23T09:51:23Z</time>
      </trkpt>
      <trkpt lat="43.59893" lon="3.09551">
        <ele>363.891704</ele>
        <time>2025-10-23T09:51:24Z</time>
      </trkpt>
      <trkpt lat="43.59893" lon="3.09551">
        <ele>363.775037</ele>
        <time>2025-10-23T09:51:25Z</time>
      </trkpt>
      <trkpt lat="43.59892" lon="3.09552">
        <ele>363.652982</ele>
        <time>2025-10-23T09:51:26Z</time>
      </trkpt>
      <trkpt lat="43.59891" lon="3.09552">
        <ele>363.496292</ele>
        <time>2025-10-23T09:51:27Z</time>
      </trkpt>
      <trkpt lat="43.59891" lon="3.09552">
        <ele>363.324215</ele>
        <time>2025-10-23T09:51:28Z</time>
      </trkpt>
      <trkpt lat="43.59891" lon="3.09554">
        <ele>363.090748</ele>
        <time>2025-10-23T09:51:29Z</time>
      </trkpt>
      <trkpt lat="43.5989" lon="3.09555">
        <ele>362.990944</ele>
        <time>2025-10-23T09:51:30Z</time>
      </trkpt>
      <trkpt lat="43.5989" lon="3.09555">
        <ele>362.900532</ele>
        <time>2025-10-23T09:51:31Z</time>
      </trkpt>
      <trkpt lat="43.5989" lon="3.09555">
        <ele>362.88163</ele>
        <time>2025-10-23T09:51:32Z</time>
      </trkpt>
      <trkpt lat="43.5989" lon="3.09555">
        <ele>362.88163</ele>
        <time>2025-10-23T09:51:33Z</time>
      </trkpt>
      <trkpt lat="43.5989" lon="3.09555">
        <ele>362.804795</ele>
        <time>2025-10-23T09:51:34Z</time>
      </trkpt>
      <trkpt lat="43.59889" lon="3.09555">
        <ele>362.690562</ele>
        <time>2025-10-23T09:51:35Z</time>
      </trkpt>
      <trkpt lat="43.59888" lon="3.09556">
        <ele>362.547369</ele>
        <time>2025-10-23T09:51:36Z</time>
      </trkpt>
      <trkpt lat="43.59887" lon="3.09556">
        <ele>362.34128</ele>
        <time>2025-10-23T09:51:37Z</time>
      </trkpt>
      <trkpt lat="43.59886" lon="3.09557">
        <ele>362.137314</ele>
        <time>2025-10-23T09:51:38Z</time>
      </trkpt>
      <trkpt lat="43.59886" lon="3.09558">
        <ele>361.950614</ele>
        <time>2025-10-23T09:51:39Z</time>
      </trkpt>
      <trkpt lat="43.59885" lon="3.09559">
        <ele>361.728867</ele>
        <time>2025-10-23T09:51:40Z</time>
      </trkpt>
      <trkpt lat="43.59884" lon="3.09561">
        <ele>361.52926</ele>
        <time>2025-10-23T09:51:41Z</time>
      </trkpt>
      <trkpt lat="43.59884" lon="3.09562">
        <ele>361.307513</ele>
        <time>2025-10-23T09:51:42Z</time>
      </trkpt>
      <trkpt lat="43.59883" lon="3.09563">
        <ele>361.052516</ele>
        <time>2025-10-23T09:51:43Z</time>
      </trkpt>
      <trkpt lat="43.59882" lon="3.09565">
        <ele>360.792915</ele>
        <time>2025-10-23T09:51:44Z</time>
      </trkpt>
      <trkpt lat="43.59881" lon="3.09566">
        <ele>360.480858</ele>
        <time>2025-10-23T09:51:45Z</time>
      </trkpt>
      <trkpt lat="43.59879" lon="3.09568">
        <ele>360.132882</ele>
        <time>2025-10-23T09:51:46Z</time>
      </trkpt>
      <trkpt lat="43.59877" lon="3.0957">
        <ele>359.658333</ele>
        <time>2025-10-23T09:51:47Z</time>
      </trkpt>
      <trkpt lat="43.59875" lon="3.09572">
        <ele>359.228139</ele>
        <time>2025-10-23T09:51:48Z</time>
      </trkpt>
      <trkpt lat="43.59873" lon="3.09573">
        <ele>358.781244</ele>
        <time>2025-10-23T09:51:49Z</time>
      </trkpt>
      <trkpt lat="43.59871" lon="3.09575">
        <ele>358.34047</ele>
        <time>2025-10-23T09:51:50Z</time>
      </trkpt>
      <trkpt lat="43.5987" lon="3.09576">
        <ele>357.95888</ele>
        <time>2025-10-23T09:51:51Z</time>
      </trkpt>
      <trkpt lat="43.59868" lon="3.09578">
        <ele>357.570207</ele>
        <time>2025-10-23T09:51:52Z</time>
      </trkpt>
      <trkpt lat="43.59867" lon="3.09581">
        <ele>357.214659</ele>
        <time>2025-10-23T09:51:53Z</time>
      </trkpt>
      <trkpt lat="43.59866" lon="3.09583">
        <ele>356.856807</ele>
        <time>2025-10-23T09:51:54Z</time>
      </trkpt>
      <trkpt lat="43.59865" lon="3.09585">
        <ele>356.477792</ele>
        <time>2025-10-23T09:51:55Z</time>
      </trkpt>
      <trkpt lat="43.59865" lon="3.09588">
        <ele>356.130248</ele>
        <time>2025-10-23T09:51:56Z</time>
      </trkpt>
      <trkpt lat="43.59864" lon="3.0959">
        <ele>355.786216</ele>
        <time>2025-10-23T09:51:57Z</time>
      </trkpt>
      <trkpt lat="43.59863" lon="3.09592">
        <ele>355.453244</ele>
        <time>2025-10-23T09:51:58Z</time>
      </trkpt>
      <trkpt lat="43.59861" lon="3.09594">
        <ele>355.036</ele>
        <time>2025-10-23T09:51:59Z</time>
      </trkpt>
      <trkpt lat="43.5986" lon="3.09595">
        <ele>354.71711</ele>
        <time>2025-10-23T09:52:00Z</time>
      </trkpt>
      <trkpt lat="43.59859" lon="3.09596">
        <ele>354.493559</ele>
        <time>2025-10-23T09:52:01Z</time>
      </trkpt>
      <trkpt lat="43.59858" lon="3.09596">
        <ele>354.380149</ele>
        <time>2025-10-23T09:52:02Z</time>
      </trkpt>
      <trkpt lat="43.59858" lon="3.09596">
        <ele>354.304542</ele>
        <time>2025-10-23T09:52:03Z</time>
      </trkpt>
      <trkpt lat="43.59857" lon="3.09596">
        <ele>354.164517</ele>
        <time>2025-10-23T09:52:04Z</time>
      </trkpt>
      <trkpt lat="43.59857" lon="3.09597">
        <ele>354.041199</ele>
        <time>2025-10-23T09:52:05Z</time>
      </trkpt>
      <trkpt lat="43.59856" lon="3.09597">
        <ele>353.964364</ele>
        <time>2025-10-23T09:52:06Z</time>
      </trkpt>
      <trkpt lat="43.59856" lon="3.09597">
        <ele>353.901396</ele>
        <time>2025-10-23T09:52:07Z</time>
      </trkpt>
      <trkpt lat="43.59855" lon="3.09597">
        <ele>353.766282</ele>
        <time>2025-10-23T09:52:08Z</time>
      </trkpt>
      <trkpt lat="43.59855" lon="3.09597">
        <ele>353.626257</ele>
        <time>2025-10-23T09:52:09Z</time>
      </trkpt>
      <trkpt lat="43.59854" lon="3.09598">
        <ele>353.477788</ele>
        <time>2025-10-23T09:52:10Z</time>
      </trkpt>
      <trkpt lat="43.59853" lon="3.096">
        <ele>353.243224</ele>
        <time>2025-10-23T09:52:11Z</time>
      </trkpt>
      <trkpt lat="43.59853" lon="3.096">
        <ele>353.126536</ele>
        <time>2025-10-23T09:52:12Z</time>
      </trkpt>
      <trkpt lat="43.59853" lon="3.096">
        <ele>353.056523</ele>
        <time>2025-10-23T09:52:13Z</time>
      </trkpt>
      <trkpt lat="43.59853" lon="3.09601">
        <ele>352.931315</ele>
        <time>2025-10-23T09:52:14Z</time>
      </trkpt>
      <trkpt lat="43.59853" lon="3.09602">
        <ele>352.815466</ele>
        <time>2025-10-23T09:52:15Z</time>
      </trkpt>
      <trkpt lat="43.59854" lon="3.09601">
        <ele>352.667302</ele>
        <time>2025-10-23T09:52:16Z</time>
      </trkpt>
      <trkpt lat="43.59854" lon="3.09601">
        <ele>352.546687</ele>
        <time>2025-10-23T09:52:17Z</time>
      </trkpt>
      <trkpt lat="43.59855" lon="3.096">
        <ele>352.374383</ele>
        <time>2025-10-23T09:52:18Z</time>
      </trkpt>
      <trkpt lat="43.59856" lon="3.096">
        <ele>352.217693</ele>
        <time>2025-10-23T09:52:19Z</time>
      </trkpt>
      <trkpt lat="43.59856" lon="3.096">
        <ele>352.159359</ele>
        <time>2025-10-23T09:52:20Z</time>
      </trkpt>
      <trkpt lat="43.59856" lon="3.09599">
        <ele>351.978574</ele>
        <time>2025-10-23T09:52:21Z</time>
      </trkpt>
      <trkpt lat="43.59857" lon="3.09599">
        <ele>351.899749</ele>
        <time>2025-10-23T09:52:22Z</time>
      </trkpt>
      <trkpt lat="43.59856" lon="3.09598">
        <ele>351.810869</ele>
        <time>2025-10-23T09:52:23Z</time>
      </trkpt>
      <trkpt lat="43.59856" lon="3.09598">
        <ele>351.740856</ele>
        <time>2025-10-23T09:52:24Z</time>
      </trkpt>
      <trkpt lat="43.59856" lon="3.09597">
        <ele>351.641052</ele>
        <time>2025-10-23T09:52:25Z</time>
      </trkpt>
      <trkpt lat="43.59856" lon="3.09597">
        <ele>351.613675</ele>
        <time>2025-10-23T09:52:26Z</time>
      </trkpt>
      <trkpt lat="43.59857" lon="3.09617">
        <ele>348.94679</ele>
        <time>2025-10-23T09:53:24Z</time>
      </trkpt>
      <trkpt lat="43.59857" lon="3.09617">
        <ele>348.923452</ele>
        <time>2025-10-23T09:53:25Z</time>
      </trkpt>
      <trkpt lat="43.59857" lon="3.09617">
        <ele>348.900115</ele>
        <time>2025-10-23T09:53:26Z</time>
      </trkpt>
      <trkpt lat="43.59857" lon="3.09617">
        <ele>348.80462</ele>
        <time>2025-10-23T09:53:27Z</time>
      </trkpt>
      <trkpt lat="43.59856" lon="3.09617">
        <ele>348.785719</ele>
        <time>2025-10-23T09:53:28Z</time>
      </trkpt>
      <trkpt lat="43.59856" lon="3.09617">
        <ele>348.752451</ele>
        <time>2025-10-23T09:53:29Z</time>
      </trkpt>
      <trkpt lat="43.59856" lon="3.09617">
        <ele>348.719183</ele>
        <time>2025-10-23T09:53:30Z</time>
      </trkpt>
      <trkpt lat="43.59857" lon="3.09617">
        <ele>348.672508</ele>
        <time>2025-10-23T09:53:31Z</time>
      </trkpt>
      <trkpt lat="43.59857" lon="3.09617">
        <ele>348.672508</ele>
        <time>2025-10-23T09:53:32Z</time>
      </trkpt>
      <trkpt lat="43.59856" lon="3.09618">
        <ele>348.593683</ele>
        <time>2025-10-23T09:53:33Z</time>
      </trkpt>
      <trkpt lat="43.59856" lon="3.09619">
        <ele>348.460611</ele>
        <time>2025-10-23T09:53:34Z</time>
      </trkpt>
      <trkpt lat="43.59855" lon="3.0962">
        <ele>348.270234</ele>
        <time>2025-10-23T09:53:35Z</time>
      </trkpt>
      <trkpt lat="43.59854" lon="3.09621">
        <ele>347.970438</ele>
        <time>2025-10-23T09:53:36Z</time>
      </trkpt>
      <trkpt lat="43.59853" lon="3.09623">
        <ele>347.604272</ele>
        <time>2025-10-23T09:53:37Z</time>
      </trkpt>
      <trkpt lat="43.59852" lon="3.09625">
        <ele>347.282763</ele>
        <time>2025-10-23T09:53:38Z</time>
      </trkpt>
      <trkpt lat="43.59851" lon="3.09627">
        <ele>346.927994</ele>
        <time>2025-10-23T09:53:39Z</time>
      </trkpt>
      <trkpt lat="43.5985" lon="3.09629">
        <ele>346.606485</ele>
        <time>2025-10-23T09:53:40Z</time>
      </trkpt>
      <trkpt lat="43.59849" lon="3.09631">
        <ele>346.295711</ele>
        <time>2025-10-23T09:53:41Z</time>
      </trkpt>
      <trkpt lat="43.59848" lon="3.09633">
        <ele>345.984938</ele>
        <time>2025-10-23T09:53:42Z</time>
      </trkpt>
      <trkpt lat="43.59848" lon="3.09634">
        <ele>345.78533</ele>
        <time>2025-10-23T09:53:43Z</time>
      </trkpt>
      <trkpt lat="43.59847" lon="3.09635">
        <ele>345.652868</ele>
        <time>2025-10-23T09:53:44Z</time>
      </trkpt>
      <trkpt lat="43.59846" lon="3.09635">
        <ele>345.554475</ele>
        <time>2025-10-23T09:53:45Z</time>
      </trkpt>
      <trkpt lat="43.59846" lon="3.09636">
        <ele>345.365572</ele>
        <time>2025-10-23T09:53:46Z</time>
      </trkpt>
      <trkpt lat="43.59845" lon="3.09636">
        <ele>345.184786</ele>
        <time>2025-10-23T09:53:47Z</time>
      </trkpt>
      <trkpt lat="43.59844" lon="3.09637">
        <ele>345.058851</ele>
        <time>2025-10-23T09:53:48Z</time>
      </trkpt>
      <trkpt lat="43.59844" lon="3.09637">
        <ele>344.960457</ele>
        <time>2025-10-23T09:53:49Z</time>
      </trkpt>
      <trkpt lat="43.59843" lon="3.09638">
        <ele>344.843769</ele>
        <time>2025-10-23T09:53:50Z</time>
      </trkpt>
      <trkpt lat="43.59843" lon="3.09638">
        <ele>344.798563</ele>
        <time>2025-10-23T09:53:51Z</time>
      </trkpt>
      <trkpt lat="43.59843" lon="3.09638">
        <ele>344.705212</ele>
        <time>2025-10-23T09:53:52Z</time>
      </trkpt>
      <trkpt lat="43.59842" lon="3.09638">
        <ele>344.570098</ele>
        <time>2025-10-23T09:53:53Z</time>
      </trkpt>
      <trkpt lat="43.59841" lon="3.09639">
        <ele>344.397795</ele>
        <time>2025-10-23T09:53:54Z</time>
      </trkpt>
      <trkpt lat="43.5984" lon="3.09639">
        <ele>344.264777</ele>
        <time>2025-10-23T09:53:55Z</time>
      </trkpt>
      <trkpt lat="43.5984" lon="3.09639">
        <ele>344.144162</ele>
        <time>2025-10-23T09:53:56Z</time>
      </trkpt>
      <trkpt lat="43.5984" lon="3.09639">
        <ele>344.097486</ele>
        <time>2025-10-23T09:53:57Z</time>
      </trkpt>
      <trkpt lat="43.5984" lon="3.09638">
        <ele>343.955478</ele>
        <time>2025-10-23T09:53:58Z</time>
      </trkpt>
      <trkpt lat="43.59841" lon="3.09637">
        <ele>343.783401</ele>
        <time>2025-10-23T09:53:59Z</time>
      </trkpt>
      <trkpt lat="43.59841" lon="3.09637">
        <ele>343.674177</ele>
        <time>2025-10-23T09:54:00Z</time>
      </trkpt>
      <trkpt lat="43.59842" lon="3.09637">
        <ele>343.55751</ele>
        <time>2025-10-23T09:54:01Z</time>
      </trkpt>
      <trkpt lat="43.59842" lon="3.09637">
        <ele>343.440822</ele>
        <time>2025-10-23T09:54:02Z</time>
      </trkpt>
      <trkpt lat="43.59843" lon="3.09638">
        <ele>343.194594</ele>
        <time>2025-10-23T09:54:03Z</time>
      </trkpt>
      <trkpt lat="43.59844" lon="3.09639">
        <ele>342.999549</ele>
        <time>2025-10-23T09:54:04Z</time>
      </trkpt>
      <trkpt lat="43.59845" lon="3.0964">
        <ele>342.835729</ele>
        <time>2025-10-23T09:54:05Z</time>
      </trkpt>
      <trkpt lat="43.59845" lon="3.0964">
        <ele>342.760702</ele>
        <time>2025-10-23T09:54:06Z</time>
      </trkpt>
      <trkpt lat="43.59845" lon="3.0964">
        <ele>342.731775</ele>
        <time>2025-10-23T09:54:07Z</time>
      </trkpt>
      <trkpt lat="43.59845" lon="3.0964">
        <ele>342.711802</ele>
        <time>2025-10-23T09:54:08Z</time>
      </trkpt>
      <trkpt lat="43.59845" lon="3.0964">
        <ele>342.711802</ele>
        <time>2025-10-23T09:54:09Z</time>
      </trkpt>
      <trkpt lat="43.59845" lon="3.0964">
        <ele>342.669319</ele>
        <time>2025-10-23T09:54:10Z</time>
      </trkpt>
      <trkpt lat="43.59845" lon="3.09641">
        <ele>342.594293</ele>
        <time>2025-10-23T09:54:11Z</time>
      </trkpt>
      <trkpt lat="43.59845" lon="3.09641">
        <ele>342.500377</ele>
        <time>2025-10-23T09:54:12Z</time>
      </trkpt>
      <trkpt lat="43.59845" lon="3.09643">
        <ele>342.296079</ele>
        <time>2025-10-23T09:54:13Z</time>
      </trkpt>
      <trkpt lat="43.59845" lon="3.09644">
        <ele>342.103853</ele>
        <time>2025-10-23T09:54:14Z</time>
      </trkpt>
      <trkpt lat="43.59846" lon="3.09646">
        <ele>341.864801</ele>
        <time>2025-10-23T09:54:15Z</time>
      </trkpt>
      <trkpt lat="43.59846" lon="3.09647">
        <ele>341.639722</ele>
        <time>2025-10-23T09:54:16Z</time>
      </trkpt>
      <trkpt lat="43.59846" lon="3.09649">
        <ele>341.422039</ele>
        <time>2025-10-23T09:54:17Z</time>
      </trkpt>
      <trkpt lat="43.59847" lon="3.0965">
        <ele>341.265481</ele>
        <time>2025-10-23T09:54:18Z</time>
      </trkpt>
      <trkpt lat="43.59847" lon="3.0965">
        <ele>341.164234</ele>
        <time>2025-10-23T09:54:19Z</time>
      </trkpt>
      <trkpt lat="43.59846" lon="3.09651">
        <ele>341.046586</ele>
        <time>2025-10-23T09:54:20Z</time>
      </trkpt>
      <trkpt lat="43.59846" lon="3.09651">
        <ele>340.925882</ele>
        <time>2025-10-23T09:54:21Z</time>
      </trkpt>
      <trkpt lat="43.59846" lon="3.09651">
        <ele>340.883399</ele>
        <time>2025-10-23T09:54:22Z</time>
      </trkpt>
      <trkpt lat="43.59845" lon="3.09651">
        <ele>340.858739</ele>
        <time>2025-10-23T09:54:23Z</time>
      </trkpt>
      <trkpt lat="43.59845" lon="3.09651">
        <ele>340.838767</ele>
        <time>2025-10-23T09:54:24Z</time>
      </trkpt>
      <trkpt lat="43.59845" lon="3.09651">
        <ele>340.824303</ele>
        <time>2025-10-23T09:54:25Z</time>
      </trkpt>
      <trkpt lat="43.59845" lon="3.09651">
        <ele>340.824303</ele>
        <time>2025-10-23T09:54:26Z</time>
      </trkpt>
      <trkpt lat="43.59845" lon="3.09651">
        <ele>340.809839</ele>
        <time>2025-10-23T09:54:27Z</time>
      </trkpt>
      <trkpt lat="43.59845" lon="3.09651">
        <ele>340.789867</ele>
        <time>2025-10-23T09:54:28Z</time>
      </trkpt>
      <trkpt lat="43.59844" lon="3.09652">
        <ele>340.551466</ele>
        <time>2025-10-23T09:54:29Z</time>
      </trkpt>
      <trkpt lat="43.59844" lon="3.09652">
        <ele>340.526806</ele>
        <time>2025-10-23T09:54:30Z</time>
      </trkpt>
      <trkpt lat="43.59844" lon="3.09654">
        <ele>340.337718</ele>
        <time>2025-10-23T09:54:31Z</time>
      </trkpt>
      <trkpt lat="43.59845" lon="3.09655">
        <ele>340.07918</ele>
        <time>2025-10-23T09:54:32Z</time>
      </trkpt>
      <trkpt lat="43.59845" lon="3.09657">
        <ele>339.800336</ele>
        <time>2025-10-23T09:54:33Z</time>
      </trkpt>
      <trkpt lat="43.59845" lon="3.09659">
        <ele>339.525523</ele>
        <time>2025-10-23T09:54:34Z</time>
      </trkpt>
      <trkpt lat="43.59845" lon="3.09661">
        <ele>339.29068</ele>
        <time>2025-10-23T09:54:35Z</time>
      </trkpt>
      <trkpt lat="43.59845" lon="3.09662">
        <ele>339.009411</ele>
        <time>2025-10-23T09:54:36Z</time>
      </trkpt>
      <trkpt lat="43.59845" lon="3.09665">
        <ele>338.688709</ele>
        <time>2025-10-23T09:54:37Z</time>
      </trkpt>
      <trkpt lat="43.59845" lon="3.09666">
        <ele>338.421554</ele>
        <time>2025-10-23T09:54:38Z</time>
      </trkpt>
      <trkpt lat="43.59846" lon="3.09669">
        <ele>338.101819</ele>
        <time>2025-10-23T09:54:39Z</time>
      </trkpt>
      <trkpt lat="43.59846" lon="3.0967">
        <ele>337.826281</ele>
        <time>2025-10-23T09:54:40Z</time>
      </trkpt>
      <trkpt lat="43.59846" lon="3.09673">
        <ele>337.449691</ele>
        <time>2025-10-23T09:54:41Z</time>
      </trkpt>
      <trkpt lat="43.59846" lon="3.09675">
        <ele>337.117023</ele>
        <time>2025-10-23T09:54:42Z</time>
      </trkpt>
      <trkpt lat="43.59845" lon="3.09677">
        <ele>336.858485</ele>
        <time>2025-10-23T09:54:43Z</time>
      </trkpt>
      <trkpt lat="43.59845" lon="3.09679">
        <ele>336.569208</ele>
        <time>2025-10-23T09:54:44Z</time>
      </trkpt>
      <trkpt lat="43.59846" lon="3.09681">
        <ele>336.259614</ele>
        <time>2025-10-23T09:54:45Z</time>
      </trkpt>
      <trkpt lat="43.59846" lon="3.09684">
        <ele>335.867053</ele>
        <time>2025-10-23T09:54:46Z</time>
      </trkpt>
      <trkpt lat="43.59845" lon="3.09686">
        <ele>335.523851</ele>
        <time>2025-10-23T09:54:47Z</time>
      </trkpt>
      <trkpt lat="43.59844" lon="3.09688">
        <ele>335.223745</ele>
        <time>2025-10-23T09:54:48Z</time>
      </trkpt>
      <trkpt lat="43.59844" lon="3.0969">
        <ele>334.942476</ele>
        <time>2025-10-23T09:54:49Z</time>
      </trkpt>
      <trkpt lat="43.59844" lon="3.09692">
        <ele>334.58627</ele>
        <time>2025-10-23T09:54:50Z</time>
      </trkpt>
      <trkpt lat="43.59843" lon="3.09695">
        <ele>334.193708</ele>
        <time>2025-10-23T09:54:51Z</time>
      </trkpt>
      <trkpt lat="43.59844" lon="3.09697">
        <ele>333.831561</ele>
        <time>2025-10-23T09:54:52Z</time>
      </trkpt>
      <trkpt lat="43.59844" lon="3.09701">
        <ele>333.364856</ele>
        <time>2025-10-23T09:54:53Z</time>
      </trkpt>
      <trkpt lat="43.59844" lon="3.09704">
        <ele>332.885881</ele>
        <time>2025-10-23T09:54:54Z</time>
      </trkpt>
      <trkpt lat="43.59844" lon="3.09707">
        <ele>332.401934</ele>
        <time>2025-10-23T09:54:55Z</time>
      </trkpt>
      <trkpt lat="43.59844" lon="3.0971">
        <ele>332.040338</ele>
        <time>2025-10-23T09:54:56Z</time>
      </trkpt>
      <trkpt lat="43.59844" lon="3.09711">
        <ele>331.865627</ele>
        <time>2025-10-23T09:54:57Z</time>
      </trkpt>
      <trkpt lat="43.59844" lon="3.09712">
        <ele>331.712783</ele>
        <time>2025-10-23T09:54:58Z</time>
      </trkpt>
      <trkpt lat="43.59843" lon="3.09713">
        <ele>331.531303</ele>
        <time>2025-10-23T09:54:59Z</time>
      </trkpt>
      <trkpt lat="43.59843" lon="3.09713">
        <ele>331.354368</ele>
        <time>2025-10-23T09:55:00Z</time>
      </trkpt>
      <trkpt lat="43.59842" lon="3.09714">
        <ele>331.21216</ele>
        <time>2025-10-23T09:55:01Z</time>
      </trkpt>
      <trkpt lat="43.59842" lon="3.09715">
        <ele>331.069951</ele>
        <time>2025-10-23T09:55:02Z</time>
      </trkpt>
      <trkpt lat="43.59841" lon="3.09716">
        <ele>330.94098</ele>
        <time>2025-10-23T09:55:03Z</time>
      </trkpt>
      <trkpt lat="43.59841" lon="3.09717">
        <ele>330.79497</ele>
        <time>2025-10-23T09:55:04Z</time>
      </trkpt>
      <trkpt lat="43.59841" lon="3.09718">
        <ele>330.548274</ele>
        <time>2025-10-23T09:55:05Z</time>
      </trkpt>
      <trkpt lat="43.59841" lon="3.0972">
        <ele>330.359187</ele>
        <time>2025-10-23T09:55:06Z</time>
      </trkpt>
      <trkpt lat="43.59841" lon="3.09721">
        <ele>330.198836</ele>
        <time>2025-10-23T09:55:07Z</time>
      </trkpt>
      <trkpt lat="43.59841" lon="3.09722">
        <ele>330.038485</ele>
        <time>2025-10-23T09:55:08Z</time>
      </trkpt>
      <trkpt lat="43.59841" lon="3.09723">
        <ele>329.921063</ele>
        <time>2025-10-23T09:55:09Z</time>
      </trkpt>
      <trkpt lat="43.59841" lon="3.09723">
        <ele>329.848744</ele>
        <time>2025-10-23T09:55:10Z</time>
      </trkpt>
      <trkpt lat="43.59841" lon="3.09723">
        <ele>329.828771</ele>
        <time>2025-10-23T09:55:11Z</time>
      </trkpt>
      <trkpt lat="43.59842" lon="3.09723">
        <ele>329.804111</ele>
        <time>2025-10-23T09:55:12Z</time>
      </trkpt>
      <trkpt lat="43.59842" lon="3.09723">
        <ele>329.76072</ele>
        <time>2025-10-23T09:55:13Z</time>
      </trkpt>
      <trkpt lat="43.59842" lon="3.09724">
        <ele>329.725567</ele>
        <time>2025-10-23T09:55:14Z</time>
      </trkpt>
      <trkpt lat="43.59842" lon="3.09724">
        <ele>329.705595</ele>
        <time>2025-10-23T09:55:15Z</time>
      </trkpt>
      <trkpt lat="43.59842" lon="3.09724">
        <ele>329.685622</ele>
        <time>2025-10-23T09:55:16Z</time>
      </trkpt>
      <trkpt lat="43.59842" lon="3.09724">
        <ele>329.685622</ele>
        <time>2025-10-23T09:55:17Z</time>
      </trkpt>
      <trkpt lat="43.59842" lon="3.09724">
        <ele>329.610596</ele>
        <time>2025-10-23T09:55:18Z</time>
      </trkpt>
      <trkpt lat="43.59842" lon="3.09725">
        <ele>329.464585</ele>
        <time>2025-10-23T09:55:19Z</time>
      </trkpt>
      <trkpt lat="43.59842" lon="3.09726">
        <ele>329.294574</ele>
        <time>2025-10-23T09:55:20Z</time>
      </trkpt>
      <trkpt lat="43.59841" lon="3.09728">
        <ele>329.097229</ele>
        <time>2025-10-23T09:55:21Z</time>
      </trkpt>
      <trkpt lat="43.59841" lon="3.09729">
        <ele>328.908141</ele>
        <time>2025-10-23T09:55:22Z</time>
      </trkpt>
      <trkpt lat="43.59841" lon="3.0973">
        <ele>328.719053</ele>
        <time>2025-10-23T09:55:23Z</time>
      </trkpt>
      <trkpt lat="43.59841" lon="3.09732">
        <ele>328.50137</ele>
        <time>2025-10-23T09:55:24Z</time>
      </trkpt>
      <trkpt lat="43.5984" lon="3.09733">
        <ele>328.237974</ele>
        <time>2025-10-23T09:55:25Z</time>
      </trkpt>
      <trkpt lat="43.5984" lon="3.09735">
        <ele>328.005692</ele>
        <time>2025-10-23T09:55:26Z</time>
      </trkpt>
      <trkpt lat="43.5984" lon="3.09736">
        <ele>327.861053</ele>
        <time>2025-10-23T09:55:27Z</time>
      </trkpt>
      <trkpt lat="43.5984" lon="3.09737">
        <ele>327.715042</ele>
        <time>2025-10-23T09:55:28Z</time>
      </trkpt>
      <trkpt lat="43.5984" lon="3.09738">
        <ele>327.531425</ele>
        <time>2025-10-23T09:55:29Z</time>
      </trkpt>
      <trkpt lat="43.5984" lon="3.09739">
        <ele>327.371074</ele>
        <time>2025-10-23T09:55:30Z</time>
      </trkpt>
      <trkpt lat="43.5984" lon="3.0974">
        <ele>327.284291</ele>
        <time>2025-10-23T09:55:31Z</time>
      </trkpt>
      <trkpt lat="43.59839" lon="3.0974">
        <ele>327.203103</ele>
        <time>2025-10-23T09:55:32Z</time>
      </trkpt>
      <trkpt lat="43.59839" lon="3.0974">
        <ele>327.119812</ele>
        <time>2025-10-23T09:55:33Z</time>
      </trkpt>
      <trkpt lat="43.59839" lon="3.09739">
        <ele>327.044786</ele>
        <time>2025-10-23T09:55:34Z</time>
      </trkpt>
      <trkpt lat="43.59839" lon="3.09739">
        <ele>327.030322</ele>
        <time>2025-10-23T09:55:35Z</time>
      </trkpt>
      <trkpt lat="43.59839" lon="3.0974">
        <ele>326.943539</ele>
        <time>2025-10-23T09:55:36Z</time>
      </trkpt>
      <trkpt lat="43.59839" lon="3.09741">
        <ele>326.778303</ele>
        <time>2025-10-23T09:55:37Z</time>
      </trkpt>
      <trkpt lat="43.59838" lon="3.09743">
        <ele>326.486281</ele>
        <time>2025-10-23T09:55:38Z</time>
      </trkpt>
      <trkpt lat="43.59837" lon="3.09745">
        <ele>326.099371</ele>
        <time>2025-10-23T09:55:39Z</time>
      </trkpt>
      <trkpt lat="43.59836" lon="3.09747">
        <ele>325.700704</ele>
        <time>2025-10-23T09:55:40Z</time>
      </trkpt>
      <trkpt lat="43.59835" lon="3.09749">
        <ele>325.249736</ele>
        <time>2025-10-23T09:55:41Z</time>
      </trkpt>
      <trkpt lat="43.59833" lon="3.09751">
        <ele>324.919999</ele>
        <time>2025-10-23T09:55:42Z</time>
      </trkpt>
      <trkpt lat="43.59832" lon="3.09753">
        <ele>324.485428</ele>
        <time>2025-10-23T09:55:43Z</time>
      </trkpt>
      <trkpt lat="43.59831" lon="3.09756">
        <ele>324.051936</ele>
        <time>2025-10-23T09:55:44Z</time>
      </trkpt>
      <trkpt lat="43.59829" lon="3.09758">
        <ele>323.649611</ele>
        <time>2025-10-23T09:55:45Z</time>
      </trkpt>
      <trkpt lat="43.59828" lon="3.0976">
        <ele>323.222984</ele>
        <time>2025-10-23T09:55:46Z</time>
      </trkpt>
      <trkpt lat="43.59826" lon="3.09763">
        <ele>322.659489</ele>
        <time>2025-10-23T09:55:47Z</time>
      </trkpt>
      <trkpt lat="43.59824" lon="3.09766">
        <ele>322.119839</ele>
        <time>2025-10-23T09:55:48Z</time>
      </trkpt>
      <trkpt lat="43.59823" lon="3.09768">
        <ele>321.661305</ele>
        <time>2025-10-23T09:55:49Z</time>
      </trkpt>
      <trkpt lat="43.59821" lon="3.0977">
        <ele>321.249116</ele>
        <time>2025-10-23T09:55:50Z</time>
      </trkpt>
      <trkpt lat="43.5982" lon="3.09772">
        <ele>320.873424</ele>
        <time>2025-10-23T09:55:51Z</time>
      </trkpt>
      <trkpt lat="43.59819" lon="3.09774">
        <ele>320.545044</ele>
        <time>2025-10-23T09:55:52Z</time>
      </trkpt>
      <trkpt lat="43.59819" lon="3.09776">
        <ele>320.239574</ele>
        <time>2025-10-23T09:55:53Z</time>
      </trkpt>
      <trkpt lat="43.59818" lon="3.09777">
        <ele>319.952969</ele>
        <time>2025-10-23T09:55:54Z</time>
      </trkpt>
      <trkpt lat="43.59817" lon="3.09779">
        <ele>319.653164</ele>
        <time>2025-10-23T09:55:55Z</time>
      </trkpt>
      <trkpt lat="43.59816" lon="3.09782">
        <ele>319.194959</ele>
        <time>2025-10-23T09:55:56Z</time>
      </trkpt>
      <trkpt lat="43.59815" lon="3.09785">
        <ele>318.807275</ele>
        <time>2025-10-23T09:55:57Z</time>
      </trkpt>
      <trkpt lat="43.59815" lon="3.09787">
        <ele>318.433045</ele>
        <time>2025-10-23T09:55:58Z</time>
      </trkpt>
      <trkpt lat="43.59815" lon="3.0979">
        <ele>318.026091</ele>
        <time>2025-10-23T09:55:59Z</time>
      </trkpt>
      <trkpt lat="43.59814" lon="3.09793">
        <ele>317.603744</ele>
        <time>2025-10-23T09:56:00Z</time>
      </trkpt>
      <trkpt lat="43.59814" lon="3.09795">
        <ele>317.285538</ele>
        <time>2025-10-23T09:56:01Z</time>
      </trkpt>
      <trkpt lat="43.59814" lon="3.09797">
        <ele>316.952269</ele>
        <time>2025-10-23T09:56:02Z</time>
      </trkpt>
      <trkpt lat="43.59813" lon="3.09799">
        <ele>316.69373</ele>
        <time>2025-10-23T09:56:03Z</time>
      </trkpt>
      <trkpt lat="43.59813" lon="3.098">
        <ele>316.563554</ele>
        <time>2025-10-23T09:56:04Z</time>
      </trkpt>
      <trkpt lat="43.59813" lon="3.098">
        <ele>316.446132</ele>
        <time>2025-10-23T09:56:05Z</time>
      </trkpt>
      <trkpt lat="43.59813" lon="3.09801">
        <ele>316.398364</ele>
        <time>2025-10-23T09:56:06Z</time>
      </trkpt>
      <trkpt lat="43.59813" lon="3.09801">
        <ele>316.309312</ele>
        <time>2025-10-23T09:56:07Z</time>
      </trkpt>
      <trkpt lat="43.59813" lon="3.09801">
        <ele>316.266829</ele>
        <time>2025-10-23T09:56:08Z</time>
      </trkpt>
      <trkpt lat="43.59812" lon="3.09802">
        <ele>316.162862</ele>
        <time>2025-10-23T09:56:09Z</time>
      </trkpt>
      <trkpt lat="43.59812" lon="3.09802">
        <ele>316.045214</ele>
        <time>2025-10-23T09:56:10Z</time>
      </trkpt>
      <trkpt lat="43.59812" lon="3.09804">
        <ele>315.861596</ele>
        <time>2025-10-23T09:56:11Z</time>
      </trkpt>
      <trkpt lat="43.59812" lon="3.09805">
        <ele>315.650422</ele>
        <time>2025-10-23T09:56:12Z</time>
      </trkpt>
      <trkpt lat="43.59811" lon="3.09806">
        <ele>315.446945</ele>
        <time>2025-10-23T09:56:13Z</time>
      </trkpt>
      <trkpt lat="43.59811" lon="3.09808">
        <ele>315.243467</ele>
        <time>2025-10-23T09:56:14Z</time>
      </trkpt>
      <trkpt lat="43.59811" lon="3.09809">
        <ele>315.107301</ele>
        <time>2025-10-23T09:56:15Z</time>
      </trkpt>
      <trkpt lat="43.59811" lon="3.09809">
        <ele>315.001843</ele>
        <time>2025-10-23T09:56:16Z</time>
      </trkpt>
      <trkpt lat="43.59811" lon="3.0981">
        <ele>314.845284</ele>
        <time>2025-10-23T09:56:17Z</time>
      </trkpt>
      <trkpt lat="43.5981" lon="3.09811">
        <ele>314.697326</ele>
        <time>2025-10-23T09:56:18Z</time>
      </trkpt>
      <trkpt lat="43.59809" lon="3.09812">
        <ele>314.500048</ele>
        <time>2025-10-23T09:56:19Z</time>
      </trkpt>
      <trkpt lat="43.59808" lon="3.09812">
        <ele>314.263832</ele>
        <time>2025-10-23T09:56:20Z</time>
      </trkpt>
      <trkpt lat="43.59807" lon="3.09813">
        <ele>314.064227</ele>
        <time>2025-10-23T09:56:21Z</time>
      </trkpt>
      <trkpt lat="43.59806" lon="3.09814">
        <ele>313.873199</ele>
        <time>2025-10-23T09:56:22Z</time>
      </trkpt>
      <trkpt lat="43.59806" lon="3.09815">
        <ele>313.707963</ele>
        <time>2025-10-23T09:56:23Z</time>
      </trkpt>
      <trkpt lat="43.59806" lon="3.09816">
        <ele>313.585551</ele>
        <time>2025-10-23T09:56:24Z</time>
      </trkpt>
      <trkpt lat="43.59806" lon="3.09817">
        <ele>313.410839</ele>
        <time>2025-10-23T09:56:25Z</time>
      </trkpt>
      <trkpt lat="43.59806" lon="3.09818">
        <ele>313.280663</ele>
        <time>2025-10-23T09:56:26Z</time>
      </trkpt>
      <trkpt lat="43.59806" lon="3.09818">
        <ele>313.222808</ele>
        <time>2025-10-23T09:56:27Z</time>
      </trkpt>
      <trkpt lat="43.59806" lon="3.09818">
        <ele>313.202835</ele>
        <time>2025-10-23T09:56:28Z</time>
      </trkpt>
      <trkpt lat="43.59806" lon="3.09818">
        <ele>313.167683</ele>
        <time>2025-10-23T09:56:29Z</time>
      </trkpt>
      <trkpt lat="43.59806" lon="3.09819">
        <ele>313.037378</ele>
        <time>2025-10-23T09:56:30Z</time>
      </trkpt>
      <trkpt lat="43.59807" lon="3.0982">
        <ele>312.896767</ele>
        <time>2025-10-23T09:56:31Z</time>
      </trkpt>
      <trkpt lat="43.59807" lon="3.0982">
        <ele>312.802851</ele>
        <time>2025-10-23T09:56:32Z</time>
      </trkpt>
      <trkpt lat="43.59808" lon="3.0982">
        <ele>312.603127</ele>
        <time>2025-10-23T09:56:33Z</time>
      </trkpt>
      <trkpt lat="43.59808" lon="3.0982">
        <ele>312.560644</ele>
        <time>2025-10-23T09:56:34Z</time>
      </trkpt>
      <trkpt lat="43.59809" lon="3.0982">
        <ele>312.45974</ele>
        <time>2025-10-23T09:56:35Z</time>
      </trkpt>
      <trkpt lat="43.59809" lon="3.0982">
        <ele>312.297363</ele>
        <time>2025-10-23T09:56:36Z</time>
      </trkpt>
      <trkpt lat="43.5981" lon="3.0982">
        <ele>312.176659</ele>
        <time>2025-10-23T09:56:37Z</time>
      </trkpt>
      <trkpt lat="43.59811" lon="3.0982">
        <ele>312.04921</ele>
        <time>2025-10-23T09:56:38Z</time>
      </trkpt>
      <trkpt lat="43.59811" lon="3.0982">
        <ele>311.908657</ele>
        <time>2025-10-23T09:56:39Z</time>
      </trkpt>
      <trkpt lat="43.59812" lon="3.09819">
        <ele>311.799775</ele>
        <time>2025-10-23T09:56:40Z</time>
      </trkpt>
      <trkpt lat="43.59812" lon="3.09819">
        <ele>311.717157</ele>
        <time>2025-10-23T09:56:41Z</time>
      </trkpt>
      <trkpt lat="43.59813" lon="3.09819">
        <ele>311.616253</ele>
        <time>2025-10-23T09:56:42Z</time>
      </trkpt>
      <trkpt lat="43.59813" lon="3.09818">
        <ele>311.52534</ele>
        <time>2025-10-23T09:56:43Z</time>
      </trkpt>
      <trkpt lat="43.59814" lon="3.09818">
        <ele>311.404635</ele>
        <time>2025-10-23T09:56:44Z</time>
      </trkpt>
      <trkpt lat="43.59814" lon="3.09819">
        <ele>311.21972</ele>
        <time>2025-10-23T09:56:45Z</time>
      </trkpt>
      <trkpt lat="43.59815" lon="3.09819">
        <ele>311.037656</ele>
        <time>2025-10-23T09:56:46Z</time>
      </trkpt>
      <trkpt lat="43.59816" lon="3.09819">
        <ele>310.825241</ele>
        <time>2025-10-23T09:56:47Z</time>
      </trkpt>
      <trkpt lat="43.59817" lon="3.0982">
        <ele>310.625637</ele>
        <time>2025-10-23T09:56:48Z</time>
      </trkpt>
      <trkpt lat="43.59818" lon="3.09821">
        <ele>310.46157</ele>
        <time>2025-10-23T09:56:49Z</time>
      </trkpt>
      <trkpt lat="43.59818" lon="3.09822">
        <ele>310.329871</ele>
        <time>2025-10-23T09:56:50Z</time>
      </trkpt>
      <trkpt lat="43.59818" lon="3.09823">
        <ele>310.140783</ele>
        <time>2025-10-23T09:56:51Z</time>
      </trkpt>
      <trkpt lat="43.59817" lon="3.09824">
        <ele>309.923098</ele>
        <time>2025-10-23T09:56:52Z</time>
      </trkpt>
      <trkpt lat="43.59817" lon="3.09826">
        <ele>309.678275</ele>
        <time>2025-10-23T09:56:53Z</time>
      </trkpt>
      <trkpt lat="43.59817" lon="3.09828">
        <ele>309.453194</ele>
        <time>2025-10-23T09:56:54Z</time>
      </trkpt>
      <trkpt lat="43.59816" lon="3.09829">
        <ele>309.25295</ele>
        <time>2025-10-23T09:56:55Z</time>
      </trkpt>
      <trkpt lat="43.59815" lon="3.0983">
        <ele>309.006352</ele>
        <time>2025-10-23T09:56:56Z</time>
      </trkpt>
      <trkpt lat="43.59814" lon="3.09831">
        <ele>308.800258</ele>
        <time>2025-10-23T09:56:57Z</time>
      </trkpt>
      <trkpt lat="43.59814" lon="3.09831">
        <ele>308.618777</ele>
        <time>2025-10-23T09:56:58Z</time>
      </trkpt>
      <trkpt lat="43.59813" lon="3.09832">
        <ele>308.429944</ele>
        <time>2025-10-23T09:56:59Z</time>
      </trkpt>
      <trkpt lat="43.59812" lon="3.09833">
        <ele>308.191543</ele>
        <time>2025-10-23T09:57:00Z</time>
      </trkpt>
      <trkpt lat="43.59811" lon="3.09833">
        <ele>308.006628</ele>
        <time>2025-10-23T09:57:01Z</time>
      </trkpt>
      <trkpt lat="43.5981" lon="3.09833">
        <ele>307.925439</ele>
        <time>2025-10-23T09:57:02Z</time>
      </trkpt>
      <trkpt lat="43.5981" lon="3.09833">
        <ele>307.885494</ele>
        <time>2025-10-23T09:57:03Z</time>
      </trkpt>
      <trkpt lat="43.5981" lon="3.09833">
        <ele>307.811515</ele>
        <time>2025-10-23T09:57:04Z</time>
      </trkpt>
      <trkpt lat="43.59788" lon="3.09884">
        <ele>297.616376</ele>
        <time>2025-10-23T09:58:54Z</time>
      </trkpt>
      <trkpt lat="43.59789" lon="3.09884">
        <ele>297.592074</ele>
        <time>2025-10-23T09:58:55Z</time>
      </trkpt>
      <trkpt lat="43.59789" lon="3.09884">
        <ele>297.562068</ele>
        <time>2025-10-23T09:58:56Z</time>
      </trkpt>
      <trkpt lat="43.59789" lon="3.09884">
        <ele>297.519294</ele>
        <time>2025-10-23T09:58:57Z</time>
      </trkpt>
      <trkpt lat="43.59788" lon="3.09884">
        <ele>297.39927</ele>
        <time>2025-10-23T09:58:58Z</time>
      </trkpt>
      <trkpt lat="43.59788" lon="3.09885">
        <ele>297.240716</ele>
        <time>2025-10-23T09:58:59Z</time>
      </trkpt>
      <trkpt lat="43.59787" lon="3.09886">
        <ele>296.955606</ele>
        <time>2025-10-23T09:59:00Z</time>
      </trkpt>
      <trkpt lat="43.59786" lon="3.09888">
        <ele>296.583643</ele>
        <time>2025-10-23T09:59:01Z</time>
      </trkpt>
      <trkpt lat="43.59785" lon="3.09889">
        <ele>296.254173</ele>
        <time>2025-10-23T09:59:02Z</time>
      </trkpt>
      <trkpt lat="43.59784" lon="3.0989">
        <ele>295.878875</ele>
        <time>2025-10-23T09:59:03Z</time>
      </trkpt>
      <trkpt lat="43.59783" lon="3.09891">
        <ele>295.598011</ele>
        <time>2025-10-23T09:59:04Z</time>
      </trkpt>
      <trkpt lat="43.59782" lon="3.09892">
        <ele>295.365569</ele>
        <time>2025-10-23T09:59:05Z</time>
      </trkpt>
      <trkpt lat="43.59782" lon="3.09893">
        <ele>295.103321</ele>
        <time>2025-10-23T09:59:06Z</time>
      </trkpt>
      <trkpt lat="43.59781" lon="3.09894">
        <ele>294.873154</ele>
        <time>2025-10-23T09:59:07Z</time>
      </trkpt>
      <trkpt lat="43.5978" lon="3.09895">
        <ele>294.633107</ele>
        <time>2025-10-23T09:59:08Z</time>
      </trkpt>
      <trkpt lat="43.59779" lon="3.09896">
        <ele>294.333047</ele>
        <time>2025-10-23T09:59:09Z</time>
      </trkpt>
      <trkpt lat="43.59778" lon="3.09896">
        <ele>294.082015</ele>
        <time>2025-10-23T09:59:10Z</time>
      </trkpt>
      <trkpt lat="43.59777" lon="3.09897">
        <ele>293.817041</ele>
        <time>2025-10-23T09:59:11Z</time>
      </trkpt>
      <trkpt lat="43.59776" lon="3.09897">
        <ele>293.610268</ele>
        <time>2025-10-23T09:59:12Z</time>
      </trkpt>
      <trkpt lat="43.59775" lon="3.09898">
        <ele>293.357253</ele>
        <time>2025-10-23T09:59:13Z</time>
      </trkpt>
      <trkpt lat="43.59775" lon="3.09898">
        <ele>293.173145</ele>
        <time>2025-10-23T09:59:14Z</time>
      </trkpt>
      <trkpt lat="43.59774" lon="3.09898">
        <ele>292.966373</ele>
        <time>2025-10-23T09:59:15Z</time>
      </trkpt>
      <trkpt lat="43.59773" lon="3.09899">
        <ele>292.843593</ele>
        <time>2025-10-23T09:59:16Z</time>
      </trkpt>
      <trkpt lat="43.59773" lon="3.09899">
        <ele>292.7919</ele>
        <time>2025-10-23T09:59:17Z</time>
      </trkpt>
      <trkpt lat="43.59774" lon="3.09899">
        <ele>292.634968</ele>
        <time>2025-10-23T09:59:18Z</time>
      </trkpt>
      <trkpt lat="43.59774" lon="3.099">
        <ele>292.54942</ele>
        <time>2025-10-23T09:59:19Z</time>
      </trkpt>
      <trkpt lat="43.59774" lon="3.09901">
        <ele>292.325993</ele>
        <time>2025-10-23T09:59:20Z</time>
      </trkpt>
      <trkpt lat="43.59774" lon="3.09902">
        <ele>292.113402</ele>
        <time>2025-10-23T09:59:21Z</time>
      </trkpt>
      <trkpt lat="43.59775" lon="3.09903">
        <ele>291.868627</ele>
        <time>2025-10-23T09:59:22Z</time>
      </trkpt>
      <trkpt lat="43.59775" lon="3.09904">
        <ele>291.767279</ele>
        <time>2025-10-23T09:59:23Z</time>
      </trkpt>
      <trkpt lat="43.59775" lon="3.09904">
        <ele>291.714479</ele>
        <time>2025-10-23T09:59:24Z</time>
      </trkpt>
      <trkpt lat="43.59775" lon="3.09904">
        <ele>291.67928</ele>
        <time>2025-10-23T09:59:25Z</time>
      </trkpt>
      <trkpt lat="43.59775" lon="3.09905">
        <ele>291.465873</ele>
        <time>2025-10-23T09:59:26Z</time>
      </trkpt>
      <trkpt lat="43.59774" lon="3.09905">
        <ele>291.294777</ele>
        <time>2025-10-23T09:59:27Z</time>
      </trkpt>
      <trkpt lat="43.59774" lon="3.09906">
        <ele>291.184154</ele>
        <time>2025-10-23T09:59:28Z</time>
      </trkpt>
      <trkpt lat="43.59773" lon="3.09906">
        <ele>291.073531</ele>
        <time>2025-10-23T09:59:29Z</time>
      </trkpt>
      <trkpt lat="43.59773" lon="3.09906">
        <ele>290.970144</ele>
        <time>2025-10-23T09:59:30Z</time>
      </trkpt>
      <trkpt lat="43.59773" lon="3.09906">
        <ele>290.880126</ele>
        <time>2025-10-23T09:59:31Z</time>
      </trkpt>
      <trkpt lat="43.59772" lon="3.09908">
        <ele>290.651554</ele>
        <time>2025-10-23T09:59:32Z</time>
      </trkpt>
      <trkpt lat="43.59772" lon="3.09908">
        <ele>290.43626</ele>
        <time>2025-10-23T09:59:33Z</time>
      </trkpt>
      <trkpt lat="43.59771" lon="3.09909">
        <ele>290.233563</ele>
        <time>2025-10-23T09:59:34Z</time>
      </trkpt>
      <trkpt lat="43.59771" lon="3.0991">
        <ele>290.145564</ele>
        <time>2025-10-23T09:59:35Z</time>
      </trkpt>
      <trkpt lat="43.59771" lon="3.0991">
        <ele>290.127965</ele>
        <time>2025-10-23T09:59:36Z</time>
      </trkpt>
      <trkpt lat="43.59771" lon="3.0991">
        <ele>290.092765</ele>
        <time>2025-10-23T09:59:37Z</time>
      </trkpt>
      <trkpt lat="43.59771" lon="3.0991">
        <ele>289.992235</ele>
        <time>2025-10-23T09:59:38Z</time>
      </trkpt>
      <trkpt lat="43.59771" lon="3.0991">
        <ele>289.895026</ele>
        <time>2025-10-23T09:59:39Z</time>
      </trkpt>
      <trkpt lat="43.59771" lon="3.0991">
        <ele>289.877426</ele>
        <time>2025-10-23T09:59:40Z</time>
      </trkpt>
      <trkpt lat="43.59771" lon="3.0991">
        <ele>289.859826</ele>
        <time>2025-10-23T09:59:41Z</time>
      </trkpt>
      <trkpt lat="43.59771" lon="3.0991">
        <ele>289.786919</ele>
        <time>2025-10-23T09:59:42Z</time>
      </trkpt>
      <trkpt lat="43.5977" lon="3.09911">
        <ele>289.625</ele>
        <time>2025-10-23T09:59:43Z</time>
      </trkpt>
      <trkpt lat="43.59769" lon="3.09911">
        <ele>289.464014</ele>
        <time>2025-10-23T09:59:44Z</time>
      </trkpt>
      <trkpt lat="43.59769" lon="3.09912">
        <ele>289.206294</ele>
        <time>2025-10-23T09:59:45Z</time>
      </trkpt>
      <trkpt lat="43.59768" lon="3.09914">
        <ele>288.906049</ele>
        <time>2025-10-23T09:59:46Z</time>
      </trkpt>
      <trkpt lat="43.59767" lon="3.09914">
        <ele>288.66317</ele>
        <time>2025-10-23T09:59:47Z</time>
      </trkpt>
      <trkpt lat="43.59766" lon="3.09915">
        <ele>288.438166</ele>
        <time>2025-10-23T09:59:48Z</time>
      </trkpt>
      <trkpt lat="43.59765" lon="3.09915">
        <ele>288.195142</ele>
        <time>2025-10-23T09:59:49Z</time>
      </trkpt>
      <trkpt lat="43.59764" lon="3.09915">
        <ele>287.981735</ele>
        <time>2025-10-23T09:59:50Z</time>
      </trkpt>
      <trkpt lat="43.59763" lon="3.09916">
        <ele>287.613519</ele>
        <time>2025-10-23T09:59:51Z</time>
      </trkpt>
      <trkpt lat="43.59762" lon="3.09917">
        <ele>287.267438</ele>
        <time>2025-10-23T09:59:52Z</time>
      </trkpt>
      <trkpt lat="43.59761" lon="3.09919">
        <ele>286.910622</ele>
        <time>2025-10-23T09:59:53Z</time>
      </trkpt>
      <trkpt lat="43.59761" lon="3.09921">
        <ele>286.529619</ele>
        <time>2025-10-23T09:59:54Z</time>
      </trkpt>
      <trkpt lat="43.5976" lon="3.09923">
        <ele>286.080556</ele>
        <time>2025-10-23T09:59:55Z</time>
      </trkpt>
      <trkpt lat="43.59759" lon="3.09925">
        <ele>285.71575</ele>
        <time>2025-10-23T09:59:56Z</time>
      </trkpt>
      <trkpt lat="43.59759" lon="3.09927">
        <ele>285.417847</ele>
        <time>2025-10-23T09:59:57Z</time>
      </trkpt>
      <trkpt lat="43.59758" lon="3.09928">
        <ele>285.201214</ele>
        <time>2025-10-23T09:59:58Z</time>
      </trkpt>
      <trkpt lat="43.59758" lon="3.0993">
        <ele>284.844398</ele>
        <time>2025-10-23T09:59:59Z</time>
      </trkpt>
      <trkpt lat="43.59757" lon="3.09931">
        <ele>284.54498</ele>
        <time>2025-10-23T10:00:00Z</time>
      </trkpt>
      <trkpt lat="43.59756" lon="3.09932">
        <ele>284.215509</ele>
        <time>2025-10-23T10:00:01Z</time>
      </trkpt>
      <trkpt lat="43.59755" lon="3.09933">
        <ele>284.000214</ele>
        <time>2025-10-23T10:00:02Z</time>
      </trkpt>
      <trkpt lat="43.59755" lon="3.09935">
        <ele>283.685621</ele>
        <time>2025-10-23T10:00:03Z</time>
      </trkpt>
      <trkpt lat="43.59755" lon="3.09936">
        <ele>283.445488</ele>
        <time>2025-10-23T10:00:04Z</time>
      </trkpt>
      <trkpt lat="43.59754" lon="3.09938">
        <ele>283.222061</ele>
        <time>2025-10-23T10:00:05Z</time>
      </trkpt>
      <trkpt lat="43.59754" lon="3.09939">
        <ele>283.005427</ele>
        <time>2025-10-23T10:00:06Z</time>
      </trkpt>
      <trkpt lat="43.59753" lon="3.09939">
        <ele>282.819445</ele>
        <time>2025-10-23T10:00:07Z</time>
      </trkpt>
      <trkpt lat="43.59753" lon="3.0994">
        <ele>282.65846</ele>
        <time>2025-10-23T10:00:08Z</time>
      </trkpt>
      <trkpt lat="43.59752" lon="3.09941">
        <ele>282.358214</ele>
        <time>2025-10-23T10:00:09Z</time>
      </trkpt>
      <trkpt lat="43.59752" lon="3.09942">
        <ele>282.215059</ele>
        <time>2025-10-23T10:00:10Z</time>
      </trkpt>
      <trkpt lat="43.59751" lon="3.09944">
        <ele>281.92444</ele>
        <time>2025-10-23T10:00:11Z</time>
      </trkpt>
      <trkpt lat="43.59751" lon="3.09945">
        <ele>281.72338</ele>
        <time>2025-10-23T10:00:12Z</time>
      </trkpt>
      <trkpt lat="43.59751" lon="3.09945">
        <ele>281.574428</ele>
        <time>2025-10-23T10:00:13Z</time>
      </trkpt>
      <trkpt lat="43.59751" lon="3.09946">
        <ele>281.37931</ele>
        <time>2025-10-23T10:00:14Z</time>
      </trkpt>
      <trkpt lat="43.5975" lon="3.09948">
        <ele>281.107998</ele>
        <time>2025-10-23T10:00:15Z</time>
      </trkpt>
      <trkpt lat="43.59749" lon="3.09949">
        <ele>280.821687</ele>
        <time>2025-10-23T10:00:16Z</time>
      </trkpt>
      <trkpt lat="43.59749" lon="3.0995">
        <ele>280.540948</ele>
        <time>2025-10-23T10:00:17Z</time>
      </trkpt>
      <trkpt lat="43.59748" lon="3.09951">
        <ele>280.290171</ele>
        <time>2025-10-23T10:00:18Z</time>
      </trkpt>
      <trkpt lat="43.59747" lon="3.09952">
        <ele>280.087474</ele>
        <time>2025-10-23T10:00:19Z</time>
      </trkpt>
      <trkpt lat="43.59747" lon="3.09953">
        <ele>279.845107</ele>
        <time>2025-10-23T10:00:20Z</time>
      </trkpt>
      <trkpt lat="43.59746" lon="3.09954">
        <ele>279.654605</ele>
        <time>2025-10-23T10:00:21Z</time>
      </trkpt>
      <trkpt lat="43.59746" lon="3.09955">
        <ele>279.396884</ele>
        <time>2025-10-23T10:00:22Z</time>
      </trkpt>
      <trkpt lat="43.59745" lon="3.09956">
        <ele>279.164441</ele>
        <time>2025-10-23T10:00:23Z</time>
      </trkpt>
      <trkpt lat="43.59744" lon="3.09957">
        <ele>278.964803</ele>
        <time>2025-10-23T10:00:24Z</time>
      </trkpt>
      <trkpt lat="43.59744" lon="3.09958">
        <ele>278.790431</ele>
        <time>2025-10-23T10:00:25Z</time>
      </trkpt>
      <trkpt lat="43.59744" lon="3.09959">
        <ele>278.590793</ele>
        <time>2025-10-23T10:00:26Z</time>
      </trkpt>
      <trkpt lat="43.59743" lon="3.09959">
        <ele>278.46522</ele>
        <time>2025-10-23T10:00:27Z</time>
      </trkpt>
      <trkpt lat="43.59743" lon="3.09961">
        <ele>278.22156</ele>
        <time>2025-10-23T10:00:28Z</time>
      </trkpt>
      <trkpt lat="43.59742" lon="3.09962">
        <ele>277.93094</ele>
        <time>2025-10-23T10:00:29Z</time>
      </trkpt>
      <trkpt lat="43.59742" lon="3.09963">
        <ele>277.698497</ele>
        <time>2025-10-23T10:00:30Z</time>
      </trkpt>
      <trkpt lat="43.59741" lon="3.09964">
        <ele>277.507605</ele>
        <time>2025-10-23T10:00:31Z</time>
      </trkpt>
      <trkpt lat="43.59741" lon="3.09964">
        <ele>277.364724</ele>
        <time>2025-10-23T10:00:32Z</time>
      </trkpt>
      <trkpt lat="43.59741" lon="3.09966">
        <ele>277.121064</ele>
        <time>2025-10-23T10:00:33Z</time>
      </trkpt>
      <trkpt lat="43.5974" lon="3.09967">
        <ele>276.960812</ele>
        <time>2025-10-23T10:00:34Z</time>
      </trkpt>
      <trkpt lat="43.5974" lon="3.09967">
        <ele>276.859464</ele>
        <time>2025-10-23T10:00:35Z</time>
      </trkpt>
      <trkpt lat="43.5974" lon="3.09967">
        <ele>276.806664</ele>
        <time>2025-10-23T10:00:36Z</time>
      </trkpt>
      <trkpt lat="43.5974" lon="3.09967">
        <ele>276.776658</ele>
        <time>2025-10-23T10:00:37Z</time>
      </trkpt>
      <trkpt lat="43.5974" lon="3.09967">
        <ele>276.703751</ele>
        <time>2025-10-23T10:00:38Z</time>
      </trkpt>
      <trkpt lat="43.5974" lon="3.09967">
        <ele>276.655146</ele>
        <time>2025-10-23T10:00:39Z</time>
      </trkpt>
      <trkpt lat="43.5974" lon="3.09968">
        <ele>276.619946</ele>
        <time>2025-10-23T10:00:40Z</time>
      </trkpt>
      <trkpt lat="43.59739" lon="3.09968">
        <ele>276.519416</ele>
        <time>2025-10-23T10:00:41Z</time>
      </trkpt>
      <trkpt lat="43.59739" lon="3.09969">
        <ele>276.359164</ele>
        <time>2025-10-23T10:00:42Z</time>
      </trkpt>
      <trkpt lat="43.59739" lon="3.0997">
        <ele>276.094283</ele>
        <time>2025-10-23T10:00:43Z</time>
      </trkpt>
      <trkpt lat="43.59738" lon="3.09972">
        <ele>275.809172</ele>
        <time>2025-10-23T10:00:44Z</time>
      </trkpt>
      <trkpt lat="43.59737" lon="3.09973">
        <ele>275.509753</ele>
        <time>2025-10-23T10:00:45Z</time>
      </trkpt>
      <trkpt lat="43.59737" lon="3.09974">
        <ele>275.249631</ele>
        <time>2025-10-23T10:00:46Z</time>
      </trkpt>
      <trkpt lat="43.59736" lon="3.09975">
        <ele>274.998854</ele>
        <time>2025-10-23T10:00:47Z</time>
      </trkpt>
      <trkpt lat="43.59735" lon="3.09976">
        <ele>274.648814</ele>
        <time>2025-10-23T10:00:48Z</time>
      </trkpt>
      <trkpt lat="43.59734" lon="3.09977">
        <ele>274.374444</ele>
        <time>2025-10-23T10:00:49Z</time>
      </trkpt>
      <trkpt lat="43.59733" lon="3.09978">
        <ele>274.063733</ele>
        <time>2025-10-23T10:00:50Z</time>
      </trkpt>
      <trkpt lat="43.59732" lon="3.09979">
        <ele>273.83129</ele>
        <time>2025-10-23T10:00:51Z</time>
      </trkpt>
      <trkpt lat="43.59731" lon="3.0998">
        <ele>273.574645</ele>
        <time>2025-10-23T10:00:52Z</time>
      </trkpt>
      <trkpt lat="43.59731" lon="3.09981">
        <ele>273.367773</ele>
        <time>2025-10-23T10:00:53Z</time>
      </trkpt>
      <trkpt lat="43.59731" lon="3.09982">
        <ele>273.224892</ele>
        <time>2025-10-23T10:00:54Z</time>
      </trkpt>
      <trkpt lat="43.59731" lon="3.09983">
        <ele>273.031293</ele>
        <time>2025-10-23T10:00:55Z</time>
      </trkpt>
      <trkpt lat="43.59731" lon="3.09984">
        <ele>272.837694</ele>
        <time>2025-10-23T10:00:56Z</time>
      </trkpt>
      <trkpt lat="43.59731" lon="3.09985">
        <ele>272.614265</ele>
        <time>2025-10-23T10:00:57Z</time>
      </trkpt>
      <trkpt lat="43.59731" lon="3.09987">
        <ele>272.33162</ele>
        <time>2025-10-23T10:00:58Z</time>
      </trkpt>
      <trkpt lat="43.59731" lon="3.09989">
        <ele>272.066506</ele>
        <time>2025-10-23T10:00:59Z</time>
      </trkpt>
      <trkpt lat="43.59731" lon="3.0999">
        <ele>271.815359</ele>
        <time>2025-10-23T10:01:00Z</time>
      </trkpt>
      <trkpt lat="43.59732" lon="3.09991">
        <ele>271.5584</ele>
        <time>2025-10-23T10:01:01Z</time>
      </trkpt>
      <trkpt lat="43.59732" lon="3.09992">
        <ele>271.384028</ele>
        <time>2025-10-23T10:01:02Z</time>
      </trkpt>
      <trkpt lat="43.59732" lon="3.09993">
        <ele>271.198045</ele>
        <time>2025-10-23T10:01:03Z</time>
      </trkpt>
      <trkpt lat="43.59733" lon="3.09994">
        <ele>271.012196</ele>
        <time>2025-10-23T10:01:04Z</time>
      </trkpt>
      <trkpt lat="43.59733" lon="3.09995">
        <ele>270.879756</ele>
        <time>2025-10-23T10:01:05Z</time>
      </trkpt>
      <trkpt lat="43.59733" lon="3.09995">
        <ele>270.736225</ele>
        <time>2025-10-23T10:01:06Z</time>
      </trkpt>
      <trkpt lat="43.59734" lon="3.09996">
        <ele>270.607903</ele>
        <time>2025-10-23T10:01:07Z</time>
      </trkpt>
      <trkpt lat="43.59734" lon="3.09997">
        <ele>270.425316</ele>
        <time>2025-10-23T10:01:08Z</time>
      </trkpt>
      <trkpt lat="43.59734" lon="3.09998">
        <ele>270.208682</ele>
        <time>2025-10-23T10:01:09Z</time>
      </trkpt>
      <trkpt lat="43.59735" lon="3.09999">
        <ele>269.93737</ele>
        <time>2025-10-23T10:01:10Z</time>
      </trkpt>
      <trkpt lat="43.59736" lon="3.10001">
        <ele>269.652258</ele>
        <time>2025-10-23T10:01:11Z</time>
      </trkpt>
      <trkpt lat="43.59736" lon="3.10001">
        <ele>269.436963</ele>
        <time>2025-10-23T10:01:12Z</time>
      </trkpt>
      <trkpt lat="43.59737" lon="3.10002">
        <ele>269.251114</ele>
        <time>2025-10-23T10:01:13Z</time>
      </trkpt>
      <trkpt lat="43.59737" lon="3.10003">
        <ele>269.092558</ele>
        <time>2025-10-23T10:01:14Z</time>
      </trkpt>
      <trkpt lat="43.59737" lon="3.10004">
        <ele>268.949028</ele>
        <time>2025-10-23T10:01:15Z</time>
      </trkpt>
      <trkpt lat="43.59738" lon="3.10005">
        <ele>268.777932</ele>
        <time>2025-10-23T10:01:16Z</time>
      </trkpt>
      <trkpt lat="43.59738" lon="3.10006">
        <ele>268.549359</ele>
        <time>2025-10-23T10:01:17Z</time>
      </trkpt>
      <trkpt lat="43.59739" lon="3.10007">
        <ele>268.2924</ele>
        <time>2025-10-23T10:01:18Z</time>
      </trkpt>
      <trkpt lat="43.59739" lon="3.10008">
        <ele>268.079808</ele>
        <time>2025-10-23T10:01:19Z</time>
      </trkpt>
      <trkpt lat="43.59739" lon="3.1001">
        <ele>267.797164</ele>
        <time>2025-10-23T10:01:20Z</time>
      </trkpt>
      <trkpt lat="43.59739" lon="3.10011">
        <ele>267.54957</ele>
        <time>2025-10-23T10:01:21Z</time>
      </trkpt>
      <trkpt lat="43.59739" lon="3.10013">
        <ele>267.285572</ele>
        <time>2025-10-23T10:01:22Z</time>
      </trkpt>
      <trkpt lat="43.59739" lon="3.10014">
        <ele>267.07298</ele>
        <time>2025-10-23T10:01:23Z</time>
      </trkpt>
      <trkpt lat="43.59739" lon="3.10015">
        <ele>266.940539</ele>
        <time>2025-10-23T10:01:24Z</time>
      </trkpt>
      <trkpt lat="43.59739" lon="3.10015">
        <ele>266.824291</ele>
        <time>2025-10-23T10:01:25Z</time>
      </trkpt>
      <trkpt lat="43.59739" lon="3.10016">
        <ele>266.591795</ele>
        <time>2025-10-23T10:01:26Z</time>
      </trkpt>
      <trkpt lat="43.59739" lon="3.10018">
        <ele>266.334837</ele>
        <time>2025-10-23T10:01:27Z</time>
      </trkpt>
      <trkpt lat="43.5974" lon="3.10019">
        <ele>266.104751</ele>
        <time>2025-10-23T10:01:28Z</time>
      </trkpt>
      <trkpt lat="43.5974" lon="3.1002">
        <ele>265.91425</ele>
        <time>2025-10-23T10:01:29Z</time>
      </trkpt>
      <trkpt lat="43.5974" lon="3.10021">
        <ele>265.773451</ele>
        <time>2025-10-23T10:01:30Z</time>
      </trkpt>
      <trkpt lat="43.5974" lon="3.10022">
        <ele>265.607762</ele>
        <time>2025-10-23T10:01:31Z</time>
      </trkpt>
      <trkpt lat="43.5974" lon="3.10024">
        <ele>265.282684</ele>
        <time>2025-10-23T10:01:32Z</time>
      </trkpt>
      <trkpt lat="43.59741" lon="3.10025">
        <ele>265.04878</ele>
        <time>2025-10-23T10:01:33Z</time>
      </trkpt>
      <trkpt lat="43.59741" lon="3.10027">
        <ele>264.748596</ele>
        <time>2025-10-23T10:01:34Z</time>
      </trkpt>
      <trkpt lat="43.59741" lon="3.10028">
        <ele>264.474716</ele>
        <time>2025-10-23T10:01:35Z</time>
      </trkpt>
      <trkpt lat="43.59741" lon="3.10029">
        <ele>264.316317</ele>
        <time>2025-10-23T10:01:36Z</time>
      </trkpt>
      <trkpt lat="43.59741" lon="3.10029">
        <ele>264.292015</ele>
        <time>2025-10-23T10:01:37Z</time>
      </trkpt>
      <trkpt lat="43.59741" lon="3.10029">
        <ele>264.256815</ele>
        <time>2025-10-23T10:01:38Z</time>
      </trkpt>
      <trkpt lat="43.59741" lon="3.10029">
        <ele>264.196803</ele>
        <time>2025-10-23T10:01:39Z</time>
      </trkpt>
      <trkpt lat="43.59741" lon="3.10029">
        <ele>264.064363</ele>
        <time>2025-10-23T10:01:40Z</time>
      </trkpt>
      <trkpt lat="43.59742" lon="3.1003">
        <ele>263.974345</ele>
        <time>2025-10-23T10:01:41Z</time>
      </trkpt>
      <trkpt lat="43.59742" lon="3.1003">
        <ele>263.914333</ele>
        <time>2025-10-23T10:01:42Z</time>
      </trkpt>
      <trkpt lat="43.59742" lon="3.1003">
        <ele>263.879133</ele>
        <time>2025-10-23T10:01:43Z</time>
      </trkpt>
      <trkpt lat="43.59742" lon="3.1003">
        <ele>263.836359</ele>
        <time>2025-10-23T10:01:44Z</time>
      </trkpt>
      <trkpt lat="43.59742" lon="3.1003">
        <ele>263.793585</ele>
        <time>2025-10-23T10:01:45Z</time>
      </trkpt>
      <trkpt lat="43.59742" lon="3.10029">
        <ele>263.740785</ele>
        <time>2025-10-23T10:01:46Z</time>
      </trkpt>
      <trkpt lat="43.59742" lon="3.10029">
        <ele>263.705586</ele>
        <time>2025-10-23T10:01:47Z</time>
      </trkpt>
      <trkpt lat="43.59742" lon="3.10029">
        <ele>263.67558</ele>
        <time>2025-10-23T10:01:48Z</time>
      </trkpt>
      <trkpt lat="43.59742" lon="3.10029">
        <ele>263.67558</ele>
        <time>2025-10-23T10:01:49Z</time>
      </trkpt>
      <trkpt lat="43.59742" lon="3.10029">
        <ele>263.549072</ele>
        <time>2025-10-23T10:01:50Z</time>
      </trkpt>
      <trkpt lat="43.59742" lon="3.10029">
        <ele>263.549072</ele>
        <time>2025-10-23T10:01:51Z</time>
      </trkpt>
      <trkpt lat="43.59742" lon="3.10029">
        <ele>263.549072</ele>
        <time>2025-10-23T10:01:52Z</time>
      </trkpt>
      <trkpt lat="43.59742" lon="3.10029">
        <ele>263.519066</ele>
        <time>2025-10-23T10:01:53Z</time>
      </trkpt>
      <trkpt lat="43.59742" lon="3.10029">
        <ele>263.501466</ele>
        <time>2025-10-23T10:01:54Z</time>
      </trkpt>
      <trkpt lat="43.59742" lon="3.10029">
        <ele>263.483866</ele>
        <time>2025-10-23T10:01:55Z</time>
      </trkpt>
      <trkpt lat="43.59742" lon="3.10029">
        <ele>263.459564</ele>
        <time>2025-10-23T10:01:56Z</time>
      </trkpt>
      <trkpt lat="43.59742" lon="3.10029">
        <ele>263.459564</ele>
        <time>2025-10-23T10:01:57Z</time>
      </trkpt>
      <trkpt lat="43.59742" lon="3.10029">
        <ele>263.459564</ele>
        <time>2025-10-23T10:01:58Z</time>
      </trkpt>
      <trkpt lat="43.59742" lon="3.10029">
        <ele>263.459564</ele>
        <time>2025-10-23T10:01:59Z</time>
      </trkpt>
      <trkpt lat="43.59742" lon="3.10029">
        <ele>263.459564</ele>
        <time>2025-10-23T10:02:00Z</time>
      </trkpt>
      <trkpt lat="43.59742" lon="3.10029">
        <ele>263.459564</ele>
        <time>2025-10-23T10:02:01Z</time>
      </trkpt>
      <trkpt lat="43.59742" lon="3.10029">
        <ele>263.435261</ele>
        <time>2025-10-23T10:02:02Z</time>
      </trkpt>
      <trkpt lat="43.59742" lon="3.10029">
        <ele>263.417662</ele>
        <time>2025-10-23T10:02:03Z</time>
      </trkpt>
      <trkpt lat="43.59741" lon="3.10029">
        <ele>263.351249</ele>
        <time>2025-10-23T10:02:04Z</time>
      </trkpt>
      <trkpt lat="43.59741" lon="3.1003">
        <ele>263.261687</ele>
        <time>2025-10-23T10:02:05Z</time>
      </trkpt>
      <trkpt lat="43.59742" lon="3.10031">
        <ele>263.134718</ele>
        <time>2025-10-23T10:02:06Z</time>
      </trkpt>
      <trkpt lat="43.59742" lon="3.10032">
        <ele>262.996863</ele>
        <time>2025-10-23T10:02:07Z</time>
      </trkpt>
      <trkpt lat="43.59742" lon="3.10034">
        <ele>262.872749</ele>
        <time>2025-10-23T10:02:08Z</time>
      </trkpt>
      <trkpt lat="43.59742" lon="3.10034">
        <ele>262.781863</ele>
        <time>2025-10-23T10:02:09Z</time>
      </trkpt>
      <trkpt lat="43.59742" lon="3.10035">
        <ele>262.663644</ele>
        <time>2025-10-23T10:02:10Z</time>
      </trkpt>
      <trkpt lat="43.59743" lon="3.10036">
        <ele>262.515754</ele>
        <time>2025-10-23T10:02:11Z</time>
      </trkpt>
      <trkpt lat="43.59743" lon="3.10038">
        <ele>262.326257</ele>
        <time>2025-10-23T10:02:12Z</time>
      </trkpt>
      <trkpt lat="43.59744" lon="3.10039">
        <ele>262.157767</ele>
        <time>2025-10-23T10:02:13Z</time>
      </trkpt>
      <trkpt lat="43.59744" lon="3.10041">
        <ele>261.975645</ele>
        <time>2025-10-23T10:02:14Z</time>
      </trkpt>
      <trkpt lat="43.59744" lon="3.10043">
        <ele>261.728865</ele>
        <time>2025-10-23T10:02:15Z</time>
      </trkpt>
      <trkpt lat="43.59745" lon="3.10045">
        <ele>261.50735</ele>
        <time>2025-10-23T10:02:16Z</time>
      </trkpt>
      <trkpt lat="43.59745" lon="3.10046">
        <ele>261.365228</ele>
        <time>2025-10-23T10:02:17Z</time>
      </trkpt>
      <trkpt lat="43.59746" lon="3.10047">
        <ele>261.238238</ele>
        <time>2025-10-23T10:02:18Z</time>
      </trkpt>
      <trkpt lat="43.59745" lon="3.10047">
        <ele>261.219151</ele>
        <time>2025-10-23T10:02:19Z</time>
      </trkpt>
      <trkpt lat="43.59745" lon="3.10047">
        <ele>261.161891</ele>
        <time>2025-10-23T10:02:20Z</time>
      </trkpt>
      <trkpt lat="43.59745" lon="3.10047">
        <ele>261.129009</ele>
        <time>2025-10-23T10:02:21Z</time>
      </trkpt>
      <trkpt lat="43.59745" lon="3.10046">
        <ele>261.074592</ele>
        <time>2025-10-23T10:02:22Z</time>
      </trkpt>
      <trkpt lat="43.59745" lon="3.10046">
        <ele>261.055505</ele>
        <time>2025-10-23T10:02:23Z</time>
      </trkpt>
      <trkpt lat="43.59745" lon="3.10047">
        <ele>260.989741</ele>
        <time>2025-10-23T10:02:24Z</time>
      </trkpt>
      <trkpt lat="43.59746" lon="3.10047">
        <ele>260.898855</ele>
        <time>2025-10-23T10:02:25Z</time>
      </trkpt>
      <trkpt lat="43.59746" lon="3.10049">
        <ele>260.746106</ele>
        <time>2025-10-23T10:02:26Z</time>
      </trkpt>
      <trkpt lat="43.59746" lon="3.10051">
        <ele>260.544</ele>
        <time>2025-10-23T10:02:27Z</time>
      </trkpt>
      <trkpt lat="43.59745" lon="3.10053">
        <ele>260.242836</ele>
        <time>2025-10-23T10:02:28Z</time>
      </trkpt>
      <trkpt lat="43.59745" lon="3.10056">
        <ele>259.894409</ele>
        <time>2025-10-23T10:02:29Z</time>
      </trkpt>
      <trkpt lat="43.59745" lon="3.10059">
        <ele>259.592137</ele>
        <time>2025-10-23T10:02:30Z</time>
      </trkpt>
      <trkpt lat="43.59745" lon="3.10062">
        <ele>259.267107</ele>
        <time>2025-10-23T10:02:31Z</time>
      </trkpt>
      <trkpt lat="43.59745" lon="3.10064">
        <ele>259.009153</ele>
        <time>2025-10-23T10:02:32Z</time>
      </trkpt>
      <trkpt lat="43.59745" lon="3.10067">
        <ele>258.711581</ele>
        <time>2025-10-23T10:02:33Z</time>
      </trkpt>
      <trkpt lat="43.59745" lon="3.10069">
        <ele>258.464801</ele>
        <time>2025-10-23T10:02:34Z</time>
      </trkpt>
      <trkpt lat="43.59746" lon="3.10071">
        <ele>258.178171</ele>
        <time>2025-10-23T10:02:35Z</time>
      </trkpt>
      <trkpt lat="43.59746" lon="3.10074">
        <ele>257.861292</ele>
        <time>2025-10-23T10:02:36Z</time>
      </trkpt>
      <trkpt lat="43.59746" lon="3.10077">
        <ele>257.536262</ele>
        <time>2025-10-23T10:02:37Z</time>
      </trkpt>
      <trkpt lat="43.59746" lon="3.10081">
        <ele>257.122038</ele>
        <time>2025-10-23T10:02:38Z</time>
      </trkpt>
      <trkpt lat="43.59745" lon="3.10084">
        <ele>256.766483</ele>
        <time>2025-10-23T10:02:39Z</time>
      </trkpt>
      <trkpt lat="43.59745" lon="3.10087">
        <ele>256.464211</ele>
        <time>2025-10-23T10:02:40Z</time>
      </trkpt>
      <trkpt lat="43.59745" lon="3.1009">
        <ele>256.119574</ele>
        <time>2025-10-23T10:02:41Z</time>
      </trkpt>
      <trkpt lat="43.59745" lon="3.10093">
        <ele>255.74884</ele>
        <time>2025-10-23T10:02:42Z</time>
      </trkpt>
      <trkpt lat="43.59745" lon="3.10096">
        <ele>255.365387</ele>
        <time>2025-10-23T10:02:43Z</time>
      </trkpt>
      <trkpt lat="43.59745" lon="3.101">
        <ele>254.993044</ele>
        <time>2025-10-23T10:02:44Z</time>
      </trkpt>
      <trkpt lat="43.59746" lon="3.10103">
        <ele>254.597323</ele>
        <time>2025-10-23T10:02:45Z</time>
      </trkpt>
      <trkpt lat="43.59746" lon="3.10107">
        <ele>254.19311</ele>
        <time>2025-10-23T10:02:46Z</time>
      </trkpt>
      <trkpt lat="43.59746" lon="3.1011">
        <ele>253.778886</ele>
        <time>2025-10-23T10:02:47Z</time>
      </trkpt>
      <trkpt lat="43.59746" lon="3.10115">
        <ele>253.286053</ele>
        <time>2025-10-23T10:02:48Z</time>
      </trkpt>
      <trkpt lat="43.59747" lon="3.1012">
        <ele>252.726915</ele>
        <time>2025-10-23T10:02:49Z</time>
      </trkpt>
      <trkpt lat="43.59748" lon="3.10125">
        <ele>252.073796</ele>
        <time>2025-10-23T10:02:50Z</time>
      </trkpt>
      <trkpt lat="43.59748" lon="3.10131">
        <ele>251.469055</ele>
        <time>2025-10-23T10:02:51Z</time>
      </trkpt>
      <trkpt lat="43.59748" lon="3.10136">
        <ele>250.897261</ele>
        <time>2025-10-23T10:02:52Z</time>
      </trkpt>
      <trkpt lat="43.59749" lon="3.10141">
        <ele>250.3007</ele>
        <time>2025-10-23T10:02:53Z</time>
      </trkpt>
      <trkpt lat="43.59749" lon="3.10145">
        <ele>249.807293</ele>
        <time>2025-10-23T10:02:54Z</time>
      </trkpt>
      <trkpt lat="43.5975" lon="3.1015">
        <ele>249.237168</ele>
        <time>2025-10-23T10:02:55Z</time>
      </trkpt>
      <trkpt lat="43.59751" lon="3.10154">
        <ele>248.793765</ele>
        <time>2025-10-23T10:02:56Z</time>
      </trkpt>
      <trkpt lat="43.59751" lon="3.10158">
        <ele>248.354694</ele>
        <time>2025-10-23T10:02:57Z</time>
      </trkpt>
      <trkpt lat="43.59751" lon="3.10162">
        <ele>247.889227</ele>
        <time>2025-10-23T10:02:58Z</time>
      </trkpt>
      <trkpt lat="43.59752" lon="3.10166">
        <ele>247.519168</ele>
        <time>2025-10-23T10:02:59Z</time>
      </trkpt>
      <trkpt lat="43.59753" lon="3.10169">
        <ele>247.170738</ele>
        <time>2025-10-23T10:03:00Z</time>
      </trkpt>
      <trkpt lat="43.59753" lon="3.10171">
        <ele>246.833759</ele>
        <time>2025-10-23T10:03:01Z</time>
      </trkpt>
      <trkpt lat="43.59754" lon="3.10175">
        <ele>246.449444</ele>
        <time>2025-10-23T10:03:02Z</time>
      </trkpt>
      <trkpt lat="43.59755" lon="3.10178">
        <ele>246.07521</ele>
        <time>2025-10-23T10:03:03Z</time>
      </trkpt>
      <trkpt lat="43.59755" lon="3.10181">
        <ele>245.726784</ele>
        <time>2025-10-23T10:03:04Z</time>
      </trkpt>
      <trkpt lat="43.59756" lon="3.10184">
        <ele>245.393048</ele>
        <time>2025-10-23T10:03:05Z</time>
      </trkpt>
      <trkpt lat="43.59756" lon="3.10186">
        <ele>245.123918</ele>
        <time>2025-10-23T10:03:06Z</time>
      </trkpt>
      <trkpt lat="43.59755" lon="3.10188">
        <ele>244.884288</ele>
        <time>2025-10-23T10:03:07Z</time>
      </trkpt>
      <trkpt lat="43.59755" lon="3.1019">
        <ele>244.666213</ele>
        <time>2025-10-23T10:03:08Z</time>
      </trkpt>
      <trkpt lat="43.59754" lon="3.10191">
        <ele>244.493632</ele>
        <time>2025-10-23T10:03:09Z</time>
      </trkpt>
      <trkpt lat="43.59753" lon="3.10193">
        <ele>244.301791</ele>
        <time>2025-10-23T10:03:10Z</time>
      </trkpt>
      <trkpt lat="43.59753" lon="3.10195">
        <ele>244.059435</ele>
        <time>2025-10-23T10:03:11Z</time>
      </trkpt>
      <trkpt lat="43.59752" lon="3.10196">
        <ele>243.88468</ele>
        <time>2025-10-23T10:03:12Z</time>
      </trkpt>
      <trkpt lat="43.59751" lon="3.10197">
        <ele>243.717864</ele>
        <time>2025-10-23T10:03:13Z</time>
      </trkpt>
      <trkpt lat="43.59751" lon="3.10198">
        <ele>243.570007</ele>
        <time>2025-10-23T10:03:14Z</time>
      </trkpt>
      <trkpt lat="43.5975" lon="3.10198">
        <ele>243.442643</ele>
        <time>2025-10-23T10:03:15Z</time>
      </trkpt>
      <trkpt lat="43.59749" lon="3.10199">
        <ele>243.328122</ele>
        <time>2025-10-23T10:03:16Z</time>
      </trkpt>
      <trkpt lat="43.59749" lon="3.102">
        <ele>243.190267</ele>
        <time>2025-10-23T10:03:17Z</time>
      </trkpt>
      <trkpt lat="43.59749" lon="3.10201">
        <ele>243.077253</ele>
        <time>2025-10-23T10:03:18Z</time>
      </trkpt>
      <trkpt lat="43.59749" lon="3.10202">
        <ele>242.949359</ele>
        <time>2025-10-23T10:03:19Z</time>
      </trkpt>
      <trkpt lat="43.59748" lon="3.10204">
        <ele>242.75427</ele>
        <time>2025-10-23T10:03:20Z</time>
      </trkpt>
      <trkpt lat="43.59748" lon="3.10205">
        <ele>242.559181</ele>
        <time>2025-10-23T10:03:21Z</time>
      </trkpt>
      <trkpt lat="43.59747" lon="3.10207">
        <ele>242.374318</ele>
        <time>2025-10-23T10:03:22Z</time>
      </trkpt>
      <trkpt lat="43.59747" lon="3.10209">
        <ele>242.168902</ele>
        <time>2025-10-23T10:03:23Z</time>
      </trkpt>
      <trkpt lat="43.59746" lon="3.1021">
        <ele>242.050684</ele>
        <time>2025-10-23T10:03:24Z</time>
      </trkpt>
      <trkpt lat="43.59746" lon="3.1021">
        <ele>242.028294</ele>
        <time>2025-10-23T10:03:25Z</time>
      </trkpt>
      <trkpt lat="43.59746" lon="3.1021">
        <ele>241.980919</ele>
        <time>2025-10-23T10:03:26Z</time>
      </trkpt>
      <trkpt lat="43.59746" lon="3.10211">
        <ele>241.880063</ele>
        <time>2025-10-23T10:03:27Z</time>
      </trkpt>
      <trkpt lat="43.59746" lon="3.10212">
        <ele>241.769145</ele>
        <time>2025-10-23T10:03:28Z</time>
      </trkpt>
      <trkpt lat="43.59745" lon="3.10213">
        <ele>241.605209</ele>
        <time>2025-10-23T10:03:29Z</time>
      </trkpt>
      <trkpt lat="43.59744" lon="3.10214">
        <ele>241.432705</ele>
        <time>2025-10-23T10:03:30Z</time>
      </trkpt>
      <trkpt lat="43.59744" lon="3.10215">
        <ele>241.287321</ele>
        <time>2025-10-23T10:03:31Z</time>
      </trkpt>
      <trkpt lat="43.59743" lon="3.10216">
        <ele>241.169103</ele>
        <time>2025-10-23T10:03:32Z</time>
      </trkpt>
      <trkpt lat="43.59744" lon="3.10217">
        <ele>241.078217</ele>
        <time>2025-10-23T10:03:33Z</time>
      </trkpt>
      <trkpt lat="43.59744" lon="3.10218">
        <ele>240.972823</ele>
        <time>2025-10-23T10:03:34Z</time>
      </trkpt>
      <trkpt lat="43.59744" lon="3.10218">
        <ele>240.892946</ele>
        <time>2025-10-23T10:03:35Z</time>
      </trkpt>
      <trkpt lat="43.59744" lon="3.10219">
        <ele>240.819001</ele>
        <time>2025-10-23T10:03:36Z</time>
      </trkpt>
      <trkpt lat="43.59743" lon="3.1022">
        <ele>240.664009</ele>
        <time>2025-10-23T10:03:37Z</time>
      </trkpt>
      <trkpt lat="43.59743" lon="3.10221">
        <ele>240.509018</ele>
        <time>2025-10-23T10:03:38Z</time>
      </trkpt>
      <trkpt lat="43.59742" lon="3.10223">
        <ele>240.349264</ele>
        <time>2025-10-23T10:03:39Z</time>
      </trkpt>
      <trkpt lat="43.59742" lon="3.10224">
        <ele>240.247328</ele>
        <time>2025-10-23T10:03:40Z</time>
      </trkpt>
      <trkpt lat="43.59742" lon="3.10225">
        <ele>240.156441</ele>
        <time>2025-10-23T10:03:41Z</time>
      </trkpt>
      <trkpt lat="43.59742" lon="3.10226">
        <ele>239.982227</ele>
        <time>2025-10-23T10:03:42Z</time>
      </trkpt>
      <trkpt lat="43.59743" lon="3.10228">
        <ele>239.753496</ele>
        <time>2025-10-23T10:03:43Z</time>
      </trkpt>
      <trkpt lat="43.59743" lon="3.1023">
        <ele>239.473615</ele>
        <time>2025-10-23T10:03:44Z</time>
      </trkpt>
      <trkpt lat="43.59742" lon="3.10232">
        <ele>239.292256</ele>
        <time>2025-10-23T10:03:45Z</time>
      </trkpt>
      <trkpt lat="43.59742" lon="3.10234">
        <ele>239.04916</ele>
        <time>2025-10-23T10:03:46Z</time>
      </trkpt>
      <trkpt lat="43.59742" lon="3.10235">
        <ele>238.881231</ele>
        <time>2025-10-23T10:03:47Z</time>
      </trkpt>
      <trkpt lat="43.59742" lon="3.10237">
        <ele>238.721477</ele>
        <time>2025-10-23T10:03:48Z</time>
      </trkpt>
      <trkpt lat="43.59742" lon="3.10239">
        <ele>238.506532</ele>
        <time>2025-10-23T10:03:49Z</time>
      </trkpt>
      <trkpt lat="43.59742" lon="3.1024">
        <ele>238.326742</ele>
        <time>2025-10-23T10:03:50Z</time>
      </trkpt>
      <trkpt lat="43.59742" lon="3.10242">
        <ele>238.147618</ele>
        <time>2025-10-23T10:03:51Z</time>
      </trkpt>
      <trkpt lat="43.59741" lon="3.10243">
        <ele>237.958122</ele>
        <time>2025-10-23T10:03:52Z</time>
      </trkpt>
      <trkpt lat="43.59741" lon="3.10245">
        <ele>237.747334</ele>
        <time>2025-10-23T10:03:53Z</time>
      </trkpt>
      <trkpt lat="43.59741" lon="3.10247">
        <ele>237.58984</ele>
        <time>2025-10-23T10:03:54Z</time>
      </trkpt>
      <trkpt lat="43.59741" lon="3.10248">
        <ele>237.389727</ele>
        <time>2025-10-23T10:03:55Z</time>
      </trkpt>
      <trkpt lat="43.5974" lon="3.1025">
        <ele>237.168212</ele>
        <time>2025-10-23T10:03:56Z</time>
      </trkpt>
      <trkpt lat="43.59739" lon="3.10252">
        <ele>236.919529</ele>
        <time>2025-10-23T10:03:57Z</time>
      </trkpt>
      <trkpt lat="43.59739" lon="3.10254">
        <ele>236.682658</ele>
        <time>2025-10-23T10:03:58Z</time>
      </trkpt>
      <trkpt lat="43.59739" lon="3.10256">
        <ele>236.503534</ele>
        <time>2025-10-23T10:03:59Z</time>
      </trkpt>
      <trkpt lat="43.59738" lon="3.10257">
        <ele>236.328778</ele>
        <time>2025-10-23T10:04:00Z</time>
      </trkpt>
      <trkpt lat="43.59738" lon="3.10259">
        <ele>236.123362</ele>
        <time>2025-10-23T10:04:01Z</time>
      </trkpt>
      <trkpt lat="43.59737" lon="3.1026">
        <ele>235.948835</ele>
        <time>2025-10-23T10:04:02Z</time>
      </trkpt>
      <trkpt lat="43.59736" lon="3.10261">
        <ele>235.776331</ele>
        <time>2025-10-23T10:04:03Z</time>
      </trkpt>
      <trkpt lat="43.59736" lon="3.10262">
        <ele>235.638476</ele>
        <time>2025-10-23T10:04:04Z</time>
      </trkpt>
      <trkpt lat="43.59736" lon="3.10263">
        <ele>235.518433</ele>
        <time>2025-10-23T10:04:05Z</time>
      </trkpt>
      <trkpt lat="43.59736" lon="3.10265">
        <ele>235.370908</ele>
        <time>2025-10-23T10:04:06Z</time>
      </trkpt>
      <trkpt lat="43.59736" lon="3.10267">
        <ele>235.143467</ele>
        <time>2025-10-23T10:04:07Z</time>
      </trkpt>
      <trkpt lat="43.59736" lon="3.10269">
        <ele>234.915578</ele>
        <time>2025-10-23T10:04:08Z</time>
      </trkpt>
      <trkpt lat="43.59736" lon="3.10271">
        <ele>234.727312</ele>
        <time>2025-10-23T10:04:09Z</time>
      </trkpt>
      <trkpt lat="43.59736" lon="3.10273">
        <ele>234.571583</ele>
        <time>2025-10-23T10:04:10Z</time>
      </trkpt>
      <trkpt lat="43.59736" lon="3.10273">
        <ele>234.487654</ele>
        <time>2025-10-23T10:04:11Z</time>
      </trkpt>
      <trkpt lat="43.59736" lon="3.10274">
        <ele>234.440098</ele>
        <time>2025-10-23T10:04:12Z</time>
      </trkpt>
      <trkpt lat="43.59735" lon="3.10274">
        <ele>234.353824</ele>
        <time>2025-10-23T10:04:13Z</time>
      </trkpt>
      <trkpt lat="43.59735" lon="3.10274">
        <ele>234.281703</ele>
        <time>2025-10-23T10:04:14Z</time>
      </trkpt>
      <trkpt lat="43.59734" lon="3.10274">
        <ele>234.186591</ele>
        <time>2025-10-23T10:04:15Z</time>
      </trkpt>
      <trkpt lat="43.59734" lon="3.10274">
        <ele>234.133714</ele>
        <time>2025-10-23T10:04:16Z</time>
      </trkpt>
      <trkpt lat="43.59734" lon="3.10274">
        <ele>234.113037</ele>
        <time>2025-10-23T10:04:17Z</time>
      </trkpt>
      <trkpt lat="43.59734" lon="3.10274">
        <ele>234.095412</ele>
        <time>2025-10-23T10:04:18Z</time>
      </trkpt>
      <trkpt lat="43.59734" lon="3.10275">
        <ele>234.051664</ele>
        <time>2025-10-23T10:04:19Z</time>
      </trkpt>
      <trkpt lat="43.59734" lon="3.10276">
        <ele>233.917267</ele>
        <time>2025-10-23T10:04:20Z</time>
      </trkpt>
      <trkpt lat="43.59734" lon="3.10277">
        <ele>233.759587</ele>
        <time>2025-10-23T10:04:21Z</time>
      </trkpt>
      <trkpt lat="43.59734" lon="3.10279">
        <ele>233.583258</ele>
        <time>2025-10-23T10:04:22Z</time>
      </trkpt>
      <trkpt lat="43.59734" lon="3.10281">
        <ele>233.394992</ele>
        <time>2025-10-23T10:04:23Z</time>
      </trkpt>
      <trkpt lat="43.59734" lon="3.10283">
        <ele>233.156784</ele>
        <time>2025-10-23T10:04:24Z</time>
      </trkpt>
      <trkpt lat="43.59734" lon="3.10285">
        <ele>232.928895</ele>
        <time>2025-10-23T10:04:25Z</time>
      </trkpt>
      <trkpt lat="43.59734" lon="3.10288">
        <ele>232.617436</ele>
        <time>2025-10-23T10:04:26Z</time>
      </trkpt>
      <trkpt lat="43.59734" lon="3.10292">
        <ele>232.264779</ele>
        <time>2025-10-23T10:04:27Z</time>
      </trkpt>
      <trkpt lat="43.59735" lon="3.10295">
        <ele>231.939246</ele>
        <time>2025-10-23T10:04:28Z</time>
      </trkpt>
      <trkpt lat="43.59735" lon="3.10297">
        <ele>231.680396</ele>
        <time>2025-10-23T10:04:29Z</time>
      </trkpt>
      <trkpt lat="43.59734" lon="3.103">
        <ele>231.388418</ele>
        <time>2025-10-23T10:04:30Z</time>
      </trkpt>
      <trkpt lat="43.59733" lon="3.10302">
        <ele>231.119888</ele>
        <time>2025-10-23T10:04:31Z</time>
      </trkpt>
      <trkpt lat="43.59732" lon="3.10305">
        <ele>230.842548</ele>
        <time>2025-10-23T10:04:32Z</time>
      </trkpt>
      <trkpt lat="43.59731" lon="3.10307">
        <ele>230.594122</ele>
        <time>2025-10-23T10:04:33Z</time>
      </trkpt>
      <trkpt lat="43.59731" lon="3.1031">
        <ele>230.282664</ele>
        <time>2025-10-23T10:04:34Z</time>
      </trkpt>
      <trkpt lat="43.5973" lon="3.10313">
        <ele>229.912839</ele>
        <time>2025-10-23T10:04:35Z</time>
      </trkpt>
      <trkpt lat="43.59729" lon="3.10316">
        <ele>229.596137</ele>
        <time>2025-10-23T10:04:36Z</time>
      </trkpt>
      <trkpt lat="43.59728" lon="3.10319">
        <ele>229.225798</ele>
        <time>2025-10-23T10:04:37Z</time>
      </trkpt>
      <trkpt lat="43.59726" lon="3.10322">
        <ele>228.772955</ele>
        <time>2025-10-23T10:04:38Z</time>
      </trkpt>
      <trkpt lat="43.59724" lon="3.10325">
        <ele>228.379407</ele>
        <time>2025-10-23T10:04:39Z</time>
      </trkpt>
      <trkpt lat="43.59723" lon="3.10328">
        <ele>227.976644</ele>
        <time>2025-10-23T10:04:40Z</time>
      </trkpt>
      <trkpt lat="43.5972" lon="3.10331">
        <ele>227.512576</ele>
        <time>2025-10-23T10:04:41Z</time>
      </trkpt>
      <trkpt lat="43.59717" lon="3.10334">
        <ele>227.00695</ele>
        <time>2025-10-23T10:04:42Z</time>
      </trkpt>
      <trkpt lat="43.59714" lon="3.10336">
        <ele>226.556929</ele>
        <time>2025-10-23T10:04:43Z</time>
      </trkpt>
      <trkpt lat="43.59712" lon="3.10337">
        <ele>226.219413</ele>
        <time>2025-10-23T10:04:44Z</time>
      </trkpt>
      <trkpt lat="43.5971" lon="3.10339">
        <ele>225.877023</ele>
        <time>2025-10-23T10:04:45Z</time>
      </trkpt>
      <trkpt lat="43.59708" lon="3.1034">
        <ele>225.634569</ele>
        <time>2025-10-23T10:04:46Z</time>
      </trkpt>
      <trkpt lat="43.59707" lon="3.10341">
        <ele>225.387097</ele>
        <time>2025-10-23T10:04:47Z</time>
      </trkpt>
      <trkpt lat="43.59706" lon="3.10342">
        <ele>225.169364</ele>
        <time>2025-10-23T10:04:48Z</time>
      </trkpt>
      <trkpt lat="43.59705" lon="3.10343">
        <ele>225.042112</ele>
        <time>2025-10-23T10:04:49Z</time>
      </trkpt>
      <trkpt lat="43.59705" lon="3.10344">
        <ele>225.016986</ele>
        <time>2025-10-23T10:04:50Z</time>
      </trkpt>
      <trkpt lat="43.59705" lon="3.10344">
        <ele>224.965295</ele>
        <time>2025-10-23T10:04:51Z</time>
      </trkpt>
      <trkpt lat="43.59706" lon="3.10345">
        <ele>224.881204</ele>
        <time>2025-10-23T10:04:52Z</time>
      </trkpt>
      <trkpt lat="43.59706" lon="3.10346">
        <ele>224.788068</ele>
        <time>2025-10-23T10:04:53Z</time>
      </trkpt>
      <trkpt lat="43.59706" lon="3.10346">
        <ele>224.678899</ele>
        <time>2025-10-23T10:04:54Z</time>
      </trkpt>
      <trkpt lat="43.59705" lon="3.10347">
        <ele>224.51885</ele>
        <time>2025-10-23T10:04:55Z</time>
      </trkpt>
      <trkpt lat="43.59704" lon="3.10348">
        <ele>224.366053</ele>
        <time>2025-10-23T10:04:56Z</time>
      </trkpt>
      <trkpt lat="43.59702" lon="3.10349">
        <ele>224.183864</ele>
        <time>2025-10-23T10:04:57Z</time>
      </trkpt>
      <trkpt lat="43.59701" lon="3.10349">
        <ele>223.984674</ele>
        <time>2025-10-23T10:04:58Z</time>
      </trkpt>
      <trkpt lat="43.597" lon="3.1035">
        <ele>223.811772</ele>
        <time>2025-10-23T10:04:59Z</time>
      </trkpt>
      <trkpt lat="43.59699" lon="3.1035">
        <ele>223.611917</ele>
        <time>2025-10-23T10:05:00Z</time>
      </trkpt>
      <trkpt lat="43.59698" lon="3.1035">
        <ele>223.465834</ele>
        <time>2025-10-23T10:05:01Z</time>
      </trkpt>
      <trkpt lat="43.59697" lon="3.10351">
        <ele>223.361204</ele>
        <time>2025-10-23T10:05:02Z</time>
      </trkpt>
      <trkpt lat="43.59696" lon="3.10351">
        <ele>223.234738</ele>
        <time>2025-10-23T10:05:03Z</time>
      </trkpt>
      <trkpt lat="43.59696" lon="3.10353">
        <ele>223.098168</ele>
        <time>2025-10-23T10:05:04Z</time>
      </trkpt>
      <trkpt lat="43.59695" lon="3.10354">
        <ele>222.971702</ele>
        <time>2025-10-23T10:05:05Z</time>
      </trkpt>
      <trkpt lat="43.59695" lon="3.10355">
        <ele>222.820763</ele>
        <time>2025-10-23T10:05:06Z</time>
      </trkpt>
      <trkpt lat="43.59695" lon="3.10356">
        <ele>222.747</ele>
        <time>2025-10-23T10:05:07Z</time>
      </trkpt>
      <trkpt lat="43.59695" lon="3.10356">
        <ele>222.671623</ele>
        <time>2025-10-23T10:05:08Z</time>
      </trkpt>
      <trkpt lat="43.59694" lon="3.10357">
        <ele>222.629467</ele>
        <time>2025-10-23T10:05:09Z</time>
      </trkpt>
      <trkpt lat="43.59694" lon="3.10357">
        <ele>222.629467</ele>
        <time>2025-10-23T10:05:10Z</time>
      </trkpt>
      <trkpt lat="43.59694" lon="3.10357">
        <ele>222.629467</ele>
        <time>2025-10-23T10:05:11Z</time>
      </trkpt>
      <trkpt lat="43.59694" lon="3.10357">
        <ele>222.588114</ele>
        <time>2025-10-23T10:05:12Z</time>
      </trkpt>
      <trkpt lat="43.59695" lon="3.10359">
        <ele>222.370541</ele>
        <time>2025-10-23T10:05:13Z</time>
      </trkpt>
      <trkpt lat="43.59695" lon="3.1036">
        <ele>222.218365</ele>
        <time>2025-10-23T10:05:14Z</time>
      </trkpt>
      <trkpt lat="43.59696" lon="3.10361">
        <ele>222.064319</ele>
        <time>2025-10-23T10:05:15Z</time>
      </trkpt>
      <trkpt lat="43.59696" lon="3.10363">
        <ele>221.896138</ele>
        <time>2025-10-23T10:05:16Z</time>
      </trkpt>
      <trkpt lat="43.59697" lon="3.10364">
        <ele>221.715244</ele>
        <time>2025-10-23T10:05:17Z</time>
      </trkpt>
      <trkpt lat="43.59697" lon="3.10366">
        <ele>221.564489</ele>
        <time>2025-10-23T10:05:18Z</time>
      </trkpt>
      <trkpt lat="43.59698" lon="3.10366">
        <ele>221.529237</ele>
        <time>2025-10-23T10:05:19Z</time>
      </trkpt>
      <trkpt lat="43.59698" lon="3.10366">
        <ele>221.47636</ele>
        <time>2025-10-23T10:05:20Z</time>
      </trkpt>
      <trkpt lat="43.59698" lon="3.10366">
        <ele>221.47636</ele>
        <time>2025-10-23T10:05:21Z</time>
      </trkpt>
      <trkpt lat="43.59698" lon="3.10366">
        <ele>221.462085</ele>
        <time>2025-10-23T10:05:22Z</time>
      </trkpt>
      <trkpt lat="43.59698" lon="3.10366">
        <ele>221.44781</ele>
        <time>2025-10-23T10:05:23Z</time>
      </trkpt>
      <trkpt lat="43.59698" lon="3.10366">
        <ele>221.44781</ele>
        <time>2025-10-23T10:05:24Z</time>
      </trkpt>
      <trkpt lat="43.59698" lon="3.10366">
        <ele>221.433534</ele>
        <time>2025-10-23T10:05:25Z</time>
      </trkpt>
      <trkpt lat="43.59698" lon="3.10366">
        <ele>221.433534</ele>
        <time>2025-10-23T10:05:26Z</time>
      </trkpt>
      <trkpt lat="43.59698" lon="3.10366">
        <ele>221.423196</ele>
        <time>2025-10-23T10:05:27Z</time>
      </trkpt>
      <trkpt lat="43.59698" lon="3.10366">
        <ele>221.423196</ele>
        <time>2025-10-23T10:05:28Z</time>
      </trkpt>
      <trkpt lat="43.59698" lon="3.10366">
        <ele>221.412858</ele>
        <time>2025-10-23T10:05:29Z</time>
      </trkpt>
      <trkpt lat="43.59698" lon="3.10366">
        <ele>221.412858</ele>
        <time>2025-10-23T10:05:30Z</time>
      </trkpt>
      <trkpt lat="43.59698" lon="3.10366">
        <ele>221.412858</ele>
        <time>2025-10-23T10:05:31Z</time>
      </trkpt>
      <trkpt lat="43.59698" lon="3.10366">
        <ele>221.412858</ele>
        <time>2025-10-23T10:05:32Z</time>
      </trkpt>
      <trkpt lat="43.59698" lon="3.10366">
        <ele>221.412858</ele>
        <time>2025-10-23T10:05:33Z</time>
      </trkpt>
      <trkpt lat="43.59698" lon="3.10365">
        <ele>221.395232</ele>
        <time>2025-10-23T10:05:34Z</time>
      </trkpt>
      <trkpt lat="43.59698" lon="3.10365">
        <ele>221.359981</ele>
        <time>2025-10-23T10:05:35Z</time>
      </trkpt>
      <trkpt lat="43.59698" lon="3.10365">
        <ele>221.342355</ele>
        <time>2025-10-23T10:05:36Z</time>
      </trkpt>
      <trkpt lat="43.59698" lon="3.10365">
        <ele>221.342355</ele>
        <time>2025-10-23T10:05:37Z</time>
      </trkpt>
      <trkpt lat="43.59698" lon="3.10365">
        <ele>221.332017</ele>
        <time>2025-10-23T10:05:38Z</time>
      </trkpt>
      <trkpt lat="43.59698" lon="3.10365">
        <ele>221.321678</ele>
        <time>2025-10-23T10:05:39Z</time>
      </trkpt>
      <trkpt lat="43.59698" lon="3.10365">
        <ele>221.31134</ele>
        <time>2025-10-23T10:05:40Z</time>
      </trkpt>
      <trkpt lat="43.59698" lon="3.10365">
        <ele>221.301002</ele>
        <time>2025-10-23T10:05:41Z</time>
      </trkpt>
      <trkpt lat="43.59698" lon="3.10365">
        <ele>221.301002</ele>
        <time>2025-10-23T10:05:42Z</time>
      </trkpt>
      <trkpt lat="43.59698" lon="3.10365">
        <ele>221.301002</ele>
        <time>2025-10-23T10:05:43Z</time>
      </trkpt>
      <trkpt lat="43.59698" lon="3.10365">
        <ele>221.290663</ele>
        <time>2025-10-23T10:05:44Z</time>
      </trkpt>
      <trkpt lat="43.59698" lon="3.10365">
        <ele>221.290663</ele>
        <time>2025-10-23T10:05:45Z</time>
      </trkpt>
      <trkpt lat="43.59698" lon="3.10365">
        <ele>221.290663</ele>
        <time>2025-10-23T10:05:46Z</time>
      </trkpt>
      <trkpt lat="43.59698" lon="3.10365">
        <ele>221.280325</ele>
        <time>2025-10-23T10:05:47Z</time>
      </trkpt>
      <trkpt lat="43.59698" lon="3.10365">
        <ele>221.246182</ele>
        <time>2025-10-23T10:05:48Z</time>
      </trkpt>
      <trkpt lat="43.59699" lon="3.10366">
        <ele>221.0461</ele>
        <time>2025-10-23T10:05:49Z</time>
      </trkpt>
      <trkpt lat="43.59701" lon="3.10367">
        <ele>220.738778</ele>
        <time>2025-10-23T10:05:50Z</time>
      </trkpt>
      <trkpt lat="43.59704" lon="3.10369">
        <ele>220.283914</ele>
        <time>2025-10-23T10:05:51Z</time>
      </trkpt>
      <trkpt lat="43.59707" lon="3.10373">
        <ele>219.755248</ele>
        <time>2025-10-23T10:05:52Z</time>
      </trkpt>
      <trkpt lat="43.59709" lon="3.10378">
        <ele>219.160669</ele>
        <time>2025-10-23T10:05:53Z</time>
      </trkpt>
      <trkpt lat="43.59713" lon="3.10382">
        <ele>218.439057</ele>
        <time>2025-10-23T10:05:54Z</time>
      </trkpt>
      <trkpt lat="43.59716" lon="3.10388">
        <ele>217.658556</ele>
        <time>2025-10-23T10:05:55Z</time>
      </trkpt>
      <trkpt lat="43.5972" lon="3.10394">
        <ele>216.849971</ele>
        <time>2025-10-23T10:05:56Z</time>
      </trkpt>
      <trkpt lat="43.59724" lon="3.104">
        <ele>216.045968</ele>
        <time>2025-10-23T10:05:57Z</time>
      </trkpt>
      <trkpt lat="43.59726" lon="3.10406">
        <ele>215.306875</ele>
        <time>2025-10-23T10:05:58Z</time>
      </trkpt>
      <trkpt lat="43.59728" lon="3.10412">
        <ele>214.670617</ele>
        <time>2025-10-23T10:05:59Z</time>
      </trkpt>
      <trkpt lat="43.5973" lon="3.10418">
        <ele>214.043638</ele>
        <time>2025-10-23T10:06:00Z</time>
      </trkpt>
      <trkpt lat="43.5973" lon="3.10424">
        <ele>213.329014</ele>
        <time>2025-10-23T10:06:01Z</time>
      </trkpt>
      <trkpt lat="43.5973" lon="3.10432">
        <ele>212.573782</ele>
        <time>2025-10-23T10:06:02Z</time>
      </trkpt>
      <trkpt lat="43.59726" lon="3.10439">
        <ele>211.677027</ele>
        <time>2025-10-23T10:06:03Z</time>
      </trkpt>
      <trkpt lat="43.59723" lon="3.10445">
        <ele>210.831239</ele>
        <time>2025-10-23T10:06:04Z</time>
      </trkpt>
      <trkpt lat="43.5972" lon="3.10452">
        <ele>210.051744</ele>
        <time>2025-10-23T10:06:05Z</time>
      </trkpt>
      <trkpt lat="43.59717" lon="3.10458">
        <ele>209.485061</ele>
        <time>2025-10-23T10:06:06Z</time>
      </trkpt>
      <trkpt lat="43.59714" lon="3.10465">
        <ele>209.011095</ele>
        <time>2025-10-23T10:06:07Z</time>
      </trkpt>
      <trkpt lat="43.59712" lon="3.10472">
        <ele>208.540854</ele>
        <time>2025-10-23T10:06:08Z</time>
      </trkpt>
      <trkpt lat="43.59709" lon="3.10479">
        <ele>208.034313</ele>
        <time>2025-10-23T10:06:09Z</time>
      </trkpt>
      <trkpt lat="43.59707" lon="3.10486">
        <ele>207.53633</ele>
        <time>2025-10-23T10:06:10Z</time>
      </trkpt>
      <trkpt lat="43.59705" lon="3.10494">
        <ele>207.037945</ele>
        <time>2025-10-23T10:06:11Z</time>
      </trkpt>
      <trkpt lat="43.59705" lon="3.10502">
        <ele>206.541751</ele>
        <time>2025-10-23T10:06:12Z</time>
      </trkpt>
      <trkpt lat="43.59706" lon="3.1051">
        <ele>206.034149</ele>
        <time>2025-10-23T10:06:13Z</time>
      </trkpt>
      <trkpt lat="43.59708" lon="3.10518">
        <ele>205.511765</ele>
        <time>2025-10-23T10:06:14Z</time>
      </trkpt>
      <trkpt lat="43.59709" lon="3.10526">
        <ele>204.985817</ele>
        <time>2025-10-23T10:06:15Z</time>
      </trkpt>
      <trkpt lat="43.5971" lon="3.10535">
        <ele>204.451484</ele>
        <time>2025-10-23T10:06:16Z</time>
      </trkpt>
      <trkpt lat="43.5971" lon="3.10543">
        <ele>203.900041</ele>
        <time>2025-10-23T10:06:17Z</time>
      </trkpt>
      <trkpt lat="43.59709" lon="3.10552">
        <ele>203.349397</ele>
        <time>2025-10-23T10:06:18Z</time>
      </trkpt>
      <trkpt lat="43.59707" lon="3.10561">
        <ele>202.771508</ele>
        <time>2025-10-23T10:06:19Z</time>
      </trkpt>
      <trkpt lat="43.59704" lon="3.1057">
        <ele>202.158567</ele>
        <time>2025-10-23T10:06:20Z</time>
      </trkpt>
      <trkpt lat="43.597" lon="3.10579">
        <ele>201.498222</ele>
        <time>2025-10-23T10:06:21Z</time>
      </trkpt>
      <trkpt lat="43.59698" lon="3.10588">
        <ele>200.909384</ele>
        <time>2025-10-23T10:06:22Z</time>
      </trkpt>
      <trkpt lat="43.59698" lon="3.10597">
        <ele>200.344416</ele>
        <time>2025-10-23T10:06:23Z</time>
      </trkpt>
      <trkpt lat="43.59698" lon="3.10606">
        <ele>199.779911</ele>
        <time>2025-10-23T10:06:24Z</time>
      </trkpt>
      <trkpt lat="43.59697" lon="3.10615">
        <ele>199.227977</ele>
        <time>2025-10-23T10:06:25Z</time>
      </trkpt>
      <trkpt lat="43.59695" lon="3.10623">
        <ele>198.694009</ele>
        <time>2025-10-23T10:06:26Z</time>
      </trkpt>
      <trkpt lat="43.59695" lon="3.10633">
        <ele>198.084028</ele>
        <time>2025-10-23T10:06:27Z</time>
      </trkpt>
      <trkpt lat="43.59696" lon="3.10642">
        <ele>197.458163</ele>
        <time>2025-10-23T10:06:28Z</time>
      </trkpt>
      <trkpt lat="43.59698" lon="3.10652">
        <ele>196.815306</ele>
        <time>2025-10-23T10:06:29Z</time>
      </trkpt>
      <trkpt lat="43.59701" lon="3.10662">
        <ele>196.170037</ele>
        <time>2025-10-23T10:06:30Z</time>
      </trkpt>
      <trkpt lat="43.59704" lon="3.10671">
        <ele>195.517294</ele>
        <time>2025-10-23T10:06:31Z</time>
      </trkpt>
      <trkpt lat="43.59709" lon="3.1068">
        <ele>194.867377</ele>
        <time>2025-10-23T10:06:32Z</time>
      </trkpt>
      <trkpt lat="43.59714" lon="3.10687">
        <ele>194.287823</ele>
        <time>2025-10-23T10:06:33Z</time>
      </trkpt>
      <trkpt lat="43.59719" lon="3.10693">
        <ele>194.097804</ele>
        <time>2025-10-23T10:06:34Z</time>
      </trkpt>
      <trkpt lat="43.59726" lon="3.10698">
        <ele>193.908209</ele>
        <time>2025-10-23T10:06:35Z</time>
      </trkpt>
      <trkpt lat="43.59732" lon="3.10702">
        <ele>193.725061</ele>
        <time>2025-10-23T10:06:36Z</time>
      </trkpt>
      <trkpt lat="43.59739" lon="3.10706">
        <ele>193.538348</ele>
        <time>2025-10-23T10:06:37Z</time>
      </trkpt>
      <trkpt lat="43.59744" lon="3.10712">
        <ele>193.353896</ele>
        <time>2025-10-23T10:06:38Z</time>
      </trkpt>
      <trkpt lat="43.59749" lon="3.10717">
        <ele>193.181829</ele>
        <time>2025-10-23T10:06:39Z</time>
      </trkpt>
      <trkpt lat="43.59754" lon="3.10723">
        <ele>193.008944</ele>
        <time>2025-10-23T10:06:40Z</time>
      </trkpt>
      <trkpt lat="43.59759" lon="3.10728">
        <ele>192.847002</ele>
        <time>2025-10-23T10:06:41Z</time>
      </trkpt>
      <trkpt lat="43.59763" lon="3.10733">
        <ele>192.711853</ele>
        <time>2025-10-23T10:06:42Z</time>
      </trkpt>
      <trkpt lat="43.59766" lon="3.10737">
        <ele>192.604584</ele>
        <time>2025-10-23T10:06:43Z</time>
      </trkpt>
      <trkpt lat="43.59768" lon="3.1074">
        <ele>192.519312</ele>
        <time>2025-10-23T10:06:44Z</time>
      </trkpt>
      <trkpt lat="43.59769" lon="3.10743">
        <ele>192.466381</ele>
        <time>2025-10-23T10:06:45Z</time>
      </trkpt>
      <trkpt lat="43.59769" lon="3.10745">
        <ele>192.414791</ele>
        <time>2025-10-23T10:06:46Z</time>
      </trkpt>
      <trkpt lat="43.59767" lon="3.10748">
        <ele>192.351424</ele>
        <time>2025-10-23T10:06:47Z</time>
      </trkpt>
      <trkpt lat="43.59765" lon="3.1075">
        <ele>192.263304</ele>
        <time>2025-10-23T10:06:48Z</time>
      </trkpt>
      <trkpt lat="43.59761" lon="3.10753">
        <ele>192.158582</ele>
        <time>2025-10-23T10:06:49Z</time>
      </trkpt>
      <trkpt lat="43.59758" lon="3.10756">
        <ele>192.051226</ele>
        <time>2025-10-23T10:06:50Z</time>
      </trkpt>
      <trkpt lat="43.59754" lon="3.10759">
        <ele>191.940619</ele>
        <time>2025-10-23T10:06:51Z</time>
      </trkpt>
      <trkpt lat="43.59751" lon="3.10763">
        <ele>191.828875</ele>
        <time>2025-10-23T10:06:52Z</time>
      </trkpt>
      <trkpt lat="43.59748" lon="3.10767">
        <ele>191.721605</ele>
        <time>2025-10-23T10:06:53Z</time>
      </trkpt>
      <trkpt lat="43.59745" lon="3.10771">
        <ele>191.622483</ele>
        <time>2025-10-23T10:06:54Z</time>
      </trkpt>
      <trkpt lat="43.59744" lon="3.10775">
        <ele>191.538217</ele>
        <time>2025-10-23T10:06:55Z</time>
      </trkpt>
      <trkpt lat="43.59743" lon="3.10778">
        <ele>191.466532</ele>
        <time>2025-10-23T10:06:56Z</time>
      </trkpt>
      <trkpt lat="43.59742" lon="3.10781">
        <ele>191.401025</ele>
        <time>2025-10-23T10:06:57Z</time>
      </trkpt>
      <trkpt lat="43.59741" lon="3.10785">
        <ele>191.329896</ele>
        <time>2025-10-23T10:06:58Z</time>
      </trkpt>
      <trkpt lat="43.59741" lon="3.10789">
        <ele>191.243381</ele>
        <time>2025-10-23T10:06:59Z</time>
      </trkpt>
      <trkpt lat="43.5974" lon="3.10794">
        <ele>191.14221</ele>
        <time>2025-10-23T10:07:00Z</time>
      </trkpt>
      <trkpt lat="43.59741" lon="3.108">
        <ele>191.033153</ele>
        <time>2025-10-23T10:07:01Z</time>
      </trkpt>
      <trkpt lat="43.59741" lon="3.10807">
        <ele>190.909641</ele>
        <time>2025-10-23T10:07:02Z</time>
      </trkpt>
      <trkpt lat="43.59743" lon="3.10812">
        <ele>190.794764</ele>
        <time>2025-10-23T10:07:03Z</time>
      </trkpt>
      <trkpt lat="43.59746" lon="3.10819">
        <ele>190.651774</ele>
        <time>2025-10-23T10:07:04Z</time>
      </trkpt>
      <trkpt lat="43.59748" lon="3.10825">
        <ele>190.52461</ele>
        <time>2025-10-23T10:07:05Z</time>
      </trkpt>
      <trkpt lat="43.5975" lon="3.10831">
        <ele>190.387082</ele>
        <time>2025-10-23T10:07:06Z</time>
      </trkpt>
      <trkpt lat="43.59752" lon="3.10838">
        <ele>190.249519</ele>
        <time>2025-10-23T10:07:07Z</time>
      </trkpt>
      <trkpt lat="43.59754" lon="3.10845">
        <ele>190.108387</ele>
        <time>2025-10-23T10:07:08Z</time>
      </trkpt>
      <trkpt lat="43.59755" lon="3.10852">
        <ele>189.973566</ele>
        <time>2025-10-23T10:07:09Z</time>
      </trkpt>
      <trkpt lat="43.59755" lon="3.10859">
        <ele>189.837443</ele>
        <time>2025-10-23T10:07:10Z</time>
      </trkpt>
      <trkpt lat="43.59755" lon="3.10866">
        <ele>189.701549</ele>
        <time>2025-10-23T10:07:11Z</time>
      </trkpt>
      <trkpt lat="43.59754" lon="3.10873">
        <ele>189.583268</ele>
        <time>2025-10-23T10:07:12Z</time>
      </trkpt>
      <trkpt lat="43.59751" lon="3.10879">
        <ele>189.628117</ele>
        <time>2025-10-23T10:07:13Z</time>
      </trkpt>
      <trkpt lat="43.59749" lon="3.10886">
        <ele>189.672503</ele>
        <time>2025-10-23T10:07:14Z</time>
      </trkpt>
      <trkpt lat="43.59746" lon="3.10891">
        <ele>189.714184</ele>
        <time>2025-10-23T10:07:15Z</time>
      </trkpt>
      <trkpt lat="43.59742" lon="3.10897">
        <ele>189.756462</ele>
        <time>2025-10-23T10:07:16Z</time>
      </trkpt>
      <trkpt lat="43.59739" lon="3.10901">
        <ele>189.799888</ele>
        <time>2025-10-23T10:07:17Z</time>
      </trkpt>
      <trkpt lat="43.59735" lon="3.10907">
        <ele>189.845169</ele>
        <time>2025-10-23T10:07:18Z</time>
      </trkpt>
      <trkpt lat="43.59731" lon="3.10912">
        <ele>189.889618</ele>
        <time>2025-10-23T10:07:19Z</time>
      </trkpt>
      <trkpt lat="43.59727" lon="3.10917">
        <ele>189.932437</ele>
        <time>2025-10-23T10:07:20Z</time>
      </trkpt>
      <trkpt lat="43.59724" lon="3.10922">
        <ele>189.975515</ele>
        <time>2025-10-23T10:07:21Z</time>
      </trkpt>
      <trkpt lat="43.5972" lon="3.10926">
        <ele>190.017313</ele>
        <time>2025-10-23T10:07:22Z</time>
      </trkpt>
      <trkpt lat="43.59717" lon="3.10931">
        <ele>190.05691</ele>
        <time>2025-10-23T10:07:23Z</time>
      </trkpt>
      <trkpt lat="43.59713" lon="3.10936">
        <ele>190.098111</ele>
        <time>2025-10-23T10:07:24Z</time>
      </trkpt>
      <trkpt lat="43.5971" lon="3.10941">
        <ele>190.138294</ele>
        <time>2025-10-23T10:07:25Z</time>
      </trkpt>
      <trkpt lat="43.59706" lon="3.10946">
        <ele>190.181959</ele>
        <time>2025-10-23T10:07:26Z</time>
      </trkpt>
      <trkpt lat="43.59702" lon="3.10951">
        <ele>190.225473</ele>
        <time>2025-10-23T10:07:27Z</time>
      </trkpt>
      <trkpt lat="43.59699" lon="3.10956">
        <ele>190.270001</ele>
        <time>2025-10-23T10:07:28Z</time>
      </trkpt>
      <trkpt lat="43.59695" lon="3.10961">
        <ele>190.314864</ele>
        <time>2025-10-23T10:07:29Z</time>
      </trkpt>
      <trkpt lat="43.59691" lon="3.10966">
        <ele>190.357512</ele>
        <time>2025-10-23T10:07:30Z</time>
      </trkpt>
      <trkpt lat="43.59688" lon="3.10971">
        <ele>190.400331</ele>
        <time>2025-10-23T10:07:31Z</time>
      </trkpt>
      <trkpt lat="43.59684" lon="3.10976">
        <ele>190.442129</ele>
        <time>2025-10-23T10:07:32Z</time>
      </trkpt>
      <trkpt lat="43.5968" lon="3.10981">
        <ele>190.484349</ele>
        <time>2025-10-23T10:07:33Z</time>
      </trkpt>
      <trkpt lat="43.59677" lon="3.10986">
        <ele>190.526279</ele>
        <time>2025-10-23T10:07:34Z</time>
      </trkpt>
      <trkpt lat="43.59674" lon="3.10991">
        <ele>190.568208</ele>
        <time>2025-10-23T10:07:35Z</time>
      </trkpt>
      <trkpt lat="43.5967" lon="3.10997">
        <ele>190.614338</ele>
        <time>2025-10-23T10:07:36Z</time>
      </trkpt>
      <trkpt lat="43.59666" lon="3.11002">
        <ele>190.657579</ele>
        <time>2025-10-23T10:07:37Z</time>
      </trkpt>
      <trkpt lat="43.59662" lon="3.11006">
        <ele>190.699799</ele>
        <time>2025-10-23T10:07:38Z</time>
      </trkpt>
      <trkpt lat="43.59659" lon="3.11011">
        <ele>190.740358</ele>
        <time>2025-10-23T10:07:39Z</time>
      </trkpt>
      <trkpt lat="43.59655" lon="3.11015">
        <ele>190.780301</ele>
        <time>2025-10-23T10:07:40Z</time>
      </trkpt>
      <trkpt lat="43.59652" lon="3.1102">
        <ele>190.818309</ele>
        <time>2025-10-23T10:07:41Z</time>
      </trkpt>
      <trkpt lat="43.59649" lon="3.11025">
        <ele>190.854196</ele>
        <time>2025-10-23T10:07:42Z</time>
      </trkpt>
      <trkpt lat="43.59646" lon="3.11029">
        <ele>190.892091</ele>
        <time>2025-10-23T10:07:43Z</time>
      </trkpt>
      <trkpt lat="43.59643" lon="3.11034">
        <ele>190.931554</ele>
        <time>2025-10-23T10:07:44Z</time>
      </trkpt>
      <trkpt lat="43.5964" lon="3.11039">
        <ele>190.970136</ele>
        <time>2025-10-23T10:07:45Z</time>
      </trkpt>
      <trkpt lat="43.59637" lon="3.11043">
        <ele>191.008589</ele>
        <time>2025-10-23T10:07:46Z</time>
      </trkpt>
      <trkpt lat="43.59633" lon="3.11048">
        <ele>191.050219</ele>
        <time>2025-10-23T10:07:47Z</time>
      </trkpt>
      <trkpt lat="43.5963" lon="3.11053">
        <ele>191.070764</ele>
        <time>2025-10-23T10:07:48Z</time>
      </trkpt>
      <trkpt lat="43.59626" lon="3.11058">
        <ele>191.031079</ele>
        <time>2025-10-23T10:07:49Z</time>
      </trkpt>
      <trkpt lat="43.59622" lon="3.11063">
        <ele>190.992142</ele>
        <time>2025-10-23T10:07:50Z</time>
      </trkpt>
      <trkpt lat="43.59618" lon="3.11068">
        <ele>190.952833</ele>
        <time>2025-10-23T10:07:51Z</time>
      </trkpt>
      <trkpt lat="43.59615" lon="3.11073">
        <ele>190.915376</ele>
        <time>2025-10-23T10:07:52Z</time>
      </trkpt>
      <trkpt lat="43.59611" lon="3.11078">
        <ele>190.876067</ele>
        <time>2025-10-23T10:07:53Z</time>
      </trkpt>
      <trkpt lat="43.59607" lon="3.11083">
        <ele>190.837993</ele>
        <time>2025-10-23T10:07:54Z</time>
      </trkpt>
      <trkpt lat="43.59604" lon="3.11087">
        <ele>190.79961</ele>
        <time>2025-10-23T10:07:55Z</time>
      </trkpt>
      <trkpt lat="43.596" lon="3.11092">
        <ele>190.760615</ele>
        <time>2025-10-23T10:07:56Z</time>
      </trkpt>
      <trkpt lat="43.59596" lon="3.11098">
        <ele>190.720168</ele>
        <time>2025-10-23T10:07:57Z</time>
      </trkpt>
      <trkpt lat="43.59592" lon="3.11103">
        <ele>190.678632</ele>
        <time>2025-10-23T10:07:58Z</time>
      </trkpt>
      <trkpt lat="43.59589" lon="3.11108">
        <ele>190.638325</ele>
        <time>2025-10-23T10:07:59Z</time>
      </trkpt>
      <trkpt lat="43.59585" lon="3.11114">
        <ele>190.597326</ele>
        <time>2025-10-23T10:08:00Z</time>
      </trkpt>
      <trkpt lat="43.59581" lon="3.11119">
        <ele>190.557019</ele>
        <time>2025-10-23T10:08:01Z</time>
      </trkpt>
      <trkpt lat="43.59578" lon="3.11124">
        <ele>190.516316</ele>
        <time>2025-10-23T10:08:02Z</time>
      </trkpt>
      <trkpt lat="43.59574" lon="3.1113">
        <ele>190.47653</ele>
        <time>2025-10-23T10:08:03Z</time>
      </trkpt>
      <trkpt lat="43.5957" lon="3.11135">
        <ele>190.435531</ele>
        <time>2025-10-23T10:08:04Z</time>
      </trkpt>
      <trkpt lat="43.59567" lon="3.11141">
        <ele>190.393289</ele>
        <time>2025-10-23T10:08:05Z</time>
      </trkpt>
      <trkpt lat="43.59563" lon="3.11147">
        <ele>190.348816</ele>
        <time>2025-10-23T10:08:06Z</time>
      </trkpt>
      <trkpt lat="43.59559" lon="3.11154">
        <ele>190.303502</ele>
        <time>2025-10-23T10:08:07Z</time>
      </trkpt>
      <trkpt lat="43.59555" lon="3.1116">
        <ele>190.257628</ele>
        <time>2025-10-23T10:08:08Z</time>
      </trkpt>
      <trkpt lat="43.59551" lon="3.11166">
        <ele>190.210624</ele>
        <time>2025-10-23T10:08:09Z</time>
      </trkpt>
      <trkpt lat="43.59546" lon="3.11173">
        <ele>190.159551</ele>
        <time>2025-10-23T10:08:10Z</time>
      </trkpt>
      <trkpt lat="43.59541" lon="3.1118">
        <ele>190.104933</ele>
        <time>2025-10-23T10:08:11Z</time>
      </trkpt>
      <trkpt lat="43.59536" lon="3.11187">
        <ele>190.053561</ele>
        <time>2025-10-23T10:08:12Z</time>
      </trkpt>
      <trkpt lat="43.59531" lon="3.11193">
        <ele>190.002386</ele>
        <time>2025-10-23T10:08:13Z</time>
      </trkpt>
      <trkpt lat="43.59527" lon="3.11199">
        <ele>189.953242</ele>
        <time>2025-10-23T10:08:14Z</time>
      </trkpt>
      <trkpt lat="43.59522" lon="3.11205">
        <ele>189.907595</ele>
        <time>2025-10-23T10:08:15Z</time>
      </trkpt>
      <trkpt lat="43.59518" lon="3.11209">
        <ele>189.866803</ele>
        <time>2025-10-23T10:08:16Z</time>
      </trkpt>
      <trkpt lat="43.59514" lon="3.11214">
        <ele>189.829161</ele>
        <time>2025-10-23T10:08:17Z</time>
      </trkpt>
      <trkpt lat="43.59511" lon="3.11218">
        <ele>189.793173</ele>
        <time>2025-10-23T10:08:18Z</time>
      </trkpt>
      <trkpt lat="43.59507" lon="3.11223">
        <ele>189.759414</ele>
        <time>2025-10-23T10:08:19Z</time>
      </trkpt>
      <trkpt lat="43.59504" lon="3.11227">
        <ele>189.726722</ele>
        <time>2025-10-23T10:08:20Z</time>
      </trkpt>
      <trkpt lat="43.59501" lon="3.11231">
        <ele>189.613448</ele>
        <time>2025-10-23T10:08:21Z</time>
      </trkpt>
      <trkpt lat="43.59498" lon="3.11235">
        <ele>189.478865</ele>
        <time>2025-10-23T10:08:22Z</time>
      </trkpt>
      <trkpt lat="43.59495" lon="3.1124">
        <ele>189.349556</ele>
        <time>2025-10-23T10:08:23Z</time>
      </trkpt>
      <trkpt lat="43.59492" lon="3.11244">
        <ele>189.213443</ele>
        <time>2025-10-23T10:08:24Z</time>
      </trkpt>
      <trkpt lat="43.59489" lon="3.11248">
        <ele>189.076332</ele>
        <time>2025-10-23T10:08:25Z</time>
      </trkpt>
      <trkpt lat="43.59486" lon="3.11253">
        <ele>188.934951</ele>
        <time>2025-10-23T10:08:26Z</time>
      </trkpt>
      <trkpt lat="43.59482" lon="3.11257">
        <ele>188.789169</ele>
        <time>2025-10-23T10:08:27Z</time>
      </trkpt>
      <trkpt lat="43.59479" lon="3.11262">
        <ele>188.642614</ele>
        <time>2025-10-23T10:08:28Z</time>
      </trkpt>
      <trkpt lat="43.59475" lon="3.11267">
        <ele>188.495306</ele>
        <time>2025-10-23T10:08:29Z</time>
      </trkpt>
      <trkpt lat="43.59472" lon="3.11271">
        <ele>188.345004</ele>
        <time>2025-10-23T10:08:30Z</time>
      </trkpt>
      <trkpt lat="43.59469" lon="3.11276">
        <ele>188.199343</ele>
        <time>2025-10-23T10:08:31Z</time>
      </trkpt>
      <trkpt lat="43.59466" lon="3.11282">
        <ele>188.047289</ele>
        <time>2025-10-23T10:08:32Z</time>
      </trkpt>
      <trkpt lat="43.59462" lon="3.11287">
        <ele>187.884287</ele>
        <time>2025-10-23T10:08:33Z</time>
      </trkpt>
      <trkpt lat="43.59458" lon="3.11291">
        <ele>187.720872</ele>
        <time>2025-10-23T10:08:34Z</time>
      </trkpt>
      <trkpt lat="43.59454" lon="3.11296">
        <ele>187.571107</ele>
        <time>2025-10-23T10:08:35Z</time>
      </trkpt>
      <trkpt lat="43.59451" lon="3.113">
        <ele>187.430764</ele>
        <time>2025-10-23T10:08:36Z</time>
      </trkpt>
      <trkpt lat="43.59448" lon="3.11303">
        <ele>187.329798</ele>
        <time>2025-10-23T10:08:37Z</time>
      </trkpt>
      <trkpt lat="43.59446" lon="3.11305">
        <ele>187.246706</ele>
        <time>2025-10-23T10:08:38Z</time>
      </trkpt>
      <trkpt lat="43.59443" lon="3.11304">
        <ele>187.167951</ele>
        <time>2025-10-23T10:08:39Z</time>
      </trkpt>
      <trkpt lat="43.59441" lon="3.11301">
        <ele>187.078547</ele>
        <time>2025-10-23T10:08:40Z</time>
      </trkpt>
      <trkpt lat="43.59441" lon="3.11297">
        <ele>186.995453</ele>
        <time>2025-10-23T10:08:41Z</time>
      </trkpt>
      <trkpt lat="43.5944" lon="3.11292">
        <ele>186.870751</ele>
        <time>2025-10-23T10:08:42Z</time>
      </trkpt>
      <trkpt lat="43.59439" lon="3.11285">
        <ele>186.72828</ele>
        <time>2025-10-23T10:08:43Z</time>
      </trkpt>
      <trkpt lat="43.59438" lon="3.11279">
        <ele>186.589498</ele>
        <time>2025-10-23T10:08:44Z</time>
      </trkpt>
      <trkpt lat="43.59437" lon="3.11273">
        <ele>186.46286</ele>
        <time>2025-10-23T10:08:45Z</time>
      </trkpt>
      <trkpt lat="43.59437" lon="3.11268">
        <ele>186.352307</ele>
        <time>2025-10-23T10:08:46Z</time>
      </trkpt>
      <trkpt lat="43.59436" lon="3.11263">
        <ele>186.237104</ele>
        <time>2025-10-23T10:08:47Z</time>
      </trkpt>
      <trkpt lat="43.59436" lon="3.11259">
        <ele>186.141733</ele>
        <time>2025-10-23T10:08:48Z</time>
      </trkpt>
      <trkpt lat="43.59437" lon="3.11255">
        <ele>186.051551</ele>
        <time>2025-10-23T10:08:49Z</time>
      </trkpt>
      <trkpt lat="43.59438" lon="3.11252">
        <ele>185.966671</ele>
        <time>2025-10-23T10:08:50Z</time>
      </trkpt>
      <trkpt lat="43.5944" lon="3.11249">
        <ele>185.888723</ele>
        <time>2025-10-23T10:08:51Z</time>
      </trkpt>
      <trkpt lat="43.59443" lon="3.11251">
        <ele>185.799159</ele>
        <time>2025-10-23T10:08:52Z</time>
      </trkpt>
      <trkpt lat="43.59445" lon="3.11254">
        <ele>185.716908</ele>
        <time>2025-10-23T10:08:53Z</time>
      </trkpt>
      <trkpt lat="43.59446" lon="3.11257">
        <ele>185.63906</ele>
        <time>2025-10-23T10:08:54Z</time>
      </trkpt>
      <trkpt lat="43.59447" lon="3.11261">
        <ele>185.542268</ele>
        <time>2025-10-23T10:08:55Z</time>
      </trkpt>
      <trkpt lat="43.59448" lon="3.11265">
        <ele>185.446684</ele>
        <time>2025-10-23T10:08:56Z</time>
      </trkpt>
      <trkpt lat="43.59449" lon="3.11269">
        <ele>185.354213</ele>
        <time>2025-10-23T10:08:57Z</time>
      </trkpt>
      <trkpt lat="43.5945" lon="3.11273">
        <ele>185.260089</ele>
        <time>2025-10-23T10:08:58Z</time>
      </trkpt>
      <trkpt lat="43.59452" lon="3.11276">
        <ele>185.179435</ele>
        <time>2025-10-23T10:08:59Z</time>
      </trkpt>
      <trkpt lat="43.59454" lon="3.11277">
        <ele>185.110615</ele>
        <time>2025-10-23T10:09:00Z</time>
      </trkpt>
      <trkpt lat="43.59456" lon="3.11275">
        <ele>185.040376</ele>
        <time>2025-10-23T10:09:01Z</time>
      </trkpt>
      <trkpt lat="43.59458" lon="3.11273">
        <ele>184.9651</ele>
        <time>2025-10-23T10:09:02Z</time>
      </trkpt>
      <trkpt lat="43.5946" lon="3.11272">
        <ele>184.893776</ele>
        <time>2025-10-23T10:09:03Z</time>
      </trkpt>
      <trkpt lat="43.59463" lon="3.1127">
        <ele>184.801956</ele>
        <time>2025-10-23T10:09:04Z</time>
      </trkpt>
      <trkpt lat="43.59465" lon="3.11269">
        <ele>184.734929</ele>
        <time>2025-10-23T10:09:05Z</time>
      </trkpt>
      <trkpt lat="43.59467" lon="3.11268">
        <ele>184.671457</ele>
        <time>2025-10-23T10:09:06Z</time>
      </trkpt>
      <trkpt lat="43.59469" lon="3.11267">
        <ele>184.60474</ele>
        <time>2025-10-23T10:09:07Z</time>
      </trkpt>
      <trkpt lat="43.59471" lon="3.11265">
        <ele>184.529465</ele>
        <time>2025-10-23T10:09:08Z</time>
      </trkpt>
      <trkpt lat="43.59473" lon="3.11263">
        <ele>184.457953</ele>
        <time>2025-10-23T10:09:09Z</time>
      </trkpt>
      <trkpt lat="43.59474" lon="3.11261">
        <ele>184.402555</ele>
        <time>2025-10-23T10:09:10Z</time>
      </trkpt>
      <trkpt lat="43.59476" lon="3.11259">
        <ele>184.339643</ele>
        <time>2025-10-23T10:09:11Z</time>
      </trkpt>
      <trkpt lat="43.59477" lon="3.11258">
        <ele>184.288</ele>
        <time>2025-10-23T10:09:12Z</time>
      </trkpt>
      <trkpt lat="43.59478" lon="3.11257">
        <ele>184.240332</ele>
        <time>2025-10-23T10:09:13Z</time>
      </trkpt>
      <trkpt lat="43.59479" lon="3.11257">
        <ele>184.227397</ele>
        <time>2025-10-23T10:09:14Z</time>
      </trkpt>
      <trkpt lat="43.5948" lon="3.11257">
        <ele>184.215777</ele>
        <time>2025-10-23T10:09:15Z</time>
      </trkpt>
      <trkpt lat="43.59481" lon="3.11258">
        <ele>184.203879</ele>
        <time>2025-10-23T10:09:16Z</time>
      </trkpt>
      <trkpt lat="43.59481" lon="3.1126">
        <ele>184.191134</ele>
        <time>2025-10-23T10:09:17Z</time>
      </trkpt>
      <trkpt lat="43.59482" lon="3.11261">
        <ele>184.180938</ele>
        <time>2025-10-23T10:09:18Z</time>
      </trkpt>
      <trkpt lat="43.59482" lon="3.11262">
        <ele>184.170204</ele>
        <time>2025-10-23T10:09:19Z</time>
      </trkpt>
      <trkpt lat="43.59483" lon="3.11263">
        <ele>184.158901</ele>
        <time>2025-10-23T10:09:20Z</time>
      </trkpt>
      <trkpt lat="43.59483" lon="3.11263">
        <ele>184.15627</ele>
        <time>2025-10-23T10:09:21Z</time>
      </trkpt>
      <trkpt lat="43.59484" lon="3.11264">
        <ele>184.150642</ele>
        <time>2025-10-23T10:09:22Z</time>
      </trkpt>
      <trkpt lat="43.59483" lon="3.11264">
        <ele>184.146891</ele>
        <time>2025-10-23T10:09:23Z</time>
      </trkpt>
      <trkpt lat="43.59484" lon="3.11264">
        <ele>184.145825</ele>
        <time>2025-10-23T10:09:24Z</time>
      </trkpt>
      <trkpt lat="43.59484" lon="3.11265">
        <ele>184.138014</ele>
        <time>2025-10-23T10:09:25Z</time>
      </trkpt>
      <trkpt lat="43.59485" lon="3.11265">
        <ele>184.127937</ele>
        <time>2025-10-23T10:09:26Z</time>
      </trkpt>
      <trkpt lat="43.59486" lon="3.11266">
        <ele>184.120042</ele>
        <time>2025-10-23T10:09:27Z</time>
      </trkpt>
      <trkpt lat="43.59486" lon="3.11266">
        <ele>184.11529</ele>
        <time>2025-10-23T10:09:28Z</time>
      </trkpt>
      <trkpt lat="43.59487" lon="3.11268">
        <ele>184.102787</ele>
        <time>2025-10-23T10:09:29Z</time>
      </trkpt>
      <trkpt lat="43.59487" lon="3.11268">
        <ele>184.097384</ele>
        <time>2025-10-23T10:09:30Z</time>
      </trkpt>
      <trkpt lat="43.59487" lon="3.11269">
        <ele>184.093834</ele>
        <time>2025-10-23T10:09:31Z</time>
      </trkpt>
      <trkpt lat="43.59487" lon="3.11269">
        <ele>184.089974</ele>
        <time>2025-10-23T10:09:32Z</time>
      </trkpt>
      <trkpt lat="43.59487" lon="3.11269">
        <ele>184.082874</ele>
        <time>2025-10-23T10:09:33Z</time>
      </trkpt>
      <trkpt lat="43.59488" lon="3.1127">
        <ele>184.077326</ele>
        <time>2025-10-23T10:09:34Z</time>
      </trkpt>
      <trkpt lat="43.59489" lon="3.1127">
        <ele>184.069708</ele>
        <time>2025-10-23T10:09:35Z</time>
      </trkpt>
      <trkpt lat="43.59489" lon="3.1127">
        <ele>184.063267</ele>
        <time>2025-10-23T10:09:36Z</time>
      </trkpt>
      <trkpt lat="43.59491" lon="3.11269">
        <ele>184.047645</ele>
        <time>2025-10-23T10:09:37Z</time>
      </trkpt>
      <trkpt lat="43.59491" lon="3.11269">
        <ele>184.040176</ele>
        <time>2025-10-23T10:09:38Z</time>
      </trkpt>
      <trkpt lat="43.59493" lon="3.11268">
        <ele>184.023039</ele>
        <time>2025-10-23T10:09:39Z</time>
      </trkpt>
      <trkpt lat="43.59493" lon="3.11267">
        <ele>184.017289</ele>
        <time>2025-10-23T10:09:40Z</time>
      </trkpt>
      <trkpt lat="43.59493" lon="3.11267">
        <ele>184.015745</ele>
        <time>2025-10-23T10:09:41Z</time>
      </trkpt>
      <trkpt lat="43.59493" lon="3.11267">
        <ele>184.013113</ele>
        <time>2025-10-23T10:09:42Z</time>
      </trkpt>
      <trkpt lat="43.59493" lon="3.11267">
        <ele>184.010982</ele>
        <time>2025-10-23T10:09:43Z</time>
      </trkpt>
      <trkpt lat="43.59493" lon="3.11267">
        <ele>184.009916</ele>
        <time>2025-10-23T10:09:44Z</time>
      </trkpt>
      <trkpt lat="43.59491" lon="3.11268">
        <ele>183.993042</ele>
        <time>2025-10-23T10:09:45Z</time>
      </trkpt>
      <trkpt lat="43.5949" lon="3.11269">
        <ele>183.978404</ele>
        <time>2025-10-23T10:09:46Z</time>
      </trkpt>
      <trkpt lat="43.59487" lon="3.1127">
        <ele>183.941832</ele>
        <time>2025-10-23T10:09:47Z</time>
      </trkpt>
      <trkpt lat="43.59486" lon="3.11271">
        <ele>183.929022</ele>
        <time>2025-10-23T10:09:48Z</time>
      </trkpt>
      <trkpt lat="43.59486" lon="3.11273">
        <ele>183.918492</ele>
        <time>2025-10-23T10:09:49Z</time>
      </trkpt>
      <trkpt lat="43.59486" lon="3.11275">
        <ele>183.896464</ele>
        <time>2025-10-23T10:09:50Z</time>
      </trkpt>
      <trkpt lat="43.59486" lon="3.11279">
        <ele>183.872324</ele>
        <time>2025-10-23T10:09:51Z</time>
      </trkpt>
      <trkpt lat="43.59486" lon="3.11283">
        <ele>183.838346</ele>
        <time>2025-10-23T10:09:52Z</time>
      </trkpt>
      <trkpt lat="43.59487" lon="3.11287">
        <ele>183.802314</ele>
        <time>2025-10-23T10:09:53Z</time>
      </trkpt>
      <trkpt lat="43.59489" lon="3.11292">
        <ele>183.766169</ele>
        <time>2025-10-23T10:09:54Z</time>
      </trkpt>
      <trkpt lat="43.5949" lon="3.11296">
        <ele>183.731698</ele>
        <time>2025-10-23T10:09:55Z</time>
      </trkpt>
      <trkpt lat="43.59492" lon="3.113">
        <ele>183.694181</ele>
        <time>2025-10-23T10:09:56Z</time>
      </trkpt>
      <trkpt lat="43.59494" lon="3.11304">
        <ele>183.653308</ele>
        <time>2025-10-23T10:09:57Z</time>
      </trkpt>
      <trkpt lat="43.59496" lon="3.1131">
        <ele>183.609042</ele>
        <time>2025-10-23T10:09:58Z</time>
      </trkpt>
      <trkpt lat="43.59497" lon="3.11314">
        <ele>183.568006</ele>
        <time>2025-10-23T10:09:59Z</time>
      </trkpt>
      <trkpt lat="43.59499" lon="3.11319">
        <ele>183.526595</ele>
        <time>2025-10-23T10:10:00Z</time>
      </trkpt>
      <trkpt lat="43.59501" lon="3.11324">
        <ele>183.482987</ele>
        <time>2025-10-23T10:10:01Z</time>
      </trkpt>
      <trkpt lat="43.59503" lon="3.11329">
        <ele>183.438952</ele>
        <time>2025-10-23T10:10:02Z</time>
      </trkpt>
      <trkpt lat="43.59505" lon="3.11335">
        <ele>183.390066</ele>
        <time>2025-10-23T10:10:03Z</time>
      </trkpt>
      <trkpt lat="43.59507" lon="3.1134">
        <ele>183.340599</ele>
        <time>2025-10-23T10:10:04Z</time>
      </trkpt>
      <trkpt lat="43.59509" lon="3.11346">
        <ele>183.290151</ele>
        <time>2025-10-23T10:10:05Z</time>
      </trkpt>
      <trkpt lat="43.5951" lon="3.11352">
        <ele>183.242616</ele>
        <time>2025-10-23T10:10:06Z</time>
      </trkpt>
      <trkpt lat="43.59512" lon="3.11358">
        <ele>183.195081</ele>
        <time>2025-10-23T10:10:07Z</time>
      </trkpt>
      <trkpt lat="43.59513" lon="3.11364">
        <ele>183.146819</ele>
        <time>2025-10-23T10:10:08Z</time>
      </trkpt>
      <trkpt lat="43.59514" lon="3.1137">
        <ele>183.099048</ele>
        <time>2025-10-23T10:10:09Z</time>
      </trkpt>
      <trkpt lat="43.59516" lon="3.11376">
        <ele>183.048185</ele>
        <time>2025-10-23T10:10:10Z</time>
      </trkpt>
      <trkpt lat="43.59517" lon="3.11382">
        <ele>182.998059</ele>
        <time>2025-10-23T10:10:11Z</time>
      </trkpt>
      <trkpt lat="43.59519" lon="3.11389">
        <ele>182.947606</ele>
        <time>2025-10-23T10:10:12Z</time>
      </trkpt>
      <trkpt lat="43.5952" lon="3.11395">
        <ele>182.898257</ele>
        <time>2025-10-23T10:10:13Z</time>
      </trkpt>
      <trkpt lat="43.59522" lon="3.11401">
        <ele>182.847977</ele>
        <time>2025-10-23T10:10:14Z</time>
      </trkpt>
      <trkpt lat="43.59523" lon="3.11407">
        <ele>182.798899</ele>
        <time>2025-10-23T10:10:15Z</time>
      </trkpt>
      <trkpt lat="43.59524" lon="3.11413">
        <ele>182.749366</ele>
        <time>2025-10-23T10:10:16Z</time>
      </trkpt>
      <trkpt lat="43.59525" lon="3.1142">
        <ele>182.698597</ele>
        <time>2025-10-23T10:10:17Z</time>
      </trkpt>
      <trkpt lat="43.59526" lon="3.11426">
        <ele>182.644819</ele>
        <time>2025-10-23T10:10:18Z</time>
      </trkpt>
      <trkpt lat="43.59527" lon="3.11433">
        <ele>182.592547</ele>
        <time>2025-10-23T10:10:19Z</time>
      </trkpt>
      <trkpt lat="43.59528" lon="3.1144">
        <ele>182.541258</ele>
        <time>2025-10-23T10:10:20Z</time>
      </trkpt>
      <trkpt lat="43.5953" lon="3.11446">
        <ele>182.491725</ele>
        <time>2025-10-23T10:10:21Z</time>
      </trkpt>
      <trkpt lat="43.59531" lon="3.11452">
        <ele>182.444126</ele>
        <time>2025-10-23T10:10:22Z</time>
      </trkpt>
      <trkpt lat="43.59532" lon="3.11457">
        <ele>182.397265</ele>
        <time>2025-10-23T10:10:23Z</time>
      </trkpt>
      <trkpt lat="43.59533" lon="3.11463">
        <ele>182.349495</ele>
        <time>2025-10-23T10:10:24Z</time>
      </trkpt>
      <trkpt lat="43.59534" lon="3.11469">
        <ele>182.32105</ele>
        <time>2025-10-23T10:10:25Z</time>
      </trkpt>
      <trkpt lat="43.59535" lon="3.11476">
        <ele>182.319316</ele>
        <time>2025-10-23T10:10:26Z</time>
      </trkpt>
      <trkpt lat="43.59536" lon="3.11482">
        <ele>182.31753</ele>
        <time>2025-10-23T10:10:27Z</time>
      </trkpt>
      <trkpt lat="43.59538" lon="3.11489">
        <ele>182.315762</ele>
        <time>2025-10-23T10:10:28Z</time>
      </trkpt>
      <trkpt lat="43.59539" lon="3.11495">
        <ele>182.313924</ele>
        <time>2025-10-23T10:10:29Z</time>
      </trkpt>
      <trkpt lat="43.5954" lon="3.11502">
        <ele>182.312085</ele>
        <time>2025-10-23T10:10:30Z</time>
      </trkpt>
      <trkpt lat="43.59541" lon="3.11508">
        <ele>182.310309</ele>
        <time>2025-10-23T10:10:31Z</time>
      </trkpt>
      <trkpt lat="43.59543" lon="3.11515">
        <ele>182.308512</ele>
        <time>2025-10-23T10:10:32Z</time>
      </trkpt>
      <trkpt lat="43.59544" lon="3.11521">
        <ele>182.306692</ele>
        <time>2025-10-23T10:10:33Z</time>
      </trkpt>
      <trkpt lat="43.59546" lon="3.11528">
        <ele>182.304784</ele>
        <time>2025-10-23T10:10:34Z</time>
      </trkpt>
      <trkpt lat="43.59548" lon="3.11534">
        <ele>182.302949</ele>
        <time>2025-10-23T10:10:35Z</time>
      </trkpt>
      <trkpt lat="43.5955" lon="3.1154">
        <ele>182.301189</ele>
        <time>2025-10-23T10:10:36Z</time>
      </trkpt>
      <trkpt lat="43.59551" lon="3.11546">
        <ele>182.299483</ele>
        <time>2025-10-23T10:10:37Z</time>
      </trkpt>
      <trkpt lat="43.59553" lon="3.11552">
        <ele>182.297852</ele>
        <time>2025-10-23T10:10:38Z</time>
      </trkpt>
      <trkpt lat="43.59554" lon="3.11557">
        <ele>182.296385</ele>
        <time>2025-10-23T10:10:39Z</time>
      </trkpt>
      <trkpt lat="43.59555" lon="3.11562">
        <ele>182.295032</ele>
        <time>2025-10-23T10:10:40Z</time>
      </trkpt>
      <trkpt lat="43.59557" lon="3.11565">
        <ele>182.293872</ele>
        <time>2025-10-23T10:10:41Z</time>
      </trkpt>
      <trkpt lat="43.59559" lon="3.11567">
        <ele>182.293025</ele>
        <time>2025-10-23T10:10:42Z</time>
      </trkpt>
      <trkpt lat="43.59559" lon="3.11569">
        <ele>182.292354</ele>
        <time>2025-10-23T10:10:43Z</time>
      </trkpt>
      <trkpt lat="43.59559" lon="3.11572">
        <ele>182.291605</ele>
        <time>2025-10-23T10:10:44Z</time>
      </trkpt>
      <trkpt lat="43.59558" lon="3.11574">
        <ele>182.290998</ele>
        <time>2025-10-23T10:10:45Z</time>
      </trkpt>
      <trkpt lat="43.59558" lon="3.11577">
        <ele>182.290165</ele>
        <time>2025-10-23T10:10:46Z</time>
      </trkpt>
      <trkpt lat="43.59559" lon="3.11581">
        <ele>182.289189</ele>
        <time>2025-10-23T10:10:47Z</time>
      </trkpt>
      <trkpt lat="43.5956" lon="3.11584">
        <ele>182.288132</ele>
        <time>2025-10-23T10:10:48Z</time>
      </trkpt>
      <trkpt lat="43.59562" lon="3.11588">
        <ele>182.286921</ele>
        <time>2025-10-23T10:10:49Z</time>
      </trkpt>
      <trkpt lat="43.59562" lon="3.11592">
        <ele>182.28585</ele>
        <time>2025-10-23T10:10:50Z</time>
      </trkpt>
      <trkpt lat="43.59562" lon="3.11596">
        <ele>182.284897</ele>
        <time>2025-10-23T10:10:51Z</time>
      </trkpt>
      <trkpt lat="43.59561" lon="3.11599">
        <ele>182.283899</ele>
        <time>2025-10-23T10:10:52Z</time>
      </trkpt>
      <trkpt lat="43.59561" lon="3.11604">
        <ele>182.282716</ele>
        <time>2025-10-23T10:10:53Z</time>
      </trkpt>
      <trkpt lat="43.59562" lon="3.11608">
        <ele>182.281461</ele>
        <time>2025-10-23T10:10:54Z</time>
      </trkpt>
      <trkpt lat="43.59563" lon="3.11613">
        <ele>182.280041</ele>
        <time>2025-10-23T10:10:55Z</time>
      </trkpt>
      <trkpt lat="43.59564" lon="3.11619">
        <ele>182.278461</ele>
        <time>2025-10-23T10:10:56Z</time>
      </trkpt>
      <trkpt lat="43.59565" lon="3.11625">
        <ele>182.276761</ele>
        <time>2025-10-23T10:10:57Z</time>
      </trkpt>
      <trkpt lat="43.59565" lon="3.11632">
        <ele>182.275026</ele>
        <time>2025-10-23T10:10:58Z</time>
      </trkpt>
      <trkpt lat="43.59566" lon="3.11638">
        <ele>182.273254</ele>
        <time>2025-10-23T10:10:59Z</time>
      </trkpt>
      <trkpt lat="43.59567" lon="3.11645">
        <ele>182.271493</ele>
        <time>2025-10-23T10:11:00Z</time>
      </trkpt>
      <trkpt lat="43.59567" lon="3.11651">
        <ele>182.269732</ele>
        <time>2025-10-23T10:11:01Z</time>
      </trkpt>
      <trkpt lat="43.59568" lon="3.11658">
        <ele>182.267939</ele>
        <time>2025-10-23T10:11:02Z</time>
      </trkpt>
      <trkpt lat="43.59569" lon="3.11664">
        <ele>182.266114</ele>
        <time>2025-10-23T10:11:03Z</time>
      </trkpt>
      <trkpt lat="43.5957" lon="3.11671">
        <ele>182.264309</ele>
        <time>2025-10-23T10:11:04Z</time>
      </trkpt>
      <trkpt lat="43.5957" lon="3.11678">
        <ele>182.262472</ele>
        <time>2025-10-23T10:11:05Z</time>
      </trkpt>
      <trkpt lat="43.59571" lon="3.11684">
        <ele>182.260684</ele>
        <time>2025-10-23T10:11:06Z</time>
      </trkpt>
      <trkpt lat="43.59571" lon="3.11691">
        <ele>182.258896</ele>
        <time>2025-10-23T10:11:07Z</time>
      </trkpt>
      <trkpt lat="43.59572" lon="3.11698">
        <ele>182.257059</ele>
        <time>2025-10-23T10:11:08Z</time>
      </trkpt>
      <trkpt lat="43.59572" lon="3.11705">
        <ele>182.255252</ele>
        <time>2025-10-23T10:11:09Z</time>
      </trkpt>
      <trkpt lat="43.59573" lon="3.11711">
        <ele>182.170624</ele>
        <time>2025-10-23T10:11:10Z</time>
      </trkpt>
      <trkpt lat="43.59573" lon="3.11718">
        <ele>182.07114</ele>
        <time>2025-10-23T10:11:11Z</time>
      </trkpt>
      <trkpt lat="43.59573" lon="3.11725">
        <ele>181.970177</ele>
        <time>2025-10-23T10:11:12Z</time>
      </trkpt>
      <trkpt lat="43.59574" lon="3.11732">
        <ele>181.864241</ele>
        <time>2025-10-23T10:11:13Z</time>
      </trkpt>
      <trkpt lat="43.59574" lon="3.11739">
        <ele>181.759997</ele>
        <time>2025-10-23T10:11:14Z</time>
      </trkpt>
      <trkpt lat="43.59575" lon="3.11746">
        <ele>181.658207</ele>
        <time>2025-10-23T10:11:15Z</time>
      </trkpt>
      <trkpt lat="43.59576" lon="3.11752">
        <ele>181.554647</ele>
        <time>2025-10-23T10:11:16Z</time>
      </trkpt>
      <trkpt lat="43.59577" lon="3.11759">
        <ele>181.455474</ele>
        <time>2025-10-23T10:11:17Z</time>
      </trkpt>
      <trkpt lat="43.59577" lon="3.11766">
        <ele>181.358602</ele>
        <time>2025-10-23T10:11:18Z</time>
      </trkpt>
      <trkpt lat="43.59578" lon="3.11772">
        <ele>181.264877</ele>
        <time>2025-10-23T10:11:19Z</time>
      </trkpt>
      <trkpt lat="43.59578" lon="3.11778">
        <ele>181.173898</ele>
        <time>2025-10-23T10:11:20Z</time>
      </trkpt>
      <trkpt lat="43.59578" lon="3.11783">
        <ele>181.094926</ele>
        <time>2025-10-23T10:11:21Z</time>
      </trkpt>
      <trkpt lat="43.59579" lon="3.11787">
        <ele>181.034388</ele>
        <time>2025-10-23T10:11:22Z</time>
      </trkpt>
      <trkpt lat="43.59579" lon="3.11789">
        <ele>181.010698</ele>
        <time>2025-10-23T10:11:23Z</time>
      </trkpt>
      <trkpt lat="43.59579" lon="3.11789">
        <ele>181.00238</ele>
        <time>2025-10-23T10:11:24Z</time>
      </trkpt>
      <trkpt lat="43.59579" lon="3.11789">
        <ele>181.000898</ele>
        <time>2025-10-23T10:11:25Z</time>
      </trkpt>
      <trkpt lat="43.59579" lon="3.11789">
        <ele>180.999416</ele>
        <time>2025-10-23T10:11:26Z</time>
      </trkpt>
      <trkpt lat="43.59579" lon="3.11789">
        <ele>180.996889</ele>
        <time>2025-10-23T10:11:27Z</time>
      </trkpt>
      <trkpt lat="43.59579" lon="3.11789">
        <ele>180.995407</ele>
        <time>2025-10-23T10:11:28Z</time>
      </trkpt>
      <trkpt lat="43.59579" lon="3.11789">
        <ele>180.993925</ele>
        <time>2025-10-23T10:11:29Z</time>
      </trkpt>
      <trkpt lat="43.59579" lon="3.11789">
        <ele>180.993925</ele>
        <time>2025-10-23T10:11:30Z</time>
      </trkpt>
      <trkpt lat="43.59579" lon="3.11789">
        <ele>180.992443</ele>
        <time>2025-10-23T10:11:31Z</time>
      </trkpt>
      <trkpt lat="43.59579" lon="3.11789">
        <ele>180.989917</ele>
        <time>2025-10-23T10:11:32Z</time>
      </trkpt>
      <trkpt lat="43.59579" lon="3.11789">
        <ele>180.988435</ele>
        <time>2025-10-23T10:11:33Z</time>
      </trkpt>
      <trkpt lat="43.59579" lon="3.11789">
        <ele>180.985908</ele>
        <time>2025-10-23T10:11:34Z</time>
      </trkpt>
      <trkpt lat="43.59579" lon="3.11789">
        <ele>180.985908</ele>
        <time>2025-10-23T10:11:35Z</time>
      </trkpt>
      <trkpt lat="43.59579" lon="3.11789">
        <ele>180.985908</ele>
        <time>2025-10-23T10:11:36Z</time>
      </trkpt>
      <trkpt lat="43.59579" lon="3.11789">
        <ele>180.983862</ele>
        <time>2025-10-23T10:11:37Z</time>
      </trkpt>
      <trkpt lat="43.59579" lon="3.11789">
        <ele>180.983862</ele>
        <time>2025-10-23T10:11:38Z</time>
      </trkpt>
      <trkpt lat="43.59579" lon="3.11789">
        <ele>180.983862</ele>
        <time>2025-10-23T10:11:39Z</time>
      </trkpt>
      <trkpt lat="43.59579" lon="3.11789">
        <ele>180.983862</ele>
        <time>2025-10-23T10:11:40Z</time>
      </trkpt>
      <trkpt lat="43.59579" lon="3.11789">
        <ele>180.981815</ele>
        <time>2025-10-23T10:11:41Z</time>
      </trkpt>
      <trkpt lat="43.59579" lon="3.11789">
        <ele>180.979289</ele>
        <time>2025-10-23T10:11:42Z</time>
      </trkpt>
      <trkpt lat="43.59579" lon="3.11789">
        <ele>180.977242</ele>
        <time>2025-10-23T10:11:43Z</time>
      </trkpt>
      <trkpt lat="43.59579" lon="3.11789">
        <ele>180.977242</ele>
        <time>2025-10-23T10:11:44Z</time>
      </trkpt>
      <trkpt lat="43.59579" lon="3.11789">
        <ele>180.977242</ele>
        <time>2025-10-23T10:11:45Z</time>
      </trkpt>
      <trkpt lat="43.59579" lon="3.11789">
        <ele>180.975196</ele>
        <time>2025-10-23T10:11:46Z</time>
      </trkpt>
      <trkpt lat="43.59579" lon="3.11789">
        <ele>180.960795</ele>
        <time>2025-10-23T10:11:47Z</time>
      </trkpt>
      <trkpt lat="43.59579" lon="3.11789">
        <ele>180.960795</ele>
        <time>2025-10-23T10:11:48Z</time>
      </trkpt>
      <trkpt lat="43.59579" lon="3.11789">
        <ele>180.960795</ele>
        <time>2025-10-23T10:11:49Z</time>
      </trkpt>
      <trkpt lat="43.59579" lon="3.11789">
        <ele>180.960795</ele>
        <time>2025-10-23T10:11:50Z</time>
      </trkpt>
      <trkpt lat="43.59579" lon="3.11789">
        <ele>180.959313</ele>
        <time>2025-10-23T10:11:51Z</time>
      </trkpt>
      <trkpt lat="43.59579" lon="3.11789">
        <ele>180.959313</ele>
        <time>2025-10-23T10:11:52Z</time>
      </trkpt>
      <trkpt lat="43.59579" lon="3.11789">
        <ele>180.959313</ele>
        <time>2025-10-23T10:11:53Z</time>
      </trkpt>
      <trkpt lat="43.59578" lon="3.11789">
        <ele>180.956787</ele>
        <time>2025-10-23T10:11:54Z</time>
      </trkpt>
      <trkpt lat="43.59578" lon="3.11789">
        <ele>180.956787</ele>
        <time>2025-10-23T10:11:55Z</time>
      </trkpt>
      <trkpt lat="43.59578" lon="3.11789">
        <ele>180.956787</ele>
        <time>2025-10-23T10:11:56Z</time>
      </trkpt>
      <trkpt lat="43.59578" lon="3.11789">
        <ele>180.956787</ele>
        <time>2025-10-23T10:11:57Z</time>
      </trkpt>
      <trkpt lat="43.59578" lon="3.11789">
        <ele>180.95474</ele>
        <time>2025-10-23T10:11:58Z</time>
      </trkpt>
      <trkpt lat="43.59578" lon="3.11789">
        <ele>180.952694</ele>
        <time>2025-10-23T10:11:59Z</time>
      </trkpt>
      <trkpt lat="43.59578" lon="3.11789">
        <ele>180.948341</ele>
        <time>2025-10-23T10:12:00Z</time>
      </trkpt>
      <trkpt lat="43.59578" lon="3.1179">
        <ele>180.930655</ele>
        <time>2025-10-23T10:12:01Z</time>
      </trkpt>
      <trkpt lat="43.59578" lon="3.1179">
        <ele>180.928608</ele>
        <time>2025-10-23T10:12:02Z</time>
      </trkpt>
      <trkpt lat="43.59578" lon="3.1179">
        <ele>180.926562</ele>
        <time>2025-10-23T10:12:03Z</time>
      </trkpt>
      <trkpt lat="43.59577" lon="3.1179">
        <ele>180.924035</ele>
        <time>2025-10-23T10:12:04Z</time>
      </trkpt>
      <trkpt lat="43.59578" lon="3.1179">
        <ele>180.916832</ele>
        <time>2025-10-23T10:12:05Z</time>
      </trkpt>
      <trkpt lat="43.59578" lon="3.1179">
        <ele>180.913868</ele>
        <time>2025-10-23T10:12:06Z</time>
      </trkpt>
      <trkpt lat="43.59578" lon="3.1179">
        <ele>180.910266</ele>
        <time>2025-10-23T10:12:07Z</time>
      </trkpt>
      <trkpt lat="43.59578" lon="3.1179">
        <ele>180.90822</ele>
        <time>2025-10-23T10:12:08Z</time>
      </trkpt>
      <trkpt lat="43.59578" lon="3.1179">
        <ele>180.903867</ele>
        <time>2025-10-23T10:12:09Z</time>
      </trkpt>
      <trkpt lat="43.59578" lon="3.1179">
        <ele>180.90134</ele>
        <time>2025-10-23T10:12:10Z</time>
      </trkpt>
      <trkpt lat="43.59578" lon="3.1179">
        <ele>180.90134</ele>
        <time>2025-10-23T10:12:11Z</time>
      </trkpt>
      <trkpt lat="43.59578" lon="3.1179">
        <ele>180.898814</ele>
        <time>2025-10-23T10:12:12Z</time>
      </trkpt>
      <trkpt lat="43.59578" lon="3.1179">
        <ele>180.898814</ele>
        <time>2025-10-23T10:12:13Z</time>
      </trkpt>
      <trkpt lat="43.59578" lon="3.1179">
        <ele>180.898814</ele>
        <time>2025-10-23T10:12:14Z</time>
      </trkpt>
      <trkpt lat="43.59578" lon="3.11789">
        <ele>180.897332</ele>
        <time>2025-10-23T10:12:15Z</time>
      </trkpt>
      <trkpt lat="43.59578" lon="3.11789">
        <ele>180.897332</ele>
        <time>2025-10-23T10:12:16Z</time>
      </trkpt>
      <trkpt lat="43.59578" lon="3.11789">
        <ele>180.89585</ele>
        <time>2025-10-23T10:12:17Z</time>
      </trkpt>
      <trkpt lat="43.59578" lon="3.11789">
        <ele>180.89585</ele>
        <time>2025-10-23T10:12:18Z</time>
      </trkpt>
      <trkpt lat="43.59578" lon="3.11789">
        <ele>180.89585</ele>
        <time>2025-10-23T10:12:19Z</time>
      </trkpt>
      <trkpt lat="43.59578" lon="3.1179">
        <ele>180.888646</ele>
        <time>2025-10-23T10:12:20Z</time>
      </trkpt>
      <trkpt lat="43.59579" lon="3.1179">
        <ele>180.87509</ele>
        <time>2025-10-23T10:12:21Z</time>
      </trkpt>
      <trkpt lat="43.5958" lon="3.11792">
        <ele>180.845066</ele>
        <time>2025-10-23T10:12:22Z</time>
      </trkpt>
      <trkpt lat="43.59581" lon="3.11795">
        <ele>180.798118</ele>
        <time>2025-10-23T10:12:23Z</time>
      </trkpt>
      <trkpt lat="43.59582" lon="3.11798">
        <ele>180.741926</ele>
        <time>2025-10-23T10:12:24Z</time>
      </trkpt>
      <trkpt lat="43.59583" lon="3.11803">
        <ele>180.677014</ele>
        <time>2025-10-23T10:12:25Z</time>
      </trkpt>
      <trkpt lat="43.59583" lon="3.11807">
        <ele>180.60709</ele>
        <time>2025-10-23T10:12:26Z</time>
      </trkpt>
      <trkpt lat="43.59583" lon="3.11812">
        <ele>180.532539</ele>
        <time>2025-10-23T10:12:27Z</time>
      </trkpt>
      <trkpt lat="43.59583" lon="3.11818">
        <ele>180.453886</ele>
        <time>2025-10-23T10:12:28Z</time>
      </trkpt>
      <trkpt lat="43.59584" lon="3.11823">
        <ele>180.367833</ele>
        <time>2025-10-23T10:12:29Z</time>
      </trkpt>
      <trkpt lat="43.59584" lon="3.11829">
        <ele>180.279798</ele>
        <time>2025-10-23T10:12:30Z</time>
      </trkpt>
      <trkpt lat="43.59585" lon="3.11836">
        <ele>180.184158</ele>
        <time>2025-10-23T10:12:31Z</time>
      </trkpt>
      <trkpt lat="43.59586" lon="3.11842">
        <ele>180.087538</ele>
        <time>2025-10-23T10:12:32Z</time>
      </trkpt>
      <trkpt lat="43.59586" lon="3.11849">
        <ele>179.986017</ele>
        <time>2025-10-23T10:12:33Z</time>
      </trkpt>
      <trkpt lat="43.59587" lon="3.11856">
        <ele>179.886197</ele>
        <time>2025-10-23T10:12:34Z</time>
      </trkpt>
      <trkpt lat="43.59588" lon="3.11862">
        <ele>179.7841</ele>
        <time>2025-10-23T10:12:35Z</time>
      </trkpt>
      <trkpt lat="43.59588" lon="3.11869">
        <ele>179.682578</ele>
        <time>2025-10-23T10:12:36Z</time>
      </trkpt>
      <trkpt lat="43.59589" lon="3.11876">
        <ele>179.582758</ele>
        <time>2025-10-23T10:12:37Z</time>
      </trkpt>
      <trkpt lat="43.59589" lon="3.11883">
        <ele>179.478515</ele>
        <time>2025-10-23T10:12:38Z</time>
      </trkpt>
      <trkpt lat="43.5959" lon="3.1189">
        <ele>179.375746</ele>
        <time>2025-10-23T10:12:39Z</time>
      </trkpt>
      <trkpt lat="43.5959" lon="3.11897">
        <ele>179.274638</ele>
        <time>2025-10-23T10:12:40Z</time>
      </trkpt>
      <trkpt lat="43.59591" lon="3.11903">
        <ele>179.176292</ele>
        <time>2025-10-23T10:12:41Z</time>
      </trkpt>
      <trkpt lat="43.59591" lon="3.1191">
        <ele>179.071828</ele>
        <time>2025-10-23T10:12:42Z</time>
      </trkpt>
      <trkpt lat="43.59592" lon="3.11917">
        <ele>178.968835</ele>
        <time>2025-10-23T10:12:43Z</time>
      </trkpt>
      <trkpt lat="43.59593" lon="3.11924">
        <ele>178.8682</ele>
        <time>2025-10-23T10:12:44Z</time>
      </trkpt>
      <trkpt lat="43.59593" lon="3.1193">
        <ele>178.769028</ele>
        <time>2025-10-23T10:12:45Z</time>
      </trkpt>
      <trkpt lat="43.59594" lon="3.11937">
        <ele>178.664004</ele>
        <time>2025-10-23T10:12:46Z</time>
      </trkpt>
      <trkpt lat="43.59595" lon="3.11945">
        <ele>178.574075</ele>
        <time>2025-10-23T10:12:47Z</time>
      </trkpt>
      <trkpt lat="43.59595" lon="3.11952">
        <ele>178.572323</ele>
        <time>2025-10-23T10:12:48Z</time>
      </trkpt>
      <trkpt lat="43.59596" lon="3.11959">
        <ele>178.570571</ele>
        <time>2025-10-23T10:12:49Z</time>
      </trkpt>
      <trkpt lat="43.59597" lon="3.11966">
        <ele>178.568732</ele>
        <time>2025-10-23T10:12:50Z</time>
      </trkpt>
      <trkpt lat="43.59597" lon="3.11974">
        <ele>178.566837</ele>
        <time>2025-10-23T10:12:51Z</time>
      </trkpt>
      <trkpt lat="43.59598" lon="3.11981">
        <ele>178.564987</ele>
        <time>2025-10-23T10:12:52Z</time>
      </trkpt>
      <trkpt lat="43.59598" lon="3.11989">
        <ele>178.56319</ele>
        <time>2025-10-23T10:12:53Z</time>
      </trkpt>
      <trkpt lat="43.59599" lon="3.11996">
        <ele>178.561393</ele>
        <time>2025-10-23T10:12:54Z</time>
      </trkpt>
      <trkpt lat="43.59599" lon="3.12003">
        <ele>178.559595</ele>
        <time>2025-10-23T10:12:55Z</time>
      </trkpt>
      <trkpt lat="43.596" lon="3.1201">
        <ele>178.557874</ele>
        <time>2025-10-23T10:12:56Z</time>
      </trkpt>
      <trkpt lat="43.59601" lon="3.12017">
        <ele>178.556186</ele>
        <time>2025-10-23T10:12:57Z</time>
      </trkpt>
      <trkpt lat="43.59601" lon="3.12024">
        <ele>178.554454</ele>
        <time>2025-10-23T10:12:58Z</time>
      </trkpt>
      <trkpt lat="43.59602" lon="3.12031">
        <ele>178.552778</ele>
        <time>2025-10-23T10:12:59Z</time>
      </trkpt>
      <trkpt lat="43.59602" lon="3.12038">
        <ele>178.551103</ele>
        <time>2025-10-23T10:13:00Z</time>
      </trkpt>
      <trkpt lat="43.59603" lon="3.12045">
        <ele>178.549395</ele>
        <time>2025-10-23T10:13:01Z</time>
      </trkpt>
      <trkpt lat="43.59604" lon="3.12052">
        <ele>178.547658</ele>
        <time>2025-10-23T10:13:02Z</time>
      </trkpt>
      <trkpt lat="43.59604" lon="3.12059">
        <ele>178.545864</ele>
        <time>2025-10-23T10:13:03Z</time>
      </trkpt>
      <trkpt lat="43.59604" lon="3.12066">
        <ele>178.544024</ele>
        <time>2025-10-23T10:13:04Z</time>
      </trkpt>
      <trkpt lat="43.59605" lon="3.12073">
        <ele>178.542296</ele>
        <time>2025-10-23T10:13:05Z</time>
      </trkpt>
      <trkpt lat="43.59606" lon="3.1208">
        <ele>178.540593</ele>
        <time>2025-10-23T10:13:06Z</time>
      </trkpt>
      <trkpt lat="43.59606" lon="3.12087">
        <ele>178.538966</ele>
        <time>2025-10-23T10:13:07Z</time>
      </trkpt>
      <trkpt lat="43.59607" lon="3.12094">
        <ele>178.537287</ele>
        <time>2025-10-23T10:13:08Z</time>
      </trkpt>
      <trkpt lat="43.59607" lon="3.121">
        <ele>178.535652</ele>
        <time>2025-10-23T10:13:09Z</time>
      </trkpt>
      <trkpt lat="43.59608" lon="3.12107">
        <ele>178.534004</ele>
        <time>2025-10-23T10:13:10Z</time>
      </trkpt>
      <trkpt lat="43.59608" lon="3.12114">
        <ele>178.532356</ele>
        <time>2025-10-23T10:13:11Z</time>
      </trkpt>
      <trkpt lat="43.59609" lon="3.12121">
        <ele>178.530583</ele>
        <time>2025-10-23T10:13:12Z</time>
      </trkpt>
      <trkpt lat="43.59609" lon="3.12128">
        <ele>178.528803</ele>
        <time>2025-10-23T10:13:13Z</time>
      </trkpt>
      <trkpt lat="43.59611" lon="3.12135">
        <ele>178.526999</ele>
        <time>2025-10-23T10:13:14Z</time>
      </trkpt>
      <trkpt lat="43.59611" lon="3.12142">
        <ele>178.525253</ele>
        <time>2025-10-23T10:13:15Z</time>
      </trkpt>
      <trkpt lat="43.59611" lon="3.12149">
        <ele>178.523505</ele>
        <time>2025-10-23T10:13:16Z</time>
      </trkpt>
      <trkpt lat="43.59612" lon="3.12157">
        <ele>178.521753</ele>
        <time>2025-10-23T10:13:17Z</time>
      </trkpt>
      <trkpt lat="43.59613" lon="3.12163">
        <ele>178.520064</ele>
        <time>2025-10-23T10:13:18Z</time>
      </trkpt>
      <trkpt lat="43.59614" lon="3.1217">
        <ele>178.518453</ele>
        <time>2025-10-23T10:13:19Z</time>
      </trkpt>
      <trkpt lat="43.59614" lon="3.12176">
        <ele>178.516807</ele>
        <time>2025-10-23T10:13:20Z</time>
      </trkpt>
      <trkpt lat="43.59615" lon="3.12183">
        <ele>178.515124</ele>
        <time>2025-10-23T10:13:21Z</time>
      </trkpt>
      <trkpt lat="43.59616" lon="3.1219">
        <ele>178.514947</ele>
        <time>2025-10-23T10:13:22Z</time>
      </trkpt>
      <trkpt lat="43.59616" lon="3.12197">
        <ele>178.573788</ele>
        <time>2025-10-23T10:13:23Z</time>
      </trkpt>
      <trkpt lat="43.59617" lon="3.12204">
        <ele>178.636136</ele>
        <time>2025-10-23T10:13:24Z</time>
      </trkpt>
      <trkpt lat="43.59618" lon="3.12212">
        <ele>178.699323</ele>
        <time>2025-10-23T10:13:25Z</time>
      </trkpt>
      <trkpt lat="43.59618" lon="3.12219">
        <ele>178.760564</ele>
        <time>2025-10-23T10:13:26Z</time>
      </trkpt>
      <trkpt lat="43.59619" lon="3.12226">
        <ele>178.821928</ele>
        <time>2025-10-23T10:13:27Z</time>
      </trkpt>
      <trkpt lat="43.59619" lon="3.12233">
        <ele>178.882088</ele>
        <time>2025-10-23T10:13:28Z</time>
      </trkpt>
      <trkpt lat="43.59619" lon="3.1224">
        <ele>178.938165</ele>
        <time>2025-10-23T10:13:29Z</time>
      </trkpt>
      <trkpt lat="43.5962" lon="3.12246">
        <ele>178.995194</ele>
        <time>2025-10-23T10:13:30Z</time>
      </trkpt>
      <trkpt lat="43.5962" lon="3.12252">
        <ele>179.046008</ele>
        <time>2025-10-23T10:13:31Z</time>
      </trkpt>
      <trkpt lat="43.5962" lon="3.12257">
        <ele>179.084181</ele>
        <time>2025-10-23T10:13:32Z</time>
      </trkpt>
      <trkpt lat="43.5962" lon="3.1226">
        <ele>179.112992</ele>
        <time>2025-10-23T10:13:33Z</time>
      </trkpt>
      <trkpt lat="43.5962" lon="3.12263">
        <ele>179.134192</ele>
        <time>2025-10-23T10:13:34Z</time>
      </trkpt>
      <trkpt lat="43.5962" lon="3.12264">
        <ele>179.148185</ele>
        <time>2025-10-23T10:13:35Z</time>
      </trkpt>
      <trkpt lat="43.5962" lon="3.12265">
        <ele>179.151768</ele>
        <time>2025-10-23T10:13:36Z</time>
      </trkpt>
      <trkpt lat="43.5962" lon="3.12265">
        <ele>179.155221</ele>
        <time>2025-10-23T10:13:37Z</time>
      </trkpt>
      <trkpt lat="43.5962" lon="3.12265">
        <ele>179.155221</ele>
        <time>2025-10-23T10:13:38Z</time>
      </trkpt>
      <trkpt lat="43.5962" lon="3.12265">
        <ele>179.155221</ele>
        <time>2025-10-23T10:13:39Z</time>
      </trkpt>
      <trkpt lat="43.5962" lon="3.12265">
        <ele>179.155221</ele>
        <time>2025-10-23T10:13:40Z</time>
      </trkpt>
      <trkpt lat="43.5962" lon="3.12265">
        <ele>179.155221</ele>
        <time>2025-10-23T10:13:41Z</time>
      </trkpt>
      <trkpt lat="43.5962" lon="3.12265">
        <ele>179.155221</ele>
        <time>2025-10-23T10:13:42Z</time>
      </trkpt>
      <trkpt lat="43.5962" lon="3.12265">
        <ele>179.157707</ele>
        <time>2025-10-23T10:13:43Z</time>
      </trkpt>
      <trkpt lat="43.5962" lon="3.12265">
        <ele>179.158876</ele>
        <time>2025-10-23T10:13:44Z</time>
      </trkpt>
      <trkpt lat="43.5962" lon="3.12265">
        <ele>179.160046</ele>
        <time>2025-10-23T10:13:45Z</time>
      </trkpt>
      <trkpt lat="43.5962" lon="3.12265">
        <ele>179.160046</ele>
        <time>2025-10-23T10:13:46Z</time>
      </trkpt>
      <trkpt lat="43.5962" lon="3.12265">
        <ele>179.161215</ele>
        <time>2025-10-23T10:13:47Z</time>
      </trkpt>
      <trkpt lat="43.5962" lon="3.12265">
        <ele>179.162061</ele>
        <time>2025-10-23T10:13:48Z</time>
      </trkpt>
      <trkpt lat="43.5962" lon="3.12265">
        <ele>179.162908</ele>
        <time>2025-10-23T10:13:49Z</time>
      </trkpt>
      <trkpt lat="43.5962" lon="3.12265">
        <ele>179.163755</ele>
        <time>2025-10-23T10:13:50Z</time>
      </trkpt>
      <trkpt lat="43.5962" lon="3.12265">
        <ele>179.163755</ele>
        <time>2025-10-23T10:13:51Z</time>
      </trkpt>
      <trkpt lat="43.5962" lon="3.12265">
        <ele>179.165198</ele>
        <time>2025-10-23T10:13:52Z</time>
      </trkpt>
      <trkpt lat="43.5962" lon="3.12265">
        <ele>179.165198</ele>
        <time>2025-10-23T10:13:53Z</time>
      </trkpt>
      <trkpt lat="43.5962" lon="3.12265">
        <ele>179.165198</ele>
        <time>2025-10-23T10:13:54Z</time>
      </trkpt>
      <trkpt lat="43.5962" lon="3.12265">
        <ele>179.165198</ele>
        <time>2025-10-23T10:13:55Z</time>
      </trkpt>
      <trkpt lat="43.5962" lon="3.12265">
        <ele>179.166642</ele>
        <time>2025-10-23T10:13:56Z</time>
      </trkpt>
      <trkpt lat="43.5962" lon="3.12265">
        <ele>179.168085</ele>
        <time>2025-10-23T10:13:57Z</time>
      </trkpt>
      <trkpt lat="43.5962" lon="3.12265">
        <ele>179.168085</ele>
        <time>2025-10-23T10:13:58Z</time>
      </trkpt>
      <trkpt lat="43.5962" lon="3.12265">
        <ele>179.168085</ele>
        <time>2025-10-23T10:13:59Z</time>
      </trkpt>
      <trkpt lat="43.5962" lon="3.12265">
        <ele>179.168085</ele>
        <time>2025-10-23T10:14:00Z</time>
      </trkpt>
      <trkpt lat="43.5962" lon="3.12265">
        <ele>179.168085</ele>
        <time>2025-10-23T10:14:01Z</time>
      </trkpt>
      <trkpt lat="43.5962" lon="3.12265">
        <ele>179.168085</ele>
        <time>2025-10-23T10:14:02Z</time>
      </trkpt>
      <trkpt lat="43.5962" lon="3.12265">
        <ele>179.168085</ele>
        <time>2025-10-23T10:14:03Z</time>
      </trkpt>
      <trkpt lat="43.5962" lon="3.12265">
        <ele>179.168085</ele>
        <time>2025-10-23T10:14:04Z</time>
      </trkpt>
      <trkpt lat="43.5962" lon="3.12265">
        <ele>179.168085</ele>
        <time>2025-10-23T10:14:05Z</time>
      </trkpt>
      <trkpt lat="43.5962" lon="3.12265">
        <ele>179.168085</ele>
        <time>2025-10-23T10:14:06Z</time>
      </trkpt>
      <trkpt lat="43.5962" lon="3.12265">
        <ele>179.169254</ele>
        <time>2025-10-23T10:14:07Z</time>
      </trkpt>
      <trkpt lat="43.5962" lon="3.12265">
        <ele>179.170423</ele>
        <time>2025-10-23T10:14:08Z</time>
      </trkpt>
      <trkpt lat="43.5962" lon="3.12265">
        <ele>179.170423</ele>
        <time>2025-10-23T10:14:09Z</time>
      </trkpt>
      <trkpt lat="43.5962" lon="3.12265">
        <ele>179.170423</ele>
        <time>2025-10-23T10:14:10Z</time>
      </trkpt>
      <trkpt lat="43.5962" lon="3.12265">
        <ele>179.171593</ele>
        <time>2025-10-23T10:14:11Z</time>
      </trkpt>
      <trkpt lat="43.5962" lon="3.12265">
        <ele>179.172762</ele>
        <time>2025-10-23T10:14:12Z</time>
      </trkpt>
      <trkpt lat="43.5962" lon="3.12265">
        <ele>179.172762</ele>
        <time>2025-10-23T10:14:13Z</time>
      </trkpt>
      <trkpt lat="43.5962" lon="3.12265">
        <ele>179.172762</ele>
        <time>2025-10-23T10:14:14Z</time>
      </trkpt>
      <trkpt lat="43.5962" lon="3.12265">
        <ele>179.172762</ele>
        <time>2025-10-23T10:14:15Z</time>
      </trkpt>
      <trkpt lat="43.5962" lon="3.12265">
        <ele>179.174205</ele>
        <time>2025-10-23T10:14:16Z</time>
      </trkpt>
      <trkpt lat="43.5962" lon="3.12265">
        <ele>179.180291</ele>
        <time>2025-10-23T10:14:17Z</time>
      </trkpt>
      <trkpt lat="43.5962" lon="3.12265">
        <ele>179.18146</ele>
        <time>2025-10-23T10:14:18Z</time>
      </trkpt>
      <trkpt lat="43.5962" lon="3.12265">
        <ele>179.182307</ele>
        <time>2025-10-23T10:14:19Z</time>
      </trkpt>
      <trkpt lat="43.5962" lon="3.12265">
        <ele>179.182307</ele>
        <time>2025-10-23T10:14:20Z</time>
      </trkpt>
      <trkpt lat="43.5962" lon="3.12265">
        <ele>179.183476</ele>
        <time>2025-10-23T10:14:21Z</time>
      </trkpt>
      <trkpt lat="43.5962" lon="3.12265">
        <ele>179.184645</ele>
        <time>2025-10-23T10:14:22Z</time>
      </trkpt>
      <trkpt lat="43.5962" lon="3.12265">
        <ele>179.184645</ele>
        <time>2025-10-23T10:14:23Z</time>
      </trkpt>
      <trkpt lat="43.5962" lon="3.12265">
        <ele>179.186089</ele>
        <time>2025-10-23T10:14:24Z</time>
      </trkpt>
      <trkpt lat="43.5962" lon="3.12265">
        <ele>179.186935</ele>
        <time>2025-10-23T10:14:25Z</time>
      </trkpt>
      <trkpt lat="43.5962" lon="3.12265">
        <ele>179.187782</ele>
        <time>2025-10-23T10:14:26Z</time>
      </trkpt>
      <trkpt lat="43.5962" lon="3.12265">
        <ele>179.188629</ele>
        <time>2025-10-23T10:14:27Z</time>
      </trkpt>
      <trkpt lat="43.59621" lon="3.12265">
        <ele>179.190072</ele>
        <time>2025-10-23T10:14:28Z</time>
      </trkpt>
      <trkpt lat="43.59621" lon="3.12265">
        <ele>179.190072</ele>
        <time>2025-10-23T10:14:29Z</time>
      </trkpt>
      <trkpt lat="43.59621" lon="3.12265">
        <ele>179.193655</ele>
        <time>2025-10-23T10:14:30Z</time>
      </trkpt>
      <trkpt lat="43.59622" lon="3.12266">
        <ele>179.210044</ele>
        <time>2025-10-23T10:14:31Z</time>
      </trkpt>
      <trkpt lat="43.59622" lon="3.12268">
        <ele>179.227978</ele>
        <time>2025-10-23T10:14:32Z</time>
      </trkpt>
      <trkpt lat="43.59622" lon="3.12271">
        <ele>179.254225</ele>
        <time>2025-10-23T10:14:33Z</time>
      </trkpt>
      <trkpt lat="43.59622" lon="3.12275">
        <ele>179.282555</ele>
        <time>2025-10-23T10:14:34Z</time>
      </trkpt>
      <trkpt lat="43.59623" lon="3.12279">
        <ele>179.320727</ele>
        <time>2025-10-23T10:14:35Z</time>
      </trkpt>
      <trkpt lat="43.59623" lon="3.12284">
        <ele>179.362184</ele>
        <time>2025-10-23T10:14:36Z</time>
      </trkpt>
      <trkpt lat="43.59624" lon="3.12289">
        <ele>179.407438</ele>
        <time>2025-10-23T10:14:37Z</time>
      </trkpt>
      <trkpt lat="43.59624" lon="3.12295">
        <ele>179.456601</ele>
        <time>2025-10-23T10:14:38Z</time>
      </trkpt>
      <trkpt lat="43.59624" lon="3.12301">
        <ele>179.50499</ele>
        <time>2025-10-23T10:14:39Z</time>
      </trkpt>
      <trkpt lat="43.59625" lon="3.12307">
        <ele>179.556126</ele>
        <time>2025-10-23T10:14:40Z</time>
      </trkpt>
      <trkpt lat="43.59625" lon="3.12313">
        <ele>179.609519</ele>
        <time>2025-10-23T10:14:41Z</time>
      </trkpt>
      <trkpt lat="43.59626" lon="3.1232">
        <ele>179.665996</ele>
        <time>2025-10-23T10:14:42Z</time>
      </trkpt>
      <trkpt lat="43.59626" lon="3.12326">
        <ele>179.721636</ele>
        <time>2025-10-23T10:14:43Z</time>
      </trkpt>
      <trkpt lat="43.59627" lon="3.12333">
        <ele>179.777713</ele>
        <time>2025-10-23T10:14:44Z</time>
      </trkpt>
      <trkpt lat="43.59628" lon="3.1234">
        <ele>179.840225</ele>
        <time>2025-10-23T10:14:45Z</time>
      </trkpt>
      <trkpt lat="43.59628" lon="3.12348">
        <ele>179.904251</ele>
        <time>2025-10-23T10:14:46Z</time>
      </trkpt>
      <trkpt lat="43.59629" lon="3.12355">
        <ele>179.971638</ele>
        <time>2025-10-23T10:14:47Z</time>
      </trkpt>
      <trkpt lat="43.59629" lon="3.12363">
        <ele>180.037095</ele>
        <time>2025-10-23T10:14:48Z</time>
      </trkpt>
      <trkpt lat="43.5963" lon="3.12371">
        <ele>180.101708</ele>
        <time>2025-10-23T10:14:49Z</time>
      </trkpt>
      <trkpt lat="43.5963" lon="3.12378">
        <ele>180.165382</ele>
        <time>2025-10-23T10:14:50Z</time>
      </trkpt>
      <trkpt lat="43.59631" lon="3.12385">
        <ele>180.226745</ele>
        <time>2025-10-23T10:14:51Z</time>
      </trkpt>
      <trkpt lat="43.59632" lon="3.12393">
        <ele>180.289792</ele>
        <time>2025-10-23T10:14:52Z</time>
      </trkpt>
      <trkpt lat="43.59632" lon="3.124">
        <ele>180.3513</ele>
        <time>2025-10-23T10:14:53Z</time>
      </trkpt>
      <trkpt lat="43.59633" lon="3.12407">
        <ele>180.411823</ele>
        <time>2025-10-23T10:14:54Z</time>
      </trkpt>
      <trkpt lat="43.59633" lon="3.12414">
        <ele>180.471504</ele>
        <time>2025-10-23T10:14:55Z</time>
      </trkpt>
      <trkpt lat="43.59634" lon="3.12421">
        <ele>180.531186</ele>
        <time>2025-10-23T10:14:56Z</time>
      </trkpt>
      <trkpt lat="43.59635" lon="3.12428">
        <ele>180.587845</ele>
        <time>2025-10-23T10:14:57Z</time>
      </trkpt>
      <trkpt lat="43.59635" lon="3.12435">
        <ele>180.613179</ele>
        <time>2025-10-23T10:14:58Z</time>
      </trkpt>
      <trkpt lat="43.59637" lon="3.12442">
        <ele>180.607032</ele>
        <time>2025-10-23T10:14:59Z</time>
      </trkpt>
      <trkpt lat="43.59637" lon="3.12449">
        <ele>180.600678</ele>
        <time>2025-10-23T10:15:00Z</time>
      </trkpt>
      <trkpt lat="43.59637" lon="3.12457">
        <ele>180.59394</ele>
        <time>2025-10-23T10:15:01Z</time>
      </trkpt>
      <trkpt lat="43.59638" lon="3.12465">
        <ele>180.587186</ele>
        <time>2025-10-23T10:15:02Z</time>
      </trkpt>
      <trkpt lat="43.59639" lon="3.12473">
        <ele>180.580768</ele>
        <time>2025-10-23T10:15:03Z</time>
      </trkpt>
      <trkpt lat="43.5964" lon="3.1248">
        <ele>180.574785</ele>
        <time>2025-10-23T10:15:04Z</time>
      </trkpt>
      <trkpt lat="43.5964" lon="3.12486">
        <ele>180.569093</ele>
        <time>2025-10-23T10:15:05Z</time>
      </trkpt>
      <trkpt lat="43.59641" lon="3.12493">
        <ele>180.563317</ele>
        <time>2025-10-23T10:15:06Z</time>
      </trkpt>
      <trkpt lat="43.59641" lon="3.125">
        <ele>180.557699</ele>
        <time>2025-10-23T10:15:07Z</time>
      </trkpt>
      <trkpt lat="43.59642" lon="3.12506">
        <ele>180.552179</ele>
        <time>2025-10-23T10:15:08Z</time>
      </trkpt>
      <trkpt lat="43.59643" lon="3.12513">
        <ele>180.546576</ele>
        <time>2025-10-23T10:15:09Z</time>
      </trkpt>
      <trkpt lat="43.59643" lon="3.12519">
        <ele>180.5414</ele>
        <time>2025-10-23T10:15:10Z</time>
      </trkpt>
      <trkpt lat="43.59644" lon="3.12525">
        <ele>180.536047</ele>
        <time>2025-10-23T10:15:11Z</time>
      </trkpt>
      <trkpt lat="43.59645" lon="3.12532">
        <ele>180.530315</ele>
        <time>2025-10-23T10:15:12Z</time>
      </trkpt>
      <trkpt lat="43.59646" lon="3.12538">
        <ele>180.524713</ele>
        <time>2025-10-23T10:15:13Z</time>
      </trkpt>
      <trkpt lat="43.59646" lon="3.12545">
        <ele>180.519029</ele>
        <time>2025-10-23T10:15:14Z</time>
      </trkpt>
      <trkpt lat="43.59646" lon="3.12551">
        <ele>180.51343</ele>
        <time>2025-10-23T10:15:15Z</time>
      </trkpt>
      <trkpt lat="43.59646" lon="3.12558">
        <ele>180.507841</ele>
        <time>2025-10-23T10:15:16Z</time>
      </trkpt>
      <trkpt lat="43.59646" lon="3.12565">
        <ele>180.501905</ele>
        <time>2025-10-23T10:15:17Z</time>
      </trkpt>
      <trkpt lat="43.59647" lon="3.12572">
        <ele>180.496034</ele>
        <time>2025-10-23T10:15:18Z</time>
      </trkpt>
      <trkpt lat="43.59648" lon="3.12579">
        <ele>180.490066</ele>
        <time>2025-10-23T10:15:19Z</time>
      </trkpt>
      <trkpt lat="43.59648" lon="3.12586">
        <ele>180.48435</ele>
        <time>2025-10-23T10:15:20Z</time>
      </trkpt>
      <trkpt lat="43.59649" lon="3.12592">
        <ele>180.479018</ele>
        <time>2025-10-23T10:15:21Z</time>
      </trkpt>
      <trkpt lat="43.5965" lon="3.12598">
        <ele>180.473622</ele>
        <time>2025-10-23T10:15:22Z</time>
      </trkpt>
      <trkpt lat="43.5965" lon="3.12605">
        <ele>180.468142</ele>
        <time>2025-10-23T10:15:23Z</time>
      </trkpt>
      <trkpt lat="43.59651" lon="3.12611">
        <ele>180.462594</ele>
        <time>2025-10-23T10:15:24Z</time>
      </trkpt>
      <trkpt lat="43.59652" lon="3.12618">
        <ele>180.457047</ele>
        <time>2025-10-23T10:15:25Z</time>
      </trkpt>
      <trkpt lat="43.59652" lon="3.12624">
        <ele>180.451232</ele>
        <time>2025-10-23T10:15:26Z</time>
      </trkpt>
      <trkpt lat="43.59653" lon="3.12631">
        <ele>180.445698</ele>
        <time>2025-10-23T10:15:27Z</time>
      </trkpt>
      <trkpt lat="43.59654" lon="3.12638">
        <ele>180.439865</ele>
        <time>2025-10-23T10:15:28Z</time>
      </trkpt>
      <trkpt lat="43.59654" lon="3.12644">
        <ele>180.434247</ele>
        <time>2025-10-23T10:15:29Z</time>
      </trkpt>
      <trkpt lat="43.59655" lon="3.12651">
        <ele>180.428599</ele>
        <time>2025-10-23T10:15:30Z</time>
      </trkpt>
      <trkpt lat="43.59655" lon="3.12657">
        <ele>180.423036</ele>
        <time>2025-10-23T10:15:31Z</time>
      </trkpt>
      <trkpt lat="43.59656" lon="3.12664">
        <ele>180.417287</ele>
        <time>2025-10-23T10:15:32Z</time>
      </trkpt>
      <trkpt lat="43.59657" lon="3.12671">
        <ele>180.411538</ele>
        <time>2025-10-23T10:15:33Z</time>
      </trkpt>
      <trkpt lat="43.59658" lon="3.12677">
        <ele>180.406025</ele>
        <time>2025-10-23T10:15:34Z</time>
      </trkpt>
      <trkpt lat="43.59659" lon="3.12684">
        <ele>180.402898</ele>
        <time>2025-10-23T10:15:35Z</time>
      </trkpt>
      <trkpt lat="43.59659" lon="3.12691">
        <ele>180.399671</ele>
        <time>2025-10-23T10:15:36Z</time>
      </trkpt>
      <trkpt lat="43.5966" lon="3.12698">
        <ele>180.396482</ele>
        <time>2025-10-23T10:15:37Z</time>
      </trkpt>
      <trkpt lat="43.5966" lon="3.12705">
        <ele>180.393306</ele>
        <time>2025-10-23T10:15:38Z</time>
      </trkpt>
      <trkpt lat="43.59661" lon="3.12712">
        <ele>180.390084</ele>
        <time>2025-10-23T10:15:39Z</time>
      </trkpt>
      <trkpt lat="43.59661" lon="3.12719">
        <ele>180.386862</ele>
        <time>2025-10-23T10:15:40Z</time>
      </trkpt>
      <trkpt lat="43.59662" lon="3.12725">
        <ele>180.38381</ele>
        <time>2025-10-23T10:15:41Z</time>
      </trkpt>
      <trkpt lat="43.59662" lon="3.12732">
        <ele>180.380849</ele>
        <time>2025-10-23T10:15:42Z</time>
      </trkpt>
      <trkpt lat="43.59663" lon="3.12738">
        <ele>180.377759</ele>
        <time>2025-10-23T10:15:43Z</time>
      </trkpt>
      <trkpt lat="43.59663" lon="3.12745">
        <ele>180.374774</ele>
        <time>2025-10-23T10:15:44Z</time>
      </trkpt>
      <trkpt lat="43.59664" lon="3.12751">
        <ele>180.37177</ele>
        <time>2025-10-23T10:15:45Z</time>
      </trkpt>
      <trkpt lat="43.59665" lon="3.12757">
        <ele>180.368841</ele>
        <time>2025-10-23T10:15:46Z</time>
      </trkpt>
      <trkpt lat="43.59666" lon="3.12764">
        <ele>180.365879</ele>
        <time>2025-10-23T10:15:47Z</time>
      </trkpt>
      <trkpt lat="43.59667" lon="3.1277">
        <ele>180.363054</ele>
        <time>2025-10-23T10:15:48Z</time>
      </trkpt>
      <trkpt lat="43.59668" lon="3.12776">
        <ele>180.359918</ele>
        <time>2025-10-23T10:15:49Z</time>
      </trkpt>
      <trkpt lat="43.59669" lon="3.12783">
        <ele>180.356684</ele>
        <time>2025-10-23T10:15:50Z</time>
      </trkpt>
      <trkpt lat="43.5967" lon="3.12791">
        <ele>180.35329</ele>
        <time>2025-10-23T10:15:51Z</time>
      </trkpt>
      <trkpt lat="43.59672" lon="3.12797">
        <ele>180.349966</ele>
        <time>2025-10-23T10:15:52Z</time>
      </trkpt>
      <trkpt lat="43.59673" lon="3.12804">
        <ele>180.34665</ele>
        <time>2025-10-23T10:15:53Z</time>
      </trkpt>
      <trkpt lat="43.59674" lon="3.12811">
        <ele>180.343556</ele>
        <time>2025-10-23T10:15:54Z</time>
      </trkpt>
      <trkpt lat="43.59675" lon="3.12818">
        <ele>180.340405</ele>
        <time>2025-10-23T10:15:55Z</time>
      </trkpt>
      <trkpt lat="43.59675" lon="3.12825">
        <ele>180.336963</ele>
        <time>2025-10-23T10:15:56Z</time>
      </trkpt>
      <trkpt lat="43.59675" lon="3.12833">
        <ele>180.33343</ele>
        <time>2025-10-23T10:15:57Z</time>
      </trkpt>
      <trkpt lat="43.59675" lon="3.1284">
        <ele>180.330126</ele>
        <time>2025-10-23T10:15:58Z</time>
      </trkpt>
      <trkpt lat="43.59675" lon="3.12847">
        <ele>180.326774</ele>
        <time>2025-10-23T10:15:59Z</time>
      </trkpt>
      <trkpt lat="43.59675" lon="3.12855">
        <ele>180.323377</ele>
        <time>2025-10-23T10:16:00Z</time>
      </trkpt>
      <trkpt lat="43.59676" lon="3.12862">
        <ele>180.31993</ele>
        <time>2025-10-23T10:16:01Z</time>
      </trkpt>
      <trkpt lat="43.59676" lon="3.1287">
        <ele>180.316578</ele>
        <time>2025-10-23T10:16:02Z</time>
      </trkpt>
      <trkpt lat="43.59676" lon="3.12877">
        <ele>180.313178</ele>
        <time>2025-10-23T10:16:03Z</time>
      </trkpt>
      <trkpt lat="43.59675" lon="3.12885">
        <ele>180.309731</ele>
        <time>2025-10-23T10:16:04Z</time>
      </trkpt>
      <trkpt lat="43.59675" lon="3.12892">
        <ele>180.306427</ele>
        <time>2025-10-23T10:16:05Z</time>
      </trkpt>
      <trkpt lat="43.59676" lon="3.12898">
        <ele>180.303382</ele>
        <time>2025-10-23T10:16:06Z</time>
      </trkpt>
      <trkpt lat="43.59677" lon="3.12905">
        <ele>180.300467</ele>
        <time>2025-10-23T10:16:07Z</time>
      </trkpt>
      <trkpt lat="43.59677" lon="3.12911">
        <ele>180.297633</ele>
        <time>2025-10-23T10:16:08Z</time>
      </trkpt>
      <trkpt lat="43.59678" lon="3.12917">
        <ele>180.294854</ele>
        <time>2025-10-23T10:16:09Z</time>
      </trkpt>
      <trkpt lat="43.59678" lon="3.12923">
        <ele>180.291077</ele>
        <time>2025-10-23T10:16:10Z</time>
      </trkpt>
      <trkpt lat="43.59679" lon="3.1293">
        <ele>180.266047</ele>
        <time>2025-10-23T10:16:11Z</time>
      </trkpt>
      <trkpt lat="43.59679" lon="3.12937">
        <ele>180.241326</ele>
        <time>2025-10-23T10:16:12Z</time>
      </trkpt>
      <trkpt lat="43.5968" lon="3.12943">
        <ele>180.217182</ele>
        <time>2025-10-23T10:16:13Z</time>
      </trkpt>
      <trkpt lat="43.59681" lon="3.1295">
        <ele>180.191954</ele>
        <time>2025-10-23T10:16:14Z</time>
      </trkpt>
      <trkpt lat="43.59682" lon="3.12957">
        <ele>180.166869</ele>
        <time>2025-10-23T10:16:15Z</time>
      </trkpt>
      <trkpt lat="43.59682" lon="3.12964">
        <ele>180.141156</ele>
        <time>2025-10-23T10:16:16Z</time>
      </trkpt>
      <trkpt lat="43.59682" lon="3.12971">
        <ele>180.114712</ele>
        <time>2025-10-23T10:16:17Z</time>
      </trkpt>
      <trkpt lat="43.59683" lon="3.12978">
        <ele>180.088225</ele>
        <time>2025-10-23T10:16:18Z</time>
      </trkpt>
      <trkpt lat="43.59684" lon="3.12985">
        <ele>180.063436</ele>
        <time>2025-10-23T10:16:19Z</time>
      </trkpt>
      <trkpt lat="43.59684" lon="3.12992">
        <ele>180.037847</ele>
        <time>2025-10-23T10:16:20Z</time>
      </trkpt>
      <trkpt lat="43.59685" lon="3.12998">
        <ele>180.012762</ele>
        <time>2025-10-23T10:16:21Z</time>
      </trkpt>
      <trkpt lat="43.59686" lon="3.13005">
        <ele>179.986728</ele>
        <time>2025-10-23T10:16:22Z</time>
      </trkpt>
      <trkpt lat="43.59687" lon="3.13012">
        <ele>179.960777</ele>
        <time>2025-10-23T10:16:23Z</time>
      </trkpt>
      <trkpt lat="43.59687" lon="3.13019">
        <ele>179.935625</ele>
        <time>2025-10-23T10:16:24Z</time>
      </trkpt>
      <trkpt lat="43.59688" lon="3.13026">
        <ele>179.909813</ele>
        <time>2025-10-23T10:16:25Z</time>
      </trkpt>
      <trkpt lat="43.59688" lon="3.13034">
        <ele>179.882962</ele>
        <time>2025-10-23T10:16:26Z</time>
      </trkpt>
      <trkpt lat="43.59689" lon="3.13041">
        <ele>179.857204</ele>
        <time>2025-10-23T10:16:27Z</time>
      </trkpt>
      <trkpt lat="43.5969" lon="3.13047">
        <ele>179.831755</ele>
        <time>2025-10-23T10:16:28Z</time>
      </trkpt>
      <trkpt lat="43.5969" lon="3.13054">
        <ele>179.806407</ele>
        <time>2025-10-23T10:16:29Z</time>
      </trkpt>
      <trkpt lat="43.59691" lon="3.13061">
        <ele>179.782048</ele>
        <time>2025-10-23T10:16:30Z</time>
      </trkpt>
      <trkpt lat="43.59691" lon="3.13068">
        <ele>179.757095</ele>
        <time>2025-10-23T10:16:31Z</time>
      </trkpt>
      <trkpt lat="43.59693" lon="3.13074">
        <ele>179.733364</ele>
        <time>2025-10-23T10:16:32Z</time>
      </trkpt>
      <trkpt lat="43.59694" lon="3.1308">
        <ele>179.70867</ele>
        <time>2025-10-23T10:16:33Z</time>
      </trkpt>
      <trkpt lat="43.59695" lon="3.13087">
        <ele>179.682794</ele>
        <time>2025-10-23T10:16:34Z</time>
      </trkpt>
      <trkpt lat="43.59695" lon="3.13094">
        <ele>179.657708</ele>
        <time>2025-10-23T10:16:35Z</time>
      </trkpt>
      <trkpt lat="43.59696" lon="3.13101">
        <ele>179.631896</ele>
        <time>2025-10-23T10:16:36Z</time>
      </trkpt>
      <trkpt lat="43.59696" lon="3.13108">
        <ele>179.606745</ele>
        <time>2025-10-23T10:16:37Z</time>
      </trkpt>
      <trkpt lat="43.59697" lon="3.13114">
        <ele>179.583766</ele>
        <time>2025-10-23T10:16:38Z</time>
      </trkpt>
      <trkpt lat="43.59697" lon="3.13121">
        <ele>179.559942</ele>
        <time>2025-10-23T10:16:39Z</time>
      </trkpt>
      <trkpt lat="43.59698" lon="3.13127">
        <ele>179.535642</ele>
        <time>2025-10-23T10:16:40Z</time>
      </trkpt>
      <trkpt lat="43.59698" lon="3.13134">
        <ele>179.511389</ele>
        <time>2025-10-23T10:16:41Z</time>
      </trkpt>
      <trkpt lat="43.59699" lon="3.13141">
        <ele>179.486667</ele>
        <time>2025-10-23T10:16:42Z</time>
      </trkpt>
      <trkpt lat="43.59699" lon="3.13148">
        <ele>179.460491</ele>
        <time>2025-10-23T10:16:43Z</time>
      </trkpt>
      <trkpt lat="43.597" lon="3.13155">
        <ele>179.433223</ele>
        <time>2025-10-23T10:16:44Z</time>
      </trkpt>
      <trkpt lat="43.59701" lon="3.13162">
        <ele>179.406372</ele>
        <time>2025-10-23T10:16:45Z</time>
      </trkpt>
      <trkpt lat="43.59701" lon="3.1317">
        <ele>179.384724</ele>
        <time>2025-10-23T10:16:46Z</time>
      </trkpt>
      <trkpt lat="43.59702" lon="3.13177">
        <ele>179.401065</ele>
        <time>2025-10-23T10:16:47Z</time>
      </trkpt>
      <trkpt lat="43.59702" lon="3.13184">
        <ele>179.417599</ele>
        <time>2025-10-23T10:16:48Z</time>
      </trkpt>
      <trkpt lat="43.59703" lon="3.13191">
        <ele>179.433235</ele>
        <time>2025-10-23T10:16:49Z</time>
      </trkpt>
      <trkpt lat="43.59703" lon="3.13198">
        <ele>179.448275</ele>
        <time>2025-10-23T10:16:50Z</time>
      </trkpt>
      <trkpt lat="43.59704" lon="3.13205">
        <ele>179.464169</ele>
        <time>2025-10-23T10:16:51Z</time>
      </trkpt>
      <trkpt lat="43.59705" lon="3.13212">
        <ele>179.480325</ele>
        <time>2025-10-23T10:16:52Z</time>
      </trkpt>
      <trkpt lat="43.59706" lon="3.13219">
        <ele>179.496134</ele>
        <time>2025-10-23T10:16:53Z</time>
      </trkpt>
      <trkpt lat="43.59706" lon="3.13226">
        <ele>179.512112</ele>
        <time>2025-10-23T10:16:54Z</time>
      </trkpt>
      <trkpt lat="43.59707" lon="3.13233">
        <ele>179.528143</ele>
        <time>2025-10-23T10:16:55Z</time>
      </trkpt>
      <trkpt lat="43.59708" lon="3.1324">
        <ele>179.545116</ele>
        <time>2025-10-23T10:16:56Z</time>
      </trkpt>
      <trkpt lat="43.59709" lon="3.13247">
        <ele>179.561204</ele>
        <time>2025-10-23T10:16:57Z</time>
      </trkpt>
      <trkpt lat="43.59711" lon="3.13255">
        <ele>179.578314</ele>
        <time>2025-10-23T10:16:58Z</time>
      </trkpt>
      <trkpt lat="43.59712" lon="3.13261">
        <ele>179.594389</ele>
        <time>2025-10-23T10:16:59Z</time>
      </trkpt>
      <trkpt lat="43.59713" lon="3.13268">
        <ele>179.60944</ele>
        <time>2025-10-23T10:17:00Z</time>
      </trkpt>
      <trkpt lat="43.59714" lon="3.13275">
        <ele>179.62508</ele>
        <time>2025-10-23T10:17:01Z</time>
      </trkpt>
      <trkpt lat="43.59716" lon="3.13281">
        <ele>179.640131</ele>
        <time>2025-10-23T10:17:02Z</time>
      </trkpt>
      <trkpt lat="43.59716" lon="3.13288">
        <ele>179.655053</ele>
        <time>2025-10-23T10:17:03Z</time>
      </trkpt>
      <trkpt lat="43.59718" lon="3.13294">
        <ele>179.670396</ele>
        <time>2025-10-23T10:17:04Z</time>
      </trkpt>
      <trkpt lat="43.59719" lon="3.13301">
        <ele>179.685303</ele>
        <time>2025-10-23T10:17:05Z</time>
      </trkpt>
      <trkpt lat="43.5972" lon="3.13307">
        <ele>179.700353</ele>
        <time>2025-10-23T10:17:06Z</time>
      </trkpt>
      <trkpt lat="43.59721" lon="3.13314">
        <ele>179.715116</ele>
        <time>2025-10-23T10:17:07Z</time>
      </trkpt>
      <trkpt lat="43.59722" lon="3.1332">
        <ele>179.730241</ele>
        <time>2025-10-23T10:17:08Z</time>
      </trkpt>
      <trkpt lat="43.59724" lon="3.13326">
        <ele>179.745315</ele>
        <time>2025-10-23T10:17:09Z</time>
      </trkpt>
      <trkpt lat="43.59725" lon="3.13333">
        <ele>179.761039</ele>
        <time>2025-10-23T10:17:10Z</time>
      </trkpt>
      <trkpt lat="43.59726" lon="3.1334">
        <ele>179.775945</ele>
        <time>2025-10-23T10:17:11Z</time>
      </trkpt>
      <trkpt lat="43.59728" lon="3.13346">
        <ele>179.791668</ele>
        <time>2025-10-23T10:17:12Z</time>
      </trkpt>
      <trkpt lat="43.59729" lon="3.13353">
        <ele>179.807608</ele>
        <time>2025-10-23T10:17:13Z</time>
      </trkpt>
      <trkpt lat="43.5973" lon="3.13359">
        <ele>179.822297</ele>
        <time>2025-10-23T10:17:14Z</time>
      </trkpt>
      <trkpt lat="43.59731" lon="3.13365">
        <ele>179.836179</ele>
        <time>2025-10-23T10:17:15Z</time>
      </trkpt>
      <trkpt lat="43.59733" lon="3.13371">
        <ele>179.84975</ele>
        <time>2025-10-23T10:17:16Z</time>
      </trkpt>
      <trkpt lat="43.59734" lon="3.13377">
        <ele>179.862616</ele>
        <time>2025-10-23T10:17:17Z</time>
      </trkpt>
      <trkpt lat="43.59734" lon="3.13382">
        <ele>179.875603</ele>
        <time>2025-10-23T10:17:18Z</time>
      </trkpt>
      <trkpt lat="43.59734" lon="3.13388">
        <ele>179.888814</ele>
        <time>2025-10-23T10:17:19Z</time>
      </trkpt>
      <trkpt lat="43.59734" lon="3.13394">
        <ele>179.901312</ele>
        <time>2025-10-23T10:17:20Z</time>
      </trkpt>
      <trkpt lat="43.59736" lon="3.13399">
        <ele>179.915593</ele>
        <time>2025-10-23T10:17:21Z</time>
      </trkpt>
      <trkpt lat="43.59738" lon="3.13405">
        <ele>179.930078</ele>
        <time>2025-10-23T10:17:22Z</time>
      </trkpt>
      <trkpt lat="43.5974" lon="3.13411">
        <ele>179.941967</ele>
        <time>2025-10-23T10:17:23Z</time>
      </trkpt>
      <trkpt lat="43.59741" lon="3.13418">
        <ele>179.937392</ele>
        <time>2025-10-23T10:17:24Z</time>
      </trkpt>
      <trkpt lat="43.59743" lon="3.13424">
        <ele>179.932937</ele>
        <time>2025-10-23T10:17:25Z</time>
      </trkpt>
      <trkpt lat="43.59744" lon="3.1343">
        <ele>179.928362</ele>
        <time>2025-10-23T10:17:26Z</time>
      </trkpt>
      <trkpt lat="43.59746" lon="3.13437">
        <ele>179.923726</ele>
        <time>2025-10-23T10:17:27Z</time>
      </trkpt>
      <trkpt lat="43.59747" lon="3.13443">
        <ele>179.919026</ele>
        <time>2025-10-23T10:17:28Z</time>
      </trkpt>
      <trkpt lat="43.59749" lon="3.13449">
        <ele>179.914348</ele>
        <time>2025-10-23T10:17:29Z</time>
      </trkpt>
      <trkpt lat="43.59751" lon="3.13456">
        <ele>179.909545</ele>
        <time>2025-10-23T10:17:30Z</time>
      </trkpt>
      <trkpt lat="43.59753" lon="3.13462">
        <ele>179.904841</ele>
        <time>2025-10-23T10:17:31Z</time>
      </trkpt>
      <trkpt lat="43.59755" lon="3.13469">
        <ele>179.900011</ele>
        <time>2025-10-23T10:17:32Z</time>
      </trkpt>
      <trkpt lat="43.59757" lon="3.13475">
        <ele>179.89527</ele>
        <time>2025-10-23T10:17:33Z</time>
      </trkpt>
      <trkpt lat="43.59759" lon="3.13482">
        <ele>179.890654</ele>
        <time>2025-10-23T10:17:34Z</time>
      </trkpt>
      <trkpt lat="43.59761" lon="3.13488">
        <ele>179.88602</ele>
        <time>2025-10-23T10:17:35Z</time>
      </trkpt>
      <trkpt lat="43.59764" lon="3.13494">
        <ele>179.881324</ele>
        <time>2025-10-23T10:17:36Z</time>
      </trkpt>
      <trkpt lat="43.59765" lon="3.135">
        <ele>179.87672</ele>
        <time>2025-10-23T10:17:37Z</time>
      </trkpt>
      <trkpt lat="43.59767" lon="3.13507">
        <ele>179.872147</ele>
        <time>2025-10-23T10:17:38Z</time>
      </trkpt>
      <trkpt lat="43.59769" lon="3.13513">
        <ele>179.867531</ele>
        <time>2025-10-23T10:17:39Z</time>
      </trkpt>
      <trkpt lat="43.59771" lon="3.13519">
        <ele>179.862836</ele>
        <time>2025-10-23T10:17:40Z</time>
      </trkpt>
      <trkpt lat="43.59774" lon="3.13525">
        <ele>179.857845</ele>
        <time>2025-10-23T10:17:41Z</time>
      </trkpt>
      <trkpt lat="43.59776" lon="3.13532">
        <ele>179.85284</ele>
        <time>2025-10-23T10:17:42Z</time>
      </trkpt>
      <trkpt lat="43.59779" lon="3.13538">
        <ele>179.848059</ele>
        <time>2025-10-23T10:17:43Z</time>
      </trkpt>
      <trkpt lat="43.59781" lon="3.13544">
        <ele>179.843319</ele>
        <time>2025-10-23T10:17:44Z</time>
      </trkpt>
      <trkpt lat="43.59783" lon="3.13551">
        <ele>179.838602</ele>
        <time>2025-10-23T10:17:45Z</time>
      </trkpt>
      <trkpt lat="43.59785" lon="3.13557">
        <ele>179.833881</ele>
        <time>2025-10-23T10:17:46Z</time>
      </trkpt>
      <trkpt lat="43.59788" lon="3.13563">
        <ele>179.829055</ele>
        <time>2025-10-23T10:17:47Z</time>
      </trkpt>
      <trkpt lat="43.5979" lon="3.13569">
        <ele>179.824109</ele>
        <time>2025-10-23T10:17:48Z</time>
      </trkpt>
      <trkpt lat="43.59793" lon="3.13576">
        <ele>179.819208</ele>
        <time>2025-10-23T10:17:49Z</time>
      </trkpt>
      <trkpt lat="43.59795" lon="3.13582">
        <ele>179.814263</ele>
        <time>2025-10-23T10:17:50Z</time>
      </trkpt>
      <trkpt lat="43.59797" lon="3.13589">
        <ele>179.809445</ele>
        <time>2025-10-23T10:17:51Z</time>
      </trkpt>
      <trkpt lat="43.598" lon="3.13595">
        <ele>179.804603</ele>
        <time>2025-10-23T10:17:52Z</time>
      </trkpt>
      <trkpt lat="43.59802" lon="3.13601">
        <ele>179.799731</ele>
        <time>2025-10-23T10:17:53Z</time>
      </trkpt>
      <trkpt lat="43.59805" lon="3.13607">
        <ele>179.794964</ele>
        <time>2025-10-23T10:17:54Z</time>
      </trkpt>
      <trkpt lat="43.59807" lon="3.13613">
        <ele>179.790257</ele>
        <time>2025-10-23T10:17:55Z</time>
      </trkpt>
      <trkpt lat="43.5981" lon="3.13619">
        <ele>179.785549</ele>
        <time>2025-10-23T10:17:56Z</time>
      </trkpt>
      <trkpt lat="43.59812" lon="3.13626">
        <ele>179.780663</ele>
        <time>2025-10-23T10:17:57Z</time>
      </trkpt>
      <trkpt lat="43.59815" lon="3.13632">
        <ele>179.775942</ele>
        <time>2025-10-23T10:17:58Z</time>
      </trkpt>
      <trkpt lat="43.59817" lon="3.13638">
        <ele>179.77412</ele>
        <time>2025-10-23T10:17:59Z</time>
      </trkpt>
      <trkpt lat="43.5982" lon="3.13644">
        <ele>179.774893</ele>
        <time>2025-10-23T10:18:00Z</time>
      </trkpt>
      <trkpt lat="43.59822" lon="3.1365">
        <ele>179.775683</ele>
        <time>2025-10-23T10:18:01Z</time>
      </trkpt>
      <trkpt lat="43.59825" lon="3.13656">
        <ele>179.776466</ele>
        <time>2025-10-23T10:18:02Z</time>
      </trkpt>
      <trkpt lat="43.59827" lon="3.13662">
        <ele>179.777276</ele>
        <time>2025-10-23T10:18:03Z</time>
      </trkpt>
      <trkpt lat="43.5983" lon="3.13668">
        <ele>179.778113</ele>
        <time>2025-10-23T10:18:04Z</time>
      </trkpt>
      <trkpt lat="43.59833" lon="3.13674">
        <ele>179.778923</ele>
        <time>2025-10-23T10:18:05Z</time>
      </trkpt>
      <trkpt lat="43.59835" lon="3.1368">
        <ele>179.779695</ele>
        <time>2025-10-23T10:18:06Z</time>
      </trkpt>
      <trkpt lat="43.59838" lon="3.13686">
        <ele>179.780456</ele>
        <time>2025-10-23T10:18:07Z</time>
      </trkpt>
      <trkpt lat="43.5984" lon="3.13692">
        <ele>179.781239</ele>
        <time>2025-10-23T10:18:08Z</time>
      </trkpt>
      <trkpt lat="43.59843" lon="3.13698">
        <ele>179.782019</ele>
        <time>2025-10-23T10:18:09Z</time>
      </trkpt>
      <trkpt lat="43.59845" lon="3.13704">
        <ele>179.782804</ele>
        <time>2025-10-23T10:18:10Z</time>
      </trkpt>
      <trkpt lat="43.59848" lon="3.1371">
        <ele>179.783597</ele>
        <time>2025-10-23T10:18:11Z</time>
      </trkpt>
      <trkpt lat="43.5985" lon="3.13716">
        <ele>179.784409</ele>
        <time>2025-10-23T10:18:12Z</time>
      </trkpt>
      <trkpt lat="43.59853" lon="3.13723">
        <ele>179.785214</ele>
        <time>2025-10-23T10:18:13Z</time>
      </trkpt>
      <trkpt lat="43.59855" lon="3.13729">
        <ele>179.786001</ele>
        <time>2025-10-23T10:18:14Z</time>
      </trkpt>
      <trkpt lat="43.59857" lon="3.13735">
        <ele>179.786779</ele>
        <time>2025-10-23T10:18:15Z</time>
      </trkpt>
      <trkpt lat="43.5986" lon="3.13741">
        <ele>179.78759</ele>
        <time>2025-10-23T10:18:16Z</time>
      </trkpt>
      <trkpt lat="43.59862" lon="3.13748">
        <ele>179.788422</ele>
        <time>2025-10-23T10:18:17Z</time>
      </trkpt>
      <trkpt lat="43.59864" lon="3.13755">
        <ele>179.789229</ele>
        <time>2025-10-23T10:18:18Z</time>
      </trkpt>
      <trkpt lat="43.59866" lon="3.13761">
        <ele>179.790078</ele>
        <time>2025-10-23T10:18:19Z</time>
      </trkpt>
      <trkpt lat="43.59869" lon="3.13768">
        <ele>179.790923</ele>
        <time>2025-10-23T10:18:20Z</time>
      </trkpt>
      <trkpt lat="43.59871" lon="3.13775">
        <ele>179.791741</ele>
        <time>2025-10-23T10:18:21Z</time>
      </trkpt>
      <trkpt lat="43.59874" lon="3.13781">
        <ele>179.792555</ele>
        <time>2025-10-23T10:18:22Z</time>
      </trkpt>
      <trkpt lat="43.59876" lon="3.13787">
        <ele>179.793373</ele>
        <time>2025-10-23T10:18:23Z</time>
      </trkpt>
      <trkpt lat="43.59878" lon="3.13794">
        <ele>179.794215</ele>
        <time>2025-10-23T10:18:24Z</time>
      </trkpt>
      <trkpt lat="43.59881" lon="3.13801">
        <ele>179.795043</ele>
        <time>2025-10-23T10:18:25Z</time>
      </trkpt>
      <trkpt lat="43.59883" lon="3.13807">
        <ele>179.795871</ele>
        <time>2025-10-23T10:18:26Z</time>
      </trkpt>
      <trkpt lat="43.59885" lon="3.13814">
        <ele>179.796689</ele>
        <time>2025-10-23T10:18:27Z</time>
      </trkpt>
      <trkpt lat="43.59888" lon="3.1382">
        <ele>179.797494</ele>
        <time>2025-10-23T10:18:28Z</time>
      </trkpt>
      <trkpt lat="43.5989" lon="3.13826">
        <ele>179.798282</ele>
        <time>2025-10-23T10:18:29Z</time>
      </trkpt>
      <trkpt lat="43.59892" lon="3.13832">
        <ele>179.799062</ele>
        <time>2025-10-23T10:18:30Z</time>
      </trkpt>
      <trkpt lat="43.59894" lon="3.13838">
        <ele>179.7998</ele>
        <time>2025-10-23T10:18:31Z</time>
      </trkpt>
      <trkpt lat="43.59897" lon="3.13844">
        <ele>179.800547</ele>
        <time>2025-10-23T10:18:32Z</time>
      </trkpt>
      <trkpt lat="43.59899" lon="3.1385">
        <ele>179.801293</ele>
        <time>2025-10-23T10:18:33Z</time>
      </trkpt>
      <trkpt lat="43.59901" lon="3.13856">
        <ele>179.800914</ele>
        <time>2025-10-23T10:18:34Z</time>
      </trkpt>
      <trkpt lat="43.59904" lon="3.13862">
        <ele>179.79873</ele>
        <time>2025-10-23T10:18:35Z</time>
      </trkpt>
      <trkpt lat="43.59906" lon="3.13868">
        <ele>179.796567</ele>
        <time>2025-10-23T10:18:36Z</time>
      </trkpt>
      <trkpt lat="43.59908" lon="3.13873">
        <ele>179.794404</ele>
        <time>2025-10-23T10:18:37Z</time>
      </trkpt>
      <trkpt lat="43.59911" lon="3.1388">
        <ele>179.792142</ele>
        <time>2025-10-23T10:18:38Z</time>
      </trkpt>
      <trkpt lat="43.59913" lon="3.13886">
        <ele>179.789803</ele>
        <time>2025-10-23T10:18:39Z</time>
      </trkpt>
      <trkpt lat="43.59915" lon="3.13893">
        <ele>179.787445</ele>
        <time>2025-10-23T10:18:40Z</time>
      </trkpt>
      <trkpt lat="43.59917" lon="3.13899">
        <ele>179.785018</ele>
        <time>2025-10-23T10:18:41Z</time>
      </trkpt>
      <trkpt lat="43.5992" lon="3.13906">
        <ele>179.78269</ele>
        <time>2025-10-23T10:18:42Z</time>
      </trkpt>
      <trkpt lat="43.59922" lon="3.13912">
        <ele>179.780303</ele>
        <time>2025-10-23T10:18:43Z</time>
      </trkpt>
      <trkpt lat="43.59924" lon="3.13919">
        <ele>179.777923</ele>
        <time>2025-10-23T10:18:44Z</time>
      </trkpt>
      <trkpt lat="43.59926" lon="3.13926">
        <ele>179.775548</ele>
        <time>2025-10-23T10:18:45Z</time>
      </trkpt>
      <trkpt lat="43.59928" lon="3.13932">
        <ele>179.773276</ele>
        <time>2025-10-23T10:18:46Z</time>
      </trkpt>
      <trkpt lat="43.5993" lon="3.13939">
        <ele>179.770986</ele>
        <time>2025-10-23T10:18:47Z</time>
      </trkpt>
      <trkpt lat="43.59932" lon="3.13945">
        <ele>179.768724</ele>
        <time>2025-10-23T10:18:48Z</time>
      </trkpt>
      <trkpt lat="43.59935" lon="3.13951">
        <ele>179.766424</ele>
        <time>2025-10-23T10:18:49Z</time>
      </trkpt>
      <trkpt lat="43.59937" lon="3.13957">
        <ele>179.764104</ele>
        <time>2025-10-23T10:18:50Z</time>
      </trkpt>
      <trkpt lat="43.59939" lon="3.13964">
        <ele>179.761854</ele>
        <time>2025-10-23T10:18:51Z</time>
      </trkpt>
      <trkpt lat="43.59942" lon="3.1397">
        <ele>179.759584</ele>
        <time>2025-10-23T10:18:52Z</time>
      </trkpt>
      <trkpt lat="43.59944" lon="3.13976">
        <ele>179.757275</ele>
        <time>2025-10-23T10:18:53Z</time>
      </trkpt>
      <trkpt lat="43.59946" lon="3.13982">
        <ele>179.755063</ele>
        <time>2025-10-23T10:18:54Z</time>
      </trkpt>
      <trkpt lat="43.59948" lon="3.13989">
        <ele>179.752821</ele>
        <time>2025-10-23T10:18:55Z</time>
      </trkpt>
      <trkpt lat="43.5995" lon="3.13995">
        <ele>179.750522</ele>
        <time>2025-10-23T10:18:56Z</time>
      </trkpt>
      <trkpt lat="43.59952" lon="3.14001">
        <ele>179.748339</ele>
        <time>2025-10-23T10:18:57Z</time>
      </trkpt>
      <trkpt lat="43.59954" lon="3.14007">
        <ele>179.746085</ele>
        <time>2025-10-23T10:18:58Z</time>
      </trkpt>
      <trkpt lat="43.59956" lon="3.14014">
        <ele>179.743805</ele>
        <time>2025-10-23T10:18:59Z</time>
      </trkpt>
      <trkpt lat="43.59958" lon="3.1402">
        <ele>179.741593</ele>
        <time>2025-10-23T10:19:00Z</time>
      </trkpt>
      <trkpt lat="43.59961" lon="3.14025">
        <ele>179.739449</ele>
        <time>2025-10-23T10:19:01Z</time>
      </trkpt>
      <trkpt lat="43.59963" lon="3.1403">
        <ele>179.737467</ele>
        <time>2025-10-23T10:19:02Z</time>
      </trkpt>
      <trkpt lat="43.59966" lon="3.14035">
        <ele>179.735641</ele>
        <time>2025-10-23T10:19:03Z</time>
      </trkpt>
      <trkpt lat="43.59969" lon="3.14038">
        <ele>179.733864</ele>
        <time>2025-10-23T10:19:04Z</time>
      </trkpt>
      <trkpt lat="43.59973" lon="3.14041">
        <ele>179.731965</ele>
        <time>2025-10-23T10:19:05Z</time>
      </trkpt>
      <trkpt lat="43.59977" lon="3.14043">
        <ele>179.7301</ele>
        <time>2025-10-23T10:19:06Z</time>
      </trkpt>
      <trkpt lat="43.5998" lon="3.14044">
        <ele>179.728473</ele>
        <time>2025-10-23T10:19:07Z</time>
      </trkpt>
      <trkpt lat="43.59981" lon="3.14047">
        <ele>179.727284</ele>
        <time>2025-10-23T10:19:08Z</time>
      </trkpt>
      <trkpt lat="43.59982" lon="3.14051">
        <ele>179.72615</ele>
        <time>2025-10-23T10:19:09Z</time>
      </trkpt>
      <trkpt lat="43.59984" lon="3.14054">
        <ele>179.724936</ele>
        <time>2025-10-23T10:19:10Z</time>
      </trkpt>
      <trkpt lat="43.59986" lon="3.14057">
        <ele>179.723622</ele>
        <time>2025-10-23T10:19:11Z</time>
      </trkpt>
      <trkpt lat="43.59989" lon="3.14058">
        <ele>179.722246</ele>
        <time>2025-10-23T10:19:12Z</time>
      </trkpt>
      <trkpt lat="43.59991" lon="3.1406">
        <ele>179.720961</ele>
        <time>2025-10-23T10:19:13Z</time>
      </trkpt>
      <trkpt lat="43.59993" lon="3.14063">
        <ele>179.743449</ele>
        <time>2025-10-23T10:19:14Z</time>
      </trkpt>
      <trkpt lat="43.59993" lon="3.14066">
        <ele>179.764131</ele>
        <time>2025-10-23T10:19:15Z</time>
      </trkpt>
      <trkpt lat="43.59993" lon="3.1407">
        <ele>179.790271</ele>
        <time>2025-10-23T10:19:16Z</time>
      </trkpt>
      <trkpt lat="43.59995" lon="3.14074">
        <ele>179.820146</ele>
        <time>2025-10-23T10:19:17Z</time>
      </trkpt>
      <trkpt lat="43.59996" lon="3.14078">
        <ele>179.851634</ele>
        <time>2025-10-23T10:19:18Z</time>
      </trkpt>
      <trkpt lat="43.59998" lon="3.14083">
        <ele>179.884652</ele>
        <time>2025-10-23T10:19:19Z</time>
      </trkpt>
      <trkpt lat="43.59999" lon="3.14088">
        <ele>179.921958</ele>
        <time>2025-10-23T10:19:20Z</time>
      </trkpt>
      <trkpt lat="43.60001" lon="3.14093">
        <ele>179.959615</ele>
        <time>2025-10-23T10:19:21Z</time>
      </trkpt>
      <trkpt lat="43.60002" lon="3.14099">
        <ele>179.99881</ele>
        <time>2025-10-23T10:19:22Z</time>
      </trkpt>
      <trkpt lat="43.60004" lon="3.14104">
        <ele>180.038926</ele>
        <time>2025-10-23T10:19:23Z</time>
      </trkpt>
      <trkpt lat="43.60005" lon="3.1411">
        <ele>180.078722</ele>
        <time>2025-10-23T10:19:24Z</time>
      </trkpt>
      <trkpt lat="43.60007" lon="3.14115">
        <ele>180.118736</ele>
        <time>2025-10-23T10:19:25Z</time>
      </trkpt>
      <trkpt lat="43.6001" lon="3.1412">
        <ele>180.159274</ele>
        <time>2025-10-23T10:19:26Z</time>
      </trkpt>
      <trkpt lat="43.60012" lon="3.14125">
        <ele>180.200938</ele>
        <time>2025-10-23T10:19:27Z</time>
      </trkpt>
      <trkpt lat="43.60015" lon="3.1413">
        <ele>180.241587</ele>
        <time>2025-10-23T10:19:28Z</time>
      </trkpt>
      <trkpt lat="43.60018" lon="3.14134">
        <ele>180.28075</ele>
        <time>2025-10-23T10:19:29Z</time>
      </trkpt>
      <trkpt lat="43.60021" lon="3.14139">
        <ele>180.321665</ele>
        <time>2025-10-23T10:19:30Z</time>
      </trkpt>
      <trkpt lat="43.60025" lon="3.14143">
        <ele>180.3637</ele>
        <time>2025-10-23T10:19:31Z</time>
      </trkpt>
      <trkpt lat="43.60028" lon="3.14148">
        <ele>180.406213</ele>
        <time>2025-10-23T10:19:32Z</time>
      </trkpt>
      <trkpt lat="43.60031" lon="3.14153">
        <ele>180.450688</ele>
        <time>2025-10-23T10:19:33Z</time>
      </trkpt>
      <trkpt lat="43.60034" lon="3.14157">
        <ele>180.493574</ele>
        <time>2025-10-23T10:19:34Z</time>
      </trkpt>
      <trkpt lat="43.60038" lon="3.14162">
        <ele>180.537382</ele>
        <time>2025-10-23T10:19:35Z</time>
      </trkpt>
      <trkpt lat="43.60041" lon="3.14167">
        <ele>180.581981</ele>
        <time>2025-10-23T10:19:36Z</time>
      </trkpt>
      <trkpt lat="43.60044" lon="3.14171">
        <ele>180.624977</ele>
        <time>2025-10-23T10:19:37Z</time>
      </trkpt>
      <trkpt lat="43.60048" lon="3.14176">
        <ele>180.668609</ele>
        <time>2025-10-23T10:19:38Z</time>
      </trkpt>
      <trkpt lat="43.60051" lon="3.14181">
        <ele>180.711475</ele>
        <time>2025-10-23T10:19:39Z</time>
      </trkpt>
      <trkpt lat="43.60054" lon="3.14186">
        <ele>180.753139</ele>
        <time>2025-10-23T10:19:40Z</time>
      </trkpt>
      <trkpt lat="43.60057" lon="3.1419">
        <ele>180.793578</ele>
        <time>2025-10-23T10:19:41Z</time>
      </trkpt>
      <trkpt lat="43.6006" lon="3.14194">
        <ele>180.830835</ele>
        <time>2025-10-23T10:19:42Z</time>
      </trkpt>
      <trkpt lat="43.60062" lon="3.14198">
        <ele>180.869033</ele>
        <time>2025-10-23T10:19:43Z</time>
      </trkpt>
      <trkpt lat="43.60065" lon="3.14202">
        <ele>180.907082</ele>
        <time>2025-10-23T10:19:44Z</time>
      </trkpt>
      <trkpt lat="43.60068" lon="3.14206">
        <ele>180.946245</ele>
        <time>2025-10-23T10:19:45Z</time>
      </trkpt>
      <trkpt lat="43.60071" lon="3.14211">
        <ele>180.986808</ele>
        <time>2025-10-23T10:19:46Z</time>
      </trkpt>
      <trkpt lat="43.60074" lon="3.14215">
        <ele>181.025848</ele>
        <time>2025-10-23T10:19:47Z</time>
      </trkpt>
      <trkpt lat="43.60077" lon="3.1422">
        <ele>181.066614</ele>
        <time>2025-10-23T10:19:48Z</time>
      </trkpt>
      <trkpt lat="43.6008" lon="3.14224">
        <ele>181.107054</ele>
        <time>2025-10-23T10:19:49Z</time>
      </trkpt>
      <trkpt lat="43.60083" lon="3.14228">
        <ele>181.147686</ele>
        <time>2025-10-23T10:19:50Z</time>
      </trkpt>
      <trkpt lat="43.60086" lon="3.14232">
        <ele>181.188099</ele>
        <time>2025-10-23T10:19:51Z</time>
      </trkpt>
      <trkpt lat="43.6009" lon="3.14237">
        <ele>181.229858</ele>
        <time>2025-10-23T10:19:52Z</time>
      </trkpt>
      <trkpt lat="43.60093" lon="3.14241">
        <ele>181.269364</ele>
        <time>2025-10-23T10:19:53Z</time>
      </trkpt>
      <trkpt lat="43.60096" lon="3.14245">
        <ele>181.306159</ele>
        <time>2025-10-23T10:19:54Z</time>
      </trkpt>
      <trkpt lat="43.60098" lon="3.14248">
        <ele>181.341827</ele>
        <time>2025-10-23T10:19:55Z</time>
      </trkpt>
      <trkpt lat="43.60101" lon="3.14252">
        <ele>181.376559</ele>
        <time>2025-10-23T10:19:56Z</time>
      </trkpt>
      <trkpt lat="43.60104" lon="3.14256">
        <ele>181.390435</ele>
        <time>2025-10-23T10:19:57Z</time>
      </trkpt>
      <trkpt lat="43.60106" lon="3.1426">
        <ele>181.404055</ele>
        <time>2025-10-23T10:19:58Z</time>
      </trkpt>
      <trkpt lat="43.60109" lon="3.14263">
        <ele>181.418459</ele>
        <time>2025-10-23T10:19:59Z</time>
      </trkpt>
      <trkpt lat="43.60112" lon="3.14267">
        <ele>181.433239</ele>
        <time>2025-10-23T10:20:00Z</time>
      </trkpt>
      <trkpt lat="43.60114" lon="3.14272">
        <ele>181.448355</ele>
        <time>2025-10-23T10:20:01Z</time>
      </trkpt>
      <trkpt lat="43.60117" lon="3.14276">
        <ele>181.463877</ele>
        <time>2025-10-23T10:20:02Z</time>
      </trkpt>
      <trkpt lat="43.6012" lon="3.1428">
        <ele>181.479195</ele>
        <time>2025-10-23T10:20:03Z</time>
      </trkpt>
      <trkpt lat="43.60122" lon="3.14284">
        <ele>181.493716</ele>
        <time>2025-10-23T10:20:04Z</time>
      </trkpt>
      <trkpt lat="43.60125" lon="3.14288">
        <ele>181.507983</ele>
        <time>2025-10-23T10:20:05Z</time>
      </trkpt>
      <trkpt lat="43.60128" lon="3.14293">
        <ele>181.523248</ele>
        <time>2025-10-23T10:20:06Z</time>
      </trkpt>
      <trkpt lat="43.6013" lon="3.14297">
        <ele>181.538325</ele>
        <time>2025-10-23T10:20:07Z</time>
      </trkpt>
      <trkpt lat="43.60133" lon="3.14301">
        <ele>181.553493</ele>
        <time>2025-10-23T10:20:08Z</time>
      </trkpt>
      <trkpt lat="43.60136" lon="3.14305">
        <ele>181.568408</ele>
        <time>2025-10-23T10:20:09Z</time>
      </trkpt>
      <trkpt lat="43.60138" lon="3.1431">
        <ele>181.584321</ele>
        <time>2025-10-23T10:20:10Z</time>
      </trkpt>
      <trkpt lat="43.60141" lon="3.14314">
        <ele>181.599815</ele>
        <time>2025-10-23T10:20:11Z</time>
      </trkpt>
      <trkpt lat="43.60143" lon="3.14319">
        <ele>181.615132</ele>
        <time>2025-10-23T10:20:12Z</time>
      </trkpt>
      <trkpt lat="43.60146" lon="3.14322">
        <ele>181.629729</ele>
        <time>2025-10-23T10:20:13Z</time>
      </trkpt>
      <trkpt lat="43.6015" lon="3.14325">
        <ele>181.643954</ele>
        <time>2025-10-23T10:20:14Z</time>
      </trkpt>
      <trkpt lat="43.60153" lon="3.14326">
        <ele>181.657784</ele>
        <time>2025-10-23T10:20:15Z</time>
      </trkpt>
      <trkpt lat="43.60157" lon="3.14326">
        <ele>181.671336</ele>
        <time>2025-10-23T10:20:16Z</time>
      </trkpt>
      <trkpt lat="43.6016" lon="3.14323">
        <ele>181.683418</ele>
        <time>2025-10-23T10:20:17Z</time>
      </trkpt>
      <trkpt lat="43.60162" lon="3.14322">
        <ele>181.694166</ele>
        <time>2025-10-23T10:20:18Z</time>
      </trkpt>
      <trkpt lat="43.60165" lon="3.14322">
        <ele>181.704604</ele>
        <time>2025-10-23T10:20:19Z</time>
      </trkpt>
      <trkpt lat="43.60168" lon="3.14323">
        <ele>181.715231</ele>
        <time>2025-10-23T10:20:20Z</time>
      </trkpt>
      <trkpt lat="43.60171" lon="3.14325">
        <ele>181.726299</ele>
        <time>2025-10-23T10:20:21Z</time>
      </trkpt>
      <trkpt lat="43.60174" lon="3.14327">
        <ele>181.73945</ele>
        <time>2025-10-23T10:20:22Z</time>
      </trkpt>
      <trkpt lat="43.60177" lon="3.1433">
        <ele>181.753519</ele>
        <time>2025-10-23T10:20:23Z</time>
      </trkpt>
      <trkpt lat="43.6018" lon="3.14333">
        <ele>181.769331</ele>
        <time>2025-10-23T10:20:24Z</time>
      </trkpt>
      <trkpt lat="43.60184" lon="3.14336">
        <ele>181.786379</ele>
        <time>2025-10-23T10:20:25Z</time>
      </trkpt>
      <trkpt lat="43.60189" lon="3.14339">
        <ele>181.804164</ele>
        <time>2025-10-23T10:20:26Z</time>
      </trkpt>
      <trkpt lat="43.60193" lon="3.14342">
        <ele>181.82161</ele>
        <time>2025-10-23T10:20:27Z</time>
      </trkpt>
      <trkpt lat="43.60198" lon="3.14344">
        <ele>181.839099</ele>
        <time>2025-10-23T10:20:28Z</time>
      </trkpt>
      <trkpt lat="43.60202" lon="3.14345">
        <ele>181.85709</ele>
        <time>2025-10-23T10:20:29Z</time>
      </trkpt>
      <trkpt lat="43.60207" lon="3.14347">
        <ele>181.875586</ele>
        <time>2025-10-23T10:20:30Z</time>
      </trkpt>
      <trkpt lat="43.60212" lon="3.14348">
        <ele>181.894403</ele>
        <time>2025-10-23T10:20:31Z</time>
      </trkpt>
      <trkpt lat="43.60217" lon="3.14348">
        <ele>181.912316</ele>
        <time>2025-10-23T10:20:32Z</time>
      </trkpt>
      <trkpt lat="43.60222" lon="3.14349">
        <ele>181.930319</ele>
        <time>2025-10-23T10:20:33Z</time>
      </trkpt>
      <trkpt lat="43.60227" lon="3.1435">
        <ele>181.948449</ele>
        <time>2025-10-23T10:20:34Z</time>
      </trkpt>
      <trkpt lat="43.60231" lon="3.14352">
        <ele>181.966944</ele>
        <time>2025-10-23T10:20:35Z</time>
      </trkpt>
      <trkpt lat="43.60236" lon="3.14353">
        <ele>181.985395</ele>
        <time>2025-10-23T10:20:36Z</time>
      </trkpt>
      <trkpt lat="43.60241" lon="3.14354">
        <ele>182.003845</ele>
        <time>2025-10-23T10:20:37Z</time>
      </trkpt>
      <trkpt lat="43.60246" lon="3.14356">
        <ele>182.022479</ele>
        <time>2025-10-23T10:20:38Z</time>
      </trkpt>
      <trkpt lat="43.60251" lon="3.14359">
        <ele>182.041503</ele>
        <time>2025-10-23T10:20:39Z</time>
      </trkpt>
      <trkpt lat="43.60256" lon="3.14362">
        <ele>182.132575</ele>
        <time>2025-10-23T10:20:40Z</time>
      </trkpt>
      <trkpt lat="43.6026" lon="3.14366">
        <ele>182.231437</ele>
        <time>2025-10-23T10:20:41Z</time>
      </trkpt>
      <trkpt lat="43.60265" lon="3.1437">
        <ele>182.331045</ele>
        <time>2025-10-23T10:20:42Z</time>
      </trkpt>
      <trkpt lat="43.60269" lon="3.14374">
        <ele>182.427742</ele>
        <time>2025-10-23T10:20:43Z</time>
      </trkpt>
      <trkpt lat="43.60273" lon="3.14379">
        <ele>182.525299</ele>
        <time>2025-10-23T10:20:44Z</time>
      </trkpt>
      <trkpt lat="43.60276" lon="3.14383">
        <ele>182.621396</ele>
        <time>2025-10-23T10:20:45Z</time>
      </trkpt>
      <trkpt lat="43.6028" lon="3.14388">
        <ele>182.714623</ele>
        <time>2025-10-23T10:20:46Z</time>
      </trkpt>
      <trkpt lat="43.60284" lon="3.14392">
        <ele>182.811972</ele>
        <time>2025-10-23T10:20:47Z</time>
      </trkpt>
      <trkpt lat="43.60288" lon="3.14396">
        <ele>182.90769</ele>
        <time>2025-10-23T10:20:48Z</time>
      </trkpt>
      <trkpt lat="43.60293" lon="3.144">
        <ele>183.01137</ele>
        <time>2025-10-23T10:20:49Z</time>
      </trkpt>
      <trkpt lat="43.60297" lon="3.14404">
        <ele>183.11422</ele>
        <time>2025-10-23T10:20:50Z</time>
      </trkpt>
      <trkpt lat="43.60301" lon="3.1441">
        <ele>183.219481</ele>
        <time>2025-10-23T10:20:51Z</time>
      </trkpt>
      <trkpt lat="43.60305" lon="3.14415">
        <ele>183.321273</ele>
        <time>2025-10-23T10:20:52Z</time>
      </trkpt>
      <trkpt lat="43.60309" lon="3.1442">
        <ele>183.417483</ele>
        <time>2025-10-23T10:20:53Z</time>
      </trkpt>
      <trkpt lat="43.60312" lon="3.14425">
        <ele>183.515003</ele>
        <time>2025-10-23T10:20:54Z</time>
      </trkpt>
      <trkpt lat="43.60316" lon="3.1443">
        <ele>183.607744</ele>
        <time>2025-10-23T10:20:55Z</time>
      </trkpt>
      <trkpt lat="43.60319" lon="3.14434">
        <ele>183.683626</ele>
        <time>2025-10-23T10:20:56Z</time>
      </trkpt>
      <trkpt lat="43.60321" lon="3.14439">
        <ele>183.764703</ele>
        <time>2025-10-23T10:20:57Z</time>
      </trkpt>
      <trkpt lat="43.60324" lon="3.14443">
        <ele>183.847186</ele>
        <time>2025-10-23T10:20:58Z</time>
      </trkpt>
      <trkpt lat="43.60327" lon="3.14447">
        <ele>183.931243</ele>
        <time>2025-10-23T10:20:59Z</time>
      </trkpt>
      <trkpt lat="43.6033" lon="3.14452">
        <ele>184.013525</ele>
        <time>2025-10-23T10:21:00Z</time>
      </trkpt>
      <trkpt lat="43.60333" lon="3.14457">
        <ele>184.099566</ele>
        <time>2025-10-23T10:21:01Z</time>
      </trkpt>
      <trkpt lat="43.60336" lon="3.14461">
        <ele>184.178747</ele>
        <time>2025-10-23T10:21:02Z</time>
      </trkpt>
      <trkpt lat="43.60339" lon="3.14465">
        <ele>184.259449</ele>
        <time>2025-10-23T10:21:03Z</time>
      </trkpt>
      <trkpt lat="43.60342" lon="3.14469">
        <ele>184.340694</ele>
        <time>2025-10-23T10:21:04Z</time>
      </trkpt>
      <trkpt lat="43.60346" lon="3.14472">
        <ele>184.42194</ele>
        <time>2025-10-23T10:21:05Z</time>
      </trkpt>
      <trkpt lat="43.60349" lon="3.14477">
        <ele>184.504056</ele>
        <time>2025-10-23T10:21:06Z</time>
      </trkpt>
      <trkpt lat="43.60353" lon="3.14481">
        <ele>184.596384</ele>
        <time>2025-10-23T10:21:07Z</time>
      </trkpt>
      <trkpt lat="43.60356" lon="3.14485">
        <ele>184.680568</ele>
        <time>2025-10-23T10:21:08Z</time>
      </trkpt>
      <trkpt lat="43.60359" lon="3.14488">
        <ele>184.758369</ele>
        <time>2025-10-23T10:21:09Z</time>
      </trkpt>
      <trkpt lat="43.60362" lon="3.14491">
        <ele>184.826884</ele>
        <time>2025-10-23T10:21:10Z</time>
      </trkpt>
      <trkpt lat="43.60365" lon="3.14494">
        <ele>184.885417</ele>
        <time>2025-10-23T10:21:11Z</time>
      </trkpt>
      <trkpt lat="43.60367" lon="3.14496">
        <ele>184.937843</ele>
        <time>2025-10-23T10:21:12Z</time>
      </trkpt>
      <trkpt lat="43.60368" lon="3.14499">
        <ele>184.987763</ele>
        <time>2025-10-23T10:21:13Z</time>
      </trkpt>
      <trkpt lat="43.60371" lon="3.14503">
        <ele>185.050195</ele>
        <time>2025-10-23T10:21:14Z</time>
      </trkpt>
      <trkpt lat="43.60373" lon="3.14505">
        <ele>185.105848</ele>
        <time>2025-10-23T10:21:15Z</time>
      </trkpt>
      <trkpt lat="43.60375" lon="3.14508">
        <ele>185.166712</ele>
        <time>2025-10-23T10:21:16Z</time>
      </trkpt>
      <trkpt lat="43.60379" lon="3.1451">
        <ele>185.231064</ele>
        <time>2025-10-23T10:21:17Z</time>
      </trkpt>
      <trkpt lat="43.60382" lon="3.14513">
        <ele>185.308915</ele>
        <time>2025-10-23T10:21:18Z</time>
      </trkpt>
      <trkpt lat="43.60386" lon="3.14516">
        <ele>185.388505</ele>
        <time>2025-10-23T10:21:19Z</time>
      </trkpt>
      <trkpt lat="43.60389" lon="3.14518">
        <ele>185.488956</ele>
        <time>2025-10-23T10:21:20Z</time>
      </trkpt>
      <trkpt lat="43.60392" lon="3.1452">
        <ele>185.682755</ele>
        <time>2025-10-23T10:21:21Z</time>
      </trkpt>
      <trkpt lat="43.60394" lon="3.14522">
        <ele>185.849477</ele>
        <time>2025-10-23T10:21:22Z</time>
      </trkpt>
      <trkpt lat="43.60397" lon="3.14523">
        <ele>186.000318</ele>
        <time>2025-10-23T10:21:23Z</time>
      </trkpt>
      <trkpt lat="43.604" lon="3.14526">
        <ele>186.209689</ele>
        <time>2025-10-23T10:21:24Z</time>
      </trkpt>
      <trkpt lat="43.60403" lon="3.14527">
        <ele>186.388839</ele>
        <time>2025-10-23T10:21:25Z</time>
      </trkpt>
      <trkpt lat="43.60405" lon="3.14529">
        <ele>186.55388</ele>
        <time>2025-10-23T10:21:26Z</time>
      </trkpt>
      <trkpt lat="43.60408" lon="3.1453">
        <ele>186.721359</ele>
        <time>2025-10-23T10:21:27Z</time>
      </trkpt>
      <trkpt lat="43.60411" lon="3.14532">
        <ele>186.909363</ele>
        <time>2025-10-23T10:21:28Z</time>
      </trkpt>
      <trkpt lat="43.60414" lon="3.14534">
        <ele>187.11548</ele>
        <time>2025-10-23T10:21:29Z</time>
      </trkpt>
      <trkpt lat="43.60417" lon="3.14536">
        <ele>187.310597</ele>
        <time>2025-10-23T10:21:30Z</time>
      </trkpt>
      <trkpt lat="43.6042" lon="3.14538">
        <ele>187.475638</ele>
        <time>2025-10-23T10:21:31Z</time>
      </trkpt>
      <trkpt lat="43.60422" lon="3.14539">
        <ele>187.637598</ele>
        <time>2025-10-23T10:21:32Z</time>
      </trkpt>
      <trkpt lat="43.60424" lon="3.14541">
        <ele>187.780173</ele>
        <time>2025-10-23T10:21:33Z</time>
      </trkpt>
      <trkpt lat="43.60428" lon="3.14543">
        <ele>187.985904</ele>
        <time>2025-10-23T10:21:34Z</time>
      </trkpt>
      <trkpt lat="43.6043" lon="3.14545">
        <ele>188.158197</ele>
        <time>2025-10-23T10:21:35Z</time>
      </trkpt>
      <trkpt lat="43.60432" lon="3.14547">
        <ele>188.324521</ele>
        <time>2025-10-23T10:21:36Z</time>
      </trkpt>
      <trkpt lat="43.60435" lon="3.14549">
        <ele>188.500468</ele>
        <time>2025-10-23T10:21:37Z</time>
      </trkpt>
      <trkpt lat="43.60438" lon="3.14551">
        <ele>188.679924</ele>
        <time>2025-10-23T10:21:38Z</time>
      </trkpt>
      <trkpt lat="43.6044" lon="3.14553">
        <ele>188.83272</ele>
        <time>2025-10-23T10:21:39Z</time>
      </trkpt>
      <trkpt lat="43.60442" lon="3.14554">
        <ele>188.94636</ele>
        <time>2025-10-23T10:21:40Z</time>
      </trkpt>
      <trkpt lat="43.60445" lon="3.14556">
        <ele>189.139382</ele>
        <time>2025-10-23T10:21:41Z</time>
      </trkpt>
      <trkpt lat="43.60447" lon="3.14558">
        <ele>189.28339</ele>
        <time>2025-10-23T10:21:42Z</time>
      </trkpt>
      <trkpt lat="43.60449" lon="3.14559">
        <ele>189.439484</ele>
        <time>2025-10-23T10:21:43Z</time>
      </trkpt>
      <trkpt lat="43.60451" lon="3.14561">
        <ele>189.579642</ele>
        <time>2025-10-23T10:21:44Z</time>
      </trkpt>
      <trkpt lat="43.60454" lon="3.14562">
        <ele>189.741673</ele>
        <time>2025-10-23T10:21:45Z</time>
      </trkpt>
      <trkpt lat="43.60456" lon="3.14563">
        <ele>189.866258</ele>
        <time>2025-10-23T10:21:46Z</time>
      </trkpt>
      <trkpt lat="43.60458" lon="3.14565">
        <ele>190.017256</ele>
        <time>2025-10-23T10:21:47Z</time>
      </trkpt>
      <trkpt lat="43.60461" lon="3.14566">
        <ele>190.162817</ele>
        <time>2025-10-23T10:21:48Z</time>
      </trkpt>
      <trkpt lat="43.60463" lon="3.14567">
        <ele>190.310037</ele>
        <time>2025-10-23T10:21:49Z</time>
      </trkpt>
      <trkpt lat="43.60465" lon="3.14569">
        <ele>190.460878</ele>
        <time>2025-10-23T10:21:50Z</time>
      </trkpt>
      <trkpt lat="43.60468" lon="3.1457">
        <ele>190.618888</ele>
        <time>2025-10-23T10:21:51Z</time>
      </trkpt>
      <trkpt lat="43.6047" lon="3.14571">
        <ele>190.76455</ele>
        <time>2025-10-23T10:21:52Z</time>
      </trkpt>
      <trkpt lat="43.60472" lon="3.14573">
        <ele>190.904707</ele>
        <time>2025-10-23T10:21:53Z</time>
      </trkpt>
      <trkpt lat="43.60475" lon="3.14574">
        <ele>191.083857</ele>
        <time>2025-10-23T10:21:54Z</time>
      </trkpt>
      <trkpt lat="43.60478" lon="3.14576">
        <ele>191.250995</ele>
        <time>2025-10-23T10:21:55Z</time>
      </trkpt>
      <trkpt lat="43.60479" lon="3.14578">
        <ele>191.378721</ele>
        <time>2025-10-23T10:21:56Z</time>
      </trkpt>
      <trkpt lat="43.60482" lon="3.1458">
        <ele>191.543856</ele>
        <time>2025-10-23T10:21:57Z</time>
      </trkpt>
      <trkpt lat="43.60484" lon="3.14582">
        <ele>191.703051</ele>
        <time>2025-10-23T10:21:58Z</time>
      </trkpt>
      <trkpt lat="43.60486" lon="3.14584">
        <ele>191.871106</ele>
        <time>2025-10-23T10:21:59Z</time>
      </trkpt>
      <trkpt lat="43.60489" lon="3.14587">
        <ele>192.045198</ele>
        <time>2025-10-23T10:22:00Z</time>
      </trkpt>
      <trkpt lat="43.6049" lon="3.14589">
        <ele>192.183212</ele>
        <time>2025-10-23T10:22:01Z</time>
      </trkpt>
      <trkpt lat="43.60492" lon="3.14591">
        <ele>192.330369</ele>
        <time>2025-10-23T10:22:02Z</time>
      </trkpt>
      <trkpt lat="43.60494" lon="3.14593">
        <ele>192.455839</ele>
        <time>2025-10-23T10:22:03Z</time>
      </trkpt>
      <trkpt lat="43.60496" lon="3.14594">
        <ele>192.574933</ele>
        <time>2025-10-23T10:22:04Z</time>
      </trkpt>
      <trkpt lat="43.60497" lon="3.14596">
        <ele>192.703093</ele>
        <time>2025-10-23T10:22:05Z</time>
      </trkpt>
      <trkpt lat="43.605" lon="3.14598">
        <ele>192.855073</ele>
        <time>2025-10-23T10:22:06Z</time>
      </trkpt>
      <trkpt lat="43.60501" lon="3.146">
        <ele>192.988666</ele>
        <time>2025-10-23T10:22:07Z</time>
      </trkpt>
      <trkpt lat="43.60503" lon="3.14602">
        <ele>193.114136</ele>
        <time>2025-10-23T10:22:08Z</time>
      </trkpt>
      <trkpt lat="43.60505" lon="3.14603">
        <ele>193.231206</ele>
        <time>2025-10-23T10:22:09Z</time>
      </trkpt>
      <trkpt lat="43.60507" lon="3.14604">
        <ele>193.366864</ele>
        <time>2025-10-23T10:22:10Z</time>
      </trkpt>
      <trkpt lat="43.60509" lon="3.14606">
        <ele>193.507022</ele>
        <time>2025-10-23T10:22:11Z</time>
      </trkpt>
      <trkpt lat="43.60512" lon="3.14607">
        <ele>193.660703</ele>
        <time>2025-10-23T10:22:12Z</time>
      </trkpt>
      <trkpt lat="43.60514" lon="3.14608">
        <ele>193.814384</ele>
        <time>2025-10-23T10:22:13Z</time>
      </trkpt>
      <trkpt lat="43.60517" lon="3.14609">
        <ele>193.983307</ele>
        <time>2025-10-23T10:22:14Z</time>
      </trkpt>
      <trkpt lat="43.60519" lon="3.14611">
        <ele>194.130353</ele>
        <time>2025-10-23T10:22:15Z</time>
      </trkpt>
      <trkpt lat="43.60521" lon="3.14613">
        <ele>194.289549</ele>
        <time>2025-10-23T10:22:16Z</time>
      </trkpt>
      <trkpt lat="43.60523" lon="3.14615">
        <ele>194.426006</ele>
        <time>2025-10-23T10:22:17Z</time>
      </trkpt>
      <trkpt lat="43.60525" lon="3.14617">
        <ele>194.551386</ele>
        <time>2025-10-23T10:22:18Z</time>
      </trkpt>
      <trkpt lat="43.60527" lon="3.14618">
        <ele>194.672385</ele>
        <time>2025-10-23T10:22:19Z</time>
      </trkpt>
      <trkpt lat="43.60529" lon="3.1462">
        <ele>194.82216</ele>
        <time>2025-10-23T10:22:20Z</time>
      </trkpt>
      <trkpt lat="43.60531" lon="3.14622">
        <ele>194.983776</ele>
        <time>2025-10-23T10:22:21Z</time>
      </trkpt>
      <trkpt lat="43.60533" lon="3.14625">
        <ele>195.12741</ele>
        <time>2025-10-23T10:22:22Z</time>
      </trkpt>
      <trkpt lat="43.60535" lon="3.14627">
        <ele>195.275397</ele>
        <time>2025-10-23T10:22:23Z</time>
      </trkpt>
      <trkpt lat="43.60537" lon="3.14629">
        <ele>195.424809</ele>
        <time>2025-10-23T10:22:24Z</time>
      </trkpt>
      <trkpt lat="43.60539" lon="3.14631">
        <ele>195.572467</ele>
        <time>2025-10-23T10:22:25Z</time>
      </trkpt>
      <trkpt lat="43.60541" lon="3.14633">
        <ele>195.736339</ele>
        <time>2025-10-23T10:22:26Z</time>
      </trkpt>
      <trkpt lat="43.60543" lon="3.14635">
        <ele>195.898732</ele>
        <time>2025-10-23T10:22:27Z</time>
      </trkpt>
      <trkpt lat="43.60545" lon="3.14638">
        <ele>195.998078</ele>
        <time>2025-10-23T10:22:28Z</time>
      </trkpt>
      <trkpt lat="43.60548" lon="3.1464">
        <ele>196.03689</ele>
        <time>2025-10-23T10:22:29Z</time>
      </trkpt>
      <trkpt lat="43.6055" lon="3.14642">
        <ele>196.079192</ele>
        <time>2025-10-23T10:22:30Z</time>
      </trkpt>
      <trkpt lat="43.60552" lon="3.14645">
        <ele>196.120313</ele>
        <time>2025-10-23T10:22:31Z</time>
      </trkpt>
      <trkpt lat="43.60555" lon="3.14647">
        <ele>196.16393</ele>
        <time>2025-10-23T10:22:32Z</time>
      </trkpt>
      <trkpt lat="43.60558" lon="3.14648">
        <ele>196.2069</ele>
        <time>2025-10-23T10:22:33Z</time>
      </trkpt>
      <trkpt lat="43.6056" lon="3.1465">
        <ele>196.251191</ele>
        <time>2025-10-23T10:22:34Z</time>
      </trkpt>
      <trkpt lat="43.60563" lon="3.14652">
        <ele>196.297232</ele>
        <time>2025-10-23T10:22:35Z</time>
      </trkpt>
      <trkpt lat="43.60566" lon="3.14653">
        <ele>196.345155</ele>
        <time>2025-10-23T10:22:36Z</time>
      </trkpt>
      <trkpt lat="43.6057" lon="3.14655">
        <ele>196.393763</ele>
        <time>2025-10-23T10:22:37Z</time>
      </trkpt>
      <trkpt lat="43.60573" lon="3.14657">
        <ele>196.446125</ele>
        <time>2025-10-23T10:22:38Z</time>
      </trkpt>
      <trkpt lat="43.60576" lon="3.14658">
        <ele>196.49814</ele>
        <time>2025-10-23T10:22:39Z</time>
      </trkpt>
      <trkpt lat="43.6058" lon="3.14659">
        <ele>196.551768</ele>
        <time>2025-10-23T10:22:40Z</time>
      </trkpt>
      <trkpt lat="43.60584" lon="3.14661">
        <ele>196.605396</ele>
        <time>2025-10-23T10:22:41Z</time>
      </trkpt>
      <trkpt lat="43.60587" lon="3.14662">
        <ele>196.658787</ele>
        <time>2025-10-23T10:22:42Z</time>
      </trkpt>
      <trkpt lat="43.60591" lon="3.14663">
        <ele>196.712415</ele>
        <time>2025-10-23T10:22:43Z</time>
      </trkpt>
      <trkpt lat="43.60595" lon="3.14664">
        <ele>196.771689</ele>
        <time>2025-10-23T10:22:44Z</time>
      </trkpt>
      <trkpt lat="43.60599" lon="3.14665">
        <ele>196.82752</ele>
        <time>2025-10-23T10:22:45Z</time>
      </trkpt>
      <trkpt lat="43.60602" lon="3.14666">
        <ele>196.883742</ele>
        <time>2025-10-23T10:22:46Z</time>
      </trkpt>
      <trkpt lat="43.60606" lon="3.14667">
        <ele>196.938338</ele>
        <time>2025-10-23T10:22:47Z</time>
      </trkpt>
      <trkpt lat="43.6061" lon="3.14668">
        <ele>196.990559</ele>
        <time>2025-10-23T10:22:48Z</time>
      </trkpt>
      <trkpt lat="43.60613" lon="3.1467">
        <ele>197.045011</ele>
        <time>2025-10-23T10:22:49Z</time>
      </trkpt>
      <trkpt lat="43.60617" lon="3.14671">
        <ele>197.102853</ele>
        <time>2025-10-23T10:22:50Z</time>
      </trkpt>
      <trkpt lat="43.60621" lon="3.14673">
        <ele>197.159543</ele>
        <time>2025-10-23T10:22:51Z</time>
      </trkpt>
      <trkpt lat="43.60625" lon="3.14674">
        <ele>197.216234</ele>
        <time>2025-10-23T10:22:52Z</time>
      </trkpt>
      <trkpt lat="43.60628" lon="3.14675">
        <ele>197.270392</ele>
        <time>2025-10-23T10:22:53Z</time>
      </trkpt>
      <trkpt lat="43.60632" lon="3.14677">
        <ele>197.329897</ele>
        <time>2025-10-23T10:22:54Z</time>
      </trkpt>
      <trkpt lat="43.60636" lon="3.14678">
        <ele>197.389119</ele>
        <time>2025-10-23T10:22:55Z</time>
      </trkpt>
      <trkpt lat="43.6064" lon="3.1468">
        <ele>197.449139</ele>
        <time>2025-10-23T10:22:56Z</time>
      </trkpt>
      <trkpt lat="43.60644" lon="3.14682">
        <ele>197.513627</ele>
        <time>2025-10-23T10:22:57Z</time>
      </trkpt>
      <trkpt lat="43.60649" lon="3.14683">
        <ele>197.578396</ele>
        <time>2025-10-23T10:22:58Z</time>
      </trkpt>
      <trkpt lat="43.60653" lon="3.14685">
        <ele>197.644558</ele>
        <time>2025-10-23T10:22:59Z</time>
      </trkpt>
      <trkpt lat="43.60658" lon="3.14687">
        <ele>197.712399</ele>
        <time>2025-10-23T10:23:00Z</time>
      </trkpt>
      <trkpt lat="43.60662" lon="3.14688">
        <ele>197.781091</ele>
        <time>2025-10-23T10:23:01Z</time>
      </trkpt>
      <trkpt lat="43.60667" lon="3.1469">
        <ele>197.848933</ele>
        <time>2025-10-23T10:23:02Z</time>
      </trkpt>
      <trkpt lat="43.60671" lon="3.14692">
        <ele>197.916011</ele>
        <time>2025-10-23T10:23:03Z</time>
      </trkpt>
      <trkpt lat="43.60675" lon="3.14694">
        <ele>197.983424</ele>
        <time>2025-10-23T10:23:04Z</time>
      </trkpt>
      <trkpt lat="43.6068" lon="3.14696">
        <ele>198.04947</ele>
        <time>2025-10-23T10:23:05Z</time>
      </trkpt>
      <trkpt lat="43.60684" lon="3.14698">
        <ele>198.112793</ele>
        <time>2025-10-23T10:23:06Z</time>
      </trkpt>
      <trkpt lat="43.60688" lon="3.147">
        <ele>198.174395</ele>
        <time>2025-10-23T10:23:07Z</time>
      </trkpt>
      <trkpt lat="43.60692" lon="3.14703">
        <ele>198.242158</ele>
        <time>2025-10-23T10:23:08Z</time>
      </trkpt>
      <trkpt lat="43.60696" lon="3.14705">
        <ele>198.304506</ele>
        <time>2025-10-23T10:23:09Z</time>
      </trkpt>
      <trkpt lat="43.60701" lon="3.14707">
        <ele>198.375712</ele>
        <time>2025-10-23T10:23:10Z</time>
      </trkpt>
      <trkpt lat="43.60705" lon="3.14709">
        <ele>198.440777</ele>
        <time>2025-10-23T10:23:11Z</time>
      </trkpt>
      <trkpt lat="43.60709" lon="3.14711">
        <ele>198.503743</ele>
        <time>2025-10-23T10:23:12Z</time>
      </trkpt>
      <trkpt lat="43.60713" lon="3.14713">
        <ele>198.566368</ele>
        <time>2025-10-23T10:23:13Z</time>
      </trkpt>
      <trkpt lat="43.60717" lon="3.14715">
        <ele>198.528102</ele>
        <time>2025-10-23T10:23:14Z</time>
      </trkpt>
      <trkpt lat="43.60722" lon="3.14717">
        <ele>198.443322</ele>
        <time>2025-10-23T10:23:15Z</time>
      </trkpt>
      <trkpt lat="43.60725" lon="3.14719">
        <ele>198.366047</ele>
        <time>2025-10-23T10:23:16Z</time>
      </trkpt>
      <trkpt lat="43.60729" lon="3.14722">
        <ele>198.282387</ele>
        <time>2025-10-23T10:23:17Z</time>
      </trkpt>
      <trkpt lat="43.60734" lon="3.14724">
        <ele>198.193528</ele>
        <time>2025-10-23T10:23:18Z</time>
      </trkpt>
      <trkpt lat="43.60738" lon="3.14726">
        <ele>198.098183</ele>
        <time>2025-10-23T10:23:19Z</time>
      </trkpt>
      <trkpt lat="43.60743" lon="3.14728">
        <ele>198.010692</ele>
        <time>2025-10-23T10:23:20Z</time>
      </trkpt>
      <trkpt lat="43.60747" lon="3.14731">
        <ele>197.919423</ele>
        <time>2025-10-23T10:23:21Z</time>
      </trkpt>
      <trkpt lat="43.60751" lon="3.14734">
        <ele>197.825724</ele>
        <time>2025-10-23T10:23:22Z</time>
      </trkpt>
      <trkpt lat="43.60756" lon="3.14737">
        <ele>197.733363</ele>
        <time>2025-10-23T10:23:23Z</time>
      </trkpt>
      <trkpt lat="43.6076" lon="3.1474">
        <ele>197.63861</ele>
        <time>2025-10-23T10:23:24Z</time>
      </trkpt>
      <trkpt lat="43.60765" lon="3.14742">
        <ele>197.537068</ele>
        <time>2025-10-23T10:23:25Z</time>
      </trkpt>
      <trkpt lat="43.6077" lon="3.14744">
        <ele>197.435973</ele>
        <time>2025-10-23T10:23:26Z</time>
      </trkpt>
      <trkpt lat="43.60775" lon="3.14746">
        <ele>197.336495</ele>
        <time>2025-10-23T10:23:27Z</time>
      </trkpt>
      <trkpt lat="43.6078" lon="3.14749">
        <ele>197.226328</ele>
        <time>2025-10-23T10:23:28Z</time>
      </trkpt>
      <trkpt lat="43.60786" lon="3.14752">
        <ele>197.117474</ele>
        <time>2025-10-23T10:23:29Z</time>
      </trkpt>
      <trkpt lat="43.60791" lon="3.14755">
        <ele>196.999443</ele>
        <time>2025-10-23T10:23:30Z</time>
      </trkpt>
      <trkpt lat="43.60797" lon="3.14758">
        <ele>196.882649</ele>
        <time>2025-10-23T10:23:31Z</time>
      </trkpt>
      <trkpt lat="43.60802" lon="3.14762">
        <ele>196.767625</ele>
        <time>2025-10-23T10:23:32Z</time>
      </trkpt>
      <trkpt lat="43.60808" lon="3.14765">
        <ele>196.653139</ele>
        <time>2025-10-23T10:23:33Z</time>
      </trkpt>
      <trkpt lat="43.60814" lon="3.14769">
        <ele>196.535793</ele>
        <time>2025-10-23T10:23:34Z</time>
      </trkpt>
      <trkpt lat="43.60819" lon="3.14773">
        <ele>196.41251</ele>
        <time>2025-10-23T10:23:35Z</time>
      </trkpt>
      <trkpt lat="43.60825" lon="3.14776">
        <ele>196.297957</ele>
        <time>2025-10-23T10:23:36Z</time>
      </trkpt>
      <trkpt lat="43.6083" lon="3.14781">
        <ele>196.171526</ele>
        <time>2025-10-23T10:23:37Z</time>
      </trkpt>
      <trkpt lat="43.60836" lon="3.14786">
        <ele>196.048182</ele>
        <time>2025-10-23T10:23:38Z</time>
      </trkpt>
      <trkpt lat="43.60841" lon="3.14791">
        <ele>195.92266</ele>
        <time>2025-10-23T10:23:39Z</time>
      </trkpt>
      <trkpt lat="43.60847" lon="3.14796">
        <ele>195.786777</ele>
        <time>2025-10-23T10:23:40Z</time>
      </trkpt>
      <trkpt lat="43.60853" lon="3.14802">
        <ele>195.646169</ele>
        <time>2025-10-23T10:23:41Z</time>
      </trkpt>
      <trkpt lat="43.6086" lon="3.14807">
        <ele>195.503729</ele>
        <time>2025-10-23T10:23:42Z</time>
      </trkpt>
      <trkpt lat="43.60865" lon="3.14813">
        <ele>195.365546</ele>
        <time>2025-10-23T10:23:43Z</time>
      </trkpt>
      <trkpt lat="43.60871" lon="3.14819">
        <ele>195.224995</ele>
        <time>2025-10-23T10:23:44Z</time>
      </trkpt>
      <trkpt lat="43.60877" lon="3.14825">
        <ele>195.056947</ele>
        <time>2025-10-23T10:23:45Z</time>
      </trkpt>
      <trkpt lat="43.60883" lon="3.14831">
        <ele>194.828177</ele>
        <time>2025-10-23T10:23:46Z</time>
      </trkpt>
      <trkpt lat="43.60889" lon="3.14837">
        <ele>194.614109</ele>
        <time>2025-10-23T10:23:47Z</time>
      </trkpt>
      <trkpt lat="43.60895" lon="3.14843">
        <ele>194.388911</ele>
        <time>2025-10-23T10:23:48Z</time>
      </trkpt>
      <trkpt lat="43.60901" lon="3.14849">
        <ele>194.16872</ele>
        <time>2025-10-23T10:23:49Z</time>
      </trkpt>
      <trkpt lat="43.60907" lon="3.14855">
        <ele>193.94963</ele>
        <time>2025-10-23T10:23:50Z</time>
      </trkpt>
      <trkpt lat="43.60913" lon="3.14861">
        <ele>193.730722</ele>
        <time>2025-10-23T10:23:51Z</time>
      </trkpt>
      <trkpt lat="43.60919" lon="3.14867">
        <ele>193.501815</ele>
        <time>2025-10-23T10:23:52Z</time>
      </trkpt>
      <trkpt lat="43.60925" lon="3.14874">
        <ele>193.275307</ele>
        <time>2025-10-23T10:23:53Z</time>
      </trkpt>
      <trkpt lat="43.6093" lon="3.1488">
        <ele>193.04946</ele>
        <time>2025-10-23T10:23:54Z</time>
      </trkpt>
      <trkpt lat="43.60936" lon="3.14887">
        <ele>192.840904</ele>
        <time>2025-10-23T10:23:55Z</time>
      </trkpt>
      <trkpt lat="43.60939" lon="3.14892">
        <ele>192.677543</ele>
        <time>2025-10-23T10:23:56Z</time>
      </trkpt>
      <trkpt lat="43.60942" lon="3.14896">
        <ele>192.55521</ele>
        <time>2025-10-23T10:23:57Z</time>
      </trkpt>
      <trkpt lat="43.60945" lon="3.14899">
        <ele>192.435191</ele>
        <time>2025-10-23T10:23:58Z</time>
      </trkpt>
      <trkpt lat="43.60948" lon="3.14903">
        <ele>192.320872</ele>
        <time>2025-10-23T10:23:59Z</time>
      </trkpt>
      <trkpt lat="43.60952" lon="3.14906">
        <ele>192.192122</ele>
        <time>2025-10-23T10:24:00Z</time>
      </trkpt>
      <trkpt lat="43.60955" lon="3.1491">
        <ele>192.070402</ele>
        <time>2025-10-23T10:24:01Z</time>
      </trkpt>
      <trkpt lat="43.60958" lon="3.14914">
        <ele>191.933877</ele>
        <time>2025-10-23T10:24:02Z</time>
      </trkpt>
      <trkpt lat="43.60962" lon="3.14918">
        <ele>191.799016</ele>
        <time>2025-10-23T10:24:03Z</time>
      </trkpt>
      <trkpt lat="43.60965" lon="3.14922">
        <ele>191.658788</ele>
        <time>2025-10-23T10:24:04Z</time>
      </trkpt>
      <trkpt lat="43.60969" lon="3.14926">
        <ele>191.516229</ele>
        <time>2025-10-23T10:24:05Z</time>
      </trkpt>
      <trkpt lat="43.60973" lon="3.14931">
        <ele>191.368839</ele>
        <time>2025-10-23T10:24:06Z</time>
      </trkpt>
      <trkpt lat="43.60976" lon="3.14936">
        <ele>191.215541</ele>
        <time>2025-10-23T10:24:07Z</time>
      </trkpt>
      <trkpt lat="43.6098" lon="3.1494">
        <ele>191.059115</ele>
        <time>2025-10-23T10:24:08Z</time>
      </trkpt>
      <trkpt lat="43.60984" lon="3.14945">
        <ele>190.900669</ele>
        <time>2025-10-23T10:24:09Z</time>
      </trkpt>
      <trkpt lat="43.60988" lon="3.14951">
        <ele>190.742967</ele>
        <time>2025-10-23T10:24:10Z</time>
      </trkpt>
      <trkpt lat="43.60992" lon="3.14956">
        <ele>190.566639</ele>
        <time>2025-10-23T10:24:11Z</time>
      </trkpt>
      <trkpt lat="43.60997" lon="3.14961">
        <ele>190.390971</ele>
        <time>2025-10-23T10:24:12Z</time>
      </trkpt>
      <trkpt lat="43.61002" lon="3.14966">
        <ele>190.213698</ele>
        <time>2025-10-23T10:24:13Z</time>
      </trkpt>
      <trkpt lat="43.61006" lon="3.14971">
        <ele>190.036804</ele>
        <time>2025-10-23T10:24:14Z</time>
      </trkpt>
      <trkpt lat="43.6101" lon="3.14976">
        <ele>189.863602</ele>
        <time>2025-10-23T10:24:15Z</time>
      </trkpt>
      <trkpt lat="43.61014" lon="3.14981">
        <ele>189.724171</ele>
        <time>2025-10-23T10:24:16Z</time>
      </trkpt>
      <trkpt lat="43.61018" lon="3.14986">
        <ele>189.697582</ele>
        <time>2025-10-23T10:24:17Z</time>
      </trkpt>
      <trkpt lat="43.61022" lon="3.1499">
        <ele>189.670276</ele>
        <time>2025-10-23T10:24:18Z</time>
      </trkpt>
      <trkpt lat="43.61027" lon="3.14995">
        <ele>189.642329</ele>
        <time>2025-10-23T10:24:19Z</time>
      </trkpt>
      <trkpt lat="43.61031" lon="3.15">
        <ele>189.613742</ele>
        <time>2025-10-23T10:24:20Z</time>
      </trkpt>
      <trkpt lat="43.61034" lon="3.15005">
        <ele>189.587348</ele>
        <time>2025-10-23T10:24:21Z</time>
      </trkpt>
      <trkpt lat="43.61039" lon="3.1501">
        <ele>189.558121</ele>
        <time>2025-10-23T10:24:22Z</time>
      </trkpt>
      <trkpt lat="43.61043" lon="3.15015">
        <ele>189.529178</ele>
        <time>2025-10-23T10:24:23Z</time>
      </trkpt>
      <trkpt lat="43.61047" lon="3.15021">
        <ele>189.497787</ele>
        <time>2025-10-23T10:24:24Z</time>
      </trkpt>
      <trkpt lat="43.61053" lon="3.15025">
        <ele>189.463446</ele>
        <time>2025-10-23T10:24:25Z</time>
      </trkpt>
      <trkpt lat="43.61059" lon="3.15028">
        <ele>189.432856</ele>
        <time>2025-10-23T10:24:26Z</time>
      </trkpt>
      <trkpt lat="43.61064" lon="3.15032">
        <ele>189.403182</ele>
        <time>2025-10-23T10:24:27Z</time>
      </trkpt>
      <trkpt lat="43.61068" lon="3.15036">
        <ele>189.374499</ele>
        <time>2025-10-23T10:24:28Z</time>
      </trkpt>
      <trkpt lat="43.61073" lon="3.15039">
        <ele>189.347192</ele>
        <time>2025-10-23T10:24:29Z</time>
      </trkpt>
      <trkpt lat="43.61078" lon="3.15043">
        <ele>189.32024</ele>
        <time>2025-10-23T10:24:30Z</time>
      </trkpt>
      <trkpt lat="43.61082" lon="3.15045">
        <ele>189.293625</ele>
        <time>2025-10-23T10:24:31Z</time>
      </trkpt>
      <trkpt lat="43.61087" lon="3.15048">
        <ele>189.26757</ele>
        <time>2025-10-23T10:24:32Z</time>
      </trkpt>
      <trkpt lat="43.61092" lon="3.1505">
        <ele>189.242991</ele>
        <time>2025-10-23T10:24:33Z</time>
      </trkpt>
      <trkpt lat="43.61096" lon="3.15052">
        <ele>189.218906</ele>
        <time>2025-10-23T10:24:34Z</time>
      </trkpt>
      <trkpt lat="43.611" lon="3.15054">
        <ele>189.196419</ele>
        <time>2025-10-23T10:24:35Z</time>
      </trkpt>
      <trkpt lat="43.61104" lon="3.15056">
        <ele>189.173811</ele>
        <time>2025-10-23T10:24:36Z</time>
      </trkpt>
      <trkpt lat="43.61108" lon="3.15058">
        <ele>189.151074</ele>
        <time>2025-10-23T10:24:37Z</time>
      </trkpt>
      <trkpt lat="43.61112" lon="3.15059">
        <ele>189.131024</ele>
        <time>2025-10-23T10:24:38Z</time>
      </trkpt>
      <trkpt lat="43.61115" lon="3.15059">
        <ele>189.11315</ele>
        <time>2025-10-23T10:24:39Z</time>
      </trkpt>
      <trkpt lat="43.61118" lon="3.15058">
        <ele>189.098708</ele>
        <time>2025-10-23T10:24:40Z</time>
      </trkpt>
      <trkpt lat="43.61119" lon="3.15057">
        <ele>189.093343</ele>
        <time>2025-10-23T10:24:41Z</time>
      </trkpt>
      <trkpt lat="43.61119" lon="3.15056">
        <ele>189.09175</ele>
        <time>2025-10-23T10:24:42Z</time>
      </trkpt>
      <trkpt lat="43.61119" lon="3.15056">
        <ele>189.091108</ele>
        <time>2025-10-23T10:24:43Z</time>
      </trkpt>
      <trkpt lat="43.61119" lon="3.15056">
        <ele>189.090466</ele>
        <time>2025-10-23T10:24:44Z</time>
      </trkpt>
      <trkpt lat="43.61118" lon="3.15056">
        <ele>189.086807</ele>
        <time>2025-10-23T10:24:45Z</time>
      </trkpt>
      <trkpt lat="43.61118" lon="3.15056">
        <ele>189.086165</ele>
        <time>2025-10-23T10:24:46Z</time>
      </trkpt>
      <trkpt lat="43.61118" lon="3.15056">
        <ele>189.085523</ele>
        <time>2025-10-23T10:24:47Z</time>
      </trkpt>
      <trkpt lat="43.61118" lon="3.15056">
        <ele>189.084881</ele>
        <time>2025-10-23T10:24:48Z</time>
      </trkpt>
      <trkpt lat="43.61118" lon="3.15056">
        <ele>189.084361</ele>
        <time>2025-10-23T10:24:49Z</time>
      </trkpt>
      <trkpt lat="43.61118" lon="3.15056">
        <ele>189.083841</ele>
        <time>2025-10-23T10:24:50Z</time>
      </trkpt>
      <trkpt lat="43.61118" lon="3.15056">
        <ele>189.083465</ele>
        <time>2025-10-23T10:24:51Z</time>
      </trkpt>
      <trkpt lat="43.61118" lon="3.15056">
        <ele>189.082823</ele>
        <time>2025-10-23T10:24:52Z</time>
      </trkpt>
      <trkpt lat="43.61118" lon="3.15056">
        <ele>189.082181</ele>
        <time>2025-10-23T10:24:53Z</time>
      </trkpt>
      <trkpt lat="43.61118" lon="3.15056">
        <ele>189.081539</ele>
        <time>2025-10-23T10:24:54Z</time>
      </trkpt>
      <trkpt lat="43.61118" lon="3.15056">
        <ele>189.081019</ele>
        <time>2025-10-23T10:24:55Z</time>
      </trkpt>
      <trkpt lat="43.61118" lon="3.15056">
        <ele>189.081019</ele>
        <time>2025-10-23T10:24:56Z</time>
      </trkpt>
      <trkpt lat="43.61118" lon="3.15056">
        <ele>189.081019</ele>
        <time>2025-10-23T10:24:57Z</time>
      </trkpt>
      <trkpt lat="43.61118" lon="3.15056">
        <ele>189.079913</ele>
        <time>2025-10-23T10:24:58Z</time>
      </trkpt>
      <trkpt lat="43.61116" lon="3.15056">
        <ele>189.072786</ele>
        <time>2025-10-23T10:24:59Z</time>
      </trkpt>
      <trkpt lat="43.61115" lon="3.15055">
        <ele>189.066777</ele>
        <time>2025-10-23T10:25:00Z</time>
      </trkpt>
      <trkpt lat="43.61115" lon="3.15054">
        <ele>189.061888</ele>
        <time>2025-10-23T10:25:01Z</time>
      </trkpt>
      <trkpt lat="43.61114" lon="3.15053">
        <ele>189.056375</ele>
        <time>2025-10-23T10:25:02Z</time>
      </trkpt>
      <trkpt lat="43.61114" lon="3.15052">
        <ele>189.051949</ele>
        <time>2025-10-23T10:25:03Z</time>
      </trkpt>
      <trkpt lat="43.61113" lon="3.1505">
        <ele>189.046632</ele>
        <time>2025-10-23T10:25:04Z</time>
      </trkpt>
      <trkpt lat="43.61113" lon="3.1505">
        <ele>189.044481</ele>
        <time>2025-10-23T10:25:05Z</time>
      </trkpt>
      <trkpt lat="43.61114" lon="3.1505">
        <ele>189.042313</ele>
        <time>2025-10-23T10:25:06Z</time>
      </trkpt>
      <trkpt lat="43.61113" lon="3.1505">
        <ele>189.040708</ele>
        <time>2025-10-23T10:25:07Z</time>
      </trkpt>
      <trkpt lat="43.61113" lon="3.15051">
        <ele>189.037875</ele>
        <time>2025-10-23T10:25:08Z</time>
      </trkpt>
      <trkpt lat="43.61113" lon="3.15052">
        <ele>189.034819</ele>
        <time>2025-10-23T10:25:09Z</time>
      </trkpt>
      <trkpt lat="43.61113" lon="3.15052">
        <ele>189.034177</ele>
        <time>2025-10-23T10:25:10Z</time>
      </trkpt>
      <trkpt lat="43.61113" lon="3.15053">
        <ele>189.030785</ele>
        <time>2025-10-23T10:25:11Z</time>
      </trkpt>
      <trkpt lat="43.61113" lon="3.15053">
        <ele>189.028955</ele>
        <time>2025-10-23T10:25:12Z</time>
      </trkpt>
      <trkpt lat="43.61114" lon="3.15053">
        <ele>189.02742</ele>
        <time>2025-10-23T10:25:13Z</time>
      </trkpt>
      <trkpt lat="43.61114" lon="3.15054">
        <ele>189.027044</ele>
        <time>2025-10-23T10:25:14Z</time>
      </trkpt>
      <trkpt lat="43.61113" lon="3.15054">
        <ele>189.02493</ele>
        <time>2025-10-23T10:25:15Z</time>
      </trkpt>
      <trkpt lat="43.61113" lon="3.15053">
        <ele>189.021466</ele>
        <time>2025-10-23T10:25:16Z</time>
      </trkpt>
      <trkpt lat="43.61112" lon="3.15053">
        <ele>189.016972</ele>
        <time>2025-10-23T10:25:17Z</time>
      </trkpt>
      <trkpt lat="43.61111" lon="3.15052">
        <ele>189.013508</ele>
        <time>2025-10-23T10:25:18Z</time>
      </trkpt>
      <trkpt lat="43.61111" lon="3.15052">
        <ele>189.010366</ele>
        <time>2025-10-23T10:25:19Z</time>
      </trkpt>
      <trkpt lat="43.6111" lon="3.15052">
        <ele>189.008286</ele>
        <time>2025-10-23T10:25:20Z</time>
      </trkpt>
      <trkpt lat="43.6111" lon="3.15052">
        <ele>189.005659</ele>
        <time>2025-10-23T10:25:21Z</time>
      </trkpt>
      <trkpt lat="43.6111" lon="3.15052">
        <ele>189.004553</ele>
        <time>2025-10-23T10:25:22Z</time>
      </trkpt>
      <trkpt lat="43.61109" lon="3.15052">
        <ele>189.004033</ele>
        <time>2025-10-23T10:25:23Z</time>
      </trkpt>
      <trkpt lat="43.61109" lon="3.15052">
        <ele>189.003657</ele>
        <time>2025-10-23T10:25:24Z</time>
      </trkpt>
      <trkpt lat="43.6111" lon="3.15052">
        <ele>189.002551</ele>
        <time>2025-10-23T10:25:25Z</time>
      </trkpt>
      <trkpt lat="43.6111" lon="3.15052">
        <ele>189.001307</ele>
        <time>2025-10-23T10:25:26Z</time>
      </trkpt>
      <trkpt lat="43.6111" lon="3.15051">
        <ele>188.999049</ele>
        <time>2025-10-23T10:25:27Z</time>
      </trkpt>
      <trkpt lat="43.6111" lon="3.15051">
        <ele>188.99679</ele>
        <time>2025-10-23T10:25:28Z</time>
      </trkpt>
      <trkpt lat="43.6111" lon="3.1505">
        <ele>188.994303</ele>
        <time>2025-10-23T10:25:29Z</time>
      </trkpt>
      <trkpt lat="43.6111" lon="3.1505">
        <ele>188.992044</ele>
        <time>2025-10-23T10:25:30Z</time>
      </trkpt>
      <trkpt lat="43.6111" lon="3.15049">
        <ele>188.990451</ele>
        <time>2025-10-23T10:25:31Z</time>
      </trkpt>
      <trkpt lat="43.6111" lon="3.15049">
        <ele>188.989322</ele>
        <time>2025-10-23T10:25:32Z</time>
      </trkpt>
      <trkpt lat="43.6111" lon="3.1505">
        <ele>188.98868</ele>
        <time>2025-10-23T10:25:33Z</time>
      </trkpt>
      <trkpt lat="43.6111" lon="3.15049">
        <ele>188.988303</ele>
        <time>2025-10-23T10:25:34Z</time>
      </trkpt>
      <trkpt lat="43.6111" lon="3.15049">
        <ele>188.98706</ele>
        <time>2025-10-23T10:25:35Z</time>
      </trkpt>
      <trkpt lat="43.6111" lon="3.15049">
        <ele>188.985107</ele>
        <time>2025-10-23T10:25:36Z</time>
      </trkpt>
      <trkpt lat="43.6111" lon="3.15048">
        <ele>188.98175</ele>
        <time>2025-10-23T10:25:37Z</time>
      </trkpt>
      <trkpt lat="43.61111" lon="3.15048">
        <ele>188.979043</ele>
        <time>2025-10-23T10:25:38Z</time>
      </trkpt>
      <trkpt lat="43.61111" lon="3.15048">
        <ele>188.976831</ele>
        <time>2025-10-23T10:25:39Z</time>
      </trkpt>
      <trkpt lat="43.61112" lon="3.15047">
        <ele>188.973622</ele>
        <time>2025-10-23T10:25:40Z</time>
      </trkpt>
      <trkpt lat="43.61112" lon="3.15048">
        <ele>188.970413</ele>
        <time>2025-10-23T10:25:41Z</time>
      </trkpt>
      <trkpt lat="43.61113" lon="3.15048">
        <ele>188.966773</ele>
        <time>2025-10-23T10:25:42Z</time>
      </trkpt>
      <trkpt lat="43.61113" lon="3.15048">
        <ele>188.965238</ele>
        <time>2025-10-23T10:25:43Z</time>
      </trkpt>
      <trkpt lat="43.61113" lon="3.15048">
        <ele>188.962433</ele>
        <time>2025-10-23T10:25:44Z</time>
      </trkpt>
      <trkpt lat="43.61112" lon="3.1505">
        <ele>188.955718</ele>
        <time>2025-10-23T10:25:45Z</time>
      </trkpt>
      <trkpt lat="43.61112" lon="3.15052">
        <ele>188.94849</ele>
        <time>2025-10-23T10:25:46Z</time>
      </trkpt>
      <trkpt lat="43.61112" lon="3.15053">
        <ele>188.943278</ele>
        <time>2025-10-23T10:25:47Z</time>
      </trkpt>
      <trkpt lat="43.61114" lon="3.15055">
        <ele>188.932946</ele>
        <time>2025-10-23T10:25:48Z</time>
      </trkpt>
      <trkpt lat="43.61116" lon="3.15058">
        <ele>188.918899</ele>
        <time>2025-10-23T10:25:49Z</time>
      </trkpt>
      <trkpt lat="43.61117" lon="3.15061">
        <ele>188.904259</ele>
        <time>2025-10-23T10:25:50Z</time>
      </trkpt>
      <trkpt lat="43.61118" lon="3.15065">
        <ele>188.88761</ele>
        <time>2025-10-23T10:25:51Z</time>
      </trkpt>
      <trkpt lat="43.6112" lon="3.15069">
        <ele>188.869495</ele>
        <time>2025-10-23T10:25:52Z</time>
      </trkpt>
      <trkpt lat="43.61122" lon="3.15073">
        <ele>188.849656</ele>
        <time>2025-10-23T10:25:53Z</time>
      </trkpt>
      <trkpt lat="43.61123" lon="3.15078">
        <ele>188.83208</ele>
        <time>2025-10-23T10:25:54Z</time>
      </trkpt>
      <trkpt lat="43.61124" lon="3.15083">
        <ele>188.813126</ele>
        <time>2025-10-23T10:25:55Z</time>
      </trkpt>
      <trkpt lat="43.61126" lon="3.15087">
        <ele>188.794817</ele>
        <time>2025-10-23T10:25:56Z</time>
      </trkpt>
      <trkpt lat="43.61126" lon="3.15091">
        <ele>188.756306</ele>
        <time>2025-10-23T10:25:57Z</time>
      </trkpt>
      <trkpt lat="43.61127" lon="3.15096">
        <ele>188.715957</ele>
        <time>2025-10-23T10:25:58Z</time>
      </trkpt>
      <trkpt lat="43.61128" lon="3.15101">
        <ele>188.666482</ele>
        <time>2025-10-23T10:25:59Z</time>
      </trkpt>
      <trkpt lat="43.61129" lon="3.15107">
        <ele>188.613748</ele>
        <time>2025-10-23T10:26:00Z</time>
      </trkpt>
      <trkpt lat="43.6113" lon="3.15112">
        <ele>188.565679</ele>
        <time>2025-10-23T10:26:01Z</time>
      </trkpt>
      <trkpt lat="43.6113" lon="3.15116">
        <ele>188.526278</ele>
        <time>2025-10-23T10:26:02Z</time>
      </trkpt>
      <trkpt lat="43.61131" lon="3.15121">
        <ele>188.482399</ele>
        <time>2025-10-23T10:26:03Z</time>
      </trkpt>
      <trkpt lat="43.61133" lon="3.15124">
        <ele>188.443231</ele>
        <time>2025-10-23T10:26:04Z</time>
      </trkpt>
      <trkpt lat="43.61134" lon="3.15129">
        <ele>188.398718</ele>
        <time>2025-10-23T10:26:05Z</time>
      </trkpt>
      <trkpt lat="43.61136" lon="3.15134">
        <ele>188.350369</ele>
        <time>2025-10-23T10:26:06Z</time>
      </trkpt>
      <trkpt lat="43.61137" lon="3.15139">
        <ele>188.300167</ele>
        <time>2025-10-23T10:26:07Z</time>
      </trkpt>
      <trkpt lat="43.61138" lon="3.15144">
        <ele>188.255104</ele>
        <time>2025-10-23T10:26:08Z</time>
      </trkpt>
      <trkpt lat="43.61139" lon="3.15148">
        <ele>188.217505</ele>
        <time>2025-10-23T10:26:09Z</time>
      </trkpt>
      <trkpt lat="43.61139" lon="3.15151">
        <ele>188.18818</ele>
        <time>2025-10-23T10:26:10Z</time>
      </trkpt>
      <trkpt lat="43.61139" lon="3.15153">
        <ele>188.16893</ele>
        <time>2025-10-23T10:26:11Z</time>
      </trkpt>
      <trkpt lat="43.61139" lon="3.15154">
        <ele>188.159926</ele>
        <time>2025-10-23T10:26:12Z</time>
      </trkpt>
      <trkpt lat="43.6114" lon="3.15154">
        <ele>188.154734</ele>
        <time>2025-10-23T10:26:13Z</time>
      </trkpt>
      <trkpt lat="43.6114" lon="3.15155">
        <ele>188.15002</ele>
        <time>2025-10-23T10:26:14Z</time>
      </trkpt>
      <trkpt lat="43.6114" lon="3.15156">
        <ele>188.141706</ele>
        <time>2025-10-23T10:26:15Z</time>
      </trkpt>
      <trkpt lat="43.6114" lon="3.15157">
        <ele>188.1308</ele>
        <time>2025-10-23T10:26:16Z</time>
      </trkpt>
      <trkpt lat="43.6114" lon="3.15158">
        <ele>188.118919</ele>
        <time>2025-10-23T10:26:17Z</time>
      </trkpt>
      <trkpt lat="43.6114" lon="3.15159">
        <ele>188.104908</ele>
        <time>2025-10-23T10:26:18Z</time>
      </trkpt>
      <trkpt lat="43.61138" lon="3.1516">
        <ele>188.08589</ele>
        <time>2025-10-23T10:26:19Z</time>
      </trkpt>
      <trkpt lat="43.61136" lon="3.1516">
        <ele>188.054496</ele>
        <time>2025-10-23T10:26:20Z</time>
      </trkpt>
      <trkpt lat="43.61133" lon="3.1516">
        <ele>188.017993</ele>
        <time>2025-10-23T10:26:21Z</time>
      </trkpt>
      <trkpt lat="43.6113" lon="3.15159">
        <ele>187.977325</ele>
        <time>2025-10-23T10:26:22Z</time>
      </trkpt>
      <trkpt lat="43.61126" lon="3.15158">
        <ele>187.935456</ele>
        <time>2025-10-23T10:26:23Z</time>
      </trkpt>
      <trkpt lat="43.61122" lon="3.15156">
        <ele>187.879981</ele>
        <time>2025-10-23T10:26:24Z</time>
      </trkpt>
      <trkpt lat="43.61118" lon="3.15154">
        <ele>187.821874</ele>
        <time>2025-10-23T10:26:25Z</time>
      </trkpt>
      <trkpt lat="43.61113" lon="3.15153">
        <ele>187.757015</ele>
        <time>2025-10-23T10:26:26Z</time>
      </trkpt>
      <trkpt lat="43.61108" lon="3.1515">
        <ele>187.697634</ele>
        <time>2025-10-23T10:26:27Z</time>
      </trkpt>
      <trkpt lat="43.61104" lon="3.15149">
        <ele>187.645608</ele>
        <time>2025-10-23T10:26:28Z</time>
      </trkpt>
      <trkpt lat="43.61101" lon="3.15147">
        <ele>187.597205</ele>
        <time>2025-10-23T10:26:29Z</time>
      </trkpt>
      <trkpt lat="43.61097" lon="3.15146">
        <ele>187.547339</ele>
        <time>2025-10-23T10:26:30Z</time>
      </trkpt>
      <trkpt lat="43.61093" lon="3.15145">
        <ele>187.498082</ele>
        <time>2025-10-23T10:26:31Z</time>
      </trkpt>
      <trkpt lat="43.61089" lon="3.15147">
        <ele>187.449376</ele>
        <time>2025-10-23T10:26:32Z</time>
      </trkpt>
      <trkpt lat="43.61087" lon="3.1515">
        <ele>187.406591</ele>
        <time>2025-10-23T10:26:33Z</time>
      </trkpt>
      <trkpt lat="43.61085" lon="3.15155">
        <ele>187.362077</ele>
        <time>2025-10-23T10:26:34Z</time>
      </trkpt>
      <trkpt lat="43.61085" lon="3.1516">
        <ele>187.317527</ele>
        <time>2025-10-23T10:26:35Z</time>
      </trkpt>
      <trkpt lat="43.61087" lon="3.15164">
        <ele>187.276587</ele>
        <time>2025-10-23T10:26:36Z</time>
      </trkpt>
      <trkpt lat="43.61089" lon="3.15168">
        <ele>187.23301</ele>
        <time>2025-10-23T10:26:37Z</time>
      </trkpt>
      <trkpt lat="43.61091" lon="3.15171">
        <ele>187.184066</ele>
        <time>2025-10-23T10:26:38Z</time>
      </trkpt>
      <trkpt lat="43.61094" lon="3.15175">
        <ele>187.132178</ele>
        <time>2025-10-23T10:26:39Z</time>
      </trkpt>
      <trkpt lat="43.61097" lon="3.1518">
        <ele>187.077561</ele>
        <time>2025-10-23T10:26:40Z</time>
      </trkpt>
      <trkpt lat="43.61099" lon="3.15185">
        <ele>187.028905</ele>
        <time>2025-10-23T10:26:41Z</time>
      </trkpt>
      <trkpt lat="43.61101" lon="3.15189">
        <ele>186.981045</ele>
        <time>2025-10-23T10:26:42Z</time>
      </trkpt>
      <trkpt lat="43.61104" lon="3.15193">
        <ele>186.931631</ele>
        <time>2025-10-23T10:26:43Z</time>
      </trkpt>
      <trkpt lat="43.61107" lon="3.15197">
        <ele>186.880716</ele>
        <time>2025-10-23T10:26:44Z</time>
      </trkpt>
      <trkpt lat="43.61109" lon="3.15202">
        <ele>186.82916</ele>
        <time>2025-10-23T10:26:45Z</time>
      </trkpt>
      <trkpt lat="43.61111" lon="3.15207">
        <ele>186.775647</ele>
        <time>2025-10-23T10:26:46Z</time>
      </trkpt>
      <trkpt lat="43.61113" lon="3.15212">
        <ele>186.722644</ele>
        <time>2025-10-23T10:26:47Z</time>
      </trkpt>
      <trkpt lat="43.61116" lon="3.15216">
        <ele>186.671812</ele>
        <time>2025-10-23T10:26:48Z</time>
      </trkpt>
      <trkpt lat="43.61119" lon="3.15221">
        <ele>186.618697</ele>
        <time>2025-10-23T10:26:49Z</time>
      </trkpt>
      <trkpt lat="43.61122" lon="3.15225">
        <ele>186.564822</ele>
        <time>2025-10-23T10:26:50Z</time>
      </trkpt>
      <trkpt lat="43.61125" lon="3.15229">
        <ele>186.50736</ele>
        <time>2025-10-23T10:26:51Z</time>
      </trkpt>
      <trkpt lat="43.61128" lon="3.15232">
        <ele>186.451146</ele>
        <time>2025-10-23T10:26:52Z</time>
      </trkpt>
      <trkpt lat="43.61132" lon="3.15234">
        <ele>186.396157</ele>
        <time>2025-10-23T10:26:53Z</time>
      </trkpt>
      <trkpt lat="43.61136" lon="3.15237">
        <ele>186.339538</ele>
        <time>2025-10-23T10:26:54Z</time>
      </trkpt>
      <trkpt lat="43.6114" lon="3.15239">
        <ele>186.283101</ele>
        <time>2025-10-23T10:26:55Z</time>
      </trkpt>
      <trkpt lat="43.61144" lon="3.1524">
        <ele>186.224683</ele>
        <time>2025-10-23T10:26:56Z</time>
      </trkpt>
      <trkpt lat="43.61148" lon="3.15242">
        <ele>186.160823</ele>
        <time>2025-10-23T10:26:57Z</time>
      </trkpt>
      <trkpt lat="43.61153" lon="3.15245">
        <ele>186.097895</ele>
        <time>2025-10-23T10:26:58Z</time>
      </trkpt>
      <trkpt lat="43.61157" lon="3.15247">
        <ele>186.033336</ele>
        <time>2025-10-23T10:26:59Z</time>
      </trkpt>
      <trkpt lat="43.61161" lon="3.1525">
        <ele>185.97342</ele>
        <time>2025-10-23T10:27:00Z</time>
      </trkpt>
      <trkpt lat="43.61165" lon="3.15252">
        <ele>185.91265</ele>
        <time>2025-10-23T10:27:01Z</time>
      </trkpt>
      <trkpt lat="43.61169" lon="3.15254">
        <ele>185.854384</ele>
        <time>2025-10-23T10:27:02Z</time>
      </trkpt>
      <trkpt lat="43.61173" lon="3.15256">
        <ele>185.79719</ele>
        <time>2025-10-23T10:27:03Z</time>
      </trkpt>
      <trkpt lat="43.61177" lon="3.15257">
        <ele>185.743255</ele>
        <time>2025-10-23T10:27:04Z</time>
      </trkpt>
      <trkpt lat="43.61181" lon="3.15259">
        <ele>185.681637</ele>
        <time>2025-10-23T10:27:05Z</time>
      </trkpt>
      <trkpt lat="43.61186" lon="3.15261">
        <ele>185.615521</ele>
        <time>2025-10-23T10:27:06Z</time>
      </trkpt>
      <trkpt lat="43.6119" lon="3.15263">
        <ele>185.55106</ele>
        <time>2025-10-23T10:27:07Z</time>
      </trkpt>
      <trkpt lat="43.61195" lon="3.15266">
        <ele>185.482852</ele>
        <time>2025-10-23T10:27:08Z</time>
      </trkpt>
      <trkpt lat="43.61199" lon="3.15269">
        <ele>185.420865</ele>
        <time>2025-10-23T10:27:09Z</time>
      </trkpt>
      <trkpt lat="43.61203" lon="3.15272">
        <ele>185.354333</ele>
        <time>2025-10-23T10:27:10Z</time>
      </trkpt>
      <trkpt lat="43.61208" lon="3.15275">
        <ele>185.286005</ele>
        <time>2025-10-23T10:27:11Z</time>
      </trkpt>
      <trkpt lat="43.61212" lon="3.15278">
        <ele>185.222534</ele>
        <time>2025-10-23T10:27:12Z</time>
      </trkpt>
      <trkpt lat="43.61216" lon="3.15282">
        <ele>185.156281</ele>
        <time>2025-10-23T10:27:13Z</time>
      </trkpt>
      <trkpt lat="43.61219" lon="3.15286">
        <ele>185.089395</ele>
        <time>2025-10-23T10:27:14Z</time>
      </trkpt>
      <trkpt lat="43.61223" lon="3.1529">
        <ele>185.024787</ele>
        <time>2025-10-23T10:27:15Z</time>
      </trkpt>
      <trkpt lat="43.61227" lon="3.15294">
        <ele>184.961111</ele>
        <time>2025-10-23T10:27:16Z</time>
      </trkpt>
      <trkpt lat="43.61231" lon="3.15299">
        <ele>184.894693</ele>
        <time>2025-10-23T10:27:17Z</time>
      </trkpt>
      <trkpt lat="43.61234" lon="3.15303">
        <ele>184.829957</ele>
        <time>2025-10-23T10:27:18Z</time>
      </trkpt>
      <trkpt lat="43.61238" lon="3.15307">
        <ele>184.765222</ele>
        <time>2025-10-23T10:27:19Z</time>
      </trkpt>
      <trkpt lat="43.61242" lon="3.15311">
        <ele>184.703227</ele>
        <time>2025-10-23T10:27:20Z</time>
      </trkpt>
      <trkpt lat="43.61245" lon="3.15315">
        <ele>184.641232</ele>
        <time>2025-10-23T10:27:21Z</time>
      </trkpt>
      <trkpt lat="43.61249" lon="3.15319">
        <ele>184.578794</ele>
        <time>2025-10-23T10:27:22Z</time>
      </trkpt>
      <trkpt lat="43.61252" lon="3.15322">
        <ele>184.518147</ele>
        <time>2025-10-23T10:27:23Z</time>
      </trkpt>
      <trkpt lat="43.61256" lon="3.15326">
        <ele>184.460555</ele>
        <time>2025-10-23T10:27:24Z</time>
      </trkpt>
      <trkpt lat="43.61259" lon="3.1533">
        <ele>184.401484</ele>
        <time>2025-10-23T10:27:25Z</time>
      </trkpt>
      <trkpt lat="43.61263" lon="3.15333">
        <ele>184.341405</ele>
        <time>2025-10-23T10:27:26Z</time>
      </trkpt>
      <trkpt lat="43.61266" lon="3.15337">
        <ele>184.280167</ele>
        <time>2025-10-23T10:27:27Z</time>
      </trkpt>
      <trkpt lat="43.61269" lon="3.15341">
        <ele>184.223604</ele>
        <time>2025-10-23T10:27:28Z</time>
      </trkpt>
      <trkpt lat="43.61273" lon="3.15344">
        <ele>184.161166</ele>
        <time>2025-10-23T10:27:29Z</time>
      </trkpt>
      <trkpt lat="43.61276" lon="3.15348">
        <ele>184.10165</ele>
        <time>2025-10-23T10:27:30Z</time>
      </trkpt>
      <trkpt lat="43.6128" lon="3.15352">
        <ele>184.099186</ele>
        <time>2025-10-23T10:27:31Z</time>
      </trkpt>
      <trkpt lat="43.61284" lon="3.15355">
        <ele>184.123547</ele>
        <time>2025-10-23T10:27:32Z</time>
      </trkpt>
      <trkpt lat="43.61287" lon="3.15359">
        <ele>184.147477</ele>
        <time>2025-10-23T10:27:33Z</time>
      </trkpt>
      <trkpt lat="43.6129" lon="3.15362">
        <ele>184.1689</ele>
        <time>2025-10-23T10:27:34Z</time>
      </trkpt>
      <trkpt lat="43.61293" lon="3.15366">
        <ele>184.192389</ele>
        <time>2025-10-23T10:27:35Z</time>
      </trkpt>
      <trkpt lat="43.61297" lon="3.15369">
        <ele>184.216131</ele>
        <time>2025-10-23T10:27:36Z</time>
      </trkpt>
      <trkpt lat="43.613" lon="3.15373">
        <ele>184.240105</ele>
        <time>2025-10-23T10:27:37Z</time>
      </trkpt>
      <trkpt lat="43.61303" lon="3.15377">
        <ele>184.26463</ele>
        <time>2025-10-23T10:27:38Z</time>
      </trkpt>
      <trkpt lat="43.61306" lon="3.15382">
        <ele>184.289073</ele>
        <time>2025-10-23T10:27:39Z</time>
      </trkpt>
      <trkpt lat="43.61309" lon="3.15386">
        <ele>184.313181</ele>
        <time>2025-10-23T10:27:40Z</time>
      </trkpt>
      <trkpt lat="43.61312" lon="3.1539">
        <ele>184.336877</ele>
        <time>2025-10-23T10:27:41Z</time>
      </trkpt>
      <trkpt lat="43.61315" lon="3.15394">
        <ele>184.361258</ele>
        <time>2025-10-23T10:27:42Z</time>
      </trkpt>
      <trkpt lat="43.61319" lon="3.15398">
        <ele>184.385639</ele>
        <time>2025-10-23T10:27:43Z</time>
      </trkpt>
      <trkpt lat="43.61322" lon="3.15402">
        <ele>184.408532</ele>
        <time>2025-10-23T10:27:44Z</time>
      </trkpt>
      <trkpt lat="43.61325" lon="3.15406">
        <ele>184.431155</ele>
        <time>2025-10-23T10:27:45Z</time>
      </trkpt>
      <trkpt lat="43.61328" lon="3.15409">
        <ele>184.453707</ele>
        <time>2025-10-23T10:27:46Z</time>
      </trkpt>
      <trkpt lat="43.61331" lon="3.15412">
        <ele>184.475774</ele>
        <time>2025-10-23T10:27:47Z</time>
      </trkpt>
      <trkpt lat="43.61334" lon="3.15415">
        <ele>184.496688</ele>
        <time>2025-10-23T10:27:48Z</time>
      </trkpt>
      <trkpt lat="43.61337" lon="3.15418">
        <ele>184.516988</ele>
        <time>2025-10-23T10:27:49Z</time>
      </trkpt>
      <trkpt lat="43.6134" lon="3.15421">
        <ele>184.537033</ele>
        <time>2025-10-23T10:27:50Z</time>
      </trkpt>
      <trkpt lat="43.61342" lon="3.15425">
        <ele>184.556757</ele>
        <time>2025-10-23T10:27:51Z</time>
      </trkpt>
      <trkpt lat="43.61345" lon="3.15428">
        <ele>184.577685</ele>
        <time>2025-10-23T10:27:52Z</time>
      </trkpt>
      <trkpt lat="43.61348" lon="3.15431">
        <ele>184.597041</ele>
        <time>2025-10-23T10:27:53Z</time>
      </trkpt>
      <trkpt lat="43.6135" lon="3.15434">
        <ele>184.616092</ele>
        <time>2025-10-23T10:27:54Z</time>
      </trkpt>
      <trkpt lat="43.61352" lon="3.15437">
        <ele>184.63268</ele>
        <time>2025-10-23T10:27:55Z</time>
      </trkpt>
      <trkpt lat="43.61354" lon="3.15439">
        <ele>184.643518</ele>
        <time>2025-10-23T10:27:56Z</time>
      </trkpt>
      <trkpt lat="43.61354" lon="3.15439">
        <ele>184.64634</ele>
        <time>2025-10-23T10:27:57Z</time>
      </trkpt>
      <trkpt lat="43.61354" lon="3.15438">
        <ele>184.649226</ele>
        <time>2025-10-23T10:27:58Z</time>
      </trkpt>
      <trkpt lat="43.61355" lon="3.15439">
        <ele>184.651295</ele>
        <time>2025-10-23T10:27:59Z</time>
      </trkpt>
      <trkpt lat="43.61355" lon="3.15439">
        <ele>184.655271</ele>
        <time>2025-10-23T10:28:00Z</time>
      </trkpt>
      <trkpt lat="43.61356" lon="3.1544">
        <ele>184.659248</ele>
        <time>2025-10-23T10:28:01Z</time>
      </trkpt>
      <trkpt lat="43.61356" lon="3.1544">
        <ele>184.660584</ele>
        <time>2025-10-23T10:28:02Z</time>
      </trkpt>
      <trkpt lat="43.61356" lon="3.1544">
        <ele>184.661273</ele>
        <time>2025-10-23T10:28:03Z</time>
      </trkpt>
      <trkpt lat="43.61356" lon="3.1544">
        <ele>184.661963</ele>
        <time>2025-10-23T10:28:04Z</time>
      </trkpt>
      <trkpt lat="43.61356" lon="3.1544">
        <ele>184.662367</ele>
        <time>2025-10-23T10:28:05Z</time>
      </trkpt>
      <trkpt lat="43.61356" lon="3.1544">
        <ele>184.662367</ele>
        <time>2025-10-23T10:28:06Z</time>
      </trkpt>
      <trkpt lat="43.61356" lon="3.1544">
        <ele>184.662926</ele>
        <time>2025-10-23T10:28:07Z</time>
      </trkpt>
      <trkpt lat="43.61356" lon="3.1544">
        <ele>184.662926</ele>
        <time>2025-10-23T10:28:08Z</time>
      </trkpt>
      <trkpt lat="43.61356" lon="3.1544">
        <ele>184.663484</ele>
        <time>2025-10-23T10:28:09Z</time>
      </trkpt>
      <trkpt lat="43.61356" lon="3.1544">
        <ele>184.664043</ele>
        <time>2025-10-23T10:28:10Z</time>
      </trkpt>
      <trkpt lat="43.61356" lon="3.1544">
        <ele>184.664043</ele>
        <time>2025-10-23T10:28:11Z</time>
      </trkpt>
      <trkpt lat="43.61356" lon="3.1544">
        <ele>184.664043</ele>
        <time>2025-10-23T10:28:12Z</time>
      </trkpt>
      <trkpt lat="43.61356" lon="3.1544">
        <ele>184.664043</ele>
        <time>2025-10-23T10:28:13Z</time>
      </trkpt>
      <trkpt lat="43.61356" lon="3.1544">
        <ele>184.664043</ele>
        <time>2025-10-23T10:28:14Z</time>
      </trkpt>
      <trkpt lat="43.61356" lon="3.1544">
        <ele>184.664043</ele>
        <time>2025-10-23T10:28:15Z</time>
      </trkpt>
      <trkpt lat="43.61356" lon="3.1544">
        <ele>184.664043</ele>
        <time>2025-10-23T10:28:16Z</time>
      </trkpt>
      <trkpt lat="43.61356" lon="3.1544">
        <ele>184.664043</ele>
        <time>2025-10-23T10:28:18Z</time>
      </trkpt>
      <trkpt lat="43.61356" lon="3.1544">
        <ele>184.664043</ele>
        <time>2025-10-23T10:28:19Z</time>
      </trkpt>
      <trkpt lat="43.61356" lon="3.1544">
        <ele>184.664043</ele>
        <time>2025-10-23T10:28:20Z</time>
      </trkpt>
      <trkpt lat="43.61356" lon="3.1544">
        <ele>184.664043</ele>
        <time>2025-10-23T10:28:22Z</time>
      </trkpt>
      <trkpt lat="43.61356" lon="3.1544">
        <ele>184.664043</ele>
        <time>2025-10-23T10:28:23Z</time>
      </trkpt>
      <trkpt lat="43.61356" lon="3.1544">
        <ele>184.664043</ele>
        <time>2025-10-23T10:28:24Z</time>
      </trkpt>
      <trkpt lat="43.61356" lon="3.1544">
        <ele>184.664733</ele>
        <time>2025-10-23T10:28:25Z</time>
      </trkpt>
      <trkpt lat="43.61356" lon="3.1544">
        <ele>184.665291</ele>
        <time>2025-10-23T10:29:24Z</time>
      </trkpt>
      <trkpt lat="43.61356" lon="3.15441">
        <ele>184.665981</ele>
        <time>2025-10-23T10:29:25Z</time>
      </trkpt>
      <trkpt lat="43.61356" lon="3.15441">
        <ele>184.667169</ele>
        <time>2025-10-23T10:29:26Z</time>
      </trkpt>
      <trkpt lat="43.61356" lon="3.15442">
        <ele>184.672794</ele>
        <time>2025-10-23T10:29:27Z</time>
      </trkpt>
      <trkpt lat="43.61358" lon="3.15443">
        <ele>184.680917</ele>
        <time>2025-10-23T10:29:28Z</time>
      </trkpt>
      <trkpt lat="43.61359" lon="3.15443">
        <ele>184.68964</ele>
        <time>2025-10-23T10:29:29Z</time>
      </trkpt>
      <trkpt lat="43.61361" lon="3.15445">
        <ele>184.701008</ele>
        <time>2025-10-23T10:29:30Z</time>
      </trkpt>
      <trkpt lat="43.61362" lon="3.15447">
        <ele>184.714021</ele>
        <time>2025-10-23T10:29:31Z</time>
      </trkpt>
      <trkpt lat="43.61364" lon="3.1545">
        <ele>184.729507</ele>
        <time>2025-10-23T10:29:32Z</time>
      </trkpt>
      <trkpt lat="43.61367" lon="3.15453">
        <ele>184.747862</ele>
        <time>2025-10-23T10:29:33Z</time>
      </trkpt>
      <trkpt lat="43.61369" lon="3.15457">
        <ele>184.767583</ele>
        <time>2025-10-23T10:29:34Z</time>
      </trkpt>
      <trkpt lat="43.61372" lon="3.1546">
        <ele>184.789229</ele>
        <time>2025-10-23T10:29:35Z</time>
      </trkpt>
      <trkpt lat="43.61375" lon="3.15464">
        <ele>184.811557</ele>
        <time>2025-10-23T10:29:36Z</time>
      </trkpt>
      <trkpt lat="43.61378" lon="3.15467">
        <ele>184.832291</ele>
        <time>2025-10-23T10:29:37Z</time>
      </trkpt>
      <trkpt lat="43.6138" lon="3.1547">
        <ele>184.850676</ele>
        <time>2025-10-23T10:29:38Z</time>
      </trkpt>
      <trkpt lat="43.61383" lon="3.15472">
        <ele>184.868156</ele>
        <time>2025-10-23T10:29:39Z</time>
      </trkpt>
      <trkpt lat="43.61385" lon="3.15476">
        <ele>184.887473</ele>
        <time>2025-10-23T10:29:40Z</time>
      </trkpt>
      <trkpt lat="43.61388" lon="3.15479">
        <ele>184.907084</ele>
        <time>2025-10-23T10:29:41Z</time>
      </trkpt>
      <trkpt lat="43.61391" lon="3.15482">
        <ele>184.928932</ele>
        <time>2025-10-23T10:29:42Z</time>
      </trkpt>
      <trkpt lat="43.61395" lon="3.15485">
        <ele>184.952379</ele>
        <time>2025-10-23T10:29:43Z</time>
      </trkpt>
      <trkpt lat="43.61398" lon="3.15489">
        <ele>184.976809</ele>
        <time>2025-10-23T10:29:44Z</time>
      </trkpt>
      <trkpt lat="43.61401" lon="3.15493">
        <ele>185.00012</ele>
        <time>2025-10-23T10:29:45Z</time>
      </trkpt>
      <trkpt lat="43.61404" lon="3.15496">
        <ele>185.022319</ele>
        <time>2025-10-23T10:29:46Z</time>
      </trkpt>
      <trkpt lat="43.61408" lon="3.155">
        <ele>185.045315</ele>
        <time>2025-10-23T10:29:47Z</time>
      </trkpt>
      <trkpt lat="43.61411" lon="3.15503">
        <ele>185.068368</ele>
        <time>2025-10-23T10:29:48Z</time>
      </trkpt>
      <trkpt lat="43.61414" lon="3.15506">
        <ele>185.118186</ele>
        <time>2025-10-23T10:29:49Z</time>
      </trkpt>
      <trkpt lat="43.61418" lon="3.15509">
        <ele>185.269285</ele>
        <time>2025-10-23T10:29:50Z</time>
      </trkpt>
      <trkpt lat="43.61421" lon="3.15512">
        <ele>185.415667</ele>
        <time>2025-10-23T10:29:51Z</time>
      </trkpt>
      <trkpt lat="43.61424" lon="3.15516">
        <ele>185.564089</ele>
        <time>2025-10-23T10:29:52Z</time>
      </trkpt>
      <trkpt lat="43.61427" lon="3.15519">
        <ele>185.711382</ele>
        <time>2025-10-23T10:29:53Z</time>
      </trkpt>
      <trkpt lat="43.6143" lon="3.15523">
        <ele>185.868842</ele>
        <time>2025-10-23T10:29:54Z</time>
      </trkpt>
      <trkpt lat="43.61433" lon="3.15526">
        <ele>186.027974</ele>
        <time>2025-10-23T10:29:55Z</time>
      </trkpt>
      <trkpt lat="43.61437" lon="3.15529">
        <ele>186.182187</ele>
        <time>2025-10-23T10:29:56Z</time>
      </trkpt>
      <trkpt lat="43.6144" lon="3.15533">
        <ele>186.342729</ele>
        <time>2025-10-23T10:29:57Z</time>
      </trkpt>
      <trkpt lat="43.61443" lon="3.15536">
        <ele>186.497141</ele>
        <time>2025-10-23T10:29:58Z</time>
      </trkpt>
      <trkpt lat="43.61446" lon="3.15539">
        <ele>186.648239</ele>
        <time>2025-10-23T10:29:59Z</time>
      </trkpt>
      <trkpt lat="43.61449" lon="3.15543">
        <ele>186.797368</ele>
        <time>2025-10-23T10:30:00Z</time>
      </trkpt>
      <trkpt lat="43.61453" lon="3.15546">
        <ele>186.95178</ele>
        <time>2025-10-23T10:30:01Z</time>
      </trkpt>
      <trkpt lat="43.61456" lon="3.15549">
        <ele>187.100418</ele>
        <time>2025-10-23T10:30:02Z</time>
      </trkpt>
      <trkpt lat="43.61459" lon="3.15551">
        <ele>187.239384</ele>
        <time>2025-10-23T10:30:03Z</time>
      </trkpt>
      <trkpt lat="43.61463" lon="3.15552">
        <ele>187.3817</ele>
        <time>2025-10-23T10:30:04Z</time>
      </trkpt>
      <trkpt lat="43.61466" lon="3.15554">
        <ele>187.510082</ele>
        <time>2025-10-23T10:30:05Z</time>
      </trkpt>
      <trkpt lat="43.61469" lon="3.15555">
        <ele>187.645776</ele>
        <time>2025-10-23T10:30:06Z</time>
      </trkpt>
      <trkpt lat="43.61473" lon="3.15557">
        <ele>187.777925</ele>
        <time>2025-10-23T10:30:07Z</time>
      </trkpt>
      <trkpt lat="43.61476" lon="3.15559">
        <ele>187.918072</ele>
        <time>2025-10-23T10:30:08Z</time>
      </trkpt>
      <trkpt lat="43.61479" lon="3.15561">
        <ele>188.048933</ele>
        <time>2025-10-23T10:30:09Z</time>
      </trkpt>
      <trkpt lat="43.61482" lon="3.15563">
        <ele>188.182151</ele>
        <time>2025-10-23T10:30:10Z</time>
      </trkpt>
      <trkpt lat="43.61485" lon="3.15565">
        <ele>188.307781</ele>
        <time>2025-10-23T10:30:11Z</time>
      </trkpt>
      <trkpt lat="43.61489" lon="3.15566">
        <ele>188.441545</ele>
        <time>2025-10-23T10:30:12Z</time>
      </trkpt>
      <trkpt lat="43.61492" lon="3.15568">
        <ele>188.563571</ele>
        <time>2025-10-23T10:30:13Z</time>
      </trkpt>
      <trkpt lat="43.61495" lon="3.15569">
        <ele>188.68748</ele>
        <time>2025-10-23T10:30:14Z</time>
      </trkpt>
      <trkpt lat="43.61498" lon="3.1557">
        <ele>188.808592</ele>
        <time>2025-10-23T10:30:15Z</time>
      </trkpt>
      <trkpt lat="43.61501" lon="3.15572">
        <ele>188.936974</ele>
        <time>2025-10-23T10:30:16Z</time>
      </trkpt>
      <trkpt lat="43.61504" lon="3.15573">
        <ele>189.068221</ele>
        <time>2025-10-23T10:30:17Z</time>
      </trkpt>
      <trkpt lat="43.61508" lon="3.15574">
        <ele>189.207585</ele>
        <time>2025-10-23T10:30:18Z</time>
      </trkpt>
      <trkpt lat="43.61511" lon="3.15576">
        <ele>189.335967</ele>
        <time>2025-10-23T10:30:19Z</time>
      </trkpt>
      <trkpt lat="43.61514" lon="3.15577">
        <ele>189.46354</ele>
        <time>2025-10-23T10:30:20Z</time>
      </trkpt>
      <trkpt lat="43.61517" lon="3.15579">
        <ele>189.588282</ele>
        <time>2025-10-23T10:30:21Z</time>
      </trkpt>
      <trkpt lat="43.6152" lon="3.1558">
        <ele>189.702173</ele>
        <time>2025-10-23T10:30:22Z</time>
      </trkpt>
      <trkpt lat="43.61523" lon="3.15581">
        <ele>189.821628</ele>
        <time>2025-10-23T10:30:23Z</time>
      </trkpt>
      <trkpt lat="43.61526" lon="3.15583">
        <ele>189.929395</ele>
        <time>2025-10-23T10:30:24Z</time>
      </trkpt>
      <trkpt lat="43.61529" lon="3.15584">
        <ele>190.059556</ele>
        <time>2025-10-23T10:30:25Z</time>
      </trkpt>
      <trkpt lat="43.61532" lon="3.15585">
        <ele>190.182689</ele>
        <time>2025-10-23T10:30:26Z</time>
      </trkpt>
      <trkpt lat="43.61536" lon="3.15587">
        <ele>190.334629</ele>
        <time>2025-10-23T10:30:27Z</time>
      </trkpt>
      <trkpt lat="43.61539" lon="3.15589">
        <ele>190.468393</ele>
        <time>2025-10-23T10:30:28Z</time>
      </trkpt>
      <trkpt lat="43.61542" lon="3.1559">
        <ele>190.597609</ele>
        <time>2025-10-23T10:30:29Z</time>
      </trkpt>
      <trkpt lat="43.61546" lon="3.1559">
        <ele>190.729084</ele>
        <time>2025-10-23T10:30:30Z</time>
      </trkpt>
      <trkpt lat="43.61549" lon="3.15591">
        <ele>190.857735</ele>
        <time>2025-10-23T10:30:31Z</time>
      </trkpt>
      <trkpt lat="43.61552" lon="3.15593">
        <ele>190.993434</ele>
        <time>2025-10-23T10:30:32Z</time>
      </trkpt>
      <trkpt lat="43.61556" lon="3.15594">
        <ele>191.125467</ele>
        <time>2025-10-23T10:30:33Z</time>
      </trkpt>
      <trkpt lat="43.61558" lon="3.15596">
        <ele>191.239358</ele>
        <time>2025-10-23T10:30:34Z</time>
      </trkpt>
      <trkpt lat="43.61562" lon="3.15598">
        <ele>191.379637</ele>
        <time>2025-10-23T10:30:35Z</time>
      </trkpt>
      <trkpt lat="43.61565" lon="3.156">
        <ele>191.5189</ele>
        <time>2025-10-23T10:30:36Z</time>
      </trkpt>
      <trkpt lat="43.61568" lon="3.15602">
        <ele>191.646305</ele>
        <time>2025-10-23T10:30:37Z</time>
      </trkpt>
      <trkpt lat="43.61571" lon="3.15603">
        <ele>191.77492</ele>
        <time>2025-10-23T10:30:38Z</time>
      </trkpt>
      <trkpt lat="43.61574" lon="3.15605">
        <ele>191.886153</ele>
        <time>2025-10-23T10:30:39Z</time>
      </trkpt>
      <trkpt lat="43.61576" lon="3.15606">
        <ele>191.962976</ele>
        <time>2025-10-23T10:30:40Z</time>
      </trkpt>
      <trkpt lat="43.61578" lon="3.15608">
        <ele>192.005754</ele>
        <time>2025-10-23T10:30:41Z</time>
      </trkpt>
      <trkpt lat="43.61581" lon="3.15611">
        <ele>192.04604</ele>
        <time>2025-10-23T10:30:42Z</time>
      </trkpt>
      <trkpt lat="43.61583" lon="3.15613">
        <ele>192.086903</ele>
        <time>2025-10-23T10:30:43Z</time>
      </trkpt>
      <trkpt lat="43.61586" lon="3.15615">
        <ele>192.131606</ele>
        <time>2025-10-23T10:30:44Z</time>
      </trkpt>
      <trkpt lat="43.61589" lon="3.15617">
        <ele>192.173859</ele>
        <time>2025-10-23T10:30:45Z</time>
      </trkpt>
      <trkpt lat="43.61591" lon="3.1562">
        <ele>192.213133</ele>
        <time>2025-10-23T10:30:46Z</time>
      </trkpt>
      <trkpt lat="43.61594" lon="3.15621">
        <ele>192.254355</ele>
        <time>2025-10-23T10:30:47Z</time>
      </trkpt>
      <trkpt lat="43.61597" lon="3.15622">
        <ele>192.296694</ele>
        <time>2025-10-23T10:30:48Z</time>
      </trkpt>
      <trkpt lat="43.61599" lon="3.15622">
        <ele>192.335426</ele>
        <time>2025-10-23T10:30:49Z</time>
      </trkpt>
      <trkpt lat="43.61602" lon="3.15623">
        <ele>192.372996</ele>
        <time>2025-10-23T10:30:50Z</time>
      </trkpt>
      <trkpt lat="43.61605" lon="3.15624">
        <ele>192.412643</ele>
        <time>2025-10-23T10:30:51Z</time>
      </trkpt>
      <trkpt lat="43.61607" lon="3.15625">
        <ele>192.448573</ele>
        <time>2025-10-23T10:30:52Z</time>
      </trkpt>
      <trkpt lat="43.6161" lon="3.15625">
        <ele>192.48593</ele>
        <time>2025-10-23T10:30:53Z</time>
      </trkpt>
      <trkpt lat="43.61613" lon="3.15625">
        <ele>192.521843</ele>
        <time>2025-10-23T10:30:54Z</time>
      </trkpt>
      <trkpt lat="43.61615" lon="3.15624">
        <ele>192.555892</ele>
        <time>2025-10-23T10:30:55Z</time>
      </trkpt>
      <trkpt lat="43.61617" lon="3.15624">
        <ele>192.588373</ele>
        <time>2025-10-23T10:30:56Z</time>
      </trkpt>
      <trkpt lat="43.6162" lon="3.15624">
        <ele>192.623765</ele>
        <time>2025-10-23T10:30:57Z</time>
      </trkpt>
      <trkpt lat="43.61622" lon="3.15627">
        <ele>192.662334</ele>
        <time>2025-10-23T10:30:58Z</time>
      </trkpt>
      <trkpt lat="43.61624" lon="3.15631">
        <ele>192.7052</ele>
        <time>2025-10-23T10:30:59Z</time>
      </trkpt>
      <trkpt lat="43.61624" lon="3.15635">
        <ele>192.753146</ele>
        <time>2025-10-23T10:31:00Z</time>
      </trkpt>
      <trkpt lat="43.61624" lon="3.1564">
        <ele>192.800797</ele>
        <time>2025-10-23T10:31:01Z</time>
      </trkpt>
      <trkpt lat="43.61624" lon="3.15644">
        <ele>192.84473</ele>
        <time>2025-10-23T10:31:02Z</time>
      </trkpt>
      <trkpt lat="43.61624" lon="3.15649">
        <ele>192.891678</ele>
        <time>2025-10-23T10:31:03Z</time>
      </trkpt>
      <trkpt lat="43.61624" lon="3.15654">
        <ele>192.935632</ele>
        <time>2025-10-23T10:31:04Z</time>
      </trkpt>
      <trkpt lat="43.61624" lon="3.15658">
        <ele>192.978654</ele>
        <time>2025-10-23T10:31:05Z</time>
      </trkpt>
      <trkpt lat="43.61624" lon="3.15662">
        <ele>193.024583</ele>
        <time>2025-10-23T10:31:06Z</time>
      </trkpt>
      <trkpt lat="43.61624" lon="3.15667">
        <ele>193.072589</ele>
        <time>2025-10-23T10:31:07Z</time>
      </trkpt>
      <trkpt lat="43.61624" lon="3.15672">
        <ele>193.120594</ele>
        <time>2025-10-23T10:31:08Z</time>
      </trkpt>
      <trkpt lat="43.61624" lon="3.15677">
        <ele>193.167522</ele>
        <time>2025-10-23T10:31:09Z</time>
      </trkpt>
      <trkpt lat="43.61624" lon="3.15682">
        <ele>193.219515</ele>
        <time>2025-10-23T10:31:10Z</time>
      </trkpt>
      <trkpt lat="43.61624" lon="3.15687">
        <ele>193.271453</ele>
        <time>2025-10-23T10:31:11Z</time>
      </trkpt>
      <trkpt lat="43.61625" lon="3.15692">
        <ele>193.323665</ele>
        <time>2025-10-23T10:31:12Z</time>
      </trkpt>
      <trkpt lat="43.61625" lon="3.15698">
        <ele>193.379732</ele>
        <time>2025-10-23T10:31:13Z</time>
      </trkpt>
      <trkpt lat="43.61625" lon="3.15703">
        <ele>193.43265</ele>
        <time>2025-10-23T10:31:14Z</time>
      </trkpt>
      <trkpt lat="43.61623" lon="3.15709">
        <ele>193.488981</ele>
        <time>2025-10-23T10:31:15Z</time>
      </trkpt>
      <trkpt lat="43.6162" lon="3.15712">
        <ele>193.545485</ele>
        <time>2025-10-23T10:31:16Z</time>
      </trkpt>
      <trkpt lat="43.61617" lon="3.15714">
        <ele>193.602309</ele>
        <time>2025-10-23T10:31:17Z</time>
      </trkpt>
      <trkpt lat="43.61612" lon="3.15715">
        <ele>193.660241</ele>
        <time>2025-10-23T10:31:18Z</time>
      </trkpt>
      <trkpt lat="43.61608" lon="3.15715">
        <ele>193.71838</ele>
        <time>2025-10-23T10:31:19Z</time>
      </trkpt>
      <trkpt lat="43.61604" lon="3.15716">
        <ele>193.779878</ele>
        <time>2025-10-23T10:31:20Z</time>
      </trkpt>
      <trkpt lat="43.61599" lon="3.15717">
        <ele>193.84805</ele>
        <time>2025-10-23T10:31:21Z</time>
      </trkpt>
      <trkpt lat="43.61593" lon="3.15718">
        <ele>193.922851</ele>
        <time>2025-10-23T10:31:22Z</time>
      </trkpt>
      <trkpt lat="43.61588" lon="3.15719">
        <ele>194.000725</ele>
        <time>2025-10-23T10:31:23Z</time>
      </trkpt>
      <trkpt lat="43.61582" lon="3.15719">
        <ele>194.075625</ele>
        <time>2025-10-23T10:31:24Z</time>
      </trkpt>
      <trkpt lat="43.61577" lon="3.1572">
        <ele>194.150426</ele>
        <time>2025-10-23T10:31:25Z</time>
      </trkpt>
      <trkpt lat="43.61572" lon="3.15721">
        <ele>194.225326</ele>
        <time>2025-10-23T10:31:26Z</time>
      </trkpt>
      <trkpt lat="43.61566" lon="3.15721">
        <ele>194.302616</ele>
        <time>2025-10-23T10:31:27Z</time>
      </trkpt>
      <trkpt lat="43.61561" lon="3.15722">
        <ele>194.378999</ele>
        <time>2025-10-23T10:31:28Z</time>
      </trkpt>
      <trkpt lat="43.61555" lon="3.15723">
        <ele>194.440359</ele>
        <time>2025-10-23T10:31:29Z</time>
      </trkpt>
      <trkpt lat="43.61551" lon="3.15724">
        <ele>194.389113</ele>
        <time>2025-10-23T10:31:30Z</time>
      </trkpt>
      <trkpt lat="43.61547" lon="3.15724">
        <ele>194.342561</ele>
        <time>2025-10-23T10:31:31Z</time>
      </trkpt>
      <trkpt lat="43.61543" lon="3.15726">
        <ele>194.294343</ele>
        <time>2025-10-23T10:31:32Z</time>
      </trkpt>
      <trkpt lat="43.6154" lon="3.1573">
        <ele>194.24915</ele>
        <time>2025-10-23T10:31:33Z</time>
      </trkpt>
      <trkpt lat="43.61537" lon="3.15733">
        <ele>194.208485</ele>
        <time>2025-10-23T10:31:34Z</time>
      </trkpt>
      <trkpt lat="43.61535" lon="3.15735">
        <ele>194.175143</ele>
        <time>2025-10-23T10:31:35Z</time>
      </trkpt>
      <trkpt lat="43.61533" lon="3.15735">
        <ele>194.15172</ele>
        <time>2025-10-23T10:31:36Z</time>
      </trkpt>
      <trkpt lat="43.61532" lon="3.15736">
        <ele>194.136622</ele>
        <time>2025-10-23T10:31:37Z</time>
      </trkpt>
      <trkpt lat="43.61531" lon="3.15737">
        <ele>194.129796</ele>
        <time>2025-10-23T10:31:38Z</time>
      </trkpt>
      <trkpt lat="43.61531" lon="3.15738">
        <ele>194.114676</ele>
        <time>2025-10-23T10:31:39Z</time>
      </trkpt>
      <trkpt lat="43.6153" lon="3.1574">
        <ele>194.097536</ele>
        <time>2025-10-23T10:31:40Z</time>
      </trkpt>
      <trkpt lat="43.6153" lon="3.15742">
        <ele>194.0766</ele>
        <time>2025-10-23T10:31:41Z</time>
      </trkpt>
      <trkpt lat="43.61529" lon="3.15746">
        <ele>194.044509</ele>
        <time>2025-10-23T10:31:42Z</time>
      </trkpt>
      <trkpt lat="43.61527" lon="3.15749">
        <ele>194.009035</ele>
        <time>2025-10-23T10:31:43Z</time>
      </trkpt>
      <trkpt lat="43.61525" lon="3.15752">
        <ele>193.972622</ele>
        <time>2025-10-23T10:31:44Z</time>
      </trkpt>
      <trkpt lat="43.61522" lon="3.15755">
        <ele>193.933978</ele>
        <time>2025-10-23T10:31:45Z</time>
      </trkpt>
      <trkpt lat="43.61519" lon="3.15758">
        <ele>193.893313</ele>
        <time>2025-10-23T10:31:46Z</time>
      </trkpt>
      <trkpt lat="43.61517" lon="3.15762">
        <ele>193.853168</ele>
        <time>2025-10-23T10:31:47Z</time>
      </trkpt>
      <trkpt lat="43.61515" lon="3.15766">
        <ele>193.812991</ele>
        <time>2025-10-23T10:31:48Z</time>
      </trkpt>
      <trkpt lat="43.61513" lon="3.15769">
        <ele>193.771925</ele>
        <time>2025-10-23T10:31:49Z</time>
      </trkpt>
      <trkpt lat="43.6151" lon="3.15773">
        <ele>193.73126</ele>
        <time>2025-10-23T10:31:50Z</time>
      </trkpt>
      <trkpt lat="43.61508" lon="3.15776">
        <ele>193.689472</ele>
        <time>2025-10-23T10:31:51Z</time>
      </trkpt>
      <trkpt lat="43.61505" lon="3.15779">
        <ele>193.647124</ele>
        <time>2025-10-23T10:31:52Z</time>
      </trkpt>
      <trkpt lat="43.61502" lon="3.15783">
        <ele>193.603698</ele>
        <time>2025-10-23T10:31:53Z</time>
      </trkpt>
      <trkpt lat="43.61499" lon="3.15786">
        <ele>193.557908</ele>
        <time>2025-10-23T10:31:54Z</time>
      </trkpt>
      <trkpt lat="43.61496" lon="3.15789">
        <ele>193.515914</ele>
        <time>2025-10-23T10:31:55Z</time>
      </trkpt>
      <trkpt lat="43.61493" lon="3.15792">
        <ele>193.470935</ele>
        <time>2025-10-23T10:31:56Z</time>
      </trkpt>
      <trkpt lat="43.6149" lon="3.15795">
        <ele>193.428812</ele>
        <time>2025-10-23T10:31:57Z</time>
      </trkpt>
      <trkpt lat="43.61487" lon="3.15798">
        <ele>193.383956</ele>
        <time>2025-10-23T10:31:58Z</time>
      </trkpt>
      <trkpt lat="43.61484" lon="3.15802">
        <ele>193.341038</ele>
        <time>2025-10-23T10:31:59Z</time>
      </trkpt>
      <trkpt lat="43.61481" lon="3.15805">
        <ele>193.298109</ele>
        <time>2025-10-23T10:32:00Z</time>
      </trkpt>
      <trkpt lat="43.61478" lon="3.15808">
        <ele>193.256607</ele>
        <time>2025-10-23T10:32:01Z</time>
      </trkpt>
      <trkpt lat="43.61475" lon="3.1581">
        <ele>193.219038</ele>
        <time>2025-10-23T10:32:02Z</time>
      </trkpt>
      <trkpt lat="43.61472" lon="3.15811">
        <ele>193.1848</ele>
        <time>2025-10-23T10:32:03Z</time>
      </trkpt>
      <trkpt lat="43.61469" lon="3.15812">
        <ele>193.148392</ele>
        <time>2025-10-23T10:32:04Z</time>
      </trkpt>
      <trkpt lat="43.61466" lon="3.15812">
        <ele>193.112978</ele>
        <time>2025-10-23T10:32:05Z</time>
      </trkpt>
      <trkpt lat="43.61464" lon="3.15814">
        <ele>193.084541</ele>
        <time>2025-10-23T10:32:06Z</time>
      </trkpt>
      <trkpt lat="43.61463" lon="3.15815">
        <ele>193.06883</ele>
        <time>2025-10-23T10:32:07Z</time>
      </trkpt>
      <trkpt lat="43.61463" lon="3.15816">
        <ele>193.063381</ele>
        <time>2025-10-23T10:32:08Z</time>
      </trkpt>
      <trkpt lat="43.61463" lon="3.15816">
        <ele>193.058669</ele>
        <time>2025-10-23T10:32:09Z</time>
      </trkpt>
      <trkpt lat="43.61463" lon="3.15816">
        <ele>193.05783</ele>
        <time>2025-10-23T10:32:10Z</time>
      </trkpt>
      <trkpt lat="43.61463" lon="3.15815">
        <ele>193.053036</ele>
        <time>2025-10-23T10:32:11Z</time>
      </trkpt>
      <trkpt lat="43.61462" lon="3.15815">
        <ele>193.048203</ele>
        <time>2025-10-23T10:32:12Z</time>
      </trkpt>
      <trkpt lat="43.61462" lon="3.15816">
        <ele>193.042329</ele>
        <time>2025-10-23T10:32:13Z</time>
      </trkpt>
      <trkpt lat="43.61462" lon="3.15816">
        <ele>193.038973</ele>
        <time>2025-10-23T10:32:14Z</time>
      </trkpt>
      <trkpt lat="43.61463" lon="3.15816">
        <ele>193.035422</ele>
        <time>2025-10-23T10:32:15Z</time>
      </trkpt>
      <trkpt lat="43.61406" lon="3.15872">
        <ele>192.329185</ele>
        <time>2025-10-23T10:33:29Z</time>
      </trkpt>
      <trkpt lat="43.61406" lon="3.15872">
        <ele>192.32771</ele>
        <time>2025-10-23T10:33:30Z</time>
      </trkpt>
      <trkpt lat="43.61405" lon="3.15872">
        <ele>192.326809</ele>
        <time>2025-10-23T10:33:31Z</time>
      </trkpt>
      <trkpt lat="43.61405" lon="3.15871">
        <ele>192.325712</ele>
        <time>2025-10-23T10:33:32Z</time>
      </trkpt>
      <trkpt lat="43.61405" lon="3.15871">
        <ele>192.32542</ele>
        <time>2025-10-23T10:33:33Z</time>
      </trkpt>
      <trkpt lat="43.61405" lon="3.15872">
        <ele>192.324024</ele>
        <time>2025-10-23T10:33:34Z</time>
      </trkpt>
      <trkpt lat="43.61405" lon="3.15873">
        <ele>192.322034</ele>
        <time>2025-10-23T10:33:35Z</time>
      </trkpt>
      <trkpt lat="43.61404" lon="3.15873">
        <ele>192.320492</ele>
        <time>2025-10-23T10:33:36Z</time>
      </trkpt>
      <trkpt lat="43.61404" lon="3.15874">
        <ele>192.319395</ele>
        <time>2025-10-23T10:33:37Z</time>
      </trkpt>
      <trkpt lat="43.61405" lon="3.15874">
        <ele>192.318674</ele>
        <time>2025-10-23T10:33:38Z</time>
      </trkpt>
      <trkpt lat="43.61404" lon="3.15872">
        <ele>192.313658</ele>
        <time>2025-10-23T10:36:20Z</time>
      </trkpt>
      <trkpt lat="43.61404" lon="3.15872">
        <ele>192.313297</ele>
        <time>2025-10-23T10:36:21Z</time>
      </trkpt>
      <trkpt lat="43.61404" lon="3.1587">
        <ele>192.309691</ele>
        <time>2025-10-23T10:36:22Z</time>
      </trkpt>
      <trkpt lat="43.61404" lon="3.15868">
        <ele>192.305664</ele>
        <time>2025-10-23T10:36:23Z</time>
      </trkpt>
      <trkpt lat="43.61404" lon="3.15866">
        <ele>192.30207</ele>
        <time>2025-10-23T10:36:24Z</time>
      </trkpt>
      <trkpt lat="43.61404" lon="3.15865">
        <ele>192.29822</ele>
        <time>2025-10-23T10:36:25Z</time>
      </trkpt>
      <trkpt lat="43.61405" lon="3.15864">
        <ele>192.29623</ele>
        <time>2025-10-23T10:36:26Z</time>
      </trkpt>
      <trkpt lat="43.61405" lon="3.15863">
        <ele>192.294174</ele>
        <time>2025-10-23T10:36:27Z</time>
      </trkpt>
      <trkpt lat="43.61405" lon="3.15862">
        <ele>192.291188</ele>
        <time>2025-10-23T10:36:28Z</time>
      </trkpt>
      <trkpt lat="43.61406" lon="3.15862">
        <ele>192.287976</ele>
        <time>2025-10-23T10:36:29Z</time>
      </trkpt>
      <trkpt lat="43.61408" lon="3.15861">
        <ele>192.284316</ele>
        <time>2025-10-23T10:36:30Z</time>
      </trkpt>
      <trkpt lat="43.61409" lon="3.15861">
        <ele>192.280514</ele>
        <time>2025-10-23T10:36:31Z</time>
      </trkpt>
      <trkpt lat="43.6141" lon="3.15861">
        <ele>192.277274</ele>
        <time>2025-10-23T10:36:32Z</time>
      </trkpt>
      <trkpt lat="43.61411" lon="3.1586">
        <ele>192.274</ele>
        <time>2025-10-23T10:36:33Z</time>
      </trkpt>
      <trkpt lat="43.61412" lon="3.1586">
        <ele>192.271954</ele>
        <time>2025-10-23T10:36:34Z</time>
      </trkpt>
      <trkpt lat="43.61412" lon="3.15859">
        <ele>192.269534</ele>
        <time>2025-10-23T10:36:35Z</time>
      </trkpt>
      <trkpt lat="43.61413" lon="3.15859">
        <ele>192.266606</ele>
        <time>2025-10-23T10:36:36Z</time>
      </trkpt>
      <trkpt lat="43.61414" lon="3.15858">
        <ele>192.264312</ele>
        <time>2025-10-23T10:36:37Z</time>
      </trkpt>
      <trkpt lat="43.61415" lon="3.15859">
        <ele>192.261385</ele>
        <time>2025-10-23T10:36:38Z</time>
      </trkpt>
      <trkpt lat="43.61416" lon="3.15858">
        <ele>192.259439</ele>
        <time>2025-10-23T10:36:39Z</time>
      </trkpt>
      <trkpt lat="43.61417" lon="3.15858">
        <ele>192.256736</ele>
        <time>2025-10-23T10:36:40Z</time>
      </trkpt>
      <trkpt lat="43.61418" lon="3.15858">
        <ele>192.253696</ele>
        <time>2025-10-23T10:36:41Z</time>
      </trkpt>
      <trkpt lat="43.61419" lon="3.15859">
        <ele>192.249559</ele>
        <time>2025-10-23T10:36:42Z</time>
      </trkpt>
      <trkpt lat="43.61421" lon="3.1586">
        <ele>192.243984</ele>
        <time>2025-10-23T10:36:43Z</time>
      </trkpt>
      <trkpt lat="43.61423" lon="3.15861">
        <ele>192.237175</ele>
        <time>2025-10-23T10:36:44Z</time>
      </trkpt>
      <trkpt lat="43.61425" lon="3.15863">
        <ele>192.229798</ele>
        <time>2025-10-23T10:36:45Z</time>
      </trkpt>
      <trkpt lat="43.61428" lon="3.15866">
        <ele>192.218807</ele>
        <time>2025-10-23T10:36:46Z</time>
      </trkpt>
      <trkpt lat="43.61431" lon="3.15869">
        <ele>192.208713</ele>
        <time>2025-10-23T10:36:47Z</time>
      </trkpt>
      <trkpt lat="43.61434" lon="3.15872">
        <ele>192.198021</ele>
        <time>2025-10-23T10:36:48Z</time>
      </trkpt>
      <trkpt lat="43.61436" lon="3.15874">
        <ele>192.188622</ele>
        <time>2025-10-23T10:36:49Z</time>
      </trkpt>
      <trkpt lat="43.61438" lon="3.15877">
        <ele>192.180863</ele>
        <time>2025-10-23T10:36:50Z</time>
      </trkpt>
      <trkpt lat="43.61439" lon="3.1588">
        <ele>192.174696</ele>
        <time>2025-10-23T10:36:51Z</time>
      </trkpt>
      <trkpt lat="43.6144" lon="3.15881">
        <ele>192.17037</ele>
        <time>2025-10-23T10:36:52Z</time>
      </trkpt>
      <trkpt lat="43.61441" lon="3.15882">
        <ele>192.168138</ele>
        <time>2025-10-23T10:36:53Z</time>
      </trkpt>
      <trkpt lat="43.61442" lon="3.15882">
        <ele>192.165792</ele>
        <time>2025-10-23T10:36:54Z</time>
      </trkpt>
      <trkpt lat="43.61441" lon="3.15881">
        <ele>192.165171</ele>
        <time>2025-10-23T10:36:55Z</time>
      </trkpt>
      <trkpt lat="43.61441" lon="3.15881">
        <ele>192.16427</ele>
        <time>2025-10-23T10:36:56Z</time>
      </trkpt>
      <trkpt lat="43.61441" lon="3.15882">
        <ele>192.163188</ele>
        <time>2025-10-23T10:36:57Z</time>
      </trkpt>
      <trkpt lat="43.61441" lon="3.15882">
        <ele>192.162343</ele>
        <time>2025-10-23T10:36:58Z</time>
      </trkpt>
      <trkpt lat="43.61441" lon="3.15883">
        <ele>192.159944</ele>
        <time>2025-10-23T10:36:59Z</time>
      </trkpt>
      <trkpt lat="43.61442" lon="3.15884">
        <ele>192.156819</ele>
        <time>2025-10-23T10:37:00Z</time>
      </trkpt>
      <trkpt lat="43.61444" lon="3.15883">
        <ele>192.151978</ele>
        <time>2025-10-23T10:37:01Z</time>
      </trkpt>
      <trkpt lat="43.61446" lon="3.15881">
        <ele>192.144361</ele>
        <time>2025-10-23T10:37:02Z</time>
      </trkpt>
      <trkpt lat="43.61449" lon="3.1588">
        <ele>192.13656</ele>
        <time>2025-10-23T10:37:03Z</time>
      </trkpt>
      <trkpt lat="43.61452" lon="3.15879">
        <ele>192.1271</ele>
        <time>2025-10-23T10:37:04Z</time>
      </trkpt>
      <trkpt lat="43.61455" lon="3.15877">
        <ele>192.117162</ele>
        <time>2025-10-23T10:37:05Z</time>
      </trkpt>
      <trkpt lat="43.61459" lon="3.15875">
        <ele>192.105396</ele>
        <time>2025-10-23T10:37:06Z</time>
      </trkpt>
      <trkpt lat="43.61462" lon="3.15872">
        <ele>192.094581</ele>
        <time>2025-10-23T10:37:07Z</time>
      </trkpt>
      <trkpt lat="43.61465" lon="3.15868">
        <ele>192.081942</ele>
        <time>2025-10-23T10:37:08Z</time>
      </trkpt>
      <trkpt lat="43.61469" lon="3.15864">
        <ele>192.068711</ele>
        <time>2025-10-23T10:37:09Z</time>
      </trkpt>
      <trkpt lat="43.61472" lon="3.15862">
        <ele>192.056863</ele>
        <time>2025-10-23T10:37:10Z</time>
      </trkpt>
      <trkpt lat="43.61476" lon="3.15862">
        <ele>192.045735</ele>
        <time>2025-10-23T10:37:11Z</time>
      </trkpt>
      <trkpt lat="43.61479" lon="3.15864">
        <ele>192.035313</ele>
        <time>2025-10-23T10:37:12Z</time>
      </trkpt>
      <trkpt lat="43.61483" lon="3.15866">
        <ele>192.024258</ele>
        <time>2025-10-23T10:37:13Z</time>
      </trkpt>
      <trkpt lat="43.61485" lon="3.1587">
        <ele>192.014265</ele>
        <time>2025-10-23T10:37:14Z</time>
      </trkpt>
      <trkpt lat="43.61488" lon="3.15873">
        <ele>192.004376</ele>
        <time>2025-10-23T10:37:15Z</time>
      </trkpt>
      <trkpt lat="43.61489" lon="3.15876">
        <ele>191.99598</ele>
        <time>2025-10-23T10:37:16Z</time>
      </trkpt>
      <trkpt lat="43.61491" lon="3.15878">
        <ele>191.987811</ele>
        <time>2025-10-23T10:37:17Z</time>
      </trkpt>
      <trkpt lat="43.61494" lon="3.1588">
        <ele>191.979499</ele>
        <time>2025-10-23T10:37:18Z</time>
      </trkpt>
      <trkpt lat="43.61496" lon="3.15882">
        <ele>191.973132</ele>
        <time>2025-10-23T10:37:19Z</time>
      </trkpt>
      <trkpt lat="43.61497" lon="3.15884">
        <ele>191.968301</ele>
        <time>2025-10-23T10:37:20Z</time>
      </trkpt>
      <trkpt lat="43.61497" lon="3.15886">
        <ele>191.963654</ele>
        <time>2025-10-23T10:37:21Z</time>
      </trkpt>
      <trkpt lat="43.61498" lon="3.15886">
        <ele>191.961608</ele>
        <time>2025-10-23T10:37:22Z</time>
      </trkpt>
      <trkpt lat="43.61499" lon="3.15887">
        <ele>191.959445</ele>
        <time>2025-10-23T10:37:23Z</time>
      </trkpt>
      <trkpt lat="43.61499" lon="3.15887">
        <ele>191.958003</ele>
        <time>2025-10-23T10:37:24Z</time>
      </trkpt>
      <trkpt lat="43.61499" lon="3.15888">
        <ele>191.95663</ele>
        <time>2025-10-23T10:37:25Z</time>
      </trkpt>
      <trkpt lat="43.615" lon="3.15889">
        <ele>191.953719</ele>
        <time>2025-10-23T10:37:26Z</time>
      </trkpt>
      <trkpt lat="43.615" lon="3.1589">
        <ele>191.951484</ele>
        <time>2025-10-23T10:37:27Z</time>
      </trkpt>
      <trkpt lat="43.61501" lon="3.15889">
        <ele>191.948848</ele>
        <time>2025-10-23T10:37:28Z</time>
      </trkpt>
      <trkpt lat="43.61502" lon="3.15889">
        <ele>191.946284</ele>
        <time>2025-10-23T10:37:29Z</time>
      </trkpt>
      <trkpt lat="43.61502" lon="3.15889">
        <ele>191.945066</ele>
        <time>2025-10-23T10:37:30Z</time>
      </trkpt>
      <trkpt lat="43.61503" lon="3.15889">
        <ele>191.944345</ele>
        <time>2025-10-23T10:37:31Z</time>
      </trkpt>
      <trkpt lat="43.61502" lon="3.15889">
        <ele>191.943317</ele>
        <time>2025-10-23T10:37:32Z</time>
      </trkpt>
      <trkpt lat="43.61501" lon="3.15889">
        <ele>191.938242</ele>
        <time>2025-10-23T10:38:04Z</time>
      </trkpt>
      <trkpt lat="43.615" lon="3.15889">
        <ele>191.937269</ele>
        <time>2025-10-23T10:38:05Z</time>
      </trkpt>
      <trkpt lat="43.615" lon="3.1589">
        <ele>191.935135</ele>
        <time>2025-10-23T10:38:06Z</time>
      </trkpt>
      <trkpt lat="43.615" lon="3.1589">
        <ele>191.934551</ele>
        <time>2025-10-23T10:38:07Z</time>
      </trkpt>
      <trkpt lat="43.61501" lon="3.1589">
        <ele>191.933364</ele>
        <time>2025-10-23T10:38:08Z</time>
      </trkpt>
      <trkpt lat="43.61501" lon="3.15888">
        <ele>191.929741</ele>
        <time>2025-10-23T10:38:09Z</time>
      </trkpt>
      <trkpt lat="43.61501" lon="3.15887">
        <ele>191.927647</ele>
        <time>2025-10-23T10:38:10Z</time>
      </trkpt>
      <trkpt lat="43.61502" lon="3.15886">
        <ele>191.924465</ele>
        <time>2025-10-23T10:38:11Z</time>
      </trkpt>
      <trkpt lat="43.61502" lon="3.15886">
        <ele>191.923951</ele>
        <time>2025-10-23T10:38:12Z</time>
      </trkpt>
      <trkpt lat="43.61503" lon="3.15887">
        <ele>191.921788</ele>
        <time>2025-10-23T10:38:13Z</time>
      </trkpt>
      <trkpt lat="43.61503" lon="3.15888">
        <ele>191.917669</ele>
        <time>2025-10-23T10:38:14Z</time>
      </trkpt>
      <trkpt lat="43.61505" lon="3.15891">
        <ele>191.910987</ele>
        <time>2025-10-23T10:38:15Z</time>
      </trkpt>
      <trkpt lat="43.61506" lon="3.15893">
        <ele>191.903933</ele>
        <time>2025-10-23T10:38:16Z</time>
      </trkpt>
      <trkpt lat="43.61508" lon="3.15896">
        <ele>191.896225</ele>
        <time>2025-10-23T10:38:17Z</time>
      </trkpt>
      <trkpt lat="43.6151" lon="3.15899">
        <ele>191.8885</ele>
        <time>2025-10-23T10:38:18Z</time>
      </trkpt>
      <trkpt lat="43.61512" lon="3.15902">
        <ele>191.880265</ele>
        <time>2025-10-23T10:38:19Z</time>
      </trkpt>
      <trkpt lat="43.61514" lon="3.15904">
        <ele>191.872348</ele>
        <time>2025-10-23T10:38:20Z</time>
      </trkpt>
      <trkpt lat="43.61515" lon="3.15907">
        <ele>191.864623</ele>
        <time>2025-10-23T10:38:21Z</time>
      </trkpt>
      <trkpt lat="43.61517" lon="3.15909">
        <ele>191.857463</ele>
        <time>2025-10-23T10:38:22Z</time>
      </trkpt>
      <trkpt lat="43.61519" lon="3.1591">
        <ele>191.851878</ele>
        <time>2025-10-23T10:38:23Z</time>
      </trkpt>
      <trkpt lat="43.61521" lon="3.15909">
        <ele>191.847318</ele>
        <time>2025-10-23T10:38:24Z</time>
      </trkpt>
      <trkpt lat="43.61522" lon="3.15907">
        <ele>191.840829</ele>
        <time>2025-10-23T10:38:25Z</time>
      </trkpt>
      <trkpt lat="43.61524" lon="3.15905">
        <ele>191.824375</ele>
        <time>2025-10-23T10:38:26Z</time>
      </trkpt>
      <trkpt lat="43.61526" lon="3.15902">
        <ele>191.802257</ele>
        <time>2025-10-23T10:38:27Z</time>
      </trkpt>
      <trkpt lat="43.61527" lon="3.15899">
        <ele>191.778061</ele>
        <time>2025-10-23T10:38:28Z</time>
      </trkpt>
      <trkpt lat="43.61528" lon="3.15895">
        <ele>191.750845</ele>
        <time>2025-10-23T10:38:29Z</time>
      </trkpt>
      <trkpt lat="43.61529" lon="3.15892">
        <ele>191.728449</ele>
        <time>2025-10-23T10:38:30Z</time>
      </trkpt>
      <trkpt lat="43.61531" lon="3.1589">
        <ele>191.707019</ele>
        <time>2025-10-23T10:38:31Z</time>
      </trkpt>
      <trkpt lat="43.61533" lon="3.15888">
        <ele>191.684212</ele>
        <time>2025-10-23T10:38:32Z</time>
      </trkpt>
      <trkpt lat="43.61535" lon="3.15885">
        <ele>191.657051</ele>
        <time>2025-10-23T10:38:33Z</time>
      </trkpt>
      <trkpt lat="43.61537" lon="3.15881">
        <ele>191.625697</ele>
        <time>2025-10-23T10:38:34Z</time>
      </trkpt>
      <trkpt lat="43.61539" lon="3.15878">
        <ele>191.596001</ele>
        <time>2025-10-23T10:38:35Z</time>
      </trkpt>
      <trkpt lat="43.61542" lon="3.15874">
        <ele>191.562603</ele>
        <time>2025-10-23T10:38:36Z</time>
      </trkpt>
      <trkpt lat="43.61545" lon="3.15872">
        <ele>191.53194</ele>
        <time>2025-10-23T10:38:37Z</time>
      </trkpt>
      <trkpt lat="43.61547" lon="3.15869">
        <ele>191.508699</ele>
        <time>2025-10-23T10:38:38Z</time>
      </trkpt>
      <trkpt lat="43.61548" lon="3.15868">
        <ele>191.488994</ele>
        <time>2025-10-23T10:38:39Z</time>
      </trkpt>
      <trkpt lat="43.6155" lon="3.15867">
        <ele>191.475057</ele>
        <time>2025-10-23T10:38:40Z</time>
      </trkpt>
      <trkpt lat="43.61551" lon="3.15867">
        <ele>191.464916</ele>
        <time>2025-10-23T10:38:41Z</time>
      </trkpt>
      <trkpt lat="43.61552" lon="3.15867">
        <ele>191.45729</ele>
        <time>2025-10-23T10:38:42Z</time>
      </trkpt>
      <trkpt lat="43.61553" lon="3.15867">
        <ele>191.443476</ele>
        <time>2025-10-23T10:38:43Z</time>
      </trkpt>
      <trkpt lat="43.61555" lon="3.15867">
        <ele>191.425066</ele>
        <time>2025-10-23T10:38:44Z</time>
      </trkpt>
      <trkpt lat="43.61557" lon="3.15867">
        <ele>191.403741</ele>
        <time>2025-10-23T10:38:45Z</time>
      </trkpt>
      <trkpt lat="43.6156" lon="3.15868">
        <ele>191.382218</ele>
        <time>2025-10-23T10:38:46Z</time>
      </trkpt>
      <trkpt lat="43.61562" lon="3.15869">
        <ele>191.358503</ele>
        <time>2025-10-23T10:38:47Z</time>
      </trkpt>
      <trkpt lat="43.61565" lon="3.15871">
        <ele>191.330092</ele>
        <time>2025-10-23T10:38:48Z</time>
      </trkpt>
      <trkpt lat="43.61567" lon="3.15873">
        <ele>191.303957</ele>
        <time>2025-10-23T10:38:49Z</time>
      </trkpt>
      <trkpt lat="43.6157" lon="3.15876">
        <ele>191.271019</ele>
        <time>2025-10-23T10:38:50Z</time>
      </trkpt>
      <trkpt lat="43.61573" lon="3.15877">
        <ele>191.243144</ele>
        <time>2025-10-23T10:38:51Z</time>
      </trkpt>
      <trkpt lat="43.61576" lon="3.1588">
        <ele>191.213022</ele>
        <time>2025-10-23T10:38:52Z</time>
      </trkpt>
      <trkpt lat="43.61579" lon="3.15882">
        <ele>191.183054</ele>
        <time>2025-10-23T10:38:53Z</time>
      </trkpt>
      <trkpt lat="43.61581" lon="3.15884">
        <ele>191.156805</ele>
        <time>2025-10-23T10:38:54Z</time>
      </trkpt>
      <trkpt lat="43.61583" lon="3.15885">
        <ele>191.134414</ele>
        <time>2025-10-23T10:38:55Z</time>
      </trkpt>
      <trkpt lat="43.61585" lon="3.15887">
        <ele>191.111293</ele>
        <time>2025-10-23T10:38:56Z</time>
      </trkpt>
      <trkpt lat="43.61587" lon="3.15888">
        <ele>191.09564</ele>
        <time>2025-10-23T10:38:57Z</time>
      </trkpt>
      <trkpt lat="43.61589" lon="3.15888">
        <ele>191.080921</ele>
        <time>2025-10-23T10:38:58Z</time>
      </trkpt>
      <trkpt lat="43.6159" lon="3.15887">
        <ele>191.068312</ele>
        <time>2025-10-23T10:38:59Z</time>
      </trkpt>
      <trkpt lat="43.61591" lon="3.15886">
        <ele>191.055751</ele>
        <time>2025-10-23T10:39:00Z</time>
      </trkpt>
      <trkpt lat="43.61592" lon="3.15884">
        <ele>191.039549</ele>
        <time>2025-10-23T10:39:01Z</time>
      </trkpt>
      <trkpt lat="43.61593" lon="3.15883">
        <ele>191.026574</ele>
        <time>2025-10-23T10:39:02Z</time>
      </trkpt>
      <trkpt lat="43.61595" lon="3.15881">
        <ele>191.007067</ele>
        <time>2025-10-23T10:39:03Z</time>
      </trkpt>
      <trkpt lat="43.61597" lon="3.15876">
        <ele>190.966068</ele>
        <time>2025-10-23T10:39:04Z</time>
      </trkpt>
      <trkpt lat="43.61599" lon="3.15872">
        <ele>190.937475</ele>
        <time>2025-10-23T10:39:05Z</time>
      </trkpt>
      <trkpt lat="43.61601" lon="3.15869">
        <ele>190.908214</ele>
        <time>2025-10-23T10:39:06Z</time>
      </trkpt>
      <trkpt lat="43.61603" lon="3.15865">
        <ele>190.87422</ele>
        <time>2025-10-23T10:39:07Z</time>
      </trkpt>
      <trkpt lat="43.61605" lon="3.15861">
        <ele>190.844455</ele>
        <time>2025-10-23T10:39:08Z</time>
      </trkpt>
      <trkpt lat="43.61607" lon="3.15857">
        <ele>190.814244</ele>
        <time>2025-10-23T10:39:09Z</time>
      </trkpt>
      <trkpt lat="43.61608" lon="3.15854">
        <ele>190.78565</ele>
        <time>2025-10-23T10:39:10Z</time>
      </trkpt>
      <trkpt lat="43.6161" lon="3.15849">
        <ele>190.755579</ele>
        <time>2025-10-23T10:39:11Z</time>
      </trkpt>
      <trkpt lat="43.61611" lon="3.15846">
        <ele>190.728188</ele>
        <time>2025-10-23T10:39:12Z</time>
      </trkpt>
      <trkpt lat="43.61612" lon="3.15842">
        <ele>190.700634</ele>
        <time>2025-10-23T10:39:13Z</time>
      </trkpt>
      <trkpt lat="43.61613" lon="3.15837">
        <ele>190.670261</ele>
        <time>2025-10-23T10:39:14Z</time>
      </trkpt>
      <trkpt lat="43.61614" lon="3.15833">
        <ele>190.636413</ele>
        <time>2025-10-23T10:39:15Z</time>
      </trkpt>
      <trkpt lat="43.61616" lon="3.15828">
        <ele>190.603222</ele>
        <time>2025-10-23T10:39:16Z</time>
      </trkpt>
      <trkpt lat="43.61617" lon="3.15823">
        <ele>190.567423</ele>
        <time>2025-10-23T10:39:17Z</time>
      </trkpt>
      <trkpt lat="43.61619" lon="3.15818">
        <ele>190.532834</ele>
        <time>2025-10-23T10:39:18Z</time>
      </trkpt>
      <trkpt lat="43.6162" lon="3.15814">
        <ele>190.498986</ele>
        <time>2025-10-23T10:39:19Z</time>
      </trkpt>
      <trkpt lat="43.61622" lon="3.1581">
        <ele>190.469397</ele>
        <time>2025-10-23T10:39:20Z</time>
      </trkpt>
      <trkpt lat="43.61623" lon="3.15807">
        <ele>190.44668</ele>
        <time>2025-10-23T10:39:21Z</time>
      </trkpt>
      <trkpt lat="43.61624" lon="3.15804">
        <ele>190.426633</ele>
        <time>2025-10-23T10:39:22Z</time>
      </trkpt>
      <trkpt lat="43.61625" lon="3.15803">
        <ele>190.411469</ele>
        <time>2025-10-23T10:39:23Z</time>
      </trkpt>
      <trkpt lat="43.61626" lon="3.15802">
        <ele>190.398977</ele>
        <time>2025-10-23T10:39:24Z</time>
      </trkpt>
      <trkpt lat="43.61627" lon="3.158">
        <ele>190.384089</ele>
        <time>2025-10-23T10:39:25Z</time>
      </trkpt>
      <trkpt lat="43.61628" lon="3.15798">
        <ele>190.366676</ele>
        <time>2025-10-23T10:39:26Z</time>
      </trkpt>
      <trkpt lat="43.61629" lon="3.15795">
        <ele>190.349683</ele>
        <time>2025-10-23T10:39:27Z</time>
      </trkpt>
      <trkpt lat="43.61631" lon="3.15793">
        <ele>190.325926</ele>
        <time>2025-10-23T10:39:28Z</time>
      </trkpt>
      <trkpt lat="43.61632" lon="3.1579">
        <ele>190.302095</ele>
        <time>2025-10-23T10:39:29Z</time>
      </trkpt>
      <trkpt lat="43.61634" lon="3.15787">
        <ele>190.275245</ele>
        <time>2025-10-23T10:39:30Z</time>
      </trkpt>
      <trkpt lat="43.61636" lon="3.15784">
        <ele>190.246641</ele>
        <time>2025-10-23T10:39:31Z</time>
      </trkpt>
      <trkpt lat="43.61638" lon="3.1578">
        <ele>190.219634</ele>
        <time>2025-10-23T10:39:32Z</time>
      </trkpt>
      <trkpt lat="43.6164" lon="3.15777">
        <ele>190.189407</ele>
        <time>2025-10-23T10:39:33Z</time>
      </trkpt>
      <trkpt lat="43.61643" lon="3.15774">
        <ele>190.194328</ele>
        <time>2025-10-23T10:39:34Z</time>
      </trkpt>
      <trkpt lat="43.61644" lon="3.1577">
        <ele>190.210983</ele>
        <time>2025-10-23T10:39:35Z</time>
      </trkpt>
      <trkpt lat="43.61646" lon="3.15766">
        <ele>190.226022</ele>
        <time>2025-10-23T10:39:36Z</time>
      </trkpt>
      <trkpt lat="43.61647" lon="3.15762">
        <ele>190.240915</ele>
        <time>2025-10-23T10:39:37Z</time>
      </trkpt>
      <trkpt lat="43.61649" lon="3.15758">
        <ele>190.254297</ele>
        <time>2025-10-23T10:39:38Z</time>
      </trkpt>
      <trkpt lat="43.6165" lon="3.15756">
        <ele>190.266222</ele>
        <time>2025-10-23T10:39:39Z</time>
      </trkpt>
      <trkpt lat="43.61651" lon="3.15753">
        <ele>190.277353</ele>
        <time>2025-10-23T10:39:40Z</time>
      </trkpt>
      <trkpt lat="43.61653" lon="3.15749">
        <ele>190.290439</ele>
        <time>2025-10-23T10:39:41Z</time>
      </trkpt>
      <trkpt lat="43.61654" lon="3.15746">
        <ele>190.301549</ele>
        <time>2025-10-23T10:39:42Z</time>
      </trkpt>
      <trkpt lat="43.61655" lon="3.15744">
        <ele>190.31203</ele>
        <time>2025-10-23T10:39:43Z</time>
      </trkpt>
      <trkpt lat="43.61656" lon="3.15741">
        <ele>190.322824</ele>
        <time>2025-10-23T10:39:44Z</time>
      </trkpt>
      <trkpt lat="43.61657" lon="3.15738">
        <ele>190.333355</ele>
        <time>2025-10-23T10:39:45Z</time>
      </trkpt>
      <trkpt lat="43.61658" lon="3.15736">
        <ele>190.343904</ele>
        <time>2025-10-23T10:39:46Z</time>
      </trkpt>
      <trkpt lat="43.61658" lon="3.15733">
        <ele>190.352998</ele>
        <time>2025-10-23T10:39:47Z</time>
      </trkpt>
      <trkpt lat="43.61658" lon="3.1573">
        <ele>190.362201</ele>
        <time>2025-10-23T10:39:48Z</time>
      </trkpt>
      <trkpt lat="43.61657" lon="3.15728">
        <ele>190.3728</ele>
        <time>2025-10-23T10:39:49Z</time>
      </trkpt>
      <trkpt lat="43.61655" lon="3.15725">
        <ele>190.384162</ele>
        <time>2025-10-23T10:39:50Z</time>
      </trkpt>
      <trkpt lat="43.61655" lon="3.15722">
        <ele>190.394461</ele>
        <time>2025-10-23T10:39:51Z</time>
      </trkpt>
      <trkpt lat="43.61653" lon="3.1572">
        <ele>190.404741</ele>
        <time>2025-10-23T10:39:52Z</time>
      </trkpt>
      <trkpt lat="43.61651" lon="3.15718">
        <ele>190.415446</ele>
        <time>2025-10-23T10:39:53Z</time>
      </trkpt>
      <trkpt lat="43.61649" lon="3.15717">
        <ele>190.426743</ele>
        <time>2025-10-23T10:39:54Z</time>
      </trkpt>
      <trkpt lat="43.61647" lon="3.15717">
        <ele>190.436293</ele>
        <time>2025-10-23T10:39:55Z</time>
      </trkpt>
      <trkpt lat="43.61645" lon="3.15717">
        <ele>190.446363</ele>
        <time>2025-10-23T10:39:56Z</time>
      </trkpt>
      <trkpt lat="43.61643" lon="3.15717">
        <ele>190.455839</ele>
        <time>2025-10-23T10:39:57Z</time>
      </trkpt>
      <trkpt lat="43.61641" lon="3.15718">
        <ele>190.466793</ele>
        <time>2025-10-23T10:39:58Z</time>
      </trkpt>
      <trkpt lat="43.61639" lon="3.15718">
        <ele>190.476723</ele>
        <time>2025-10-23T10:39:59Z</time>
      </trkpt>
      <trkpt lat="43.61636" lon="3.15718">
        <ele>190.487119</ele>
        <time>2025-10-23T10:40:00Z</time>
      </trkpt>
      <trkpt lat="43.61634" lon="3.15718">
        <ele>190.497988</ele>
        <time>2025-10-23T10:40:01Z</time>
      </trkpt>
      <trkpt lat="43.61632" lon="3.15718">
        <ele>190.507464</ele>
        <time>2025-10-23T10:40:02Z</time>
      </trkpt>
      <trkpt lat="43.6163" lon="3.15718">
        <ele>190.515997</ele>
        <time>2025-10-23T10:40:03Z</time>
      </trkpt>
      <trkpt lat="43.61628" lon="3.15718">
        <ele>190.526888</ele>
        <time>2025-10-23T10:40:04Z</time>
      </trkpt>
      <trkpt lat="43.61626" lon="3.15717">
        <ele>190.538311</ele>
        <time>2025-10-23T10:40:05Z</time>
      </trkpt>
      <trkpt lat="43.61623" lon="3.15717">
        <ele>190.550716</ele>
        <time>2025-10-23T10:40:06Z</time>
      </trkpt>
      <trkpt lat="43.6162" lon="3.15716">
        <ele>190.564473</ele>
        <time>2025-10-23T10:40:07Z</time>
      </trkpt>
      <trkpt lat="43.61617" lon="3.15715">
        <ele>190.579597</ele>
        <time>2025-10-23T10:40:08Z</time>
      </trkpt>
      <trkpt lat="43.61614" lon="3.15715">
        <ele>190.596613</ele>
        <time>2025-10-23T10:40:09Z</time>
      </trkpt>
      <trkpt lat="43.6161" lon="3.15715">
        <ele>190.615093</ele>
        <time>2025-10-23T10:40:10Z</time>
      </trkpt>
      <trkpt lat="43.61606" lon="3.15716">
        <ele>190.634577</ele>
        <time>2025-10-23T10:40:11Z</time>
      </trkpt>
      <trkpt lat="43.61601" lon="3.15716">
        <ele>190.654923</ele>
        <time>2025-10-23T10:40:12Z</time>
      </trkpt>
      <trkpt lat="43.61597" lon="3.15716">
        <ele>190.674773</ele>
        <time>2025-10-23T10:40:13Z</time>
      </trkpt>
      <trkpt lat="43.61593" lon="3.15716">
        <ele>190.696038</ele>
        <time>2025-10-23T10:40:14Z</time>
      </trkpt>
      <trkpt lat="43.61588" lon="3.15716">
        <ele>190.717402</ele>
        <time>2025-10-23T10:40:15Z</time>
      </trkpt>
      <trkpt lat="43.61584" lon="3.15717">
        <ele>190.738332</ele>
        <time>2025-10-23T10:40:16Z</time>
      </trkpt>
      <trkpt lat="43.61579" lon="3.15717">
        <ele>190.761025</ele>
        <time>2025-10-23T10:40:17Z</time>
      </trkpt>
      <trkpt lat="43.61574" lon="3.15717">
        <ele>190.783235</ele>
        <time>2025-10-23T10:40:18Z</time>
      </trkpt>
      <trkpt lat="43.6157" lon="3.15717">
        <ele>190.80313</ele>
        <time>2025-10-23T10:40:19Z</time>
      </trkpt>
      <trkpt lat="43.61565" lon="3.15717">
        <ele>190.828684</ele>
        <time>2025-10-23T10:40:20Z</time>
      </trkpt>
      <trkpt lat="43.61559" lon="3.15718">
        <ele>190.853409</ele>
        <time>2025-10-23T10:40:21Z</time>
      </trkpt>
      <trkpt lat="43.61554" lon="3.15719">
        <ele>190.878219</ele>
        <time>2025-10-23T10:40:22Z</time>
      </trkpt>
      <trkpt lat="43.61549" lon="3.1572">
        <ele>190.900806</ele>
        <time>2025-10-23T10:40:23Z</time>
      </trkpt>
      <trkpt lat="43.61545" lon="3.15723">
        <ele>190.921553</ele>
        <time>2025-10-23T10:40:24Z</time>
      </trkpt>
      <trkpt lat="43.61543" lon="3.15728">
        <ele>190.941783</ele>
        <time>2025-10-23T10:40:25Z</time>
      </trkpt>
      <trkpt lat="43.61543" lon="3.15733">
        <ele>190.960354</ele>
        <time>2025-10-23T10:40:26Z</time>
      </trkpt>
      <trkpt lat="43.61543" lon="3.15738">
        <ele>190.978245</ele>
        <time>2025-10-23T10:40:27Z</time>
      </trkpt>
      <trkpt lat="43.61544" lon="3.15743">
        <ele>190.995208</ele>
        <time>2025-10-23T10:40:28Z</time>
      </trkpt>
      <trkpt lat="43.61545" lon="3.15748">
        <ele>191.015316</ele>
        <time>2025-10-23T10:40:29Z</time>
      </trkpt>
      <trkpt lat="43.61545" lon="3.15754">
        <ele>191.031617</ele>
        <time>2025-10-23T10:40:30Z</time>
      </trkpt>
      <trkpt lat="43.61544" lon="3.1576">
        <ele>191.029519</ele>
        <time>2025-10-23T10:40:31Z</time>
      </trkpt>
      <trkpt lat="43.61543" lon="3.15765">
        <ele>191.027527</ele>
        <time>2025-10-23T10:40:32Z</time>
      </trkpt>
      <trkpt lat="43.6154" lon="3.1577">
        <ele>191.025186</ele>
        <time>2025-10-23T10:40:33Z</time>
      </trkpt>
      <trkpt lat="43.61538" lon="3.15775">
        <ele>191.023159</ele>
        <time>2025-10-23T10:40:34Z</time>
      </trkpt>
      <trkpt lat="43.61537" lon="3.15779">
        <ele>191.021268</ele>
        <time>2025-10-23T10:40:35Z</time>
      </trkpt>
      <trkpt lat="43.61535" lon="3.15783">
        <ele>191.019765</ele>
        <time>2025-10-23T10:40:36Z</time>
      </trkpt>
      <trkpt lat="43.61534" lon="3.15784">
        <ele>191.018982</ele>
        <time>2025-10-23T10:40:37Z</time>
      </trkpt>
      <trkpt lat="43.61532" lon="3.15785">
        <ele>191.017709</ele>
        <time>2025-10-23T10:40:38Z</time>
      </trkpt>
      <trkpt lat="43.61528" lon="3.1579">
        <ele>191.015318</ele>
        <time>2025-10-23T10:40:39Z</time>
      </trkpt>
      <trkpt lat="43.61524" lon="3.15795">
        <ele>191.012544</ele>
        <time>2025-10-23T10:40:40Z</time>
      </trkpt>
      <trkpt lat="43.61521" lon="3.15799">
        <ele>191.010006</ele>
        <time>2025-10-23T10:40:41Z</time>
      </trkpt>
      <trkpt lat="43.61517" lon="3.15804">
        <ele>191.007458</ele>
        <time>2025-10-23T10:40:42Z</time>
      </trkpt>
      <trkpt lat="43.61514" lon="3.15808">
        <ele>191.005173</ele>
        <time>2025-10-23T10:40:43Z</time>
      </trkpt>
      <trkpt lat="43.61511" lon="3.15812">
        <ele>191.003226</ele>
        <time>2025-10-23T10:40:44Z</time>
      </trkpt>
      <trkpt lat="43.61509" lon="3.15815">
        <ele>191.001607</ele>
        <time>2025-10-23T10:40:45Z</time>
      </trkpt>
      <trkpt lat="43.61507" lon="3.15817">
        <ele>191.000452</ele>
        <time>2025-10-23T10:40:46Z</time>
      </trkpt>
      <trkpt lat="43.61505" lon="3.1582">
        <ele>190.998858</ele>
        <time>2025-10-23T10:40:47Z</time>
      </trkpt>
      <trkpt lat="43.61503" lon="3.15823">
        <ele>190.997627</ele>
        <time>2025-10-23T10:40:48Z</time>
      </trkpt>
      <trkpt lat="43.61503" lon="3.15823">
        <ele>190.997288</ele>
        <time>2025-10-23T10:40:49Z</time>
      </trkpt>
      <trkpt lat="43.61506" lon="3.15821">
        <ele>190.995413</ele>
        <time>2025-10-23T10:40:50Z</time>
      </trkpt>
      <trkpt lat="43.61508" lon="3.15819">
        <ele>190.994063</ele>
        <time>2025-10-23T10:40:51Z</time>
      </trkpt>
      <trkpt lat="43.61511" lon="3.15817">
        <ele>190.992632</ele>
        <time>2025-10-23T10:40:52Z</time>
      </trkpt>
      <trkpt lat="43.61513" lon="3.15815">
        <ele>190.991241</ele>
        <time>2025-10-23T10:40:53Z</time>
      </trkpt>
      <trkpt lat="43.61516" lon="3.15813">
        <ele>190.989529</ele>
        <time>2025-10-23T10:40:54Z</time>
      </trkpt>
      <trkpt lat="43.61519" lon="3.1581">
        <ele>190.987822</ele>
        <time>2025-10-23T10:40:55Z</time>
      </trkpt>
      <trkpt lat="43.61521" lon="3.15807">
        <ele>190.985986</ele>
        <time>2025-10-23T10:40:56Z</time>
      </trkpt>
      <trkpt lat="43.61524" lon="3.15805">
        <ele>190.984406</ele>
        <time>2025-10-23T10:40:57Z</time>
      </trkpt>
      <trkpt lat="43.61527" lon="3.15803">
        <ele>190.982949</ele>
        <time>2025-10-23T10:40:58Z</time>
      </trkpt>
      <trkpt lat="43.61529" lon="3.15804">
        <ele>190.98165</ele>
        <time>2025-10-23T10:40:59Z</time>
      </trkpt>
      <trkpt lat="43.61532" lon="3.15806">
        <ele>190.980234</ele>
        <time>2025-10-23T10:41:00Z</time>
      </trkpt>
      <trkpt lat="43.61534" lon="3.15808">
        <ele>190.978823</ele>
        <time>2025-10-23T10:41:01Z</time>
      </trkpt>
      <trkpt lat="43.61536" lon="3.1581">
        <ele>190.977329</ele>
        <time>2025-10-23T10:41:02Z</time>
      </trkpt>
      <trkpt lat="43.61538" lon="3.15814">
        <ele>190.975767</ele>
        <time>2025-10-23T10:41:03Z</time>
      </trkpt>
      <trkpt lat="43.61539" lon="3.15818">
        <ele>190.974277</ele>
        <time>2025-10-23T10:41:04Z</time>
      </trkpt>
      <trkpt lat="43.6154" lon="3.15821">
        <ele>190.97283</ele>
        <time>2025-10-23T10:41:05Z</time>
      </trkpt>
      <trkpt lat="43.6154" lon="3.15824">
        <ele>190.971881</ele>
        <time>2025-10-23T10:41:06Z</time>
      </trkpt>
      <trkpt lat="43.61541" lon="3.15826">
        <ele>190.970849</ele>
        <time>2025-10-23T10:41:07Z</time>
      </trkpt>
      <trkpt lat="43.61541" lon="3.15828">
        <ele>190.970174</ele>
        <time>2025-10-23T10:41:08Z</time>
      </trkpt>
      <trkpt lat="43.6154" lon="3.1583">
        <ele>190.969499</ele>
        <time>2025-10-23T10:41:09Z</time>
      </trkpt>
      <trkpt lat="43.6154" lon="3.15831">
        <ele>190.968941</ele>
        <time>2025-10-23T10:41:10Z</time>
      </trkpt>
      <trkpt lat="43.61543" lon="3.15834">
        <ele>190.967003</ele>
        <time>2025-10-23T10:41:11Z</time>
      </trkpt>
      <trkpt lat="43.61545" lon="3.15837">
        <ele>190.965607</ele>
        <time>2025-10-23T10:41:12Z</time>
      </trkpt>
      <trkpt lat="43.61546" lon="3.1584">
        <ele>190.964436</ele>
        <time>2025-10-23T10:41:13Z</time>
      </trkpt>
      <trkpt lat="43.61547" lon="3.15842">
        <ele>190.963468</ele>
        <time>2025-10-23T10:41:14Z</time>
      </trkpt>
      <trkpt lat="43.61548" lon="3.15844">
        <ele>190.962734</ele>
        <time>2025-10-23T10:41:15Z</time>
      </trkpt>
      <trkpt lat="43.61548" lon="3.15845">
        <ele>190.962089</ele>
        <time>2025-10-23T10:41:16Z</time>
      </trkpt>
      <trkpt lat="43.6155" lon="3.15846">
        <ele>190.96119</ele>
        <time>2025-10-23T10:41:17Z</time>
      </trkpt>
      <trkpt lat="43.61551" lon="3.15848">
        <ele>190.960432</ele>
        <time>2025-10-23T10:41:18Z</time>
      </trkpt>
      <trkpt lat="43.61552" lon="3.15849">
        <ele>190.95995</ele>
        <time>2025-10-23T10:41:19Z</time>
      </trkpt>
      <trkpt lat="43.61552" lon="3.15849">
        <ele>190.959694</ele>
        <time>2025-10-23T10:41:20Z</time>
      </trkpt>
      <trkpt lat="43.61553" lon="3.15849">
        <ele>190.959368</ele>
        <time>2025-10-23T10:41:21Z</time>
      </trkpt>
      <trkpt lat="43.61553" lon="3.15849">
        <ele>190.959178</ele>
        <time>2025-10-23T10:41:22Z</time>
      </trkpt>
      <trkpt lat="43.61553" lon="3.15848">
        <ele>190.958758</ele>
        <time>2025-10-23T10:41:23Z</time>
      </trkpt>
      <trkpt lat="43.61553" lon="3.15847">
        <ele>190.958387</ele>
        <time>2025-10-23T10:41:24Z</time>
      </trkpt>
      <trkpt lat="43.61554" lon="3.15846">
        <ele>190.957931</ele>
        <time>2025-10-23T10:41:25Z</time>
      </trkpt>
      <trkpt lat="43.61554" lon="3.15845">
        <ele>190.957594</ele>
        <time>2025-10-23T10:41:26Z</time>
      </trkpt>
      <trkpt lat="43.61554" lon="3.15845">
        <ele>190.957402</ele>
        <time>2025-10-23T10:41:27Z</time>
      </trkpt>
      <trkpt lat="43.61554" lon="3.15845">
        <ele>190.957194</ele>
        <time>2025-10-23T10:41:28Z</time>
      </trkpt>
      <trkpt lat="43.61554" lon="3.15845">
        <ele>190.957037</ele>
        <time>2025-10-23T10:41:29Z</time>
      </trkpt>
      <trkpt lat="43.61554" lon="3.15845">
        <ele>190.956947</ele>
        <time>2025-10-23T10:41:30Z</time>
      </trkpt>
      <trkpt lat="43.61554" lon="3.15845">
        <ele>190.956844</ele>
        <time>2025-10-23T10:41:31Z</time>
      </trkpt>
      <trkpt lat="43.61553" lon="3.15845">
        <ele>190.956574</ele>
        <time>2025-10-23T10:41:32Z</time>
      </trkpt>
      <trkpt lat="43.61553" lon="3.15844">
        <ele>190.956389</ele>
        <time>2025-10-23T10:41:33Z</time>
      </trkpt>
      <trkpt lat="43.61553" lon="3.15844">
        <ele>190.956266</ele>
        <time>2025-10-23T10:41:34Z</time>
      </trkpt>
      <trkpt lat="43.61553" lon="3.15844">
        <ele>190.956144</ele>
        <time>2025-10-23T10:41:35Z</time>
      </trkpt>
      <trkpt lat="43.61554" lon="3.15843">
        <ele>190.956035</ele>
        <time>2025-10-23T10:41:36Z</time>
      </trkpt>
      <trkpt lat="43.61553" lon="3.15842">
        <ele>190.955464</ele>
        <time>2025-10-23T10:46:56Z</time>
      </trkpt>
      <trkpt lat="43.61553" lon="3.15842">
        <ele>190.955185</ele>
        <time>2025-10-23T10:46:57Z</time>
      </trkpt>
      <trkpt lat="43.61554" lon="3.15841">
        <ele>190.954869</ele>
        <time>2025-10-23T10:46:58Z</time>
      </trkpt>
      <trkpt lat="43.61555" lon="3.15841">
        <ele>190.954509</ele>
        <time>2025-10-23T10:46:59Z</time>
      </trkpt>
      <trkpt lat="43.61555" lon="3.15841">
        <ele>190.954199</ele>
        <time>2025-10-23T10:47:00Z</time>
      </trkpt>
      <trkpt lat="43.61556" lon="3.15841">
        <ele>190.954046</ele>
        <time>2025-10-23T10:47:01Z</time>
      </trkpt>
      <trkpt lat="43.61556" lon="3.1585">
        <ele>190.95066</ele>
        <time>2025-10-23T10:48:38Z</time>
      </trkpt>
      <trkpt lat="43.61557" lon="3.15851">
        <ele>190.950224</ele>
        <time>2025-10-23T10:48:39Z</time>
      </trkpt>
      <trkpt lat="43.61557" lon="3.15851">
        <ele>190.95015</ele>
        <time>2025-10-23T10:48:40Z</time>
      </trkpt>
      <trkpt lat="43.61557" lon="3.1585">
        <ele>190.949961</ele>
        <time>2025-10-23T10:48:41Z</time>
      </trkpt>
      <trkpt lat="43.61556" lon="3.1585">
        <ele>190.94972</ele>
        <time>2025-10-23T10:48:42Z</time>
      </trkpt>
      <trkpt lat="43.61557" lon="3.15849">
        <ele>190.949441</ele>
        <time>2025-10-23T10:48:43Z</time>
      </trkpt>
      <trkpt lat="43.61556" lon="3.15849">
        <ele>190.94929</ele>
        <time>2025-10-23T10:48:44Z</time>
      </trkpt>
      <trkpt lat="43.61556" lon="3.15849">
        <ele>190.949139</ele>
        <time>2025-10-23T10:48:45Z</time>
      </trkpt>
      <trkpt lat="43.61555" lon="3.15849">
        <ele>190.948546</ele>
        <time>2025-10-23T10:48:46Z</time>
      </trkpt>
      <trkpt lat="43.61554" lon="3.15848">
        <ele>190.947832</ele>
        <time>2025-10-23T10:48:47Z</time>
      </trkpt>
      <trkpt lat="43.61553" lon="3.15847">
        <ele>190.947115</ele>
        <time>2025-10-23T10:48:48Z</time>
      </trkpt>
      <trkpt lat="43.61552" lon="3.15846">
        <ele>190.946537</ele>
        <time>2025-10-23T10:48:49Z</time>
      </trkpt>
      <trkpt lat="43.61551" lon="3.15845">
        <ele>190.946121</ele>
        <time>2025-10-23T10:48:50Z</time>
      </trkpt>
      <trkpt lat="43.61551" lon="3.15845">
        <ele>190.945824</ele>
        <time>2025-10-23T10:48:51Z</time>
      </trkpt>
      <trkpt lat="43.61551" lon="3.15842">
        <ele>190.944995</ele>
        <time>2025-10-23T10:48:52Z</time>
      </trkpt>
      <trkpt lat="43.6155" lon="3.1584">
        <ele>190.944172</ele>
        <time>2025-10-23T10:48:53Z</time>
      </trkpt>
      <trkpt lat="43.61549" lon="3.15839">
        <ele>190.943437</ele>
        <time>2025-10-23T10:48:54Z</time>
      </trkpt>
      <trkpt lat="43.61549" lon="3.15837">
        <ele>190.942892</ele>
        <time>2025-10-23T10:48:55Z</time>
      </trkpt>
      <trkpt lat="43.61549" lon="3.15836">
        <ele>190.942543</ele>
        <time>2025-10-23T10:48:56Z</time>
      </trkpt>
      <trkpt lat="43.61549" lon="3.15836">
        <ele>190.942395</ele>
        <time>2025-10-23T10:48:57Z</time>
      </trkpt>
      <trkpt lat="43.61549" lon="3.15836">
        <ele>190.942244</ele>
        <time>2025-10-23T10:48:58Z</time>
      </trkpt>
      <trkpt lat="43.61549" lon="3.15836">
        <ele>190.942154</ele>
        <time>2025-10-23T10:48:59Z</time>
      </trkpt>
      <trkpt lat="43.61549" lon="3.15836">
        <ele>190.942102</ele>
        <time>2025-10-23T10:49:00Z</time>
      </trkpt>
      <trkpt lat="43.61549" lon="3.15835">
        <ele>190.941991</ele>
        <time>2025-10-23T10:49:01Z</time>
      </trkpt>
      <trkpt lat="43.61549" lon="3.15835">
        <ele>190.941901</ele>
        <time>2025-10-23T10:49:02Z</time>
      </trkpt>
      <trkpt lat="43.61549" lon="3.15835">
        <ele>190.941775</ele>
        <time>2025-10-23T10:49:03Z</time>
      </trkpt>
      <trkpt lat="43.61549" lon="3.15835">
        <ele>190.941724</ele>
        <time>2025-10-23T10:49:04Z</time>
      </trkpt>
      <trkpt lat="43.61548" lon="3.15835">
        <ele>190.941672</ele>
        <time>2025-10-23T10:49:05Z</time>
      </trkpt>
      <trkpt lat="43.61548" lon="3.15835">
        <ele>190.941672</ele>
        <time>2025-10-23T10:49:06Z</time>
      </trkpt>
      <trkpt lat="43.61549" lon="3.15835">
        <ele>190.941483</ele>
        <time>2025-10-23T10:49:07Z</time>
      </trkpt>
      <trkpt lat="43.61549" lon="3.15834">
        <ele>190.941275</ele>
        <time>2025-10-23T10:49:08Z</time>
      </trkpt>
      <trkpt lat="43.6155" lon="3.15835">
        <ele>190.940966</ele>
        <time>2025-10-23T10:49:09Z</time>
      </trkpt>
      <trkpt lat="43.6155" lon="3.15835">
        <ele>190.940875</ele>
        <time>2025-10-23T10:49:10Z</time>
      </trkpt>
      <trkpt lat="43.6155" lon="3.15835">
        <ele>190.940875</ele>
        <time>2025-10-23T10:49:11Z</time>
      </trkpt>
      <trkpt lat="43.61549" lon="3.15835">
        <ele>190.940671</ele>
        <time>2025-10-23T10:49:12Z</time>
      </trkpt>
      <trkpt lat="43.61549" lon="3.15835">
        <ele>190.940463</ele>
        <time>2025-10-23T10:49:13Z</time>
      </trkpt>
      <trkpt lat="43.61549" lon="3.15834">
        <ele>190.940336</ele>
        <time>2025-10-23T10:49:14Z</time>
      </trkpt>
      <trkpt lat="43.61548" lon="3.15834">
        <ele>190.940119</ele>
        <time>2025-10-23T10:49:15Z</time>
      </trkpt>
      <trkpt lat="43.61548" lon="3.15834">
        <ele>190.949337</ele>
        <time>2025-10-23T10:49:16Z</time>
      </trkpt>
      <trkpt lat="43.61548" lon="3.15833">
        <ele>190.969009</ele>
        <time>2025-10-23T10:49:17Z</time>
      </trkpt>
      <trkpt lat="43.61547" lon="3.15832">
        <ele>190.987817</ele>
        <time>2025-10-23T10:49:18Z</time>
      </trkpt>
      <trkpt lat="43.61547" lon="3.15832">
        <ele>191.003903</ele>
        <time>2025-10-23T10:49:19Z</time>
      </trkpt>
      <trkpt lat="43.61546" lon="3.15832">
        <ele>191.025346</ele>
        <time>2025-10-23T10:49:20Z</time>
      </trkpt>
      <trkpt lat="43.61545" lon="3.15831">
        <ele>191.054904</ele>
        <time>2025-10-23T10:49:21Z</time>
      </trkpt>
      <trkpt lat="43.61544" lon="3.15831">
        <ele>191.078916</ele>
        <time>2025-10-23T10:49:22Z</time>
      </trkpt>
      <trkpt lat="43.61544" lon="3.1583">
        <ele>191.101998</ele>
        <time>2025-10-23T10:49:23Z</time>
      </trkpt>
      <trkpt lat="43.61543" lon="3.1583">
        <ele>191.120807</ele>
        <time>2025-10-23T10:49:24Z</time>
      </trkpt>
      <trkpt lat="43.61544" lon="3.1583">
        <ele>191.13021</ele>
        <time>2025-10-23T10:49:25Z</time>
      </trkpt>
      <trkpt lat="43.61544" lon="3.1583">
        <ele>191.154685</ele>
        <time>2025-10-23T10:49:26Z</time>
      </trkpt>
      <trkpt lat="43.61545" lon="3.15829">
        <ele>191.179944</ele>
        <time>2025-10-23T10:49:27Z</time>
      </trkpt>
      <trkpt lat="43.61546" lon="3.15829">
        <ele>191.207367</ele>
        <time>2025-10-23T10:49:28Z</time>
      </trkpt>
      <trkpt lat="43.61547" lon="3.1583">
        <ele>191.230449</ele>
        <time>2025-10-23T10:49:29Z</time>
      </trkpt>
      <trkpt lat="43.61548" lon="3.1583">
        <ele>191.259256</ele>
        <time>2025-10-23T10:49:30Z</time>
      </trkpt>
      <trkpt lat="43.61548" lon="3.1583">
        <ele>191.278063</ele>
        <time>2025-10-23T10:49:31Z</time>
      </trkpt>
      <trkpt lat="43.61549" lon="3.15831">
        <ele>191.301377</ele>
        <time>2025-10-23T10:49:32Z</time>
      </trkpt>
      <trkpt lat="43.61549" lon="3.15832">
        <ele>191.326479</ele>
        <time>2025-10-23T10:49:33Z</time>
      </trkpt>
      <trkpt lat="43.6155" lon="3.15832">
        <ele>191.342917</ele>
        <time>2025-10-23T10:49:34Z</time>
      </trkpt>
      <trkpt lat="43.6155" lon="3.15833">
        <ele>191.350441</ele>
        <time>2025-10-23T10:49:35Z</time>
      </trkpt>
      <trkpt lat="43.61551" lon="3.15833">
        <ele>191.373755</ele>
        <time>2025-10-23T10:49:36Z</time>
      </trkpt>
      <trkpt lat="43.61551" lon="3.15834">
        <ele>191.400744</ele>
        <time>2025-10-23T10:49:37Z</time>
      </trkpt>
      <trkpt lat="43.61552" lon="3.15835">
        <ele>191.424675</ele>
        <time>2025-10-23T10:49:38Z</time>
      </trkpt>
      <trkpt lat="43.61552" lon="3.15835">
        <ele>191.435398</ele>
        <time>2025-10-23T10:49:39Z</time>
      </trkpt>
      <trkpt lat="43.61552" lon="3.15836">
        <ele>191.442922</ele>
        <time>2025-10-23T10:49:40Z</time>
      </trkpt>
      <trkpt lat="43.61552" lon="3.15836">
        <ele>191.448283</ele>
        <time>2025-10-23T10:49:41Z</time>
      </trkpt>
      <trkpt lat="43.61551" lon="3.15836">
        <ele>191.459569</ele>
        <time>2025-10-23T10:49:42Z</time>
      </trkpt>
      <trkpt lat="43.61551" lon="3.15837">
        <ele>191.47414</ele>
        <time>2025-10-23T10:49:43Z</time>
      </trkpt>
      <trkpt lat="43.61551" lon="3.15837">
        <ele>191.488465</ele>
        <time>2025-10-23T10:49:44Z</time>
      </trkpt>
      <trkpt lat="43.61551" lon="3.15837">
        <ele>191.49975</ele>
        <time>2025-10-23T10:49:45Z</time>
      </trkpt>
      <trkpt lat="43.6155" lon="3.15838">
        <ele>191.513333</ele>
        <time>2025-10-23T10:49:46Z</time>
      </trkpt>
      <trkpt lat="43.6155" lon="3.15839">
        <ele>191.529933</ele>
        <time>2025-10-23T10:49:47Z</time>
      </trkpt>
      <trkpt lat="43.6155" lon="3.15839">
        <ele>191.542121</ele>
        <time>2025-10-23T10:49:48Z</time>
      </trkpt>
      <trkpt lat="43.6155" lon="3.15839">
        <ele>191.548602</ele>
        <time>2025-10-23T10:49:49Z</time>
      </trkpt>
      <trkpt lat="43.61548" lon="3.15837">
        <ele>191.60258</ele>
        <time>2025-10-23T10:49:50Z</time>
      </trkpt>
      <trkpt lat="43.61548" lon="3.15836">
        <ele>191.641925</ele>
        <time>2025-10-23T10:49:51Z</time>
      </trkpt>
      <trkpt lat="43.61547" lon="3.15834">
        <ele>191.677664</ele>
        <time>2025-10-23T10:49:52Z</time>
      </trkpt>
      <trkpt lat="43.61546" lon="3.15833">
        <ele>191.712059</ele>
        <time>2025-10-23T10:49:53Z</time>
      </trkpt>
      <trkpt lat="43.61546" lon="3.15833">
        <ele>191.728145</ele>
        <time>2025-10-23T10:49:54Z</time>
      </trkpt>
      <trkpt lat="43.61546" lon="3.15832">
        <ele>191.754075</ele>
        <time>2025-10-23T10:49:55Z</time>
      </trkpt>
      <trkpt lat="43.61545" lon="3.1583">
        <ele>191.782727</ele>
        <time>2025-10-23T10:49:56Z</time>
      </trkpt>
      <trkpt lat="43.61545" lon="3.1583">
        <ele>191.798467</ele>
        <time>2025-10-23T10:49:57Z</time>
      </trkpt>
      <trkpt lat="43.61544" lon="3.15829">
        <ele>191.835084</ele>
        <time>2025-10-23T10:49:58Z</time>
      </trkpt>
      <trkpt lat="43.61543" lon="3.15827">
        <ele>191.882727</ele>
        <time>2025-10-23T10:49:59Z</time>
      </trkpt>
      <trkpt lat="43.61542" lon="3.15826">
        <ele>191.92661</ele>
        <time>2025-10-23T10:50:00Z</time>
      </trkpt>
      <trkpt lat="43.61541" lon="3.15826">
        <ele>191.959221</ele>
        <time>2025-10-23T10:50:01Z</time>
      </trkpt>
      <trkpt lat="43.6154" lon="3.15824">
        <ele>192.009517</ele>
        <time>2025-10-23T10:50:02Z</time>
      </trkpt>
      <trkpt lat="43.61537" lon="3.15821">
        <ele>192.104793</ele>
        <time>2025-10-23T10:50:03Z</time>
      </trkpt>
      <trkpt lat="43.61535" lon="3.15818">
        <ele>192.200146</ele>
        <time>2025-10-23T10:50:04Z</time>
      </trkpt>
      <trkpt lat="43.61534" lon="3.15815">
        <ele>192.279063</ele>
        <time>2025-10-23T10:50:05Z</time>
      </trkpt>
      <trkpt lat="43.61533" lon="3.15812">
        <ele>192.357208</ele>
        <time>2025-10-23T10:50:06Z</time>
      </trkpt>
      <trkpt lat="43.61532" lon="3.1581">
        <ele>192.413294</ele>
        <time>2025-10-23T10:50:07Z</time>
      </trkpt>
      <trkpt lat="43.61529" lon="3.15807">
        <ele>192.5023</ele>
        <time>2025-10-23T10:50:08Z</time>
      </trkpt>
      <trkpt lat="43.61526" lon="3.15806">
        <ele>192.598786</ele>
        <time>2025-10-23T10:50:09Z</time>
      </trkpt>
      <trkpt lat="43.61524" lon="3.15807">
        <ele>192.679949</ele>
        <time>2025-10-23T10:50:10Z</time>
      </trkpt>
      <trkpt lat="43.61522" lon="3.15808">
        <ele>192.744759</ele>
        <time>2025-10-23T10:50:11Z</time>
      </trkpt>
      <trkpt lat="43.6152" lon="3.15809">
        <ele>192.809366</ele>
        <time>2025-10-23T10:50:12Z</time>
      </trkpt>
      <trkpt lat="43.61517" lon="3.1581">
        <ele>192.882836</ele>
        <time>2025-10-23T10:50:13Z</time>
      </trkpt>
      <trkpt lat="43.61515" lon="3.15813">
        <ele>192.973396</ele>
        <time>2025-10-23T10:50:14Z</time>
      </trkpt>
      <trkpt lat="43.61513" lon="3.15815">
        <ele>193.058816</ele>
        <time>2025-10-23T10:50:15Z</time>
      </trkpt>
      <trkpt lat="43.61511" lon="3.15817">
        <ele>193.132962</ele>
        <time>2025-10-23T10:50:16Z</time>
      </trkpt>
      <trkpt lat="43.61509" lon="3.1582">
        <ele>193.219482</ele>
        <time>2025-10-23T10:50:17Z</time>
      </trkpt>
      <trkpt lat="43.61507" lon="3.15821">
        <ele>193.283774</ele>
        <time>2025-10-23T10:50:18Z</time>
      </trkpt>
      <trkpt lat="43.61505" lon="3.15824">
        <ele>193.369019</ele>
        <time>2025-10-23T10:50:19Z</time>
      </trkpt>
      <trkpt lat="43.61503" lon="3.15826">
        <ele>193.449328</ele>
        <time>2025-10-23T10:50:20Z</time>
      </trkpt>
      <trkpt lat="43.61501" lon="3.15828">
        <ele>193.521121</ele>
        <time>2025-10-23T10:50:21Z</time>
      </trkpt>
      <trkpt lat="43.61499" lon="3.15831">
        <ele>193.601733</ele>
        <time>2025-10-23T10:50:22Z</time>
      </trkpt>
      <trkpt lat="43.61497" lon="3.15834">
        <ele>193.690669</ele>
        <time>2025-10-23T10:50:23Z</time>
      </trkpt>
      <trkpt lat="43.61495" lon="3.15837">
        <ele>193.782268</ele>
        <time>2025-10-23T10:50:24Z</time>
      </trkpt>
      <trkpt lat="43.61493" lon="3.1584">
        <ele>193.8627</ele>
        <time>2025-10-23T10:50:25Z</time>
      </trkpt>
      <trkpt lat="43.61492" lon="3.15842">
        <ele>193.94139</ele>
        <time>2025-10-23T10:50:26Z</time>
      </trkpt>
      <trkpt lat="43.6149" lon="3.15845">
        <ele>194.020127</ele>
        <time>2025-10-23T10:50:27Z</time>
      </trkpt>
      <trkpt lat="43.61489" lon="3.15848">
        <ele>194.089001</ele>
        <time>2025-10-23T10:50:28Z</time>
      </trkpt>
      <trkpt lat="43.61488" lon="3.15851">
        <ele>194.164068</ele>
        <time>2025-10-23T10:50:29Z</time>
      </trkpt>
      <trkpt lat="43.61487" lon="3.15853">
        <ele>194.230355</ele>
        <time>2025-10-23T10:50:30Z</time>
      </trkpt>
      <trkpt lat="43.61485" lon="3.15855">
        <ele>194.300557</ele>
        <time>2025-10-23T10:50:31Z</time>
      </trkpt>
      <trkpt lat="43.61483" lon="3.15855">
        <ele>194.35845</ele>
        <time>2025-10-23T10:50:32Z</time>
      </trkpt>
      <trkpt lat="43.61481" lon="3.15854">
        <ele>194.408281</ele>
        <time>2025-10-23T10:50:33Z</time>
      </trkpt>
      <trkpt lat="43.6148" lon="3.15854">
        <ele>194.447167</ele>
        <time>2025-10-23T10:50:34Z</time>
      </trkpt>
      <trkpt lat="43.61479" lon="3.15853">
        <ele>194.493331</ele>
        <time>2025-10-23T10:50:35Z</time>
      </trkpt>
      <trkpt lat="43.61478" lon="3.15853">
        <ele>194.529895</ele>
        <time>2025-10-23T10:50:36Z</time>
      </trkpt>
      <trkpt lat="43.61476" lon="3.15854">
        <ele>194.577919</ele>
        <time>2025-10-23T10:50:37Z</time>
      </trkpt>
      <trkpt lat="43.61475" lon="3.15855">
        <ele>194.625018</ele>
        <time>2025-10-23T10:50:38Z</time>
      </trkpt>
      <trkpt lat="43.61474" lon="3.15857">
        <ele>194.664363</ele>
        <time>2025-10-23T10:50:39Z</time>
      </trkpt>
      <trkpt lat="43.61473" lon="3.15858">
        <ele>194.727044</ele>
        <time>2025-10-23T10:50:40Z</time>
      </trkpt>
      <trkpt lat="43.6147" lon="3.1586">
        <ele>194.810999</ele>
        <time>2025-10-23T10:50:41Z</time>
      </trkpt>
      <trkpt lat="43.61467" lon="3.15862">
        <ele>194.928362</ele>
        <time>2025-10-23T10:50:42Z</time>
      </trkpt>
      <trkpt lat="43.61463" lon="3.15864">
        <ele>195.049426</ele>
        <time>2025-10-23T10:50:43Z</time>
      </trkpt>
      <trkpt lat="43.61459" lon="3.15867">
        <ele>195.183203</ele>
        <time>2025-10-23T10:50:44Z</time>
      </trkpt>
      <trkpt lat="43.61455" lon="3.15869">
        <ele>195.313296</ele>
        <time>2025-10-23T10:50:45Z</time>
      </trkpt>
      <trkpt lat="43.61452" lon="3.15871">
        <ele>195.424006</ele>
        <time>2025-10-23T10:50:46Z</time>
      </trkpt>
      <trkpt lat="43.61449" lon="3.15874">
        <ele>195.530569</ele>
        <time>2025-10-23T10:50:47Z</time>
      </trkpt>
      <trkpt lat="43.61446" lon="3.15876">
        <ele>195.631382</ele>
        <time>2025-10-23T10:50:48Z</time>
      </trkpt>
      <trkpt lat="43.61443" lon="3.15878">
        <ele>195.720538</ele>
        <time>2025-10-23T10:50:49Z</time>
      </trkpt>
      <trkpt lat="43.61441" lon="3.1588">
        <ele>195.816587</ele>
        <time>2025-10-23T10:50:50Z</time>
      </trkpt>
      <trkpt lat="43.61438" lon="3.15882">
        <ele>195.901993</ele>
        <time>2025-10-23T10:50:51Z</time>
      </trkpt>
      <trkpt lat="43.61436" lon="3.15885">
        <ele>195.986467</ele>
        <time>2025-10-23T10:50:52Z</time>
      </trkpt>
      <trkpt lat="43.61434" lon="3.15888">
        <ele>196.074396</ele>
        <time>2025-10-23T10:50:53Z</time>
      </trkpt>
      <trkpt lat="43.61433" lon="3.1589">
        <ele>196.148465</ele>
        <time>2025-10-23T10:50:54Z</time>
      </trkpt>
      <trkpt lat="43.6143" lon="3.15893">
        <ele>196.241232</ele>
        <time>2025-10-23T10:50:55Z</time>
      </trkpt>
      <trkpt lat="43.61427" lon="3.15894">
        <ele>196.324087</ele>
        <time>2025-10-23T10:50:56Z</time>
      </trkpt>
      <trkpt lat="43.61425" lon="3.15895">
        <ele>196.407139</ele>
        <time>2025-10-23T10:50:57Z</time>
      </trkpt>
      <trkpt lat="43.61422" lon="3.15897">
        <ele>196.520681</ele>
        <time>2025-10-23T10:50:58Z</time>
      </trkpt>
      <trkpt lat="43.61421" lon="3.15899">
        <ele>196.626206</ele>
        <time>2025-10-23T10:50:59Z</time>
      </trkpt>
      <trkpt lat="43.61419" lon="3.15901">
        <ele>196.721839</ele>
        <time>2025-10-23T10:51:00Z</time>
      </trkpt>
      <trkpt lat="43.61417" lon="3.15902">
        <ele>196.801533</ele>
        <time>2025-10-23T10:51:01Z</time>
      </trkpt>
      <trkpt lat="43.61416" lon="3.15904">
        <ele>196.875508</ele>
        <time>2025-10-23T10:51:02Z</time>
      </trkpt>
      <trkpt lat="43.61415" lon="3.15906">
        <ele>196.967421</ele>
        <time>2025-10-23T10:51:03Z</time>
      </trkpt>
      <trkpt lat="43.61413" lon="3.15908">
        <ele>197.068366</ele>
        <time>2025-10-23T10:51:04Z</time>
      </trkpt>
      <trkpt lat="43.6141" lon="3.1591">
        <ele>197.176851</ele>
        <time>2025-10-23T10:51:05Z</time>
      </trkpt>
      <trkpt lat="43.61408" lon="3.15911">
        <ele>197.289111</ele>
        <time>2025-10-23T10:51:06Z</time>
      </trkpt>
      <trkpt lat="43.61406" lon="3.15913">
        <ele>197.388262</ele>
        <time>2025-10-23T10:51:07Z</time>
      </trkpt>
      <trkpt lat="43.61404" lon="3.15914">
        <ele>197.511312</ele>
        <time>2025-10-23T10:51:08Z</time>
      </trkpt>
      <trkpt lat="43.61401" lon="3.15916">
        <ele>197.639461</ele>
        <time>2025-10-23T10:51:09Z</time>
      </trkpt>
      <trkpt lat="43.61398" lon="3.15918">
        <ele>197.769865</ele>
        <time>2025-10-23T10:51:10Z</time>
      </trkpt>
      <trkpt lat="43.61395" lon="3.1592">
        <ele>197.897936</ele>
        <time>2025-10-23T10:51:11Z</time>
      </trkpt>
      <trkpt lat="43.61393" lon="3.15922">
        <ele>198.029153</ele>
        <time>2025-10-23T10:51:12Z</time>
      </trkpt>
      <trkpt lat="43.6139" lon="3.15924">
        <ele>198.160369</ele>
        <time>2025-10-23T10:51:13Z</time>
      </trkpt>
      <trkpt lat="43.61388" lon="3.15927">
        <ele>198.289731</ele>
        <time>2025-10-23T10:51:14Z</time>
      </trkpt>
      <trkpt lat="43.61385" lon="3.15929">
        <ele>198.422602</ele>
        <time>2025-10-23T10:51:15Z</time>
      </trkpt>
      <trkpt lat="43.61383" lon="3.15931">
        <ele>198.551964</ele>
        <time>2025-10-23T10:51:16Z</time>
      </trkpt>
      <trkpt lat="43.61382" lon="3.15934">
        <ele>198.658237</ele>
        <time>2025-10-23T10:51:17Z</time>
      </trkpt>
      <trkpt lat="43.61379" lon="3.15937">
        <ele>198.777546</ele>
        <time>2025-10-23T10:51:18Z</time>
      </trkpt>
      <trkpt lat="43.61377" lon="3.15939">
        <ele>198.893628</ele>
        <time>2025-10-23T10:51:19Z</time>
      </trkpt>
      <trkpt lat="43.61376" lon="3.15942">
        <ele>199.004673</ele>
        <time>2025-10-23T10:51:20Z</time>
      </trkpt>
      <trkpt lat="43.61374" lon="3.15945">
        <ele>199.111535</ele>
        <time>2025-10-23T10:51:21Z</time>
      </trkpt>
      <trkpt lat="43.61372" lon="3.15947">
        <ele>199.229731</ele>
        <time>2025-10-23T10:51:22Z</time>
      </trkpt>
      <trkpt lat="43.61369" lon="3.1595">
        <ele>199.389468</ele>
        <time>2025-10-23T10:51:23Z</time>
      </trkpt>
      <trkpt lat="43.61367" lon="3.15954">
        <ele>199.541425</ele>
        <time>2025-10-23T10:51:24Z</time>
      </trkpt>
      <trkpt lat="43.61364" lon="3.15957">
        <ele>199.689237</ele>
        <time>2025-10-23T10:51:25Z</time>
      </trkpt>
      <trkpt lat="43.61362" lon="3.1596">
        <ele>199.82151</ele>
        <time>2025-10-23T10:51:26Z</time>
      </trkpt>
      <trkpt lat="43.6136" lon="3.15963">
        <ele>199.962006</ele>
        <time>2025-10-23T10:51:27Z</time>
      </trkpt>
      <trkpt lat="43.61357" lon="3.15966">
        <ele>200.100302</ele>
        <time>2025-10-23T10:51:28Z</time>
      </trkpt>
      <trkpt lat="43.61355" lon="3.15969">
        <ele>200.225091</ele>
        <time>2025-10-23T10:51:29Z</time>
      </trkpt>
      <trkpt lat="43.61353" lon="3.15972">
        <ele>200.350701</ele>
        <time>2025-10-23T10:51:30Z</time>
      </trkpt>
      <trkpt lat="43.61351" lon="3.15975">
        <ele>200.483744</ele>
        <time>2025-10-23T10:51:31Z</time>
      </trkpt>
      <trkpt lat="43.61349" lon="3.15978">
        <ele>200.621237</ele>
        <time>2025-10-23T10:51:32Z</time>
      </trkpt>
      <trkpt lat="43.61347" lon="3.1598">
        <ele>200.727555</ele>
        <time>2025-10-23T10:51:33Z</time>
      </trkpt>
      <trkpt lat="43.61346" lon="3.15983">
        <ele>200.818704</ele>
        <time>2025-10-23T10:51:34Z</time>
      </trkpt>
      <trkpt lat="43.61346" lon="3.15986">
        <ele>200.928517</ele>
        <time>2025-10-23T10:51:35Z</time>
      </trkpt>
      <trkpt lat="43.61346" lon="3.15988">
        <ele>200.987716</ele>
        <time>2025-10-23T10:51:36Z</time>
      </trkpt>
      <trkpt lat="43.61347" lon="3.15988">
        <ele>201.056641</ele>
        <time>2025-10-23T10:51:37Z</time>
      </trkpt>
      <trkpt lat="43.61349" lon="3.15986">
        <ele>201.155427</ele>
        <time>2025-10-23T10:51:38Z</time>
      </trkpt>
      <trkpt lat="43.6135" lon="3.15982">
        <ele>201.279999</ele>
        <time>2025-10-23T10:51:39Z</time>
      </trkpt>
      <trkpt lat="43.6135" lon="3.15977">
        <ele>201.43791</ele>
        <time>2025-10-23T10:51:40Z</time>
      </trkpt>
      <trkpt lat="43.61351" lon="3.15972">
        <ele>201.587555</ele>
        <time>2025-10-23T10:51:41Z</time>
      </trkpt>
      <trkpt lat="43.61353" lon="3.15968">
        <ele>201.725344</ele>
        <time>2025-10-23T10:51:42Z</time>
      </trkpt>
      <trkpt lat="43.61353" lon="3.15964">
        <ele>201.852619</ele>
        <time>2025-10-23T10:51:43Z</time>
      </trkpt>
      <trkpt lat="43.61352" lon="3.1596">
        <ele>201.990375</ele>
        <time>2025-10-23T10:51:44Z</time>
      </trkpt>
      <trkpt lat="43.61351" lon="3.15957">
        <ele>202.082987</ele>
        <time>2025-10-23T10:51:45Z</time>
      </trkpt>
      <trkpt lat="43.61351" lon="3.15955">
        <ele>202.172842</ele>
        <time>2025-10-23T10:51:46Z</time>
      </trkpt>
      <trkpt lat="43.61351" lon="3.15954">
        <ele>202.207384</ele>
        <time>2025-10-23T10:51:47Z</time>
      </trkpt>
      <trkpt lat="43.61351" lon="3.15953">
        <ele>202.226078</ele>
        <time>2025-10-23T10:51:48Z</time>
      </trkpt>
      <trkpt lat="43.61351" lon="3.15953">
        <ele>202.242017</ele>
        <time>2025-10-23T10:51:49Z</time>
      </trkpt>
      <trkpt lat="43.61351" lon="3.15953">
        <ele>202.242017</ele>
        <time>2025-10-23T10:51:50Z</time>
      </trkpt>
      <trkpt lat="43.61351" lon="3.15953">
        <ele>202.246321</ele>
        <time>2025-10-23T10:51:51Z</time>
      </trkpt>
      <trkpt lat="43.61351" lon="3.15953">
        <ele>202.251634</ele>
        <time>2025-10-23T10:51:52Z</time>
      </trkpt>
      <trkpt lat="43.61351" lon="3.15953">
        <ele>202.255937</ele>
        <time>2025-10-23T10:51:53Z</time>
      </trkpt>
      <trkpt lat="43.61351" lon="3.15952">
        <ele>202.26125</ele>
        <time>2025-10-23T10:51:54Z</time>
      </trkpt>
      <trkpt lat="43.61353" lon="3.1597">
        <ele>202.802386</ele>
        <time>2025-10-23T10:52:31Z</time>
      </trkpt>
      <trkpt lat="43.61352" lon="3.15972">
        <ele>202.898835</ele>
        <time>2025-10-23T10:52:32Z</time>
      </trkpt>
      <trkpt lat="43.6135" lon="3.15975">
        <ele>203.022302</ele>
        <time>2025-10-23T10:52:33Z</time>
      </trkpt>
      <trkpt lat="43.61347" lon="3.15977">
        <ele>203.157499</ele>
        <time>2025-10-23T10:52:34Z</time>
      </trkpt>
      <trkpt lat="43.61346" lon="3.1598">
        <ele>203.259149</ele>
        <time>2025-10-23T10:52:35Z</time>
      </trkpt>
      <trkpt lat="43.61344" lon="3.15983">
        <ele>203.388092</ele>
        <time>2025-10-23T10:52:36Z</time>
      </trkpt>
      <trkpt lat="43.61343" lon="3.15985">
        <ele>203.46128</ele>
        <time>2025-10-23T10:52:37Z</time>
      </trkpt>
      <trkpt lat="43.61341" lon="3.15987">
        <ele>203.559429</ele>
        <time>2025-10-23T10:52:38Z</time>
      </trkpt>
      <trkpt lat="43.61339" lon="3.15989">
        <ele>203.664042</ele>
        <time>2025-10-23T10:52:39Z</time>
      </trkpt>
      <trkpt lat="43.61338" lon="3.15992">
        <ele>203.754956</ele>
        <time>2025-10-23T10:52:40Z</time>
      </trkpt>
      <trkpt lat="43.61337" lon="3.15994">
        <ele>203.843899</ele>
        <time>2025-10-23T10:52:41Z</time>
      </trkpt>
      <trkpt lat="43.61336" lon="3.15996">
        <ele>203.937726</ele>
        <time>2025-10-23T10:52:42Z</time>
      </trkpt>
      <trkpt lat="43.61335" lon="3.15999">
        <ele>204.029456</ele>
        <time>2025-10-23T10:52:43Z</time>
      </trkpt>
      <trkpt lat="43.61333" lon="3.16001">
        <ele>204.119178</ele>
        <time>2025-10-23T10:52:44Z</time>
      </trkpt>
      <trkpt lat="43.61332" lon="3.16003">
        <ele>204.255667</ele>
        <time>2025-10-23T10:52:45Z</time>
      </trkpt>
      <trkpt lat="43.6133" lon="3.16006">
        <ele>204.413219</ele>
        <time>2025-10-23T10:52:46Z</time>
      </trkpt>
      <trkpt lat="43.61329" lon="3.16009">
        <ele>204.571517</ele>
        <time>2025-10-23T10:52:47Z</time>
      </trkpt>
      <trkpt lat="43.61328" lon="3.16012">
        <ele>204.702977</ele>
        <time>2025-10-23T10:52:48Z</time>
      </trkpt>
      <trkpt lat="43.61328" lon="3.16014">
        <ele>204.818837</ele>
        <time>2025-10-23T10:52:49Z</time>
      </trkpt>
      <trkpt lat="43.61326" lon="3.16017">
        <ele>204.991007</ele>
        <time>2025-10-23T10:52:50Z</time>
      </trkpt>
      <trkpt lat="43.61325" lon="3.1602">
        <ele>205.175665</ele>
        <time>2025-10-23T10:52:51Z</time>
      </trkpt>
      <trkpt lat="43.61324" lon="3.16023">
        <ele>205.333963</ele>
        <time>2025-10-23T10:52:52Z</time>
      </trkpt>
      <trkpt lat="43.61323" lon="3.16026">
        <ele>205.47769</ele>
        <time>2025-10-23T10:52:53Z</time>
      </trkpt>
      <trkpt lat="43.61322" lon="3.16029">
        <ele>205.627218</ele>
        <time>2025-10-23T10:52:54Z</time>
      </trkpt>
      <trkpt lat="43.61321" lon="3.16032">
        <ele>205.781111</ele>
        <time>2025-10-23T10:52:55Z</time>
      </trkpt>
      <trkpt lat="43.6132" lon="3.16036">
        <ele>205.957132</ele>
        <time>2025-10-23T10:52:56Z</time>
      </trkpt>
      <trkpt lat="43.6132" lon="3.16038">
        <ele>206.100068</ele>
        <time>2025-10-23T10:52:57Z</time>
      </trkpt>
      <trkpt lat="43.61319" lon="3.16041">
        <ele>206.243795</ele>
        <time>2025-10-23T10:52:58Z</time>
      </trkpt>
      <trkpt lat="43.61318" lon="3.16044">
        <ele>206.403162</ele>
        <time>2025-10-23T10:52:59Z</time>
      </trkpt>
      <trkpt lat="43.61316" lon="3.16047">
        <ele>206.553304</ele>
        <time>2025-10-23T10:53:00Z</time>
      </trkpt>
      <trkpt lat="43.61315" lon="3.1605">
        <ele>206.701266</ele>
        <time>2025-10-23T10:53:01Z</time>
      </trkpt>
      <trkpt lat="43.61314" lon="3.16053">
        <ele>206.873437</ele>
        <time>2025-10-23T10:53:02Z</time>
      </trkpt>
      <trkpt lat="43.61313" lon="3.16056">
        <ele>207.040556</ele>
        <time>2025-10-23T10:53:03Z</time>
      </trkpt>
      <trkpt lat="43.61312" lon="3.16059">
        <ele>207.194452</ele>
        <time>2025-10-23T10:53:04Z</time>
      </trkpt>
      <trkpt lat="43.61312" lon="3.16063">
        <ele>207.366015</ele>
        <time>2025-10-23T10:53:05Z</time>
      </trkpt>
      <trkpt lat="43.61311" lon="3.16065">
        <ele>207.508669</ele>
        <time>2025-10-23T10:53:06Z</time>
      </trkpt>
      <trkpt lat="43.6131" lon="3.16068">
        <ele>207.638204</ele>
        <time>2025-10-23T10:53:07Z</time>
      </trkpt>
      <trkpt lat="43.61309" lon="3.16072">
        <ele>207.836713</ele>
        <time>2025-10-23T10:53:08Z</time>
      </trkpt>
      <trkpt lat="43.61308" lon="3.16076">
        <ele>208.034948</ele>
        <time>2025-10-23T10:53:09Z</time>
      </trkpt>
      <trkpt lat="43.61308" lon="3.1608">
        <ele>208.216184</ele>
        <time>2025-10-23T10:53:10Z</time>
      </trkpt>
      <trkpt lat="43.61308" lon="3.16083">
        <ele>208.38257</ele>
        <time>2025-10-23T10:53:11Z</time>
      </trkpt>
      <trkpt lat="43.61308" lon="3.16087">
        <ele>208.577864</ele>
        <time>2025-10-23T10:53:12Z</time>
      </trkpt>
      <trkpt lat="43.61308" lon="3.16091">
        <ele>208.748975</ele>
        <time>2025-10-23T10:53:13Z</time>
      </trkpt>
      <trkpt lat="43.61307" lon="3.16095">
        <ele>208.956554</ele>
        <time>2025-10-23T10:53:14Z</time>
      </trkpt>
      <trkpt lat="43.61306" lon="3.161">
        <ele>209.173239</ele>
        <time>2025-10-23T10:53:15Z</time>
      </trkpt>
      <trkpt lat="43.61282" lon="3.16134">
        <ele>211.071523</ele>
        <time>2025-10-23T10:56:37Z</time>
      </trkpt>
      <trkpt lat="43.6128" lon="3.16137">
        <ele>210.92833</ele>
        <time>2025-10-23T10:56:38Z</time>
      </trkpt>
      <trkpt lat="43.61278" lon="3.16141">
        <ele>210.775979</ele>
        <time>2025-10-23T10:56:39Z</time>
      </trkpt>
      <trkpt lat="43.61275" lon="3.16143">
        <ele>210.633325</ele>
        <time>2025-10-23T10:56:40Z</time>
      </trkpt>
      <trkpt lat="43.61274" lon="3.16147">
        <ele>210.487458</ele>
        <time>2025-10-23T10:56:41Z</time>
      </trkpt>
      <trkpt lat="43.61272" lon="3.1615">
        <ele>210.338872</ele>
        <time>2025-10-23T10:56:42Z</time>
      </trkpt>
      <trkpt lat="43.6127" lon="3.16154">
        <ele>210.184492</ele>
        <time>2025-10-23T10:56:43Z</time>
      </trkpt>
      <trkpt lat="43.61267" lon="3.16158">
        <ele>210.013659</ele>
        <time>2025-10-23T10:56:44Z</time>
      </trkpt>
      <trkpt lat="43.61266" lon="3.16162">
        <ele>209.856582</ele>
        <time>2025-10-23T10:56:45Z</time>
      </trkpt>
      <trkpt lat="43.61264" lon="3.16165">
        <ele>209.705189</ele>
        <time>2025-10-23T10:56:46Z</time>
      </trkpt>
      <trkpt lat="43.61262" lon="3.16169">
        <ele>209.550965</ele>
        <time>2025-10-23T10:56:47Z</time>
      </trkpt>
      <trkpt lat="43.6126" lon="3.16174">
        <ele>209.384573</ele>
        <time>2025-10-23T10:56:48Z</time>
      </trkpt>
      <trkpt lat="43.61259" lon="3.16178">
        <ele>209.218181</ele>
        <time>2025-10-23T10:56:49Z</time>
      </trkpt>
      <trkpt lat="43.61257" lon="3.16182">
        <ele>209.068198</ele>
        <time>2025-10-23T10:56:50Z</time>
      </trkpt>
      <trkpt lat="43.61255" lon="3.16185">
        <ele>208.927618</ele>
        <time>2025-10-23T10:56:51Z</time>
      </trkpt>
      <trkpt lat="43.61254" lon="3.1619">
        <ele>208.757353</ele>
        <time>2025-10-23T10:56:52Z</time>
      </trkpt>
      <trkpt lat="43.61252" lon="3.16195">
        <ele>208.568573</ele>
        <time>2025-10-23T10:56:53Z</time>
      </trkpt>
      <trkpt lat="43.6125" lon="3.16199">
        <ele>208.386746</ele>
        <time>2025-10-23T10:56:54Z</time>
      </trkpt>
      <trkpt lat="43.61247" lon="3.16203">
        <ele>208.214052</ele>
        <time>2025-10-23T10:56:55Z</time>
      </trkpt>
      <trkpt lat="43.61245" lon="3.16206">
        <ele>208.064838</ele>
        <time>2025-10-23T10:56:56Z</time>
      </trkpt>
      <trkpt lat="43.61243" lon="3.16209">
        <ele>207.905982</ele>
        <time>2025-10-23T10:56:57Z</time>
      </trkpt>
      <trkpt lat="43.61241" lon="3.16213">
        <ele>207.743136</ele>
        <time>2025-10-23T10:56:58Z</time>
      </trkpt>
      <trkpt lat="43.61239" lon="3.16218">
        <ele>207.570751</ele>
        <time>2025-10-23T10:56:59Z</time>
      </trkpt>
      <trkpt lat="43.61238" lon="3.16223">
        <ele>207.383147</ele>
        <time>2025-10-23T10:57:00Z</time>
      </trkpt>
      <trkpt lat="43.61236" lon="3.16228">
        <ele>207.228399</ele>
        <time>2025-10-23T10:57:01Z</time>
      </trkpt>
      <trkpt lat="43.61234" lon="3.16233">
        <ele>207.209971</ele>
        <time>2025-10-23T10:57:02Z</time>
      </trkpt>
      <trkpt lat="43.61233" lon="3.16238">
        <ele>207.192664</ele>
        <time>2025-10-23T10:57:03Z</time>
      </trkpt>
      <trkpt lat="43.61231" lon="3.16242">
        <ele>207.17545</ele>
        <time>2025-10-23T10:57:04Z</time>
      </trkpt>
      <trkpt lat="43.61229" lon="3.16247">
        <ele>207.157194</ele>
        <time>2025-10-23T10:57:05Z</time>
      </trkpt>
      <trkpt lat="43.61227" lon="3.16252">
        <ele>207.136017</ele>
        <time>2025-10-23T10:57:06Z</time>
      </trkpt>
      <trkpt lat="43.61225" lon="3.16258">
        <ele>207.114629</ele>
        <time>2025-10-23T10:57:07Z</time>
      </trkpt>
      <trkpt lat="43.61223" lon="3.16264">
        <ele>207.093021</ele>
        <time>2025-10-23T10:57:08Z</time>
      </trkpt>
      <trkpt lat="43.6122" lon="3.16269">
        <ele>207.070594</ele>
        <time>2025-10-23T10:57:09Z</time>
      </trkpt>
      <trkpt lat="43.61218" lon="3.16276">
        <ele>207.046329</ele>
        <time>2025-10-23T10:57:10Z</time>
      </trkpt>
      <trkpt lat="43.61216" lon="3.16282">
        <ele>207.021885</ele>
        <time>2025-10-23T10:57:11Z</time>
      </trkpt>
      <trkpt lat="43.61213" lon="3.16288">
        <ele>206.99792</ele>
        <time>2025-10-23T10:57:12Z</time>
      </trkpt>
      <trkpt lat="43.61208" lon="3.16292">
        <ele>206.973829</ele>
        <time>2025-10-23T10:57:13Z</time>
      </trkpt>
      <trkpt lat="43.61203" lon="3.16295">
        <ele>206.947729</ele>
        <time>2025-10-23T10:57:14Z</time>
      </trkpt>
      <trkpt lat="43.61198" lon="3.16298">
        <ele>206.921916</ele>
        <time>2025-10-23T10:57:15Z</time>
      </trkpt>
      <trkpt lat="43.61194" lon="3.16302">
        <ele>206.896454</ele>
        <time>2025-10-23T10:57:16Z</time>
      </trkpt>
      <trkpt lat="43.61189" lon="3.16306">
        <ele>206.871114</ele>
        <time>2025-10-23T10:57:17Z</time>
      </trkpt>
      <trkpt lat="43.61185" lon="3.16309">
        <ele>206.847248</ele>
        <time>2025-10-23T10:57:18Z</time>
      </trkpt>
      <trkpt lat="43.61181" lon="3.16313">
        <ele>206.824892</ele>
        <time>2025-10-23T10:57:19Z</time>
      </trkpt>
      <trkpt lat="43.61177" lon="3.16317">
        <ele>206.80195</ele>
        <time>2025-10-23T10:57:20Z</time>
      </trkpt>
      <trkpt lat="43.61172" lon="3.1632">
        <ele>206.780056</ele>
        <time>2025-10-23T10:57:21Z</time>
      </trkpt>
      <trkpt lat="43.61168" lon="3.16323">
        <ele>206.756348</ele>
        <time>2025-10-23T10:57:22Z</time>
      </trkpt>
      <trkpt lat="43.61164" lon="3.16326">
        <ele>206.733544</ele>
        <time>2025-10-23T10:57:23Z</time>
      </trkpt>
      <trkpt lat="43.6116" lon="3.1633">
        <ele>206.710609</ele>
        <time>2025-10-23T10:57:24Z</time>
      </trkpt>
      <trkpt lat="43.61156" lon="3.16334">
        <ele>206.689006</ele>
        <time>2025-10-23T10:57:25Z</time>
      </trkpt>
      <trkpt lat="43.61152" lon="3.16337">
        <ele>206.667006</ele>
        <time>2025-10-23T10:57:26Z</time>
      </trkpt>
      <trkpt lat="43.61148" lon="3.16341">
        <ele>206.645033</ele>
        <time>2025-10-23T10:57:27Z</time>
      </trkpt>
      <trkpt lat="43.61144" lon="3.16345">
        <ele>206.622857</ele>
        <time>2025-10-23T10:57:28Z</time>
      </trkpt>
      <trkpt lat="43.6114" lon="3.16348">
        <ele>206.600798</ele>
        <time>2025-10-23T10:57:29Z</time>
      </trkpt>
      <trkpt lat="43.61136" lon="3.16351">
        <ele>206.579221</ele>
        <time>2025-10-23T10:57:30Z</time>
      </trkpt>
      <trkpt lat="43.61132" lon="3.16353">
        <ele>206.558363</ele>
        <time>2025-10-23T10:57:31Z</time>
      </trkpt>
      <trkpt lat="43.61128" lon="3.16356">
        <ele>206.53694</ele>
        <time>2025-10-23T10:57:32Z</time>
      </trkpt>
      <trkpt lat="43.61123" lon="3.16358">
        <ele>206.515381</ele>
        <time>2025-10-23T10:57:33Z</time>
      </trkpt>
      <trkpt lat="43.61119" lon="3.16361">
        <ele>206.492964</ele>
        <time>2025-10-23T10:57:34Z</time>
      </trkpt>
      <trkpt lat="43.61115" lon="3.16362">
        <ele>206.473096</ele>
        <time>2025-10-23T10:57:35Z</time>
      </trkpt>
      <trkpt lat="43.61111" lon="3.16364">
        <ele>206.453045</ele>
        <time>2025-10-23T10:57:36Z</time>
      </trkpt>
      <trkpt lat="43.61107" lon="3.16365">
        <ele>206.434858</ele>
        <time>2025-10-23T10:57:37Z</time>
      </trkpt>
      <trkpt lat="43.61103" lon="3.16366">
        <ele>206.416738</ele>
        <time>2025-10-23T10:57:38Z</time>
      </trkpt>
      <trkpt lat="43.61099" lon="3.16367">
        <ele>206.398618</ele>
        <time>2025-10-23T10:57:39Z</time>
      </trkpt>
      <trkpt lat="43.61096" lon="3.16369">
        <ele>206.439194</ele>
        <time>2025-10-23T10:57:40Z</time>
      </trkpt>
      <trkpt lat="43.61096" lon="3.16373">
        <ele>206.5221</ele>
        <time>2025-10-23T10:57:41Z</time>
      </trkpt>
      <trkpt lat="43.61098" lon="3.16374">
        <ele>206.60002</ele>
        <time>2025-10-23T10:57:42Z</time>
      </trkpt>
      <trkpt lat="43.611" lon="3.16374">
        <ele>206.655251</ele>
        <time>2025-10-23T10:57:43Z</time>
      </trkpt>
      <trkpt lat="43.61101" lon="3.16374">
        <ele>206.70128</ele>
        <time>2025-10-23T10:57:44Z</time>
      </trkpt>
      <trkpt lat="43.61101" lon="3.16374">
        <ele>206.727693</ele>
        <time>2025-10-23T10:57:45Z</time>
      </trkpt>
      <trkpt lat="43.61098" lon="3.16375">
        <ele>206.82014</ele>
        <time>2025-10-23T10:57:46Z</time>
      </trkpt>
      <trkpt lat="43.61096" lon="3.16376">
        <ele>206.891576</ele>
        <time>2025-10-23T10:57:47Z</time>
      </trkpt>
      <trkpt lat="43.61093" lon="3.16377">
        <ele>206.981815</ele>
        <time>2025-10-23T10:57:48Z</time>
      </trkpt>
      <trkpt lat="43.6109" lon="3.16378">
        <ele>207.079522</ele>
        <time>2025-10-23T10:57:49Z</time>
      </trkpt>
      <trkpt lat="43.61087" lon="3.16379">
        <ele>207.180994</ele>
        <time>2025-10-23T10:57:50Z</time>
      </trkpt>
      <trkpt lat="43.61084" lon="3.1638">
        <ele>207.283145</ele>
        <time>2025-10-23T10:57:51Z</time>
      </trkpt>
      <trkpt lat="43.61081" lon="3.16381">
        <ele>207.387132</ele>
        <time>2025-10-23T10:57:52Z</time>
      </trkpt>
      <trkpt lat="43.61078" lon="3.16383">
        <ele>207.500002</ele>
        <time>2025-10-23T10:57:53Z</time>
      </trkpt>
      <trkpt lat="43.61074" lon="3.16384">
        <ele>207.609058</ele>
        <time>2025-10-23T10:57:54Z</time>
      </trkpt>
      <trkpt lat="43.61071" lon="3.16386">
        <ele>207.715021</ele>
        <time>2025-10-23T10:57:55Z</time>
      </trkpt>
      <trkpt lat="43.61068" lon="3.16387">
        <ele>207.826511</ele>
        <time>2025-10-23T10:57:56Z</time>
      </trkpt>
      <trkpt lat="43.61065" lon="3.16388">
        <ele>207.936274</ele>
        <time>2025-10-23T10:57:57Z</time>
      </trkpt>
      <trkpt lat="43.61062" lon="3.16389">
        <ele>208.041928</ele>
        <time>2025-10-23T10:57:58Z</time>
      </trkpt>
      <trkpt lat="43.61059" lon="3.1639">
        <ele>208.142194</ele>
        <time>2025-10-23T10:57:59Z</time>
      </trkpt>
      <trkpt lat="43.61055" lon="3.16391">
        <ele>208.257452</ele>
        <time>2025-10-23T10:58:00Z</time>
      </trkpt>
      <trkpt lat="43.61051" lon="3.16391">
        <ele>208.378486</ele>
        <time>2025-10-23T10:58:01Z</time>
      </trkpt>
      <trkpt lat="43.61047" lon="3.16391">
        <ele>208.511774</ele>
        <time>2025-10-23T10:58:02Z</time>
      </trkpt>
      <trkpt lat="43.61043" lon="3.16392">
        <ele>208.643085</ele>
        <time>2025-10-23T10:58:03Z</time>
      </trkpt>
      <trkpt lat="43.61039" lon="3.16393">
        <ele>208.775153</ele>
        <time>2025-10-23T10:58:04Z</time>
      </trkpt>
      <trkpt lat="43.61035" lon="3.16394">
        <ele>208.903249</ele>
        <time>2025-10-23T10:58:05Z</time>
      </trkpt>
      <trkpt lat="43.61031" lon="3.16395">
        <ele>209.033969</ele>
        <time>2025-10-23T10:58:06Z</time>
      </trkpt>
      <trkpt lat="43.61027" lon="3.16395">
        <ele>209.174383</ele>
        <time>2025-10-23T10:58:07Z</time>
      </trkpt>
      <trkpt lat="43.61023" lon="3.16396">
        <ele>209.311564</ele>
        <time>2025-10-23T10:58:08Z</time>
      </trkpt>
      <trkpt lat="43.61018" lon="3.16397">
        <ele>209.458689</ele>
        <time>2025-10-23T10:58:09Z</time>
      </trkpt>
      <trkpt lat="43.61014" lon="3.16397">
        <ele>209.616066</ele>
        <time>2025-10-23T10:58:10Z</time>
      </trkpt>
      <trkpt lat="43.61008" lon="3.16398">
        <ele>209.782176</ele>
        <time>2025-10-23T10:58:11Z</time>
      </trkpt>
      <trkpt lat="43.61003" lon="3.16398">
        <ele>209.947887</ele>
        <time>2025-10-23T10:58:12Z</time>
      </trkpt>
      <trkpt lat="43.60998" lon="3.16398">
        <ele>210.10736</ele>
        <time>2025-10-23T10:58:13Z</time>
      </trkpt>
      <trkpt lat="43.60994" lon="3.16399">
        <ele>210.263467</ele>
        <time>2025-10-23T10:58:14Z</time>
      </trkpt>
      <trkpt lat="43.60989" lon="3.16399">
        <ele>210.409667</ele>
        <time>2025-10-23T10:58:15Z</time>
      </trkpt>
      <trkpt lat="43.60985" lon="3.16399">
        <ele>210.542954</ele>
        <time>2025-10-23T10:58:16Z</time>
      </trkpt>
      <trkpt lat="43.60981" lon="3.16399">
        <ele>210.666412</ele>
        <time>2025-10-23T10:58:17Z</time>
      </trkpt>
      <trkpt lat="43.60977" lon="3.164">
        <ele>210.805755</ele>
        <time>2025-10-23T10:58:18Z</time>
      </trkpt>
      <trkpt lat="43.60973" lon="3.164">
        <ele>210.939974</ele>
        <time>2025-10-23T10:58:19Z</time>
      </trkpt>
      <trkpt lat="43.60969" lon="3.16401">
        <ele>211.070968</ele>
        <time>2025-10-23T10:58:20Z</time>
      </trkpt>
      <trkpt lat="43.60965" lon="3.16402">
        <ele>211.201963</ele>
        <time>2025-10-23T10:58:21Z</time>
      </trkpt>
      <trkpt lat="43.60961" lon="3.16403">
        <ele>211.33649</ele>
        <time>2025-10-23T10:58:22Z</time>
      </trkpt>
      <trkpt lat="43.60957" lon="3.16404">
        <ele>211.47316</ele>
        <time>2025-10-23T10:58:23Z</time>
      </trkpt>
      <trkpt lat="43.60953" lon="3.16405">
        <ele>211.610376</ele>
        <time>2025-10-23T10:58:24Z</time>
      </trkpt>
      <trkpt lat="43.60949" lon="3.16407">
        <ele>211.748175</ele>
        <time>2025-10-23T10:58:25Z</time>
      </trkpt>
      <trkpt lat="43.60944" lon="3.16409">
        <ele>211.89475</ele>
        <time>2025-10-23T10:58:26Z</time>
      </trkpt>
      <trkpt lat="43.60941" lon="3.16412">
        <ele>212.032525</ele>
        <time>2025-10-23T10:58:27Z</time>
      </trkpt>
      <trkpt lat="43.60937" lon="3.16415">
        <ele>212.180406</ele>
        <time>2025-10-23T10:58:28Z</time>
      </trkpt>
      <trkpt lat="43.60933" lon="3.16418">
        <ele>212.262908</ele>
        <time>2025-10-23T10:58:29Z</time>
      </trkpt>
      <trkpt lat="43.60929" lon="3.1642">
        <ele>212.310208</ele>
        <time>2025-10-23T10:58:30Z</time>
      </trkpt>
      <trkpt lat="43.60926" lon="3.16424">
        <ele>212.359297</ele>
        <time>2025-10-23T10:58:31Z</time>
      </trkpt>
      <trkpt lat="43.60923" lon="3.16427">
        <ele>212.403562</ele>
        <time>2025-10-23T10:58:32Z</time>
      </trkpt>
      <trkpt lat="43.6092" lon="3.1643">
        <ele>212.446447</ele>
        <time>2025-10-23T10:58:33Z</time>
      </trkpt>
      <trkpt lat="43.60917" lon="3.16433">
        <ele>212.48976</ele>
        <time>2025-10-23T10:58:34Z</time>
      </trkpt>
      <trkpt lat="43.60914" lon="3.16436">
        <ele>212.536913</ele>
        <time>2025-10-23T10:58:35Z</time>
      </trkpt>
      <trkpt lat="43.6091" lon="3.16439">
        <ele>212.585028</ele>
        <time>2025-10-23T10:58:36Z</time>
      </trkpt>
      <trkpt lat="43.60907" lon="3.16443">
        <ele>212.632242</ele>
        <time>2025-10-23T10:58:37Z</time>
      </trkpt>
      <trkpt lat="43.60903" lon="3.16445">
        <ele>212.68394</ele>
        <time>2025-10-23T10:58:38Z</time>
      </trkpt>
      <trkpt lat="43.609" lon="3.16448">
        <ele>212.733109</ele>
        <time>2025-10-23T10:58:39Z</time>
      </trkpt>
      <trkpt lat="43.60896" lon="3.16452">
        <ele>212.782198</ele>
        <time>2025-10-23T10:58:40Z</time>
      </trkpt>
      <trkpt lat="43.60893" lon="3.16456">
        <ele>212.828702</ele>
        <time>2025-10-23T10:58:41Z</time>
      </trkpt>
      <trkpt lat="43.60891" lon="3.1646">
        <ele>212.876188</ele>
        <time>2025-10-23T10:58:42Z</time>
      </trkpt>
      <trkpt lat="43.6089" lon="3.16466">
        <ele>212.921459</ele>
        <time>2025-10-23T10:58:43Z</time>
      </trkpt>
      <trkpt lat="43.6089" lon="3.1647">
        <ele>212.962918</ele>
        <time>2025-10-23T10:58:44Z</time>
      </trkpt>
      <trkpt lat="43.60889" lon="3.16475">
        <ele>213.001093</ele>
        <time>2025-10-23T10:58:45Z</time>
      </trkpt>
      <trkpt lat="43.60888" lon="3.16479">
        <ele>213.036196</ele>
        <time>2025-10-23T10:58:46Z</time>
      </trkpt>
      <trkpt lat="43.60886" lon="3.16482">
        <ele>213.075974</ele>
        <time>2025-10-23T10:58:47Z</time>
      </trkpt>
      <trkpt lat="43.60884" lon="3.16486">
        <ele>213.118137</ele>
        <time>2025-10-23T10:58:48Z</time>
      </trkpt>
      <trkpt lat="43.6088" lon="3.16489">
        <ele>213.163908</ele>
        <time>2025-10-23T10:58:49Z</time>
      </trkpt>
      <trkpt lat="43.60877" lon="3.16492">
        <ele>213.21061</ele>
        <time>2025-10-23T10:58:50Z</time>
      </trkpt>
      <trkpt lat="43.60874" lon="3.16496">
        <ele>213.256381</ele>
        <time>2025-10-23T10:58:51Z</time>
      </trkpt>
      <trkpt lat="43.60871" lon="3.16499">
        <ele>213.304295</ele>
        <time>2025-10-23T10:58:52Z</time>
      </trkpt>
      <trkpt lat="43.60868" lon="3.16503">
        <ele>213.347599</ele>
        <time>2025-10-23T10:58:53Z</time>
      </trkpt>
      <trkpt lat="43.60865" lon="3.16507">
        <ele>213.394634</ele>
        <time>2025-10-23T10:58:54Z</time>
      </trkpt>
      <trkpt lat="43.60862" lon="3.1651">
        <ele>213.442547</ele>
        <time>2025-10-23T10:58:55Z</time>
      </trkpt>
      <trkpt lat="43.60859" lon="3.16514">
        <ele>213.48884</ele>
        <time>2025-10-23T10:58:56Z</time>
      </trkpt>
      <trkpt lat="43.60856" lon="3.16517">
        <ele>213.531886</ele>
        <time>2025-10-23T10:58:57Z</time>
      </trkpt>
      <trkpt lat="43.60854" lon="3.1652">
        <ele>213.566614</ele>
        <time>2025-10-23T10:58:58Z</time>
      </trkpt>
      <trkpt lat="43.60853" lon="3.16522">
        <ele>213.592056</ele>
        <time>2025-10-23T10:58:59Z</time>
      </trkpt>
      <trkpt lat="43.60852" lon="3.16524">
        <ele>213.611267</ele>
        <time>2025-10-23T10:59:00Z</time>
      </trkpt>
      <trkpt lat="43.60851" lon="3.16525">
        <ele>213.623227</ele>
        <time>2025-10-23T10:59:01Z</time>
      </trkpt>
      <trkpt lat="43.60851" lon="3.16526">
        <ele>213.634778</ele>
        <time>2025-10-23T10:59:02Z</time>
      </trkpt>
      <trkpt lat="43.6085" lon="3.16527">
        <ele>213.649879</ele>
        <time>2025-10-23T10:59:03Z</time>
      </trkpt>
      <trkpt lat="43.60849" lon="3.16529">
        <ele>213.669184</ele>
        <time>2025-10-23T10:59:04Z</time>
      </trkpt>
      <trkpt lat="43.60848" lon="3.16531">
        <ele>213.692524</ele>
        <time>2025-10-23T10:59:05Z</time>
      </trkpt>
      <trkpt lat="43.60847" lon="3.16535">
        <ele>213.724383</ele>
        <time>2025-10-23T10:59:06Z</time>
      </trkpt>
      <trkpt lat="43.60846" lon="3.16538">
        <ele>213.755457</ele>
        <time>2025-10-23T10:59:07Z</time>
      </trkpt>
      <trkpt lat="43.60845" lon="3.16542">
        <ele>213.786534</ele>
        <time>2025-10-23T10:59:08Z</time>
      </trkpt>
      <trkpt lat="43.60844" lon="3.16545">
        <ele>213.818394</ele>
        <time>2025-10-23T10:59:09Z</time>
      </trkpt>
      <trkpt lat="43.60843" lon="3.16549">
        <ele>213.850701</ele>
        <time>2025-10-23T10:59:10Z</time>
      </trkpt>
      <trkpt lat="43.60842" lon="3.16552">
        <ele>213.882234</ele>
        <time>2025-10-23T10:59:11Z</time>
      </trkpt>
      <trkpt lat="43.6084" lon="3.16556">
        <ele>213.915541</ele>
        <time>2025-10-23T10:59:12Z</time>
      </trkpt>
      <trkpt lat="43.60838" lon="3.16559">
        <ele>213.951907</ele>
        <time>2025-10-23T10:59:13Z</time>
      </trkpt>
      <trkpt lat="43.60836" lon="3.16562">
        <ele>213.987065</ele>
        <time>2025-10-23T10:59:14Z</time>
      </trkpt>
      <trkpt lat="43.60834" lon="3.16566">
        <ele>214.023504</ele>
        <time>2025-10-23T10:59:15Z</time>
      </trkpt>
      <trkpt lat="43.60832" lon="3.16569">
        <ele>214.064701</ele>
        <time>2025-10-23T10:59:16Z</time>
      </trkpt>
      <trkpt lat="43.6083" lon="3.16573">
        <ele>214.105517</ele>
        <time>2025-10-23T10:59:17Z</time>
      </trkpt>
      <trkpt lat="43.60827" lon="3.16576">
        <ele>214.147389</ele>
        <time>2025-10-23T10:59:18Z</time>
      </trkpt>
      <trkpt lat="43.60824" lon="3.16579">
        <ele>214.189761</ele>
        <time>2025-10-23T10:59:19Z</time>
      </trkpt>
      <trkpt lat="43.60822" lon="3.16582">
        <ele>214.230821</ele>
        <time>2025-10-23T10:59:20Z</time>
      </trkpt>
      <trkpt lat="43.60819" lon="3.16585">
        <ele>214.27082</ele>
        <time>2025-10-23T10:59:21Z</time>
      </trkpt>
      <trkpt lat="43.60816" lon="3.16588">
        <ele>214.312199</ele>
        <time>2025-10-23T10:59:22Z</time>
      </trkpt>
      <trkpt lat="43.60813" lon="3.1659">
        <ele>214.363772</ele>
        <time>2025-10-23T10:59:23Z</time>
      </trkpt>
      <trkpt lat="43.6081" lon="3.16592">
        <ele>214.43423</ele>
        <time>2025-10-23T10:59:24Z</time>
      </trkpt>
      <trkpt lat="43.60807" lon="3.16594">
        <ele>214.501673</ele>
        <time>2025-10-23T10:59:25Z</time>
      </trkpt>
      <trkpt lat="43.60804" lon="3.16596">
        <ele>214.560162</ele>
        <time>2025-10-23T10:59:26Z</time>
      </trkpt>
      <trkpt lat="43.60801" lon="3.16597">
        <ele>214.624021</ele>
        <time>2025-10-23T10:59:27Z</time>
      </trkpt>
      <trkpt lat="43.60797" lon="3.16599">
        <ele>214.695461</ele>
        <time>2025-10-23T10:59:28Z</time>
      </trkpt>
      <trkpt lat="43.60794" lon="3.166">
        <ele>214.770715</ele>
        <time>2025-10-23T10:59:29Z</time>
      </trkpt>
      <trkpt lat="43.6079" lon="3.16601">
        <ele>214.848237</ele>
        <time>2025-10-23T10:59:30Z</time>
      </trkpt>
      <trkpt lat="43.60786" lon="3.16603">
        <ele>214.920912</ele>
        <time>2025-10-23T10:59:31Z</time>
      </trkpt>
      <trkpt lat="43.60783" lon="3.16603">
        <ele>214.993025</ele>
        <time>2025-10-23T10:59:32Z</time>
      </trkpt>
      <trkpt lat="43.60779" lon="3.16604">
        <ele>215.061263</ele>
        <time>2025-10-23T10:59:33Z</time>
      </trkpt>
      <trkpt lat="43.60776" lon="3.16605">
        <ele>215.127856</ele>
        <time>2025-10-23T10:59:34Z</time>
      </trkpt>
      <trkpt lat="43.60772" lon="3.16607">
        <ele>215.202771</ele>
        <time>2025-10-23T10:59:35Z</time>
      </trkpt>
      <trkpt lat="43.60769" lon="3.16608">
        <ele>215.273854</ele>
        <time>2025-10-23T10:59:36Z</time>
      </trkpt>
      <trkpt lat="43.60765" lon="3.1661">
        <ele>215.353513</ele>
        <time>2025-10-23T10:59:37Z</time>
      </trkpt>
      <trkpt lat="43.60761" lon="3.16612">
        <ele>215.435515</ele>
        <time>2025-10-23T10:59:38Z</time>
      </trkpt>
      <trkpt lat="43.60757" lon="3.16614">
        <ele>215.512545</ele>
        <time>2025-10-23T10:59:39Z</time>
      </trkpt>
      <trkpt lat="43.60754" lon="3.16616">
        <ele>215.587763</ele>
        <time>2025-10-23T10:59:40Z</time>
      </trkpt>
      <trkpt lat="43.60751" lon="3.16618">
        <ele>215.660606</ele>
        <time>2025-10-23T10:59:41Z</time>
      </trkpt>
      <trkpt lat="43.60747" lon="3.1662">
        <ele>215.736404</ele>
        <time>2025-10-23T10:59:42Z</time>
      </trkpt>
      <trkpt lat="43.60743" lon="3.16622">
        <ele>215.813434</ele>
        <time>2025-10-23T10:59:43Z</time>
      </trkpt>
      <trkpt lat="43.6074" lon="3.16624">
        <ele>215.888095</ele>
        <time>2025-10-23T10:59:44Z</time>
      </trkpt>
      <trkpt lat="43.60737" lon="3.16626">
        <ele>215.960938</ele>
        <time>2025-10-23T10:59:45Z</time>
      </trkpt>
      <trkpt lat="43.60734" lon="3.16629">
        <ele>216.029276</ele>
        <time>2025-10-23T10:59:46Z</time>
      </trkpt>
      <trkpt lat="43.6073" lon="3.16631">
        <ele>216.104163</ele>
        <time>2025-10-23T10:59:47Z</time>
      </trkpt>
      <trkpt lat="43.60727" lon="3.16634">
        <ele>216.180087</ele>
        <time>2025-10-23T10:59:48Z</time>
      </trkpt>
      <trkpt lat="43.60724" lon="3.16636">
        <ele>216.252947</ele>
        <time>2025-10-23T10:59:49Z</time>
      </trkpt>
      <trkpt lat="43.6072" lon="3.16638">
        <ele>216.324053</ele>
        <time>2025-10-23T10:59:50Z</time>
      </trkpt>
      <trkpt lat="43.60717" lon="3.1664">
        <ele>216.392753</ele>
        <time>2025-10-23T10:59:51Z</time>
      </trkpt>
      <trkpt lat="43.60714" lon="3.16642">
        <ele>216.457807</ele>
        <time>2025-10-23T10:59:52Z</time>
      </trkpt>
      <trkpt lat="43.60711" lon="3.16645">
        <ele>216.529297</ele>
        <time>2025-10-23T10:59:53Z</time>
      </trkpt>
      <trkpt lat="43.60708" lon="3.16647">
        <ele>216.600056</ele>
        <time>2025-10-23T10:59:54Z</time>
      </trkpt>
      <trkpt lat="43.60705" lon="3.1665">
        <ele>216.672917</ele>
        <time>2025-10-23T10:59:55Z</time>
      </trkpt>
      <trkpt lat="43.60701" lon="3.16652">
        <ele>216.742852</ele>
        <time>2025-10-23T10:59:56Z</time>
      </trkpt>
      <trkpt lat="43.60698" lon="3.16654">
        <ele>216.813887</ele>
        <time>2025-10-23T10:59:57Z</time>
      </trkpt>
      <trkpt lat="43.60695" lon="3.16655">
        <ele>216.882544</ele>
        <time>2025-10-23T10:59:58Z</time>
      </trkpt>
      <trkpt lat="43.60692" lon="3.16658">
        <ele>216.951244</ele>
        <time>2025-10-23T10:59:59Z</time>
      </trkpt>
      <trkpt lat="43.60689" lon="3.1666">
        <ele>217.012105</ele>
        <time>2025-10-23T11:00:00Z</time>
      </trkpt>
      <trkpt lat="43.60687" lon="3.16662">
        <ele>217.074551</ele>
        <time>2025-10-23T11:00:01Z</time>
      </trkpt>
      <trkpt lat="43.60684" lon="3.16665">
        <ele>217.137081</ele>
        <time>2025-10-23T11:00:02Z</time>
      </trkpt>
      <trkpt lat="43.60681" lon="3.16667">
        <ele>217.203376</ele>
        <time>2025-10-23T11:00:03Z</time>
      </trkpt>
      <trkpt lat="43.60678" lon="3.16669">
        <ele>217.272076</ele>
        <time>2025-10-23T11:00:04Z</time>
      </trkpt>
      <trkpt lat="43.60675" lon="3.16671">
        <ele>217.34144</ele>
        <time>2025-10-23T11:00:05Z</time>
      </trkpt>
      <trkpt lat="43.60672" lon="3.16674">
        <ele>217.41149</ele>
        <time>2025-10-23T11:00:06Z</time>
      </trkpt>
      <trkpt lat="43.60669" lon="3.16676">
        <ele>217.476033</ele>
        <time>2025-10-23T11:00:07Z</time>
      </trkpt>
      <trkpt lat="43.60666" lon="3.16678">
        <ele>217.535129</ele>
        <time>2025-10-23T11:00:08Z</time>
      </trkpt>
      <trkpt lat="43.60663" lon="3.16679">
        <ele>217.599602</ele>
        <time>2025-10-23T11:00:09Z</time>
      </trkpt>
      <trkpt lat="43.6066" lon="3.16682">
        <ele>217.664559</ele>
        <time>2025-10-23T11:00:10Z</time>
      </trkpt>
      <trkpt lat="43.60657" lon="3.16684">
        <ele>217.732665</ele>
        <time>2025-10-23T11:00:11Z</time>
      </trkpt>
      <trkpt lat="43.60654" lon="3.16685">
        <ele>217.80284</ele>
        <time>2025-10-23T11:00:12Z</time>
      </trkpt>
      <trkpt lat="43.6065" lon="3.16685">
        <ele>217.874314</ele>
        <time>2025-10-23T11:00:13Z</time>
      </trkpt>
      <trkpt lat="43.60646" lon="3.16686">
        <ele>217.913236</ele>
        <time>2025-10-23T11:00:14Z</time>
      </trkpt>
      <trkpt lat="43.60643" lon="3.16686">
        <ele>217.948547</ele>
        <time>2025-10-23T11:00:15Z</time>
      </trkpt>
      <trkpt lat="43.60639" lon="3.16686">
        <ele>217.985659</ele>
        <time>2025-10-23T11:00:16Z</time>
      </trkpt>
      <trkpt lat="43.60635" lon="3.16687">
        <ele>218.023723</ele>
        <time>2025-10-23T11:00:17Z</time>
      </trkpt>
      <trkpt lat="43.60631" lon="3.16686">
        <ele>218.062738</ele>
        <time>2025-10-23T11:00:18Z</time>
      </trkpt>
      <trkpt lat="43.60626" lon="3.16686">
        <ele>218.102793</ele>
        <time>2025-10-23T11:00:19Z</time>
      </trkpt>
      <trkpt lat="43.60622" lon="3.16685">
        <ele>218.147097</ele>
        <time>2025-10-23T11:00:20Z</time>
      </trkpt>
      <trkpt lat="43.60616" lon="3.16685">
        <ele>218.198516</ele>
        <time>2025-10-23T11:00:21Z</time>
      </trkpt>
      <trkpt lat="43.60611" lon="3.16683">
        <ele>218.252789</ele>
        <time>2025-10-23T11:00:22Z</time>
      </trkpt>
      <trkpt lat="43.60605" lon="3.16681">
        <ele>218.313136</ele>
        <time>2025-10-23T11:00:23Z</time>
      </trkpt>
      <trkpt lat="43.60599" lon="3.16678">
        <ele>218.374988</ele>
        <time>2025-10-23T11:00:24Z</time>
      </trkpt>
      <trkpt lat="43.60592" lon="3.16675">
        <ele>218.441392</ele>
        <time>2025-10-23T11:00:25Z</time>
      </trkpt>
      <trkpt lat="43.60585" lon="3.16673">
        <ele>218.512559</ele>
        <time>2025-10-23T11:00:26Z</time>
      </trkpt>
      <trkpt lat="43.60577" lon="3.1667">
        <ele>218.583194</ele>
        <time>2025-10-23T11:00:27Z</time>
      </trkpt>
      <trkpt lat="43.6057" lon="3.16668">
        <ele>218.657526</ele>
        <time>2025-10-23T11:00:28Z</time>
      </trkpt>
      <trkpt lat="43.60562" lon="3.16666">
        <ele>218.729138</ele>
        <time>2025-10-23T11:00:29Z</time>
      </trkpt>
      <trkpt lat="43.60555" lon="3.16665">
        <ele>218.799709</ele>
        <time>2025-10-23T11:00:30Z</time>
      </trkpt>
      <trkpt lat="43.60548" lon="3.16666">
        <ele>218.869249</ele>
        <time>2025-10-23T11:00:31Z</time>
      </trkpt>
      <trkpt lat="43.60541" lon="3.16667">
        <ele>218.938335</ele>
        <time>2025-10-23T11:00:32Z</time>
      </trkpt>
      <trkpt lat="43.60533" lon="3.16669">
        <ele>219.007419</ele>
        <time>2025-10-23T11:00:33Z</time>
      </trkpt>
      <trkpt lat="43.60527" lon="3.16672">
        <ele>219.074737</ele>
        <time>2025-10-23T11:00:34Z</time>
      </trkpt>
      <trkpt lat="43.6052" lon="3.16675">
        <ele>219.14277</ele>
        <time>2025-10-23T11:00:35Z</time>
      </trkpt>
      <trkpt lat="43.60514" lon="3.1668">
        <ele>219.207085</ele>
        <time>2025-10-23T11:00:36Z</time>
      </trkpt>
      <trkpt lat="43.60508" lon="3.16685">
        <ele>219.271289</ele>
        <time>2025-10-23T11:00:37Z</time>
      </trkpt>
      <trkpt lat="43.60503" lon="3.16691">
        <ele>219.336204</ele>
        <time>2025-10-23T11:00:38Z</time>
      </trkpt>
      <trkpt lat="43.60499" lon="3.16698">
        <ele>219.399978</ele>
        <time>2025-10-23T11:00:39Z</time>
      </trkpt>
      <trkpt lat="43.60494" lon="3.16705">
        <ele>219.462608</ele>
        <time>2025-10-23T11:00:40Z</time>
      </trkpt>
      <trkpt lat="43.60491" lon="3.16712">
        <ele>219.525702</ele>
        <time>2025-10-23T11:00:41Z</time>
      </trkpt>
      <trkpt lat="43.60488" lon="3.1672">
        <ele>219.585198</ele>
        <time>2025-10-23T11:00:42Z</time>
      </trkpt>
      <trkpt lat="43.60485" lon="3.16727">
        <ele>219.64677</ele>
        <time>2025-10-23T11:00:43Z</time>
      </trkpt>
      <trkpt lat="43.60482" lon="3.16734">
        <ele>219.703403</ele>
        <time>2025-10-23T11:00:44Z</time>
      </trkpt>
      <trkpt lat="43.60481" lon="3.16741">
        <ele>219.75593</ele>
        <time>2025-10-23T11:00:45Z</time>
      </trkpt>
      <trkpt lat="43.6048" lon="3.16749">
        <ele>219.81585</ele>
        <time>2025-10-23T11:00:46Z</time>
      </trkpt>
      <trkpt lat="43.60479" lon="3.16757">
        <ele>219.872228</ele>
        <time>2025-10-23T11:00:47Z</time>
      </trkpt>
      <trkpt lat="43.60478" lon="3.16764">
        <ele>219.926623</ele>
        <time>2025-10-23T11:00:48Z</time>
      </trkpt>
      <trkpt lat="43.60478" lon="3.16771">
        <ele>219.978204</ele>
        <time>2025-10-23T11:00:49Z</time>
      </trkpt>
      <trkpt lat="43.60479" lon="3.16778">
        <ele>220.030266</ele>
        <time>2025-10-23T11:00:50Z</time>
      </trkpt>
      <trkpt lat="43.6048" lon="3.16785">
        <ele>220.082109</ele>
        <time>2025-10-23T11:00:51Z</time>
      </trkpt>
      <trkpt lat="43.60481" lon="3.16791">
        <ele>220.132724</ele>
        <time>2025-10-23T11:00:52Z</time>
      </trkpt>
      <trkpt lat="43.60482" lon="3.16798">
        <ele>220.181583</ele>
        <time>2025-10-23T11:00:53Z</time>
      </trkpt>
      <trkpt lat="43.60483" lon="3.16804">
        <ele>220.229577</ele>
        <time>2025-10-23T11:00:54Z</time>
      </trkpt>
      <trkpt lat="43.60484" lon="3.1681">
        <ele>220.274719</ele>
        <time>2025-10-23T11:00:55Z</time>
      </trkpt>
      <trkpt lat="43.60485" lon="3.16816">
        <ele>220.321033</ele>
        <time>2025-10-23T11:00:56Z</time>
      </trkpt>
      <trkpt lat="43.60487" lon="3.16822">
        <ele>220.365715</ele>
        <time>2025-10-23T11:00:57Z</time>
      </trkpt>
      <trkpt lat="43.60488" lon="3.16828">
        <ele>220.410059</ele>
        <time>2025-10-23T11:00:58Z</time>
      </trkpt>
      <trkpt lat="43.6049" lon="3.16833">
        <ele>220.45479</ele>
        <time>2025-10-23T11:00:59Z</time>
      </trkpt>
      <trkpt lat="43.60491" lon="3.16839">
        <ele>220.496017</ele>
        <time>2025-10-23T11:01:00Z</time>
      </trkpt>
      <trkpt lat="43.60492" lon="3.16844">
        <ele>220.537942</ele>
        <time>2025-10-23T11:01:01Z</time>
      </trkpt>
      <trkpt lat="43.60493" lon="3.1685">
        <ele>220.580262</ele>
        <time>2025-10-23T11:01:02Z</time>
      </trkpt>
      <trkpt lat="43.60494" lon="3.16855">
        <ele>220.622523</ele>
        <time>2025-10-23T11:01:03Z</time>
      </trkpt>
      <trkpt lat="43.60495" lon="3.16861">
        <ele>220.664065</ele>
        <time>2025-10-23T11:01:04Z</time>
      </trkpt>
      <trkpt lat="43.60496" lon="3.16866">
        <ele>220.705608</ele>
        <time>2025-10-23T11:01:05Z</time>
      </trkpt>
      <trkpt lat="43.60497" lon="3.16872">
        <ele>220.750339</ele>
        <time>2025-10-23T11:01:06Z</time>
      </trkpt>
      <trkpt lat="43.60499" lon="3.16878">
        <ele>220.795489</ele>
        <time>2025-10-23T11:01:07Z</time>
      </trkpt>
      <trkpt lat="43.605" lon="3.16884">
        <ele>220.83919</ele>
        <time>2025-10-23T11:01:08Z</time>
      </trkpt>
      <trkpt lat="43.605" lon="3.16889">
        <ele>220.881451</ele>
        <time>2025-10-23T11:01:09Z</time>
      </trkpt>
      <trkpt lat="43.60501" lon="3.16895">
        <ele>220.924483</ele>
        <time>2025-10-23T11:01:10Z</time>
      </trkpt>
      <trkpt lat="43.60501" lon="3.16901">
        <ele>220.968141</ele>
        <time>2025-10-23T11:01:11Z</time>
      </trkpt>
      <trkpt lat="43.60502" lon="3.16907">
        <ele>221.011065</ele>
        <time>2025-10-23T11:01:12Z</time>
      </trkpt>
      <trkpt lat="43.60502" lon="3.16912">
        <ele>221.052435</ele>
        <time>2025-10-23T11:01:13Z</time>
      </trkpt>
      <trkpt lat="43.60502" lon="3.16918">
        <ele>221.092956</ele>
        <time>2025-10-23T11:01:14Z</time>
      </trkpt>
      <trkpt lat="43.60502" lon="3.16923">
        <ele>221.133064</ele>
        <time>2025-10-23T11:01:15Z</time>
      </trkpt>
      <trkpt lat="43.60501" lon="3.16929">
        <ele>221.176096</ele>
        <time>2025-10-23T11:01:16Z</time>
      </trkpt>
      <trkpt lat="43.60501" lon="3.16935">
        <ele>221.219021</ele>
        <time>2025-10-23T11:01:17Z</time>
      </trkpt>
      <trkpt lat="43.605" lon="3.16941">
        <ele>221.263244</ele>
        <time>2025-10-23T11:01:18Z</time>
      </trkpt>
      <trkpt lat="43.60499" lon="3.16947">
        <ele>221.306564</ele>
        <time>2025-10-23T11:01:19Z</time>
      </trkpt>
      <trkpt lat="43.60498" lon="3.16952">
        <ele>221.351295</ele>
        <time>2025-10-23T11:01:20Z</time>
      </trkpt>
      <trkpt lat="43.60496" lon="3.16958">
        <ele>221.395976</ele>
        <time>2025-10-23T11:01:21Z</time>
      </trkpt>
      <trkpt lat="43.60495" lon="3.16964">
        <ele>221.471571</ele>
        <time>2025-10-23T11:01:22Z</time>
      </trkpt>
      <trkpt lat="43.60493" lon="3.1697">
        <ele>221.590033</ele>
        <time>2025-10-23T11:01:23Z</time>
      </trkpt>
      <trkpt lat="43.6049" lon="3.16976">
        <ele>221.711881</ele>
        <time>2025-10-23T11:01:24Z</time>
      </trkpt>
      <trkpt lat="43.60488" lon="3.16981">
        <ele>221.824241</ele>
        <time>2025-10-23T11:01:25Z</time>
      </trkpt>
      <trkpt lat="43.60486" lon="3.16987">
        <ele>221.942573</ele>
        <time>2025-10-23T11:01:26Z</time>
      </trkpt>
      <trkpt lat="43.60483" lon="3.16992">
        <ele>222.056497</ele>
        <time>2025-10-23T11:01:27Z</time>
      </trkpt>
      <trkpt lat="43.60481" lon="3.16997">
        <ele>222.171409</ele>
        <time>2025-10-23T11:01:28Z</time>
      </trkpt>
      <trkpt lat="43.60478" lon="3.17002">
        <ele>222.284829</ele>
        <time>2025-10-23T11:01:29Z</time>
      </trkpt>
      <trkpt lat="43.60475" lon="3.17008">
        <ele>222.405661</ele>
        <time>2025-10-23T11:01:30Z</time>
      </trkpt>
      <trkpt lat="43.60472" lon="3.17013">
        <ele>222.535548</ele>
        <time>2025-10-23T11:01:31Z</time>
      </trkpt>
      <trkpt lat="43.60468" lon="3.17018">
        <ele>222.665063</ele>
        <time>2025-10-23T11:01:32Z</time>
      </trkpt>
      <trkpt lat="43.60465" lon="3.17024">
        <ele>222.792838</ele>
        <time>2025-10-23T11:01:33Z</time>
      </trkpt>
      <trkpt lat="43.60462" lon="3.17029">
        <ele>222.919725</ele>
        <time>2025-10-23T11:01:34Z</time>
      </trkpt>
      <trkpt lat="43.60459" lon="3.17034">
        <ele>223.042055</ele>
        <time>2025-10-23T11:01:35Z</time>
      </trkpt>
      <trkpt lat="43.60456" lon="3.17039">
        <ele>223.159893</ele>
        <time>2025-10-23T11:01:36Z</time>
      </trkpt>
      <trkpt lat="43.60453" lon="3.17044">
        <ele>223.275195</ele>
        <time>2025-10-23T11:01:37Z</time>
      </trkpt>
      <trkpt lat="43.6045" lon="3.17049">
        <ele>223.392154</ele>
        <time>2025-10-23T11:01:38Z</time>
      </trkpt>
      <trkpt lat="43.60446" lon="3.17054">
        <ele>223.516883</ele>
        <time>2025-10-23T11:01:39Z</time>
      </trkpt>
      <trkpt lat="43.60443" lon="3.17059">
        <ele>223.636581</ele>
        <time>2025-10-23T11:01:40Z</time>
      </trkpt>
      <trkpt lat="43.6044" lon="3.17064">
        <ele>223.759604</ele>
        <time>2025-10-23T11:01:41Z</time>
      </trkpt>
      <trkpt lat="43.60437" lon="3.17069">
        <ele>223.880414</ele>
        <time>2025-10-23T11:01:42Z</time>
      </trkpt>
      <trkpt lat="43.60433" lon="3.17073">
        <ele>223.998679</ele>
        <time>2025-10-23T11:01:43Z</time>
      </trkpt>
      <trkpt lat="43.6043" lon="3.17077">
        <ele>224.117028</ele>
        <time>2025-10-23T11:01:44Z</time>
      </trkpt>
      <trkpt lat="43.60426" lon="3.17082">
        <ele>224.238128</ele>
        <time>2025-10-23T11:01:45Z</time>
      </trkpt>
      <trkpt lat="43.60422" lon="3.17086">
        <ele>224.352218</ele>
        <time>2025-10-23T11:01:46Z</time>
      </trkpt>
      <trkpt lat="43.60419" lon="3.17089">
        <ele>224.469108</ele>
        <time>2025-10-23T11:01:47Z</time>
      </trkpt>
      <trkpt lat="43.60415" lon="3.17094">
        <ele>224.587967</ele>
        <time>2025-10-23T11:01:48Z</time>
      </trkpt>
      <trkpt lat="43.60412" lon="3.17098">
        <ele>224.700905</ele>
        <time>2025-10-23T11:01:49Z</time>
      </trkpt>
      <trkpt lat="43.60408" lon="3.17102">
        <ele>224.809981</ele>
        <time>2025-10-23T11:01:50Z</time>
      </trkpt>
      <trkpt lat="43.60405" lon="3.17106">
        <ele>224.919039</ele>
        <time>2025-10-23T11:01:51Z</time>
      </trkpt>
      <trkpt lat="43.60402" lon="3.1711">
        <ele>225.029949</ele>
        <time>2025-10-23T11:01:52Z</time>
      </trkpt>
      <trkpt lat="43.604" lon="3.17115">
        <ele>225.139227</ele>
        <time>2025-10-23T11:01:53Z</time>
      </trkpt>
      <trkpt lat="43.60397" lon="3.1712">
        <ele>225.249694</ele>
        <time>2025-10-23T11:01:54Z</time>
      </trkpt>
      <trkpt lat="43.60394" lon="3.17125">
        <ele>225.361688</ele>
        <time>2025-10-23T11:01:55Z</time>
      </trkpt>
      <trkpt lat="43.60392" lon="3.1713">
        <ele>225.471985</ele>
        <time>2025-10-23T11:01:56Z</time>
      </trkpt>
      <trkpt lat="43.60391" lon="3.17137">
        <ele>225.593454</ele>
        <time>2025-10-23T11:01:57Z</time>
      </trkpt>
      <trkpt lat="43.6039" lon="3.17142">
        <ele>225.700822</ele>
        <time>2025-10-23T11:01:58Z</time>
      </trkpt>
      <trkpt lat="43.60389" lon="3.17149">
        <ele>225.814014</ele>
        <time>2025-10-23T11:01:59Z</time>
      </trkpt>
      <trkpt lat="43.60389" lon="3.17155">
        <ele>225.930424</ele>
        <time>2025-10-23T11:02:00Z</time>
      </trkpt>
      <trkpt lat="43.6039" lon="3.17161">
        <ele>226.102199</ele>
        <time>2025-10-23T11:02:01Z</time>
      </trkpt>
      <trkpt lat="43.6039" lon="3.17168">
        <ele>226.280063</ele>
        <time>2025-10-23T11:02:02Z</time>
      </trkpt>
      <trkpt lat="43.60391" lon="3.17174">
        <ele>226.460459</ele>
        <time>2025-10-23T11:02:03Z</time>
      </trkpt>
      <trkpt lat="43.60391" lon="3.1718">
        <ele>226.628627</ele>
        <time>2025-10-23T11:02:04Z</time>
      </trkpt>
      <trkpt lat="43.60392" lon="3.17186">
        <ele>226.795474</ele>
        <time>2025-10-23T11:02:05Z</time>
      </trkpt>
      <trkpt lat="43.60394" lon="3.17192">
        <ele>226.973274</ele>
        <time>2025-10-23T11:02:06Z</time>
      </trkpt>
      <trkpt lat="43.60394" lon="3.17197">
        <ele>227.137371</ele>
        <time>2025-10-23T11:02:07Z</time>
      </trkpt>
      <trkpt lat="43.60396" lon="3.17203">
        <ele>227.311465</ele>
        <time>2025-10-23T11:02:08Z</time>
      </trkpt>
      <trkpt lat="43.60397" lon="3.1721">
        <ele>227.494699</ele>
        <time>2025-10-23T11:02:09Z</time>
      </trkpt>
      <trkpt lat="43.60398" lon="3.17215">
        <ele>227.658969</ele>
        <time>2025-10-23T11:02:10Z</time>
      </trkpt>
      <trkpt lat="43.60399" lon="3.17221">
        <ele>227.832204</ele>
        <time>2025-10-23T11:02:11Z</time>
      </trkpt>
      <trkpt lat="43.60401" lon="3.17227">
        <ele>228.004159</ele>
        <time>2025-10-23T11:02:12Z</time>
      </trkpt>
      <trkpt lat="43.60403" lon="3.17232">
        <ele>228.17088</ele>
        <time>2025-10-23T11:02:13Z</time>
      </trkpt>
      <trkpt lat="43.60404" lon="3.17238">
        <ele>228.33752</ele>
        <time>2025-10-23T11:02:14Z</time>
      </trkpt>
      <trkpt lat="43.60406" lon="3.17243">
        <ele>228.503145</ele>
        <time>2025-10-23T11:02:15Z</time>
      </trkpt>
      <trkpt lat="43.60407" lon="3.17249">
        <ele>228.663206</ele>
        <time>2025-10-23T11:02:16Z</time>
      </trkpt>
      <trkpt lat="43.60409" lon="3.17254">
        <ele>228.823266</ele>
        <time>2025-10-23T11:02:17Z</time>
      </trkpt>
      <trkpt lat="43.60411" lon="3.17259">
        <ele>228.985384</ele>
        <time>2025-10-23T11:02:18Z</time>
      </trkpt>
      <trkpt lat="43.60413" lon="3.17264">
        <ele>229.152859</ele>
        <time>2025-10-23T11:02:19Z</time>
      </trkpt>
      <trkpt lat="43.60415" lon="3.17269">
        <ele>229.317427</ele>
        <time>2025-10-23T11:02:20Z</time>
      </trkpt>
      <trkpt lat="43.60417" lon="3.17274">
        <ele>229.474741</ele>
        <time>2025-10-23T11:02:21Z</time>
      </trkpt>
      <trkpt lat="43.6042" lon="3.17278">
        <ele>229.632313</ele>
        <time>2025-10-23T11:02:22Z</time>
      </trkpt>
      <trkpt lat="43.60422" lon="3.17282">
        <ele>229.787424</ele>
        <time>2025-10-23T11:02:23Z</time>
      </trkpt>
      <trkpt lat="43.60425" lon="3.17286">
        <ele>229.933306</ele>
        <time>2025-10-23T11:02:24Z</time>
      </trkpt>
      <trkpt lat="43.60427" lon="3.17291">
        <ele>230.083797</ele>
        <time>2025-10-23T11:02:25Z</time>
      </trkpt>
      <trkpt lat="43.6043" lon="3.17295">
        <ele>230.23209</ele>
        <time>2025-10-23T11:02:26Z</time>
      </trkpt>
      <trkpt lat="43.60432" lon="3.17299">
        <ele>230.382581</ele>
        <time>2025-10-23T11:02:27Z</time>
      </trkpt>
      <trkpt lat="43.60434" lon="3.17303">
        <ele>230.53529</ele>
        <time>2025-10-23T11:02:28Z</time>
      </trkpt>
      <trkpt lat="43.60437" lon="3.17308">
        <ele>230.68793</ele>
        <time>2025-10-23T11:02:29Z</time>
      </trkpt>
      <trkpt lat="43.60439" lon="3.17312">
        <ele>230.843041</ele>
        <time>2025-10-23T11:02:30Z</time>
      </trkpt>
      <trkpt lat="43.60442" lon="3.17316">
        <ele>230.989157</ele>
        <time>2025-10-23T11:02:31Z</time>
      </trkpt>
      <trkpt lat="43.60444" lon="3.1732">
        <ele>231.13357</ele>
        <time>2025-10-23T11:02:32Z</time>
      </trkpt>
      <trkpt lat="43.60446" lon="3.17324">
        <ele>231.274856</ele>
        <time>2025-10-23T11:02:33Z</time>
      </trkpt>
      <trkpt lat="43.60448" lon="3.17328">
        <ele>231.425439</ele>
        <time>2025-10-23T11:02:34Z</time>
      </trkpt>
      <trkpt lat="43.6045" lon="3.17333">
        <ele>231.565144</ele>
        <time>2025-10-23T11:02:35Z</time>
      </trkpt>
      <trkpt lat="43.60452" lon="3.17337">
        <ele>231.69615</ele>
        <time>2025-10-23T11:02:36Z</time>
      </trkpt>
      <trkpt lat="43.60453" lon="3.1734">
        <ele>231.804297</ele>
        <time>2025-10-23T11:02:37Z</time>
      </trkpt>
      <trkpt lat="43.60454" lon="3.17344">
        <ele>231.919236</ele>
        <time>2025-10-23T11:02:38Z</time>
      </trkpt>
      <trkpt lat="43.60456" lon="3.17347">
        <ele>232.021421</ele>
        <time>2025-10-23T11:02:39Z</time>
      </trkpt>
      <trkpt lat="43.60456" lon="3.1735">
        <ele>232.112759</ele>
        <time>2025-10-23T11:02:40Z</time>
      </trkpt>
      <trkpt lat="43.60457" lon="3.17353">
        <ele>232.204098</ele>
        <time>2025-10-23T11:02:41Z</time>
      </trkpt>
      <trkpt lat="43.60459" lon="3.17356">
        <ele>232.290822</ele>
        <time>2025-10-23T11:02:42Z</time>
      </trkpt>
      <trkpt lat="43.60459" lon="3.17359">
        <ele>232.380745</ele>
        <time>2025-10-23T11:02:43Z</time>
      </trkpt>
      <trkpt lat="43.6046" lon="3.17362">
        <ele>232.472083</ele>
        <time>2025-10-23T11:02:44Z</time>
      </trkpt>
      <trkpt lat="43.60461" lon="3.17365">
        <ele>232.564977</ele>
        <time>2025-10-23T11:02:45Z</time>
      </trkpt>
      <trkpt lat="43.60462" lon="3.17367">
        <ele>232.652793</ele>
        <time>2025-10-23T11:02:46Z</time>
      </trkpt>
      <trkpt lat="43.60463" lon="3.1737">
        <ele>232.737493</ele>
        <time>2025-10-23T11:02:47Z</time>
      </trkpt>
      <trkpt lat="43.60464" lon="3.17373">
        <ele>232.815516</ele>
        <time>2025-10-23T11:02:48Z</time>
      </trkpt>
      <trkpt lat="43.60465" lon="3.17376">
        <ele>232.93508</ele>
        <time>2025-10-23T11:02:49Z</time>
      </trkpt>
      <trkpt lat="43.60467" lon="3.17379">
        <ele>233.104301</ele>
        <time>2025-10-23T11:02:50Z</time>
      </trkpt>
      <trkpt lat="43.60468" lon="3.17382">
        <ele>233.256594</ele>
        <time>2025-10-23T11:02:51Z</time>
      </trkpt>
      <trkpt lat="43.60469" lon="3.17385">
        <ele>233.404621</ele>
        <time>2025-10-23T11:02:52Z</time>
      </trkpt>
      <trkpt lat="43.6047" lon="3.17387">
        <ele>233.539292</ele>
        <time>2025-10-23T11:02:53Z</time>
      </trkpt>
      <trkpt lat="43.60471" lon="3.1739">
        <ele>233.677576</ele>
        <time>2025-10-23T11:02:54Z</time>
      </trkpt>
      <trkpt lat="43.60473" lon="3.17392">
        <ele>233.825414</ele>
        <time>2025-10-23T11:02:55Z</time>
      </trkpt>
      <trkpt lat="43.60474" lon="3.17394">
        <ele>233.963584</ele>
        <time>2025-10-23T11:02:56Z</time>
      </trkpt>
      <trkpt lat="43.60476" lon="3.17396">
        <ele>234.127412</ele>
        <time>2025-10-23T11:02:57Z</time>
      </trkpt>
      <trkpt lat="43.60478" lon="3.17399">
        <ele>234.293506</ele>
        <time>2025-10-23T11:02:58Z</time>
      </trkpt>
      <trkpt lat="43.60479" lon="3.17401">
        <ele>234.454858</ele>
        <time>2025-10-23T11:02:59Z</time>
      </trkpt>
      <trkpt lat="43.60481" lon="3.17404">
        <ele>234.604666</ele>
        <time>2025-10-23T11:03:00Z</time>
      </trkpt>
      <trkpt lat="43.60482" lon="3.17407">
        <ele>234.754872</ele>
        <time>2025-10-23T11:03:01Z</time>
      </trkpt>
      <trkpt lat="43.60483" lon="3.1741">
        <ele>234.908836</ele>
        <time>2025-10-23T11:03:02Z</time>
      </trkpt>
      <trkpt lat="43.60484" lon="3.17413">
        <ele>235.078056</ele>
        <time>2025-10-23T11:03:03Z</time>
      </trkpt>
      <trkpt lat="43.60485" lon="3.17416">
        <ele>235.24382</ele>
        <time>2025-10-23T11:03:04Z</time>
      </trkpt>
      <trkpt lat="43.60487" lon="3.17418">
        <ele>235.405173</ele>
        <time>2025-10-23T11:03:05Z</time>
      </trkpt>
      <trkpt lat="43.60489" lon="3.17421">
        <ele>235.563368</ele>
        <time>2025-10-23T11:03:06Z</time>
      </trkpt>
      <trkpt lat="43.6049" lon="3.17424">
        <ele>235.7171</ele>
        <time>2025-10-23T11:03:07Z</time>
      </trkpt>
      <trkpt lat="43.60491" lon="3.17426">
        <ele>235.849474</ele>
        <time>2025-10-23T11:03:08Z</time>
      </trkpt>
      <trkpt lat="43.60492" lon="3.17428">
        <ele>235.980163</ele>
        <time>2025-10-23T11:03:09Z</time>
      </trkpt>
      <trkpt lat="43.60493" lon="3.17431">
        <ele>236.118502</ele>
        <time>2025-10-23T11:03:10Z</time>
      </trkpt>
      <trkpt lat="43.60494" lon="3.17433">
        <ele>236.272235</ele>
        <time>2025-10-23T11:03:11Z</time>
      </trkpt>
      <trkpt lat="43.60496" lon="3.17436">
        <ele>236.437489</ele>
        <time>2025-10-23T11:03:12Z</time>
      </trkpt>
      <trkpt lat="43.60497" lon="3.17439">
        <ele>236.591111</ele>
        <time>2025-10-23T11:03:13Z</time>
      </trkpt>
      <trkpt lat="43.60499" lon="3.17442">
        <ele>236.744843</ele>
        <time>2025-10-23T11:03:14Z</time>
      </trkpt>
      <trkpt lat="43.605" lon="3.17444">
        <ele>236.887054</ele>
        <time>2025-10-23T11:03:15Z</time>
      </trkpt>
      <trkpt lat="43.60501" lon="3.17447">
        <ele>237.023689</ele>
        <time>2025-10-23T11:03:16Z</time>
      </trkpt>
      <trkpt lat="43.60502" lon="3.17449">
        <ele>237.16239</ele>
        <time>2025-10-23T11:03:17Z</time>
      </trkpt>
      <trkpt lat="43.60503" lon="3.17452">
        <ele>237.293079</ele>
        <time>2025-10-23T11:03:18Z</time>
      </trkpt>
      <trkpt lat="43.60504" lon="3.17454">
        <ele>237.436868</ele>
        <time>2025-10-23T11:03:19Z</time>
      </trkpt>
      <trkpt lat="43.60505" lon="3.17457">
        <ele>237.572841</ele>
        <time>2025-10-23T11:03:20Z</time>
      </trkpt>
      <trkpt lat="43.60506" lon="3.1746">
        <ele>237.726463</ele>
        <time>2025-10-23T11:03:21Z</time>
      </trkpt>
      <trkpt lat="43.60508" lon="3.17462">
        <ele>237.8919</ele>
        <time>2025-10-23T11:03:22Z</time>
      </trkpt>
      <trkpt lat="43.60509" lon="3.17464">
        <ele>238.04312</ele>
        <time>2025-10-23T11:03:23Z</time>
      </trkpt>
      <trkpt lat="43.60511" lon="3.17467">
        <ele>238.193326</ele>
        <time>2025-10-23T11:03:24Z</time>
      </trkpt>
      <trkpt lat="43.60512" lon="3.17469">
        <ele>238.34317</ele>
        <time>2025-10-23T11:03:25Z</time>
      </trkpt>
      <trkpt lat="43.60513" lon="3.17472">
        <ele>238.4891</ele>
        <time>2025-10-23T11:03:26Z</time>
      </trkpt>
      <trkpt lat="43.60515" lon="3.17474">
        <ele>238.628957</ele>
        <time>2025-10-23T11:03:27Z</time>
      </trkpt>
      <trkpt lat="43.60516" lon="3.17477">
        <ele>238.768542</ele>
        <time>2025-10-23T11:03:28Z</time>
      </trkpt>
      <trkpt lat="43.60517" lon="3.17479">
        <ele>238.914664</ele>
        <time>2025-10-23T11:03:29Z</time>
      </trkpt>
      <trkpt lat="43.60518" lon="3.17482">
        <ele>239.06085</ele>
        <time>2025-10-23T11:03:30Z</time>
      </trkpt>
      <trkpt lat="43.6052" lon="3.17484">
        <ele>239.203623</ele>
        <time>2025-10-23T11:03:31Z</time>
      </trkpt>
      <trkpt lat="43.60521" lon="3.17487">
        <ele>239.349553</ele>
        <time>2025-10-23T11:03:32Z</time>
      </trkpt>
      <trkpt lat="43.60522" lon="3.17489">
        <ele>239.492326</ele>
        <time>2025-10-23T11:03:33Z</time>
      </trkpt>
      <trkpt lat="43.60523" lon="3.17492">
        <ele>239.642169</ele>
        <time>2025-10-23T11:03:34Z</time>
      </trkpt>
      <trkpt lat="43.60524" lon="3.17494">
        <ele>239.768929</ele>
        <time>2025-10-23T11:03:35Z</time>
      </trkpt>
      <trkpt lat="43.60526" lon="3.17496">
        <ele>239.91139</ele>
        <time>2025-10-23T11:03:36Z</time>
      </trkpt>
      <trkpt lat="43.60527" lon="3.17498">
        <ele>240.054661</ele>
        <time>2025-10-23T11:03:37Z</time>
      </trkpt>
      <trkpt lat="43.60529" lon="3.17501">
        <ele>240.212363</ele>
        <time>2025-10-23T11:03:38Z</time>
      </trkpt>
      <trkpt lat="43.6053" lon="3.17503">
        <ele>240.340887</ele>
        <time>2025-10-23T11:03:39Z</time>
      </trkpt>
      <trkpt lat="43.60532" lon="3.17505">
        <ele>240.481151</ele>
        <time>2025-10-23T11:03:40Z</time>
      </trkpt>
      <trkpt lat="43.60533" lon="3.17507">
        <ele>240.613333</ele>
        <time>2025-10-23T11:03:41Z</time>
      </trkpt>
      <trkpt lat="43.60535" lon="3.17508">
        <ele>240.758848</ele>
        <time>2025-10-23T11:03:42Z</time>
      </trkpt>
      <trkpt lat="43.60537" lon="3.1751">
        <ele>240.880913</ele>
        <time>2025-10-23T11:03:43Z</time>
      </trkpt>
      <trkpt lat="43.60538" lon="3.17512">
        <ele>241.009437</ele>
        <time>2025-10-23T11:03:44Z</time>
      </trkpt>
      <trkpt lat="43.60539" lon="3.17514">
        <ele>241.149294</ele>
        <time>2025-10-23T11:03:45Z</time>
      </trkpt>
      <trkpt lat="43.60541" lon="3.17516">
        <ele>241.305604</ele>
        <time>2025-10-23T11:03:46Z</time>
      </trkpt>
      <trkpt lat="43.60543" lon="3.17518">
        <ele>241.476019</ele>
        <time>2025-10-23T11:03:47Z</time>
      </trkpt>
      <trkpt lat="43.60546" lon="3.1752">
        <ele>241.648609</ele>
        <time>2025-10-23T11:03:48Z</time>
      </trkpt>
      <trkpt lat="43.60547" lon="3.17523">
        <ele>241.805997</ele>
        <time>2025-10-23T11:03:49Z</time>
      </trkpt>
      <trkpt lat="43.60549" lon="3.17525">
        <ele>241.962424</ele>
        <time>2025-10-23T11:03:50Z</time>
      </trkpt>
      <trkpt lat="43.60551" lon="3.17527">
        <ele>242.11274</ele>
        <time>2025-10-23T11:03:51Z</time>
      </trkpt>
      <trkpt lat="43.60553" lon="3.17529">
        <ele>242.276567</ele>
        <time>2025-10-23T11:03:52Z</time>
      </trkpt>
      <trkpt lat="43.60554" lon="3.17532">
        <ele>242.432394</ele>
        <time>2025-10-23T11:03:53Z</time>
      </trkpt>
      <trkpt lat="43.60556" lon="3.17534">
        <ele>242.591739</ele>
        <time>2025-10-23T11:03:54Z</time>
      </trkpt>
      <trkpt lat="43.60557" lon="3.17536">
        <ele>242.730077</ele>
        <time>2025-10-23T11:03:55Z</time>
      </trkpt>
      <trkpt lat="43.60559" lon="3.17539">
        <ele>242.876198</ele>
        <time>2025-10-23T11:03:56Z</time>
      </trkpt>
      <trkpt lat="43.6056" lon="3.17541">
        <ele>243.023084</ele>
        <time>2025-10-23T11:03:57Z</time>
      </trkpt>
      <trkpt lat="43.60561" lon="3.17544">
        <ele>243.166872</ele>
        <time>2025-10-23T11:03:58Z</time>
      </trkpt>
      <trkpt lat="43.60561" lon="3.17547">
        <ele>243.302186</ele>
        <time>2025-10-23T11:03:59Z</time>
      </trkpt>
      <trkpt lat="43.60562" lon="3.1755">
        <ele>243.436387</ele>
        <time>2025-10-23T11:04:00Z</time>
      </trkpt>
      <trkpt lat="43.60562" lon="3.17552">
        <ele>243.567054</ele>
        <time>2025-10-23T11:04:01Z</time>
      </trkpt>
      <trkpt lat="43.60562" lon="3.17555">
        <ele>243.695736</ele>
        <time>2025-10-23T11:04:02Z</time>
      </trkpt>
      <trkpt lat="43.60562" lon="3.17558">
        <ele>243.828492</ele>
        <time>2025-10-23T11:04:03Z</time>
      </trkpt>
      <trkpt lat="43.60563" lon="3.17561">
        <ele>243.981479</ele>
        <time>2025-10-23T11:04:04Z</time>
      </trkpt>
      <trkpt lat="43.60563" lon="3.17564">
        <ele>244.135443</ele>
        <time>2025-10-23T11:04:05Z</time>
      </trkpt>
      <trkpt lat="43.60563" lon="3.17567">
        <ele>244.283005</ele>
        <time>2025-10-23T11:04:06Z</time>
      </trkpt>
      <trkpt lat="43.60563" lon="3.17571">
        <ele>244.463292</ele>
        <time>2025-10-23T11:04:07Z</time>
      </trkpt>
      <trkpt lat="43.60562" lon="3.17575">
        <ele>244.653958</ele>
        <time>2025-10-23T11:04:08Z</time>
      </trkpt>
      <trkpt lat="43.60562" lon="3.17579">
        <ele>244.732308</ele>
        <time>2025-10-23T11:04:09Z</time>
      </trkpt>
      <trkpt lat="43.60562" lon="3.17583">
        <ele>244.766242</ele>
        <time>2025-10-23T11:04:10Z</time>
      </trkpt>
      <trkpt lat="43.60561" lon="3.17587">
        <ele>244.805912</ele>
        <time>2025-10-23T11:04:11Z</time>
      </trkpt>
      <trkpt lat="43.60561" lon="3.17591">
        <ele>244.847439</ele>
        <time>2025-10-23T11:04:12Z</time>
      </trkpt>
      <trkpt lat="43.6056" lon="3.17596">
        <ele>244.892685</ele>
        <time>2025-10-23T11:04:13Z</time>
      </trkpt>
      <trkpt lat="43.6056" lon="3.17601">
        <ele>244.93881</ele>
        <time>2025-10-23T11:04:14Z</time>
      </trkpt>
      <trkpt lat="43.60559" lon="3.17606">
        <ele>244.987058</ele>
        <time>2025-10-23T11:04:15Z</time>
      </trkpt>
      <trkpt lat="43.60558" lon="3.17611">
        <ele>245.03689</ele>
        <time>2025-10-23T11:04:16Z</time>
      </trkpt>
      <trkpt lat="43.60556" lon="3.17616">
        <ele>245.086218</ele>
        <time>2025-10-23T11:04:17Z</time>
      </trkpt>
      <trkpt lat="43.60555" lon="3.17621">
        <ele>245.134258</ele>
        <time>2025-10-23T11:04:18Z</time>
      </trkpt>
      <trkpt lat="43.60554" lon="3.17626">
        <ele>245.186789</ele>
        <time>2025-10-23T11:04:19Z</time>
      </trkpt>
      <trkpt lat="43.60553" lon="3.17632">
        <ele>245.241711</ele>
        <time>2025-10-23T11:04:20Z</time>
      </trkpt>
      <trkpt lat="43.60552" lon="3.17638">
        <ele>245.295724</ele>
        <time>2025-10-23T11:04:21Z</time>
      </trkpt>
      <trkpt lat="43.60551" lon="3.17644">
        <ele>245.354021</ele>
        <time>2025-10-23T11:04:22Z</time>
      </trkpt>
      <trkpt lat="43.60551" lon="3.1765">
        <ele>245.413371</ele>
        <time>2025-10-23T11:04:23Z</time>
      </trkpt>
      <trkpt lat="43.60551" lon="3.17656">
        <ele>245.469573</ele>
        <time>2025-10-23T11:04:24Z</time>
      </trkpt>
      <trkpt lat="43.60551" lon="3.17662">
        <ele>245.524838</ele>
        <time>2025-10-23T11:04:25Z</time>
      </trkpt>
      <trkpt lat="43.60551" lon="3.17668">
        <ele>245.578232</ele>
        <time>2025-10-23T11:04:26Z</time>
      </trkpt>
      <trkpt lat="43.60551" lon="3.17673">
        <ele>245.629737</ele>
        <time>2025-10-23T11:04:27Z</time>
      </trkpt>
      <trkpt lat="43.60551" lon="3.17679">
        <ele>245.681241</ele>
        <time>2025-10-23T11:04:28Z</time>
      </trkpt>
      <trkpt lat="43.60551" lon="3.17684">
        <ele>245.732746</ele>
        <time>2025-10-23T11:04:29Z</time>
      </trkpt>
      <trkpt lat="43.60551" lon="3.1769">
        <ele>245.78706</ele>
        <time>2025-10-23T11:04:30Z</time>
      </trkpt>
      <trkpt lat="43.60551" lon="3.17696">
        <ele>245.842371</ele>
        <time>2025-10-23T11:04:31Z</time>
      </trkpt>
      <trkpt lat="43.6055" lon="3.17702">
        <ele>245.899626</ele>
        <time>2025-10-23T11:04:32Z</time>
      </trkpt>
      <trkpt lat="43.6055" lon="3.17708">
        <ele>245.957916</ele>
        <time>2025-10-23T11:04:33Z</time>
      </trkpt>
      <trkpt lat="43.6055" lon="3.17714">
        <ele>246.01697</ele>
        <time>2025-10-23T11:04:34Z</time>
      </trkpt>
      <trkpt lat="43.60549" lon="3.1772">
        <ele>246.074458</ele>
        <time>2025-10-23T11:04:35Z</time>
      </trkpt>
      <trkpt lat="43.60549" lon="3.17726">
        <ele>246.130251</ele>
        <time>2025-10-23T11:04:36Z</time>
      </trkpt>
      <trkpt lat="43.60548" lon="3.17733">
        <ele>246.188827</ele>
        <time>2025-10-23T11:04:37Z</time>
      </trkpt>
      <trkpt lat="43.60548" lon="3.17739">
        <ele>246.247117</ele>
        <time>2025-10-23T11:04:38Z</time>
      </trkpt>
      <trkpt lat="43.60548" lon="3.17745">
        <ele>246.305234</ele>
        <time>2025-10-23T11:04:39Z</time>
      </trkpt>
      <trkpt lat="43.60549" lon="3.17751">
        <ele>246.362366</ele>
        <time>2025-10-23T11:04:40Z</time>
      </trkpt>
      <trkpt lat="43.6055" lon="3.17757">
        <ele>246.415818</ele>
        <time>2025-10-23T11:04:41Z</time>
      </trkpt>
      <trkpt lat="43.60551" lon="3.17762">
        <ele>246.470155</ele>
        <time>2025-10-23T11:04:42Z</time>
      </trkpt>
      <trkpt lat="43.60552" lon="3.17767">
        <ele>246.521036</ele>
        <time>2025-10-23T11:04:43Z</time>
      </trkpt>
      <trkpt lat="43.60554" lon="3.17772">
        <ele>246.571443</ele>
        <time>2025-10-23T11:04:44Z</time>
      </trkpt>
      <trkpt lat="43.60556" lon="3.17776">
        <ele>246.620792</ele>
        <time>2025-10-23T11:04:45Z</time>
      </trkpt>
      <trkpt lat="43.60559" lon="3.1778">
        <ele>246.666457</ele>
        <time>2025-10-23T11:04:46Z</time>
      </trkpt>
      <trkpt lat="43.60561" lon="3.17784">
        <ele>246.712751</ele>
        <time>2025-10-23T11:04:47Z</time>
      </trkpt>
      <trkpt lat="43.60563" lon="3.17788">
        <ele>246.762196</ele>
        <time>2025-10-23T11:04:48Z</time>
      </trkpt>
      <trkpt lat="43.60565" lon="3.17793">
        <ele>246.809369</ele>
        <time>2025-10-23T11:04:49Z</time>
      </trkpt>
      <trkpt lat="43.60566" lon="3.17797">
        <ele>246.853519</ele>
        <time>2025-10-23T11:04:50Z</time>
      </trkpt>
      <trkpt lat="43.60567" lon="3.17802">
        <ele>246.897289</ele>
        <time>2025-10-23T11:04:51Z</time>
      </trkpt>
      <trkpt lat="43.60567" lon="3.17806">
        <ele>246.938816</ele>
        <time>2025-10-23T11:04:52Z</time>
      </trkpt>
      <trkpt lat="43.60567" lon="3.1781">
        <ele>246.979599</ele>
        <time>2025-10-23T11:04:53Z</time>
      </trkpt>
      <trkpt lat="43.60569" lon="3.17815">
        <ele>247.025854</ele>
        <time>2025-10-23T11:04:54Z</time>
      </trkpt>
      <trkpt lat="43.6057" lon="3.1782">
        <ele>247.118553</ele>
        <time>2025-10-23T11:04:55Z</time>
      </trkpt>
      <trkpt lat="43.60571" lon="3.17824">
        <ele>247.217721</ele>
        <time>2025-10-23T11:04:56Z</time>
      </trkpt>
      <trkpt lat="43.60573" lon="3.17829">
        <ele>247.31689</ele>
        <time>2025-10-23T11:04:57Z</time>
      </trkpt>
      <trkpt lat="43.60574" lon="3.17833">
        <ele>247.416317</ele>
        <time>2025-10-23T11:04:58Z</time>
      </trkpt>
      <trkpt lat="43.60576" lon="3.17838">
        <ele>247.516673</ele>
        <time>2025-10-23T11:04:59Z</time>
      </trkpt>
      <trkpt lat="43.60578" lon="3.17842">
        <ele>247.624274</ele>
        <time>2025-10-23T11:05:00Z</time>
      </trkpt>
      <trkpt lat="43.60579" lon="3.17847">
        <ele>247.731239</ele>
        <time>2025-10-23T11:05:01Z</time>
      </trkpt>
      <trkpt lat="43.6058" lon="3.17852">
        <ele>247.836685</ele>
        <time>2025-10-23T11:05:02Z</time>
      </trkpt>
      <trkpt lat="43.60582" lon="3.17858">
        <ele>247.951674</ele>
        <time>2025-10-23T11:05:03Z</time>
      </trkpt>
      <trkpt lat="43.60582" lon="3.17863">
        <ele>248.060653</ele>
        <time>2025-10-23T11:05:04Z</time>
      </trkpt>
      <trkpt lat="43.60582" lon="3.17869">
        <ele>248.175057</ele>
        <time>2025-10-23T11:05:05Z</time>
      </trkpt>
      <trkpt lat="43.60582" lon="3.17874">
        <ele>248.281298</ele>
        <time>2025-10-23T11:05:06Z</time>
      </trkpt>
      <trkpt lat="43.60581" lon="3.17879">
        <ele>248.374043</ele>
        <time>2025-10-23T11:05:07Z</time>
      </trkpt>
      <trkpt lat="43.60581" lon="3.17883">
        <ele>248.46052</ele>
        <time>2025-10-23T11:05:08Z</time>
      </trkpt>
      <trkpt lat="43.60581" lon="3.17887">
        <ele>248.548989</ele>
        <time>2025-10-23T11:05:09Z</time>
      </trkpt>
      <trkpt lat="43.6058" lon="3.17892">
        <ele>248.634195</ele>
        <time>2025-10-23T11:05:10Z</time>
      </trkpt>
      <trkpt lat="43.60579" lon="3.17896">
        <ele>248.71852</ele>
        <time>2025-10-23T11:05:11Z</time>
      </trkpt>
      <trkpt lat="43.60579" lon="3.179">
        <ele>248.803004</ele>
        <time>2025-10-23T11:05:12Z</time>
      </trkpt>
      <trkpt lat="43.60579" lon="3.17904">
        <ele>248.891474</ele>
        <time>2025-10-23T11:05:13Z</time>
      </trkpt>
      <trkpt lat="43.60579" lon="3.17909">
        <ele>248.98393</ele>
        <time>2025-10-23T11:05:14Z</time>
      </trkpt>
      <trkpt lat="43.60578" lon="3.17914">
        <ele>249.076387</ele>
        <time>2025-10-23T11:05:15Z</time>
      </trkpt>
      <trkpt lat="43.60578" lon="3.17918">
        <ele>249.174826</ele>
        <time>2025-10-23T11:05:16Z</time>
      </trkpt>
      <trkpt lat="43.60578" lon="3.17923">
        <ele>249.272915</ele>
        <time>2025-10-23T11:05:17Z</time>
      </trkpt>
      <trkpt lat="43.60578" lon="3.17928">
        <ele>249.369042</ele>
        <time>2025-10-23T11:05:18Z</time>
      </trkpt>
      <trkpt lat="43.60579" lon="3.17933">
        <ele>249.468101</ele>
        <time>2025-10-23T11:05:19Z</time>
      </trkpt>
      <trkpt lat="43.60579" lon="3.17938">
        <ele>249.568081</ele>
        <time>2025-10-23T11:05:20Z</time>
      </trkpt>
      <trkpt lat="43.6058" lon="3.17943">
        <ele>249.663617</ele>
        <time>2025-10-23T11:05:21Z</time>
      </trkpt>
      <trkpt lat="43.6058" lon="3.17947">
        <ele>249.761126</ele>
        <time>2025-10-23T11:05:22Z</time>
      </trkpt>
      <trkpt lat="43.6058" lon="3.17952">
        <ele>249.853375</ele>
        <time>2025-10-23T11:05:23Z</time>
      </trkpt>
      <trkpt lat="43.6058" lon="3.17957">
        <ele>249.95162</ele>
        <time>2025-10-23T11:05:24Z</time>
      </trkpt>
      <trkpt lat="43.60581" lon="3.17961">
        <ele>250.040392</ele>
        <time>2025-10-23T11:05:25Z</time>
      </trkpt>
      <trkpt lat="43.60581" lon="3.17966">
        <ele>250.136836</ele>
        <time>2025-10-23T11:05:26Z</time>
      </trkpt>
      <trkpt lat="43.60582" lon="3.17972">
        <ele>250.249787</ele>
        <time>2025-10-23T11:05:27Z</time>
      </trkpt>
      <trkpt lat="43.60582" lon="3.17977">
        <ele>250.348498</ele>
        <time>2025-10-23T11:05:28Z</time>
      </trkpt>
      <trkpt lat="43.60583" lon="3.17981">
        <ele>250.439634</ele>
        <time>2025-10-23T11:05:29Z</time>
      </trkpt>
      <trkpt lat="43.60583" lon="3.17986">
        <ele>250.533199</ele>
        <time>2025-10-23T11:05:30Z</time>
      </trkpt>
      <trkpt lat="43.60583" lon="3.1799">
        <ele>250.621323</ele>
        <time>2025-10-23T11:05:31Z</time>
      </trkpt>
      <trkpt lat="43.60583" lon="3.17995">
        <ele>250.726331</ele>
        <time>2025-10-23T11:05:32Z</time>
      </trkpt>
      <trkpt lat="43.60582" lon="3.18">
        <ele>250.828574</ele>
        <time>2025-10-23T11:05:33Z</time>
      </trkpt>
      <trkpt lat="43.60582" lon="3.18006">
        <ele>250.934706</ele>
        <time>2025-10-23T11:05:34Z</time>
      </trkpt>
      <trkpt lat="43.60582" lon="3.18011">
        <ele>251.030952</ele>
        <time>2025-10-23T11:05:35Z</time>
      </trkpt>
      <trkpt lat="43.60582" lon="3.18016">
        <ele>251.137945</ele>
        <time>2025-10-23T11:05:36Z</time>
      </trkpt>
      <trkpt lat="43.60581" lon="3.1802">
        <ele>251.229081</ele>
        <time>2025-10-23T11:05:37Z</time>
      </trkpt>
      <trkpt lat="43.60581" lon="3.18024">
        <ele>251.297918</ele>
        <time>2025-10-23T11:05:38Z</time>
      </trkpt>
      <trkpt lat="43.60578" lon="3.18028">
        <ele>251.402186</ele>
        <time>2025-10-23T11:05:39Z</time>
      </trkpt>
      <trkpt lat="43.60575" lon="3.18031">
        <ele>251.520485</ele>
        <time>2025-10-23T11:05:40Z</time>
      </trkpt>
      <trkpt lat="43.6057" lon="3.18034">
        <ele>251.651913</ele>
        <time>2025-10-23T11:05:41Z</time>
      </trkpt>
      <trkpt lat="43.60566" lon="3.18036">
        <ele>251.779972</ele>
        <time>2025-10-23T11:05:42Z</time>
      </trkpt>
      <trkpt lat="43.60561" lon="3.18038">
        <ele>251.909491</ele>
        <time>2025-10-23T11:05:43Z</time>
      </trkpt>
      <trkpt lat="43.60557" lon="3.18039">
        <ele>252.030954</ele>
        <time>2025-10-23T11:05:44Z</time>
      </trkpt>
      <trkpt lat="43.60553" lon="3.18041">
        <ele>252.127581</ele>
        <time>2025-10-23T11:05:45Z</time>
      </trkpt>
      <trkpt lat="43.60548" lon="3.18042">
        <ele>252.225295</ele>
        <time>2025-10-23T11:05:46Z</time>
      </trkpt>
      <trkpt lat="43.60544" lon="3.18044">
        <ele>252.321586</ele>
        <time>2025-10-23T11:05:47Z</time>
      </trkpt>
      <trkpt lat="43.6054" lon="3.18047">
        <ele>252.414862</ele>
        <time>2025-10-23T11:05:48Z</time>
      </trkpt>
      <trkpt lat="43.60537" lon="3.18051">
        <ele>252.50579</ele>
        <time>2025-10-23T11:05:49Z</time>
      </trkpt>
      <trkpt lat="43.60535" lon="3.18055">
        <ele>252.591441</ele>
        <time>2025-10-23T11:05:50Z</time>
      </trkpt>
      <trkpt lat="43.60533" lon="3.18059">
        <ele>252.66674</ele>
        <time>2025-10-23T11:05:51Z</time>
      </trkpt>
      <trkpt lat="43.60532" lon="3.18064">
        <ele>252.735254</ele>
        <time>2025-10-23T11:05:52Z</time>
      </trkpt>
      <trkpt lat="43.60533" lon="3.18068">
        <ele>252.810198</ele>
        <time>2025-10-23T11:05:53Z</time>
      </trkpt>
      <trkpt lat="43.60533" lon="3.18073">
        <ele>252.887991</ele>
        <time>2025-10-23T11:05:54Z</time>
      </trkpt>
      <trkpt lat="43.60534" lon="3.18078">
        <ele>252.966789</ele>
        <time>2025-10-23T11:05:55Z</time>
      </trkpt>
      <trkpt lat="43.60535" lon="3.18083">
        <ele>253.047722</ele>
        <time>2025-10-23T11:05:56Z</time>
      </trkpt>
      <trkpt lat="43.60537" lon="3.18088">
        <ele>253.13005</ele>
        <time>2025-10-23T11:05:57Z</time>
      </trkpt>
      <trkpt lat="43.60538" lon="3.18093">
        <ele>253.217194</ele>
        <time>2025-10-23T11:05:58Z</time>
      </trkpt>
      <trkpt lat="43.6054" lon="3.18098">
        <ele>253.304879</ele>
        <time>2025-10-23T11:05:59Z</time>
      </trkpt>
      <trkpt lat="43.60542" lon="3.18103">
        <ele>253.392971</ele>
        <time>2025-10-23T11:06:00Z</time>
      </trkpt>
      <trkpt lat="43.60544" lon="3.18107">
        <ele>253.47546</ele>
        <time>2025-10-23T11:06:01Z</time>
      </trkpt>
      <trkpt lat="43.60546" lon="3.18112">
        <ele>253.561464</ele>
        <time>2025-10-23T11:06:02Z</time>
      </trkpt>
      <trkpt lat="43.60548" lon="3.18117">
        <ele>253.643643</ele>
        <time>2025-10-23T11:06:03Z</time>
      </trkpt>
      <trkpt lat="43.60549" lon="3.18121">
        <ele>253.729945</ele>
        <time>2025-10-23T11:06:04Z</time>
      </trkpt>
      <trkpt lat="43.60551" lon="3.18126">
        <ele>253.814592</ele>
        <time>2025-10-23T11:06:05Z</time>
      </trkpt>
      <trkpt lat="43.60553" lon="3.18131">
        <ele>253.899239</ele>
        <time>2025-10-23T11:06:06Z</time>
      </trkpt>
      <trkpt lat="43.60555" lon="3.18135">
        <ele>253.97471</ele>
        <time>2025-10-23T11:06:07Z</time>
      </trkpt>
      <trkpt lat="43.60557" lon="3.18139">
        <ele>254.046802</ele>
        <time>2025-10-23T11:06:08Z</time>
      </trkpt>
      <trkpt lat="43.60559" lon="3.18143">
        <ele>254.126106</ele>
        <time>2025-10-23T11:06:09Z</time>
      </trkpt>
      <trkpt lat="43.60561" lon="3.18147">
        <ele>254.202376</ele>
        <time>2025-10-23T11:06:10Z</time>
      </trkpt>
      <trkpt lat="43.60563" lon="3.18151">
        <ele>254.279062</ele>
        <time>2025-10-23T11:06:11Z</time>
      </trkpt>
      <trkpt lat="43.60564" lon="3.18155">
        <ele>254.349674</ele>
        <time>2025-10-23T11:06:12Z</time>
      </trkpt>
      <trkpt lat="43.60565" lon="3.1816">
        <ele>254.423849</ele>
        <time>2025-10-23T11:06:13Z</time>
      </trkpt>
      <trkpt lat="43.60566" lon="3.18164">
        <ele>254.491351</ele>
        <time>2025-10-23T11:06:14Z</time>
      </trkpt>
      <trkpt lat="43.60567" lon="3.18167">
        <ele>254.551168</ele>
        <time>2025-10-23T11:06:15Z</time>
      </trkpt>
      <trkpt lat="43.60568" lon="3.18171">
        <ele>254.616636</ele>
        <time>2025-10-23T11:06:16Z</time>
      </trkpt>
      <trkpt lat="43.60568" lon="3.18175">
        <ele>254.678494</ele>
        <time>2025-10-23T11:06:17Z</time>
      </trkpt>
      <trkpt lat="43.60569" lon="3.1818">
        <ele>254.75068</ele>
        <time>2025-10-23T11:06:18Z</time>
      </trkpt>
      <trkpt lat="43.6057" lon="3.18184">
        <ele>254.822626</ele>
        <time>2025-10-23T11:06:19Z</time>
      </trkpt>
      <trkpt lat="43.6057" lon="3.18189">
        <ele>254.896806</ele>
        <time>2025-10-23T11:06:20Z</time>
      </trkpt>
      <trkpt lat="43.6057" lon="3.18193">
        <ele>254.967798</ele>
        <time>2025-10-23T11:06:21Z</time>
      </trkpt>
      <trkpt lat="43.6057" lon="3.18198">
        <ele>255.051667</ele>
        <time>2025-10-23T11:06:22Z</time>
      </trkpt>
      <trkpt lat="43.60571" lon="3.18204">
        <ele>255.138872</ele>
        <time>2025-10-23T11:06:23Z</time>
      </trkpt>
      <trkpt lat="43.60571" lon="3.1821">
        <ele>255.230606</ele>
        <time>2025-10-23T11:06:24Z</time>
      </trkpt>
      <trkpt lat="43.60571" lon="3.18216">
        <ele>255.326865</ele>
        <time>2025-10-23T11:06:25Z</time>
      </trkpt>
      <trkpt lat="43.60572" lon="3.18221">
        <ele>255.414315</ele>
        <time>2025-10-23T11:06:26Z</time>
      </trkpt>
      <trkpt lat="43.60572" lon="3.18227">
        <ele>255.498183</ele>
        <time>2025-10-23T11:06:27Z</time>
      </trkpt>
      <trkpt lat="43.60571" lon="3.18232">
        <ele>255.584728</ele>
        <time>2025-10-23T11:06:28Z</time>
      </trkpt>
      <trkpt lat="43.60571" lon="3.18238">
        <ele>255.678214</ele>
        <time>2025-10-23T11:06:29Z</time>
      </trkpt>
      <trkpt lat="43.60571" lon="3.18244">
        <ele>255.771319</ele>
        <time>2025-10-23T11:06:30Z</time>
      </trkpt>
      <trkpt lat="43.6057" lon="3.18249">
        <ele>255.860972</ele>
        <time>2025-10-23T11:06:31Z</time>
      </trkpt>
      <trkpt lat="43.6057" lon="3.18255">
        <ele>255.956069</ele>
        <time>2025-10-23T11:06:32Z</time>
      </trkpt>
      <trkpt lat="43.60569" lon="3.1826">
        <ele>256.063311</ele>
        <time>2025-10-23T11:06:33Z</time>
      </trkpt>
      <trkpt lat="43.60568" lon="3.18265">
        <ele>256.16618</ele>
        <time>2025-10-23T11:06:34Z</time>
      </trkpt>
      <trkpt lat="43.60567" lon="3.1827">
        <ele>256.268628</ele>
        <time>2025-10-23T11:06:35Z</time>
      </trkpt>
      <trkpt lat="43.60567" lon="3.18276">
        <ele>256.386883</ele>
        <time>2025-10-23T11:06:36Z</time>
      </trkpt>
      <trkpt lat="43.60567" lon="3.18281">
        <ele>256.499077</ele>
        <time>2025-10-23T11:06:37Z</time>
      </trkpt>
      <trkpt lat="43.60566" lon="3.18287">
        <ele>256.605953</ele>
        <time>2025-10-23T11:06:38Z</time>
      </trkpt>
      <trkpt lat="43.60566" lon="3.18292">
        <ele>256.714436</ele>
        <time>2025-10-23T11:06:39Z</time>
      </trkpt>
      <trkpt lat="43.60565" lon="3.18297">
        <ele>256.812504</ele>
        <time>2025-10-23T11:06:40Z</time>
      </trkpt>
      <trkpt lat="43.60565" lon="3.18301">
        <ele>256.908924</ele>
        <time>2025-10-23T11:06:41Z</time>
      </trkpt>
      <trkpt lat="43.60563" lon="3.18306">
        <ele>257.011993</ele>
        <time>2025-10-23T11:06:42Z</time>
      </trkpt>
      <trkpt lat="43.60562" lon="3.18311">
        <ele>257.116118</ele>
        <time>2025-10-23T11:06:43Z</time>
      </trkpt>
      <trkpt lat="43.60562" lon="3.18316">
        <ele>257.218565</ele>
        <time>2025-10-23T11:06:44Z</time>
      </trkpt>
      <trkpt lat="43.60561" lon="3.18321">
        <ele>257.317947</ele>
        <time>2025-10-23T11:06:45Z</time>
      </trkpt>
      <trkpt lat="43.6056" lon="3.18326">
        <ele>257.416622</ele>
        <time>2025-10-23T11:06:46Z</time>
      </trkpt>
      <trkpt lat="43.60559" lon="3.18331">
        <ele>257.522687</ele>
        <time>2025-10-23T11:06:47Z</time>
      </trkpt>
      <trkpt lat="43.60558" lon="3.18335">
        <ele>257.625756</ele>
        <time>2025-10-23T11:06:48Z</time>
      </trkpt>
      <trkpt lat="43.60557" lon="3.1834">
        <ele>257.717424</ele>
        <time>2025-10-23T11:06:49Z</time>
      </trkpt>
      <trkpt lat="43.60556" lon="3.18344">
        <ele>257.813844</ele>
        <time>2025-10-23T11:06:50Z</time>
      </trkpt>
      <trkpt lat="43.60556" lon="3.18349">
        <ele>257.902726</ele>
        <time>2025-10-23T11:06:51Z</time>
      </trkpt>
      <trkpt lat="43.60555" lon="3.18353">
        <ele>257.995598</ele>
        <time>2025-10-23T11:06:52Z</time>
      </trkpt>
      <trkpt lat="43.60554" lon="3.18358">
        <ele>258.105484</ele>
        <time>2025-10-23T11:06:53Z</time>
      </trkpt>
      <trkpt lat="43.60554" lon="3.18364">
        <ele>258.212837</ele>
        <time>2025-10-23T11:06:54Z</time>
      </trkpt>
      <trkpt lat="43.60553" lon="3.18369">
        <ele>258.313275</ele>
        <time>2025-10-23T11:06:55Z</time>
      </trkpt>
      <trkpt lat="43.60553" lon="3.18373">
        <ele>258.404998</ele>
        <time>2025-10-23T11:06:56Z</time>
      </trkpt>
      <trkpt lat="43.60553" lon="3.18378">
        <ele>258.5071</ele>
        <time>2025-10-23T11:06:57Z</time>
      </trkpt>
      <trkpt lat="43.60552" lon="3.18383">
        <ele>258.60266</ele>
        <time>2025-10-23T11:06:58Z</time>
      </trkpt>
      <trkpt lat="43.60552" lon="3.18387">
        <ele>258.684283</ele>
        <time>2025-10-23T11:06:59Z</time>
      </trkpt>
      <trkpt lat="43.60552" lon="3.1839">
        <ele>258.757834</ele>
        <time>2025-10-23T11:07:00Z</time>
      </trkpt>
      <trkpt lat="43.60552" lon="3.18394">
        <ele>258.834963</ele>
        <time>2025-10-23T11:07:01Z</time>
      </trkpt>
      <trkpt lat="43.60552" lon="3.18397">
        <ele>258.900455</ele>
        <time>2025-10-23T11:07:02Z</time>
      </trkpt>
      <trkpt lat="43.60552" lon="3.18401">
        <ele>258.965405</ele>
        <time>2025-10-23T11:07:03Z</time>
      </trkpt>
      <trkpt lat="43.60552" lon="3.18404">
        <ele>259.030597</ele>
        <time>2025-10-23T11:07:04Z</time>
      </trkpt>
      <trkpt lat="43.60551" lon="3.18408">
        <ele>259.108537</ele>
        <time>2025-10-23T11:07:05Z</time>
      </trkpt>
      <trkpt lat="43.60551" lon="3.18411">
        <ele>259.188122</ele>
        <time>2025-10-23T11:07:06Z</time>
      </trkpt>
      <trkpt lat="43.60551" lon="3.18415">
        <ele>259.26733</ele>
        <time>2025-10-23T11:07:07Z</time>
      </trkpt>
      <trkpt lat="43.60551" lon="3.18419">
        <ele>259.352577</ele>
        <time>2025-10-23T11:07:08Z</time>
      </trkpt>
      <trkpt lat="43.60551" lon="3.18424">
        <ele>259.435842</ele>
        <time>2025-10-23T11:07:09Z</time>
      </trkpt>
      <trkpt lat="43.6055" lon="3.18428">
        <ele>259.528714</ele>
        <time>2025-10-23T11:07:10Z</time>
      </trkpt>
      <trkpt lat="43.60549" lon="3.18433">
        <ele>259.62347</ele>
        <time>2025-10-23T11:07:11Z</time>
      </trkpt>
      <trkpt lat="43.60548" lon="3.18437">
        <ele>259.716034</ele>
        <time>2025-10-23T11:07:12Z</time>
      </trkpt>
      <trkpt lat="43.60547" lon="3.18441">
        <ele>259.802991</ele>
        <time>2025-10-23T11:07:13Z</time>
      </trkpt>
      <trkpt lat="43.60546" lon="3.18445">
        <ele>259.887219</ele>
        <time>2025-10-23T11:07:14Z</time>
      </trkpt>
      <trkpt lat="43.60545" lon="3.18449">
        <ele>259.971447</ele>
        <time>2025-10-23T11:07:15Z</time>
      </trkpt>
      <trkpt lat="43.60545" lon="3.18453">
        <ele>260.051769</ele>
        <time>2025-10-23T11:07:16Z</time>
      </trkpt>
      <trkpt lat="43.60543" lon="3.18457">
        <ele>260.137778</ele>
        <time>2025-10-23T11:07:17Z</time>
      </trkpt>
      <trkpt lat="43.60542" lon="3.18461">
        <ele>260.23283</ele>
        <time>2025-10-23T11:07:18Z</time>
      </trkpt>
      <trkpt lat="43.60541" lon="3.18465">
        <ele>260.321182</ele>
        <time>2025-10-23T11:07:19Z</time>
      </trkpt>
      <trkpt lat="43.60539" lon="3.18469">
        <ele>260.417077</ele>
        <time>2025-10-23T11:07:20Z</time>
      </trkpt>
      <trkpt lat="43.60537" lon="3.18473">
        <ele>260.517417</ele>
        <time>2025-10-23T11:07:21Z</time>
      </trkpt>
      <trkpt lat="43.60535" lon="3.18477">
        <ele>260.611556</ele>
        <time>2025-10-23T11:07:22Z</time>
      </trkpt>
      <trkpt lat="43.60533" lon="3.18481">
        <ele>260.705427</ele>
        <time>2025-10-23T11:07:23Z</time>
      </trkpt>
      <trkpt lat="43.60532" lon="3.18484">
        <ele>260.778138</ele>
        <time>2025-10-23T11:07:24Z</time>
      </trkpt>
      <trkpt lat="43.6053" lon="3.18487">
        <ele>260.861995</ele>
        <time>2025-10-23T11:07:25Z</time>
      </trkpt>
      <trkpt lat="43.60528" lon="3.18491">
        <ele>260.960641</ele>
        <time>2025-10-23T11:07:26Z</time>
      </trkpt>
      <trkpt lat="43.60525" lon="3.18495">
        <ele>261.042318</ele>
        <time>2025-10-23T11:07:27Z</time>
      </trkpt>
      <trkpt lat="43.60522" lon="3.18498">
        <ele>261.136112</ele>
        <time>2025-10-23T11:07:28Z</time>
      </trkpt>
      <trkpt lat="43.60518" lon="3.18502">
        <ele>261.237082</ele>
        <time>2025-10-23T11:07:29Z</time>
      </trkpt>
      <trkpt lat="43.60514" lon="3.18505">
        <ele>261.334378</ele>
        <time>2025-10-23T11:07:30Z</time>
      </trkpt>
      <trkpt lat="43.60511" lon="3.18508">
        <ele>261.425264</ele>
        <time>2025-10-23T11:07:31Z</time>
      </trkpt>
      <trkpt lat="43.60507" lon="3.1851">
        <ele>261.508807</ele>
        <time>2025-10-23T11:07:32Z</time>
      </trkpt>
      <trkpt lat="43.60504" lon="3.18512">
        <ele>261.590572</ele>
        <time>2025-10-23T11:07:33Z</time>
      </trkpt>
      <trkpt lat="43.605" lon="3.18513">
        <ele>261.66921</ele>
        <time>2025-10-23T11:07:34Z</time>
      </trkpt>
      <trkpt lat="43.60497" lon="3.18515">
        <ele>261.747847</ele>
        <time>2025-10-23T11:07:35Z</time>
      </trkpt>
      <trkpt lat="43.60494" lon="3.18516">
        <ele>261.825988</ele>
        <time>2025-10-23T11:07:36Z</time>
      </trkpt>
      <trkpt lat="43.6049" lon="3.18518">
        <ele>261.900494</ele>
        <time>2025-10-23T11:07:37Z</time>
      </trkpt>
      <trkpt lat="43.60487" lon="3.18519">
        <ele>261.971421</ele>
        <time>2025-10-23T11:07:38Z</time>
      </trkpt>
      <trkpt lat="43.60484" lon="3.18521">
        <ele>262.046482</ele>
        <time>2025-10-23T11:07:39Z</time>
      </trkpt>
      <trkpt lat="43.60481" lon="3.18523">
        <ele>262.117447</ele>
        <time>2025-10-23T11:07:40Z</time>
      </trkpt>
      <trkpt lat="43.60478" lon="3.18525">
        <ele>262.188412</ele>
        <time>2025-10-23T11:07:41Z</time>
      </trkpt>
      <trkpt lat="43.60476" lon="3.18527">
        <ele>262.257863</ele>
        <time>2025-10-23T11:07:42Z</time>
      </trkpt>
      <trkpt lat="43.60472" lon="3.18529">
        <ele>262.333455</ele>
        <time>2025-10-23T11:07:43Z</time>
      </trkpt>
      <trkpt lat="43.60469" lon="3.18531">
        <ele>262.406385</ele>
        <time>2025-10-23T11:07:44Z</time>
      </trkpt>
      <trkpt lat="43.60467" lon="3.18534">
        <ele>262.478531</ele>
        <time>2025-10-23T11:07:45Z</time>
      </trkpt>
      <trkpt lat="43.60464" lon="3.18536">
        <ele>262.551511</ele>
        <time>2025-10-23T11:07:46Z</time>
      </trkpt>
      <trkpt lat="43.60462" lon="3.18539">
        <ele>262.61221</ele>
        <time>2025-10-23T11:07:47Z</time>
      </trkpt>
      <trkpt lat="43.6046" lon="3.18542">
        <ele>262.68482</ele>
        <time>2025-10-23T11:07:48Z</time>
      </trkpt>
      <trkpt lat="43.60458" lon="3.18545">
        <ele>262.750639</ele>
        <time>2025-10-23T11:07:49Z</time>
      </trkpt>
      <trkpt lat="43.60456" lon="3.18548">
        <ele>262.808565</ele>
        <time>2025-10-23T11:07:50Z</time>
      </trkpt>
      <trkpt lat="43.60454" lon="3.18551">
        <ele>262.875333</ele>
        <time>2025-10-23T11:07:51Z</time>
      </trkpt>
      <trkpt lat="43.60452" lon="3.18555">
        <ele>262.944687</ele>
        <time>2025-10-23T11:07:52Z</time>
      </trkpt>
      <trkpt lat="43.60451" lon="3.18559">
        <ele>263.015497</ele>
        <time>2025-10-23T11:07:53Z</time>
      </trkpt>
      <trkpt lat="43.60449" lon="3.18563">
        <ele>263.096396</ele>
        <time>2025-10-23T11:07:54Z</time>
      </trkpt>
      <trkpt lat="43.60448" lon="3.18568">
        <ele>263.176025</ele>
        <time>2025-10-23T11:07:55Z</time>
      </trkpt>
      <trkpt lat="43.60448" lon="3.18573">
        <ele>263.254806</ele>
        <time>2025-10-23T11:07:56Z</time>
      </trkpt>
      <trkpt lat="43.60447" lon="3.18578">
        <ele>263.338567</ele>
        <time>2025-10-23T11:07:57Z</time>
      </trkpt>
      <trkpt lat="43.60446" lon="3.18583">
        <ele>263.420856</ele>
        <time>2025-10-23T11:07:58Z</time>
      </trkpt>
      <trkpt lat="43.60446" lon="3.18588">
        <ele>263.498534</ele>
        <time>2025-10-23T11:07:59Z</time>
      </trkpt>
      <trkpt lat="43.60445" lon="3.18593">
        <ele>263.579857</ele>
        <time>2025-10-23T11:08:00Z</time>
      </trkpt>
      <trkpt lat="43.60445" lon="3.18598">
        <ele>263.657535</ele>
        <time>2025-10-23T11:08:01Z</time>
      </trkpt>
      <trkpt lat="43.60445" lon="3.18603">
        <ele>263.73683</ele>
        <time>2025-10-23T11:08:02Z</time>
      </trkpt>
      <trkpt lat="43.60445" lon="3.18608">
        <ele>263.809785</ele>
        <time>2025-10-23T11:08:03Z</time>
      </trkpt>
      <trkpt lat="43.60446" lon="3.18613">
        <ele>263.897414</ele>
        <time>2025-10-23T11:08:04Z</time>
      </trkpt>
      <trkpt lat="43.60446" lon="3.18619">
        <ele>263.982455</ele>
        <time>2025-10-23T11:08:05Z</time>
      </trkpt>
      <trkpt lat="43.60446" lon="3.18624">
        <ele>264.065613</ele>
        <time>2025-10-23T11:08:06Z</time>
      </trkpt>
      <trkpt lat="43.60445" lon="3.1863">
        <ele>264.156212</ele>
        <time>2025-10-23T11:08:07Z</time>
      </trkpt>
      <trkpt lat="43.60445" lon="3.18635">
        <ele>264.238763</ele>
        <time>2025-10-23T11:08:08Z</time>
      </trkpt>
      <trkpt lat="43.60445" lon="3.1864">
        <ele>264.325981</ele>
        <time>2025-10-23T11:08:09Z</time>
      </trkpt>
      <trkpt lat="43.60445" lon="3.18646">
        <ele>264.411698</ele>
        <time>2025-10-23T11:08:10Z</time>
      </trkpt>
      <trkpt lat="43.60445" lon="3.18651">
        <ele>264.502165</ele>
        <time>2025-10-23T11:08:11Z</time>
      </trkpt>
      <trkpt lat="43.60445" lon="3.18657">
        <ele>264.594137</ele>
        <time>2025-10-23T11:08:12Z</time>
      </trkpt>
      <trkpt lat="43.60445" lon="3.18663">
        <ele>264.684524</ele>
        <time>2025-10-23T11:08:13Z</time>
      </trkpt>
      <trkpt lat="43.60445" lon="3.18669">
        <ele>264.779666</ele>
        <time>2025-10-23T11:08:14Z</time>
      </trkpt>
      <trkpt lat="43.60445" lon="3.18675">
        <ele>264.881337</ele>
        <time>2025-10-23T11:08:15Z</time>
      </trkpt>
      <trkpt lat="43.60445" lon="3.18682">
        <ele>264.942336</ele>
        <time>2025-10-23T11:08:16Z</time>
      </trkpt>
      <trkpt lat="43.60445" lon="3.18687">
        <ele>264.985449</ele>
        <time>2025-10-23T11:08:17Z</time>
      </trkpt>
      <trkpt lat="43.60446" lon="3.18691">
        <ele>265.021096</ele>
        <time>2025-10-23T11:08:18Z</time>
      </trkpt>
      <trkpt lat="43.60447" lon="3.18694">
        <ele>265.049055</ele>
        <time>2025-10-23T11:08:19Z</time>
      </trkpt>
      <trkpt lat="43.60449" lon="3.18695">
        <ele>265.069468</ele>
        <time>2025-10-23T11:08:20Z</time>
      </trkpt>
      <trkpt lat="43.6045" lon="3.18696">
        <ele>265.078548</ele>
        <time>2025-10-23T11:08:21Z</time>
      </trkpt>
      <trkpt lat="43.6045" lon="3.18696">
        <ele>265.08222</ele>
        <time>2025-10-23T11:08:22Z</time>
      </trkpt>
      <trkpt lat="43.6045" lon="3.18696">
        <ele>265.084425</ele>
        <time>2025-10-23T11:08:23Z</time>
      </trkpt>
      <trkpt lat="43.6045" lon="3.18696">
        <ele>265.086769</ele>
        <time>2025-10-23T11:08:24Z</time>
      </trkpt>
      <trkpt lat="43.6045" lon="3.18696">
        <ele>265.087567</ele>
        <time>2025-10-23T11:08:25Z</time>
      </trkpt>
      <trkpt lat="43.6045" lon="3.18696">
        <ele>265.088928</ele>
        <time>2025-10-23T11:08:26Z</time>
      </trkpt>
      <trkpt lat="43.6045" lon="3.18696">
        <ele>265.088928</ele>
        <time>2025-10-23T11:08:27Z</time>
      </trkpt>
      <trkpt lat="43.6045" lon="3.18696">
        <ele>265.088928</ele>
        <time>2025-10-23T11:08:28Z</time>
      </trkpt>
      <trkpt lat="43.6045" lon="3.18696">
        <ele>265.090289</ele>
        <time>2025-10-23T11:08:29Z</time>
      </trkpt>
      <trkpt lat="43.6045" lon="3.18696">
        <ele>265.090289</ele>
        <time>2025-10-23T11:08:30Z</time>
      </trkpt>
      <trkpt lat="43.6045" lon="3.18696">
        <ele>265.091087</ele>
        <time>2025-10-23T11:08:31Z</time>
      </trkpt>
      <trkpt lat="43.6045" lon="3.18696">
        <ele>265.091885</ele>
        <time>2025-10-23T11:08:32Z</time>
      </trkpt>
      <trkpt lat="43.6045" lon="3.18696">
        <ele>265.091885</ele>
        <time>2025-10-23T11:08:33Z</time>
      </trkpt>
      <trkpt lat="43.6045" lon="3.18696">
        <ele>265.091885</ele>
        <time>2025-10-23T11:08:34Z</time>
      </trkpt>
      <trkpt lat="43.6045" lon="3.18696">
        <ele>265.091885</ele>
        <time>2025-10-23T11:08:35Z</time>
      </trkpt>
      <trkpt lat="43.6045" lon="3.18696">
        <ele>265.091885</ele>
        <time>2025-10-23T11:08:36Z</time>
      </trkpt>
      <trkpt lat="43.6045" lon="3.18696">
        <ele>265.091885</ele>
        <time>2025-10-23T11:08:37Z</time>
      </trkpt>
      <trkpt lat="43.6045" lon="3.18696">
        <ele>265.092987</ele>
        <time>2025-10-23T11:08:38Z</time>
      </trkpt>
      <trkpt lat="43.6045" lon="3.18696">
        <ele>265.092987</ele>
        <time>2025-10-23T11:08:39Z</time>
      </trkpt>
      <trkpt lat="43.6045" lon="3.18696">
        <ele>265.092987</ele>
        <time>2025-10-23T11:08:40Z</time>
      </trkpt>
      <trkpt lat="43.6045" lon="3.18696">
        <ele>265.09409</ele>
        <time>2025-10-23T11:08:41Z</time>
      </trkpt>
      <trkpt lat="43.6045" lon="3.18696">
        <ele>265.094888</ele>
        <time>2025-10-23T11:08:42Z</time>
      </trkpt>
      <trkpt lat="43.6045" lon="3.18696">
        <ele>265.094888</ele>
        <time>2025-10-23T11:08:43Z</time>
      </trkpt>
      <trkpt lat="43.6045" lon="3.18696">
        <ele>265.096249</ele>
        <time>2025-10-23T11:08:44Z</time>
      </trkpt>
      <trkpt lat="43.6045" lon="3.18696">
        <ele>265.096249</ele>
        <time>2025-10-23T11:08:45Z</time>
      </trkpt>
      <trkpt lat="43.6045" lon="3.18696">
        <ele>265.097047</ele>
        <time>2025-10-23T11:08:46Z</time>
      </trkpt>
      <trkpt lat="43.6045" lon="3.18696">
        <ele>265.097047</ele>
        <time>2025-10-23T11:08:47Z</time>
      </trkpt>
      <trkpt lat="43.6045" lon="3.18696">
        <ele>265.098408</ele>
        <time>2025-10-23T11:08:48Z</time>
      </trkpt>
      <trkpt lat="43.6045" lon="3.18696">
        <ele>265.099206</ele>
        <time>2025-10-23T11:08:49Z</time>
      </trkpt>
      <trkpt lat="43.6045" lon="3.18696">
        <ele>265.100308</ele>
        <time>2025-10-23T11:08:50Z</time>
      </trkpt>
      <trkpt lat="43.6045" lon="3.18696">
        <ele>265.10141</ele>
        <time>2025-10-23T11:08:51Z</time>
      </trkpt>
      <trkpt lat="43.6045" lon="3.18696">
        <ele>265.10141</ele>
        <time>2025-10-23T11:08:52Z</time>
      </trkpt>
      <trkpt lat="43.6045" lon="3.18696">
        <ele>265.102512</ele>
        <time>2025-10-23T11:08:53Z</time>
      </trkpt>
      <trkpt lat="43.6045" lon="3.18696">
        <ele>265.102512</ele>
        <time>2025-10-23T11:08:54Z</time>
      </trkpt>
      <trkpt lat="43.6045" lon="3.18696">
        <ele>265.102512</ele>
        <time>2025-10-23T11:08:55Z</time>
      </trkpt>
      <trkpt lat="43.6045" lon="3.18696">
        <ele>265.103615</ele>
        <time>2025-10-23T11:08:56Z</time>
      </trkpt>
      <trkpt lat="43.6045" lon="3.18696">
        <ele>265.104975</ele>
        <time>2025-10-23T11:08:57Z</time>
      </trkpt>
      <trkpt lat="43.6045" lon="3.18696">
        <ele>265.105773</ele>
        <time>2025-10-23T11:08:58Z</time>
      </trkpt>
      <trkpt lat="43.6045" lon="3.18696">
        <ele>265.105773</ele>
        <time>2025-10-23T11:09:00Z</time>
      </trkpt>
      <trkpt lat="43.6045" lon="3.18696">
        <ele>265.106572</ele>
        <time>2025-10-23T11:09:01Z</time>
      </trkpt>
      <trkpt lat="43.6045" lon="3.18696">
        <ele>265.10737</ele>
        <time>2025-10-23T11:09:02Z</time>
      </trkpt>
      <trkpt lat="43.6045" lon="3.18696">
        <ele>265.10737</ele>
        <time>2025-10-23T11:09:03Z</time>
      </trkpt>
      <trkpt lat="43.60435" lon="3.18753">
        <ele>265.592543</ele>
        <time>2025-10-23T11:09:34Z</time>
      </trkpt>
      <trkpt lat="43.60434" lon="3.18759">
        <ele>265.634279</ele>
        <time>2025-10-23T11:09:35Z</time>
      </trkpt>
      <trkpt lat="43.60434" lon="3.18764">
        <ele>265.676493</ele>
        <time>2025-10-23T11:09:36Z</time>
      </trkpt>
      <trkpt lat="43.60433" lon="3.18769">
        <ele>265.719152</ele>
        <time>2025-10-23T11:09:37Z</time>
      </trkpt>
      <trkpt lat="43.60433" lon="3.18774">
        <ele>265.762755</ele>
        <time>2025-10-23T11:09:38Z</time>
      </trkpt>
      <trkpt lat="43.60432" lon="3.1878">
        <ele>265.808312</ele>
        <time>2025-10-23T11:09:39Z</time>
      </trkpt>
      <trkpt lat="43.60431" lon="3.18786">
        <ele>265.855243</ele>
        <time>2025-10-23T11:09:40Z</time>
      </trkpt>
      <trkpt lat="43.6043" lon="3.18792">
        <ele>265.903748</ele>
        <time>2025-10-23T11:09:41Z</time>
      </trkpt>
      <trkpt lat="43.6043" lon="3.18798">
        <ele>265.951872</ele>
        <time>2025-10-23T11:09:42Z</time>
      </trkpt>
      <trkpt lat="43.60429" lon="3.18804">
        <ele>265.999283</ele>
        <time>2025-10-23T11:09:43Z</time>
      </trkpt>
      <trkpt lat="43.60429" lon="3.18809">
        <ele>266.041641</ele>
        <time>2025-10-23T11:09:44Z</time>
      </trkpt>
      <trkpt lat="43.60429" lon="3.18814">
        <ele>266.084755</ele>
        <time>2025-10-23T11:09:45Z</time>
      </trkpt>
      <trkpt lat="43.60428" lon="3.1882">
        <ele>266.128205</ele>
        <time>2025-10-23T11:09:46Z</time>
      </trkpt>
      <trkpt lat="43.60428" lon="3.18825">
        <ele>266.171431</ele>
        <time>2025-10-23T11:09:47Z</time>
      </trkpt>
      <trkpt lat="43.60428" lon="3.1883">
        <ele>266.213746</ele>
        <time>2025-10-23T11:09:48Z</time>
      </trkpt>
      <trkpt lat="43.60428" lon="3.18836">
        <ele>266.256177</ele>
        <time>2025-10-23T11:09:49Z</time>
      </trkpt>
      <trkpt lat="43.60427" lon="3.18841">
        <ele>266.300198</ele>
        <time>2025-10-23T11:09:50Z</time>
      </trkpt>
      <trkpt lat="43.60427" lon="3.18847">
        <ele>266.346025</ele>
        <time>2025-10-23T11:09:51Z</time>
      </trkpt>
      <trkpt lat="43.60426" lon="3.18853">
        <ele>266.39453</ele>
        <time>2025-10-23T11:09:52Z</time>
      </trkpt>
      <trkpt lat="43.60426" lon="3.18859">
        <ele>266.442734</ele>
        <time>2025-10-23T11:09:53Z</time>
      </trkpt>
      <trkpt lat="43.60425" lon="3.18865">
        <ele>266.492659</ele>
        <time>2025-10-23T11:09:54Z</time>
      </trkpt>
      <trkpt lat="43.60424" lon="3.18871">
        <ele>266.539277</ele>
        <time>2025-10-23T11:09:55Z</time>
      </trkpt>
      <trkpt lat="43.60424" lon="3.18877">
        <ele>266.585104</ele>
        <time>2025-10-23T11:09:56Z</time>
      </trkpt>
      <trkpt lat="43.60423" lon="3.18883">
        <ele>266.632515</ele>
        <time>2025-10-23T11:09:57Z</time>
      </trkpt>
      <trkpt lat="43.60423" lon="3.18889">
        <ele>266.680454</ele>
        <time>2025-10-23T11:09:58Z</time>
      </trkpt>
      <trkpt lat="43.60423" lon="3.18894">
        <ele>266.725149</ele>
        <time>2025-10-23T11:09:59Z</time>
      </trkpt>
      <trkpt lat="43.60423" lon="3.18899">
        <ele>266.766652</ele>
        <time>2025-10-23T11:10:00Z</time>
      </trkpt>
      <trkpt lat="43.60423" lon="3.18904">
        <ele>266.807491</ele>
        <time>2025-10-23T11:10:01Z</time>
      </trkpt>
      <trkpt lat="43.60422" lon="3.18909">
        <ele>266.844797</ele>
        <time>2025-10-23T11:10:02Z</time>
      </trkpt>
      <trkpt lat="43.60422" lon="3.18914">
        <ele>266.883107</ele>
        <time>2025-10-23T11:10:03Z</time>
      </trkpt>
      <trkpt lat="43.60422" lon="3.18919">
        <ele>266.999308</ele>
        <time>2025-10-23T11:10:04Z</time>
      </trkpt>
      <trkpt lat="43.60422" lon="3.18924">
        <ele>267.130794</ele>
        <time>2025-10-23T11:10:05Z</time>
      </trkpt>
      <trkpt lat="43.60421" lon="3.18929">
        <ele>267.257198</ele>
        <time>2025-10-23T11:10:06Z</time>
      </trkpt>
      <trkpt lat="43.6042" lon="3.18934">
        <ele>267.375245</ele>
        <time>2025-10-23T11:10:07Z</time>
      </trkpt>
      <trkpt lat="43.60419" lon="3.18939">
        <ele>267.489123</ele>
        <time>2025-10-23T11:10:08Z</time>
      </trkpt>
      <trkpt lat="43.60418" lon="3.18943">
        <ele>267.599336</ele>
        <time>2025-10-23T11:10:09Z</time>
      </trkpt>
      <trkpt lat="43.60417" lon="3.18948">
        <ele>267.70955</ele>
        <time>2025-10-23T11:10:10Z</time>
      </trkpt>
      <trkpt lat="43.60416" lon="3.18952">
        <ele>267.811808</ele>
        <time>2025-10-23T11:10:11Z</time>
      </trkpt>
      <trkpt lat="43.60415" lon="3.18956">
        <ele>267.920142</ele>
        <time>2025-10-23T11:10:12Z</time>
      </trkpt>
      <trkpt lat="43.60413" lon="3.18959">
        <ele>268.021483</ele>
        <time>2025-10-23T11:10:13Z</time>
      </trkpt>
      <trkpt lat="43.60412" lon="3.18963">
        <ele>268.119142</ele>
        <time>2025-10-23T11:10:14Z</time>
      </trkpt>
      <trkpt lat="43.60411" lon="3.18967">
        <ele>268.220484</ele>
        <time>2025-10-23T11:10:15Z</time>
      </trkpt>
      <trkpt lat="43.60409" lon="3.1897">
        <ele>268.31923</ele>
        <time>2025-10-23T11:10:16Z</time>
      </trkpt>
      <trkpt lat="43.60407" lon="3.18973">
        <ele>268.414081</ele>
        <time>2025-10-23T11:10:17Z</time>
      </trkpt>
      <trkpt lat="43.60405" lon="3.18976">
        <ele>268.509045</ele>
        <time>2025-10-23T11:10:18Z</time>
      </trkpt>
      <trkpt lat="43.60404" lon="3.18979">
        <ele>268.604009</ele>
        <time>2025-10-23T11:10:19Z</time>
      </trkpt>
      <trkpt lat="43.60402" lon="3.18983">
        <ele>268.698973</ele>
        <time>2025-10-23T11:10:20Z</time>
      </trkpt>
      <trkpt lat="43.604" lon="3.18985">
        <ele>268.79068</ele>
        <time>2025-10-23T11:10:21Z</time>
      </trkpt>
      <trkpt lat="43.60398" lon="3.18988">
        <ele>268.884146</ele>
        <time>2025-10-23T11:10:22Z</time>
      </trkpt>
      <trkpt lat="43.60396" lon="3.18991">
        <ele>268.971473</ele>
        <time>2025-10-23T11:10:23Z</time>
      </trkpt>
      <trkpt lat="43.60394" lon="3.18994">
        <ele>269.062757</ele>
        <time>2025-10-23T11:10:24Z</time>
      </trkpt>
      <trkpt lat="43.60393" lon="3.18997">
        <ele>269.148266</ele>
        <time>2025-10-23T11:10:25Z</time>
      </trkpt>
      <trkpt lat="43.60391" lon="3.18999">
        <ele>269.229586</ele>
        <time>2025-10-23T11:10:26Z</time>
      </trkpt>
      <trkpt lat="43.6039" lon="3.19002">
        <ele>269.318632</ele>
        <time>2025-10-23T11:10:27Z</time>
      </trkpt>
      <trkpt lat="43.60388" lon="3.19006">
        <ele>269.421228</ele>
        <time>2025-10-23T11:10:28Z</time>
      </trkpt>
      <trkpt lat="43.60386" lon="3.1901">
        <ele>269.533581</ele>
        <time>2025-10-23T11:10:29Z</time>
      </trkpt>
      <trkpt lat="43.60384" lon="3.19013">
        <ele>269.643928</ele>
        <time>2025-10-23T11:10:30Z</time>
      </trkpt>
      <trkpt lat="43.60382" lon="3.19017">
        <ele>269.754275</ele>
        <time>2025-10-23T11:10:31Z</time>
      </trkpt>
      <trkpt lat="43.6038" lon="3.1902">
        <ele>269.851115</ele>
        <time>2025-10-23T11:10:32Z</time>
      </trkpt>
      <trkpt lat="43.60378" lon="3.19023">
        <ele>269.948178</ele>
        <time>2025-10-23T11:10:33Z</time>
      </trkpt>
      <trkpt lat="43.60376" lon="3.19027">
        <ele>270.04303</ele>
        <time>2025-10-23T11:10:34Z</time>
      </trkpt>
      <trkpt lat="43.60375" lon="3.19029">
        <ele>270.130162</ele>
        <time>2025-10-23T11:10:35Z</time>
      </trkpt>
      <trkpt lat="43.60373" lon="3.19033">
        <ele>270.219268</ele>
        <time>2025-10-23T11:10:36Z</time>
      </trkpt>
      <trkpt lat="43.60372" lon="3.19036">
        <ele>270.312651</ele>
        <time>2025-10-23T11:10:37Z</time>
      </trkpt>
      <trkpt lat="43.60372" lon="3.1904">
        <ele>270.406361</ele>
        <time>2025-10-23T11:10:38Z</time>
      </trkpt>
      <trkpt lat="43.60371" lon="3.19044">
        <ele>270.50471</ele>
        <time>2025-10-23T11:10:39Z</time>
      </trkpt>
      <trkpt lat="43.6037" lon="3.19048">
        <ele>270.597014</ele>
        <time>2025-10-23T11:10:40Z</time>
      </trkpt>
      <trkpt lat="43.6037" lon="3.19052">
        <ele>270.692302</ele>
        <time>2025-10-23T11:10:41Z</time>
      </trkpt>
      <trkpt lat="43.60369" lon="3.19056">
        <ele>270.805364</ele>
        <time>2025-10-23T11:10:42Z</time>
      </trkpt>
      <trkpt lat="43.60368" lon="3.19061">
        <ele>270.914719</ele>
        <time>2025-10-23T11:10:43Z</time>
      </trkpt>
      <trkpt lat="43.60368" lon="3.19065">
        <ele>271.022383</ele>
        <time>2025-10-23T11:10:44Z</time>
      </trkpt>
      <trkpt lat="43.60367" lon="3.1907">
        <ele>271.136442</ele>
        <time>2025-10-23T11:10:45Z</time>
      </trkpt>
      <trkpt lat="43.60367" lon="3.19075">
        <ele>271.249974</ele>
        <time>2025-10-23T11:10:46Z</time>
      </trkpt>
      <trkpt lat="43.60366" lon="3.19079">
        <ele>271.364652</ele>
        <time>2025-10-23T11:10:47Z</time>
      </trkpt>
      <trkpt lat="43.60365" lon="3.19084">
        <ele>271.484698</ele>
        <time>2025-10-23T11:10:48Z</time>
      </trkpt>
      <trkpt lat="43.60364" lon="3.19089">
        <ele>271.604062</ele>
        <time>2025-10-23T11:10:49Z</time>
      </trkpt>
      <trkpt lat="43.60363" lon="3.19094">
        <ele>271.728032</ele>
        <time>2025-10-23T11:10:50Z</time>
      </trkpt>
      <trkpt lat="43.60362" lon="3.19099">
        <ele>271.853921</ele>
        <time>2025-10-23T11:10:51Z</time>
      </trkpt>
      <trkpt lat="43.6036" lon="3.19104">
        <ele>271.98737</ele>
        <time>2025-10-23T11:10:52Z</time>
      </trkpt>
      <trkpt lat="43.60359" lon="3.19109">
        <ele>272.118683</ele>
        <time>2025-10-23T11:10:53Z</time>
      </trkpt>
      <trkpt lat="43.60356" lon="3.19114">
        <ele>272.252281</ele>
        <time>2025-10-23T11:10:54Z</time>
      </trkpt>
      <trkpt lat="43.60354" lon="3.19118">
        <ele>272.380226</ele>
        <time>2025-10-23T11:10:55Z</time>
      </trkpt>
      <trkpt lat="43.60352" lon="3.19122">
        <ele>272.509977</ele>
        <time>2025-10-23T11:10:56Z</time>
      </trkpt>
      <trkpt lat="43.60349" lon="3.19126">
        <ele>272.644667</ele>
        <time>2025-10-23T11:10:57Z</time>
      </trkpt>
      <trkpt lat="43.60346" lon="3.1913">
        <ele>272.776609</ele>
        <time>2025-10-23T11:10:58Z</time>
      </trkpt>
      <trkpt lat="43.60343" lon="3.19134">
        <ele>272.848005</ele>
        <time>2025-10-23T11:10:59Z</time>
      </trkpt>
      <trkpt lat="43.60341" lon="3.19138">
        <ele>272.887954</ele>
        <time>2025-10-23T11:11:00Z</time>
      </trkpt>
      <trkpt lat="43.60338" lon="3.19141">
        <ele>272.927833</ele>
        <time>2025-10-23T11:11:01Z</time>
      </trkpt>
      <trkpt lat="43.60335" lon="3.19144">
        <ele>272.968032</ele>
        <time>2025-10-23T11:11:02Z</time>
      </trkpt>
      <trkpt lat="43.60333" lon="3.19147">
        <ele>273.008746</ele>
        <time>2025-10-23T11:11:03Z</time>
      </trkpt>
      <trkpt lat="43.6033" lon="3.19151">
        <ele>273.047582</ele>
        <time>2025-10-23T11:11:04Z</time>
      </trkpt>
      <trkpt lat="43.60327" lon="3.19154">
        <ele>273.088113</ele>
        <time>2025-10-23T11:11:05Z</time>
      </trkpt>
      <trkpt lat="43.60325" lon="3.19158">
        <ele>273.127079</ele>
        <time>2025-10-23T11:11:06Z</time>
      </trkpt>
      <trkpt lat="43.60323" lon="3.19162">
        <ele>273.169398</ele>
        <time>2025-10-23T11:11:07Z</time>
      </trkpt>
      <trkpt lat="43.6032" lon="3.19165">
        <ele>273.209475</ele>
        <time>2025-10-23T11:11:08Z</time>
      </trkpt>
      <trkpt lat="43.60317" lon="3.19168">
        <ele>273.249977</ele>
        <time>2025-10-23T11:11:09Z</time>
      </trkpt>
      <trkpt lat="43.60314" lon="3.19169">
        <ele>273.287354</ele>
        <time>2025-10-23T11:11:10Z</time>
      </trkpt>
      <trkpt lat="43.60311" lon="3.19171">
        <ele>273.320869</ele>
        <time>2025-10-23T11:11:11Z</time>
      </trkpt>
      <trkpt lat="43.60309" lon="3.19174">
        <ele>273.348765</ele>
        <time>2025-10-23T11:11:12Z</time>
      </trkpt>
      <trkpt lat="43.6031" lon="3.19177">
        <ele>273.371862</ele>
        <time>2025-10-23T11:11:13Z</time>
      </trkpt>
      <trkpt lat="43.60312" lon="3.19178">
        <ele>273.395388</ele>
        <time>2025-10-23T11:11:14Z</time>
      </trkpt>
      <trkpt lat="43.60313" lon="3.19175">
        <ele>273.418747</ele>
        <time>2025-10-23T11:11:15Z</time>
      </trkpt>
      <trkpt lat="43.60313" lon="3.19173">
        <ele>273.437202</ele>
        <time>2025-10-23T11:11:16Z</time>
      </trkpt>
      <trkpt lat="43.60313" lon="3.19171">
        <ele>273.453258</ele>
        <time>2025-10-23T11:11:17Z</time>
      </trkpt>
      <trkpt lat="43.60313" lon="3.19169">
        <ele>273.471812</ele>
        <time>2025-10-23T11:11:18Z</time>
      </trkpt>
      <trkpt lat="43.60313" lon="3.19167">
        <ele>273.486892</ele>
        <time>2025-10-23T11:11:19Z</time>
      </trkpt>
      <trkpt lat="43.60314" lon="3.19166">
        <ele>273.495977</ele>
        <time>2025-10-23T11:11:20Z</time>
      </trkpt>
      <trkpt lat="43.60314" lon="3.19166">
        <ele>273.497923</ele>
        <time>2025-10-23T11:11:21Z</time>
      </trkpt>
      <trkpt lat="43.60314" lon="3.19166">
        <ele>273.498724</ele>
        <time>2025-10-23T11:11:22Z</time>
      </trkpt>
      <trkpt lat="43.60315" lon="3.19165">
        <ele>273.5099</ele>
        <time>2025-10-23T11:12:17Z</time>
      </trkpt>
      <trkpt lat="43.60315" lon="3.19166">
        <ele>273.512253</ele>
        <time>2025-10-23T11:12:18Z</time>
      </trkpt>
      <trkpt lat="43.60315" lon="3.19166">
        <ele>273.51822</ele>
        <time>2025-10-23T11:12:19Z</time>
      </trkpt>
      <trkpt lat="43.60317" lon="3.19168">
        <ele>273.540733</ele>
        <time>2025-10-23T11:12:20Z</time>
      </trkpt>
      <trkpt lat="43.60316" lon="3.19171">
        <ele>273.564889</ele>
        <time>2025-10-23T11:12:21Z</time>
      </trkpt>
      <trkpt lat="43.60315" lon="3.19174">
        <ele>273.592831</ele>
        <time>2025-10-23T11:12:22Z</time>
      </trkpt>
      <trkpt lat="43.60312" lon="3.19176">
        <ele>273.626982</ele>
        <time>2025-10-23T11:12:23Z</time>
      </trkpt>
      <trkpt lat="43.60309" lon="3.19178">
        <ele>273.660499</ele>
        <time>2025-10-23T11:12:24Z</time>
      </trkpt>
      <trkpt lat="43.60307" lon="3.1918">
        <ele>273.692455</ele>
        <time>2025-10-23T11:12:25Z</time>
      </trkpt>
      <trkpt lat="43.60304" lon="3.19182">
        <ele>273.726606</ele>
        <time>2025-10-23T11:12:26Z</time>
      </trkpt>
      <trkpt lat="43.60302" lon="3.19185">
        <ele>273.761647</ele>
        <time>2025-10-23T11:12:27Z</time>
      </trkpt>
      <trkpt lat="43.60299" lon="3.19187">
        <ele>273.799459</ele>
        <time>2025-10-23T11:12:28Z</time>
      </trkpt>
      <trkpt lat="43.60296" lon="3.1919">
        <ele>273.83817</ele>
        <time>2025-10-23T11:12:29Z</time>
      </trkpt>
      <trkpt lat="43.60293" lon="3.19193">
        <ele>273.877367</ele>
        <time>2025-10-23T11:12:30Z</time>
      </trkpt>
      <trkpt lat="43.60291" lon="3.19196">
        <ele>273.915887</ele>
        <time>2025-10-23T11:12:31Z</time>
      </trkpt>
      <trkpt lat="43.60288" lon="3.192">
        <ele>273.954338</ele>
        <time>2025-10-23T11:12:32Z</time>
      </trkpt>
      <trkpt lat="43.60286" lon="3.19204">
        <ele>273.994622</ele>
        <time>2025-10-23T11:12:33Z</time>
      </trkpt>
      <trkpt lat="43.60284" lon="3.19208">
        <ele>274.035098</ele>
        <time>2025-10-23T11:12:34Z</time>
      </trkpt>
      <trkpt lat="43.60283" lon="3.19213">
        <ele>274.075421</ele>
        <time>2025-10-23T11:12:35Z</time>
      </trkpt>
      <trkpt lat="43.60282" lon="3.19218">
        <ele>274.117464</ele>
        <time>2025-10-23T11:12:36Z</time>
      </trkpt>
      <trkpt lat="43.60281" lon="3.19223">
        <ele>274.158728</ele>
        <time>2025-10-23T11:12:37Z</time>
      </trkpt>
      <trkpt lat="43.6028" lon="3.19228">
        <ele>274.202089</ele>
        <time>2025-10-23T11:12:38Z</time>
      </trkpt>
      <trkpt lat="43.60279" lon="3.19234">
        <ele>274.250621</ele>
        <time>2025-10-23T11:12:39Z</time>
      </trkpt>
      <trkpt lat="43.60278" lon="3.1924">
        <ele>274.300476</ele>
        <time>2025-10-23T11:12:40Z</time>
      </trkpt>
      <trkpt lat="43.60277" lon="3.19247">
        <ele>274.354022</ele>
        <time>2025-10-23T11:12:41Z</time>
      </trkpt>
      <trkpt lat="43.60276" lon="3.19253">
        <ele>274.406197</ele>
        <time>2025-10-23T11:12:42Z</time>
      </trkpt>
      <trkpt lat="43.60274" lon="3.1926">
        <ele>274.461476</ele>
        <time>2025-10-23T11:12:43Z</time>
      </trkpt>
      <trkpt lat="43.60273" lon="3.19266">
        <ele>274.515481</ele>
        <time>2025-10-23T11:12:44Z</time>
      </trkpt>
      <trkpt lat="43.60273" lon="3.19273">
        <ele>274.567322</ele>
        <time>2025-10-23T11:12:45Z</time>
      </trkpt>
      <trkpt lat="43.60272" lon="3.19279">
        <ele>274.618214</ele>
        <time>2025-10-23T11:12:46Z</time>
      </trkpt>
      <trkpt lat="43.60272" lon="3.19285">
        <ele>274.667383</ele>
        <time>2025-10-23T11:12:47Z</time>
      </trkpt>
      <trkpt lat="43.60271" lon="3.19291">
        <ele>274.718611</ele>
        <time>2025-10-23T11:12:48Z</time>
      </trkpt>
      <trkpt lat="43.6027" lon="3.19297">
        <ele>274.768709</ele>
        <time>2025-10-23T11:12:49Z</time>
      </trkpt>
      <trkpt lat="43.6027" lon="3.19304">
        <ele>274.813933</ele>
        <time>2025-10-23T11:12:50Z</time>
      </trkpt>
      <trkpt lat="43.6027" lon="3.1931">
        <ele>274.84132</ele>
        <time>2025-10-23T11:12:51Z</time>
      </trkpt>
      <trkpt lat="43.60269" lon="3.19316">
        <ele>274.869643</ele>
        <time>2025-10-23T11:12:52Z</time>
      </trkpt>
      <trkpt lat="43.60269" lon="3.19323">
        <ele>274.898789</ele>
        <time>2025-10-23T11:12:53Z</time>
      </trkpt>
      <trkpt lat="43.6027" lon="3.19329">
        <ele>274.92752</ele>
        <time>2025-10-23T11:12:54Z</time>
      </trkpt>
      <trkpt lat="43.6027" lon="3.19336">
        <ele>274.955402</ele>
        <time>2025-10-23T11:12:55Z</time>
      </trkpt>
      <trkpt lat="43.6027" lon="3.19342">
        <ele>274.983251</ele>
        <time>2025-10-23T11:12:56Z</time>
      </trkpt>
      <trkpt lat="43.6027" lon="3.19348">
        <ele>275.010631</ele>
        <time>2025-10-23T11:12:57Z</time>
      </trkpt>
      <trkpt lat="43.6027" lon="3.19354">
        <ele>275.037128</ele>
        <time>2025-10-23T11:12:58Z</time>
      </trkpt>
      <trkpt lat="43.6027" lon="3.1936">
        <ele>275.062307</ele>
        <time>2025-10-23T11:12:59Z</time>
      </trkpt>
      <trkpt lat="43.6027" lon="3.19366">
        <ele>275.08795</ele>
        <time>2025-10-23T11:13:00Z</time>
      </trkpt>
      <trkpt lat="43.6027" lon="3.19372">
        <ele>275.114454</ele>
        <time>2025-10-23T11:13:01Z</time>
      </trkpt>
      <trkpt lat="43.6027" lon="3.19377">
        <ele>275.14051</ele>
        <time>2025-10-23T11:13:02Z</time>
      </trkpt>
      <trkpt lat="43.6027" lon="3.19384">
        <ele>275.167448</ele>
        <time>2025-10-23T11:13:03Z</time>
      </trkpt>
      <trkpt lat="43.6027" lon="3.1939">
        <ele>275.194394</ele>
        <time>2025-10-23T11:13:04Z</time>
      </trkpt>
      <trkpt lat="43.6027" lon="3.19396">
        <ele>275.222242</ele>
        <time>2025-10-23T11:13:05Z</time>
      </trkpt>
      <trkpt lat="43.60271" lon="3.19402">
        <ele>275.247532</ele>
        <time>2025-10-23T11:13:06Z</time>
      </trkpt>
      <trkpt lat="43.60271" lon="3.19408">
        <ele>275.274141</ele>
        <time>2025-10-23T11:13:07Z</time>
      </trkpt>
      <trkpt lat="43.60271" lon="3.19413">
        <ele>275.299784</ele>
        <time>2025-10-23T11:13:08Z</time>
      </trkpt>
      <trkpt lat="43.60271" lon="3.19419">
        <ele>275.325398</ele>
        <time>2025-10-23T11:13:09Z</time>
      </trkpt>
      <trkpt lat="43.60272" lon="3.19426">
        <ele>275.35328</ele>
        <time>2025-10-23T11:13:10Z</time>
      </trkpt>
      <trkpt lat="43.60272" lon="3.19431">
        <ele>275.378893</ele>
        <time>2025-10-23T11:13:11Z</time>
      </trkpt>
      <trkpt lat="43.60272" lon="3.19437">
        <ele>275.403691</ele>
        <time>2025-10-23T11:13:12Z</time>
      </trkpt>
      <trkpt lat="43.60273" lon="3.19442">
        <ele>275.428353</ele>
        <time>2025-10-23T11:13:13Z</time>
      </trkpt>
      <trkpt lat="43.60274" lon="3.19448">
        <ele>275.453824</ele>
        <time>2025-10-23T11:13:14Z</time>
      </trkpt>
      <trkpt lat="43.60275" lon="3.19454">
        <ele>275.479156</ele>
        <time>2025-10-23T11:13:15Z</time>
      </trkpt>
      <trkpt lat="43.60276" lon="3.19459">
        <ele>275.504101</ele>
        <time>2025-10-23T11:13:16Z</time>
      </trkpt>
      <trkpt lat="43.60277" lon="3.19465">
        <ele>275.530071</ele>
        <time>2025-10-23T11:13:17Z</time>
      </trkpt>
      <trkpt lat="43.60278" lon="3.1947">
        <ele>275.555269</ele>
        <time>2025-10-23T11:13:18Z</time>
      </trkpt>
      <trkpt lat="43.60279" lon="3.19476">
        <ele>275.580468</ele>
        <time>2025-10-23T11:13:19Z</time>
      </trkpt>
      <trkpt lat="43.60281" lon="3.19481">
        <ele>275.606258</ele>
        <time>2025-10-23T11:13:20Z</time>
      </trkpt>
      <trkpt lat="43.60281" lon="3.19487">
        <ele>275.632766</ele>
        <time>2025-10-23T11:13:21Z</time>
      </trkpt>
      <trkpt lat="43.60282" lon="3.19493">
        <ele>275.660386</ele>
        <time>2025-10-23T11:13:22Z</time>
      </trkpt>
      <trkpt lat="43.60283" lon="3.19499">
        <ele>275.687146</ele>
        <time>2025-10-23T11:13:23Z</time>
      </trkpt>
      <trkpt lat="43.60284" lon="3.19505">
        <ele>275.714479</ele>
        <time>2025-10-23T11:13:24Z</time>
      </trkpt>
      <trkpt lat="43.60285" lon="3.19511">
        <ele>275.741421</ele>
        <time>2025-10-23T11:13:25Z</time>
      </trkpt>
      <trkpt lat="43.60286" lon="3.19517">
        <ele>275.766421</ele>
        <time>2025-10-23T11:13:26Z</time>
      </trkpt>
      <trkpt lat="43.60286" lon="3.19523">
        <ele>275.7921</ele>
        <time>2025-10-23T11:13:27Z</time>
      </trkpt>
      <trkpt lat="43.60286" lon="3.19529">
        <ele>275.818604</ele>
        <time>2025-10-23T11:13:28Z</time>
      </trkpt>
      <trkpt lat="43.60286" lon="3.19534">
        <ele>275.844283</ele>
        <time>2025-10-23T11:13:29Z</time>
      </trkpt>
      <trkpt lat="43.60285" lon="3.1954">
        <ele>275.870594</ele>
        <time>2025-10-23T11:13:30Z</time>
      </trkpt>
      <trkpt lat="43.60284" lon="3.19546">
        <ele>275.897926</ele>
        <time>2025-10-23T11:13:31Z</time>
      </trkpt>
      <trkpt lat="43.60282" lon="3.19552">
        <ele>275.90854</ele>
        <time>2025-10-23T11:13:32Z</time>
      </trkpt>
      <trkpt lat="43.60281" lon="3.19558">
        <ele>275.911735</ele>
        <time>2025-10-23T11:13:33Z</time>
      </trkpt>
      <trkpt lat="43.60278" lon="3.19563">
        <ele>275.914843</ele>
        <time>2025-10-23T11:13:34Z</time>
      </trkpt>
      <trkpt lat="43.60276" lon="3.19567">
        <ele>275.917865</ele>
        <time>2025-10-23T11:13:35Z</time>
      </trkpt>
      <trkpt lat="43.60273" lon="3.19571">
        <ele>275.920929</ele>
        <time>2025-10-23T11:13:36Z</time>
      </trkpt>
      <trkpt lat="43.60271" lon="3.19576">
        <ele>275.923905</ele>
        <time>2025-10-23T11:13:37Z</time>
      </trkpt>
      <trkpt lat="43.60268" lon="3.19581">
        <ele>275.927096</ele>
        <time>2025-10-23T11:13:38Z</time>
      </trkpt>
      <trkpt lat="43.60265" lon="3.19585">
        <ele>275.930289</ele>
        <time>2025-10-23T11:13:39Z</time>
      </trkpt>
      <trkpt lat="43.60262" lon="3.1959">
        <ele>275.933406</ele>
        <time>2025-10-23T11:13:40Z</time>
      </trkpt>
      <trkpt lat="43.6026" lon="3.19594">
        <ele>275.936418</ele>
        <time>2025-10-23T11:13:41Z</time>
      </trkpt>
      <trkpt lat="43.60257" lon="3.19598">
        <ele>275.939447</ele>
        <time>2025-10-23T11:13:42Z</time>
      </trkpt>
      <trkpt lat="43.60253" lon="3.19602">
        <ele>275.942565</ele>
        <time>2025-10-23T11:13:43Z</time>
      </trkpt>
      <trkpt lat="43.60251" lon="3.19606">
        <ele>275.945615</ele>
        <time>2025-10-23T11:13:44Z</time>
      </trkpt>
      <trkpt lat="43.60248" lon="3.1961">
        <ele>275.948742</ele>
        <time>2025-10-23T11:13:45Z</time>
      </trkpt>
      <trkpt lat="43.60245" lon="3.19614">
        <ele>275.951755</ele>
        <time>2025-10-23T11:13:46Z</time>
      </trkpt>
      <trkpt lat="43.60242" lon="3.19618">
        <ele>275.954895</ele>
        <time>2025-10-23T11:13:47Z</time>
      </trkpt>
      <trkpt lat="43.60238" lon="3.19622">
        <ele>275.958087</ele>
        <time>2025-10-23T11:13:48Z</time>
      </trkpt>
      <trkpt lat="43.60235" lon="3.19626">
        <ele>275.961332</ele>
        <time>2025-10-23T11:13:49Z</time>
      </trkpt>
      <trkpt lat="43.60232" lon="3.1963">
        <ele>275.96445</ele>
        <time>2025-10-23T11:13:50Z</time>
      </trkpt>
      <trkpt lat="43.60229" lon="3.19635">
        <ele>275.967607</ele>
        <time>2025-10-23T11:13:51Z</time>
      </trkpt>
      <trkpt lat="43.60226" lon="3.19639">
        <ele>275.970913</ele>
        <time>2025-10-23T11:13:52Z</time>
      </trkpt>
      <trkpt lat="43.60224" lon="3.19644">
        <ele>275.973982</ele>
        <time>2025-10-23T11:13:53Z</time>
      </trkpt>
      <trkpt lat="43.60221" lon="3.19649">
        <ele>275.977129</ele>
        <time>2025-10-23T11:13:54Z</time>
      </trkpt>
      <trkpt lat="43.60219" lon="3.19653">
        <ele>275.980237</ele>
        <time>2025-10-23T11:13:55Z</time>
      </trkpt>
      <trkpt lat="43.60217" lon="3.19658">
        <ele>275.983351</ele>
        <time>2025-10-23T11:13:56Z</time>
      </trkpt>
      <trkpt lat="43.60215" lon="3.19664">
        <ele>275.98637</ele>
        <time>2025-10-23T11:13:57Z</time>
      </trkpt>
      <trkpt lat="43.60213" lon="3.19669">
        <ele>275.989198</ele>
        <time>2025-10-23T11:13:58Z</time>
      </trkpt>
      <trkpt lat="43.60212" lon="3.19674">
        <ele>275.992425</ele>
        <time>2025-10-23T11:13:59Z</time>
      </trkpt>
      <trkpt lat="43.60211" lon="3.1968">
        <ele>275.995411</ele>
        <time>2025-10-23T11:14:00Z</time>
      </trkpt>
      <trkpt lat="43.6021" lon="3.19685">
        <ele>275.998584</ele>
        <time>2025-10-23T11:14:01Z</time>
      </trkpt>
      <trkpt lat="43.60209" lon="3.19691">
        <ele>276.001793</ele>
        <time>2025-10-23T11:14:02Z</time>
      </trkpt>
      <trkpt lat="43.60208" lon="3.19697">
        <ele>276.004902</ele>
        <time>2025-10-23T11:14:03Z</time>
      </trkpt>
      <trkpt lat="43.60208" lon="3.19703">
        <ele>276.008116</ele>
        <time>2025-10-23T11:14:04Z</time>
      </trkpt>
      <trkpt lat="43.60207" lon="3.19708">
        <ele>276.010971</ele>
        <time>2025-10-23T11:14:05Z</time>
      </trkpt>
      <trkpt lat="43.60207" lon="3.19714">
        <ele>276.01396</ele>
        <time>2025-10-23T11:14:06Z</time>
      </trkpt>
      <trkpt lat="43.60207" lon="3.19719">
        <ele>276.016781</ele>
        <time>2025-10-23T11:14:07Z</time>
      </trkpt>
      <trkpt lat="43.60207" lon="3.19724">
        <ele>276.019443</ele>
        <time>2025-10-23T11:14:08Z</time>
      </trkpt>
      <trkpt lat="43.60207" lon="3.19729">
        <ele>276.022105</ele>
        <time>2025-10-23T11:14:09Z</time>
      </trkpt>
      <trkpt lat="43.60207" lon="3.19734">
        <ele>276.024669</ele>
        <time>2025-10-23T11:14:10Z</time>
      </trkpt>
      <trkpt lat="43.60207" lon="3.19739">
        <ele>276.027383</ele>
        <time>2025-10-23T11:14:11Z</time>
      </trkpt>
      <trkpt lat="43.60207" lon="3.19745">
        <ele>276.030311</ele>
        <time>2025-10-23T11:14:12Z</time>
      </trkpt>
      <trkpt lat="43.60207" lon="3.1975">
        <ele>276.033239</ele>
        <time>2025-10-23T11:14:13Z</time>
      </trkpt>
      <trkpt lat="43.60207" lon="3.19756">
        <ele>276.036113</ele>
        <time>2025-10-23T11:14:14Z</time>
      </trkpt>
      <trkpt lat="43.60207" lon="3.19761">
        <ele>276.063791</ele>
        <time>2025-10-23T11:14:15Z</time>
      </trkpt>
      <trkpt lat="43.60207" lon="3.19766">
        <ele>276.191316</ele>
        <time>2025-10-23T11:14:16Z</time>
      </trkpt>
      <trkpt lat="43.60207" lon="3.1977">
        <ele>276.321497</ele>
        <time>2025-10-23T11:14:17Z</time>
      </trkpt>
      <trkpt lat="43.60207" lon="3.19775">
        <ele>276.449022</ele>
        <time>2025-10-23T11:14:18Z</time>
      </trkpt>
      <trkpt lat="43.60207" lon="3.1978">
        <ele>276.573891</ele>
        <time>2025-10-23T11:14:19Z</time>
      </trkpt>
      <trkpt lat="43.60207" lon="3.19785">
        <ele>276.71489</ele>
        <time>2025-10-23T11:14:20Z</time>
      </trkpt>
      <trkpt lat="43.60208" lon="3.1979">
        <ele>276.847931</ele>
        <time>2025-10-23T11:14:21Z</time>
      </trkpt>
      <trkpt lat="43.60208" lon="3.19796">
        <ele>276.991444</ele>
        <time>2025-10-23T11:14:22Z</time>
      </trkpt>
      <trkpt lat="43.60208" lon="3.19801">
        <ele>277.140268</ele>
        <time>2025-10-23T11:14:23Z</time>
      </trkpt>
      <trkpt lat="43.60208" lon="3.19807">
        <ele>277.290667</ele>
        <time>2025-10-23T11:14:24Z</time>
      </trkpt>
      <trkpt lat="43.60209" lon="3.19812">
        <ele>277.440572</ele>
        <time>2025-10-23T11:14:25Z</time>
      </trkpt>
      <trkpt lat="43.60209" lon="3.19818">
        <ele>277.576266</ele>
        <time>2025-10-23T11:14:26Z</time>
      </trkpt>
      <trkpt lat="43.6021" lon="3.19822">
        <ele>277.70306</ele>
        <time>2025-10-23T11:14:27Z</time>
      </trkpt>
      <trkpt lat="43.6021" lon="3.19827">
        <ele>277.837159</ele>
        <time>2025-10-23T11:14:28Z</time>
      </trkpt>
      <trkpt lat="43.60211" lon="3.19833">
        <ele>277.979678</ele>
        <time>2025-10-23T11:14:29Z</time>
      </trkpt>
      <trkpt lat="43.60212" lon="3.19838">
        <ele>278.127209</ele>
        <time>2025-10-23T11:14:30Z</time>
      </trkpt>
      <trkpt lat="43.60213" lon="3.19843">
        <ele>278.27474</ele>
        <time>2025-10-23T11:14:31Z</time>
      </trkpt>
      <trkpt lat="43.60214" lon="3.19849">
        <ele>278.422822</ele>
        <time>2025-10-23T11:14:32Z</time>
      </trkpt>
      <trkpt lat="43.60215" lon="3.19854">
        <ele>278.567819</ele>
        <time>2025-10-23T11:14:33Z</time>
      </trkpt>
      <trkpt lat="43.60217" lon="3.19859">
        <ele>278.711606</ele>
        <time>2025-10-23T11:14:34Z</time>
      </trkpt>
      <trkpt lat="43.60219" lon="3.19863">
        <ele>278.851882</ele>
        <time>2025-10-23T11:14:35Z</time>
      </trkpt>
      <trkpt lat="43.60221" lon="3.19868">
        <ele>278.991885</ele>
        <time>2025-10-23T11:14:36Z</time>
      </trkpt>
      <trkpt lat="43.60223" lon="3.19872">
        <ele>279.131763</ele>
        <time>2025-10-23T11:14:37Z</time>
      </trkpt>
      <trkpt lat="43.60225" lon="3.19876">
        <ele>279.267336</ele>
        <time>2025-10-23T11:14:38Z</time>
      </trkpt>
      <trkpt lat="43.60227" lon="3.1988">
        <ele>279.405354</ele>
        <time>2025-10-23T11:14:39Z</time>
      </trkpt>
      <trkpt lat="43.60229" lon="3.19885">
        <ele>279.543332</ele>
        <time>2025-10-23T11:14:40Z</time>
      </trkpt>
      <trkpt lat="43.6023" lon="3.1989">
        <ele>279.687257</ele>
        <time>2025-10-23T11:14:41Z</time>
      </trkpt>
      <trkpt lat="43.60231" lon="3.19896">
        <ele>279.830197</ele>
        <time>2025-10-23T11:14:42Z</time>
      </trkpt>
      <trkpt lat="43.60232" lon="3.19901">
        <ele>279.968008</ele>
        <time>2025-10-23T11:14:43Z</time>
      </trkpt>
      <trkpt lat="43.60233" lon="3.19905">
        <ele>280.099236</ele>
        <time>2025-10-23T11:14:44Z</time>
      </trkpt>
      <trkpt lat="43.60234" lon="3.1991">
        <ele>280.224293</ele>
        <time>2025-10-23T11:14:45Z</time>
      </trkpt>
      <trkpt lat="43.60235" lon="3.19914">
        <ele>280.349349</ele>
        <time>2025-10-23T11:14:46Z</time>
      </trkpt>
      <trkpt lat="43.60236" lon="3.19918">
        <ele>280.465512</ele>
        <time>2025-10-23T11:14:47Z</time>
      </trkpt>
      <trkpt lat="43.60237" lon="3.19922">
        <ele>280.576794</ele>
        <time>2025-10-23T11:14:48Z</time>
      </trkpt>
      <trkpt lat="43.60238" lon="3.19926">
        <ele>280.680123</ele>
        <time>2025-10-23T11:14:49Z</time>
      </trkpt>
      <trkpt lat="43.60238" lon="3.1993">
        <ele>280.786646</ele>
        <time>2025-10-23T11:14:50Z</time>
      </trkpt>
      <trkpt lat="43.60239" lon="3.19934">
        <ele>280.903738</ele>
        <time>2025-10-23T11:14:51Z</time>
      </trkpt>
      <trkpt lat="43.60239" lon="3.19939">
        <ele>281.020692</ele>
        <time>2025-10-23T11:14:52Z</time>
      </trkpt>
      <trkpt lat="43.60238" lon="3.19943">
        <ele>281.135462</ele>
        <time>2025-10-23T11:14:53Z</time>
      </trkpt>
      <trkpt lat="43.60238" lon="3.19948">
        <ele>281.252359</ele>
        <time>2025-10-23T11:14:54Z</time>
      </trkpt>
      <trkpt lat="43.60238" lon="3.19952">
        <ele>281.377711</ele>
        <time>2025-10-23T11:14:55Z</time>
      </trkpt>
      <trkpt lat="43.60238" lon="3.19957">
        <ele>281.509178</ele>
        <time>2025-10-23T11:14:56Z</time>
      </trkpt>
      <trkpt lat="43.60237" lon="3.19962">
        <ele>281.639823</ele>
        <time>2025-10-23T11:14:57Z</time>
      </trkpt>
      <trkpt lat="43.60237" lon="3.19967">
        <ele>281.76555</ele>
        <time>2025-10-23T11:14:58Z</time>
      </trkpt>
      <trkpt lat="43.60236" lon="3.19971">
        <ele>281.889728</ele>
        <time>2025-10-23T11:14:59Z</time>
      </trkpt>
      <trkpt lat="43.60235" lon="3.19976">
        <ele>282.022425</ele>
        <time>2025-10-23T11:15:00Z</time>
      </trkpt>
      <trkpt lat="43.60234" lon="3.19981">
        <ele>282.159631</ele>
        <time>2025-10-23T11:15:01Z</time>
      </trkpt>
      <trkpt lat="43.60231" lon="3.19985">
        <ele>282.295605</ele>
        <time>2025-10-23T11:15:02Z</time>
      </trkpt>
      <trkpt lat="43.60228" lon="3.19987">
        <ele>282.42555</ele>
        <time>2025-10-23T11:15:03Z</time>
      </trkpt>
      <trkpt lat="43.60225" lon="3.19988">
        <ele>282.535213</ele>
        <time>2025-10-23T11:15:04Z</time>
      </trkpt>
      <trkpt lat="43.60223" lon="3.19989">
        <ele>282.638645</ele>
        <time>2025-10-23T11:15:05Z</time>
      </trkpt>
      <trkpt lat="43.6022" lon="3.19988">
        <ele>282.776372</ele>
        <time>2025-10-23T11:15:06Z</time>
      </trkpt>
      <trkpt lat="43.60217" lon="3.19988">
        <ele>282.925738</ele>
        <time>2025-10-23T11:15:07Z</time>
      </trkpt>
      <trkpt lat="43.60214" lon="3.19987">
        <ele>283.066398</ele>
        <time>2025-10-23T11:15:08Z</time>
      </trkpt>
      <trkpt lat="43.60211" lon="3.19986">
        <ele>283.22549</ele>
        <time>2025-10-23T11:15:09Z</time>
      </trkpt>
      <trkpt lat="43.60208" lon="3.19985">
        <ele>283.392609</ele>
        <time>2025-10-23T11:15:10Z</time>
      </trkpt>
      <trkpt lat="43.60205" lon="3.19984">
        <ele>283.553965</ele>
        <time>2025-10-23T11:15:11Z</time>
      </trkpt>
      <trkpt lat="43.60202" lon="3.19984">
        <ele>283.722057</ele>
        <time>2025-10-23T11:15:12Z</time>
      </trkpt>
      <trkpt lat="43.60198" lon="3.19984">
        <ele>283.891157</ele>
        <time>2025-10-23T11:15:13Z</time>
      </trkpt>
      <trkpt lat="43.60195" lon="3.19985">
        <ele>284.056805</ele>
        <time>2025-10-23T11:15:14Z</time>
      </trkpt>
      <trkpt lat="43.60192" lon="3.19986">
        <ele>284.211011</ele>
        <time>2025-10-23T11:15:15Z</time>
      </trkpt>
      <trkpt lat="43.6019" lon="3.19988">
        <ele>284.35454</ele>
        <time>2025-10-23T11:15:16Z</time>
      </trkpt>
      <trkpt lat="43.60187" lon="3.19989">
        <ele>284.490289</ele>
        <time>2025-10-23T11:15:17Z</time>
      </trkpt>
      <trkpt lat="43.60185" lon="3.19992">
        <ele>284.625252</ele>
        <time>2025-10-23T11:15:18Z</time>
      </trkpt>
      <trkpt lat="43.60183" lon="3.19995">
        <ele>284.773943</ele>
        <time>2025-10-23T11:15:19Z</time>
      </trkpt>
      <trkpt lat="43.60181" lon="3.19998">
        <ele>284.927088</ele>
        <time>2025-10-23T11:15:20Z</time>
      </trkpt>
      <trkpt lat="43.60179" lon="3.20001">
        <ele>285.083006</ele>
        <time>2025-10-23T11:15:21Z</time>
      </trkpt>
      <trkpt lat="43.60177" lon="3.20004">
        <ele>285.241735</ele>
        <time>2025-10-23T11:15:22Z</time>
      </trkpt>
      <trkpt lat="43.60175" lon="3.20007">
        <ele>285.380605</ele>
        <time>2025-10-23T11:15:23Z</time>
      </trkpt>
      <trkpt lat="43.60173" lon="3.2001">
        <ele>285.513285</ele>
        <time>2025-10-23T11:15:24Z</time>
      </trkpt>
      <trkpt lat="43.60172" lon="3.20012">
        <ele>285.648655</ele>
        <time>2025-10-23T11:15:25Z</time>
      </trkpt>
      <trkpt lat="43.6017" lon="3.20015">
        <ele>285.777343</ele>
        <time>2025-10-23T11:15:26Z</time>
      </trkpt>
      <trkpt lat="43.60168" lon="3.20018">
        <ele>285.906032</ele>
        <time>2025-10-23T11:15:27Z</time>
      </trkpt>
      <trkpt lat="43.60167" lon="3.2002">
        <ele>286.02865</ele>
        <time>2025-10-23T11:15:28Z</time>
      </trkpt>
      <trkpt lat="43.60165" lon="3.20023">
        <ele>286.154506</ele>
        <time>2025-10-23T11:15:29Z</time>
      </trkpt>
      <trkpt lat="43.60164" lon="3.20025">
        <ele>286.271444</ele>
        <time>2025-10-23T11:15:30Z</time>
      </trkpt>
      <trkpt lat="43.60162" lon="3.20028">
        <ele>286.385121</ele>
        <time>2025-10-23T11:15:31Z</time>
      </trkpt>
      <trkpt lat="43.60161" lon="3.2003">
        <ele>286.50206</ele>
        <time>2025-10-23T11:15:32Z</time>
      </trkpt>
      <trkpt lat="43.60159" lon="3.20032">
        <ele>286.614497</ele>
        <time>2025-10-23T11:15:33Z</time>
      </trkpt>
      <trkpt lat="43.60158" lon="3.20034">
        <ele>286.734525</ele>
        <time>2025-10-23T11:15:34Z</time>
      </trkpt>
      <trkpt lat="43.60156" lon="3.20036">
        <ele>286.862503</ele>
        <time>2025-10-23T11:15:35Z</time>
      </trkpt>
      <trkpt lat="43.60154" lon="3.20038">
        <ele>286.975705</ele>
        <time>2025-10-23T11:15:36Z</time>
      </trkpt>
      <trkpt lat="43.60152" lon="3.2004">
        <ele>287.102357</ele>
        <time>2025-10-23T11:15:37Z</time>
      </trkpt>
      <trkpt lat="43.60149" lon="3.20042">
        <ele>287.230239</ele>
        <time>2025-10-23T11:15:38Z</time>
      </trkpt>
      <trkpt lat="43.60147" lon="3.20043">
        <ele>287.358652</ele>
        <time>2025-10-23T11:15:39Z</time>
      </trkpt>
      <trkpt lat="43.60145" lon="3.20045">
        <ele>287.480541</ele>
        <time>2025-10-23T11:15:40Z</time>
      </trkpt>
      <trkpt lat="43.60143" lon="3.20046">
        <ele>287.60271</ele>
        <time>2025-10-23T11:15:41Z</time>
      </trkpt>
      <trkpt lat="43.60141" lon="3.20048">
        <ele>287.713788</ele>
        <time>2025-10-23T11:15:42Z</time>
      </trkpt>
      <trkpt lat="43.60139" lon="3.2005">
        <ele>287.833414</ele>
        <time>2025-10-23T11:15:43Z</time>
      </trkpt>
      <trkpt lat="43.60137" lon="3.20052">
        <ele>287.957376</ele>
        <time>2025-10-23T11:15:44Z</time>
      </trkpt>
      <trkpt lat="43.60135" lon="3.20054">
        <ele>288.079068</ele>
        <time>2025-10-23T11:15:45Z</time>
      </trkpt>
      <trkpt lat="43.60133" lon="3.20055">
        <ele>288.196802</ele>
        <time>2025-10-23T11:15:46Z</time>
      </trkpt>
      <trkpt lat="43.60131" lon="3.20057">
        <ele>288.330966</ele>
        <time>2025-10-23T11:15:47Z</time>
      </trkpt>
      <trkpt lat="43.60129" lon="3.20059">
        <ele>288.454619</ele>
        <time>2025-10-23T11:15:48Z</time>
      </trkpt>
      <trkpt lat="43.60127" lon="3.20061">
        <ele>288.578612</ele>
        <time>2025-10-23T11:15:49Z</time>
      </trkpt>
      <trkpt lat="43.60125" lon="3.20063">
        <ele>288.707024</ele>
        <time>2025-10-23T11:15:50Z</time>
      </trkpt>
      <trkpt lat="43.60123" lon="3.20064">
        <ele>288.837278</ele>
        <time>2025-10-23T11:15:51Z</time>
      </trkpt>
      <trkpt lat="43.6012" lon="3.20066">
        <ele>288.967532</ele>
        <time>2025-10-23T11:15:52Z</time>
      </trkpt>
      <trkpt lat="43.60119" lon="3.20068">
        <ele>289.084898</ele>
        <time>2025-10-23T11:15:53Z</time>
      </trkpt>
      <trkpt lat="43.60117" lon="3.2007">
        <ele>289.204389</ele>
        <time>2025-10-23T11:15:54Z</time>
      </trkpt>
      <trkpt lat="43.60115" lon="3.20072">
        <ele>289.334329</ele>
        <time>2025-10-23T11:15:55Z</time>
      </trkpt>
      <trkpt lat="43.60112" lon="3.20074">
        <ele>289.464583</ele>
        <time>2025-10-23T11:15:56Z</time>
      </trkpt>
      <trkpt lat="43.6011" lon="3.20076">
        <ele>289.590481</ele>
        <time>2025-10-23T11:15:57Z</time>
      </trkpt>
      <trkpt lat="43.60108" lon="3.20077">
        <ele>289.714134</ele>
        <time>2025-10-23T11:15:58Z</time>
      </trkpt>
      <trkpt lat="43.60106" lon="3.20079">
        <ele>289.839914</ele>
        <time>2025-10-23T11:15:59Z</time>
      </trkpt>
      <trkpt lat="43.60104" lon="3.20081">
        <ele>289.967796</ele>
        <time>2025-10-23T11:16:00Z</time>
      </trkpt>
      <trkpt lat="43.60102" lon="3.20083">
        <ele>290.091184</ele>
        <time>2025-10-23T11:16:01Z</time>
      </trkpt>
      <trkpt lat="43.601" lon="3.20084">
        <ele>290.222365</ele>
        <time>2025-10-23T11:16:02Z</time>
      </trkpt>
      <trkpt lat="43.60097" lon="3.20086">
        <ele>290.369533</ele>
        <time>2025-10-23T11:16:03Z</time>
      </trkpt>
      <trkpt lat="43.60095" lon="3.20089">
        <ele>290.507891</ele>
        <time>2025-10-23T11:16:04Z</time>
      </trkpt>
      <trkpt lat="43.60093" lon="3.2009">
        <ele>290.635773</ele>
        <time>2025-10-23T11:16:05Z</time>
      </trkpt>
      <trkpt lat="43.60091" lon="3.20092">
        <ele>290.759766</ele>
        <time>2025-10-23T11:16:06Z</time>
      </trkpt>
      <trkpt lat="43.60089" lon="3.20093">
        <ele>290.880253</ele>
        <time>2025-10-23T11:16:07Z</time>
      </trkpt>
      <trkpt lat="43.60086" lon="3.20095">
        <ele>291.008284</ele>
        <time>2025-10-23T11:16:08Z</time>
      </trkpt>
      <trkpt lat="43.60084" lon="3.20097">
        <ele>291.131937</ele>
        <time>2025-10-23T11:16:09Z</time>
      </trkpt>
      <trkpt lat="43.60082" lon="3.20099">
        <ele>291.277291</ele>
        <time>2025-10-23T11:16:10Z</time>
      </trkpt>
      <trkpt lat="43.60079" lon="3.201">
        <ele>291.425439</ele>
        <time>2025-10-23T11:16:11Z</time>
      </trkpt>
      <trkpt lat="43.60076" lon="3.20103">
        <ele>291.591023</ele>
        <time>2025-10-23T11:16:12Z</time>
      </trkpt>
      <trkpt lat="43.60074" lon="3.20105">
        <ele>291.760862</ele>
        <time>2025-10-23T11:16:13Z</time>
      </trkpt>
      <trkpt lat="43.60071" lon="3.20108">
        <ele>291.952255</ele>
        <time>2025-10-23T11:16:14Z</time>
      </trkpt>
      <trkpt lat="43.60068" lon="3.20111">
        <ele>292.153073</ele>
        <time>2025-10-23T11:16:15Z</time>
      </trkpt>
      <trkpt lat="43.60065" lon="3.20114">
        <ele>292.376924</ele>
        <time>2025-10-23T11:16:16Z</time>
      </trkpt>
      <trkpt lat="43.60063" lon="3.20118">
        <ele>292.595151</ele>
        <time>2025-10-23T11:16:17Z</time>
      </trkpt>
      <trkpt lat="43.6006" lon="3.20122">
        <ele>292.812352</ele>
        <time>2025-10-23T11:16:18Z</time>
      </trkpt>
      <trkpt lat="43.60058" lon="3.20126">
        <ele>293.038363</ele>
        <time>2025-10-23T11:16:19Z</time>
      </trkpt>
      <trkpt lat="43.60056" lon="3.2013">
        <ele>293.268653</ele>
        <time>2025-10-23T11:16:20Z</time>
      </trkpt>
      <trkpt lat="43.60054" lon="3.20135">
        <ele>293.495454</ele>
        <time>2025-10-23T11:16:21Z</time>
      </trkpt>
      <trkpt lat="43.60053" lon="3.2014">
        <ele>293.725618</ele>
        <time>2025-10-23T11:16:22Z</time>
      </trkpt>
      <trkpt lat="43.60052" lon="3.20146">
        <ele>293.970611</ele>
        <time>2025-10-23T11:16:23Z</time>
      </trkpt>
      <trkpt lat="43.60052" lon="3.20151">
        <ele>294.205099</ele>
        <time>2025-10-23T11:16:24Z</time>
      </trkpt>
      <trkpt lat="43.60051" lon="3.20157">
        <ele>294.459443</ele>
        <time>2025-10-23T11:16:25Z</time>
      </trkpt>
      <trkpt lat="43.60051" lon="3.20163">
        <ele>294.704167</ele>
        <time>2025-10-23T11:16:26Z</time>
      </trkpt>
      <trkpt lat="43.60051" lon="3.20168">
        <ele>294.935943</ele>
        <time>2025-10-23T11:16:27Z</time>
      </trkpt>
      <trkpt lat="43.60051" lon="3.20173">
        <ele>295.154923</ele>
        <time>2025-10-23T11:16:28Z</time>
      </trkpt>
      <trkpt lat="43.60052" lon="3.20178">
        <ele>295.357001</ele>
        <time>2025-10-23T11:16:29Z</time>
      </trkpt>
      <trkpt lat="43.60052" lon="3.20182">
        <ele>295.529606</ele>
        <time>2025-10-23T11:16:30Z</time>
      </trkpt>
      <trkpt lat="43.60052" lon="3.20186">
        <ele>295.675659</ele>
        <time>2025-10-23T11:16:31Z</time>
      </trkpt>
      <trkpt lat="43.60052" lon="3.20189">
        <ele>295.809242</ele>
        <time>2025-10-23T11:16:32Z</time>
      </trkpt>
      <trkpt lat="43.60052" lon="3.20192">
        <ele>295.942431</ele>
        <time>2025-10-23T11:16:33Z</time>
      </trkpt>
      <trkpt lat="43.60052" lon="3.20195">
        <ele>296.076014</ele>
        <time>2025-10-23T11:16:34Z</time>
      </trkpt>
      <trkpt lat="43.60052" lon="3.20198">
        <ele>296.196341</ele>
        <time>2025-10-23T11:16:35Z</time>
      </trkpt>
      <trkpt lat="43.60052" lon="3.202">
        <ele>296.31238</ele>
        <time>2025-10-23T11:16:36Z</time>
      </trkpt>
      <trkpt lat="43.60051" lon="3.20203">
        <ele>296.429624</ele>
        <time>2025-10-23T11:16:37Z</time>
      </trkpt>
      <trkpt lat="43.60051" lon="3.20206">
        <ele>296.558933</ele>
        <time>2025-10-23T11:16:38Z</time>
      </trkpt>
      <trkpt lat="43.60051" lon="3.20209">
        <ele>296.683968</ele>
        <time>2025-10-23T11:16:39Z</time>
      </trkpt>
      <trkpt lat="43.60051" lon="3.20212">
        <ele>296.819121</ele>
        <time>2025-10-23T11:16:40Z</time>
      </trkpt>
      <trkpt lat="43.6005" lon="3.20215">
        <ele>296.942901</ele>
        <time>2025-10-23T11:16:41Z</time>
      </trkpt>
      <trkpt lat="43.60049" lon="3.20217">
        <ele>297.065485</ele>
        <time>2025-10-23T11:16:42Z</time>
      </trkpt>
      <trkpt lat="43.60049" lon="3.2022">
        <ele>297.182611</ele>
        <time>2025-10-23T11:16:43Z</time>
      </trkpt>
      <trkpt lat="43.60048" lon="3.20223">
        <ele>297.313815</ele>
        <time>2025-10-23T11:16:44Z</time>
      </trkpt>
      <trkpt lat="43.60047" lon="3.20225">
        <ele>297.427216</ele>
        <time>2025-10-23T11:16:45Z</time>
      </trkpt>
      <trkpt lat="43.60046" lon="3.20228">
        <ele>297.544529</ele>
        <time>2025-10-23T11:16:46Z</time>
      </trkpt>
      <trkpt lat="43.60045" lon="3.2023">
        <ele>297.680141</ele>
        <time>2025-10-23T11:16:47Z</time>
      </trkpt>
      <trkpt lat="43.60044" lon="3.20233">
        <ele>297.819306</ele>
        <time>2025-10-23T11:16:48Z</time>
      </trkpt>
      <trkpt lat="43.60042" lon="3.20235">
        <ele>297.951581</ele>
        <time>2025-10-23T11:16:49Z</time>
      </trkpt>
      <trkpt lat="43.60041" lon="3.20238">
        <ele>298.087653</ele>
        <time>2025-10-23T11:16:50Z</time>
      </trkpt>
      <trkpt lat="43.60039" lon="3.2024">
        <ele>298.214257</ele>
        <time>2025-10-23T11:16:51Z</time>
      </trkpt>
      <trkpt lat="43.60038" lon="3.20242">
        <ele>298.336132</ele>
        <time>2025-10-23T11:16:52Z</time>
      </trkpt>
      <trkpt lat="43.60037" lon="3.20244">
        <ele>298.455524</ele>
        <time>2025-10-23T11:16:53Z</time>
      </trkpt>
      <trkpt lat="43.60035" lon="3.20246">
        <ele>298.574104</ele>
        <time>2025-10-23T11:16:54Z</time>
      </trkpt>
      <trkpt lat="43.60034" lon="3.20248">
        <ele>298.697689</ele>
        <time>2025-10-23T11:16:55Z</time>
      </trkpt>
      <trkpt lat="43.60032" lon="3.20251">
        <ele>298.838749</ele>
        <time>2025-10-23T11:16:56Z</time>
      </trkpt>
      <trkpt lat="43.6003" lon="3.20253">
        <ele>298.981222</ele>
        <time>2025-10-23T11:16:57Z</time>
      </trkpt>
      <trkpt lat="43.60029" lon="3.20255">
        <ele>299.131576</ele>
        <time>2025-10-23T11:16:58Z</time>
      </trkpt>
      <trkpt lat="43.60027" lon="3.20258">
        <ele>299.28132</ele>
        <time>2025-10-23T11:16:59Z</time>
      </trkpt>
      <trkpt lat="43.60025" lon="3.20261">
        <ele>299.424001</ele>
        <time>2025-10-23T11:17:00Z</time>
      </trkpt>
      <trkpt lat="43.60024" lon="3.20263">
        <ele>299.545876</ele>
        <time>2025-10-23T11:17:01Z</time>
      </trkpt>
      <trkpt lat="43.60023" lon="3.20265">
        <ele>299.674516</ele>
        <time>2025-10-23T11:17:02Z</time>
      </trkpt>
      <trkpt lat="43.60021" lon="3.20268">
        <ele>299.803477</ele>
        <time>2025-10-23T11:17:03Z</time>
      </trkpt>
      <trkpt lat="43.6002" lon="3.2027">
        <ele>299.911354</ele>
        <time>2025-10-23T11:17:04Z</time>
      </trkpt>
      <trkpt lat="43.60019" lon="3.20272">
        <ele>300.022597</ele>
        <time>2025-10-23T11:17:05Z</time>
      </trkpt>
      <trkpt lat="43.60018" lon="3.20274">
        <ele>300.120045</ele>
        <time>2025-10-23T11:17:06Z</time>
      </trkpt>
      <trkpt lat="43.60018" lon="3.20276">
        <ele>300.217493</ele>
        <time>2025-10-23T11:17:07Z</time>
      </trkpt>
      <trkpt lat="43.60016" lon="3.20278">
        <ele>300.332242</ele>
        <time>2025-10-23T11:17:08Z</time>
      </trkpt>
      <trkpt lat="43.60016" lon="3.2028">
        <ele>300.441759</ele>
        <time>2025-10-23T11:17:09Z</time>
      </trkpt>
      <trkpt lat="43.60015" lon="3.20283">
        <ele>300.563011</ele>
        <time>2025-10-23T11:17:10Z</time>
      </trkpt>
      <trkpt lat="43.60014" lon="3.20285">
        <ele>300.678057</ele>
        <time>2025-10-23T11:17:11Z</time>
      </trkpt>
      <trkpt lat="43.60014" lon="3.20287">
        <ele>300.778959</ele>
        <time>2025-10-23T11:17:12Z</time>
      </trkpt>
      <trkpt lat="43.60013" lon="3.20289">
        <ele>300.875856</ele>
        <time>2025-10-23T11:17:13Z</time>
      </trkpt>
      <trkpt lat="43.60012" lon="3.20292">
        <ele>301.008191</ele>
        <time>2025-10-23T11:17:14Z</time>
      </trkpt>
      <trkpt lat="43.60011" lon="3.20294">
        <ele>301.126497</ele>
        <time>2025-10-23T11:17:15Z</time>
      </trkpt>
      <trkpt lat="43.6001" lon="3.20297">
        <ele>301.250187</ele>
        <time>2025-10-23T11:17:16Z</time>
      </trkpt>
      <trkpt lat="43.60009" lon="3.20299">
        <ele>301.362398</ele>
        <time>2025-10-23T11:17:17Z</time>
      </trkpt>
      <trkpt lat="43.60007" lon="3.20302">
        <ele>301.508442</ele>
        <time>2025-10-23T11:17:18Z</time>
      </trkpt>
      <trkpt lat="43.60006" lon="3.20305">
        <ele>301.654505</ele>
        <time>2025-10-23T11:17:19Z</time>
      </trkpt>
      <trkpt lat="43.60004" lon="3.20307">
        <ele>301.800568</ele>
        <time>2025-10-23T11:17:20Z</time>
      </trkpt>
      <trkpt lat="43.60003" lon="3.2031">
        <ele>301.946612</ele>
        <time>2025-10-23T11:17:21Z</time>
      </trkpt>
      <trkpt lat="43.60002" lon="3.20313">
        <ele>302.082224</ele>
        <time>2025-10-23T11:17:22Z</time>
      </trkpt>
      <trkpt lat="43.6" lon="3.20315">
        <ele>302.228672</ele>
        <time>2025-10-23T11:17:23Z</time>
      </trkpt>
      <trkpt lat="43.59999" lon="3.20318">
        <ele>302.361525</ele>
        <time>2025-10-23T11:17:24Z</time>
      </trkpt>
      <trkpt lat="43.59997" lon="3.2032">
        <ele>302.537239</ele>
        <time>2025-10-23T11:17:25Z</time>
      </trkpt>
      <trkpt lat="43.59994" lon="3.20322">
        <ele>302.736742</ele>
        <time>2025-10-23T11:17:26Z</time>
      </trkpt>
      <trkpt lat="43.59992" lon="3.20324">
        <ele>302.929256</ele>
        <time>2025-10-23T11:17:27Z</time>
      </trkpt>
      <trkpt lat="43.5999" lon="3.20325">
        <ele>303.102917</ele>
        <time>2025-10-23T11:17:28Z</time>
      </trkpt>
      <trkpt lat="43.59988" lon="3.20325">
        <ele>303.281172</ele>
        <time>2025-10-23T11:17:29Z</time>
      </trkpt>
      <trkpt lat="43.59986" lon="3.20325">
        <ele>303.433433</ele>
        <time>2025-10-23T11:17:30Z</time>
      </trkpt>
      <trkpt lat="43.59984" lon="3.20324">
        <ele>303.578323</ele>
        <time>2025-10-23T11:17:31Z</time>
      </trkpt>
      <trkpt lat="43.59982" lon="3.20323">
        <ele>303.712358</ele>
        <time>2025-10-23T11:17:32Z</time>
      </trkpt>
      <trkpt lat="43.59981" lon="3.2032">
        <ele>303.881345</ele>
        <time>2025-10-23T11:17:33Z</time>
      </trkpt>
      <trkpt lat="43.59981" lon="3.20317">
        <ele>304.051927</ele>
        <time>2025-10-23T11:17:34Z</time>
      </trkpt>
      <trkpt lat="43.59982" lon="3.20315">
        <ele>304.206761</ele>
        <time>2025-10-23T11:17:35Z</time>
      </trkpt>
      <trkpt lat="43.59983" lon="3.20312">
        <ele>304.357833</ele>
        <time>2025-10-23T11:17:36Z</time>
      </trkpt>
      <trkpt lat="43.59984" lon="3.2031">
        <ele>304.499887</ele>
        <time>2025-10-23T11:17:37Z</time>
      </trkpt>
      <trkpt lat="43.59985" lon="3.20308">
        <ele>304.656333</ele>
        <time>2025-10-23T11:17:38Z</time>
      </trkpt>
      <trkpt lat="43.59987" lon="3.20306">
        <ele>304.811963</ele>
        <time>2025-10-23T11:17:39Z</time>
      </trkpt>
      <trkpt lat="43.59988" lon="3.20303">
        <ele>304.964984</ele>
        <time>2025-10-23T11:17:40Z</time>
      </trkpt>
      <trkpt lat="43.59989" lon="3.20301">
        <ele>305.135876</ele>
        <time>2025-10-23T11:17:41Z</time>
      </trkpt>
      <trkpt lat="43.5999" lon="3.20299">
        <ele>305.300145</ele>
        <time>2025-10-23T11:17:42Z</time>
      </trkpt>
      <trkpt lat="43.59992" lon="3.20296">
        <ele>305.460478</ele>
        <time>2025-10-23T11:17:43Z</time>
      </trkpt>
      <trkpt lat="43.59993" lon="3.20294">
        <ele>305.624868</ele>
        <time>2025-10-23T11:17:44Z</time>
      </trkpt>
      <trkpt lat="43.59994" lon="3.20292">
        <ele>305.767233</ele>
        <time>2025-10-23T11:17:45Z</time>
      </trkpt>
      <trkpt lat="43.59995" lon="3.20289">
        <ele>305.918192</ele>
        <time>2025-10-23T11:17:46Z</time>
      </trkpt>
      <trkpt lat="43.59995" lon="3.20287">
        <ele>306.074616</ele>
        <time>2025-10-23T11:17:47Z</time>
      </trkpt>
      <trkpt lat="43.59996" lon="3.20284">
        <ele>306.213507</ele>
        <time>2025-10-23T11:17:48Z</time>
      </trkpt>
      <trkpt lat="43.59996" lon="3.20281">
        <ele>306.36716</ele>
        <time>2025-10-23T11:17:49Z</time>
      </trkpt>
      <trkpt lat="43.59996" lon="3.20278">
        <ele>306.537238</ele>
        <time>2025-10-23T11:17:50Z</time>
      </trkpt>
      <trkpt lat="43.59996" lon="3.20275">
        <ele>306.696904</ele>
        <time>2025-10-23T11:17:51Z</time>
      </trkpt>
      <trkpt lat="43.59996" lon="3.20273">
        <ele>306.844889</ele>
        <time>2025-10-23T11:17:52Z</time>
      </trkpt>
      <trkpt lat="43.59995" lon="3.2027">
        <ele>306.9991</ele>
        <time>2025-10-23T11:17:53Z</time>
      </trkpt>
      <trkpt lat="43.59995" lon="3.20267">
        <ele>307.141805</ele>
        <time>2025-10-23T11:17:54Z</time>
      </trkpt>
      <trkpt lat="43.59995" lon="3.20265">
        <ele>307.276786</ele>
        <time>2025-10-23T11:17:55Z</time>
      </trkpt>
      <trkpt lat="43.59995" lon="3.20262">
        <ele>307.406432</ele>
        <time>2025-10-23T11:17:56Z</time>
      </trkpt>
      <trkpt lat="43.59994" lon="3.2026">
        <ele>307.546281</ele>
        <time>2025-10-23T11:17:57Z</time>
      </trkpt>
      <trkpt lat="43.59993" lon="3.20258">
        <ele>307.675129</ele>
        <time>2025-10-23T11:17:58Z</time>
      </trkpt>
      <trkpt lat="43.59993" lon="3.20255">
        <ele>307.819481</ele>
        <time>2025-10-23T11:17:59Z</time>
      </trkpt>
      <trkpt lat="43.59992" lon="3.20253">
        <ele>307.961292</ele>
        <time>2025-10-23T11:18:00Z</time>
      </trkpt>
      <trkpt lat="43.59991" lon="3.20251">
        <ele>308.103658</ele>
        <time>2025-10-23T11:18:01Z</time>
      </trkpt>
      <trkpt lat="43.5999" lon="3.20249">
        <ele>308.246946</ele>
        <time>2025-10-23T11:18:02Z</time>
      </trkpt>
      <trkpt lat="43.59989" lon="3.20246">
        <ele>308.424655</ele>
        <time>2025-10-23T11:18:03Z</time>
      </trkpt>
      <trkpt lat="43.59987" lon="3.20243">
        <ele>308.607521</ele>
        <time>2025-10-23T11:18:04Z</time>
      </trkpt>
      <trkpt lat="43.59985" lon="3.20241">
        <ele>308.808061</ele>
        <time>2025-10-23T11:18:05Z</time>
      </trkpt>
      <trkpt lat="43.59983" lon="3.20239">
        <ele>308.988744</ele>
        <time>2025-10-23T11:18:06Z</time>
      </trkpt>
      <trkpt lat="43.59981" lon="3.20238">
        <ele>309.149231</ele>
        <time>2025-10-23T11:18:07Z</time>
      </trkpt>
      <trkpt lat="43.59979" lon="3.20237">
        <ele>309.29957</ele>
        <time>2025-10-23T11:18:08Z</time>
      </trkpt>
      <trkpt lat="43.59977" lon="3.20236">
        <ele>309.462506</ele>
        <time>2025-10-23T11:18:09Z</time>
      </trkpt>
      <trkpt lat="43.59975" lon="3.20234">
        <ele>309.637445</ele>
        <time>2025-10-23T11:18:10Z</time>
      </trkpt>
      <trkpt lat="43.59973" lon="3.20232">
        <ele>309.825112</ele>
        <time>2025-10-23T11:18:11Z</time>
      </trkpt>
      <trkpt lat="43.59972" lon="3.2023">
        <ele>310.003056</ele>
        <time>2025-10-23T11:18:12Z</time>
      </trkpt>
      <trkpt lat="43.5997" lon="3.20227">
        <ele>310.168672</ele>
        <time>2025-10-23T11:18:13Z</time>
      </trkpt>
      <trkpt lat="43.59969" lon="3.20226">
        <ele>310.297763</ele>
        <time>2025-10-23T11:18:14Z</time>
      </trkpt>
      <trkpt lat="43.59968" lon="3.20224">
        <ele>310.409899</ele>
        <time>2025-10-23T11:18:15Z</time>
      </trkpt>
      <trkpt lat="43.59967" lon="3.20223">
        <ele>310.546928</ele>
        <time>2025-10-23T11:18:16Z</time>
      </trkpt>
      <trkpt lat="43.59965" lon="3.20222">
        <ele>310.684733</ele>
        <time>2025-10-23T11:18:17Z</time>
      </trkpt>
      <trkpt lat="43.59963" lon="3.20221">
        <ele>310.822538</ele>
        <time>2025-10-23T11:18:18Z</time>
      </trkpt>
      <trkpt lat="43.59961" lon="3.20219">
        <ele>310.985533</ele>
        <time>2025-10-23T11:18:19Z</time>
      </trkpt>
      <trkpt lat="43.5996" lon="3.20218">
        <ele>311.144652</ele>
        <time>2025-10-23T11:18:20Z</time>
      </trkpt>
      <trkpt lat="43.59958" lon="3.20216">
        <ele>311.306788</ele>
        <time>2025-10-23T11:18:21Z</time>
      </trkpt>
      <trkpt lat="43.59956" lon="3.20214">
        <ele>311.459583</ele>
        <time>2025-10-23T11:18:22Z</time>
      </trkpt>
      <trkpt lat="43.59955" lon="3.20213">
        <ele>311.605951</ele>
        <time>2025-10-23T11:18:23Z</time>
      </trkpt>
      <trkpt lat="43.59953" lon="3.20211">
        <ele>311.753028</ele>
        <time>2025-10-23T11:18:24Z</time>
      </trkpt>
      <trkpt lat="43.59951" lon="3.2021">
        <ele>311.900105</ele>
        <time>2025-10-23T11:18:25Z</time>
      </trkpt>
      <trkpt lat="43.5995" lon="3.20208">
        <ele>312.041206</ele>
        <time>2025-10-23T11:18:26Z</time>
      </trkpt>
      <trkpt lat="43.59948" lon="3.20206">
        <ele>312.202875</ele>
        <time>2025-10-23T11:18:27Z</time>
      </trkpt>
      <trkpt lat="43.59947" lon="3.20205">
        <ele>312.331966</ele>
        <time>2025-10-23T11:18:28Z</time>
      </trkpt>
      <trkpt lat="43.59946" lon="3.20202">
        <ele>312.487338</ele>
        <time>2025-10-23T11:18:29Z</time>
      </trkpt>
      <trkpt lat="43.59945" lon="3.202">
        <ele>312.629694</ele>
        <time>2025-10-23T11:18:30Z</time>
      </trkpt>
      <trkpt lat="43.59944" lon="3.20199">
        <ele>312.759812</ele>
        <time>2025-10-23T11:18:31Z</time>
      </trkpt>
      <trkpt lat="43.59942" lon="3.20197">
        <ele>312.912501</ele>
        <time>2025-10-23T11:18:32Z</time>
      </trkpt>
      <trkpt lat="43.5994" lon="3.20196">
        <ele>313.075496</ele>
        <time>2025-10-23T11:18:33Z</time>
      </trkpt>
      <trkpt lat="43.59938" lon="3.20194">
        <ele>313.256315</ele>
        <time>2025-10-23T11:18:34Z</time>
      </trkpt>
      <trkpt lat="43.59936" lon="3.20192">
        <ele>313.427666</ele>
        <time>2025-10-23T11:18:35Z</time>
      </trkpt>
      <trkpt lat="43.59934" lon="3.2019">
        <ele>313.627756</ele>
        <time>2025-10-23T11:18:36Z</time>
      </trkpt>
      <trkpt lat="43.59932" lon="3.20189">
        <ele>313.792798</ele>
        <time>2025-10-23T11:18:37Z</time>
      </trkpt>
      <trkpt lat="43.5993" lon="3.20188">
        <ele>313.971826</ele>
        <time>2025-10-23T11:18:38Z</time>
      </trkpt>
      <trkpt lat="43.59928" lon="3.20188">
        <ele>314.145989</ele>
        <time>2025-10-23T11:18:39Z</time>
      </trkpt>
      <trkpt lat="43.59925" lon="3.20188">
        <ele>314.327965</ele>
        <time>2025-10-23T11:18:40Z</time>
      </trkpt>
      <trkpt lat="43.59923" lon="3.20188">
        <ele>314.494563</ele>
        <time>2025-10-23T11:18:41Z</time>
      </trkpt>
      <trkpt lat="43.59921" lon="3.20189">
        <ele>314.66986</ele>
        <time>2025-10-23T11:18:42Z</time>
      </trkpt>
      <trkpt lat="43.59919" lon="3.20191">
        <ele>314.826058</ele>
        <time>2025-10-23T11:18:43Z</time>
      </trkpt>
      <trkpt lat="43.59918" lon="3.20193">
        <ele>314.974192</ele>
        <time>2025-10-23T11:18:44Z</time>
      </trkpt>
      <trkpt lat="43.59918" lon="3.20196">
        <ele>315.133861</ele>
        <time>2025-10-23T11:18:45Z</time>
      </trkpt>
      <trkpt lat="43.59919" lon="3.20199">
        <ele>315.279547</ele>
        <time>2025-10-23T11:18:46Z</time>
      </trkpt>
      <trkpt lat="43.59919" lon="3.20201">
        <ele>315.426992</ele>
        <time>2025-10-23T11:18:47Z</time>
      </trkpt>
      <trkpt lat="43.5992" lon="3.20204">
        <ele>315.571296</ele>
        <time>2025-10-23T11:18:48Z</time>
      </trkpt>
      <trkpt lat="43.5992" lon="3.20207">
        <ele>315.72495</ele>
        <time>2025-10-23T11:18:49Z</time>
      </trkpt>
      <trkpt lat="43.5992" lon="3.20209">
        <ele>315.881376</ele>
        <time>2025-10-23T11:18:50Z</time>
      </trkpt>
      <trkpt lat="43.59921" lon="3.20212">
        <ele>316.037914</ele>
        <time>2025-10-23T11:18:51Z</time>
      </trkpt>
      <trkpt lat="43.59922" lon="3.20215">
        <ele>316.213918</ele>
        <time>2025-10-23T11:18:52Z</time>
      </trkpt>
      <trkpt lat="43.59924" lon="3.20218">
        <ele>316.380628</ele>
        <time>2025-10-23T11:18:53Z</time>
      </trkpt>
      <trkpt lat="43.59925" lon="3.20221">
        <ele>316.547074</ele>
        <time>2025-10-23T11:18:54Z</time>
      </trkpt>
      <trkpt lat="43.59926" lon="3.20223">
        <ele>316.714486</ele>
        <time>2025-10-23T11:18:55Z</time>
      </trkpt>
      <trkpt lat="43.59927" lon="3.20226">
        <ele>316.862045</ele>
        <time>2025-10-23T11:18:56Z</time>
      </trkpt>
      <trkpt lat="43.59928" lon="3.20229">
        <ele>317.005197</ele>
        <time>2025-10-23T11:18:57Z</time>
      </trkpt>
      <trkpt lat="43.59929" lon="3.20231">
        <ele>317.133526</ele>
        <time>2025-10-23T11:18:58Z</time>
      </trkpt>
      <trkpt lat="43.59929" lon="3.20234">
        <ele>317.275398</ele>
        <time>2025-10-23T11:18:59Z</time>
      </trkpt>
      <trkpt lat="43.59929" lon="3.20236">
        <ele>317.406451</ele>
        <time>2025-10-23T11:19:00Z</time>
      </trkpt>
      <trkpt lat="43.59929" lon="3.20239">
        <ele>317.521942</ele>
        <time>2025-10-23T11:19:01Z</time>
      </trkpt>
      <trkpt lat="43.59928" lon="3.20241">
        <ele>317.65194</ele>
        <time>2025-10-23T11:19:02Z</time>
      </trkpt>
      <trkpt lat="43.59928" lon="3.20244">
        <ele>317.780269</ele>
        <time>2025-10-23T11:19:03Z</time>
      </trkpt>
      <trkpt lat="43.59928" lon="3.20246">
        <ele>317.87774</ele>
        <time>2025-10-23T11:19:04Z</time>
      </trkpt>
      <trkpt lat="43.59927" lon="3.20248">
        <ele>318.014736</ele>
        <time>2025-10-23T11:19:05Z</time>
      </trkpt>
      <trkpt lat="43.59926" lon="3.20251">
        <ele>318.165608</ele>
        <time>2025-10-23T11:19:06Z</time>
      </trkpt>
      <trkpt lat="43.59925" lon="3.20253">
        <ele>318.289</ele>
        <time>2025-10-23T11:19:07Z</time>
      </trkpt>
      <trkpt lat="43.59925" lon="3.20255">
        <ele>318.416891</ele>
        <time>2025-10-23T11:19:08Z</time>
      </trkpt>
      <trkpt lat="43.59923" lon="3.20257">
        <ele>318.539521</ele>
        <time>2025-10-23T11:19:09Z</time>
      </trkpt>
      <trkpt lat="43.59922" lon="3.20259">
        <ele>318.641713</ele>
        <time>2025-10-23T11:19:10Z</time>
      </trkpt>
      <trkpt lat="43.59921" lon="3.20261">
        <ele>318.775794</ele>
        <time>2025-10-23T11:19:11Z</time>
      </trkpt>
      <trkpt lat="43.5992" lon="3.20263">
        <ele>318.905976</ele>
        <time>2025-10-23T11:19:12Z</time>
      </trkpt>
      <trkpt lat="43.59919" lon="3.20265">
        <ele>319.040681</ele>
        <time>2025-10-23T11:19:13Z</time>
      </trkpt>
      <trkpt lat="43.59917" lon="3.20267">
        <ele>319.168101</ele>
        <time>2025-10-23T11:19:14Z</time>
      </trkpt>
      <trkpt lat="43.59916" lon="3.20268">
        <ele>319.302411</ele>
        <time>2025-10-23T11:19:15Z</time>
      </trkpt>
      <trkpt lat="43.59914" lon="3.2027">
        <ele>319.430595</ele>
        <time>2025-10-23T11:19:16Z</time>
      </trkpt>
      <trkpt lat="43.59913" lon="3.20271">
        <ele>319.553241</ele>
        <time>2025-10-23T11:19:17Z</time>
      </trkpt>
      <trkpt lat="43.59911" lon="3.20273">
        <ele>319.675816</ele>
        <time>2025-10-23T11:19:18Z</time>
      </trkpt>
      <trkpt lat="43.5991" lon="3.20274">
        <ele>319.78491</ele>
        <time>2025-10-23T11:19:19Z</time>
      </trkpt>
      <trkpt lat="43.59909" lon="3.20275">
        <ele>319.887907</ele>
        <time>2025-10-23T11:19:20Z</time>
      </trkpt>
      <trkpt lat="43.59907" lon="3.20276">
        <ele>319.990903</ele>
        <time>2025-10-23T11:19:21Z</time>
      </trkpt>
      <trkpt lat="43.59906" lon="3.20276">
        <ele>320.112348</ele>
        <time>2025-10-23T11:19:22Z</time>
      </trkpt>
      <trkpt lat="43.59904" lon="3.20277">
        <ele>320.240242</ele>
        <time>2025-10-23T11:19:23Z</time>
      </trkpt>
      <trkpt lat="43.59902" lon="3.20278">
        <ele>320.38436</ele>
        <time>2025-10-23T11:19:24Z</time>
      </trkpt>
      <trkpt lat="43.599" lon="3.20279">
        <ele>320.54182</ele>
        <time>2025-10-23T11:19:25Z</time>
      </trkpt>
      <trkpt lat="43.59898" lon="3.2028">
        <ele>320.661397</ele>
        <time>2025-10-23T11:19:26Z</time>
      </trkpt>
      <trkpt lat="43.59897" lon="3.20281">
        <ele>320.778167</ele>
        <time>2025-10-23T11:19:27Z</time>
      </trkpt>
      <trkpt lat="43.59895" lon="3.20282">
        <ele>320.912668</ele>
        <time>2025-10-23T11:19:28Z</time>
      </trkpt>
      <trkpt lat="43.59893" lon="3.20283">
        <ele>321.046956</ele>
        <time>2025-10-23T11:19:29Z</time>
      </trkpt>
      <trkpt lat="43.59892" lon="3.20284">
        <ele>321.176387</ele>
        <time>2025-10-23T11:19:30Z</time>
      </trkpt>
      <trkpt lat="43.5989" lon="3.20285">
        <ele>321.306327</ele>
        <time>2025-10-23T11:19:31Z</time>
      </trkpt>
      <trkpt lat="43.59888" lon="3.20286">
        <ele>321.42911</ele>
        <time>2025-10-23T11:19:32Z</time>
      </trkpt>
      <trkpt lat="43.59887" lon="3.20287">
        <ele>321.548687</ele>
        <time>2025-10-23T11:19:33Z</time>
      </trkpt>
      <trkpt lat="43.59885" lon="3.20288">
        <ele>321.662735</ele>
        <time>2025-10-23T11:19:34Z</time>
      </trkpt>
      <trkpt lat="43.59884" lon="3.20289">
        <ele>321.76962</ele>
        <time>2025-10-23T11:19:35Z</time>
      </trkpt>
      <trkpt lat="43.59882" lon="3.20289">
        <ele>321.887709</ele>
        <time>2025-10-23T11:19:36Z</time>
      </trkpt>
      <trkpt lat="43.5988" lon="3.2029">
        <ele>322.007286</ele>
        <time>2025-10-23T11:19:37Z</time>
      </trkpt>
      <trkpt lat="43.59879" lon="3.20291">
        <ele>322.121335</ele>
        <time>2025-10-23T11:19:38Z</time>
      </trkpt>
      <trkpt lat="43.59877" lon="3.20292">
        <ele>322.247349</ele>
        <time>2025-10-23T11:19:39Z</time>
      </trkpt>
      <trkpt lat="43.59876" lon="3.20293">
        <ele>322.385692</ele>
        <time>2025-10-23T11:19:40Z</time>
      </trkpt>
      <trkpt lat="43.59874" lon="3.20294">
        <ele>322.519981</ele>
        <time>2025-10-23T11:19:41Z</time>
      </trkpt>
      <trkpt lat="43.59872" lon="3.20296">
        <ele>322.662969</ele>
        <time>2025-10-23T11:19:42Z</time>
      </trkpt>
      <trkpt lat="43.5987" lon="3.20297">
        <ele>322.788983</ele>
        <time>2025-10-23T11:19:43Z</time>
      </trkpt>
      <trkpt lat="43.59869" lon="3.20298">
        <ele>322.906535</ele>
        <time>2025-10-23T11:19:44Z</time>
      </trkpt>
      <trkpt lat="43.59867" lon="3.20299">
        <ele>323.02911</ele>
        <time>2025-10-23T11:19:45Z</time>
      </trkpt>
      <trkpt lat="43.59866" lon="3.203">
        <ele>323.146365</ele>
        <time>2025-10-23T11:19:46Z</time>
      </trkpt>
      <trkpt lat="43.59865" lon="3.20303">
        <ele>323.287961</ele>
        <time>2025-10-23T11:19:47Z</time>
      </trkpt>
      <trkpt lat="43.59864" lon="3.20306">
        <ele>323.436434</ele>
        <time>2025-10-23T11:19:48Z</time>
      </trkpt>
      <trkpt lat="43.59864" lon="3.20309">
        <ele>323.590735</ele>
        <time>2025-10-23T11:19:49Z</time>
      </trkpt>
      <trkpt lat="43.59864" lon="3.20312">
        <ele>323.731252</ele>
        <time>2025-10-23T11:19:50Z</time>
      </trkpt>
      <trkpt lat="43.59865" lon="3.20314">
        <ele>323.863262</ele>
        <time>2025-10-23T11:19:51Z</time>
      </trkpt>
      <trkpt lat="43.59865" lon="3.20316">
        <ele>323.96567</ele>
        <time>2025-10-23T11:19:52Z</time>
      </trkpt>
      <trkpt lat="43.59866" lon="3.20317">
        <ele>324.055816</ele>
        <time>2025-10-23T11:19:53Z</time>
      </trkpt>
      <trkpt lat="43.59867" lon="3.20318">
        <ele>324.146969</ele>
        <time>2025-10-23T11:19:54Z</time>
      </trkpt>
      <trkpt lat="43.59868" lon="3.20319">
        <ele>324.206788</ele>
        <time>2025-10-23T11:19:55Z</time>
      </trkpt>
      <trkpt lat="43.59868" lon="3.20319">
        <ele>324.234474</ele>
        <time>2025-10-23T11:19:56Z</time>
      </trkpt>
      <trkpt lat="43.59868" lon="3.20319">
        <ele>324.241395</ele>
        <time>2025-10-23T11:19:57Z</time>
      </trkpt>
      <trkpt lat="43.59868" lon="3.20319">
        <ele>324.249941</ele>
        <time>2025-10-23T11:19:58Z</time>
      </trkpt>
      <trkpt lat="43.59868" lon="3.20319">
        <ele>324.262123</ele>
        <time>2025-10-23T11:19:59Z</time>
      </trkpt>
      <trkpt lat="43.59869" lon="3.20319">
        <ele>324.291567</ele>
        <time>2025-10-23T11:20:48Z</time>
      </trkpt>
      <trkpt lat="43.59869" lon="3.20319">
        <ele>324.298488</ele>
        <time>2025-10-23T11:20:49Z</time>
      </trkpt>
      <trkpt lat="43.59869" lon="3.20319">
        <ele>324.322852</ele>
        <time>2025-10-23T11:20:50Z</time>
      </trkpt>
      <trkpt lat="43.59868" lon="3.20317">
        <ele>324.426852</ele>
        <time>2025-10-23T11:20:51Z</time>
      </trkpt>
      <trkpt lat="43.59868" lon="3.20316">
        <ele>324.446901</ele>
        <time>2025-10-23T11:20:52Z</time>
      </trkpt>
      <trkpt lat="43.59868" lon="3.20315">
        <ele>324.489322</ele>
        <time>2025-10-23T11:20:53Z</time>
      </trkpt>
      <trkpt lat="43.59868" lon="3.20316">
        <ele>324.504044</ele>
        <time>2025-10-23T11:20:54Z</time>
      </trkpt>
      <trkpt lat="43.59868" lon="3.20315">
        <ele>324.541763</ele>
        <time>2025-10-23T11:20:55Z</time>
      </trkpt>
      <trkpt lat="43.59867" lon="3.20313">
        <ele>324.635137</ele>
        <time>2025-10-23T11:20:56Z</time>
      </trkpt>
      <trkpt lat="43.59866" lon="3.20313">
        <ele>324.730007</ele>
        <time>2025-10-23T11:20:57Z</time>
      </trkpt>
      <trkpt lat="43.59865" lon="3.20312">
        <ele>324.846174</ele>
        <time>2025-10-23T11:20:58Z</time>
      </trkpt>
      <trkpt lat="43.59863" lon="3.20311">
        <ele>324.963726</ele>
        <time>2025-10-23T11:20:59Z</time>
      </trkpt>
      <trkpt lat="43.59861" lon="3.2031">
        <ele>325.116722</ele>
        <time>2025-10-23T11:21:00Z</time>
      </trkpt>
      <trkpt lat="43.59859" lon="3.20308">
        <ele>325.276008</ele>
        <time>2025-10-23T11:21:01Z</time>
      </trkpt>
      <trkpt lat="43.59857" lon="3.20307">
        <ele>325.435294</ele>
        <time>2025-10-23T11:21:02Z</time>
      </trkpt>
      <trkpt lat="43.59855" lon="3.20306">
        <ele>325.605114</ele>
        <time>2025-10-23T11:21:03Z</time>
      </trkpt>
      <trkpt lat="43.59852" lon="3.20304">
        <ele>325.774934</ele>
        <time>2025-10-23T11:21:04Z</time>
      </trkpt>
      <trkpt lat="43.5985" lon="3.20303">
        <ele>325.91659</ele>
        <time>2025-10-23T11:21:05Z</time>
      </trkpt>
      <trkpt lat="43.59848" lon="3.20304">
        <ele>326.055107</ele>
        <time>2025-10-23T11:21:06Z</time>
      </trkpt>
      <trkpt lat="43.59846" lon="3.20304">
        <ele>326.200455</ele>
        <time>2025-10-23T11:21:07Z</time>
      </trkpt>
      <trkpt lat="43.59844" lon="3.20303">
        <ele>326.345889</ele>
        <time>2025-10-23T11:21:08Z</time>
      </trkpt>
      <trkpt lat="43.59842" lon="3.20304">
        <ele>326.493382</ele>
        <time>2025-10-23T11:21:09Z</time>
      </trkpt>
      <trkpt lat="43.5984" lon="3.20304">
        <ele>326.640107</ele>
        <time>2025-10-23T11:21:10Z</time>
      </trkpt>
      <trkpt lat="43.59838" lon="3.20305">
        <ele>326.773132</ele>
        <time>2025-10-23T11:21:11Z</time>
      </trkpt>
      <trkpt lat="43.59836" lon="3.20305">
        <ele>326.911921</ele>
        <time>2025-10-23T11:21:12Z</time>
      </trkpt>
      <trkpt lat="43.59834" lon="3.20305">
        <ele>327.050438</ele>
        <time>2025-10-23T11:21:13Z</time>
      </trkpt>
      <trkpt lat="43.59832" lon="3.20305">
        <ele>327.175123</ele>
        <time>2025-10-23T11:21:14Z</time>
      </trkpt>
      <trkpt lat="43.5983" lon="3.20304">
        <ele>327.314364</ele>
        <time>2025-10-23T11:21:15Z</time>
      </trkpt>
      <trkpt lat="43.59828" lon="3.20304">
        <ele>327.45602</ele>
        <time>2025-10-23T11:21:16Z</time>
      </trkpt>
      <trkpt lat="43.59826" lon="3.20304">
        <ele>327.595261</ele>
        <time>2025-10-23T11:21:17Z</time>
      </trkpt>
      <trkpt lat="43.59824" lon="3.20303">
        <ele>327.740695</ele>
        <time>2025-10-23T11:21:18Z</time>
      </trkpt>
      <trkpt lat="43.59822" lon="3.20303">
        <ele>327.892965</ele>
        <time>2025-10-23T11:21:19Z</time>
      </trkpt>
      <trkpt lat="43.5982" lon="3.20303">
        <ele>328.059379</ele>
        <time>2025-10-23T11:21:20Z</time>
      </trkpt>
      <trkpt lat="43.59817" lon="3.20303">
        <ele>328.219278</ele>
        <time>2025-10-23T11:21:21Z</time>
      </trkpt>
      <trkpt lat="43.59815" lon="3.20303">
        <ele>328.385466</ele>
        <time>2025-10-23T11:21:22Z</time>
      </trkpt>
      <trkpt lat="43.59813" lon="3.20303">
        <ele>328.540112</ele>
        <time>2025-10-23T11:21:23Z</time>
      </trkpt>
      <trkpt lat="43.59811" lon="3.20303">
        <ele>328.70737</ele>
        <time>2025-10-23T11:21:24Z</time>
      </trkpt>
      <trkpt lat="43.59809" lon="3.20303">
        <ele>328.858779</ele>
        <time>2025-10-23T11:21:25Z</time>
      </trkpt>
      <trkpt lat="43.59807" lon="3.20303">
        <ele>328.994347</ele>
        <time>2025-10-23T11:21:26Z</time>
      </trkpt>
      <trkpt lat="43.59805" lon="3.20303">
        <ele>329.122647</ele>
        <time>2025-10-23T11:21:27Z</time>
      </trkpt>
      <trkpt lat="43.59804" lon="3.20303">
        <ele>329.273727</ele>
        <time>2025-10-23T11:21:28Z</time>
      </trkpt>
      <trkpt lat="43.59802" lon="3.20303">
        <ele>329.424807</ele>
        <time>2025-10-23T11:21:29Z</time>
      </trkpt>
      <trkpt lat="43.598" lon="3.20303">
        <ele>329.576216</ele>
        <time>2025-10-23T11:21:30Z</time>
      </trkpt>
      <trkpt lat="43.59798" lon="3.20303">
        <ele>329.728931</ele>
        <time>2025-10-23T11:21:31Z</time>
      </trkpt>
      <trkpt lat="43.59796" lon="3.20302">
        <ele>329.864499</ele>
        <time>2025-10-23T11:21:32Z</time>
      </trkpt>
      <trkpt lat="43.59794" lon="3.20302">
        <ele>330.00764</ele>
        <time>2025-10-23T11:21:33Z</time>
      </trkpt>
      <trkpt lat="43.59793" lon="3.20302">
        <ele>330.151702</ele>
        <time>2025-10-23T11:21:34Z</time>
      </trkpt>
      <trkpt lat="43.59791" lon="3.20302">
        <ele>330.273092</ele>
        <time>2025-10-23T11:21:35Z</time>
      </trkpt>
      <trkpt lat="43.59789" lon="3.20302">
        <ele>330.425046</ele>
        <time>2025-10-23T11:21:36Z</time>
      </trkpt>
      <trkpt lat="43.59787" lon="3.20302">
        <ele>330.576126</ele>
        <time>2025-10-23T11:21:37Z</time>
      </trkpt>
      <trkpt lat="43.59785" lon="3.20302">
        <ele>330.743385</ele>
        <time>2025-10-23T11:21:38Z</time>
      </trkpt>
      <trkpt lat="43.59783" lon="3.20301">
        <ele>330.911138</ele>
        <time>2025-10-23T11:21:39Z</time>
      </trkpt>
      <trkpt lat="43.59781" lon="3.20301">
        <ele>331.070054</ele>
        <time>2025-10-23T11:21:40Z</time>
      </trkpt>
      <trkpt lat="43.59779" lon="3.20301">
        <ele>331.245712</ele>
        <time>2025-10-23T11:21:41Z</time>
      </trkpt>
      <trkpt lat="43.59777" lon="3.20301">
        <ele>331.413465</ele>
        <time>2025-10-23T11:21:42Z</time>
      </trkpt>
      <trkpt lat="43.59775" lon="3.20301">
        <ele>331.581218</ele>
        <time>2025-10-23T11:21:43Z</time>
      </trkpt>
      <trkpt lat="43.59773" lon="3.203">
        <ele>331.724705</ele>
        <time>2025-10-23T11:21:44Z</time>
      </trkpt>
      <trkpt lat="43.59771" lon="3.203">
        <ele>331.879573</ele>
        <time>2025-10-23T11:21:45Z</time>
      </trkpt>
      <trkpt lat="43.59769" lon="3.203">
        <ele>332.02306</ele>
        <time>2025-10-23T11:21:46Z</time>
      </trkpt>
      <trkpt lat="43.59767" lon="3.20299">
        <ele>332.16895</ele>
        <time>2025-10-23T11:21:47Z</time>
      </trkpt>
      <trkpt lat="43.59766" lon="3.20299">
        <ele>332.313013</ele>
        <time>2025-10-23T11:21:48Z</time>
      </trkpt>
      <trkpt lat="43.59764" lon="3.20299">
        <ele>332.464093</ele>
        <time>2025-10-23T11:21:49Z</time>
      </trkpt>
      <trkpt lat="43.59762" lon="3.20298">
        <ele>332.620345</ele>
        <time>2025-10-23T11:21:50Z</time>
      </trkpt>
      <trkpt lat="43.5976" lon="3.20297">
        <ele>332.750693</ele>
        <time>2025-10-23T11:21:51Z</time>
      </trkpt>
      <trkpt lat="43.59758" lon="3.20297">
        <ele>332.89165</ele>
        <time>2025-10-23T11:21:52Z</time>
      </trkpt>
      <trkpt lat="43.59757" lon="3.20296">
        <ele>333.025012</ele>
        <time>2025-10-23T11:21:53Z</time>
      </trkpt>
      <trkpt lat="43.59755" lon="3.20295">
        <ele>333.174186</ele>
        <time>2025-10-23T11:21:54Z</time>
      </trkpt>
      <trkpt lat="43.59754" lon="3.20294">
        <ele>333.305924</ele>
        <time>2025-10-23T11:21:55Z</time>
      </trkpt>
      <trkpt lat="43.59752" lon="3.20294">
        <ele>333.445346</ele>
        <time>2025-10-23T11:21:56Z</time>
      </trkpt>
      <trkpt lat="43.5975" lon="3.20293">
        <ele>333.591236</ele>
        <time>2025-10-23T11:21:57Z</time>
      </trkpt>
      <trkpt lat="43.59748" lon="3.20294">
        <ele>333.769421</ele>
        <time>2025-10-23T11:21:58Z</time>
      </trkpt>
      <trkpt lat="43.59746" lon="3.20293">
        <ele>333.932044</ele>
        <time>2025-10-23T11:21:59Z</time>
      </trkpt>
      <trkpt lat="43.59744" lon="3.20293">
        <ele>334.102441</ele>
        <time>2025-10-23T11:22:00Z</time>
      </trkpt>
      <trkpt lat="43.59742" lon="3.20292">
        <ele>334.275537</ele>
        <time>2025-10-23T11:22:01Z</time>
      </trkpt>
      <trkpt lat="43.5974" lon="3.20291">
        <ele>334.435144</ele>
        <time>2025-10-23T11:22:02Z</time>
      </trkpt>
      <trkpt lat="43.59738" lon="3.2029">
        <ele>334.585395</ele>
        <time>2025-10-23T11:22:03Z</time>
      </trkpt>
      <trkpt lat="43.59736" lon="3.2029">
        <ele>334.736803</ele>
        <time>2025-10-23T11:22:04Z</time>
      </trkpt>
      <trkpt lat="43.59734" lon="3.2029">
        <ele>334.887883</ele>
        <time>2025-10-23T11:22:05Z</time>
      </trkpt>
      <trkpt lat="43.59732" lon="3.2029">
        <ele>335.038854</ele>
        <time>2025-10-23T11:22:06Z</time>
      </trkpt>
      <trkpt lat="43.59731" lon="3.2029">
        <ele>335.166117</ele>
        <time>2025-10-23T11:22:07Z</time>
      </trkpt>
      <trkpt lat="43.59729" lon="3.2029">
        <ele>335.317526</ele>
        <time>2025-10-23T11:22:08Z</time>
      </trkpt>
      <trkpt lat="43.59727" lon="3.2029">
        <ele>335.461013</ele>
        <time>2025-10-23T11:22:09Z</time>
      </trkpt>
      <trkpt lat="43.59725" lon="3.2029">
        <ele>335.6045</ele>
        <time>2025-10-23T11:22:10Z</time>
      </trkpt>
      <trkpt lat="43.59723" lon="3.2029">
        <ele>335.740677</ele>
        <time>2025-10-23T11:22:11Z</time>
      </trkpt>
      <trkpt lat="43.59722" lon="3.2029">
        <ele>335.883818</ele>
        <time>2025-10-23T11:22:12Z</time>
      </trkpt>
      <trkpt lat="43.5972" lon="3.2029">
        <ele>336.042838</ele>
        <time>2025-10-23T11:22:13Z</time>
      </trkpt>
      <trkpt lat="43.59718" lon="3.2029">
        <ele>336.209701</ele>
        <time>2025-10-23T11:22:14Z</time>
      </trkpt>
      <trkpt lat="43.59715" lon="3.2029">
        <ele>336.392545</ele>
        <time>2025-10-23T11:22:15Z</time>
      </trkpt>
      <trkpt lat="43.59713" lon="3.2029">
        <ele>336.551461</ele>
        <time>2025-10-23T11:22:16Z</time>
      </trkpt>
      <trkpt lat="43.59711" lon="3.2029">
        <ele>336.710482</ele>
        <time>2025-10-23T11:22:17Z</time>
      </trkpt>
      <trkpt lat="43.59709" lon="3.2029">
        <ele>336.861562</ele>
        <time>2025-10-23T11:22:18Z</time>
      </trkpt>
      <trkpt lat="43.59707" lon="3.2029">
        <ele>337.020583</ele>
        <time>2025-10-23T11:22:19Z</time>
      </trkpt>
      <trkpt lat="43.59705" lon="3.2029">
        <ele>337.179915</ele>
        <time>2025-10-23T11:22:20Z</time>
      </trkpt>
      <trkpt lat="43.59703" lon="3.20291">
        <ele>337.342539</ele>
        <time>2025-10-23T11:22:21Z</time>
      </trkpt>
      <trkpt lat="43.59701" lon="3.20291">
        <ele>337.5095</ele>
        <time>2025-10-23T11:22:22Z</time>
      </trkpt>
      <trkpt lat="43.59699" lon="3.2029">
        <ele>337.679897</ele>
        <time>2025-10-23T11:22:23Z</time>
      </trkpt>
      <trkpt lat="43.59697" lon="3.2029">
        <ele>337.848339</ele>
        <time>2025-10-23T11:22:24Z</time>
      </trkpt>
      <trkpt lat="43.59695" lon="3.20289">
        <ele>337.99148</ele>
        <time>2025-10-23T11:22:25Z</time>
      </trkpt>
      <trkpt lat="43.59694" lon="3.20289">
        <ele>338.110806</ele>
        <time>2025-10-23T11:22:26Z</time>
      </trkpt>
      <trkpt lat="43.59692" lon="3.20289">
        <ele>338.233417</ele>
        <time>2025-10-23T11:22:27Z</time>
      </trkpt>
      <trkpt lat="43.59691" lon="3.20288">
        <ele>338.348968</ele>
        <time>2025-10-23T11:22:28Z</time>
      </trkpt>
      <trkpt lat="43.59689" lon="3.20287">
        <ele>338.473056</ele>
        <time>2025-10-23T11:22:29Z</time>
      </trkpt>
      <trkpt lat="43.59688" lon="3.20287">
        <ele>338.602256</ele>
        <time>2025-10-23T11:22:30Z</time>
      </trkpt>
      <trkpt lat="43.59686" lon="3.20287">
        <ele>338.753665</ele>
        <time>2025-10-23T11:22:31Z</time>
      </trkpt>
      <trkpt lat="43.59684" lon="3.20286">
        <ele>338.907352</ele>
        <time>2025-10-23T11:22:32Z</time>
      </trkpt>
      <trkpt lat="43.59682" lon="3.20286">
        <ele>339.079008</ele>
        <time>2025-10-23T11:22:33Z</time>
      </trkpt>
      <trkpt lat="43.5968" lon="3.20285">
        <ele>339.258397</ele>
        <time>2025-10-23T11:22:34Z</time>
      </trkpt>
      <trkpt lat="43.59678" lon="3.20284">
        <ele>339.418003</ele>
        <time>2025-10-23T11:22:35Z</time>
      </trkpt>
      <trkpt lat="43.59676" lon="3.20283">
        <ele>339.569709</ele>
        <time>2025-10-23T11:22:36Z</time>
      </trkpt>
      <trkpt lat="43.59675" lon="3.20281">
        <ele>339.717219</ele>
        <time>2025-10-23T11:22:37Z</time>
      </trkpt>
      <trkpt lat="43.59673" lon="3.2028">
        <ele>339.861079</ele>
        <time>2025-10-23T11:22:38Z</time>
      </trkpt>
      <trkpt lat="43.59672" lon="3.20279">
        <ele>339.995135</ele>
        <time>2025-10-23T11:22:39Z</time>
      </trkpt>
      <trkpt lat="43.5967" lon="3.20278">
        <ele>340.145386</ele>
        <time>2025-10-23T11:22:40Z</time>
      </trkpt>
      <trkpt lat="43.59668" lon="3.20276">
        <ele>340.313067</ele>
        <time>2025-10-23T11:22:41Z</time>
      </trkpt>
      <trkpt lat="43.59667" lon="3.20274">
        <ele>340.444251</ele>
        <time>2025-10-23T11:22:42Z</time>
      </trkpt>
      <trkpt lat="43.59666" lon="3.20273">
        <ele>340.594859</ele>
        <time>2025-10-23T11:22:43Z</time>
      </trkpt>
      <trkpt lat="43.59664" lon="3.20271">
        <ele>340.785865</ele>
        <time>2025-10-23T11:22:44Z</time>
      </trkpt>
      <trkpt lat="43.59662" lon="3.20269">
        <ele>340.937863</ele>
        <time>2025-10-23T11:22:45Z</time>
      </trkpt>
      <trkpt lat="43.59661" lon="3.20267">
        <ele>341.078648</ele>
        <time>2025-10-23T11:22:46Z</time>
      </trkpt>
      <trkpt lat="43.5966" lon="3.20265">
        <ele>341.23258</ele>
        <time>2025-10-23T11:22:47Z</time>
      </trkpt>
      <trkpt lat="43.59659" lon="3.20263">
        <ele>341.374847</ele>
        <time>2025-10-23T11:22:48Z</time>
      </trkpt>
      <trkpt lat="43.59658" lon="3.20262">
        <ele>341.49604</ele>
        <time>2025-10-23T11:22:49Z</time>
      </trkpt>
      <trkpt lat="43.59656" lon="3.2026">
        <ele>341.627037</ele>
        <time>2025-10-23T11:22:50Z</time>
      </trkpt>
      <trkpt lat="43.59655" lon="3.20258">
        <ele>341.791287</ele>
        <time>2025-10-23T11:22:51Z</time>
      </trkpt>
      <trkpt lat="43.59653" lon="3.20256">
        <ele>341.95135</ele>
        <time>2025-10-23T11:22:52Z</time>
      </trkpt>
      <trkpt lat="43.59652" lon="3.20255">
        <ele>342.103349</ele>
        <time>2025-10-23T11:22:53Z</time>
      </trkpt>
      <trkpt lat="43.59651" lon="3.20253">
        <ele>342.244151</ele>
        <time>2025-10-23T11:22:54Z</time>
      </trkpt>
      <trkpt lat="43.59649" lon="3.20251">
        <ele>342.413883</ele>
        <time>2025-10-23T11:22:55Z</time>
      </trkpt>
      <trkpt lat="43.59648" lon="3.20249">
        <ele>342.583614</ele>
        <time>2025-10-23T11:22:56Z</time>
      </trkpt>
      <trkpt lat="43.59646" lon="3.20247">
        <ele>342.755103</ele>
        <time>2025-10-23T11:22:57Z</time>
      </trkpt>
      <trkpt lat="43.59645" lon="3.20246">
        <ele>342.889563</ele>
        <time>2025-10-23T11:22:58Z</time>
      </trkpt>
      <trkpt lat="43.59643" lon="3.20244">
        <ele>343.034656</ele>
        <time>2025-10-23T11:22:59Z</time>
      </trkpt>
      <trkpt lat="43.59642" lon="3.20243">
        <ele>343.163464</ele>
        <time>2025-10-23T11:23:00Z</time>
      </trkpt>
      <trkpt lat="43.59641" lon="3.20241">
        <ele>343.304971</ele>
        <time>2025-10-23T11:23:01Z</time>
      </trkpt>
      <trkpt lat="43.59639" lon="3.2024">
        <ele>343.445537</ele>
        <time>2025-10-23T11:23:02Z</time>
      </trkpt>
      <trkpt lat="43.59638" lon="3.20239">
        <ele>343.603356</ele>
        <time>2025-10-23T11:23:03Z</time>
      </trkpt>
      <trkpt lat="43.59636" lon="3.20238">
        <ele>343.735275</ele>
        <time>2025-10-23T11:23:04Z</time>
      </trkpt>
      <trkpt lat="43.59635" lon="3.20237">
        <ele>343.884192</ele>
        <time>2025-10-23T11:23:05Z</time>
      </trkpt>
      <trkpt lat="43.59633" lon="3.20236">
        <ele>344.028628</ele>
        <time>2025-10-23T11:23:06Z</time>
      </trkpt>
      <trkpt lat="43.59631" lon="3.20235">
        <ele>344.178266</ele>
        <time>2025-10-23T11:23:07Z</time>
      </trkpt>
      <trkpt lat="43.5963" lon="3.20234">
        <ele>344.342268</ele>
        <time>2025-10-23T11:23:08Z</time>
      </trkpt>
      <trkpt lat="43.59628" lon="3.20233">
        <ele>344.480403</ele>
        <time>2025-10-23T11:23:09Z</time>
      </trkpt>
      <trkpt lat="43.59626" lon="3.20232">
        <ele>344.624347</ele>
        <time>2025-10-23T11:23:10Z</time>
      </trkpt>
      <trkpt lat="43.59625" lon="3.20232">
        <ele>344.74648</ele>
        <time>2025-10-23T11:23:11Z</time>
      </trkpt>
      <trkpt lat="43.59624" lon="3.20231">
        <ele>344.875045</ele>
        <time>2025-10-23T11:23:12Z</time>
      </trkpt>
      <trkpt lat="43.59622" lon="3.20231">
        <ele>344.993085</ele>
        <time>2025-10-23T11:23:13Z</time>
      </trkpt>
      <trkpt lat="43.59621" lon="3.20231">
        <ele>345.1122</ele>
        <time>2025-10-23T11:23:14Z</time>
      </trkpt>
      <trkpt lat="43.59619" lon="3.2023">
        <ele>345.245643</ele>
        <time>2025-10-23T11:23:15Z</time>
      </trkpt>
      <trkpt lat="43.59617" lon="3.20231">
        <ele>345.396702</ele>
        <time>2025-10-23T11:23:16Z</time>
      </trkpt>
      <trkpt lat="43.59616" lon="3.20231">
        <ele>345.522259</ele>
        <time>2025-10-23T11:23:17Z</time>
      </trkpt>
      <trkpt lat="43.59614" lon="3.20231">
        <ele>345.64738</ele>
        <time>2025-10-23T11:23:18Z</time>
      </trkpt>
      <trkpt lat="43.59613" lon="3.20231">
        <ele>345.780687</ele>
        <time>2025-10-23T11:23:19Z</time>
      </trkpt>
      <trkpt lat="43.59611" lon="3.20232">
        <ele>345.933662</ele>
        <time>2025-10-23T11:23:20Z</time>
      </trkpt>
      <trkpt lat="43.59609" lon="3.20232">
        <ele>346.092995</ele>
        <time>2025-10-23T11:23:21Z</time>
      </trkpt>
      <trkpt lat="43.59607" lon="3.20232">
        <ele>346.247274</ele>
        <time>2025-10-23T11:23:22Z</time>
      </trkpt>
      <trkpt lat="43.59605" lon="3.20234">
        <ele>346.411276</ele>
        <time>2025-10-23T11:23:23Z</time>
      </trkpt>
      <trkpt lat="43.59604" lon="3.20234">
        <ele>346.545249</ele>
        <time>2025-10-23T11:23:24Z</time>
      </trkpt>
      <trkpt lat="43.59602" lon="3.20235">
        <ele>346.681514</ele>
        <time>2025-10-23T11:23:25Z</time>
      </trkpt>
      <trkpt lat="43.59601" lon="3.20236">
        <ele>346.798291</ele>
        <time>2025-10-23T11:23:26Z</time>
      </trkpt>
      <trkpt lat="43.596" lon="3.20237">
        <ele>346.912493</ele>
        <time>2025-10-23T11:23:27Z</time>
      </trkpt>
      <trkpt lat="43.59598" lon="3.20237">
        <ele>347.054132</ele>
        <time>2025-10-23T11:23:28Z</time>
      </trkpt>
      <trkpt lat="43.59597" lon="3.20237">
        <ele>347.196284</ele>
        <time>2025-10-23T11:23:29Z</time>
      </trkpt>
      <trkpt lat="43.59595" lon="3.20237">
        <ele>347.337923</ele>
        <time>2025-10-23T11:23:30Z</time>
      </trkpt>
      <trkpt lat="43.59593" lon="3.20237">
        <ele>347.472453</ele>
        <time>2025-10-23T11:23:31Z</time>
      </trkpt>
      <trkpt lat="43.59592" lon="3.20237">
        <ele>347.614605</ele>
        <time>2025-10-23T11:23:32Z</time>
      </trkpt>
      <trkpt lat="43.5959" lon="3.20237">
        <ele>347.748048</ele>
        <time>2025-10-23T11:23:33Z</time>
      </trkpt>
      <trkpt lat="43.59588" lon="3.20237">
        <ele>347.923118</ele>
        <time>2025-10-23T11:23:34Z</time>
      </trkpt>
      <trkpt lat="43.59586" lon="3.20237">
        <ele>348.073209</ele>
        <time>2025-10-23T11:23:35Z</time>
      </trkpt>
      <trkpt lat="43.59584" lon="3.20237">
        <ele>348.207062</ele>
        <time>2025-10-23T11:23:36Z</time>
      </trkpt>
      <trkpt lat="43.59582" lon="3.20237">
        <ele>348.373805</ele>
        <time>2025-10-23T11:23:37Z</time>
      </trkpt>
      <trkpt lat="43.59581" lon="3.20237">
        <ele>348.533936</ele>
        <time>2025-10-23T11:23:38Z</time>
      </trkpt>
      <trkpt lat="43.59579" lon="3.20236">
        <ele>348.684995</ele>
        <time>2025-10-23T11:23:39Z</time>
      </trkpt>
      <trkpt lat="43.59577" lon="3.20236">
        <ele>348.843412</ele>
        <time>2025-10-23T11:23:40Z</time>
      </trkpt>
      <trkpt lat="43.59575" lon="3.20237">
        <ele>349.010482</ele>
        <time>2025-10-23T11:23:41Z</time>
      </trkpt>
      <trkpt lat="43.59573" lon="3.20237">
        <ele>349.143926</ele>
        <time>2025-10-23T11:23:42Z</time>
      </trkpt>
      <trkpt lat="43.59572" lon="3.20237">
        <ele>349.282061</ele>
        <time>2025-10-23T11:23:43Z</time>
      </trkpt>
      <trkpt lat="43.5957" lon="3.20238">
        <ele>349.417536</ele>
        <time>2025-10-23T11:23:44Z</time>
      </trkpt>
      <trkpt lat="43.59568" lon="3.20239">
        <ele>349.604359</ele>
        <time>2025-10-23T11:23:45Z</time>
      </trkpt>
      <trkpt lat="43.59566" lon="3.2024">
        <ele>349.750686</ele>
        <time>2025-10-23T11:23:46Z</time>
      </trkpt>
      <trkpt lat="43.59565" lon="3.20241">
        <ele>349.892194</ele>
        <time>2025-10-23T11:23:47Z</time>
      </trkpt>
      <trkpt lat="43.59563" lon="3.20243">
        <ele>350.050117</ele>
        <time>2025-10-23T11:23:48Z</time>
      </trkpt>
      <trkpt lat="43.59562" lon="3.20245">
        <ele>350.209498</ele>
        <time>2025-10-23T11:23:49Z</time>
      </trkpt>
      <trkpt lat="43.59561" lon="3.20246">
        <ele>350.362887</ele>
        <time>2025-10-23T11:23:50Z</time>
      </trkpt>
      <trkpt lat="43.5956" lon="3.20248">
        <ele>350.500443</ele>
        <time>2025-10-23T11:23:51Z</time>
      </trkpt>
      <trkpt lat="43.59559" lon="3.2025">
        <ele>350.637434</ele>
        <time>2025-10-23T11:23:52Z</time>
      </trkpt>
      <trkpt lat="43.59558" lon="3.20252">
        <ele>350.774425</ele>
        <time>2025-10-23T11:23:53Z</time>
      </trkpt>
      <trkpt lat="43.59557" lon="3.20254">
        <ele>350.899496</ele>
        <time>2025-10-23T11:23:54Z</time>
      </trkpt>
      <trkpt lat="43.59557" lon="3.20256">
        <ele>351.018888</ele>
        <time>2025-10-23T11:23:55Z</time>
      </trkpt>
      <trkpt lat="43.59557" lon="3.20258">
        <ele>351.139856</ele>
        <time>2025-10-23T11:23:56Z</time>
      </trkpt>
      <trkpt lat="43.59556" lon="3.2026">
        <ele>351.257195</ele>
        <time>2025-10-23T11:23:57Z</time>
      </trkpt>
      <trkpt lat="43.59556" lon="3.20261">
        <ele>351.376587</ele>
        <time>2025-10-23T11:23:58Z</time>
      </trkpt>
      <trkpt lat="43.59555" lon="3.20264">
        <ele>351.512806</ele>
        <time>2025-10-23T11:23:59Z</time>
      </trkpt>
      <trkpt lat="43.59555" lon="3.20265">
        <ele>351.641434</ele>
        <time>2025-10-23T11:24:00Z</time>
      </trkpt>
      <trkpt lat="43.59554" lon="3.20268">
        <ele>351.778302</ele>
        <time>2025-10-23T11:24:01Z</time>
      </trkpt>
      <trkpt lat="43.59553" lon="3.2027">
        <ele>351.950632</ele>
        <time>2025-10-23T11:24:02Z</time>
      </trkpt>
      <trkpt lat="43.59553" lon="3.20273">
        <ele>352.106751</ele>
        <time>2025-10-23T11:24:03Z</time>
      </trkpt>
      <trkpt lat="43.59551" lon="3.20275">
        <ele>352.272939</ele>
        <time>2025-10-23T11:24:04Z</time>
      </trkpt>
      <trkpt lat="43.5955" lon="3.20277">
        <ele>352.448984</ele>
        <time>2025-10-23T11:24:05Z</time>
      </trkpt>
      <trkpt lat="43.59549" lon="3.20279">
        <ele>352.615172</ele>
        <time>2025-10-23T11:24:06Z</time>
      </trkpt>
      <trkpt lat="43.59548" lon="3.20281">
        <ele>352.783009</ele>
        <time>2025-10-23T11:24:07Z</time>
      </trkpt>
      <trkpt lat="43.59546" lon="3.20283">
        <ele>352.932187</ele>
        <time>2025-10-23T11:24:08Z</time>
      </trkpt>
      <trkpt lat="43.59545" lon="3.20284">
        <ele>353.07974</ele>
        <time>2025-10-23T11:24:09Z</time>
      </trkpt>
      <trkpt lat="43.59543" lon="3.20285">
        <ele>353.231443</ele>
        <time>2025-10-23T11:24:10Z</time>
      </trkpt>
      <trkpt lat="43.59542" lon="3.20287">
        <ele>353.378996</ele>
        <time>2025-10-23T11:24:11Z</time>
      </trkpt>
      <trkpt lat="43.5954" lon="3.20288">
        <ele>353.551122</ele>
        <time>2025-10-23T11:24:12Z</time>
      </trkpt>
      <trkpt lat="43.59538" lon="3.20289">
        <ele>353.705079</ele>
        <time>2025-10-23T11:24:13Z</time>
      </trkpt>
      <trkpt lat="43.59536" lon="3.2029">
        <ele>353.852881</ele>
        <time>2025-10-23T11:24:14Z</time>
      </trkpt>
      <trkpt lat="43.59535" lon="3.2029">
        <ele>353.98956</ele>
        <time>2025-10-23T11:24:15Z</time>
      </trkpt>
      <trkpt lat="43.59534" lon="3.20291">
        <ele>354.101995</ele>
        <time>2025-10-23T11:24:16Z</time>
      </trkpt>
      <trkpt lat="43.59532" lon="3.20291">
        <ele>354.228274</ele>
        <time>2025-10-23T11:24:17Z</time>
      </trkpt>
      <trkpt lat="43.5953" lon="3.20291">
        <ele>354.378366</ele>
        <time>2025-10-23T11:24:18Z</time>
      </trkpt>
      <trkpt lat="43.59528" lon="3.20291">
        <ele>354.528458</ele>
        <time>2025-10-23T11:24:19Z</time>
      </trkpt>
      <trkpt lat="43.59527" lon="3.20291">
        <ele>354.670225</ele>
        <time>2025-10-23T11:24:20Z</time>
      </trkpt>
      <trkpt lat="43.59525" lon="3.20291">
        <ele>354.7952</ele>
        <time>2025-10-23T11:24:21Z</time>
      </trkpt>
      <trkpt lat="43.59524" lon="3.20291">
        <ele>354.928644</ele>
        <time>2025-10-23T11:24:22Z</time>
      </trkpt>
      <trkpt lat="43.59522" lon="3.20291">
        <ele>355.078614</ele>
        <time>2025-10-23T11:24:23Z</time>
      </trkpt>
      <trkpt lat="43.5952" lon="3.20291">
        <ele>355.22343</ele>
        <time>2025-10-23T11:24:24Z</time>
      </trkpt>
      <trkpt lat="43.59519" lon="3.2029">
        <ele>355.353544</ele>
        <time>2025-10-23T11:24:25Z</time>
      </trkpt>
      <trkpt lat="43.59517" lon="3.2029">
        <ele>355.488075</ele>
        <time>2025-10-23T11:24:26Z</time>
      </trkpt>
      <trkpt lat="43.59515" lon="3.20289">
        <ele>355.630865</ele>
        <time>2025-10-23T11:24:27Z</time>
      </trkpt>
      <trkpt lat="43.59514" lon="3.20289">
        <ele>355.781924</ele>
        <time>2025-10-23T11:24:28Z</time>
      </trkpt>
      <trkpt lat="43.59512" lon="3.20289">
        <ele>355.917399</ele>
        <time>2025-10-23T11:24:29Z</time>
      </trkpt>
      <trkpt lat="43.59511" lon="3.20288">
        <ele>356.028367</ele>
        <time>2025-10-23T11:24:30Z</time>
      </trkpt>
      <trkpt lat="43.59509" lon="3.20288">
        <ele>356.19511</ele>
        <time>2025-10-23T11:24:31Z</time>
      </trkpt>
      <trkpt lat="43.59507" lon="3.20288">
        <ele>356.320667</ele>
        <time>2025-10-23T11:24:32Z</time>
      </trkpt>
      <trkpt lat="43.59505" lon="3.20288">
        <ele>356.473642</ele>
        <time>2025-10-23T11:24:33Z</time>
      </trkpt>
      <trkpt lat="43.59504" lon="3.20287">
        <ele>356.629447</ele>
        <time>2025-10-23T11:24:34Z</time>
      </trkpt>
      <trkpt lat="43.59502" lon="3.20286">
        <ele>356.753433</ele>
        <time>2025-10-23T11:24:35Z</time>
      </trkpt>
      <trkpt lat="43.59501" lon="3.20285">
        <ele>356.87688</ele>
        <time>2025-10-23T11:24:36Z</time>
      </trkpt>
      <trkpt lat="43.59499" lon="3.20284">
        <ele>357.012354</ele>
        <time>2025-10-23T11:24:37Z</time>
      </trkpt>
      <trkpt lat="43.59498" lon="3.20284">
        <ele>357.132836</ele>
        <time>2025-10-23T11:24:38Z</time>
      </trkpt>
      <trkpt lat="43.59497" lon="3.20283">
        <ele>357.274344</ele>
        <time>2025-10-23T11:24:39Z</time>
      </trkpt>
      <trkpt lat="43.59495" lon="3.20281">
        <ele>357.411635</ele>
        <time>2025-10-23T11:24:40Z</time>
      </trkpt>
      <trkpt lat="43.59494" lon="3.2028">
        <ele>357.559189</ele>
        <time>2025-10-23T11:24:41Z</time>
      </trkpt>
      <trkpt lat="43.59492" lon="3.20279">
        <ele>357.717009</ele>
        <time>2025-10-23T11:24:42Z</time>
      </trkpt>
      <trkpt lat="43.5949" lon="3.20278">
        <ele>357.854041</ele>
        <time>2025-10-23T11:24:43Z</time>
      </trkpt>
      <trkpt lat="43.59488" lon="3.20277">
        <ele>358.00831</ele>
        <time>2025-10-23T11:24:44Z</time>
      </trkpt>
      <trkpt lat="43.59486" lon="3.20277">
        <ele>358.177683</ele>
        <time>2025-10-23T11:24:45Z</time>
      </trkpt>
      <trkpt lat="43.59484" lon="3.20276">
        <ele>358.343948</ele>
        <time>2025-10-23T11:24:46Z</time>
      </trkpt>
      <trkpt lat="43.59481" lon="3.20275">
        <ele>358.512133</ele>
        <time>2025-10-23T11:24:47Z</time>
      </trkpt>
      <trkpt lat="43.59479" lon="3.20275">
        <ele>358.676457</ele>
        <time>2025-10-23T11:24:48Z</time>
      </trkpt>
      <trkpt lat="43.59477" lon="3.20276">
        <ele>358.817021</ele>
        <time>2025-10-23T11:24:49Z</time>
      </trkpt>
      <trkpt lat="43.59476" lon="3.20278">
        <ele>358.963937</ele>
        <time>2025-10-23T11:24:50Z</time>
      </trkpt>
      <trkpt lat="43.59474" lon="3.2028">
        <ele>359.102921</ele>
        <time>2025-10-23T11:24:51Z</time>
      </trkpt>
      <trkpt lat="43.59473" lon="3.20282">
        <ele>359.243994</ele>
        <time>2025-10-23T11:24:52Z</time>
      </trkpt>
      <trkpt lat="43.59471" lon="3.20282">
        <ele>359.35032</ele>
        <time>2025-10-23T11:24:53Z</time>
      </trkpt>
      <trkpt lat="43.5947" lon="3.20283">
        <ele>359.438474</ele>
        <time>2025-10-23T11:24:54Z</time>
      </trkpt>
      <trkpt lat="43.59469" lon="3.20284">
        <ele>359.54133</ele>
        <time>2025-10-23T11:24:55Z</time>
      </trkpt>
      <trkpt lat="43.59468" lon="3.20285">
        <ele>359.638144</ele>
        <time>2025-10-23T11:24:56Z</time>
      </trkpt>
      <trkpt lat="43.59467" lon="3.20287">
        <ele>359.752238</ele>
        <time>2025-10-23T11:24:57Z</time>
      </trkpt>
      <trkpt lat="43.59466" lon="3.20288">
        <ele>359.866859</ele>
        <time>2025-10-23T11:24:58Z</time>
      </trkpt>
      <trkpt lat="43.59464" lon="3.20289">
        <ele>359.988144</ele>
        <time>2025-10-23T11:24:59Z</time>
      </trkpt>
      <trkpt lat="43.59462" lon="3.20291">
        <ele>360.120713</ele>
        <time>2025-10-23T11:25:00Z</time>
      </trkpt>
      <trkpt lat="43.59461" lon="3.20292">
        <ele>360.243485</ele>
        <time>2025-10-23T11:25:01Z</time>
      </trkpt>
      <trkpt lat="43.5946" lon="3.20295">
        <ele>360.394372</ele>
        <time>2025-10-23T11:25:02Z</time>
      </trkpt>
      <trkpt lat="43.59459" lon="3.20296">
        <ele>360.511787</ele>
        <time>2025-10-23T11:25:03Z</time>
      </trkpt>
      <trkpt lat="43.59458" lon="3.20298">
        <ele>360.623745</ele>
        <time>2025-10-23T11:25:04Z</time>
      </trkpt>
      <trkpt lat="43.59458" lon="3.20301">
        <ele>360.743303</ele>
        <time>2025-10-23T11:25:05Z</time>
      </trkpt>
      <trkpt lat="43.59457" lon="3.20302">
        <ele>360.853549</ele>
        <time>2025-10-23T11:25:06Z</time>
      </trkpt>
      <trkpt lat="43.59456" lon="3.20304">
        <ele>360.962455</ele>
        <time>2025-10-23T11:25:07Z</time>
      </trkpt>
      <trkpt lat="43.59455" lon="3.20306">
        <ele>361.093923</ele>
        <time>2025-10-23T11:25:08Z</time>
      </trkpt>
      <trkpt lat="43.59453" lon="3.20308">
        <ele>361.235837</ele>
        <time>2025-10-23T11:25:09Z</time>
      </trkpt>
      <trkpt lat="43.59452" lon="3.20309">
        <ele>361.379904</ele>
        <time>2025-10-23T11:25:10Z</time>
      </trkpt>
      <trkpt lat="43.5945" lon="3.20311">
        <ele>361.513038</ele>
        <time>2025-10-23T11:25:11Z</time>
      </trkpt>
      <trkpt lat="43.59449" lon="3.20313">
        <ele>361.655476</ele>
        <time>2025-10-23T11:25:12Z</time>
      </trkpt>
      <trkpt lat="43.59448" lon="3.20315">
        <ele>361.783334</ele>
        <time>2025-10-23T11:25:13Z</time>
      </trkpt>
      <trkpt lat="43.59446" lon="3.20316">
        <ele>361.909876</ele>
        <time>2025-10-23T11:25:14Z</time>
      </trkpt>
      <trkpt lat="43.59445" lon="3.20318">
        <ele>362.062857</ele>
        <time>2025-10-23T11:25:15Z</time>
      </trkpt>
      <trkpt lat="43.59443" lon="3.2032">
        <ele>362.215727</ele>
        <time>2025-10-23T11:25:16Z</time>
      </trkpt>
      <trkpt lat="43.59441" lon="3.20321">
        <ele>362.337011</ele>
        <time>2025-10-23T11:25:17Z</time>
      </trkpt>
      <trkpt lat="43.5944" lon="3.20322">
        <ele>362.458296</ele>
        <time>2025-10-23T11:25:18Z</time>
      </trkpt>
      <trkpt lat="43.59438" lon="3.20323">
        <ele>362.57958</ele>
        <time>2025-10-23T11:25:19Z</time>
      </trkpt>
      <trkpt lat="43.59437" lon="3.20324">
        <ele>362.69731</ele>
        <time>2025-10-23T11:25:20Z</time>
      </trkpt>
      <trkpt lat="43.59436" lon="3.20326">
        <ele>362.80414</ele>
        <time>2025-10-23T11:25:21Z</time>
      </trkpt>
      <trkpt lat="43.59435" lon="3.20327">
        <ele>362.915807</ele>
        <time>2025-10-23T11:25:22Z</time>
      </trkpt>
      <trkpt lat="43.59433" lon="3.20328">
        <ele>363.037092</ele>
        <time>2025-10-23T11:25:23Z</time>
      </trkpt>
      <trkpt lat="43.59432" lon="3.2033">
        <ele>363.154822</ele>
        <time>2025-10-23T11:25:24Z</time>
      </trkpt>
      <trkpt lat="43.5943" lon="3.2033">
        <ele>363.2651</ele>
        <time>2025-10-23T11:25:25Z</time>
      </trkpt>
      <trkpt lat="43.59429" lon="3.20332">
        <ele>363.392735</ele>
        <time>2025-10-23T11:25:26Z</time>
      </trkpt>
      <trkpt lat="43.59428" lon="3.20333">
        <ele>363.501613</ele>
        <time>2025-10-23T11:25:27Z</time>
      </trkpt>
      <trkpt lat="43.59426" lon="3.20334">
        <ele>363.613279</ele>
        <time>2025-10-23T11:25:28Z</time>
      </trkpt>
      <trkpt lat="43.59425" lon="3.20335">
        <ele>363.734259</ele>
        <time>2025-10-23T11:25:29Z</time>
      </trkpt>
      <trkpt lat="43.59423" lon="3.20337">
        <ele>363.886801</ele>
        <time>2025-10-23T11:25:30Z</time>
      </trkpt>
      <trkpt lat="43.59422" lon="3.20339">
        <ele>364.004531</ele>
        <time>2025-10-23T11:25:31Z</time>
      </trkpt>
      <trkpt lat="43.59421" lon="3.20339">
        <ele>364.10921</ele>
        <time>2025-10-23T11:25:32Z</time>
      </trkpt>
      <trkpt lat="43.59419" lon="3.2034">
        <ele>364.219488</ele>
        <time>2025-10-23T11:25:33Z</time>
      </trkpt>
      <trkpt lat="43.59418" lon="3.20341">
        <ele>364.329766</ele>
        <time>2025-10-23T11:25:34Z</time>
      </trkpt>
      <trkpt lat="43.59417" lon="3.20342">
        <ele>364.440044</ele>
        <time>2025-10-23T11:25:35Z</time>
      </trkpt>
      <trkpt lat="43.59415" lon="3.20343">
        <ele>364.56546</ele>
        <time>2025-10-23T11:25:36Z</time>
      </trkpt>
      <trkpt lat="43.59413" lon="3.20344">
        <ele>364.688606</ele>
        <time>2025-10-23T11:25:37Z</time>
      </trkpt>
      <trkpt lat="43.59411" lon="3.20344">
        <ele>364.819719</ele>
        <time>2025-10-23T11:25:38Z</time>
      </trkpt>
      <trkpt lat="43.5941" lon="3.20345">
        <ele>364.947972</ele>
        <time>2025-10-23T11:25:39Z</time>
      </trkpt>
      <trkpt lat="43.59408" lon="3.20346">
        <ele>365.080542</ele>
        <time>2025-10-23T11:25:40Z</time>
      </trkpt>
      <trkpt lat="43.59407" lon="3.20347">
        <ele>365.202058</ele>
        <time>2025-10-23T11:25:41Z</time>
      </trkpt>
      <trkpt lat="43.59405" lon="3.20348">
        <ele>365.338763</ele>
        <time>2025-10-23T11:25:42Z</time>
      </trkpt>
      <trkpt lat="43.59403" lon="3.20348">
        <ele>365.464063</ele>
        <time>2025-10-23T11:25:43Z</time>
      </trkpt>
      <trkpt lat="43.59401" lon="3.2035">
        <ele>365.617044</ele>
        <time>2025-10-23T11:25:44Z</time>
      </trkpt>
      <trkpt lat="43.594" lon="3.20352">
        <ele>365.738024</ele>
        <time>2025-10-23T11:25:45Z</time>
      </trkpt>
      <trkpt lat="43.59399" lon="3.20353">
        <ele>365.867801</ele>
        <time>2025-10-23T11:25:46Z</time>
      </trkpt>
      <trkpt lat="43.59397" lon="3.20355">
        <ele>365.994343</ele>
        <time>2025-10-23T11:25:47Z</time>
      </trkpt>
      <trkpt lat="43.59396" lon="3.20356">
        <ele>366.118138</ele>
        <time>2025-10-23T11:25:48Z</time>
      </trkpt>
      <trkpt lat="43.59394" lon="3.20357">
        <ele>366.25669</ele>
        <time>2025-10-23T11:25:49Z</time>
      </trkpt>
      <trkpt lat="43.59392" lon="3.20358">
        <ele>366.388644</ele>
        <time>2025-10-23T11:25:50Z</time>
      </trkpt>
      <trkpt lat="43.5939" lon="3.20359">
        <ele>366.537843</ele>
        <time>2025-10-23T11:25:51Z</time>
      </trkpt>
      <trkpt lat="43.59389" lon="3.2036">
        <ele>366.674549</ele>
        <time>2025-10-23T11:25:52Z</time>
      </trkpt>
      <trkpt lat="43.59387" lon="3.20361">
        <ele>366.816395</ele>
        <time>2025-10-23T11:25:53Z</time>
      </trkpt>
      <trkpt lat="43.59385" lon="3.20362">
        <ele>366.96829</ele>
        <time>2025-10-23T11:25:54Z</time>
      </trkpt>
      <trkpt lat="43.59383" lon="3.20363">
        <ele>367.102356</ele>
        <time>2025-10-23T11:25:55Z</time>
      </trkpt>
      <trkpt lat="43.59381" lon="3.20364">
        <ele>367.237622</ele>
        <time>2025-10-23T11:25:56Z</time>
      </trkpt>
      <trkpt lat="43.5938" lon="3.20365">
        <ele>367.343948</ele>
        <time>2025-10-23T11:25:57Z</time>
      </trkpt>
      <trkpt lat="43.59378" lon="3.20366">
        <ele>367.480654</ele>
        <time>2025-10-23T11:25:58Z</time>
      </trkpt>
      <trkpt lat="43.59376" lon="3.20366">
        <ele>367.609296</ele>
        <time>2025-10-23T11:25:59Z</time>
      </trkpt>
      <trkpt lat="43.59374" lon="3.20367">
        <ele>367.747416</ele>
        <time>2025-10-23T11:26:00Z</time>
      </trkpt>
      <trkpt lat="43.59373" lon="3.20367">
        <ele>367.880955</ele>
        <time>2025-10-23T11:26:01Z</time>
      </trkpt>
      <trkpt lat="43.59371" lon="3.20368">
        <ele>368.002471</ele>
        <time>2025-10-23T11:26:02Z</time>
      </trkpt>
      <trkpt lat="43.59369" lon="3.20369">
        <ele>368.123987</ele>
        <time>2025-10-23T11:26:03Z</time>
      </trkpt>
      <trkpt lat="43.59368" lon="3.2037">
        <ele>368.234265</ele>
        <time>2025-10-23T11:26:04Z</time>
      </trkpt>
      <trkpt lat="43.59367" lon="3.20371">
        <ele>368.35806</ele>
        <time>2025-10-23T11:26:05Z</time>
      </trkpt>
      <trkpt lat="43.59365" lon="3.20372">
        <ele>368.488083</ele>
        <time>2025-10-23T11:26:06Z</time>
      </trkpt>
      <trkpt lat="43.59363" lon="3.20373">
        <ele>368.61123</ele>
        <time>2025-10-23T11:26:07Z</time>
      </trkpt>
      <trkpt lat="43.59362" lon="3.20374">
        <ele>368.734603</ele>
        <time>2025-10-23T11:26:08Z</time>
      </trkpt>
      <trkpt lat="43.5936" lon="3.20374">
        <ele>368.857976</ele>
        <time>2025-10-23T11:26:09Z</time>
      </trkpt>
      <trkpt lat="43.59359" lon="3.20375">
        <ele>368.976923</ele>
        <time>2025-10-23T11:26:10Z</time>
      </trkpt>
      <trkpt lat="43.59357" lon="3.20377">
        <ele>369.10339</ele>
        <time>2025-10-23T11:26:11Z</time>
      </trkpt>
      <trkpt lat="43.59355" lon="3.20378">
        <ele>369.238656</ele>
        <time>2025-10-23T11:26:12Z</time>
      </trkpt>
      <trkpt lat="43.59354" lon="3.20379">
        <ele>369.365123</ele>
        <time>2025-10-23T11:26:13Z</time>
      </trkpt>
      <trkpt lat="43.59352" lon="3.20381">
        <ele>369.492758</ele>
        <time>2025-10-23T11:26:14Z</time>
      </trkpt>
      <trkpt lat="43.59351" lon="3.20381">
        <ele>369.621012</ele>
        <time>2025-10-23T11:26:15Z</time>
      </trkpt>
      <trkpt lat="43.59349" lon="3.20382">
        <ele>369.766213</ele>
        <time>2025-10-23T11:26:16Z</time>
      </trkpt>
      <trkpt lat="43.59347" lon="3.20384">
        <ele>369.904985</ele>
        <time>2025-10-23T11:26:17Z</time>
      </trkpt>
      <trkpt lat="43.59346" lon="3.20385">
        <ele>370.028424</ele>
        <time>2025-10-23T11:26:18Z</time>
      </trkpt>
      <trkpt lat="43.59344" lon="3.20386">
        <ele>370.148903</ele>
        <time>2025-10-23T11:26:19Z</time>
      </trkpt>
      <trkpt lat="43.59343" lon="3.20388">
        <ele>370.287007</ele>
        <time>2025-10-23T11:26:20Z</time>
      </trkpt>
      <trkpt lat="43.59341" lon="3.20389">
        <ele>370.406131</ele>
        <time>2025-10-23T11:26:21Z</time>
      </trkpt>
      <trkpt lat="43.5934" lon="3.20391">
        <ele>370.529571</ele>
        <time>2025-10-23T11:26:22Z</time>
      </trkpt>
      <trkpt lat="43.59339" lon="3.20392">
        <ele>370.64635</ele>
        <time>2025-10-23T11:26:23Z</time>
      </trkpt>
      <trkpt lat="43.59337" lon="3.20392">
        <ele>370.762036</ele>
        <time>2025-10-23T11:26:24Z</time>
      </trkpt>
      <trkpt lat="43.59335" lon="3.20393">
        <ele>370.881449</ele>
        <time>2025-10-23T11:26:25Z</time>
      </trkpt>
      <trkpt lat="43.59334" lon="3.20394">
        <ele>370.989248</ele>
        <time>2025-10-23T11:26:26Z</time>
      </trkpt>
      <trkpt lat="43.59332" lon="3.20395">
        <ele>371.107757</ele>
        <time>2025-10-23T11:26:27Z</time>
      </trkpt>
      <trkpt lat="43.59331" lon="3.20396">
        <ele>371.237293</ele>
        <time>2025-10-23T11:26:28Z</time>
      </trkpt>
      <trkpt lat="43.59329" lon="3.20396">
        <ele>371.345092</ele>
        <time>2025-10-23T11:26:29Z</time>
      </trkpt>
      <trkpt lat="43.59328" lon="3.20397">
        <ele>371.45357</ele>
        <time>2025-10-23T11:26:30Z</time>
      </trkpt>
      <trkpt lat="43.59327" lon="3.20399">
        <ele>371.576555</ele>
        <time>2025-10-23T11:26:31Z</time>
      </trkpt>
      <trkpt lat="43.59325" lon="3.204">
        <ele>371.725205</ele>
        <time>2025-10-23T11:26:32Z</time>
      </trkpt>
      <trkpt lat="43.59323" lon="3.20401">
        <ele>371.859974</ele>
        <time>2025-10-23T11:26:33Z</time>
      </trkpt>
      <trkpt lat="43.59322" lon="3.20403">
        <ele>371.985976</ele>
        <time>2025-10-23T11:26:34Z</time>
      </trkpt>
      <trkpt lat="43.5932" lon="3.20404">
        <ele>372.100382</ele>
        <time>2025-10-23T11:26:35Z</time>
      </trkpt>
      <trkpt lat="43.59319" lon="3.20405">
        <ele>372.205798</ele>
        <time>2025-10-23T11:26:36Z</time>
      </trkpt>
      <trkpt lat="43.59317" lon="3.20406">
        <ele>372.35238</ele>
        <time>2025-10-23T11:26:37Z</time>
      </trkpt>
      <trkpt lat="43.59315" lon="3.20407">
        <ele>372.499365</ele>
        <time>2025-10-23T11:26:38Z</time>
      </trkpt>
      <trkpt lat="43.59314" lon="3.20409">
        <ele>372.651784</ele>
        <time>2025-10-23T11:26:39Z</time>
      </trkpt>
      <trkpt lat="43.59312" lon="3.2041">
        <ele>372.778951</ele>
        <time>2025-10-23T11:26:40Z</time>
      </trkpt>
      <trkpt lat="43.5931" lon="3.20411">
        <ele>372.923477</ele>
        <time>2025-10-23T11:26:41Z</time>
      </trkpt>
      <trkpt lat="43.59309" lon="3.20413">
        <ele>373.052292</ele>
        <time>2025-10-23T11:26:42Z</time>
      </trkpt>
      <trkpt lat="43.59307" lon="3.20414">
        <ele>373.173131</ele>
        <time>2025-10-23T11:26:43Z</time>
      </trkpt>
      <trkpt lat="43.59306" lon="3.20415">
        <ele>373.27029</ele>
        <time>2025-10-23T11:26:44Z</time>
      </trkpt>
      <trkpt lat="43.59304" lon="3.20416">
        <ele>373.41894</ele>
        <time>2025-10-23T11:26:45Z</time>
      </trkpt>
      <trkpt lat="43.59303" lon="3.20417">
        <ele>373.54228</ele>
        <time>2025-10-23T11:26:46Z</time>
      </trkpt>
      <trkpt lat="43.59301" lon="3.20419">
        <ele>373.674363</ele>
        <time>2025-10-23T11:26:47Z</time>
      </trkpt>
      <trkpt lat="43.593" lon="3.2042">
        <ele>373.804264</ele>
        <time>2025-10-23T11:26:48Z</time>
      </trkpt>
      <trkpt lat="43.59299" lon="3.20422">
        <ele>373.905586</ele>
        <time>2025-10-23T11:26:49Z</time>
      </trkpt>
      <trkpt lat="43.59298" lon="3.20423">
        <ele>373.989628</ele>
        <time>2025-10-23T11:26:50Z</time>
      </trkpt>
      <trkpt lat="43.59297" lon="3.20424">
        <ele>374.063121</ele>
        <time>2025-10-23T11:26:51Z</time>
      </trkpt>
      <trkpt lat="43.59296" lon="3.20424">
        <ele>374.149295</ele>
        <time>2025-10-23T11:26:52Z</time>
      </trkpt>
      <trkpt lat="43.59295" lon="3.20425">
        <ele>374.230225</ele>
        <time>2025-10-23T11:26:53Z</time>
      </trkpt>
      <trkpt lat="43.59294" lon="3.20425">
        <ele>374.314373</ele>
        <time>2025-10-23T11:26:54Z</time>
      </trkpt>
      <trkpt lat="43.59293" lon="3.20426">
        <ele>374.408075</ele>
        <time>2025-10-23T11:26:55Z</time>
      </trkpt>
      <trkpt lat="43.59291" lon="3.20427">
        <ele>374.51401</ele>
        <time>2025-10-23T11:26:56Z</time>
      </trkpt>
      <trkpt lat="43.5929" lon="3.20428">
        <ele>374.613286</ele>
        <time>2025-10-23T11:26:57Z</time>
      </trkpt>
      <trkpt lat="43.59288" lon="3.20429">
        <ele>374.749489</ele>
        <time>2025-10-23T11:26:58Z</time>
      </trkpt>
      <trkpt lat="43.59286" lon="3.2043">
        <ele>374.890319</ele>
        <time>2025-10-23T11:26:59Z</time>
      </trkpt>
      <trkpt lat="43.59285" lon="3.20431">
        <ele>375.011158</ele>
        <time>2025-10-23T11:27:00Z</time>
      </trkpt>
      <trkpt lat="43.59283" lon="3.20433">
        <ele>375.14942</ele>
        <time>2025-10-23T11:27:01Z</time>
      </trkpt>
      <trkpt lat="43.59282" lon="3.20434">
        <ele>375.264024</ele>
        <time>2025-10-23T11:27:02Z</time>
      </trkpt>
      <trkpt lat="43.5928" lon="3.20435">
        <ele>375.387364</ele>
        <time>2025-10-23T11:27:03Z</time>
      </trkpt>
      <trkpt lat="43.59279" lon="3.20436">
        <ele>375.510283</ele>
        <time>2025-10-23T11:27:04Z</time>
      </trkpt>
      <trkpt lat="43.59277" lon="3.20437">
        <ele>375.639819</ele>
        <time>2025-10-23T11:27:05Z</time>
      </trkpt>
      <trkpt lat="43.59275" lon="3.20437">
        <ele>375.786614</ele>
        <time>2025-10-23T11:27:06Z</time>
      </trkpt>
      <trkpt lat="43.59273" lon="3.20438">
        <ele>375.909307</ele>
        <time>2025-10-23T11:27:07Z</time>
      </trkpt>
      <trkpt lat="43.59272" lon="3.20438">
        <ele>376.020416</ele>
        <time>2025-10-23T11:27:08Z</time>
      </trkpt>
      <trkpt lat="43.5927" lon="3.2044">
        <ele>376.140452</ele>
        <time>2025-10-23T11:27:09Z</time>
      </trkpt>
      <trkpt lat="43.59269" lon="3.20441">
        <ele>376.269268</ele>
        <time>2025-10-23T11:27:10Z</time>
      </trkpt>
      <trkpt lat="43.59268" lon="3.20443">
        <ele>376.386735</ele>
        <time>2025-10-23T11:27:11Z</time>
      </trkpt>
      <trkpt lat="43.59267" lon="3.20444">
        <ele>376.493174</ele>
        <time>2025-10-23T11:27:12Z</time>
      </trkpt>
      <trkpt lat="43.59266" lon="3.20446">
        <ele>376.598227</ele>
        <time>2025-10-23T11:27:13Z</time>
      </trkpt>
      <trkpt lat="43.59265" lon="3.20448">
        <ele>376.723567</ele>
        <time>2025-10-23T11:27:14Z</time>
      </trkpt>
      <trkpt lat="43.59264" lon="3.20449">
        <ele>376.819556</ele>
        <time>2025-10-23T11:27:15Z</time>
      </trkpt>
      <trkpt lat="43.59263" lon="3.20451">
        <ele>376.949061</ele>
        <time>2025-10-23T11:27:16Z</time>
      </trkpt>
      <trkpt lat="43.59262" lon="3.20453">
        <ele>377.074798</ele>
        <time>2025-10-23T11:27:17Z</time>
      </trkpt>
      <trkpt lat="43.59261" lon="3.20455">
        <ele>377.208626</ele>
        <time>2025-10-23T11:27:18Z</time>
      </trkpt>
      <trkpt lat="43.5926" lon="3.20457">
        <ele>377.342455</ele>
        <time>2025-10-23T11:27:19Z</time>
      </trkpt>
      <trkpt lat="43.59258" lon="3.20459">
        <ele>377.488763</ele>
        <time>2025-10-23T11:27:20Z</time>
      </trkpt>
      <trkpt lat="43.59257" lon="3.20462">
        <ele>377.618267</ele>
        <time>2025-10-23T11:27:21Z</time>
      </trkpt>
      <trkpt lat="43.59256" lon="3.20464">
        <ele>377.768999</ele>
        <time>2025-10-23T11:27:22Z</time>
      </trkpt>
      <trkpt lat="43.59255" lon="3.20467">
        <ele>377.924102</ele>
        <time>2025-10-23T11:27:23Z</time>
      </trkpt>
      <trkpt lat="43.59255" lon="3.2047">
        <ele>378.067706</ele>
        <time>2025-10-23T11:27:24Z</time>
      </trkpt>
      <trkpt lat="43.59254" lon="3.20472">
        <ele>378.21817</ele>
        <time>2025-10-23T11:27:25Z</time>
      </trkpt>
      <trkpt lat="43.59254" lon="3.20475">
        <ele>378.3637</ele>
        <time>2025-10-23T11:27:26Z</time>
      </trkpt>
      <trkpt lat="43.59253" lon="3.20477">
        <ele>378.492384</ele>
        <time>2025-10-23T11:27:27Z</time>
      </trkpt>
      <trkpt lat="43.59252" lon="3.2048">
        <ele>378.628523</ele>
        <time>2025-10-23T11:27:28Z</time>
      </trkpt>
      <trkpt lat="43.59252" lon="3.20482">
        <ele>378.755373</ele>
        <time>2025-10-23T11:27:29Z</time>
      </trkpt>
      <trkpt lat="43.59251" lon="3.20485">
        <ele>378.898306</ele>
        <time>2025-10-23T11:27:30Z</time>
      </trkpt>
      <trkpt lat="43.5925" lon="3.20487">
        <ele>379.043871</ele>
        <time>2025-10-23T11:27:31Z</time>
      </trkpt>
      <trkpt lat="43.59249" lon="3.20489">
        <ele>379.145975</ele>
        <time>2025-10-23T11:27:32Z</time>
      </trkpt>
      <trkpt lat="43.59249" lon="3.20491">
        <ele>379.244909</ele>
        <time>2025-10-23T11:27:33Z</time>
      </trkpt>
      <trkpt lat="43.59249" lon="3.20493">
        <ele>379.370407</ele>
        <time>2025-10-23T11:27:34Z</time>
      </trkpt>
      <trkpt lat="43.59249" lon="3.20496">
        <ele>379.489775</ele>
        <time>2025-10-23T11:27:35Z</time>
      </trkpt>
      <trkpt lat="43.59248" lon="3.20498">
        <ele>379.601325</ele>
        <time>2025-10-23T11:27:36Z</time>
      </trkpt>
      <trkpt lat="43.59248" lon="3.205">
        <ele>379.70824</ele>
        <time>2025-10-23T11:27:37Z</time>
      </trkpt>
      <trkpt lat="43.59247" lon="3.20502">
        <ele>379.818084</ele>
        <time>2025-10-23T11:27:38Z</time>
      </trkpt>
      <trkpt lat="43.59247" lon="3.20504">
        <ele>379.94257</ele>
        <time>2025-10-23T11:27:39Z</time>
      </trkpt>
      <trkpt lat="43.59246" lon="3.20506">
        <ele>380.04191</ele>
        <time>2025-10-23T11:27:40Z</time>
      </trkpt>
      <trkpt lat="43.59246" lon="3.20508">
        <ele>380.158792</ele>
        <time>2025-10-23T11:27:41Z</time>
      </trkpt>
      <trkpt lat="43.59245" lon="3.2051">
        <ele>380.287476</ele>
        <time>2025-10-23T11:27:42Z</time>
      </trkpt>
      <trkpt lat="43.59245" lon="3.20512">
        <ele>380.400724</ele>
        <time>2025-10-23T11:27:43Z</time>
      </trkpt>
      <trkpt lat="43.59244" lon="3.20515">
        <ele>380.532653</ele>
        <time>2025-10-23T11:27:44Z</time>
      </trkpt>
      <trkpt lat="43.59244" lon="3.20517">
        <ele>380.663232</ele>
        <time>2025-10-23T11:27:45Z</time>
      </trkpt>
      <trkpt lat="43.59243" lon="3.2052">
        <ele>380.791917</ele>
        <time>2025-10-23T11:27:46Z</time>
      </trkpt>
      <trkpt lat="43.59244" lon="3.20523">
        <ele>380.953077</ele>
        <time>2025-10-23T11:27:47Z</time>
      </trkpt>
      <trkpt lat="43.59244" lon="3.20526">
        <ele>381.103187</ele>
        <time>2025-10-23T11:27:48Z</time>
      </trkpt>
      <trkpt lat="43.59243" lon="3.20529">
        <ele>381.259241</ele>
        <time>2025-10-23T11:27:49Z</time>
      </trkpt>
      <trkpt lat="43.59243" lon="3.20532">
        <ele>381.416426</ele>
        <time>2025-10-23T11:27:50Z</time>
      </trkpt>
      <trkpt lat="43.59242" lon="3.20534">
        <ele>381.557038</ele>
        <time>2025-10-23T11:27:51Z</time>
      </trkpt>
      <trkpt lat="43.59242" lon="3.20537">
        <ele>381.705641</ele>
        <time>2025-10-23T11:27:52Z</time>
      </trkpt>
      <trkpt lat="43.59241" lon="3.2054">
        <ele>381.857336</ele>
        <time>2025-10-23T11:27:53Z</time>
      </trkpt>
      <trkpt lat="43.5924" lon="3.20542">
        <ele>381.986742</ele>
        <time>2025-10-23T11:27:54Z</time>
      </trkpt>
      <trkpt lat="43.59239" lon="3.20544">
        <ele>382.116247</ele>
        <time>2025-10-23T11:27:55Z</time>
      </trkpt>
      <trkpt lat="43.59238" lon="3.20546">
        <ele>382.233978</ele>
        <time>2025-10-23T11:27:56Z</time>
      </trkpt>
      <trkpt lat="43.59237" lon="3.20548">
        <ele>382.345528</ele>
        <time>2025-10-23T11:27:57Z</time>
      </trkpt>
      <trkpt lat="43.59237" lon="3.20549">
        <ele>382.437477</ele>
        <time>2025-10-23T11:27:58Z</time>
      </trkpt>
      <trkpt lat="43.59236" lon="3.20551">
        <ele>382.545984</ele>
        <time>2025-10-23T11:27:59Z</time>
      </trkpt>
      <trkpt lat="43.59235" lon="3.20552">
        <ele>382.630027</ele>
        <time>2025-10-23T11:28:00Z</time>
      </trkpt>
      <trkpt lat="43.59234" lon="3.20553">
        <ele>382.735444</ele>
        <time>2025-10-23T11:28:01Z</time>
      </trkpt>
      <trkpt lat="43.59232" lon="3.20555">
        <ele>382.861522</ele>
        <time>2025-10-23T11:28:02Z</time>
      </trkpt>
      <trkpt lat="43.59231" lon="3.20556">
        <ele>382.992991</ele>
        <time>2025-10-23T11:28:03Z</time>
      </trkpt>
      <trkpt lat="43.59229" lon="3.20557">
        <ele>383.120157</ele>
        <time>2025-10-23T11:28:04Z</time>
      </trkpt>
      <trkpt lat="43.59227" lon="3.20558">
        <ele>383.249703</ele>
        <time>2025-10-23T11:28:05Z</time>
      </trkpt>
      <trkpt lat="43.59226" lon="3.2056">
        <ele>383.387299</ele>
        <time>2025-10-23T11:28:06Z</time>
      </trkpt>
      <trkpt lat="43.59224" lon="3.20561">
        <ele>383.451486</ele>
        <time>2025-10-23T11:28:07Z</time>
      </trkpt>
      <trkpt lat="43.59223" lon="3.20562">
        <ele>383.469462</ele>
        <time>2025-10-23T11:28:08Z</time>
      </trkpt>
      <trkpt lat="43.59221" lon="3.20563">
        <ele>383.485799</ele>
        <time>2025-10-23T11:28:09Z</time>
      </trkpt>
      <trkpt lat="43.5922" lon="3.20564">
        <ele>383.506945</ele>
        <time>2025-10-23T11:28:10Z</time>
      </trkpt>
      <trkpt lat="43.59217" lon="3.20565">
        <ele>383.530806</ele>
        <time>2025-10-23T11:28:11Z</time>
      </trkpt>
      <trkpt lat="43.59215" lon="3.20566">
        <ele>383.551695</ele>
        <time>2025-10-23T11:28:12Z</time>
      </trkpt>
      <trkpt lat="43.59214" lon="3.20567">
        <ele>383.571603</ele>
        <time>2025-10-23T11:28:13Z</time>
      </trkpt>
      <trkpt lat="43.59213" lon="3.20568">
        <ele>383.5849</ele>
        <time>2025-10-23T11:28:14Z</time>
      </trkpt>
      <trkpt lat="43.59212" lon="3.20569">
        <ele>383.592858</ele>
        <time>2025-10-23T11:28:15Z</time>
      </trkpt>
      <trkpt lat="43.59212" lon="3.20568">
        <ele>383.598232</ele>
        <time>2025-10-23T11:28:16Z</time>
      </trkpt>
      <trkpt lat="43.59212" lon="3.20568">
        <ele>383.598985</ele>
        <time>2025-10-23T11:28:17Z</time>
      </trkpt>
      <trkpt lat="43.59209" lon="3.20574">
        <ele>383.652673</ele>
        <time>2025-10-23T11:29:15Z</time>
      </trkpt>
      <trkpt lat="43.59207" lon="3.20576">
        <ele>383.676635</ele>
        <time>2025-10-23T11:29:16Z</time>
      </trkpt>
      <trkpt lat="43.59204" lon="3.20578">
        <ele>383.709583</ele>
        <time>2025-10-23T11:29:17Z</time>
      </trkpt>
      <trkpt lat="43.59201" lon="3.20581">
        <ele>383.745137</ele>
        <time>2025-10-23T11:29:18Z</time>
      </trkpt>
      <trkpt lat="43.59198" lon="3.20583">
        <ele>383.781193</ele>
        <time>2025-10-23T11:29:19Z</time>
      </trkpt>
      <trkpt lat="43.59195" lon="3.20584">
        <ele>383.815153</ele>
        <time>2025-10-23T11:29:20Z</time>
      </trkpt>
      <trkpt lat="43.59192" lon="3.20583">
        <ele>383.850288</ele>
        <time>2025-10-23T11:29:21Z</time>
      </trkpt>
      <trkpt lat="43.59189" lon="3.2058">
        <ele>383.889799</ele>
        <time>2025-10-23T11:29:22Z</time>
      </trkpt>
      <trkpt lat="43.59186" lon="3.20577">
        <ele>383.929077</ele>
        <time>2025-10-23T11:29:23Z</time>
      </trkpt>
      <trkpt lat="43.59184" lon="3.20574">
        <ele>383.962732</ele>
        <time>2025-10-23T11:29:24Z</time>
      </trkpt>
      <trkpt lat="43.59182" lon="3.2057">
        <ele>383.994386</ele>
        <time>2025-10-23T11:29:25Z</time>
      </trkpt>
      <trkpt lat="43.59182" lon="3.20567">
        <ele>384.016327</ele>
        <time>2025-10-23T11:29:26Z</time>
      </trkpt>
      <trkpt lat="43.59183" lon="3.20564">
        <ele>384.03467</ele>
        <time>2025-10-23T11:29:27Z</time>
      </trkpt>
      <trkpt lat="43.59183" lon="3.20562">
        <ele>384.055033</ele>
        <time>2025-10-23T11:29:28Z</time>
      </trkpt>
      <trkpt lat="43.59183" lon="3.20559">
        <ele>384.075395</ele>
        <time>2025-10-23T11:29:29Z</time>
      </trkpt>
      <trkpt lat="43.59183" lon="3.20557">
        <ele>384.093471</ele>
        <time>2025-10-23T11:29:30Z</time>
      </trkpt>
      <trkpt lat="43.59183" lon="3.20554">
        <ele>384.110171</ele>
        <time>2025-10-23T11:29:31Z</time>
      </trkpt>
      <trkpt lat="43.59183" lon="3.20552">
        <ele>384.126293</ele>
        <time>2025-10-23T11:29:32Z</time>
      </trkpt>
      <trkpt lat="43.59183" lon="3.2055">
        <ele>384.14192</ele>
        <time>2025-10-23T11:29:33Z</time>
      </trkpt>
      <trkpt lat="43.59184" lon="3.20548">
        <ele>384.159368</ele>
        <time>2025-10-23T11:29:34Z</time>
      </trkpt>
      <trkpt lat="43.59184" lon="3.20546">
        <ele>384.17549</ele>
        <time>2025-10-23T11:29:35Z</time>
      </trkpt>
      <trkpt lat="43.59184" lon="3.20544">
        <ele>384.193305</ele>
        <time>2025-10-23T11:29:36Z</time>
      </trkpt>
      <trkpt lat="43.59185" lon="3.20541">
        <ele>384.212839</ele>
        <time>2025-10-23T11:29:37Z</time>
      </trkpt>
      <trkpt lat="43.59185" lon="3.20539">
        <ele>384.231649</ele>
        <time>2025-10-23T11:29:38Z</time>
      </trkpt>
      <trkpt lat="43.59186" lon="3.20536">
        <ele>384.251485</ele>
        <time>2025-10-23T11:29:39Z</time>
      </trkpt>
      <trkpt lat="43.59186" lon="3.20534">
        <ele>384.271746</ele>
        <time>2025-10-23T11:29:40Z</time>
      </trkpt>
      <trkpt lat="43.59187" lon="3.20531">
        <ele>384.293242</ele>
        <time>2025-10-23T11:29:41Z</time>
      </trkpt>
      <trkpt lat="43.59187" lon="3.20528">
        <ele>384.314513</ele>
        <time>2025-10-23T11:29:42Z</time>
      </trkpt>
      <trkpt lat="43.59188" lon="3.20525">
        <ele>384.33527</ele>
        <time>2025-10-23T11:29:43Z</time>
      </trkpt>
      <trkpt lat="43.59188" lon="3.20523">
        <ele>384.356589</ele>
        <time>2025-10-23T11:29:44Z</time>
      </trkpt>
      <trkpt lat="43.59188" lon="3.2052">
        <ele>384.376925</ele>
        <time>2025-10-23T11:29:45Z</time>
      </trkpt>
      <trkpt lat="43.59188" lon="3.20517">
        <ele>384.397498</ele>
        <time>2025-10-23T11:29:46Z</time>
      </trkpt>
      <trkpt lat="43.59189" lon="3.20514">
        <ele>384.41944</ele>
        <time>2025-10-23T11:29:47Z</time>
      </trkpt>
      <trkpt lat="43.59189" lon="3.20512">
        <ele>384.439132</ele>
        <time>2025-10-23T11:29:48Z</time>
      </trkpt>
      <trkpt lat="43.59189" lon="3.20509">
        <ele>384.460247</ele>
        <time>2025-10-23T11:29:49Z</time>
      </trkpt>
      <trkpt lat="43.59189" lon="3.20506">
        <ele>384.485189</ele>
        <time>2025-10-23T11:29:50Z</time>
      </trkpt>
      <trkpt lat="43.5919" lon="3.20502">
        <ele>384.514278</ele>
        <time>2025-10-23T11:29:51Z</time>
      </trkpt>
      <trkpt lat="43.5919" lon="3.20497">
        <ele>384.550669</ele>
        <time>2025-10-23T11:29:52Z</time>
      </trkpt>
      <trkpt lat="43.59191" lon="3.20492">
        <ele>384.589432</ele>
        <time>2025-10-23T11:29:53Z</time>
      </trkpt>
      <trkpt lat="43.59191" lon="3.20486">
        <ele>384.631684</ele>
        <time>2025-10-23T11:29:54Z</time>
      </trkpt>
      <trkpt lat="43.59192" lon="3.20481">
        <ele>384.675857</ele>
        <time>2025-10-23T11:29:55Z</time>
      </trkpt>
      <trkpt lat="43.59194" lon="3.20475">
        <ele>384.723465</ele>
        <time>2025-10-23T11:29:56Z</time>
      </trkpt>
      <trkpt lat="43.59194" lon="3.20469">
        <ele>384.770156</ele>
        <time>2025-10-23T11:29:57Z</time>
      </trkpt>
      <trkpt lat="43.59195" lon="3.20463">
        <ele>384.814284</ele>
        <time>2025-10-23T11:29:58Z</time>
      </trkpt>
      <trkpt lat="43.59196" lon="3.20457">
        <ele>384.859494</ele>
        <time>2025-10-23T11:29:59Z</time>
      </trkpt>
      <trkpt lat="43.59196" lon="3.20451">
        <ele>384.902438</ele>
        <time>2025-10-23T11:30:00Z</time>
      </trkpt>
      <trkpt lat="43.59194" lon="3.20446">
        <ele>384.940683</ele>
        <time>2025-10-23T11:30:01Z</time>
      </trkpt>
      <trkpt lat="43.59193" lon="3.20442">
        <ele>384.979118</ele>
        <time>2025-10-23T11:30:02Z</time>
      </trkpt>
      <trkpt lat="43.59191" lon="3.20437">
        <ele>385.019002</ele>
        <time>2025-10-23T11:30:03Z</time>
      </trkpt>
      <trkpt lat="43.59188" lon="3.20433">
        <ele>385.058796</ele>
        <time>2025-10-23T11:30:04Z</time>
      </trkpt>
      <trkpt lat="43.59185" lon="3.2043">
        <ele>385.097763</ele>
        <time>2025-10-23T11:30:05Z</time>
      </trkpt>
      <trkpt lat="43.59182" lon="3.20427">
        <ele>385.137653</ele>
        <time>2025-10-23T11:30:06Z</time>
      </trkpt>
      <trkpt lat="43.59179" lon="3.20425">
        <ele>385.177051</ele>
        <time>2025-10-23T11:30:07Z</time>
      </trkpt>
      <trkpt lat="43.59176" lon="3.20421">
        <ele>385.217702</ele>
        <time>2025-10-23T11:30:08Z</time>
      </trkpt>
      <trkpt lat="43.59172" lon="3.20419">
        <ele>385.257981</ele>
        <time>2025-10-23T11:30:09Z</time>
      </trkpt>
      <trkpt lat="43.59169" lon="3.20416">
        <ele>385.296981</ele>
        <time>2025-10-23T11:30:10Z</time>
      </trkpt>
      <trkpt lat="43.59166" lon="3.20413">
        <ele>385.278147</ele>
        <time>2025-10-23T11:30:11Z</time>
      </trkpt>
      <trkpt lat="43.59163" lon="3.20411">
        <ele>385.22992</ele>
        <time>2025-10-23T11:30:12Z</time>
      </trkpt>
      <trkpt lat="43.59159" lon="3.20409">
        <ele>385.178509</ele>
        <time>2025-10-23T11:30:13Z</time>
      </trkpt>
      <trkpt lat="43.59156" lon="3.20406">
        <ele>385.12506</ele>
        <time>2025-10-23T11:30:14Z</time>
      </trkpt>
      <trkpt lat="43.59152" lon="3.20403">
        <ele>385.069707</ele>
        <time>2025-10-23T11:30:15Z</time>
      </trkpt>
      <trkpt lat="43.59148" lon="3.204">
        <ele>385.012747</ele>
        <time>2025-10-23T11:30:16Z</time>
      </trkpt>
      <trkpt lat="43.59145" lon="3.20397">
        <ele>384.958496</ele>
        <time>2025-10-23T11:30:17Z</time>
      </trkpt>
      <trkpt lat="43.59141" lon="3.20393">
        <ele>384.904813</ele>
        <time>2025-10-23T11:30:18Z</time>
      </trkpt>
      <trkpt lat="43.59138" lon="3.2039">
        <ele>384.852203</ele>
        <time>2025-10-23T11:30:19Z</time>
      </trkpt>
      <trkpt lat="43.59135" lon="3.20387">
        <ele>384.801203</ele>
        <time>2025-10-23T11:30:20Z</time>
      </trkpt>
      <trkpt lat="43.59132" lon="3.20384">
        <ele>384.749962</ele>
        <time>2025-10-23T11:30:21Z</time>
      </trkpt>
      <trkpt lat="43.59129" lon="3.2038">
        <ele>384.701923</ele>
        <time>2025-10-23T11:30:22Z</time>
      </trkpt>
      <trkpt lat="43.59127" lon="3.20376">
        <ele>384.652169</ele>
        <time>2025-10-23T11:30:23Z</time>
      </trkpt>
      <trkpt lat="43.59125" lon="3.20371">
        <ele>384.599843</ele>
        <time>2025-10-23T11:30:24Z</time>
      </trkpt>
      <trkpt lat="43.59123" lon="3.20366">
        <ele>384.548705</ele>
        <time>2025-10-23T11:30:25Z</time>
      </trkpt>
      <trkpt lat="43.59122" lon="3.20361">
        <ele>384.498779</ele>
        <time>2025-10-23T11:30:26Z</time>
      </trkpt>
      <trkpt lat="43.59122" lon="3.20356">
        <ele>384.450658</ele>
        <time>2025-10-23T11:30:27Z</time>
      </trkpt>
      <trkpt lat="43.59121" lon="3.20351">
        <ele>384.405003</ele>
        <time>2025-10-23T11:30:28Z</time>
      </trkpt>
      <trkpt lat="43.59121" lon="3.20346">
        <ele>384.355436</ele>
        <time>2025-10-23T11:30:29Z</time>
      </trkpt>
      <trkpt lat="43.5912" lon="3.20341">
        <ele>384.307742</ele>
        <time>2025-10-23T11:30:30Z</time>
      </trkpt>
      <trkpt lat="43.5912" lon="3.20336">
        <ele>384.25845</ele>
        <time>2025-10-23T11:30:31Z</time>
      </trkpt>
      <trkpt lat="43.5912" lon="3.2033">
        <ele>384.209245</ele>
        <time>2025-10-23T11:30:32Z</time>
      </trkpt>
      <trkpt lat="43.59119" lon="3.20325">
        <ele>384.160773</ele>
        <time>2025-10-23T11:30:33Z</time>
      </trkpt>
      <trkpt lat="43.59119" lon="3.2032">
        <ele>384.108655</ele>
        <time>2025-10-23T11:30:34Z</time>
      </trkpt>
      <trkpt lat="43.59119" lon="3.20314">
        <ele>384.056098</ele>
        <time>2025-10-23T11:30:35Z</time>
      </trkpt>
      <trkpt lat="43.59119" lon="3.20308">
        <ele>384.000348</ele>
        <time>2025-10-23T11:30:36Z</time>
      </trkpt>
      <trkpt lat="43.59119" lon="3.20302">
        <ele>383.943637</ele>
        <time>2025-10-23T11:30:37Z</time>
      </trkpt>
      <trkpt lat="43.59119" lon="3.20297">
        <ele>383.887887</ele>
        <time>2025-10-23T11:30:38Z</time>
      </trkpt>
      <trkpt lat="43.59118" lon="3.20291">
        <ele>383.837535</ele>
        <time>2025-10-23T11:30:39Z</time>
      </trkpt>
      <trkpt lat="43.59117" lon="3.20287">
        <ele>383.795759</ele>
        <time>2025-10-23T11:30:40Z</time>
      </trkpt>
      <trkpt lat="43.59116" lon="3.20284">
        <ele>383.757331</ele>
        <time>2025-10-23T11:30:41Z</time>
      </trkpt>
      <trkpt lat="43.59115" lon="3.2028">
        <ele>383.721778</ele>
        <time>2025-10-23T11:30:42Z</time>
      </trkpt>
      <trkpt lat="43.59114" lon="3.20277">
        <ele>383.690544</ele>
        <time>2025-10-23T11:30:43Z</time>
      </trkpt>
      <trkpt lat="43.59114" lon="3.20275">
        <ele>383.672169</ele>
        <time>2025-10-23T11:30:44Z</time>
      </trkpt>
      <trkpt lat="43.59114" lon="3.20274">
        <ele>383.664609</ele>
        <time>2025-10-23T11:30:45Z</time>
      </trkpt>
      <trkpt lat="43.59114" lon="3.20274">
        <ele>383.659708</ele>
        <time>2025-10-23T11:30:46Z</time>
      </trkpt>
      <trkpt lat="43.59114" lon="3.20274">
        <ele>383.658763</ele>
        <time>2025-10-23T11:30:47Z</time>
      </trkpt>
      <trkpt lat="43.59114" lon="3.20274">
        <ele>383.658763</ele>
        <time>2025-10-23T11:30:48Z</time>
      </trkpt>
      <trkpt lat="43.59114" lon="3.20274">
        <ele>383.652628</ele>
        <time>2025-10-23T11:31:22Z</time>
      </trkpt>
      <trkpt lat="43.59114" lon="3.20274">
        <ele>383.650332</ele>
        <time>2025-10-23T11:31:23Z</time>
      </trkpt>
      <trkpt lat="43.59114" lon="3.20274">
        <ele>383.644891</ele>
        <time>2025-10-23T11:31:24Z</time>
      </trkpt>
      <trkpt lat="43.59115" lon="3.20271">
        <ele>383.61963</ele>
        <time>2025-10-23T11:31:25Z</time>
      </trkpt>
      <trkpt lat="43.59116" lon="3.20269">
        <ele>383.593044</ele>
        <time>2025-10-23T11:31:26Z</time>
      </trkpt>
      <trkpt lat="43.59116" lon="3.20265">
        <ele>383.560916</ele>
        <time>2025-10-23T11:31:27Z</time>
      </trkpt>
      <trkpt lat="43.59115" lon="3.20261">
        <ele>383.519014</ele>
        <time>2025-10-23T11:31:28Z</time>
      </trkpt>
      <trkpt lat="43.59115" lon="3.20256">
        <ele>383.474297</ele>
        <time>2025-10-23T11:31:29Z</time>
      </trkpt>
      <trkpt lat="43.59114" lon="3.20251">
        <ele>383.422065</ele>
        <time>2025-10-23T11:31:30Z</time>
      </trkpt>
      <trkpt lat="43.59114" lon="3.20245">
        <ele>383.370029</ele>
        <time>2025-10-23T11:31:31Z</time>
      </trkpt>
      <trkpt lat="43.59114" lon="3.20239">
        <ele>383.316105</ele>
        <time>2025-10-23T11:31:32Z</time>
      </trkpt>
      <trkpt lat="43.59114" lon="3.20234">
        <ele>383.261052</ele>
        <time>2025-10-23T11:31:33Z</time>
      </trkpt>
      <trkpt lat="43.59113" lon="3.20228">
        <ele>383.205859</ele>
        <time>2025-10-23T11:31:34Z</time>
      </trkpt>
      <trkpt lat="43.59113" lon="3.20222">
        <ele>383.153481</ele>
        <time>2025-10-23T11:31:35Z</time>
      </trkpt>
      <trkpt lat="43.59112" lon="3.20217">
        <ele>383.101102</ele>
        <time>2025-10-23T11:31:36Z</time>
      </trkpt>
      <trkpt lat="43.59112" lon="3.20212">
        <ele>383.050954</ele>
        <time>2025-10-23T11:31:37Z</time>
      </trkpt>
      <trkpt lat="43.59112" lon="3.20206">
        <ele>383.000856</ele>
        <time>2025-10-23T11:31:38Z</time>
      </trkpt>
      <trkpt lat="43.59111" lon="3.20201">
        <ele>383.00011</ele>
        <time>2025-10-23T11:31:39Z</time>
      </trkpt>
      <trkpt lat="43.59111" lon="3.20195">
        <ele>383.106455</ele>
        <time>2025-10-23T11:31:40Z</time>
      </trkpt>
      <trkpt lat="43.5911" lon="3.2019">
        <ele>383.210827</ele>
        <time>2025-10-23T11:31:41Z</time>
      </trkpt>
      <trkpt lat="43.5911" lon="3.20185">
        <ele>383.31462</ele>
        <time>2025-10-23T11:31:42Z</time>
      </trkpt>
      <trkpt lat="43.5911" lon="3.2018">
        <ele>383.412115</ele>
        <time>2025-10-23T11:31:43Z</time>
      </trkpt>
      <trkpt lat="43.5911" lon="3.20175">
        <ele>383.509765</ele>
        <time>2025-10-23T11:31:44Z</time>
      </trkpt>
      <trkpt lat="43.59109" lon="3.20171">
        <ele>383.59968</ele>
        <time>2025-10-23T11:31:45Z</time>
      </trkpt>
      <trkpt lat="43.59109" lon="3.20166">
        <ele>383.689889</ele>
        <time>2025-10-23T11:31:46Z</time>
      </trkpt>
      <trkpt lat="43.59109" lon="3.20162">
        <ele>383.779594</ele>
        <time>2025-10-23T11:31:47Z</time>
      </trkpt>
      <trkpt lat="43.59109" lon="3.20157">
        <ele>383.871491</ele>
        <time>2025-10-23T11:31:48Z</time>
      </trkpt>
      <trkpt lat="43.59108" lon="3.20153">
        <ele>383.957751</ele>
        <time>2025-10-23T11:31:49Z</time>
      </trkpt>
      <trkpt lat="43.59108" lon="3.20148">
        <ele>384.051267</ele>
        <time>2025-10-23T11:31:50Z</time>
      </trkpt>
      <trkpt lat="43.59107" lon="3.20143">
        <ele>384.144792</ele>
        <time>2025-10-23T11:31:51Z</time>
      </trkpt>
      <trkpt lat="43.59107" lon="3.20139">
        <ele>384.234371</ele>
        <time>2025-10-23T11:31:52Z</time>
      </trkpt>
      <trkpt lat="43.59107" lon="3.20134">
        <ele>384.333894</ele>
        <time>2025-10-23T11:31:53Z</time>
      </trkpt>
      <trkpt lat="43.59107" lon="3.20129">
        <ele>384.431389</ele>
        <time>2025-10-23T11:31:54Z</time>
      </trkpt>
      <trkpt lat="43.59107" lon="3.20124">
        <ele>384.527053</ele>
        <time>2025-10-23T11:31:55Z</time>
      </trkpt>
      <trkpt lat="43.59107" lon="3.20119">
        <ele>384.622914</ele>
        <time>2025-10-23T11:31:56Z</time>
      </trkpt>
      <trkpt lat="43.59107" lon="3.20115">
        <ele>384.712619</ele>
        <time>2025-10-23T11:31:57Z</time>
      </trkpt>
      <trkpt lat="43.59106" lon="3.2011">
        <ele>384.800553</ele>
        <time>2025-10-23T11:31:58Z</time>
      </trkpt>
      <trkpt lat="43.59106" lon="3.20106">
        <ele>384.884166</ele>
        <time>2025-10-23T11:31:59Z</time>
      </trkpt>
      <trkpt lat="43.59106" lon="3.20102">
        <ele>384.969723</ele>
        <time>2025-10-23T11:32:00Z</time>
      </trkpt>
      <trkpt lat="43.59106" lon="3.20098">
        <ele>385.051301</ele>
        <time>2025-10-23T11:32:01Z</time>
      </trkpt>
      <trkpt lat="43.59106" lon="3.20094">
        <ele>385.133064</ele>
        <time>2025-10-23T11:32:02Z</time>
      </trkpt>
      <trkpt lat="43.59106" lon="3.2009">
        <ele>385.217351</ele>
        <time>2025-10-23T11:32:03Z</time>
      </trkpt>
      <trkpt lat="43.59105" lon="3.20085">
        <ele>385.301099</ele>
        <time>2025-10-23T11:32:04Z</time>
      </trkpt>
      <trkpt lat="43.59105" lon="3.20081">
        <ele>385.3867</ele>
        <time>2025-10-23T11:32:05Z</time>
      </trkpt>
      <trkpt lat="43.59105" lon="3.20077">
        <ele>385.47296</ele>
        <time>2025-10-23T11:32:06Z</time>
      </trkpt>
      <trkpt lat="43.59105" lon="3.20073">
        <ele>385.552974</ele>
        <time>2025-10-23T11:32:07Z</time>
      </trkpt>
      <trkpt lat="43.59104" lon="3.20069">
        <ele>385.636587</ele>
        <time>2025-10-23T11:32:08Z</time>
      </trkpt>
      <trkpt lat="43.59104" lon="3.20065">
        <ele>385.71693</ele>
        <time>2025-10-23T11:32:09Z</time>
      </trkpt>
      <trkpt lat="43.59104" lon="3.20061">
        <ele>385.786786</ele>
        <time>2025-10-23T11:32:10Z</time>
      </trkpt>
      <trkpt lat="43.59104" lon="3.20057">
        <ele>385.862595</ele>
        <time>2025-10-23T11:32:11Z</time>
      </trkpt>
      <trkpt lat="43.59104" lon="3.20054">
        <ele>385.932288</ele>
        <time>2025-10-23T11:32:12Z</time>
      </trkpt>
      <trkpt lat="43.59103" lon="3.2005">
        <ele>386.000161</ele>
        <time>2025-10-23T11:32:13Z</time>
      </trkpt>
      <trkpt lat="43.59103" lon="3.20047">
        <ele>386.064773</ele>
        <time>2025-10-23T11:32:14Z</time>
      </trkpt>
      <trkpt lat="43.59103" lon="3.20044">
        <ele>386.125031</ele>
        <time>2025-10-23T11:32:15Z</time>
      </trkpt>
      <trkpt lat="43.59102" lon="3.20041">
        <ele>386.185288</ele>
        <time>2025-10-23T11:32:16Z</time>
      </trkpt>
      <trkpt lat="43.59102" lon="3.20038">
        <ele>386.249018</ele>
        <time>2025-10-23T11:32:17Z</time>
      </trkpt>
      <trkpt lat="43.59102" lon="3.20035">
        <ele>386.312748</ele>
        <time>2025-10-23T11:32:18Z</time>
      </trkpt>
      <trkpt lat="43.59102" lon="3.20031">
        <ele>386.382873</ele>
        <time>2025-10-23T11:32:19Z</time>
      </trkpt>
      <trkpt lat="43.59102" lon="3.20028">
        <ele>386.448591</ele>
        <time>2025-10-23T11:32:20Z</time>
      </trkpt>
      <trkpt lat="43.59102" lon="3.20025">
        <ele>386.510272</ele>
        <time>2025-10-23T11:32:21Z</time>
      </trkpt>
      <trkpt lat="43.59101" lon="3.20022">
        <ele>386.562657</ele>
        <time>2025-10-23T11:32:22Z</time>
      </trkpt>
      <trkpt lat="43.59101" lon="3.20019">
        <ele>386.618639</ele>
        <time>2025-10-23T11:32:23Z</time>
      </trkpt>
      <trkpt lat="43.59101" lon="3.20017">
        <ele>386.673473</ele>
        <time>2025-10-23T11:32:24Z</time>
      </trkpt>
      <trkpt lat="43.59101" lon="3.20014">
        <ele>386.727476</ele>
        <time>2025-10-23T11:32:25Z</time>
      </trkpt>
      <trkpt lat="43.591" lon="3.20011">
        <ele>386.779499</ele>
        <time>2025-10-23T11:32:26Z</time>
      </trkpt>
      <trkpt lat="43.591" lon="3.20009">
        <ele>386.823272</ele>
        <time>2025-10-23T11:32:27Z</time>
      </trkpt>
      <trkpt lat="43.591" lon="3.20007">
        <ele>386.865056</ele>
        <time>2025-10-23T11:32:28Z</time>
      </trkpt>
      <trkpt lat="43.591" lon="3.20005">
        <ele>386.90693</ele>
        <time>2025-10-23T11:32:29Z</time>
      </trkpt>
      <trkpt lat="43.591" lon="3.20003">
        <ele>386.953022</ele>
        <time>2025-10-23T11:32:30Z</time>
      </trkpt>
      <trkpt lat="43.591" lon="3.2">
        <ele>386.999114</ele>
        <time>2025-10-23T11:32:31Z</time>
      </trkpt>
      <trkpt lat="43.591" lon="3.19998">
        <ele>387.048933</ele>
        <time>2025-10-23T11:32:32Z</time>
      </trkpt>
      <trkpt lat="43.591" lon="3.19995">
        <ele>387.100956</ele>
        <time>2025-10-23T11:32:33Z</time>
      </trkpt>
      <trkpt lat="43.59099" lon="3.19993">
        <ele>387.154958</ele>
        <time>2025-10-23T11:32:34Z</time>
      </trkpt>
      <trkpt lat="43.59099" lon="3.1999">
        <ele>387.203959</ele>
        <time>2025-10-23T11:32:35Z</time>
      </trkpt>
      <trkpt lat="43.59099" lon="3.19988">
        <ele>387.25296</ele>
        <time>2025-10-23T11:32:36Z</time>
      </trkpt>
      <trkpt lat="43.59098" lon="3.19985">
        <ele>387.306963</ele>
        <time>2025-10-23T11:32:37Z</time>
      </trkpt>
      <trkpt lat="43.59098" lon="3.19983">
        <ele>387.355031</ele>
        <time>2025-10-23T11:32:38Z</time>
      </trkpt>
      <trkpt lat="43.59098" lon="3.1998">
        <ele>387.405452</ele>
        <time>2025-10-23T11:32:39Z</time>
      </trkpt>
      <trkpt lat="43.59098" lon="3.19978">
        <ele>387.453283</ele>
        <time>2025-10-23T11:32:40Z</time>
      </trkpt>
      <trkpt lat="43.59098" lon="3.19975">
        <ele>387.503102</ele>
        <time>2025-10-23T11:32:41Z</time>
      </trkpt>
      <trkpt lat="43.59098" lon="3.19973">
        <ele>387.55117</ele>
        <time>2025-10-23T11:32:42Z</time>
      </trkpt>
      <trkpt lat="43.59097" lon="3.19971">
        <ele>387.597016</ele>
        <time>2025-10-23T11:32:43Z</time>
      </trkpt>
      <trkpt lat="43.59097" lon="3.19969">
        <ele>387.636905</ele>
        <time>2025-10-23T11:32:44Z</time>
      </trkpt>
      <trkpt lat="43.59097" lon="3.19967">
        <ele>387.676699</ele>
        <time>2025-10-23T11:32:45Z</time>
      </trkpt>
      <trkpt lat="43.59097" lon="3.19965">
        <ele>387.71687</ele>
        <time>2025-10-23T11:32:46Z</time>
      </trkpt>
      <trkpt lat="43.59097" lon="3.19963">
        <ele>387.758654</ele>
        <time>2025-10-23T11:32:47Z</time>
      </trkpt>
      <trkpt lat="43.59097" lon="3.1996">
        <ele>387.805154</ele>
        <time>2025-10-23T11:32:48Z</time>
      </trkpt>
      <trkpt lat="43.59097" lon="3.19958">
        <ele>387.849271</ele>
        <time>2025-10-23T11:32:49Z</time>
      </trkpt>
      <trkpt lat="43.59096" lon="3.19955">
        <ele>387.91108</ele>
        <time>2025-10-23T11:32:50Z</time>
      </trkpt>
      <trkpt lat="43.59096" lon="3.19952">
        <ele>387.988558</ele>
        <time>2025-10-23T11:32:51Z</time>
      </trkpt>
      <trkpt lat="43.59096" lon="3.1995">
        <ele>388.060203</ele>
        <time>2025-10-23T11:32:52Z</time>
      </trkpt>
      <trkpt lat="43.59096" lon="3.19948">
        <ele>388.126235</ele>
        <time>2025-10-23T11:32:53Z</time>
      </trkpt>
      <trkpt lat="43.59096" lon="3.19946">
        <ele>388.180829</ele>
        <time>2025-10-23T11:32:54Z</time>
      </trkpt>
      <trkpt lat="43.59096" lon="3.19943">
        <ele>388.244371</ele>
        <time>2025-10-23T11:32:55Z</time>
      </trkpt>
      <trkpt lat="43.59096" lon="3.19941">
        <ele>388.321748</ele>
        <time>2025-10-23T11:32:56Z</time>
      </trkpt>
      <trkpt lat="43.59096" lon="3.19938">
        <ele>388.407813</ele>
        <time>2025-10-23T11:32:57Z</time>
      </trkpt>
      <trkpt lat="43.59096" lon="3.19935">
        <ele>388.491015</ele>
        <time>2025-10-23T11:32:58Z</time>
      </trkpt>
      <trkpt lat="43.59096" lon="3.19932">
        <ele>388.568392</ele>
        <time>2025-10-23T11:32:59Z</time>
      </trkpt>
      <trkpt lat="43.59096" lon="3.1993">
        <ele>388.637284</ele>
        <time>2025-10-23T11:33:00Z</time>
      </trkpt>
      <trkpt lat="43.59096" lon="3.19927">
        <ele>388.723258</ele>
        <time>2025-10-23T11:33:01Z</time>
      </trkpt>
      <trkpt lat="43.59096" lon="3.19924">
        <ele>388.812888</ele>
        <time>2025-10-23T11:33:02Z</time>
      </trkpt>
      <trkpt lat="43.59096" lon="3.19921">
        <ele>388.899677</ele>
        <time>2025-10-23T11:33:03Z</time>
      </trkpt>
      <trkpt lat="43.59097" lon="3.19918">
        <ele>388.985108</ele>
        <time>2025-10-23T11:33:04Z</time>
      </trkpt>
      <trkpt lat="43.59097" lon="3.19915">
        <ele>389.066896</ele>
        <time>2025-10-23T11:33:05Z</time>
      </trkpt>
      <trkpt lat="43.59098" lon="3.19912">
        <ele>389.145875</ele>
        <time>2025-10-23T11:33:06Z</time>
      </trkpt>
      <trkpt lat="43.59098" lon="3.19909">
        <ele>389.233293</ele>
        <time>2025-10-23T11:33:07Z</time>
      </trkpt>
      <trkpt lat="43.59098" lon="3.19906">
        <ele>389.319631</ele>
        <time>2025-10-23T11:33:08Z</time>
      </trkpt>
      <trkpt lat="43.59099" lon="3.19903">
        <ele>389.409956</ele>
        <time>2025-10-23T11:33:09Z</time>
      </trkpt>
      <trkpt lat="43.591" lon="3.199">
        <ele>389.498177</ele>
        <time>2025-10-23T11:33:10Z</time>
      </trkpt>
      <trkpt lat="43.591" lon="3.19897">
        <ele>389.585779</ele>
        <time>2025-10-23T11:33:11Z</time>
      </trkpt>
      <trkpt lat="43.59101" lon="3.19895">
        <ele>389.667567</ele>
        <time>2025-10-23T11:33:12Z</time>
      </trkpt>
      <trkpt lat="43.59101" lon="3.19892">
        <ele>389.754356</ele>
        <time>2025-10-23T11:33:13Z</time>
      </trkpt>
      <trkpt lat="43.59101" lon="3.19889">
        <ele>389.835472</ele>
        <time>2025-10-23T11:33:14Z</time>
      </trkpt>
      <trkpt lat="43.59102" lon="3.19886">
        <ele>389.910922</ele>
        <time>2025-10-23T11:33:15Z</time>
      </trkpt>
      <trkpt lat="43.59102" lon="3.19883">
        <ele>389.994406</ele>
        <time>2025-10-23T11:33:16Z</time>
      </trkpt>
      <trkpt lat="43.59102" lon="3.1988">
        <ele>390.074746</ele>
        <time>2025-10-23T11:33:17Z</time>
      </trkpt>
      <trkpt lat="43.59102" lon="3.19877">
        <ele>390.161083</ele>
        <time>2025-10-23T11:33:18Z</time>
      </trkpt>
      <trkpt lat="43.59103" lon="3.19875">
        <ele>390.240949</ele>
        <time>2025-10-23T11:33:19Z</time>
      </trkpt>
      <trkpt lat="43.59103" lon="3.19872">
        <ele>390.311526</ele>
        <time>2025-10-23T11:33:20Z</time>
      </trkpt>
      <trkpt lat="43.59104" lon="3.1987">
        <ele>390.392462</ele>
        <time>2025-10-23T11:33:21Z</time>
      </trkpt>
      <trkpt lat="43.59104" lon="3.19867">
        <ele>390.470664</ele>
        <time>2025-10-23T11:33:22Z</time>
      </trkpt>
      <trkpt lat="43.59105" lon="3.19864">
        <ele>390.550529</ele>
        <time>2025-10-23T11:33:23Z</time>
      </trkpt>
      <trkpt lat="43.59105" lon="3.19861">
        <ele>390.636962</ele>
        <time>2025-10-23T11:33:24Z</time>
      </trkpt>
      <trkpt lat="43.59105" lon="3.19859">
        <ele>390.720164</ele>
        <time>2025-10-23T11:33:25Z</time>
      </trkpt>
      <trkpt lat="43.59105" lon="3.19856">
        <ele>390.79849</ele>
        <time>2025-10-23T11:33:26Z</time>
      </trkpt>
      <trkpt lat="43.59104" lon="3.19854">
        <ele>390.868137</ele>
        <time>2025-10-23T11:33:27Z</time>
      </trkpt>
      <trkpt lat="43.59103" lon="3.19852">
        <ele>390.935445</ele>
        <time>2025-10-23T11:33:28Z</time>
      </trkpt>
      <trkpt lat="43.59102" lon="3.19851">
        <ele>390.987869</ele>
        <time>2025-10-23T11:33:29Z</time>
      </trkpt>
      <trkpt lat="43.59101" lon="3.1985">
        <ele>391.021553</ele>
        <time>2025-10-23T11:33:30Z</time>
      </trkpt>
      <trkpt lat="43.59101" lon="3.19849">
        <ele>391.042903</ele>
        <time>2025-10-23T11:33:31Z</time>
      </trkpt>
      <trkpt lat="43.59101" lon="3.19849">
        <ele>391.047789</ele>
        <time>2025-10-23T11:33:32Z</time>
      </trkpt>
      <trkpt lat="43.59102" lon="3.19849">
        <ele>391.077102</ele>
        <time>2025-10-23T11:33:33Z</time>
      </trkpt>
      <trkpt lat="43.59102" lon="3.19848">
        <ele>391.104831</ele>
        <time>2025-10-23T11:33:34Z</time>
      </trkpt>
      <trkpt lat="43.59103" lon="3.19848">
        <ele>391.146914</ele>
        <time>2025-10-23T11:33:35Z</time>
      </trkpt>
      <trkpt lat="43.59104" lon="3.19847">
        <ele>391.186458</ele>
        <time>2025-10-23T11:33:36Z</time>
      </trkpt>
      <trkpt lat="43.59105" lon="3.19846">
        <ele>391.232188</ele>
        <time>2025-10-23T11:33:37Z</time>
      </trkpt>
      <trkpt lat="43.59106" lon="3.19845">
        <ele>391.292534</ele>
        <time>2025-10-23T11:33:38Z</time>
      </trkpt>
      <trkpt lat="43.59107" lon="3.19843">
        <ele>391.366969</ele>
        <time>2025-10-23T11:33:39Z</time>
      </trkpt>
      <trkpt lat="43.59108" lon="3.19841">
        <ele>391.432445</ele>
        <time>2025-10-23T11:33:40Z</time>
      </trkpt>
      <trkpt lat="43.59108" lon="3.19838">
        <ele>391.499814</ele>
        <time>2025-10-23T11:33:41Z</time>
      </trkpt>
      <trkpt lat="43.59109" lon="3.19836">
        <ele>391.566787</ele>
        <time>2025-10-23T11:33:42Z</time>
      </trkpt>
      <trkpt lat="43.59109" lon="3.19834">
        <ele>391.638284</ele>
        <time>2025-10-23T11:33:43Z</time>
      </trkpt>
      <trkpt lat="43.5911" lon="3.19831">
        <ele>391.70886</ele>
        <time>2025-10-23T11:33:44Z</time>
      </trkpt>
      <trkpt lat="43.5911" lon="3.19829">
        <ele>391.767392</ele>
        <time>2025-10-23T11:33:45Z</time>
      </trkpt>
      <trkpt lat="43.5911" lon="3.19827">
        <ele>391.834366</ele>
        <time>2025-10-23T11:33:46Z</time>
      </trkpt>
      <trkpt lat="43.59111" lon="3.19825">
        <ele>391.892898</ele>
        <time>2025-10-23T11:33:47Z</time>
      </trkpt>
      <trkpt lat="43.59111" lon="3.19823">
        <ele>391.953598</ele>
        <time>2025-10-23T11:33:48Z</time>
      </trkpt>
      <trkpt lat="43.59111" lon="3.19821">
        <ele>392.019984</ele>
        <time>2025-10-23T11:33:49Z</time>
      </trkpt>
      <trkpt lat="43.59111" lon="3.19818">
        <ele>392.097764</ele>
        <time>2025-10-23T11:33:50Z</time>
      </trkpt>
      <trkpt lat="43.59112" lon="3.19815">
        <ele>392.17209</ele>
        <time>2025-10-23T11:33:51Z</time>
      </trkpt>
      <trkpt lat="43.59112" lon="3.19813">
        <ele>392.244171</ele>
        <time>2025-10-23T11:33:52Z</time>
      </trkpt>
      <trkpt lat="43.59112" lon="3.1981">
        <ele>392.323149</ele>
        <time>2025-10-23T11:33:53Z</time>
      </trkpt>
      <trkpt lat="43.59113" lon="3.19808">
        <ele>392.394717</ele>
        <time>2025-10-23T11:33:54Z</time>
      </trkpt>
      <trkpt lat="43.59113" lon="3.19805">
        <ele>392.465293</ele>
        <time>2025-10-23T11:33:55Z</time>
      </trkpt>
      <trkpt lat="43.59114" lon="3.19803">
        <ele>392.535089</ele>
        <time>2025-10-23T11:33:56Z</time>
      </trkpt>
      <trkpt lat="43.59114" lon="3.19801">
        <ele>392.607711</ele>
        <time>2025-10-23T11:33:57Z</time>
      </trkpt>
      <trkpt lat="43.59114" lon="3.19798">
        <ele>392.688342</ele>
        <time>2025-10-23T11:33:58Z</time>
      </trkpt>
      <trkpt lat="43.59114" lon="3.19795">
        <ele>392.76732</ele>
        <time>2025-10-23T11:33:59Z</time>
      </trkpt>
      <trkpt lat="43.59115" lon="3.19792">
        <ele>392.848276</ele>
        <time>2025-10-23T11:34:00Z</time>
      </trkpt>
      <trkpt lat="43.59116" lon="3.1979">
        <ele>392.926477</ele>
        <time>2025-10-23T11:34:01Z</time>
      </trkpt>
      <trkpt lat="43.59116" lon="3.19787">
        <ele>392.998558</ele>
        <time>2025-10-23T11:34:02Z</time>
      </trkpt>
      <trkpt lat="43.59116" lon="3.19785">
        <ele>393.06779</ele>
        <time>2025-10-23T11:34:03Z</time>
      </trkpt>
      <trkpt lat="43.59116" lon="3.19782">
        <ele>393.142301</ele>
        <time>2025-10-23T11:34:04Z</time>
      </trkpt>
      <trkpt lat="43.59117" lon="3.1978">
        <ele>393.217777</ele>
        <time>2025-10-23T11:34:05Z</time>
      </trkpt>
      <trkpt lat="43.59117" lon="3.19777">
        <ele>393.295978</ele>
        <time>2025-10-23T11:34:06Z</time>
      </trkpt>
      <trkpt lat="43.59118" lon="3.19774">
        <ele>393.385169</ele>
        <time>2025-10-23T11:34:07Z</time>
      </trkpt>
      <trkpt lat="43.59119" lon="3.19771">
        <ele>393.478984</ele>
        <time>2025-10-23T11:34:08Z</time>
      </trkpt>
      <trkpt lat="43.59119" lon="3.19767">
        <ele>393.582455</ele>
        <time>2025-10-23T11:34:09Z</time>
      </trkpt>
      <trkpt lat="43.59119" lon="3.19764">
        <ele>393.694501</ele>
        <time>2025-10-23T11:34:10Z</time>
      </trkpt>
      <trkpt lat="43.59119" lon="3.1976">
        <ele>393.803688</ele>
        <time>2025-10-23T11:34:11Z</time>
      </trkpt>
      <trkpt lat="43.59118" lon="3.19756">
        <ele>393.925375</ele>
        <time>2025-10-23T11:34:12Z</time>
      </trkpt>
      <trkpt lat="43.59117" lon="3.19751">
        <ele>394.0631</ele>
        <time>2025-10-23T11:34:13Z</time>
      </trkpt>
      <trkpt lat="43.59114" lon="3.19746">
        <ele>394.228739</ele>
        <time>2025-10-23T11:34:14Z</time>
      </trkpt>
      <trkpt lat="43.59112" lon="3.19741">
        <ele>394.40747</ele>
        <time>2025-10-23T11:34:15Z</time>
      </trkpt>
      <trkpt lat="43.59108" lon="3.19736">
        <ele>394.617799</ele>
        <time>2025-10-23T11:34:16Z</time>
      </trkpt>
      <trkpt lat="43.59105" lon="3.1973">
        <ele>394.822075</ele>
        <time>2025-10-23T11:34:17Z</time>
      </trkpt>
      <trkpt lat="43.59102" lon="3.19724">
        <ele>394.973755</ele>
        <time>2025-10-23T11:34:18Z</time>
      </trkpt>
      <trkpt lat="43.59098" lon="3.19717">
        <ele>394.564449</ele>
        <time>2025-10-23T11:34:19Z</time>
      </trkpt>
      <trkpt lat="43.59095" lon="3.19709">
        <ele>394.126164</ele>
        <time>2025-10-23T11:34:20Z</time>
      </trkpt>
      <trkpt lat="43.59092" lon="3.19701">
        <ele>393.684311</ele>
        <time>2025-10-23T11:34:21Z</time>
      </trkpt>
      <trkpt lat="43.59089" lon="3.19693">
        <ele>393.22783</ele>
        <time>2025-10-23T11:34:22Z</time>
      </trkpt>
      <trkpt lat="43.59086" lon="3.19685">
        <ele>392.772763</ele>
        <time>2025-10-23T11:34:23Z</time>
      </trkpt>
      <trkpt lat="43.59083" lon="3.19676">
        <ele>392.271204</ele>
        <time>2025-10-23T11:34:24Z</time>
      </trkpt>
      <trkpt lat="43.5908" lon="3.19666">
        <ele>391.774192</ele>
        <time>2025-10-23T11:34:25Z</time>
      </trkpt>
      <trkpt lat="43.59077" lon="3.19657">
        <ele>391.244468</ele>
        <time>2025-10-23T11:34:26Z</time>
      </trkpt>
      <trkpt lat="43.59074" lon="3.19647">
        <ele>390.703724</ele>
        <time>2025-10-23T11:34:27Z</time>
      </trkpt>
      <trkpt lat="43.59071" lon="3.19636">
        <ele>390.137462</ele>
        <time>2025-10-23T11:34:28Z</time>
      </trkpt>
      <trkpt lat="43.59068" lon="3.19626">
        <ele>389.585757</ele>
        <time>2025-10-23T11:34:29Z</time>
      </trkpt>
      <trkpt lat="43.59065" lon="3.19617">
        <ele>389.086862</ele>
        <time>2025-10-23T11:34:30Z</time>
      </trkpt>
      <trkpt lat="43.59062" lon="3.19607">
        <ele>388.590552</ele>
        <time>2025-10-23T11:34:31Z</time>
      </trkpt>
      <trkpt lat="43.5906" lon="3.19599">
        <ele>388.140696</ele>
        <time>2025-10-23T11:34:32Z</time>
      </trkpt>
      <trkpt lat="43.59058" lon="3.19591">
        <ele>387.737746</ele>
        <time>2025-10-23T11:34:33Z</time>
      </trkpt>
      <trkpt lat="43.59056" lon="3.19585">
        <ele>387.390754</ele>
        <time>2025-10-23T11:34:34Z</time>
      </trkpt>
      <trkpt lat="43.59055" lon="3.19579">
        <ele>387.108113</ele>
        <time>2025-10-23T11:34:35Z</time>
      </trkpt>
      <trkpt lat="43.59054" lon="3.19575">
        <ele>386.904269</ele>
        <time>2025-10-23T11:34:36Z</time>
      </trkpt>
      <trkpt lat="43.59054" lon="3.19573">
        <ele>386.788505</ele>
        <time>2025-10-23T11:34:37Z</time>
      </trkpt>
      <trkpt lat="43.59053" lon="3.19571">
        <ele>386.712146</ele>
        <time>2025-10-23T11:34:38Z</time>
      </trkpt>
      <trkpt lat="43.59053" lon="3.19571">
        <ele>386.688069</ele>
        <time>2025-10-23T11:34:39Z</time>
      </trkpt>
      <trkpt lat="43.59053" lon="3.19572">
        <ele>386.63668</ele>
        <time>2025-10-23T11:34:40Z</time>
      </trkpt>
      <trkpt lat="43.59053" lon="3.19572">
        <ele>386.629841</ele>
        <time>2025-10-23T11:34:41Z</time>
      </trkpt>
      <trkpt lat="43.59053" lon="3.19572">
        <ele>386.624887</ele>
        <time>2025-10-23T11:34:42Z</time>
      </trkpt>
      <trkpt lat="43.59053" lon="3.19572">
        <ele>386.619933</ele>
        <time>2025-10-23T11:34:43Z</time>
      </trkpt>
      <trkpt lat="43.59053" lon="3.19572">
        <ele>386.61498</ele>
        <time>2025-10-23T11:34:44Z</time>
      </trkpt>
      <trkpt lat="43.59053" lon="3.19572">
        <ele>386.608141</ele>
        <time>2025-10-23T11:34:45Z</time>
      </trkpt>
      <trkpt lat="43.59053" lon="3.19572">
        <ele>386.601301</ele>
        <time>2025-10-23T11:34:46Z</time>
      </trkpt>
      <trkpt lat="43.59053" lon="3.19572">
        <ele>386.601301</ele>
        <time>2025-10-23T11:34:47Z</time>
      </trkpt>
      <trkpt lat="43.59053" lon="3.19572">
        <ele>386.596348</ele>
        <time>2025-10-23T11:34:48Z</time>
      </trkpt>
      <trkpt lat="43.59053" lon="3.19572">
        <ele>386.596348</ele>
        <time>2025-10-23T11:34:49Z</time>
      </trkpt>
      <trkpt lat="43.59053" lon="3.19572">
        <ele>386.596348</ele>
        <time>2025-10-23T11:34:50Z</time>
      </trkpt>
      <trkpt lat="43.59053" lon="3.19572">
        <ele>386.591394</ele>
        <time>2025-10-23T11:34:51Z</time>
      </trkpt>
      <trkpt lat="43.59053" lon="3.19572">
        <ele>386.586441</ele>
        <time>2025-10-23T11:34:52Z</time>
      </trkpt>
      <trkpt lat="43.59053" lon="3.19572">
        <ele>386.581487</ele>
        <time>2025-10-23T11:34:53Z</time>
      </trkpt>
      <trkpt lat="43.59053" lon="3.19572">
        <ele>386.576534</ele>
        <time>2025-10-23T11:34:54Z</time>
      </trkpt>
      <trkpt lat="43.59053" lon="3.19572">
        <ele>386.57158</ele>
        <time>2025-10-23T11:34:55Z</time>
      </trkpt>
      <trkpt lat="43.59053" lon="3.19572">
        <ele>386.566627</ele>
        <time>2025-10-23T11:34:56Z</time>
      </trkpt>
      <trkpt lat="43.59053" lon="3.19572">
        <ele>386.561673</ele>
        <time>2025-10-23T11:34:57Z</time>
      </trkpt>
      <trkpt lat="43.59053" lon="3.19572">
        <ele>386.549635</ele>
        <time>2025-10-23T11:34:58Z</time>
      </trkpt>
      <trkpt lat="43.59053" lon="3.19572">
        <ele>386.532745</ele>
        <time>2025-10-23T11:34:59Z</time>
      </trkpt>
      <trkpt lat="43.59053" lon="3.19572">
        <ele>386.527792</ele>
        <time>2025-10-23T11:35:00Z</time>
      </trkpt>
      <trkpt lat="43.59053" lon="3.19572">
        <ele>386.527792</ele>
        <time>2025-10-23T11:35:01Z</time>
      </trkpt>
      <trkpt lat="43.59053" lon="3.19572">
        <ele>386.522838</ele>
        <time>2025-10-23T11:35:02Z</time>
      </trkpt>
      <trkpt lat="43.59053" lon="3.19572">
        <ele>386.522838</ele>
        <time>2025-10-23T11:35:03Z</time>
      </trkpt>
      <trkpt lat="43.59053" lon="3.19572">
        <ele>386.517885</ele>
        <time>2025-10-23T11:35:04Z</time>
      </trkpt>
      <trkpt lat="43.59053" lon="3.19572">
        <ele>386.512931</ele>
        <time>2025-10-23T11:35:05Z</time>
      </trkpt>
      <trkpt lat="43.59053" lon="3.19572">
        <ele>386.512931</ele>
        <time>2025-10-23T11:35:06Z</time>
      </trkpt>
      <trkpt lat="43.59053" lon="3.19572">
        <ele>386.504486</ele>
        <time>2025-10-23T11:35:07Z</time>
      </trkpt>
      <trkpt lat="43.59053" lon="3.19572">
        <ele>386.504486</ele>
        <time>2025-10-23T11:35:08Z</time>
      </trkpt>
      <trkpt lat="43.59053" lon="3.19572">
        <ele>386.504486</ele>
        <time>2025-10-23T11:35:09Z</time>
      </trkpt>
      <trkpt lat="43.59053" lon="3.19572">
        <ele>386.504486</ele>
        <time>2025-10-23T11:35:10Z</time>
      </trkpt>
      <trkpt lat="43.59053" lon="3.19572">
        <ele>386.497647</ele>
        <time>2025-10-23T11:35:11Z</time>
      </trkpt>
      <trkpt lat="43.59053" lon="3.19572">
        <ele>386.47288</ele>
        <time>2025-10-23T11:35:12Z</time>
      </trkpt>
      <trkpt lat="43.59052" lon="3.19569">
        <ele>386.319427</ele>
        <time>2025-10-23T11:35:13Z</time>
      </trkpt>
      <trkpt lat="43.59051" lon="3.19567">
        <ele>386.207602</ele>
        <time>2025-10-23T11:35:14Z</time>
      </trkpt>
      <trkpt lat="43.59051" lon="3.19564">
        <ele>386.074831</ele>
        <time>2025-10-23T11:35:15Z</time>
      </trkpt>
      <trkpt lat="43.5905" lon="3.1956">
        <ele>385.860079</ele>
        <time>2025-10-23T11:35:16Z</time>
      </trkpt>
      <trkpt lat="43.5905" lon="3.19555">
        <ele>385.626861</ele>
        <time>2025-10-23T11:35:17Z</time>
      </trkpt>
      <trkpt lat="43.5905" lon="3.1955">
        <ele>385.354416</ele>
        <time>2025-10-23T11:35:18Z</time>
      </trkpt>
      <trkpt lat="43.59051" lon="3.19544">
        <ele>385.051014</ele>
        <time>2025-10-23T11:35:19Z</time>
      </trkpt>
      <trkpt lat="43.59052" lon="3.19537">
        <ele>384.717003</ele>
        <time>2025-10-23T11:35:20Z</time>
      </trkpt>
      <trkpt lat="43.59053" lon="3.1953">
        <ele>384.367027</ele>
        <time>2025-10-23T11:35:21Z</time>
      </trkpt>
      <trkpt lat="43.59054" lon="3.19523">
        <ele>384.002525</ele>
        <time>2025-10-23T11:35:22Z</time>
      </trkpt>
      <trkpt lat="43.59056" lon="3.19516">
        <ele>383.613241</ele>
        <time>2025-10-23T11:35:23Z</time>
      </trkpt>
      <trkpt lat="43.59058" lon="3.19508">
        <ele>383.221579</ele>
        <time>2025-10-23T11:35:24Z</time>
      </trkpt>
      <trkpt lat="43.59061" lon="3.195">
        <ele>382.799062</ele>
        <time>2025-10-23T11:35:25Z</time>
      </trkpt>
      <trkpt lat="43.59063" lon="3.19493">
        <ele>382.478599</ele>
        <time>2025-10-23T11:35:26Z</time>
      </trkpt>
      <trkpt lat="43.59067" lon="3.19486">
        <ele>382.174591</ele>
        <time>2025-10-23T11:35:27Z</time>
      </trkpt>
      <trkpt lat="43.59069" lon="3.19477">
        <ele>381.851037</ele>
        <time>2025-10-23T11:35:28Z</time>
      </trkpt>
      <trkpt lat="43.59071" lon="3.19469">
        <ele>381.547873</ele>
        <time>2025-10-23T11:35:29Z</time>
      </trkpt>
      <trkpt lat="43.59073" lon="3.1946">
        <ele>381.218656</ele>
        <time>2025-10-23T11:35:30Z</time>
      </trkpt>
      <trkpt lat="43.59074" lon="3.19451">
        <ele>380.899136</ele>
        <time>2025-10-23T11:35:31Z</time>
      </trkpt>
      <trkpt lat="43.59074" lon="3.19442">
        <ele>380.571029</ele>
        <time>2025-10-23T11:35:32Z</time>
      </trkpt>
      <trkpt lat="43.59074" lon="3.19433">
        <ele>380.243217</ele>
        <time>2025-10-23T11:35:33Z</time>
      </trkpt>
      <trkpt lat="43.59074" lon="3.19423">
        <ele>379.894031</ele>
        <time>2025-10-23T11:35:34Z</time>
      </trkpt>
      <trkpt lat="43.59073" lon="3.19413">
        <ele>379.543634</ele>
        <time>2025-10-23T11:35:35Z</time>
      </trkpt>
      <trkpt lat="43.59073" lon="3.19403">
        <ele>379.171932</ele>
        <time>2025-10-23T11:35:36Z</time>
      </trkpt>
      <trkpt lat="43.59072" lon="3.19393">
        <ele>378.807332</ele>
        <time>2025-10-23T11:35:37Z</time>
      </trkpt>
      <trkpt lat="43.59071" lon="3.19382">
        <ele>378.421572</ele>
        <time>2025-10-23T11:35:38Z</time>
      </trkpt>
      <trkpt lat="43.5907" lon="3.19371">
        <ele>378.026282</ele>
        <time>2025-10-23T11:35:39Z</time>
      </trkpt>
      <trkpt lat="43.59068" lon="3.1936">
        <ele>377.611606</ele>
        <time>2025-10-23T11:35:40Z</time>
      </trkpt>
      <trkpt lat="43.59067" lon="3.19349">
        <ele>377.221549</ele>
        <time>2025-10-23T11:35:41Z</time>
      </trkpt>
      <trkpt lat="43.59065" lon="3.19338">
        <ele>376.81483</ele>
        <time>2025-10-23T11:35:42Z</time>
      </trkpt>
      <trkpt lat="43.59063" lon="3.19327">
        <ele>376.40713</ele>
        <time>2025-10-23T11:35:43Z</time>
      </trkpt>
      <trkpt lat="43.59061" lon="3.19315">
        <ele>375.99269</ele>
        <time>2025-10-23T11:35:44Z</time>
      </trkpt>
      <trkpt lat="43.59059" lon="3.19304">
        <ele>375.582682</ele>
        <time>2025-10-23T11:35:45Z</time>
      </trkpt>
      <trkpt lat="43.59057" lon="3.19293">
        <ele>375.161724</ele>
        <time>2025-10-23T11:35:46Z</time>
      </trkpt>
      <trkpt lat="43.59053" lon="3.19282">
        <ele>374.751948</ele>
        <time>2025-10-23T11:35:47Z</time>
      </trkpt>
      <trkpt lat="43.5905" lon="3.19273">
        <ele>374.381706</ele>
        <time>2025-10-23T11:35:48Z</time>
      </trkpt>
      <trkpt lat="43.59046" lon="3.19264">
        <ele>373.996853</ele>
        <time>2025-10-23T11:35:49Z</time>
      </trkpt>
      <trkpt lat="43.59042" lon="3.19255">
        <ele>373.547029</ele>
        <time>2025-10-23T11:35:50Z</time>
      </trkpt>
      <trkpt lat="43.59039" lon="3.19245">
        <ele>373.022636</ele>
        <time>2025-10-23T11:35:51Z</time>
      </trkpt>
      <trkpt lat="43.59036" lon="3.19235">
        <ele>372.543972</ele>
        <time>2025-10-23T11:35:52Z</time>
      </trkpt>
      <trkpt lat="43.59034" lon="3.19225">
        <ele>372.062859</ele>
        <time>2025-10-23T11:35:53Z</time>
      </trkpt>
      <trkpt lat="43.59032" lon="3.19215">
        <ele>371.596356</ele>
        <time>2025-10-23T11:35:54Z</time>
      </trkpt>
      <trkpt lat="43.59031" lon="3.19205">
        <ele>371.121847</ele>
        <time>2025-10-23T11:35:55Z</time>
      </trkpt>
      <trkpt lat="43.59031" lon="3.19195">
        <ele>370.643347</ele>
        <time>2025-10-23T11:35:56Z</time>
      </trkpt>
      <trkpt lat="43.5903" lon="3.19185">
        <ele>370.164847</ele>
        <time>2025-10-23T11:35:57Z</time>
      </trkpt>
      <trkpt lat="43.59029" lon="3.19175">
        <ele>369.686846</ele>
        <time>2025-10-23T11:35:58Z</time>
      </trkpt>
      <trkpt lat="43.59027" lon="3.19165">
        <ele>369.218499</ele>
        <time>2025-10-23T11:35:59Z</time>
      </trkpt>
      <trkpt lat="43.59025" lon="3.19155">
        <ele>368.73487</ele>
        <time>2025-10-23T11:36:00Z</time>
      </trkpt>
      <trkpt lat="43.59022" lon="3.19145">
        <ele>368.243058</ele>
        <time>2025-10-23T11:36:01Z</time>
      </trkpt>
      <trkpt lat="43.59019" lon="3.19135">
        <ele>367.733624</ele>
        <time>2025-10-23T11:36:02Z</time>
      </trkpt>
      <trkpt lat="43.59016" lon="3.19125">
        <ele>367.211892</ele>
        <time>2025-10-23T11:36:03Z</time>
      </trkpt>
      <trkpt lat="43.59012" lon="3.19115">
        <ele>366.69161</ele>
        <time>2025-10-23T11:36:04Z</time>
      </trkpt>
      <trkpt lat="43.59008" lon="3.19105">
        <ele>366.138614</ele>
        <time>2025-10-23T11:36:05Z</time>
      </trkpt>
      <trkpt lat="43.59004" lon="3.19095">
        <ele>365.614098</ele>
        <time>2025-10-23T11:36:06Z</time>
      </trkpt>
      <trkpt lat="43.59" lon="3.19085">
        <ele>365.082289</ele>
        <time>2025-10-23T11:36:07Z</time>
      </trkpt>
      <trkpt lat="43.58995" lon="3.19076">
        <ele>364.537276</ele>
        <time>2025-10-23T11:36:08Z</time>
      </trkpt>
      <trkpt lat="43.58989" lon="3.19067">
        <ele>364.018179</ele>
        <time>2025-10-23T11:36:09Z</time>
      </trkpt>
      <trkpt lat="43.58985" lon="3.1906">
        <ele>363.543715</ele>
        <time>2025-10-23T11:36:10Z</time>
      </trkpt>
      <trkpt lat="43.5898" lon="3.19052">
        <ele>363.079781</ele>
        <time>2025-10-23T11:36:11Z</time>
      </trkpt>
      <trkpt lat="43.58975" lon="3.19045">
        <ele>362.635634</ele>
        <time>2025-10-23T11:36:12Z</time>
      </trkpt>
      <trkpt lat="43.58972" lon="3.19038">
        <ele>362.189863</ele>
        <time>2025-10-23T11:36:13Z</time>
      </trkpt>
      <trkpt lat="43.58968" lon="3.1903">
        <ele>361.563147</ele>
        <time>2025-10-23T11:36:14Z</time>
      </trkpt>
      <trkpt lat="43.58966" lon="3.19021">
        <ele>360.934108</ele>
        <time>2025-10-23T11:36:15Z</time>
      </trkpt>
      <trkpt lat="43.58964" lon="3.19011">
        <ele>360.267526</ele>
        <time>2025-10-23T11:36:16Z</time>
      </trkpt>
      <trkpt lat="43.58962" lon="3.19001">
        <ele>359.570814</ele>
        <time>2025-10-23T11:36:17Z</time>
      </trkpt>
      <trkpt lat="43.58961" lon="3.1899">
        <ele>358.819627</ele>
        <time>2025-10-23T11:36:18Z</time>
      </trkpt>
      <trkpt lat="43.5896" lon="3.18979">
        <ele>358.066446</ele>
        <time>2025-10-23T11:36:19Z</time>
      </trkpt>
      <trkpt lat="43.58959" lon="3.18968">
        <ele>357.299982</ele>
        <time>2025-10-23T11:36:20Z</time>
      </trkpt>
      <trkpt lat="43.58958" lon="3.18956">
        <ele>356.538863</ele>
        <time>2025-10-23T11:36:21Z</time>
      </trkpt>
      <trkpt lat="43.58958" lon="3.18945">
        <ele>355.800412</ele>
        <time>2025-10-23T11:36:22Z</time>
      </trkpt>
      <trkpt lat="43.58959" lon="3.18934">
        <ele>355.038447</ele>
        <time>2025-10-23T11:36:23Z</time>
      </trkpt>
      <trkpt lat="43.5896" lon="3.18923">
        <ele>354.255509</ele>
        <time>2025-10-23T11:36:24Z</time>
      </trkpt>
      <trkpt lat="43.58961" lon="3.18911">
        <ele>353.487702</ele>
        <time>2025-10-23T11:36:25Z</time>
      </trkpt>
      <trkpt lat="43.58961" lon="3.189">
        <ele>352.76267</ele>
        <time>2025-10-23T11:36:26Z</time>
      </trkpt>
      <trkpt lat="43.58959" lon="3.18889">
        <ele>351.996549</ele>
        <time>2025-10-23T11:36:27Z</time>
      </trkpt>
      <trkpt lat="43.58956" lon="3.18879">
        <ele>351.242393</ele>
        <time>2025-10-23T11:36:28Z</time>
      </trkpt>
      <trkpt lat="43.58954" lon="3.18868">
        <ele>350.484975</ele>
        <time>2025-10-23T11:36:29Z</time>
      </trkpt>
      <trkpt lat="43.58952" lon="3.18857">
        <ele>349.703865</ele>
        <time>2025-10-23T11:36:30Z</time>
      </trkpt>
      <trkpt lat="43.58951" lon="3.18846">
        <ele>348.977222</ele>
        <time>2025-10-23T11:36:31Z</time>
      </trkpt>
      <trkpt lat="43.5895" lon="3.18835">
        <ele>348.254311</ele>
        <time>2025-10-23T11:36:32Z</time>
      </trkpt>
      <trkpt lat="43.58949" lon="3.18825">
        <ele>347.562076</ele>
        <time>2025-10-23T11:36:33Z</time>
      </trkpt>
      <trkpt lat="43.58949" lon="3.18815">
        <ele>346.907878</ele>
        <time>2025-10-23T11:36:34Z</time>
      </trkpt>
      <trkpt lat="43.58949" lon="3.18805">
        <ele>346.256903</ele>
        <time>2025-10-23T11:36:35Z</time>
      </trkpt>
      <trkpt lat="43.58949" lon="3.18796">
        <ele>345.616059</ele>
        <time>2025-10-23T11:36:36Z</time>
      </trkpt>
      <trkpt lat="43.5895" lon="3.18787">
        <ele>345.363701</ele>
        <time>2025-10-23T11:36:37Z</time>
      </trkpt>
      <trkpt lat="43.5895" lon="3.18778">
        <ele>345.121421</ele>
        <time>2025-10-23T11:36:38Z</time>
      </trkpt>
      <trkpt lat="43.58951" lon="3.1877">
        <ele>344.903747</ele>
        <time>2025-10-23T11:36:39Z</time>
      </trkpt>
      <trkpt lat="43.58951" lon="3.18763">
        <ele>344.705667</ele>
        <time>2025-10-23T11:36:40Z</time>
      </trkpt>
      <trkpt lat="43.58952" lon="3.18758">
        <ele>344.575186</ele>
        <time>2025-10-23T11:36:41Z</time>
      </trkpt>
      <trkpt lat="43.58953" lon="3.18755">
        <ele>344.494362</ele>
        <time>2025-10-23T11:36:42Z</time>
      </trkpt>
      <trkpt lat="43.58953" lon="3.18754">
        <ele>344.448134</ele>
        <time>2025-10-23T11:36:43Z</time>
      </trkpt>
      <trkpt lat="43.58953" lon="3.18754">
        <ele>344.42859</ele>
        <time>2025-10-23T11:36:44Z</time>
      </trkpt>
      <trkpt lat="43.58954" lon="3.18755">
        <ele>344.401649</ele>
        <time>2025-10-23T11:36:45Z</time>
      </trkpt>
      <trkpt lat="43.58954" lon="3.18755">
        <ele>344.37206</ele>
        <time>2025-10-23T11:36:46Z</time>
      </trkpt>
      <trkpt lat="43.58956" lon="3.18756">
        <ele>344.328581</ele>
        <time>2025-10-23T11:36:47Z</time>
      </trkpt>
      <trkpt lat="43.58957" lon="3.18755">
        <ele>344.288651</ele>
        <time>2025-10-23T11:36:48Z</time>
      </trkpt>
      <trkpt lat="43.58957" lon="3.18755">
        <ele>344.25389</ele>
        <time>2025-10-23T11:36:49Z</time>
      </trkpt>
      <trkpt lat="43.58957" lon="3.18754">
        <ele>344.233428</ele>
        <time>2025-10-23T11:36:50Z</time>
      </trkpt>
      <trkpt lat="43.58958" lon="3.18754">
        <ele>344.21952</ele>
        <time>2025-10-23T11:36:51Z</time>
      </trkpt>
      <trkpt lat="43.58958" lon="3.18754">
        <ele>344.210249</ele>
        <time>2025-10-23T11:36:52Z</time>
      </trkpt>
      <trkpt lat="43.58958" lon="3.18754">
        <ele>344.206494</ele>
        <time>2025-10-23T11:36:53Z</time>
      </trkpt>
      <trkpt lat="43.58958" lon="3.18754">
        <ele>344.195231</ele>
        <time>2025-10-23T11:36:54Z</time>
      </trkpt>
      <trkpt lat="43.58956" lon="3.18754">
        <ele>344.128628</ele>
        <time>2025-10-23T11:52:34Z</time>
      </trkpt>
      <trkpt lat="43.58956" lon="3.18755">
        <ele>344.117751</ele>
        <time>2025-10-23T11:52:35Z</time>
      </trkpt>
      <trkpt lat="43.58956" lon="3.18755">
        <ele>344.103844</ele>
        <time>2025-10-23T11:52:36Z</time>
      </trkpt>
      <trkpt lat="43.58954" lon="3.18754">
        <ele>344.055928</ele>
        <time>2025-10-23T11:52:37Z</time>
      </trkpt>
      <trkpt lat="43.58953" lon="3.18752">
        <ele>343.984105</ele>
        <time>2025-10-23T11:52:38Z</time>
      </trkpt>
      <trkpt lat="43.58952" lon="3.1875">
        <ele>343.906444</ele>
        <time>2025-10-23T11:52:39Z</time>
      </trkpt>
      <trkpt lat="43.58952" lon="3.18746">
        <ele>343.807404</ele>
        <time>2025-10-23T11:52:40Z</time>
      </trkpt>
      <trkpt lat="43.58952" lon="3.18743">
        <ele>343.717353</ele>
        <time>2025-10-23T11:52:41Z</time>
      </trkpt>
      <trkpt lat="43.58952" lon="3.1874">
        <ele>343.638137</ele>
        <time>2025-10-23T11:52:42Z</time>
      </trkpt>
      <trkpt lat="43.58952" lon="3.18737">
        <ele>343.554426</ele>
        <time>2025-10-23T11:52:43Z</time>
      </trkpt>
      <trkpt lat="43.58953" lon="3.18734">
        <ele>343.476819</ele>
        <time>2025-10-23T11:52:44Z</time>
      </trkpt>
      <trkpt lat="43.58953" lon="3.1873">
        <ele>343.378636</ele>
        <time>2025-10-23T11:52:45Z</time>
      </trkpt>
      <trkpt lat="43.58953" lon="3.18727">
        <ele>343.274217</ele>
        <time>2025-10-23T11:52:46Z</time>
      </trkpt>
      <trkpt lat="43.58953" lon="3.18723">
        <ele>343.162726</ele>
        <time>2025-10-23T11:52:47Z</time>
      </trkpt>
      <trkpt lat="43.58953" lon="3.18719">
        <ele>343.064543</ele>
        <time>2025-10-23T11:52:48Z</time>
      </trkpt>
      <trkpt lat="43.58953" lon="3.18716">
        <ele>342.972087</ele>
        <time>2025-10-23T11:52:49Z</time>
      </trkpt>
      <trkpt lat="43.58953" lon="3.18712">
        <ele>342.865968</ele>
        <time>2025-10-23T11:52:50Z</time>
      </trkpt>
      <trkpt lat="43.58953" lon="3.18708">
        <ele>342.765284</ele>
        <time>2025-10-23T11:52:51Z</time>
      </trkpt>
      <trkpt lat="43.58953" lon="3.18704">
        <ele>342.667317</ele>
        <time>2025-10-23T11:52:52Z</time>
      </trkpt>
      <trkpt lat="43.58953" lon="3.18701">
        <ele>342.569422</ele>
        <time>2025-10-23T11:52:53Z</time>
      </trkpt>
      <trkpt lat="43.58953" lon="3.18697">
        <ele>342.476661</ele>
        <time>2025-10-23T11:52:54Z</time>
      </trkpt>
      <trkpt lat="43.58953" lon="3.18694">
        <ele>342.373328</ele>
        <time>2025-10-23T11:52:55Z</time>
      </trkpt>
      <trkpt lat="43.58954" lon="3.18689">
        <ele>342.261584</ele>
        <time>2025-10-23T11:52:56Z</time>
      </trkpt>
      <trkpt lat="43.58954" lon="3.18685">
        <ele>342.139158</ele>
        <time>2025-10-23T11:52:57Z</time>
      </trkpt>
      <trkpt lat="43.58954" lon="3.18681">
        <ele>342.022228</ele>
        <time>2025-10-23T11:52:58Z</time>
      </trkpt>
      <trkpt lat="43.58953" lon="3.18676">
        <ele>341.896634</ele>
        <time>2025-10-23T11:52:59Z</time>
      </trkpt>
      <trkpt lat="43.58953" lon="3.18672">
        <ele>341.773347</ele>
        <time>2025-10-23T11:53:00Z</time>
      </trkpt>
      <trkpt lat="43.58953" lon="3.18667">
        <ele>341.660849</ele>
        <time>2025-10-23T11:53:01Z</time>
      </trkpt>
      <trkpt lat="43.58952" lon="3.18663">
        <ele>341.546576</ele>
        <time>2025-10-23T11:53:02Z</time>
      </trkpt>
      <trkpt lat="43.58952" lon="3.18658">
        <ele>341.411747</ele>
        <time>2025-10-23T11:53:03Z</time>
      </trkpt>
      <trkpt lat="43.58951" lon="3.18654">
        <ele>341.301367</ele>
        <time>2025-10-23T11:53:04Z</time>
      </trkpt>
      <trkpt lat="43.58951" lon="3.1865">
        <ele>341.192336</ele>
        <time>2025-10-23T11:53:05Z</time>
      </trkpt>
      <trkpt lat="43.5895" lon="3.18647">
        <ele>341.079834</ele>
        <time>2025-10-23T11:53:06Z</time>
      </trkpt>
      <trkpt lat="43.58949" lon="3.18643">
        <ele>340.971074</ele>
        <time>2025-10-23T11:53:07Z</time>
      </trkpt>
      <trkpt lat="43.58948" lon="3.18639">
        <ele>340.86085</ele>
        <time>2025-10-23T11:53:08Z</time>
      </trkpt>
      <trkpt lat="43.58947" lon="3.18635">
        <ele>340.749769</ele>
        <time>2025-10-23T11:53:09Z</time>
      </trkpt>
      <trkpt lat="43.58947" lon="3.18631">
        <ele>340.630689</ele>
        <time>2025-10-23T11:53:10Z</time>
      </trkpt>
      <trkpt lat="43.58946" lon="3.18626">
        <ele>340.493226</ele>
        <time>2025-10-23T11:53:11Z</time>
      </trkpt>
      <trkpt lat="43.58945" lon="3.18621">
        <ele>340.351127</ele>
        <time>2025-10-23T11:53:12Z</time>
      </trkpt>
      <trkpt lat="43.58944" lon="3.18615">
        <ele>340.185458</ele>
        <time>2025-10-23T11:53:13Z</time>
      </trkpt>
      <trkpt lat="43.58943" lon="3.18609">
        <ele>340.017511</ele>
        <time>2025-10-23T11:53:14Z</time>
      </trkpt>
      <trkpt lat="43.58942" lon="3.18602">
        <ele>339.836123</ele>
        <time>2025-10-23T11:53:15Z</time>
      </trkpt>
      <trkpt lat="43.58942" lon="3.18595">
        <ele>339.644848</ele>
        <time>2025-10-23T11:53:16Z</time>
      </trkpt>
      <trkpt lat="43.58941" lon="3.18588">
        <ele>339.440038</ele>
        <time>2025-10-23T11:53:17Z</time>
      </trkpt>
      <trkpt lat="43.58941" lon="3.1858">
        <ele>339.243924</ele>
        <time>2025-10-23T11:53:18Z</time>
      </trkpt>
      <trkpt lat="43.58941" lon="3.18573">
        <ele>339.053572</ele>
        <time>2025-10-23T11:53:19Z</time>
      </trkpt>
      <trkpt lat="43.58941" lon="3.18567">
        <ele>338.874059</ele>
        <time>2025-10-23T11:53:20Z</time>
      </trkpt>
      <trkpt lat="43.5894" lon="3.18561">
        <ele>338.733167</ele>
        <time>2025-10-23T11:53:21Z</time>
      </trkpt>
      <trkpt lat="43.5894" lon="3.18555">
        <ele>338.595785</ele>
        <time>2025-10-23T11:53:22Z</time>
      </trkpt>
      <trkpt lat="43.5894" lon="3.18549">
        <ele>338.458121</ele>
        <time>2025-10-23T11:53:23Z</time>
      </trkpt>
      <trkpt lat="43.5894" lon="3.18542">
        <ele>338.316271</ele>
        <time>2025-10-23T11:53:24Z</time>
      </trkpt>
      <trkpt lat="43.5894" lon="3.18536">
        <ele>338.169885</ele>
        <time>2025-10-23T11:53:25Z</time>
      </trkpt>
      <trkpt lat="43.5894" lon="3.18529">
        <ele>338.014245</ele>
        <time>2025-10-23T11:53:26Z</time>
      </trkpt>
      <trkpt lat="43.58941" lon="3.18521">
        <ele>337.845261</ele>
        <time>2025-10-23T11:53:27Z</time>
      </trkpt>
      <trkpt lat="43.58941" lon="3.18514">
        <ele>337.683027</ele>
        <time>2025-10-23T11:53:28Z</time>
      </trkpt>
      <trkpt lat="43.58941" lon="3.18508">
        <ele>337.550038</ele>
        <time>2025-10-23T11:53:29Z</time>
      </trkpt>
      <trkpt lat="43.58941" lon="3.18504">
        <ele>337.45302</ele>
        <time>2025-10-23T11:53:30Z</time>
      </trkpt>
      <trkpt lat="43.5894" lon="3.18501">
        <ele>337.381695</ele>
        <time>2025-10-23T11:53:31Z</time>
      </trkpt>
      <trkpt lat="43.58939" lon="3.18501">
        <ele>337.350284</ele>
        <time>2025-10-23T11:53:32Z</time>
      </trkpt>
      <trkpt lat="43.58938" lon="3.18503">
        <ele>337.302872</ele>
        <time>2025-10-23T11:53:33Z</time>
      </trkpt>
      <trkpt lat="43.58938" lon="3.18504">
        <ele>337.263475</ele>
        <time>2025-10-23T11:53:34Z</time>
      </trkpt>
      <trkpt lat="43.58939" lon="3.18506">
        <ele>337.222827</ele>
        <time>2025-10-23T11:53:35Z</time>
      </trkpt>
      <trkpt lat="43.58939" lon="3.18508">
        <ele>337.173936</ele>
        <time>2025-10-23T11:53:36Z</time>
      </trkpt>
      <trkpt lat="43.58939" lon="3.1851">
        <ele>337.126653</ele>
        <time>2025-10-23T11:53:37Z</time>
      </trkpt>
      <trkpt lat="43.58939" lon="3.18513">
        <ele>337.077761</ele>
        <time>2025-10-23T11:53:38Z</time>
      </trkpt>
      <trkpt lat="43.58938" lon="3.18515">
        <ele>337.022311</ele>
        <time>2025-10-23T11:53:39Z</time>
      </trkpt>
      <trkpt lat="43.58938" lon="3.18517">
        <ele>336.964664</ele>
        <time>2025-10-23T11:53:40Z</time>
      </trkpt>
      <trkpt lat="43.58937" lon="3.1852">
        <ele>336.902612</ele>
        <time>2025-10-23T11:53:41Z</time>
      </trkpt>
      <trkpt lat="43.58937" lon="3.18522">
        <ele>336.857473</ele>
        <time>2025-10-23T11:53:42Z</time>
      </trkpt>
      <trkpt lat="43.58937" lon="3.18523">
        <ele>336.836972</ele>
        <time>2025-10-23T11:53:43Z</time>
      </trkpt>
      <trkpt lat="43.58937" lon="3.18523">
        <ele>336.833863</ele>
        <time>2025-10-23T11:53:44Z</time>
      </trkpt>
      <trkpt lat="43.58937" lon="3.18523">
        <ele>336.830025</ele>
        <time>2025-10-23T11:53:45Z</time>
      </trkpt>
      <trkpt lat="43.58937" lon="3.18523">
        <ele>336.812061</ele>
        <time>2025-10-23T11:53:46Z</time>
      </trkpt>
      <trkpt lat="43.58936" lon="3.18522">
        <ele>336.795645</ele>
        <time>2025-10-23T11:53:47Z</time>
      </trkpt>
      <trkpt lat="43.58937" lon="3.18521">
        <ele>336.760607</ele>
        <time>2025-10-23T11:53:48Z</time>
      </trkpt>
      <trkpt lat="43.58937" lon="3.1852">
        <ele>336.737878</ele>
        <time>2025-10-23T11:53:49Z</time>
      </trkpt>
      <trkpt lat="43.58937" lon="3.18518">
        <ele>336.699767</ele>
        <time>2025-10-23T11:53:50Z</time>
      </trkpt>
      <trkpt lat="43.58938" lon="3.18517">
        <ele>336.667687</ele>
        <time>2025-10-23T11:53:51Z</time>
      </trkpt>
      <trkpt lat="43.58939" lon="3.18516">
        <ele>336.629278</ele>
        <time>2025-10-23T11:53:52Z</time>
      </trkpt>
      <trkpt lat="43.58937" lon="3.18515">
        <ele>336.590628</ele>
        <time>2025-10-23T11:53:53Z</time>
      </trkpt>
      <trkpt lat="43.58937" lon="3.18516">
        <ele>336.566257</ele>
        <time>2025-10-23T11:53:54Z</time>
      </trkpt>
      <trkpt lat="43.58937" lon="3.18516">
        <ele>336.553823</ele>
        <time>2025-10-23T11:53:55Z</time>
      </trkpt>
      <trkpt lat="43.58937" lon="3.18516">
        <ele>336.553823</ele>
        <time>2025-10-23T11:53:56Z</time>
      </trkpt>
      <trkpt lat="43.58937" lon="3.18516">
        <ele>336.549984</ele>
        <time>2025-10-23T11:53:57Z</time>
      </trkpt>
      <trkpt lat="43.58937" lon="3.18516">
        <ele>336.547733</ele>
        <time>2025-10-23T11:53:58Z</time>
      </trkpt>
      <trkpt lat="43.58937" lon="3.18516">
        <ele>336.543894</ele>
        <time>2025-10-23T11:53:59Z</time>
      </trkpt>
      <trkpt lat="43.58937" lon="3.18516">
        <ele>336.540786</ele>
        <time>2025-10-23T11:54:00Z</time>
      </trkpt>
      <trkpt lat="43.58937" lon="3.18516">
        <ele>336.540786</ele>
        <time>2025-10-23T11:54:01Z</time>
      </trkpt>
      <trkpt lat="43.58937" lon="3.18516">
        <ele>336.540786</ele>
        <time>2025-10-23T11:54:02Z</time>
      </trkpt>
      <trkpt lat="43.58937" lon="3.18516">
        <ele>336.540786</ele>
        <time>2025-10-23T11:54:03Z</time>
      </trkpt>
      <trkpt lat="43.58937" lon="3.18516">
        <ele>336.540786</ele>
        <time>2025-10-23T11:54:04Z</time>
      </trkpt>
      <trkpt lat="43.58937" lon="3.18516">
        <ele>336.540786</ele>
        <time>2025-10-23T11:54:05Z</time>
      </trkpt>
      <trkpt lat="43.58937" lon="3.18516">
        <ele>336.540786</ele>
        <time>2025-10-23T11:54:06Z</time>
      </trkpt>
      <trkpt lat="43.58937" lon="3.18516">
        <ele>336.540786</ele>
        <time>2025-10-23T11:54:07Z</time>
      </trkpt>
      <trkpt lat="43.58937" lon="3.18516">
        <ele>336.540786</ele>
        <time>2025-10-23T11:54:08Z</time>
      </trkpt>
      <trkpt lat="43.58937" lon="3.18516">
        <ele>336.536283</ele>
        <time>2025-10-23T11:54:09Z</time>
      </trkpt>
      <trkpt lat="43.58937" lon="3.18516">
        <ele>336.533174</ele>
        <time>2025-10-23T11:54:10Z</time>
      </trkpt>
      <trkpt lat="43.58937" lon="3.18516">
        <ele>336.530065</ele>
        <time>2025-10-23T11:54:11Z</time>
      </trkpt>
      <trkpt lat="43.58937" lon="3.18516">
        <ele>336.527814</ele>
        <time>2025-10-23T11:54:12Z</time>
      </trkpt>
      <trkpt lat="43.58937" lon="3.18516">
        <ele>336.525562</ele>
        <time>2025-10-23T11:54:13Z</time>
      </trkpt>
      <trkpt lat="43.58937" lon="3.18516">
        <ele>336.523311</ele>
        <time>2025-10-23T11:54:14Z</time>
      </trkpt>
      <trkpt lat="43.58937" lon="3.18516">
        <ele>336.523311</ele>
        <time>2025-10-23T11:54:15Z</time>
      </trkpt>
      <trkpt lat="43.58937" lon="3.18516">
        <ele>336.520202</ele>
        <time>2025-10-23T11:54:16Z</time>
      </trkpt>
      <trkpt lat="43.58937" lon="3.18516">
        <ele>336.520202</ele>
        <time>2025-10-23T11:54:17Z</time>
      </trkpt>
      <trkpt lat="43.58937" lon="3.18516">
        <ele>336.520202</ele>
        <time>2025-10-23T11:54:18Z</time>
      </trkpt>
      <trkpt lat="43.58937" lon="3.18516">
        <ele>336.520202</ele>
        <time>2025-10-23T11:54:19Z</time>
      </trkpt>
      <trkpt lat="43.58937" lon="3.18516">
        <ele>336.520202</ele>
        <time>2025-10-23T11:54:20Z</time>
      </trkpt>
      <trkpt lat="43.58937" lon="3.18516">
        <ele>336.517093</ele>
        <time>2025-10-23T11:54:21Z</time>
      </trkpt>
      <trkpt lat="43.58937" lon="3.18516">
        <ele>336.517093</ele>
        <time>2025-10-23T11:54:22Z</time>
      </trkpt>
      <trkpt lat="43.58937" lon="3.18516">
        <ele>336.510338</ele>
        <time>2025-10-23T11:54:23Z</time>
      </trkpt>
      <trkpt lat="43.58938" lon="3.18517">
        <ele>336.48347</ele>
        <time>2025-10-23T11:54:24Z</time>
      </trkpt>
      <trkpt lat="43.58938" lon="3.18517">
        <ele>336.476857</ele>
        <time>2025-10-23T11:54:25Z</time>
      </trkpt>
      <trkpt lat="43.58938" lon="3.18517">
        <ele>336.473019</ele>
        <time>2025-10-23T11:54:26Z</time>
      </trkpt>
      <trkpt lat="43.58938" lon="3.18517">
        <ele>336.466264</ele>
        <time>2025-10-23T11:54:27Z</time>
      </trkpt>
      <trkpt lat="43.58938" lon="3.18517">
        <ele>336.463155</ele>
        <time>2025-10-23T11:54:28Z</time>
      </trkpt>
      <trkpt lat="43.58938" lon="3.18517">
        <ele>336.460904</ele>
        <time>2025-10-23T11:54:29Z</time>
      </trkpt>
      <trkpt lat="43.58938" lon="3.18518">
        <ele>336.458652</ele>
        <time>2025-10-23T11:54:30Z</time>
      </trkpt>
      <trkpt lat="43.58938" lon="3.18519">
        <ele>336.435923</ele>
        <time>2025-10-23T11:54:31Z</time>
      </trkpt>
      <trkpt lat="43.58938" lon="3.1852">
        <ele>336.392138</ele>
        <time>2025-10-23T11:54:32Z</time>
      </trkpt>
      <trkpt lat="43.58937" lon="3.18523">
        <ele>336.343943</ele>
        <time>2025-10-23T11:54:33Z</time>
      </trkpt>
      <trkpt lat="43.58937" lon="3.18525">
        <ele>336.281195</ele>
        <time>2025-10-23T11:54:34Z</time>
      </trkpt>
      <trkpt lat="43.58936" lon="3.18528">
        <ele>336.205997</ele>
        <time>2025-10-23T11:54:35Z</time>
      </trkpt>
      <trkpt lat="43.58936" lon="3.18532">
        <ele>336.132288</ele>
        <time>2025-10-23T11:54:36Z</time>
      </trkpt>
      <trkpt lat="43.58935" lon="3.18536">
        <ele>336.032006</ele>
        <time>2025-10-23T11:54:37Z</time>
      </trkpt>
      <trkpt lat="43.58934" lon="3.1854">
        <ele>335.9364</ele>
        <time>2025-10-23T11:54:38Z</time>
      </trkpt>
      <trkpt lat="43.58933" lon="3.18544">
        <ele>335.838991</ele>
        <time>2025-10-23T11:54:39Z</time>
      </trkpt>
      <trkpt lat="43.58931" lon="3.18548">
        <ele>335.731041</ele>
        <time>2025-10-23T11:54:40Z</time>
      </trkpt>
      <trkpt lat="43.5893" lon="3.18553">
        <ele>335.627208</ele>
        <time>2025-10-23T11:54:41Z</time>
      </trkpt>
      <trkpt lat="43.5893" lon="3.18556">
        <ele>335.539327</ele>
        <time>2025-10-23T11:54:42Z</time>
      </trkpt>
      <trkpt lat="43.58929" lon="3.1856">
        <ele>335.462034</ele>
        <time>2025-10-23T11:54:43Z</time>
      </trkpt>
      <trkpt lat="43.58928" lon="3.18562">
        <ele>335.41202</ele>
        <time>2025-10-23T11:54:44Z</time>
      </trkpt>
      <trkpt lat="43.58927" lon="3.18565">
        <ele>335.321966</ele>
        <time>2025-10-23T11:54:45Z</time>
      </trkpt>
      <trkpt lat="43.58925" lon="3.18569">
        <ele>335.217543</ele>
        <time>2025-10-23T11:54:46Z</time>
      </trkpt>
      <trkpt lat="43.58923" lon="3.18573">
        <ele>335.100777</ele>
        <time>2025-10-23T11:54:47Z</time>
      </trkpt>
      <trkpt lat="43.5892" lon="3.18578">
        <ele>334.97495</ele>
        <time>2025-10-23T11:54:48Z</time>
      </trkpt>
      <trkpt lat="43.58918" lon="3.18583">
        <ele>334.83254</ele>
        <time>2025-10-23T11:54:49Z</time>
      </trkpt>
      <trkpt lat="43.58916" lon="3.18589">
        <ele>334.685866</ele>
        <time>2025-10-23T11:54:50Z</time>
      </trkpt>
      <trkpt lat="43.58915" lon="3.18593">
        <ele>334.584179</ele>
        <time>2025-10-23T11:54:51Z</time>
      </trkpt>
      <trkpt lat="43.58914" lon="3.18599">
        <ele>334.446525</ele>
        <time>2025-10-23T11:54:52Z</time>
      </trkpt>
      <trkpt lat="43.58913" lon="3.18605">
        <ele>334.308563</ele>
        <time>2025-10-23T11:54:53Z</time>
      </trkpt>
      <trkpt lat="43.58912" lon="3.18611">
        <ele>334.177918</ele>
        <time>2025-10-23T11:54:54Z</time>
      </trkpt>
      <trkpt lat="43.58911" lon="3.18616">
        <ele>334.065464</ele>
        <time>2025-10-23T11:54:55Z</time>
      </trkpt>
      <trkpt lat="43.5891" lon="3.18621">
        <ele>333.95357</ele>
        <time>2025-10-23T11:54:56Z</time>
      </trkpt>
      <trkpt lat="43.5891" lon="3.18624">
        <ele>333.865703</ele>
        <time>2025-10-23T11:54:57Z</time>
      </trkpt>
      <trkpt lat="43.5891" lon="3.18628">
        <ele>333.786835</ele>
        <time>2025-10-23T11:54:58Z</time>
      </trkpt>
      <trkpt lat="43.58911" lon="3.18631">
        <ele>333.720876</ele>
        <time>2025-10-23T11:54:59Z</time>
      </trkpt>
      <trkpt lat="43.58911" lon="3.18633">
        <ele>333.663819</ele>
        <time>2025-10-23T11:55:00Z</time>
      </trkpt>
      <trkpt lat="43.58911" lon="3.18635">
        <ele>333.636093</ele>
        <time>2025-10-23T11:55:01Z</time>
      </trkpt>
      <trkpt lat="43.58911" lon="3.18636">
        <ele>333.60838</ele>
        <time>2025-10-23T11:55:02Z</time>
      </trkpt>
      <trkpt lat="43.58912" lon="3.18636">
        <ele>333.586492</ele>
        <time>2025-10-23T11:55:03Z</time>
      </trkpt>
      <trkpt lat="43.58912" lon="3.18637">
        <ele>333.564604</ele>
        <time>2025-10-23T11:55:04Z</time>
      </trkpt>
      <trkpt lat="43.58913" lon="3.18638">
        <ele>333.551639</ele>
        <time>2025-10-23T11:55:05Z</time>
      </trkpt>
      <trkpt lat="43.58913" lon="3.18638">
        <ele>333.5478</ele>
        <time>2025-10-23T11:55:06Z</time>
      </trkpt>
      <trkpt lat="43.58913" lon="3.18638">
        <ele>333.542328</ele>
        <time>2025-10-23T11:55:07Z</time>
      </trkpt>
      <trkpt lat="43.58913" lon="3.18638">
        <ele>333.533322</ele>
        <time>2025-10-23T11:55:08Z</time>
      </trkpt>
      <trkpt lat="43.58913" lon="3.18639">
        <ele>333.526567</ele>
        <time>2025-10-23T11:55:09Z</time>
      </trkpt>
      <trkpt lat="43.58912" lon="3.18639">
        <ele>333.516211</ele>
        <time>2025-10-23T11:55:10Z</time>
      </trkpt>
      <trkpt lat="43.58912" lon="3.18639">
        <ele>333.498247</ele>
        <time>2025-10-23T11:55:11Z</time>
      </trkpt>
      <trkpt lat="43.58912" lon="3.1864">
        <ele>333.482893</ele>
        <time>2025-10-23T11:55:12Z</time>
      </trkpt>
      <trkpt lat="43.58911" lon="3.1864">
        <ele>333.475216</ele>
        <time>2025-10-23T11:55:13Z</time>
      </trkpt>
      <trkpt lat="43.58911" lon="3.1864">
        <ele>333.461354</ele>
        <time>2025-10-23T11:55:14Z</time>
      </trkpt>
      <trkpt lat="43.58911" lon="3.18641">
        <ele>333.450096</ele>
        <time>2025-10-23T11:55:15Z</time>
      </trkpt>
      <trkpt lat="43.58911" lon="3.18642">
        <ele>333.435224</ele>
        <time>2025-10-23T11:55:16Z</time>
      </trkpt>
      <trkpt lat="43.58911" lon="3.18642">
        <ele>333.429007</ele>
        <time>2025-10-23T11:55:17Z</time>
      </trkpt>
      <trkpt lat="43.58911" lon="3.18641">
        <ele>333.412064</ele>
        <time>2025-10-23T11:55:18Z</time>
      </trkpt>
      <trkpt lat="43.58911" lon="3.18641">
        <ele>333.405846</ele>
        <time>2025-10-23T11:55:19Z</time>
      </trkpt>
      <trkpt lat="43.58911" lon="3.18641">
        <ele>333.402008</ele>
        <time>2025-10-23T11:55:20Z</time>
      </trkpt>
      <trkpt lat="43.58912" lon="3.18641">
        <ele>333.389371</ele>
        <time>2025-10-23T11:55:21Z</time>
      </trkpt>
      <trkpt lat="43.58912" lon="3.18641">
        <ele>333.382759</ele>
        <time>2025-10-23T11:55:22Z</time>
      </trkpt>
      <trkpt lat="43.58912" lon="3.18641">
        <ele>333.37965</ele>
        <time>2025-10-23T11:55:23Z</time>
      </trkpt>
      <trkpt lat="43.58911" lon="3.1864">
        <ele>333.365031</ele>
        <time>2025-10-23T11:55:24Z</time>
      </trkpt>
      <trkpt lat="43.58911" lon="3.1864">
        <ele>333.348615</ele>
        <time>2025-10-23T11:55:25Z</time>
      </trkpt>
      <trkpt lat="43.58911" lon="3.18639">
        <ele>333.334752</ele>
        <time>2025-10-23T11:55:26Z</time>
      </trkpt>
      <trkpt lat="43.58911" lon="3.18638">
        <ele>333.315697</ele>
        <time>2025-10-23T11:55:27Z</time>
      </trkpt>
      <trkpt lat="43.58911" lon="3.18638">
        <ele>333.311194</ele>
        <time>2025-10-23T11:55:28Z</time>
      </trkpt>
      <trkpt lat="43.58911" lon="3.18638">
        <ele>333.308085</ele>
        <time>2025-10-23T11:55:29Z</time>
      </trkpt>
      <trkpt lat="43.58911" lon="3.18638">
        <ele>333.304976</ele>
        <time>2025-10-23T11:55:30Z</time>
      </trkpt>
      <trkpt lat="43.58911" lon="3.18638">
        <ele>333.301138</ele>
        <time>2025-10-23T11:55:31Z</time>
      </trkpt>
      <trkpt lat="43.58911" lon="3.18639">
        <ele>333.295666</ele>
        <time>2025-10-23T11:55:32Z</time>
      </trkpt>
      <trkpt lat="43.58911" lon="3.1864">
        <ele>333.267006</ele>
        <time>2025-10-23T11:55:33Z</time>
      </trkpt>
      <trkpt lat="43.5891" lon="3.18642">
        <ele>333.434712</ele>
        <time>2025-10-23T11:55:34Z</time>
      </trkpt>
      <trkpt lat="43.5891" lon="3.18644">
        <ele>333.635616</ele>
        <time>2025-10-23T11:55:35Z</time>
      </trkpt>
      <trkpt lat="43.5891" lon="3.18647">
        <ele>333.88049</ele>
        <time>2025-10-23T11:55:36Z</time>
      </trkpt>
      <trkpt lat="43.5891" lon="3.18649">
        <ele>334.091511</ele>
        <time>2025-10-23T11:55:37Z</time>
      </trkpt>
      <trkpt lat="43.5891" lon="3.18651">
        <ele>334.276523</ele>
        <time>2025-10-23T11:55:38Z</time>
      </trkpt>
      <trkpt lat="43.5891" lon="3.18653">
        <ele>334.409749</ele>
        <time>2025-10-23T11:55:39Z</time>
      </trkpt>
      <trkpt lat="43.5891" lon="3.18654">
        <ele>334.506587</ele>
        <time>2025-10-23T11:55:40Z</time>
      </trkpt>
      <trkpt lat="43.5891" lon="3.18655">
        <ele>334.622674</ele>
        <time>2025-10-23T11:55:41Z</time>
      </trkpt>
      <trkpt lat="43.5891" lon="3.18657">
        <ele>334.745556</ele>
        <time>2025-10-23T11:55:42Z</time>
      </trkpt>
      <trkpt lat="43.5891" lon="3.18658">
        <ele>334.867845</ele>
        <time>2025-10-23T11:55:43Z</time>
      </trkpt>
      <trkpt lat="43.5891" lon="3.18659">
        <ele>334.956023</ele>
        <time>2025-10-23T11:55:44Z</time>
      </trkpt>
      <trkpt lat="43.58909" lon="3.18659">
        <ele>334.998479</ele>
        <time>2025-10-23T11:55:45Z</time>
      </trkpt>
      <trkpt lat="43.58909" lon="3.1866">
        <ele>335.055192</ele>
        <time>2025-10-23T11:55:46Z</time>
      </trkpt>
      <trkpt lat="43.58909" lon="3.1866">
        <ele>335.117971</ele>
        <time>2025-10-23T11:55:47Z</time>
      </trkpt>
      <trkpt lat="43.58908" lon="3.1866">
        <ele>335.15415</ele>
        <time>2025-10-23T11:55:48Z</time>
      </trkpt>
      <trkpt lat="43.58908" lon="3.1866">
        <ele>335.219897</ele>
        <time>2025-10-23T11:55:49Z</time>
      </trkpt>
      <trkpt lat="43.58908" lon="3.1866">
        <ele>335.256076</ele>
        <time>2025-10-23T11:55:50Z</time>
      </trkpt>
      <trkpt lat="43.58908" lon="3.1866">
        <ele>335.264811</ele>
        <time>2025-10-23T11:55:51Z</time>
      </trkpt>
      <trkpt lat="43.58908" lon="3.18661">
        <ele>335.291016</ele>
        <time>2025-10-23T11:55:52Z</time>
      </trkpt>
      <trkpt lat="43.58907" lon="3.18661">
        <ele>335.327978</ele>
        <time>2025-10-23T11:55:53Z</time>
      </trkpt>
      <trkpt lat="43.58908" lon="3.18662">
        <ele>335.3903</ele>
        <time>2025-10-23T11:55:54Z</time>
      </trkpt>
      <trkpt lat="43.58908" lon="3.18663">
        <ele>335.521324</ele>
        <time>2025-10-23T11:55:55Z</time>
      </trkpt>
      <trkpt lat="43.58907" lon="3.18664">
        <ele>335.628883</ele>
        <time>2025-10-23T11:55:56Z</time>
      </trkpt>
      <trkpt lat="43.58907" lon="3.18666">
        <ele>335.809934</ele>
        <time>2025-10-23T11:55:57Z</time>
      </trkpt>
      <trkpt lat="43.58906" lon="3.18668">
        <ele>336.022215</ele>
        <time>2025-10-23T11:55:58Z</time>
      </trkpt>
      <trkpt lat="43.58906" lon="3.1867">
        <ele>336.14686</ele>
        <time>2025-10-23T11:55:59Z</time>
      </trkpt>
      <trkpt lat="43.58905" lon="3.18671">
        <ele>336.252371</ele>
        <time>2025-10-23T11:56:00Z</time>
      </trkpt>
      <trkpt lat="43.58905" lon="3.18672">
        <ele>336.340549</ele>
        <time>2025-10-23T11:56:01Z</time>
      </trkpt>
      <trkpt lat="43.58905" lon="3.18673">
        <ele>336.42278</ele>
        <time>2025-10-23T11:56:02Z</time>
      </trkpt>
      <trkpt lat="43.58905" lon="3.18673">
        <ele>336.473076</ele>
        <time>2025-10-23T11:56:03Z</time>
      </trkpt>
      <trkpt lat="43.58904" lon="3.18674">
        <ele>336.542766</ele>
        <time>2025-10-23T11:56:04Z</time>
      </trkpt>
      <trkpt lat="43.58904" lon="3.18674">
        <ele>336.6375</ele>
        <time>2025-10-23T11:56:05Z</time>
      </trkpt>
      <trkpt lat="43.58903" lon="3.18675">
        <ele>336.738092</ele>
        <time>2025-10-23T11:56:06Z</time>
      </trkpt>
      <trkpt lat="43.58903" lon="3.18676">
        <ele>336.82261</ele>
        <time>2025-10-23T11:56:07Z</time>
      </trkpt>
      <trkpt lat="43.58902" lon="3.18676">
        <ele>336.954103</ele>
        <time>2025-10-23T11:56:08Z</time>
      </trkpt>
      <trkpt lat="43.58901" lon="3.18676">
        <ele>336.975331</ele>
        <time>2025-10-23T11:56:09Z</time>
      </trkpt>
      <trkpt lat="43.58901" lon="3.18676">
        <ele>336.975331</ele>
        <time>2025-10-23T11:56:10Z</time>
      </trkpt>
      <trkpt lat="43.58901" lon="3.18676">
        <ele>336.990222</ele>
        <time>2025-10-23T11:56:11Z</time>
      </trkpt>
      <trkpt lat="43.58901" lon="3.18676">
        <ele>336.990222</ele>
        <time>2025-10-23T11:56:12Z</time>
      </trkpt>
      <trkpt lat="43.58901" lon="3.18676">
        <ele>337.005113</ele>
        <time>2025-10-23T11:56:13Z</time>
      </trkpt>
      <trkpt lat="43.58901" lon="3.18676">
        <ele>337.013848</ele>
        <time>2025-10-23T11:56:14Z</time>
      </trkpt>
      <trkpt lat="43.58902" lon="3.18676">
        <ele>337.028739</ele>
        <time>2025-10-23T11:56:15Z</time>
      </trkpt>
      <trkpt lat="43.58901" lon="3.18676">
        <ele>337.040799</ele>
        <time>2025-10-23T11:56:16Z</time>
      </trkpt>
      <trkpt lat="43.58902" lon="3.18676">
        <ele>337.052858</ele>
        <time>2025-10-23T11:56:17Z</time>
      </trkpt>
      <trkpt lat="43.58902" lon="3.18676">
        <ele>337.052858</ele>
        <time>2025-10-23T11:56:18Z</time>
      </trkpt>
      <trkpt lat="43.58902" lon="3.18676">
        <ele>337.052858</ele>
        <time>2025-10-23T11:56:19Z</time>
      </trkpt>
      <trkpt lat="43.58902" lon="3.18676">
        <ele>337.052858</ele>
        <time>2025-10-23T11:56:20Z</time>
      </trkpt>
      <trkpt lat="43.58902" lon="3.18676">
        <ele>337.052858</ele>
        <time>2025-10-23T11:56:21Z</time>
      </trkpt>
      <trkpt lat="43.58902" lon="3.18676">
        <ele>337.052858</ele>
        <time>2025-10-23T11:56:22Z</time>
      </trkpt>
      <trkpt lat="43.58902" lon="3.18676">
        <ele>337.052858</ele>
        <time>2025-10-23T11:56:23Z</time>
      </trkpt>
      <trkpt lat="43.58902" lon="3.18676">
        <ele>337.052858</ele>
        <time>2025-10-23T11:56:24Z</time>
      </trkpt>
      <trkpt lat="43.58902" lon="3.18676">
        <ele>337.064918</ele>
        <time>2025-10-23T11:56:25Z</time>
      </trkpt>
      <trkpt lat="43.58902" lon="3.18676">
        <ele>337.064918</ele>
        <time>2025-10-23T11:56:26Z</time>
      </trkpt>
      <trkpt lat="43.58902" lon="3.18676">
        <ele>337.079809</ele>
        <time>2025-10-23T11:56:27Z</time>
      </trkpt>
      <trkpt lat="43.58901" lon="3.18677">
        <ele>337.186655</ele>
        <time>2025-10-23T11:56:28Z</time>
      </trkpt>
      <trkpt lat="43.589" lon="3.18678">
        <ele>337.287247</ele>
        <time>2025-10-23T11:56:29Z</time>
      </trkpt>
      <trkpt lat="43.589" lon="3.18678">
        <ele>337.371765</ele>
        <time>2025-10-23T11:56:30Z</time>
      </trkpt>
      <trkpt lat="43.58899" lon="3.18679">
        <ele>337.437512</ele>
        <time>2025-10-23T11:56:31Z</time>
      </trkpt>
      <trkpt lat="43.58899" lon="3.18679">
        <ele>337.52193</ele>
        <time>2025-10-23T11:56:32Z</time>
      </trkpt>
      <trkpt lat="43.58898" lon="3.18679">
        <ele>337.642459</ele>
        <time>2025-10-23T11:56:33Z</time>
      </trkpt>
      <trkpt lat="43.58897" lon="3.1868">
        <ele>337.748362</ele>
        <time>2025-10-23T11:56:34Z</time>
      </trkpt>
      <trkpt lat="43.58896" lon="3.18681">
        <ele>337.848955</ele>
        <time>2025-10-23T11:56:35Z</time>
      </trkpt>
      <trkpt lat="43.58896" lon="3.18681">
        <ele>337.949548</ele>
        <time>2025-10-23T11:56:36Z</time>
      </trkpt>
      <trkpt lat="43.58895" lon="3.18682">
        <ele>338.044281</ele>
        <time>2025-10-23T11:56:37Z</time>
      </trkpt>
      <trkpt lat="43.58894" lon="3.18683">
        <ele>338.173369</ele>
        <time>2025-10-23T11:56:38Z</time>
      </trkpt>
      <trkpt lat="43.58893" lon="3.18683">
        <ele>338.283163</ele>
        <time>2025-10-23T11:56:39Z</time>
      </trkpt>
      <trkpt lat="43.58893" lon="3.18684">
        <ele>338.385773</ele>
        <time>2025-10-23T11:56:40Z</time>
      </trkpt>
      <trkpt lat="43.58892" lon="3.18684">
        <ele>338.474165</ele>
        <time>2025-10-23T11:56:41Z</time>
      </trkpt>
      <trkpt lat="43.58891" lon="3.18685">
        <ele>338.569212</ele>
        <time>2025-10-23T11:56:42Z</time>
      </trkpt>
      <trkpt lat="43.58891" lon="3.18686">
        <ele>338.675353</ele>
        <time>2025-10-23T11:56:43Z</time>
      </trkpt>
      <trkpt lat="43.5889" lon="3.18687">
        <ele>338.814975</ele>
        <time>2025-10-23T11:56:44Z</time>
      </trkpt>
      <trkpt lat="43.5889" lon="3.18688">
        <ele>338.929168</ele>
        <time>2025-10-23T11:56:45Z</time>
      </trkpt>
      <trkpt lat="43.5889" lon="3.1869">
        <ele>339.036681</ele>
        <time>2025-10-23T11:56:46Z</time>
      </trkpt>
      <trkpt lat="43.58889" lon="3.18691">
        <ele>339.178177</ele>
        <time>2025-10-23T11:56:47Z</time>
      </trkpt>
      <trkpt lat="43.58888" lon="3.18691">
        <ele>339.267522</ele>
        <time>2025-10-23T11:56:48Z</time>
      </trkpt>
      <trkpt lat="43.58888" lon="3.18692">
        <ele>339.333252</ele>
        <time>2025-10-23T11:56:49Z</time>
      </trkpt>
      <trkpt lat="43.58888" lon="3.18693">
        <ele>339.396936</ele>
        <time>2025-10-23T11:56:50Z</time>
      </trkpt>
      <trkpt lat="43.58887" lon="3.18694">
        <ele>339.552801</ele>
        <time>2025-10-23T11:56:51Z</time>
      </trkpt>
      <trkpt lat="43.58887" lon="3.18695">
        <ele>339.645036</ele>
        <time>2025-10-23T11:56:52Z</time>
      </trkpt>
      <trkpt lat="43.58887" lon="3.18696">
        <ele>339.755923</ele>
        <time>2025-10-23T11:56:53Z</time>
      </trkpt>
      <trkpt lat="43.58886" lon="3.18698">
        <ele>339.883452</ele>
        <time>2025-10-23T11:56:54Z</time>
      </trkpt>
      <trkpt lat="43.58886" lon="3.18699">
        <ele>340.004378</ele>
        <time>2025-10-23T11:56:55Z</time>
      </trkpt>
      <trkpt lat="43.58885" lon="3.18701">
        <ele>340.152228</ele>
        <time>2025-10-23T11:56:56Z</time>
      </trkpt>
      <trkpt lat="43.58885" lon="3.18702">
        <ele>340.33328</ele>
        <time>2025-10-23T11:56:57Z</time>
      </trkpt>
      <trkpt lat="43.58884" lon="3.18704">
        <ele>340.46474</ele>
        <time>2025-10-23T11:56:58Z</time>
      </trkpt>
      <trkpt lat="43.58884" lon="3.18705">
        <ele>340.588116</ele>
        <time>2025-10-23T11:56:59Z</time>
      </trkpt>
      <trkpt lat="43.58884" lon="3.18707">
        <ele>340.738556</ele>
        <time>2025-10-23T11:57:00Z</time>
      </trkpt>
      <trkpt lat="43.58884" lon="3.18709">
        <ele>340.916962</ele>
        <time>2025-10-23T11:57:01Z</time>
      </trkpt>
      <trkpt lat="43.58885" lon="3.1871">
        <ele>341.057241</ele>
        <time>2025-10-23T11:57:02Z</time>
      </trkpt>
      <trkpt lat="43.58885" lon="3.18712">
        <ele>341.205735</ele>
        <time>2025-10-23T11:57:03Z</time>
      </trkpt>
      <trkpt lat="43.58885" lon="3.18713">
        <ele>341.31929</ele>
        <time>2025-10-23T11:57:04Z</time>
      </trkpt>
      <trkpt lat="43.58885" lon="3.18713">
        <ele>341.380218</ele>
        <time>2025-10-23T11:57:05Z</time>
      </trkpt>
      <trkpt lat="43.58885" lon="3.18714">
        <ele>341.42489</ele>
        <time>2025-10-23T11:57:06Z</time>
      </trkpt>
      <trkpt lat="43.58885" lon="3.18715">
        <ele>341.51143</ele>
        <time>2025-10-23T11:57:07Z</time>
      </trkpt>
      <trkpt lat="43.58885" lon="3.18717">
        <ele>341.721416</ele>
        <time>2025-10-23T11:57:08Z</time>
      </trkpt>
      <trkpt lat="43.58884" lon="3.18719">
        <ele>341.931174</ele>
        <time>2025-10-23T11:57:09Z</time>
      </trkpt>
      <trkpt lat="43.58885" lon="3.18722">
        <ele>342.13352</ele>
        <time>2025-10-23T11:57:10Z</time>
      </trkpt>
      <trkpt lat="43.58884" lon="3.18724">
        <ele>342.314757</ele>
        <time>2025-10-23T11:57:11Z</time>
      </trkpt>
      <trkpt lat="43.58884" lon="3.18726">
        <ele>342.533131</ele>
        <time>2025-10-23T11:57:12Z</time>
      </trkpt>
      <trkpt lat="43.58884" lon="3.18728">
        <ele>342.725678</ele>
        <time>2025-10-23T11:57:13Z</time>
      </trkpt>
      <trkpt lat="43.58884" lon="3.18731">
        <ele>342.966405</ele>
        <time>2025-10-23T11:57:14Z</time>
      </trkpt>
      <trkpt lat="43.58883" lon="3.18734">
        <ele>343.205007</ele>
        <time>2025-10-23T11:57:15Z</time>
      </trkpt>
      <trkpt lat="43.58883" lon="3.18737">
        <ele>343.460892</ele>
        <time>2025-10-23T11:57:16Z</time>
      </trkpt>
      <trkpt lat="43.58883" lon="3.18739">
        <ele>343.690941</ele>
        <time>2025-10-23T11:57:17Z</time>
      </trkpt>
      <trkpt lat="43.58882" lon="3.18742">
        <ele>343.934372</ele>
        <time>2025-10-23T11:57:18Z</time>
      </trkpt>
      <trkpt lat="43.58881" lon="3.18744">
        <ele>344.173108</ele>
        <time>2025-10-23T11:57:19Z</time>
      </trkpt>
      <trkpt lat="43.5888" lon="3.18746">
        <ele>344.392635</ele>
        <time>2025-10-23T11:57:20Z</time>
      </trkpt>
      <trkpt lat="43.58879" lon="3.18748">
        <ele>344.611992</ele>
        <time>2025-10-23T11:57:21Z</time>
      </trkpt>
      <trkpt lat="43.58878" lon="3.18751">
        <ele>344.845503</ele>
        <time>2025-10-23T11:57:22Z</time>
      </trkpt>
      <trkpt lat="43.58878" lon="3.18752">
        <ele>344.98185</ele>
        <time>2025-10-23T11:57:23Z</time>
      </trkpt>
      <trkpt lat="43.58877" lon="3.18753">
        <ele>345.052897</ele>
        <time>2025-10-23T11:57:24Z</time>
      </trkpt>
      <trkpt lat="43.58877" lon="3.18754">
        <ele>345.151974</ele>
        <time>2025-10-23T11:57:25Z</time>
      </trkpt>
      <trkpt lat="43.58876" lon="3.18754">
        <ele>345.203279</ele>
        <time>2025-10-23T11:57:26Z</time>
      </trkpt>
      <trkpt lat="43.58876" lon="3.18754">
        <ele>345.203279</ele>
        <time>2025-10-23T11:57:27Z</time>
      </trkpt>
      <trkpt lat="43.58875" lon="3.18754">
        <ele>345.34046</ele>
        <time>2025-10-23T11:57:28Z</time>
      </trkpt>
      <trkpt lat="43.58874" lon="3.18755">
        <ele>345.468722</ele>
        <time>2025-10-23T11:57:29Z</time>
      </trkpt>
      <trkpt lat="43.58873" lon="3.18755">
        <ele>345.571332</ele>
        <time>2025-10-23T11:57:30Z</time>
      </trkpt>
      <trkpt lat="43.58873" lon="3.18755">
        <ele>345.621629</ele>
        <time>2025-10-23T11:57:31Z</time>
      </trkpt>
      <trkpt lat="43.58872" lon="3.18756">
        <ele>345.710021</ele>
        <time>2025-10-23T11:57:32Z</time>
      </trkpt>
      <trkpt lat="43.58871" lon="3.18756">
        <ele>345.845242</ele>
        <time>2025-10-23T11:57:33Z</time>
      </trkpt>
      <trkpt lat="43.58871" lon="3.18756">
        <ele>345.918126</ele>
        <time>2025-10-23T11:57:34Z</time>
      </trkpt>
      <trkpt lat="43.5887" lon="3.18756">
        <ele>346.014998</ele>
        <time>2025-10-23T11:57:35Z</time>
      </trkpt>
      <trkpt lat="43.58869" lon="3.18756">
        <ele>346.10339</ele>
        <time>2025-10-23T11:57:36Z</time>
      </trkpt>
      <trkpt lat="43.58868" lon="3.18756">
        <ele>346.238611</ele>
        <time>2025-10-23T11:57:37Z</time>
      </trkpt>
      <trkpt lat="43.58867" lon="3.18757">
        <ele>346.389775</ele>
        <time>2025-10-23T11:57:38Z</time>
      </trkpt>
      <trkpt lat="43.58866" lon="3.18757">
        <ele>346.511631</ele>
        <time>2025-10-23T11:57:39Z</time>
      </trkpt>
      <trkpt lat="43.58865" lon="3.18757">
        <ele>346.62052</ele>
        <time>2025-10-23T11:57:40Z</time>
      </trkpt>
      <trkpt lat="43.58864" lon="3.18756">
        <ele>346.742376</ele>
        <time>2025-10-23T11:57:41Z</time>
      </trkpt>
      <trkpt lat="43.58863" lon="3.18757">
        <ele>346.83374</ele>
        <time>2025-10-23T11:57:42Z</time>
      </trkpt>
      <trkpt lat="43.58863" lon="3.18757">
        <ele>346.930612</ele>
        <time>2025-10-23T11:57:43Z</time>
      </trkpt>
      <trkpt lat="43.58862" lon="3.18757">
        <ele>347.015481</ele>
        <time>2025-10-23T11:57:44Z</time>
      </trkpt>
      <trkpt lat="43.58862" lon="3.18757">
        <ele>347.079166</ele>
        <time>2025-10-23T11:57:45Z</time>
      </trkpt>
      <trkpt lat="43.58861" lon="3.18758">
        <ele>347.185069</ele>
        <time>2025-10-23T11:57:46Z</time>
      </trkpt>
      <trkpt lat="43.5886" lon="3.18758">
        <ele>347.296726</ele>
        <time>2025-10-23T11:57:47Z</time>
      </trkpt>
      <trkpt lat="43.58859" lon="3.18759">
        <ele>347.450641</ele>
        <time>2025-10-23T11:57:48Z</time>
      </trkpt>
      <trkpt lat="43.58858" lon="3.18759">
        <ele>347.53551</ele>
        <time>2025-10-23T11:57:49Z</time>
      </trkpt>
      <trkpt lat="43.58857" lon="3.18759">
        <ele>347.680227</ele>
        <time>2025-10-23T11:57:50Z</time>
      </trkpt>
      <trkpt lat="43.58856" lon="3.18758">
        <ele>347.826297</ele>
        <time>2025-10-23T11:57:51Z</time>
      </trkpt>
      <trkpt lat="43.58854" lon="3.18758">
        <ele>347.983317</ele>
        <time>2025-10-23T11:57:52Z</time>
      </trkpt>
      <trkpt lat="43.58853" lon="3.18758">
        <ele>348.132193</ele>
        <time>2025-10-23T11:57:53Z</time>
      </trkpt>
      <trkpt lat="43.58852" lon="3.18757">
        <ele>348.304607</ele>
        <time>2025-10-23T11:57:54Z</time>
      </trkpt>
      <trkpt lat="43.58851" lon="3.18757">
        <ele>348.416263</ele>
        <time>2025-10-23T11:57:55Z</time>
      </trkpt>
      <trkpt lat="43.5885" lon="3.18757">
        <ele>348.500681</ele>
        <time>2025-10-23T11:57:56Z</time>
      </trkpt>
      <trkpt lat="43.58849" lon="3.18757">
        <ele>348.5851</ele>
        <time>2025-10-23T11:57:57Z</time>
      </trkpt>
      <trkpt lat="43.58849" lon="3.18757">
        <ele>348.625276</ele>
        <time>2025-10-23T11:57:58Z</time>
      </trkpt>
      <trkpt lat="43.58848" lon="3.18757">
        <ele>348.784228</ele>
        <time>2025-10-23T11:57:59Z</time>
      </trkpt>
      <trkpt lat="43.58847" lon="3.18757">
        <ele>348.918031</ele>
        <time>2025-10-23T11:58:00Z</time>
      </trkpt>
      <trkpt lat="43.58846" lon="3.18757">
        <ele>349.069194</ele>
        <time>2025-10-23T11:58:01Z</time>
      </trkpt>
      <trkpt lat="43.58845" lon="3.18757">
        <ele>349.165673</ele>
        <time>2025-10-23T11:58:02Z</time>
      </trkpt>
      <trkpt lat="43.58844" lon="3.18758">
        <ele>349.250542</ele>
        <time>2025-10-23T11:58:03Z</time>
      </trkpt>
      <trkpt lat="43.58843" lon="3.18757">
        <ele>349.338934</ele>
        <time>2025-10-23T11:58:04Z</time>
      </trkpt>
      <trkpt lat="43.58843" lon="3.18757">
        <ele>349.416816</ele>
        <time>2025-10-23T11:58:05Z</time>
      </trkpt>
      <trkpt lat="43.58843" lon="3.18755">
        <ele>349.519487</ele>
        <time>2025-10-23T11:58:06Z</time>
      </trkpt>
      <trkpt lat="43.58843" lon="3.18754">
        <ele>349.606837</ele>
        <time>2025-10-23T11:58:07Z</time>
      </trkpt>
      <trkpt lat="43.58842" lon="3.18754">
        <ele>349.680763</ele>
        <time>2025-10-23T11:58:08Z</time>
      </trkpt>
      <trkpt lat="43.58842" lon="3.18753">
        <ele>349.779829</ele>
        <time>2025-10-23T11:58:09Z</time>
      </trkpt>
      <trkpt lat="43.58842" lon="3.18751">
        <ele>349.907359</ele>
        <time>2025-10-23T11:58:10Z</time>
      </trkpt>
      <trkpt lat="43.58842" lon="3.18749">
        <ele>350.056343</ele>
        <time>2025-10-23T11:58:11Z</time>
      </trkpt>
      <trkpt lat="43.58842" lon="3.18748">
        <ele>350.180989</ele>
        <time>2025-10-23T11:58:12Z</time>
      </trkpt>
      <trkpt lat="43.58842" lon="3.18747">
        <ele>350.275535</ele>
        <time>2025-10-23T11:58:13Z</time>
      </trkpt>
      <trkpt lat="43.58843" lon="3.18746">
        <ele>350.391624</ele>
        <time>2025-10-23T11:58:14Z</time>
      </trkpt>
      <trkpt lat="43.58843" lon="3.18745">
        <ele>350.51255</ele>
        <time>2025-10-23T11:58:15Z</time>
      </trkpt>
      <trkpt lat="43.58843" lon="3.18744">
        <ele>350.590433</ele>
        <time>2025-10-23T11:58:16Z</time>
      </trkpt>
      <trkpt lat="43.58844" lon="3.18743">
        <ele>350.719005</ele>
        <time>2025-10-23T11:58:17Z</time>
      </trkpt>
      <trkpt lat="43.58845" lon="3.18741">
        <ele>350.867603</ele>
        <time>2025-10-23T11:58:18Z</time>
      </trkpt>
      <trkpt lat="43.58845" lon="3.1874">
        <ele>351.030316</ele>
        <time>2025-10-23T11:58:19Z</time>
      </trkpt>
      <trkpt lat="43.58846" lon="3.18738">
        <ele>351.1874</ele>
        <time>2025-10-23T11:58:20Z</time>
      </trkpt>
      <trkpt lat="43.58847" lon="3.18737">
        <ele>351.300838</ele>
        <time>2025-10-23T11:58:21Z</time>
      </trkpt>
      <trkpt lat="43.58847" lon="3.18736">
        <ele>351.416225</ele>
        <time>2025-10-23T11:58:22Z</time>
      </trkpt>
      <trkpt lat="43.58848" lon="3.18735">
        <ele>351.565903</ele>
        <time>2025-10-23T11:58:23Z</time>
      </trkpt>
      <trkpt lat="43.58849" lon="3.18733">
        <ele>351.744362</ele>
        <time>2025-10-23T11:58:24Z</time>
      </trkpt>
      <trkpt lat="43.58849" lon="3.18731">
        <ele>351.89296</ele>
        <time>2025-10-23T11:58:25Z</time>
      </trkpt>
      <trkpt lat="43.5885" lon="3.1873">
        <ele>352.041966</ele>
        <time>2025-10-23T11:58:26Z</time>
      </trkpt>
      <trkpt lat="43.58851" lon="3.18729">
        <ele>352.172112</ele>
        <time>2025-10-23T11:58:27Z</time>
      </trkpt>
      <trkpt lat="43.58852" lon="3.18728">
        <ele>352.286335</ele>
        <time>2025-10-23T11:58:28Z</time>
      </trkpt>
      <trkpt lat="43.58853" lon="3.18727">
        <ele>352.420352</ele>
        <time>2025-10-23T11:58:29Z</time>
      </trkpt>
      <trkpt lat="43.58853" lon="3.18727">
        <ele>352.506893</ele>
        <time>2025-10-23T11:58:30Z</time>
      </trkpt>
      <trkpt lat="43.58853" lon="3.18725">
        <ele>352.603732</ele>
        <time>2025-10-23T11:58:31Z</time>
      </trkpt>
      <trkpt lat="43.58853" lon="3.18724">
        <ele>352.722911</ele>
        <time>2025-10-23T11:58:32Z</time>
      </trkpt>
      <trkpt lat="43.58853" lon="3.18723">
        <ele>352.856137</ele>
        <time>2025-10-23T11:58:33Z</time>
      </trkpt>
      <trkpt lat="43.58854" lon="3.18722">
        <ele>352.969576</ele>
        <time>2025-10-23T11:58:34Z</time>
      </trkpt>
      <trkpt lat="43.58854" lon="3.1872">
        <ele>353.085664</ele>
        <time>2025-10-23T11:58:35Z</time>
      </trkpt>
      <trkpt lat="43.58854" lon="3.18719">
        <ele>353.196552</ele>
        <time>2025-10-23T11:58:36Z</time>
      </trkpt>
      <trkpt lat="43.58854" lon="3.18717">
        <ele>353.345536</ele>
        <time>2025-10-23T11:58:37Z</time>
      </trkpt>
      <trkpt lat="43.58854" lon="3.18716">
        <ele>353.478763</ele>
        <time>2025-10-23T11:58:38Z</time>
      </trkpt>
      <trkpt lat="43.58854" lon="3.18715">
        <ele>353.584274</ele>
        <time>2025-10-23T11:58:39Z</time>
      </trkpt>
      <trkpt lat="43.58854" lon="3.18713">
        <ele>353.715853</ele>
        <time>2025-10-23T11:58:40Z</time>
      </trkpt>
      <trkpt lat="43.58854" lon="3.18712">
        <ele>353.851781</ele>
        <time>2025-10-23T11:58:41Z</time>
      </trkpt>
      <trkpt lat="43.58855" lon="3.18711">
        <ele>353.979682</ele>
        <time>2025-10-23T11:58:42Z</time>
      </trkpt>
      <trkpt lat="43.58855" lon="3.18709">
        <ele>354.132521</ele>
        <time>2025-10-23T11:58:43Z</time>
      </trkpt>
      <trkpt lat="43.58855" lon="3.18707">
        <ele>354.282962</ele>
        <time>2025-10-23T11:58:44Z</time>
      </trkpt>
      <trkpt lat="43.58855" lon="3.18706">
        <ele>354.405252</ele>
        <time>2025-10-23T11:58:45Z</time>
      </trkpt>
      <trkpt lat="43.58855" lon="3.18704">
        <ele>354.519446</ele>
        <time>2025-10-23T11:58:46Z</time>
      </trkpt>
      <trkpt lat="43.58855" lon="3.18704">
        <ele>354.611681</ele>
        <time>2025-10-23T11:58:47Z</time>
      </trkpt>
      <trkpt lat="43.58855" lon="3.18702">
        <ele>354.710747</ele>
        <time>2025-10-23T11:58:48Z</time>
      </trkpt>
      <trkpt lat="43.58854" lon="3.18701">
        <ele>354.818306</ele>
        <time>2025-10-23T11:58:49Z</time>
      </trkpt>
      <trkpt lat="43.58854" lon="3.187">
        <ele>354.917372</ele>
        <time>2025-10-23T11:58:50Z</time>
      </trkpt>
      <trkpt lat="43.58854" lon="3.18699">
        <ele>355.026296</ele>
        <time>2025-10-23T11:58:51Z</time>
      </trkpt>
      <trkpt lat="43.58853" lon="3.18698">
        <ele>355.152776</ele>
        <time>2025-10-23T11:58:52Z</time>
      </trkpt>
      <trkpt lat="43.58852" lon="3.18697">
        <ele>355.283645</ele>
        <time>2025-10-23T11:58:53Z</time>
      </trkpt>
      <trkpt lat="43.58851" lon="3.18696">
        <ele>355.409531</ele>
        <time>2025-10-23T11:58:54Z</time>
      </trkpt>
      <trkpt lat="43.5885" lon="3.18696">
        <ele>355.495352</ele>
        <time>2025-10-23T11:58:55Z</time>
      </trkpt>
      <trkpt lat="43.58849" lon="3.18696">
        <ele>355.626276</ele>
        <time>2025-10-23T11:58:56Z</time>
      </trkpt>
      <trkpt lat="43.58849" lon="3.18697">
        <ele>355.700192</ele>
        <time>2025-10-23T11:58:57Z</time>
      </trkpt>
      <trkpt lat="43.58848" lon="3.18697">
        <ele>355.805074</ele>
        <time>2025-10-23T11:58:58Z</time>
      </trkpt>
      <trkpt lat="43.58848" lon="3.18698">
        <ele>355.871811</ele>
        <time>2025-10-23T11:58:59Z</time>
      </trkpt>
      <trkpt lat="43.58848" lon="3.18699">
        <ele>355.978476</ele>
        <time>2025-10-23T11:59:00Z</time>
      </trkpt>
      <trkpt lat="43.58848" lon="3.187">
        <ele>356.047917</ele>
        <time>2025-10-23T11:59:01Z</time>
      </trkpt>
      <trkpt lat="43.58848" lon="3.18701">
        <ele>356.122626</ele>
        <time>2025-10-23T11:59:02Z</time>
      </trkpt>
      <trkpt lat="43.58847" lon="3.18702">
        <ele>356.209325</ele>
        <time>2025-10-23T11:59:03Z</time>
      </trkpt>
      <trkpt lat="43.58847" lon="3.18703">
        <ele>356.276234</ele>
        <time>2025-10-23T11:59:04Z</time>
      </trkpt>
      <trkpt lat="43.58846" lon="3.18703">
        <ele>356.351279</ele>
        <time>2025-10-23T11:59:05Z</time>
      </trkpt>
      <trkpt lat="43.58846" lon="3.18704">
        <ele>356.450981</ele>
        <time>2025-10-23T11:59:06Z</time>
      </trkpt>
      <trkpt lat="43.58845" lon="3.18705">
        <ele>356.557537</ele>
        <time>2025-10-23T11:59:07Z</time>
      </trkpt>
      <trkpt lat="43.58845" lon="3.18706">
        <ele>356.670523</ele>
        <time>2025-10-23T11:59:08Z</time>
      </trkpt>
      <trkpt lat="43.58844" lon="3.18708">
        <ele>356.810105</ele>
        <time>2025-10-23T11:59:09Z</time>
      </trkpt>
      <trkpt lat="43.58843" lon="3.18709">
        <ele>356.956514</ele>
        <time>2025-10-23T11:59:10Z</time>
      </trkpt>
      <trkpt lat="43.58843" lon="3.1871">
        <ele>357.057506</ele>
        <time>2025-10-23T11:59:11Z</time>
      </trkpt>
      <trkpt lat="43.58842" lon="3.18712">
        <ele>357.177148</ele>
        <time>2025-10-23T11:59:12Z</time>
      </trkpt>
      <trkpt lat="43.58842" lon="3.18713">
        <ele>357.278182</ele>
        <time>2025-10-23T11:59:13Z</time>
      </trkpt>
      <trkpt lat="43.58842" lon="3.18714">
        <ele>357.382342</ele>
        <time>2025-10-23T11:59:14Z</time>
      </trkpt>
      <trkpt lat="43.58842" lon="3.18715">
        <ele>357.459585</ele>
        <time>2025-10-23T11:59:15Z</time>
      </trkpt>
      <trkpt lat="43.58841" lon="3.18716">
        <ele>357.567972</ele>
        <time>2025-10-23T11:59:16Z</time>
      </trkpt>
      <trkpt lat="43.58841" lon="3.18717">
        <ele>357.670912</ele>
        <time>2025-10-23T11:59:17Z</time>
      </trkpt>
      <trkpt lat="43.5884" lon="3.18718">
        <ele>357.787813</ele>
        <time>2025-10-23T11:59:18Z</time>
      </trkpt>
      <trkpt lat="43.58839" lon="3.18719">
        <ele>357.910064</ele>
        <time>2025-10-23T11:59:19Z</time>
      </trkpt>
      <trkpt lat="43.58838" lon="3.1872">
        <ele>358.032314</ele>
        <time>2025-10-23T11:59:20Z</time>
      </trkpt>
      <trkpt lat="43.58838" lon="3.18721">
        <ele>358.135254</ele>
        <time>2025-10-23T11:59:21Z</time>
      </trkpt>
      <trkpt lat="43.58837" lon="3.18721">
        <ele>358.242546</ele>
        <time>2025-10-23T11:59:22Z</time>
      </trkpt>
      <trkpt lat="43.58836" lon="3.18722">
        <ele>358.303671</ele>
        <time>2025-10-23T11:59:23Z</time>
      </trkpt>
      <trkpt lat="43.58836" lon="3.18722">
        <ele>358.379149</ele>
        <time>2025-10-23T11:59:24Z</time>
      </trkpt>
      <trkpt lat="43.58835" lon="3.18723">
        <ele>358.489046</ele>
        <time>2025-10-23T11:59:25Z</time>
      </trkpt>
      <trkpt lat="43.58834" lon="3.18723">
        <ele>358.606986</ele>
        <time>2025-10-23T11:59:26Z</time>
      </trkpt>
      <trkpt lat="43.58833" lon="3.18724">
        <ele>358.69091</ele>
        <time>2025-10-23T11:59:27Z</time>
      </trkpt>
      <trkpt lat="43.58832" lon="3.18724">
        <ele>358.794044</ele>
        <time>2025-10-23T11:59:28Z</time>
      </trkpt>
      <trkpt lat="43.58832" lon="3.18724">
        <ele>358.863965</ele>
        <time>2025-10-23T11:59:29Z</time>
      </trkpt>
      <trkpt lat="43.58831" lon="3.18725">
        <ele>358.95496</ele>
        <time>2025-10-23T11:59:30Z</time>
      </trkpt>
      <trkpt lat="43.5883" lon="3.18725">
        <ele>359.0729</ele>
        <time>2025-10-23T11:59:31Z</time>
      </trkpt>
      <trkpt lat="43.58829" lon="3.18726">
        <ele>359.220473</ele>
        <time>2025-10-23T11:59:32Z</time>
      </trkpt>
      <trkpt lat="43.58828" lon="3.18726">
        <ele>359.340953</ele>
        <time>2025-10-23T11:59:33Z</time>
      </trkpt>
      <trkpt lat="43.58827" lon="3.18727">
        <ele>359.461434</ele>
        <time>2025-10-23T11:59:34Z</time>
      </trkpt>
      <trkpt lat="43.58826" lon="3.18728">
        <ele>359.581576</ele>
        <time>2025-10-23T11:59:35Z</time>
      </trkpt>
      <trkpt lat="43.58825" lon="3.18728">
        <ele>359.679488</ele>
        <time>2025-10-23T11:59:36Z</time>
      </trkpt>
      <trkpt lat="43.58825" lon="3.18729">
        <ele>359.778966</ele>
        <time>2025-10-23T11:59:37Z</time>
      </trkpt>
      <trkpt lat="43.58824" lon="3.1873">
        <ele>359.892183</ele>
        <time>2025-10-23T11:59:38Z</time>
      </trkpt>
      <trkpt lat="43.58823" lon="3.1873">
        <ele>360.013439</ele>
        <time>2025-10-23T11:59:39Z</time>
      </trkpt>
      <trkpt lat="43.58822" lon="3.18731">
        <ele>360.168139</ele>
        <time>2025-10-23T11:59:40Z</time>
      </trkpt>
      <trkpt lat="43.58821" lon="3.18732">
        <ele>360.299064</ele>
        <time>2025-10-23T11:59:41Z</time>
      </trkpt>
      <trkpt lat="43.5882" lon="3.18733">
        <ele>360.41228</ele>
        <time>2025-10-23T11:59:42Z</time>
      </trkpt>
      <trkpt lat="43.58819" lon="3.18733">
        <ele>360.522178</ele>
        <time>2025-10-23T11:59:43Z</time>
      </trkpt>
      <trkpt lat="43.58818" lon="3.18734">
        <ele>360.618562</ele>
        <time>2025-10-23T11:59:44Z</time>
      </trkpt>
      <trkpt lat="43.58817" lon="3.18734">
        <ele>360.72846</ele>
        <time>2025-10-23T11:59:45Z</time>
      </trkpt>
      <trkpt lat="43.58816" lon="3.18734">
        <ele>360.833342</ele>
        <time>2025-10-23T11:59:46Z</time>
      </trkpt>
      <trkpt lat="43.58815" lon="3.18735">
        <ele>360.92544</ele>
        <time>2025-10-23T11:59:47Z</time>
      </trkpt>
      <trkpt lat="43.58815" lon="3.18735">
        <ele>360.98441</ele>
        <time>2025-10-23T11:59:48Z</time>
      </trkpt>
      <trkpt lat="43.58815" lon="3.18735">
        <ele>361.00435</ele>
        <time>2025-10-23T11:59:49Z</time>
      </trkpt>
      <trkpt lat="43.58815" lon="3.18735">
        <ele>361.028447</ele>
        <time>2025-10-23T11:59:50Z</time>
      </trkpt>
      <trkpt lat="43.58815" lon="3.18735">
        <ele>361.042434</ele>
        <time>2025-10-23T11:59:51Z</time>
      </trkpt>
      <trkpt lat="43.58815" lon="3.18735">
        <ele>361.056421</ele>
        <time>2025-10-23T11:59:52Z</time>
      </trkpt>
      <trkpt lat="43.58815" lon="3.18735">
        <ele>361.056421</ele>
        <time>2025-10-23T11:59:53Z</time>
      </trkpt>
      <trkpt lat="43.58815" lon="3.18735">
        <ele>361.064627</ele>
        <time>2025-10-23T11:59:54Z</time>
      </trkpt>
      <trkpt lat="43.58815" lon="3.18735">
        <ele>361.064627</ele>
        <time>2025-10-23T11:59:55Z</time>
      </trkpt>
      <trkpt lat="43.58815" lon="3.18735">
        <ele>361.064627</ele>
        <time>2025-10-23T11:59:56Z</time>
      </trkpt>
      <trkpt lat="43.58815" lon="3.18735">
        <ele>361.064627</ele>
        <time>2025-10-23T11:59:57Z</time>
      </trkpt>
      <trkpt lat="43.58815" lon="3.18735">
        <ele>361.064627</ele>
        <time>2025-10-23T11:59:58Z</time>
      </trkpt>
      <trkpt lat="43.58815" lon="3.18735">
        <ele>361.064627</ele>
        <time>2025-10-23T11:59:59Z</time>
      </trkpt>
      <trkpt lat="43.58815" lon="3.18735">
        <ele>361.075955</ele>
        <time>2025-10-23T12:00:00Z</time>
      </trkpt>
      <trkpt lat="43.58815" lon="3.18735">
        <ele>361.075955</ele>
        <time>2025-10-23T12:00:01Z</time>
      </trkpt>
      <trkpt lat="43.58815" lon="3.18735">
        <ele>361.08416</ele>
        <time>2025-10-23T12:00:02Z</time>
      </trkpt>
      <trkpt lat="43.58815" lon="3.18735">
        <ele>361.098147</ele>
        <time>2025-10-23T12:00:03Z</time>
      </trkpt>
      <trkpt lat="43.58815" lon="3.18735">
        <ele>361.109475</ele>
        <time>2025-10-23T12:00:04Z</time>
      </trkpt>
      <trkpt lat="43.58815" lon="3.18735">
        <ele>361.120803</ele>
        <time>2025-10-23T12:00:05Z</time>
      </trkpt>
      <trkpt lat="43.58815" lon="3.18735">
        <ele>361.120803</ele>
        <time>2025-10-23T12:00:06Z</time>
      </trkpt>
      <trkpt lat="43.58815" lon="3.18735">
        <ele>361.120803</ele>
        <time>2025-10-23T12:00:07Z</time>
      </trkpt>
      <trkpt lat="43.58815" lon="3.18735">
        <ele>361.120803</ele>
        <time>2025-10-23T12:00:08Z</time>
      </trkpt>
      <trkpt lat="43.58815" lon="3.18735">
        <ele>361.132131</ele>
        <time>2025-10-23T12:00:10Z</time>
      </trkpt>
      <trkpt lat="43.58815" lon="3.18734">
        <ele>361.181362</ele>
        <time>2025-10-23T12:00:11Z</time>
      </trkpt>
      <trkpt lat="43.58815" lon="3.18734">
        <ele>361.189567</ele>
        <time>2025-10-23T12:00:12Z</time>
      </trkpt>
      <trkpt lat="43.58815" lon="3.18734">
        <ele>361.189567</ele>
        <time>2025-10-23T12:00:13Z</time>
      </trkpt>
      <trkpt lat="43.58815" lon="3.18734">
        <ele>361.203555</ele>
        <time>2025-10-23T12:00:14Z</time>
      </trkpt>
      <trkpt lat="43.58815" lon="3.18734">
        <ele>361.203555</ele>
        <time>2025-10-23T12:00:15Z</time>
      </trkpt>
      <trkpt lat="43.58815" lon="3.18734">
        <ele>361.203555</ele>
        <time>2025-10-23T12:00:16Z</time>
      </trkpt>
      <trkpt lat="43.58815" lon="3.18734">
        <ele>361.21176</ele>
        <time>2025-10-23T12:00:17Z</time>
      </trkpt>
      <trkpt lat="43.58815" lon="3.18734">
        <ele>361.21176</ele>
        <time>2025-10-23T12:00:18Z</time>
      </trkpt>
      <trkpt lat="43.58815" lon="3.18734">
        <ele>361.225747</ele>
        <time>2025-10-23T12:00:19Z</time>
      </trkpt>
      <trkpt lat="43.58815" lon="3.18734">
        <ele>361.233952</ele>
        <time>2025-10-23T12:00:20Z</time>
      </trkpt>
      <trkpt lat="43.58815" lon="3.18734">
        <ele>361.233952</ele>
        <time>2025-10-23T12:00:21Z</time>
      </trkpt>
      <trkpt lat="43.58815" lon="3.18734">
        <ele>361.24794</ele>
        <time>2025-10-23T12:00:22Z</time>
      </trkpt>
      <trkpt lat="43.58815" lon="3.18733">
        <ele>361.26435</ele>
        <time>2025-10-23T12:00:23Z</time>
      </trkpt>
      <trkpt lat="43.58815" lon="3.18733">
        <ele>361.298334</ele>
        <time>2025-10-23T12:00:24Z</time>
      </trkpt>
      <trkpt lat="43.58815" lon="3.18732">
        <ele>361.423478</ele>
        <time>2025-10-23T12:00:25Z</time>
      </trkpt>
      <trkpt lat="43.58814" lon="3.18732">
        <ele>361.546994</ele>
        <time>2025-10-23T12:00:26Z</time>
      </trkpt>
      <trkpt lat="43.58812" lon="3.18733">
        <ele>361.687835</ele>
        <time>2025-10-23T12:00:27Z</time>
      </trkpt>
      <trkpt lat="43.58812" lon="3.18734">
        <ele>361.809091</ele>
        <time>2025-10-23T12:00:28Z</time>
      </trkpt>
      <trkpt lat="43.58811" lon="3.18735">
        <ele>361.953931</ele>
        <time>2025-10-23T12:00:29Z</time>
      </trkpt>
      <trkpt lat="43.5881" lon="3.18736">
        <ele>362.076182</ele>
        <time>2025-10-23T12:00:30Z</time>
      </trkpt>
      <trkpt lat="43.58809" lon="3.18737">
        <ele>362.179315</ele>
        <time>2025-10-23T12:00:31Z</time>
      </trkpt>
      <trkpt lat="43.58809" lon="3.18737">
        <ele>362.227508</ele>
        <time>2025-10-23T12:00:32Z</time>
      </trkpt>
      <trkpt lat="43.58807" lon="3.18737">
        <ele>362.368348</ele>
        <time>2025-10-23T12:00:33Z</time>
      </trkpt>
      <trkpt lat="43.58806" lon="3.18738">
        <ele>362.513189</ele>
        <time>2025-10-23T12:00:34Z</time>
      </trkpt>
      <trkpt lat="43.58805" lon="3.18739">
        <ele>362.662386</ele>
        <time>2025-10-23T12:00:35Z</time>
      </trkpt>
      <trkpt lat="43.58804" lon="3.1874">
        <ele>362.806963</ele>
        <time>2025-10-23T12:00:36Z</time>
      </trkpt>
      <trkpt lat="43.58803" lon="3.18741">
        <ele>362.961663</ele>
        <time>2025-10-23T12:00:37Z</time>
      </trkpt>
      <trkpt lat="43.58802" lon="3.18742">
        <ele>363.102503</ele>
        <time>2025-10-23T12:00:38Z</time>
      </trkpt>
      <trkpt lat="43.58801" lon="3.18742">
        <ele>363.222984</ele>
        <time>2025-10-23T12:00:39Z</time>
      </trkpt>
      <trkpt lat="43.588" lon="3.18742">
        <ele>363.325267</ele>
        <time>2025-10-23T12:00:40Z</time>
      </trkpt>
      <trkpt lat="43.58799" lon="3.18743">
        <ele>363.432559</ele>
        <time>2025-10-23T12:00:41Z</time>
      </trkpt>
      <trkpt lat="43.58799" lon="3.18743">
        <ele>363.489791</ele>
        <time>2025-10-23T12:00:42Z</time>
      </trkpt>
      <trkpt lat="43.58798" lon="3.18743">
        <ele>363.558253</ele>
        <time>2025-10-23T12:00:43Z</time>
      </trkpt>
      <trkpt lat="43.58798" lon="3.18743">
        <ele>363.591707</ele>
        <time>2025-10-23T12:00:44Z</time>
      </trkpt>
      <trkpt lat="43.58798" lon="3.18743">
        <ele>363.591707</ele>
        <time>2025-10-23T12:00:45Z</time>
      </trkpt>
      <trkpt lat="43.58798" lon="3.18743">
        <ele>363.591707</ele>
        <time>2025-10-23T12:00:46Z</time>
      </trkpt>
      <trkpt lat="43.58798" lon="3.18743">
        <ele>363.615804</ele>
        <time>2025-10-23T12:00:47Z</time>
      </trkpt>
      <trkpt lat="43.58797" lon="3.18743">
        <ele>363.673035</ele>
        <time>2025-10-23T12:00:48Z</time>
      </trkpt>
      <trkpt lat="43.58796" lon="3.18743">
        <ele>363.754012</ele>
        <time>2025-10-23T12:00:49Z</time>
      </trkpt>
      <trkpt lat="43.58796" lon="3.18743">
        <ele>363.800061</ele>
        <time>2025-10-23T12:00:50Z</time>
      </trkpt>
      <trkpt lat="43.58795" lon="3.18744">
        <ele>363.889342</ele>
        <time>2025-10-23T12:00:51Z</time>
      </trkpt>
      <trkpt lat="43.58794" lon="3.18744">
        <ele>364.02749</ele>
        <time>2025-10-23T12:00:52Z</time>
      </trkpt>
      <trkpt lat="43.58793" lon="3.18745">
        <ele>364.154506</ele>
        <time>2025-10-23T12:00:53Z</time>
      </trkpt>
      <trkpt lat="43.58792" lon="3.18745">
        <ele>364.256789</ele>
        <time>2025-10-23T12:00:54Z</time>
      </trkpt>
      <trkpt lat="43.58791" lon="3.18745">
        <ele>364.383806</ele>
        <time>2025-10-23T12:00:55Z</time>
      </trkpt>
      <trkpt lat="43.5879" lon="3.18745">
        <ele>364.497383</ele>
        <time>2025-10-23T12:00:56Z</time>
      </trkpt>
      <trkpt lat="43.58789" lon="3.18746">
        <ele>364.639376</ele>
        <time>2025-10-23T12:00:57Z</time>
      </trkpt>
      <trkpt lat="43.58788" lon="3.18746">
        <ele>364.773358</ele>
        <time>2025-10-23T12:00:58Z</time>
      </trkpt>
      <trkpt lat="43.58787" lon="3.18746">
        <ele>364.887821</ele>
        <time>2025-10-23T12:00:59Z</time>
      </trkpt>
      <trkpt lat="43.58786" lon="3.18747">
        <ele>365.003745</ele>
        <time>2025-10-23T12:01:00Z</time>
      </trkpt>
      <trkpt lat="43.58785" lon="3.18747">
        <ele>365.121685</ele>
        <time>2025-10-23T12:01:01Z</time>
      </trkpt>
      <trkpt lat="43.58784" lon="3.18748">
        <ele>365.242166</ele>
        <time>2025-10-23T12:01:02Z</time>
      </trkpt>
      <trkpt lat="43.58783" lon="3.18748">
        <ele>365.359184</ele>
        <time>2025-10-23T12:01:03Z</time>
      </trkpt>
      <trkpt lat="43.58782" lon="3.18749">
        <ele>365.458662</ele>
        <time>2025-10-23T12:01:04Z</time>
      </trkpt>
      <trkpt lat="43.58781" lon="3.18749">
        <ele>365.549657</ele>
        <time>2025-10-23T12:01:05Z</time>
      </trkpt>
      <trkpt lat="43.5878" lon="3.18749">
        <ele>365.656763</ele>
        <time>2025-10-23T12:01:06Z</time>
      </trkpt>
      <trkpt lat="43.58779" lon="3.18749">
        <ele>365.781641</ele>
        <time>2025-10-23T12:01:07Z</time>
      </trkpt>
      <trkpt lat="43.58778" lon="3.18749">
        <ele>365.90652</ele>
        <time>2025-10-23T12:01:08Z</time>
      </trkpt>
      <trkpt lat="43.58777" lon="3.1875">
        <ele>366.013625</ele>
        <time>2025-10-23T12:01:09Z</time>
      </trkpt>
      <trkpt lat="43.58776" lon="3.18751">
        <ele>366.164581</ele>
        <time>2025-10-23T12:01:10Z</time>
      </trkpt>
      <trkpt lat="43.58775" lon="3.18751">
        <ele>366.271687</ele>
        <time>2025-10-23T12:01:11Z</time>
      </trkpt>
      <trkpt lat="43.58774" lon="3.18751">
        <ele>366.365595</ele>
        <time>2025-10-23T12:01:12Z</time>
      </trkpt>
      <trkpt lat="43.58773" lon="3.18752">
        <ele>366.483534</ele>
        <time>2025-10-23T12:01:13Z</time>
      </trkpt>
      <trkpt lat="43.58772" lon="3.18752">
        <ele>366.619719</ele>
        <time>2025-10-23T12:01:14Z</time>
      </trkpt>
      <trkpt lat="43.58771" lon="3.18752">
        <ele>366.755656</ele>
        <time>2025-10-23T12:01:15Z</time>
      </trkpt>
      <trkpt lat="43.5877" lon="3.18752">
        <ele>366.88134</ele>
        <time>2025-10-23T12:01:16Z</time>
      </trkpt>
      <trkpt lat="43.58769" lon="3.18752">
        <ele>367.008357</ele>
        <time>2025-10-23T12:01:17Z</time>
      </trkpt>
      <trkpt lat="43.58768" lon="3.18753">
        <ele>367.167138</ele>
        <time>2025-10-23T12:01:18Z</time>
      </trkpt>
      <trkpt lat="43.58766" lon="3.18754">
        <ele>367.350051</ele>
        <time>2025-10-23T12:01:19Z</time>
      </trkpt>
      <trkpt lat="43.58765" lon="3.18754">
        <ele>367.484033</ele>
        <time>2025-10-23T12:01:20Z</time>
      </trkpt>
      <trkpt lat="43.58764" lon="3.18755">
        <ele>367.599957</ele>
        <time>2025-10-23T12:01:21Z</time>
      </trkpt>
      <trkpt lat="43.58762" lon="3.18755">
        <ele>367.770669</ele>
        <time>2025-10-23T12:01:22Z</time>
      </trkpt>
      <trkpt lat="43.58761" lon="3.18755">
        <ele>367.94059</ele>
        <time>2025-10-23T12:01:23Z</time>
      </trkpt>
      <trkpt lat="43.5876" lon="3.18755">
        <ele>368.055053</ele>
        <time>2025-10-23T12:01:24Z</time>
      </trkpt>
      <trkpt lat="43.58759" lon="3.18754">
        <ele>368.124975</ele>
        <time>2025-10-23T12:01:25Z</time>
      </trkpt>
      <trkpt lat="43.58759" lon="3.18754">
        <ele>368.173167</ele>
        <time>2025-10-23T12:01:26Z</time>
      </trkpt>
      <trkpt lat="43.58758" lon="3.18754">
        <ele>368.298852</ele>
        <time>2025-10-23T12:01:27Z</time>
      </trkpt>
      <trkpt lat="43.58757" lon="3.18755">
        <ele>368.413315</ele>
        <time>2025-10-23T12:01:28Z</time>
      </trkpt>
      <trkpt lat="43.58756" lon="3.18755">
        <ele>368.486474</ele>
        <time>2025-10-23T12:01:29Z</time>
      </trkpt>
      <trkpt lat="43.58756" lon="3.18756">
        <ele>368.586838</ele>
        <time>2025-10-23T12:01:30Z</time>
      </trkpt>
      <trkpt lat="43.58755" lon="3.18756">
        <ele>368.700416</ele>
        <time>2025-10-23T12:01:31Z</time>
      </trkpt>
      <trkpt lat="43.58754" lon="3.18756">
        <ele>368.834397</ele>
        <time>2025-10-23T12:01:32Z</time>
      </trkpt>
      <trkpt lat="43.58753" lon="3.18756">
        <ele>368.959006</ele>
        <time>2025-10-23T12:01:33Z</time>
      </trkpt>
      <trkpt lat="43.58752" lon="3.18755">
        <ele>369.066111</ele>
        <time>2025-10-23T12:01:34Z</time>
      </trkpt>
      <trkpt lat="43.58751" lon="3.18755">
        <ele>369.18313</ele>
        <time>2025-10-23T12:01:35Z</time>
      </trkpt>
      <trkpt lat="43.5875" lon="3.18754">
        <ele>369.264107</ele>
        <time>2025-10-23T12:01:36Z</time>
      </trkpt>
      <trkpt lat="43.58749" lon="3.18755">
        <ele>369.419383</ele>
        <time>2025-10-23T12:01:37Z</time>
      </trkpt>
      <trkpt lat="43.58747" lon="3.18755">
        <ele>369.578188</ele>
        <time>2025-10-23T12:01:38Z</time>
      </trkpt>
      <trkpt lat="43.58746" lon="3.18755">
        <ele>369.691766</ele>
        <time>2025-10-23T12:01:39Z</time>
      </trkpt>
      <trkpt lat="43.58745" lon="3.18754">
        <ele>369.818783</ele>
        <time>2025-10-23T12:01:40Z</time>
      </trkpt>
      <trkpt lat="43.58744" lon="3.18754">
        <ele>369.910881</ele>
        <time>2025-10-23T12:01:41Z</time>
      </trkpt>
      <trkpt lat="43.58744" lon="3.18755">
        <ele>370.010359</ele>
        <time>2025-10-23T12:01:42Z</time>
      </trkpt>
      <trkpt lat="43.58743" lon="3.18755">
        <ele>370.103696</ele>
        <time>2025-10-23T12:01:43Z</time>
      </trkpt>
      <trkpt lat="43.58742" lon="3.18756">
        <ele>370.179174</ele>
        <time>2025-10-23T12:01:44Z</time>
      </trkpt>
      <trkpt lat="43.58742" lon="3.18755">
        <ele>370.251462</ele>
        <time>2025-10-23T12:01:45Z</time>
      </trkpt>
      <trkpt lat="43.58742" lon="3.18755">
        <ele>370.305656</ele>
        <time>2025-10-23T12:01:46Z</time>
      </trkpt>
      <trkpt lat="43.58742" lon="3.18754">
        <ele>370.340377</ele>
        <time>2025-10-23T12:01:47Z</time>
      </trkpt>
      <trkpt lat="43.58742" lon="3.18754">
        <ele>370.382938</ele>
        <time>2025-10-23T12:01:48Z</time>
      </trkpt>
      <trkpt lat="43.58742" lon="3.18753">
        <ele>370.48205</ele>
        <time>2025-10-23T12:01:49Z</time>
      </trkpt>
      <trkpt lat="43.58742" lon="3.18752">
        <ele>370.548787</ele>
        <time>2025-10-23T12:01:50Z</time>
      </trkpt>
      <trkpt lat="43.58742" lon="3.18752">
        <ele>370.595653</ele>
        <time>2025-10-23T12:01:51Z</time>
      </trkpt>
      <trkpt lat="43.58742" lon="3.18751">
        <ele>370.612064</ele>
        <time>2025-10-23T12:01:52Z</time>
      </trkpt>
      <trkpt lat="43.58742" lon="3.18751">
        <ele>370.626051</ele>
        <time>2025-10-23T12:01:53Z</time>
      </trkpt>
      <trkpt lat="43.58743" lon="3.18751">
        <ele>370.637379</ele>
        <time>2025-10-23T12:01:54Z</time>
      </trkpt>
      <trkpt lat="43.58743" lon="3.18751">
        <ele>370.651367</ele>
        <time>2025-10-23T12:01:55Z</time>
      </trkpt>
      <trkpt lat="43.58743" lon="3.18751">
        <ele>370.662695</ele>
        <time>2025-10-23T12:01:56Z</time>
      </trkpt>
      <trkpt lat="43.58742" lon="3.18751">
        <ele>370.676682</ele>
        <time>2025-10-23T12:01:57Z</time>
      </trkpt>
      <trkpt lat="43.58742" lon="3.18751">
        <ele>370.696623</ele>
        <time>2025-10-23T12:01:58Z</time>
      </trkpt>
      <trkpt lat="43.58742" lon="3.18752">
        <ele>370.749896</ele>
        <time>2025-10-23T12:01:59Z</time>
      </trkpt>
      <trkpt lat="43.58742" lon="3.18752">
        <ele>370.769837</ele>
        <time>2025-10-23T12:02:00Z</time>
      </trkpt>
      <trkpt lat="43.58742" lon="3.18752">
        <ele>370.769837</ele>
        <time>2025-10-23T12:02:01Z</time>
      </trkpt>
      <trkpt lat="43.58742" lon="3.18752">
        <ele>370.778042</ele>
        <time>2025-10-23T12:02:02Z</time>
      </trkpt>
      <trkpt lat="43.58742" lon="3.18752">
        <ele>370.778042</ele>
        <time>2025-10-23T12:02:03Z</time>
      </trkpt>
      <trkpt lat="43.58742" lon="3.18752">
        <ele>370.786247</ele>
        <time>2025-10-23T12:02:04Z</time>
      </trkpt>
      <trkpt lat="43.58742" lon="3.18752">
        <ele>370.786247</ele>
        <time>2025-10-23T12:02:05Z</time>
      </trkpt>
      <trkpt lat="43.58742" lon="3.18752">
        <ele>370.786247</ele>
        <time>2025-10-23T12:02:06Z</time>
      </trkpt>
      <trkpt lat="43.58742" lon="3.18752">
        <ele>370.786247</ele>
        <time>2025-10-23T12:02:07Z</time>
      </trkpt>
      <trkpt lat="43.58742" lon="3.18752">
        <ele>370.786247</ele>
        <time>2025-10-23T12:02:08Z</time>
      </trkpt>
      <trkpt lat="43.58742" lon="3.18752">
        <ele>370.786247</ele>
        <time>2025-10-23T12:02:09Z</time>
      </trkpt>
      <trkpt lat="43.58742" lon="3.18752">
        <ele>370.786247</ele>
        <time>2025-10-23T12:02:10Z</time>
      </trkpt>
      <trkpt lat="43.58742" lon="3.18752">
        <ele>370.794453</ele>
        <time>2025-10-23T12:02:11Z</time>
      </trkpt>
      <trkpt lat="43.58742" lon="3.18752">
        <ele>370.794453</ele>
        <time>2025-10-23T12:02:12Z</time>
      </trkpt>
      <trkpt lat="43.58742" lon="3.18752">
        <ele>370.828437</ele>
        <time>2025-10-23T12:02:13Z</time>
      </trkpt>
      <trkpt lat="43.5874" lon="3.18752">
        <ele>370.999149</ele>
        <time>2025-10-23T12:02:14Z</time>
      </trkpt>
      <trkpt lat="43.58739" lon="3.18752">
        <ele>371.112726</ele>
        <time>2025-10-23T12:02:15Z</time>
      </trkpt>
      <trkpt lat="43.58738" lon="3.18753">
        <ele>371.241585</ele>
        <time>2025-10-23T12:02:16Z</time>
      </trkpt>
      <trkpt lat="43.58737" lon="3.18753">
        <ele>371.379733</ele>
        <time>2025-10-23T12:02:17Z</time>
      </trkpt>
      <trkpt lat="43.58735" lon="3.18753">
        <ele>371.540225</ele>
        <time>2025-10-23T12:02:18Z</time>
      </trkpt>
      <trkpt lat="43.58734" lon="3.18754">
        <ele>371.702178</ele>
        <time>2025-10-23T12:02:19Z</time>
      </trkpt>
      <trkpt lat="43.58733" lon="3.18754">
        <ele>371.833367</ele>
        <time>2025-10-23T12:02:20Z</time>
      </trkpt>
      <trkpt lat="43.58732" lon="3.18754">
        <ele>371.940473</ele>
        <time>2025-10-23T12:02:21Z</time>
      </trkpt>
      <trkpt lat="43.58731" lon="3.18755">
        <ele>372.063989</ele>
        <time>2025-10-23T12:02:22Z</time>
      </trkpt>
      <trkpt lat="43.5873" lon="3.18755">
        <ele>372.156087</ele>
        <time>2025-10-23T12:02:23Z</time>
      </trkpt>
      <trkpt lat="43.58729" lon="3.18755">
        <ele>372.269665</ele>
        <time>2025-10-23T12:02:24Z</time>
      </trkpt>
      <trkpt lat="43.58728" lon="3.18756">
        <ele>372.387605</ele>
        <time>2025-10-23T12:02:25Z</time>
      </trkpt>
      <trkpt lat="43.58727" lon="3.18756">
        <ele>372.514621</ele>
        <time>2025-10-23T12:02:26Z</time>
      </trkpt>
      <trkpt lat="43.58726" lon="3.18756">
        <ele>372.628199</ele>
        <time>2025-10-23T12:02:27Z</time>
      </trkpt>
      <trkpt lat="43.58725" lon="3.18756">
        <ele>372.746139</ele>
        <time>2025-10-23T12:02:28Z</time>
      </trkpt>
      <trkpt lat="43.58724" lon="3.18756">
        <ele>372.916258</ele>
        <time>2025-10-23T12:02:29Z</time>
      </trkpt>
      <trkpt lat="43.58723" lon="3.18756">
        <ele>373.040867</ele>
        <time>2025-10-23T12:02:30Z</time>
      </trkpt>
      <trkpt lat="43.58721" lon="3.18756">
        <ele>373.167884</ele>
        <time>2025-10-23T12:02:31Z</time>
      </trkpt>
      <trkpt lat="43.5872" lon="3.18756">
        <ele>373.304068</ele>
        <time>2025-10-23T12:02:32Z</time>
      </trkpt>
      <trkpt lat="43.58719" lon="3.18756">
        <ele>373.454946</ele>
        <time>2025-10-23T12:02:33Z</time>
      </trkpt>
      <trkpt lat="43.58718" lon="3.18756">
        <ele>373.591131</ele>
        <time>2025-10-23T12:02:34Z</time>
      </trkpt>
      <trkpt lat="43.58717" lon="3.18756">
        <ele>373.693413</ele>
        <time>2025-10-23T12:02:35Z</time>
      </trkpt>
      <trkpt lat="43.58716" lon="3.18756">
        <ele>373.785511</ele>
        <time>2025-10-23T12:02:36Z</time>
      </trkpt>
      <trkpt lat="43.58715" lon="3.18756">
        <ele>373.87761</ele>
        <time>2025-10-23T12:02:37Z</time>
      </trkpt>
      <trkpt lat="43.58715" lon="3.18756">
        <ele>373.939368</ele>
        <time>2025-10-23T12:02:38Z</time>
      </trkpt>
      <trkpt lat="43.58714" lon="3.18756">
        <ele>374.052649</ele>
        <time>2025-10-23T12:02:39Z</time>
      </trkpt>
      <trkpt lat="43.58713" lon="3.18756">
        <ele>374.177528</ele>
        <time>2025-10-23T12:02:40Z</time>
      </trkpt>
      <trkpt lat="43.58711" lon="3.18756">
        <ele>374.336967</ele>
        <time>2025-10-23T12:02:41Z</time>
      </trkpt>
      <trkpt lat="43.5871" lon="3.18756">
        <ele>374.496407</ele>
        <time>2025-10-23T12:02:42Z</time>
      </trkpt>
      <trkpt lat="43.58709" lon="3.18757">
        <ele>374.627596</ele>
        <time>2025-10-23T12:02:43Z</time>
      </trkpt>
      <trkpt lat="43.58708" lon="3.18757">
        <ele>374.697518</ele>
        <time>2025-10-23T12:02:44Z</time>
      </trkpt>
      <trkpt lat="43.58708" lon="3.18757">
        <ele>374.724615</ele>
        <time>2025-10-23T12:02:45Z</time>
      </trkpt>
      <trkpt lat="43.58708" lon="3.18757">
        <ele>374.751712</ele>
        <time>2025-10-23T12:02:46Z</time>
      </trkpt>
      <trkpt lat="43.58708" lon="3.18758">
        <ele>374.82165</ele>
        <time>2025-10-23T12:02:47Z</time>
      </trkpt>
      <trkpt lat="43.58707" lon="3.18758">
        <ele>374.924784</ele>
        <time>2025-10-23T12:02:48Z</time>
      </trkpt>
      <trkpt lat="43.58706" lon="3.18759">
        <ele>375.031889</ele>
        <time>2025-10-23T12:02:49Z</time>
      </trkpt>
      <trkpt lat="43.58705" lon="3.18759">
        <ele>375.193843</ele>
        <time>2025-10-23T12:02:50Z</time>
      </trkpt>
      <trkpt lat="43.58703" lon="3.1876">
        <ele>375.327824</ele>
        <time>2025-10-23T12:02:51Z</time>
      </trkpt>
      <trkpt lat="43.58702" lon="3.1876">
        <ele>375.395077</ele>
        <time>2025-10-23T12:02:52Z</time>
      </trkpt>
      <trkpt lat="43.58701" lon="3.18761">
        <ele>375.465612</ele>
        <time>2025-10-23T12:02:53Z</time>
      </trkpt>
      <trkpt lat="43.587" lon="3.18762">
        <ele>375.522596</ele>
        <time>2025-10-23T12:02:54Z</time>
      </trkpt>
      <trkpt lat="43.587" lon="3.18763">
        <ele>375.578162</ele>
        <time>2025-10-23T12:02:55Z</time>
      </trkpt>
      <trkpt lat="43.58699" lon="3.18764">
        <ele>375.623482</ele>
        <time>2025-10-23T12:02:56Z</time>
      </trkpt>
      <trkpt lat="43.58698" lon="3.18764">
        <ele>375.671924</ele>
        <time>2025-10-23T12:02:57Z</time>
      </trkpt>
      <trkpt lat="43.58698" lon="3.18765">
        <ele>375.699794</ele>
        <time>2025-10-23T12:02:58Z</time>
      </trkpt>
      <trkpt lat="43.58697" lon="3.18765">
        <ele>375.74673</ele>
        <time>2025-10-23T12:02:59Z</time>
      </trkpt>
      <trkpt lat="43.58696" lon="3.18765">
        <ele>375.78539</ele>
        <time>2025-10-23T12:03:00Z</time>
      </trkpt>
      <trkpt lat="43.58696" lon="3.18766">
        <ele>375.802414</ele>
        <time>2025-10-23T12:03:01Z</time>
      </trkpt>
      <trkpt lat="43.58697" lon="3.18765">
        <ele>375.832488</ele>
        <time>2025-10-23T12:03:02Z</time>
      </trkpt>
      <trkpt lat="43.58697" lon="3.18765">
        <ele>375.854554</ele>
        <time>2025-10-23T12:03:03Z</time>
      </trkpt>
      <trkpt lat="43.58697" lon="3.18765">
        <ele>375.854554</ele>
        <time>2025-10-23T12:03:04Z</time>
      </trkpt>
      <trkpt lat="43.58697" lon="3.18765">
        <ele>375.858549</ele>
        <time>2025-10-23T12:03:05Z</time>
      </trkpt>
      <trkpt lat="43.58697" lon="3.18765">
        <ele>375.864066</ele>
        <time>2025-10-23T12:03:06Z</time>
      </trkpt>
      <trkpt lat="43.58697" lon="3.18765">
        <ele>375.876053</ele>
        <time>2025-10-23T12:03:07Z</time>
      </trkpt>
      <trkpt lat="43.58697" lon="3.18764">
        <ele>375.900653</ele>
        <time>2025-10-23T12:03:08Z</time>
      </trkpt>
      <trkpt lat="43.58697" lon="3.18764">
        <ele>375.916636</ele>
        <time>2025-10-23T12:03:09Z</time>
      </trkpt>
      <trkpt lat="43.58697" lon="3.18764">
        <ele>375.932927</ele>
        <time>2025-10-23T12:03:10Z</time>
      </trkpt>
      <trkpt lat="43.58697" lon="3.18763">
        <ele>375.962994</ele>
        <time>2025-10-23T12:03:11Z</time>
      </trkpt>
      <trkpt lat="43.58697" lon="3.18763">
        <ele>375.974981</ele>
        <time>2025-10-23T12:03:12Z</time>
      </trkpt>
      <trkpt lat="43.58696" lon="3.18763">
        <ele>375.986013</ele>
        <time>2025-10-23T12:03:13Z</time>
      </trkpt>
      <trkpt lat="43.58696" lon="3.18763">
        <ele>375.995724</ele>
        <time>2025-10-23T12:03:14Z</time>
      </trkpt>
      <trkpt lat="43.58696" lon="3.18763">
        <ele>376.009346</ele>
        <time>2025-10-23T12:03:15Z</time>
      </trkpt>
      <trkpt lat="43.58696" lon="3.18763">
        <ele>376.016158</ele>
        <time>2025-10-23T12:03:16Z</time>
      </trkpt>
      <trkpt lat="43.58696" lon="3.18763">
        <ele>376.022969</ele>
        <time>2025-10-23T12:03:17Z</time>
      </trkpt>
      <trkpt lat="43.58696" lon="3.18763">
        <ele>376.022969</ele>
        <time>2025-10-23T12:03:18Z</time>
      </trkpt>
      <trkpt lat="43.58696" lon="3.18763">
        <ele>376.028486</ele>
        <time>2025-10-23T12:03:19Z</time>
      </trkpt>
      <trkpt lat="43.58697" lon="3.18763">
        <ele>376.04022</ele>
        <time>2025-10-23T12:03:20Z</time>
      </trkpt>
      <trkpt lat="43.58697" lon="3.18763">
        <ele>376.053415</ele>
        <time>2025-10-23T12:03:21Z</time>
      </trkpt>
      <trkpt lat="43.58697" lon="3.18763">
        <ele>376.053415</ele>
        <time>2025-10-23T12:03:22Z</time>
      </trkpt>
      <trkpt lat="43.58697" lon="3.18763">
        <ele>376.067038</ele>
        <time>2025-10-23T12:03:23Z</time>
      </trkpt>
      <trkpt lat="43.58697" lon="3.18763">
        <ele>376.080233</ele>
        <time>2025-10-23T12:03:24Z</time>
      </trkpt>
      <trkpt lat="43.58697" lon="3.18763">
        <ele>376.089943</ele>
        <time>2025-10-23T12:03:25Z</time>
      </trkpt>
      <trkpt lat="43.58697" lon="3.18763">
        <ele>376.097935</ele>
        <time>2025-10-23T12:03:26Z</time>
      </trkpt>
      <trkpt lat="43.58697" lon="3.18764">
        <ele>376.111557</ele>
        <time>2025-10-23T12:03:27Z</time>
      </trkpt>
      <trkpt lat="43.58697" lon="3.18764">
        <ele>376.121268</ele>
        <time>2025-10-23T12:03:28Z</time>
      </trkpt>
      <trkpt lat="43.58698" lon="3.18764">
        <ele>376.144736</ele>
        <time>2025-10-23T12:03:29Z</time>
      </trkpt>
      <trkpt lat="43.58698" lon="3.18764">
        <ele>376.163113</ele>
        <time>2025-10-23T12:03:30Z</time>
      </trkpt>
      <trkpt lat="43.58698" lon="3.18764">
        <ele>376.172823</ele>
        <time>2025-10-23T12:03:31Z</time>
      </trkpt>
      <trkpt lat="43.58698" lon="3.18765">
        <ele>376.179635</ele>
        <time>2025-10-23T12:03:32Z</time>
      </trkpt>
      <trkpt lat="43.58698" lon="3.18765">
        <ele>376.189345</ele>
        <time>2025-10-23T12:03:33Z</time>
      </trkpt>
      <trkpt lat="43.58699" lon="3.18765">
        <ele>376.210071</ele>
        <time>2025-10-23T12:03:34Z</time>
      </trkpt>
      <trkpt lat="43.58699" lon="3.18766">
        <ele>376.240138</ele>
        <time>2025-10-23T12:03:35Z</time>
      </trkpt>
      <trkpt lat="43.58699" lon="3.18766">
        <ele>376.260116</ele>
        <time>2025-10-23T12:03:36Z</time>
      </trkpt>
      <trkpt lat="43.58699" lon="3.18767">
        <ele>376.269826</ele>
        <time>2025-10-23T12:03:37Z</time>
      </trkpt>
      <trkpt lat="43.58699" lon="3.18767">
        <ele>376.276638</ele>
        <time>2025-10-23T12:03:38Z</time>
      </trkpt>
      <trkpt lat="43.58699" lon="3.18767">
        <ele>376.289833</ele>
        <time>2025-10-23T12:03:39Z</time>
      </trkpt>
      <trkpt lat="43.58699" lon="3.18768">
        <ele>376.309811</ele>
        <time>2025-10-23T12:03:40Z</time>
      </trkpt>
      <trkpt lat="43.58699" lon="3.18768">
        <ele>376.319522</ele>
        <time>2025-10-23T12:03:41Z</time>
      </trkpt>
      <trkpt lat="43.58699" lon="3.18768">
        <ele>376.336429</ele>
        <time>2025-10-23T12:03:42Z</time>
      </trkpt>
      <trkpt lat="43.58699" lon="3.18768">
        <ele>376.34614</ele>
        <time>2025-10-23T12:03:43Z</time>
      </trkpt>
      <trkpt lat="43.58699" lon="3.18768">
        <ele>376.357874</ele>
        <time>2025-10-23T12:03:44Z</time>
      </trkpt>
      <trkpt lat="43.58699" lon="3.18768">
        <ele>376.36339</ele>
        <time>2025-10-23T12:03:45Z</time>
      </trkpt>
      <trkpt lat="43.58699" lon="3.18768">
        <ele>376.375124</ele>
        <time>2025-10-23T12:03:46Z</time>
      </trkpt>
      <trkpt lat="43.58699" lon="3.18768">
        <ele>376.386858</ele>
        <time>2025-10-23T12:03:47Z</time>
      </trkpt>
      <trkpt lat="43.587" lon="3.18768">
        <ele>376.396568</ele>
        <time>2025-10-23T12:03:48Z</time>
      </trkpt>
      <trkpt lat="43.587" lon="3.18768">
        <ele>376.406279</ele>
        <time>2025-10-23T12:03:49Z</time>
      </trkpt>
      <trkpt lat="43.587" lon="3.18768">
        <ele>376.418012</ele>
        <time>2025-10-23T12:03:50Z</time>
      </trkpt>
      <trkpt lat="43.587" lon="3.18768">
        <ele>376.447778</ele>
        <time>2025-10-23T12:03:51Z</time>
      </trkpt>
      <trkpt lat="43.587" lon="3.18768">
        <ele>376.45459</ele>
        <time>2025-10-23T12:03:52Z</time>
      </trkpt>
      <trkpt lat="43.587" lon="3.18768">
        <ele>376.460106</ele>
        <time>2025-10-23T12:03:53Z</time>
      </trkpt>
      <trkpt lat="43.587" lon="3.18768">
        <ele>376.460106</ele>
        <time>2025-10-23T12:03:54Z</time>
      </trkpt>
      <trkpt lat="43.587" lon="3.18768">
        <ele>376.464102</ele>
        <time>2025-10-23T12:03:55Z</time>
      </trkpt>
      <trkpt lat="43.587" lon="3.18768">
        <ele>376.464102</ele>
        <time>2025-10-23T12:03:56Z</time>
      </trkpt>
      <trkpt lat="43.587" lon="3.18768">
        <ele>376.464102</ele>
        <time>2025-10-23T12:03:57Z</time>
      </trkpt>
      <trkpt lat="43.587" lon="3.18768">
        <ele>376.464102</ele>
        <time>2025-10-23T12:03:58Z</time>
      </trkpt>
      <trkpt lat="43.587" lon="3.18768">
        <ele>376.464102</ele>
        <time>2025-10-23T12:03:59Z</time>
      </trkpt>
      <trkpt lat="43.587" lon="3.18768">
        <ele>376.464102</ele>
        <time>2025-10-23T12:04:00Z</time>
      </trkpt>
      <trkpt lat="43.587" lon="3.18768">
        <ele>376.464102</ele>
        <time>2025-10-23T12:04:01Z</time>
      </trkpt>
      <trkpt lat="43.587" lon="3.18768">
        <ele>376.469618</ele>
        <time>2025-10-23T12:04:02Z</time>
      </trkpt>
      <trkpt lat="43.587" lon="3.18768">
        <ele>376.469618</ele>
        <time>2025-10-23T12:04:03Z</time>
      </trkpt>
      <trkpt lat="43.587" lon="3.18768">
        <ele>376.469618</ele>
        <time>2025-10-23T12:04:04Z</time>
      </trkpt>
      <trkpt lat="43.587" lon="3.18768">
        <ele>376.469618</ele>
        <time>2025-10-23T12:04:05Z</time>
      </trkpt>
      <trkpt lat="43.587" lon="3.18768">
        <ele>376.469618</ele>
        <time>2025-10-23T12:04:06Z</time>
      </trkpt>
      <trkpt lat="43.587" lon="3.18768">
        <ele>376.469618</ele>
        <time>2025-10-23T12:04:07Z</time>
      </trkpt>
      <trkpt lat="43.587" lon="3.18768">
        <ele>376.469618</ele>
        <time>2025-10-23T12:04:08Z</time>
      </trkpt>
      <trkpt lat="43.587" lon="3.18768">
        <ele>376.469618</ele>
        <time>2025-10-23T12:04:09Z</time>
      </trkpt>
      <trkpt lat="43.587" lon="3.18768">
        <ele>376.469618</ele>
        <time>2025-10-23T12:04:10Z</time>
      </trkpt>
      <trkpt lat="43.587" lon="3.18768">
        <ele>376.475134</ele>
        <time>2025-10-23T12:04:11Z</time>
      </trkpt>
      <trkpt lat="43.587" lon="3.18768">
        <ele>376.480651</ele>
        <time>2025-10-23T12:04:12Z</time>
      </trkpt>
      <trkpt lat="43.587" lon="3.18768">
        <ele>376.486167</ele>
        <time>2025-10-23T12:04:13Z</time>
      </trkpt>
      <trkpt lat="43.587" lon="3.18768">
        <ele>376.486167</ele>
        <time>2025-10-23T12:04:15Z</time>
      </trkpt>
      <trkpt lat="43.587" lon="3.18768">
        <ele>376.486167</ele>
        <time>2025-10-23T12:04:16Z</time>
      </trkpt>
      <trkpt lat="43.587" lon="3.18768">
        <ele>376.486167</ele>
        <time>2025-10-23T12:04:17Z</time>
      </trkpt>
      <trkpt lat="43.587" lon="3.18768">
        <ele>376.491683</ele>
        <time>2025-10-23T12:04:18Z</time>
      </trkpt>
      <trkpt lat="43.587" lon="3.18768">
        <ele>376.491683</ele>
        <time>2025-10-23T12:04:19Z</time>
      </trkpt>
      <trkpt lat="43.587" lon="3.18768">
        <ele>376.491683</ele>
        <time>2025-10-23T12:04:20Z</time>
      </trkpt>
      <trkpt lat="43.587" lon="3.18768">
        <ele>376.491683</ele>
        <time>2025-10-23T12:04:22Z</time>
      </trkpt>
      <trkpt lat="43.587" lon="3.18768">
        <ele>376.491683</ele>
        <time>2025-10-23T12:04:23Z</time>
      </trkpt>
      <trkpt lat="43.587" lon="3.18768">
        <ele>376.491683</ele>
        <time>2025-10-23T12:04:24Z</time>
      </trkpt>
      <trkpt lat="43.587" lon="3.18768">
        <ele>376.491683</ele>
        <time>2025-10-23T12:04:25Z</time>
      </trkpt>
      <trkpt lat="43.587" lon="3.18768">
        <ele>376.491683</ele>
        <time>2025-10-23T12:04:26Z</time>
      </trkpt>
      <trkpt lat="43.587" lon="3.18768">
        <ele>376.491683</ele>
        <time>2025-10-23T12:04:27Z</time>
      </trkpt>
      <trkpt lat="43.587" lon="3.18768">
        <ele>376.491683</ele>
        <time>2025-10-23T12:04:28Z</time>
      </trkpt>
      <trkpt lat="43.587" lon="3.18768">
        <ele>376.491683</ele>
        <time>2025-10-23T12:04:29Z</time>
      </trkpt>
      <trkpt lat="43.587" lon="3.18768">
        <ele>376.491683</ele>
        <time>2025-10-23T12:04:30Z</time>
      </trkpt>
      <trkpt lat="43.587" lon="3.18768">
        <ele>376.491683</ele>
        <time>2025-10-23T12:04:32Z</time>
      </trkpt>
      <trkpt lat="43.587" lon="3.18768">
        <ele>376.491683</ele>
        <time>2025-10-23T12:04:33Z</time>
      </trkpt>
      <trkpt lat="43.587" lon="3.18768">
        <ele>376.491683</ele>
        <time>2025-10-23T12:04:34Z</time>
      </trkpt>
      <trkpt lat="43.587" lon="3.18768">
        <ele>376.491683</ele>
        <time>2025-10-23T12:04:35Z</time>
      </trkpt>
      <trkpt lat="43.587" lon="3.18768">
        <ele>376.491683</ele>
        <time>2025-10-23T12:04:36Z</time>
      </trkpt>
      <trkpt lat="43.587" lon="3.18768">
        <ele>376.491683</ele>
        <time>2025-10-23T12:04:37Z</time>
      </trkpt>
      <trkpt lat="43.587" lon="3.18768">
        <ele>376.491683</ele>
        <time>2025-10-23T12:04:38Z</time>
      </trkpt>
      <trkpt lat="43.587" lon="3.18768">
        <ele>376.491683</ele>
        <time>2025-10-23T12:04:39Z</time>
      </trkpt>
      <trkpt lat="43.587" lon="3.18768">
        <ele>376.491683</ele>
        <time>2025-10-23T12:04:41Z</time>
      </trkpt>
      <trkpt lat="43.587" lon="3.18768">
        <ele>376.491683</ele>
        <time>2025-10-23T12:04:42Z</time>
      </trkpt>
      <trkpt lat="43.587" lon="3.18768">
        <ele>376.491683</ele>
        <time>2025-10-23T12:04:43Z</time>
      </trkpt>
      <trkpt lat="43.587" lon="3.18768">
        <ele>376.491683</ele>
        <time>2025-10-23T12:04:44Z</time>
      </trkpt>
      <trkpt lat="43.587" lon="3.18768">
        <ele>376.491683</ele>
        <time>2025-10-23T12:04:45Z</time>
      </trkpt>
      <trkpt lat="43.587" lon="3.18768">
        <ele>376.491683</ele>
        <time>2025-10-23T12:04:46Z</time>
      </trkpt>
      <trkpt lat="43.587" lon="3.18768">
        <ele>376.491683</ele>
        <time>2025-10-23T12:04:47Z</time>
      </trkpt>
      <trkpt lat="43.587" lon="3.18768">
        <ele>376.491683</ele>
        <time>2025-10-23T12:04:48Z</time>
      </trkpt>
      <trkpt lat="43.587" lon="3.18768">
        <ele>376.491683</ele>
        <time>2025-10-23T12:04:49Z</time>
      </trkpt>
      <trkpt lat="43.587" lon="3.18768">
        <ele>376.491683</ele>
        <time>2025-10-23T12:04:50Z</time>
      </trkpt>
      <trkpt lat="43.587" lon="3.18768">
        <ele>376.491683</ele>
        <time>2025-10-23T12:04:51Z</time>
      </trkpt>
      <trkpt lat="43.587" lon="3.18768">
        <ele>376.491683</ele>
        <time>2025-10-23T12:04:52Z</time>
      </trkpt>
      <trkpt lat="43.587" lon="3.18768">
        <ele>376.495679</ele>
        <time>2025-10-23T12:04:53Z</time>
      </trkpt>
      <trkpt lat="43.587" lon="3.18768">
        <ele>376.501195</ele>
        <time>2025-10-23T12:04:55Z</time>
      </trkpt>
      <trkpt lat="43.587" lon="3.18768">
        <ele>376.506712</ele>
        <time>2025-10-23T12:04:56Z</time>
      </trkpt>
      <trkpt lat="43.587" lon="3.18768">
        <ele>376.512228</ele>
        <time>2025-10-23T12:04:57Z</time>
      </trkpt>
      <trkpt lat="43.587" lon="3.18768">
        <ele>376.516224</ele>
        <time>2025-10-23T12:04:58Z</time>
      </trkpt>
      <trkpt lat="43.587" lon="3.18768">
        <ele>376.516224</ele>
        <time>2025-10-23T12:04:59Z</time>
      </trkpt>
      <trkpt lat="43.587" lon="3.18768">
        <ele>376.52174</ele>
        <time>2025-10-23T12:05:00Z</time>
      </trkpt>
      <trkpt lat="43.587" lon="3.18768">
        <ele>376.52174</ele>
        <time>2025-10-23T12:05:01Z</time>
      </trkpt>
      <trkpt lat="43.587" lon="3.18768">
        <ele>376.52174</ele>
        <time>2025-10-23T12:05:03Z</time>
      </trkpt>
      <trkpt lat="43.587" lon="3.18768">
        <ele>376.52174</ele>
        <time>2025-10-23T12:05:04Z</time>
      </trkpt>
      <trkpt lat="43.587" lon="3.18768">
        <ele>376.52174</ele>
        <time>2025-10-23T12:05:05Z</time>
      </trkpt>
      <trkpt lat="43.587" lon="3.18768">
        <ele>376.52174</ele>
        <time>2025-10-23T12:05:06Z</time>
      </trkpt>
      <trkpt lat="43.587" lon="3.18768">
        <ele>376.52174</ele>
        <time>2025-10-23T12:05:07Z</time>
      </trkpt>
      <trkpt lat="43.587" lon="3.18768">
        <ele>376.527256</ele>
        <time>2025-10-23T12:05:08Z</time>
      </trkpt>
      <trkpt lat="43.587" lon="3.18768">
        <ele>376.527256</ele>
        <time>2025-10-23T12:05:09Z</time>
      </trkpt>
      <trkpt lat="43.587" lon="3.18768">
        <ele>376.527256</ele>
        <time>2025-10-23T12:05:10Z</time>
      </trkpt>
      <trkpt lat="43.587" lon="3.18768">
        <ele>376.527256</ele>
        <time>2025-10-23T12:05:11Z</time>
      </trkpt>
      <trkpt lat="43.587" lon="3.18768">
        <ele>376.527256</ele>
        <time>2025-10-23T12:05:13Z</time>
      </trkpt>
      <trkpt lat="43.587" lon="3.18768">
        <ele>376.527256</ele>
        <time>2025-10-23T12:05:15Z</time>
      </trkpt>
      <trkpt lat="43.587" lon="3.18768">
        <ele>376.527256</ele>
        <time>2025-10-23T12:05:16Z</time>
      </trkpt>
      <trkpt lat="43.587" lon="3.18768">
        <ele>376.527256</ele>
        <time>2025-10-23T12:05:17Z</time>
      </trkpt>
      <trkpt lat="43.587" lon="3.18768">
        <ele>376.527256</ele>
        <time>2025-10-23T12:05:18Z</time>
      </trkpt>
      <trkpt lat="43.587" lon="3.18768">
        <ele>376.527256</ele>
        <time>2025-10-23T12:05:19Z</time>
      </trkpt>
      <trkpt lat="43.587" lon="3.18768">
        <ele>376.532773</ele>
        <time>2025-10-23T12:05:20Z</time>
      </trkpt>
      <trkpt lat="43.587" lon="3.18768">
        <ele>376.532773</ele>
        <time>2025-10-23T12:05:21Z</time>
      </trkpt>
      <trkpt lat="43.587" lon="3.18768">
        <ele>376.532773</ele>
        <time>2025-10-23T12:05:22Z</time>
      </trkpt>
      <trkpt lat="43.587" lon="3.18768">
        <ele>376.532773</ele>
        <time>2025-10-23T12:05:23Z</time>
      </trkpt>
      <trkpt lat="43.587" lon="3.18768">
        <ele>376.532773</ele>
        <time>2025-10-23T12:05:24Z</time>
      </trkpt>
      <trkpt lat="43.587" lon="3.18768">
        <ele>376.532773</ele>
        <time>2025-10-23T12:05:25Z</time>
      </trkpt>
      <trkpt lat="43.587" lon="3.18768">
        <ele>376.532773</ele>
        <time>2025-10-23T12:05:26Z</time>
      </trkpt>
      <trkpt lat="43.587" lon="3.18768">
        <ele>376.532773</ele>
        <time>2025-10-23T12:05:27Z</time>
      </trkpt>
      <trkpt lat="43.587" lon="3.18768">
        <ele>376.532773</ele>
        <time>2025-10-23T12:05:28Z</time>
      </trkpt>
      <trkpt lat="43.587" lon="3.18768">
        <ele>376.532773</ele>
        <time>2025-10-23T12:05:29Z</time>
      </trkpt>
      <trkpt lat="43.587" lon="3.18768">
        <ele>376.538289</ele>
        <time>2025-10-23T12:05:30Z</time>
      </trkpt>
      <trkpt lat="43.587" lon="3.18768">
        <ele>376.543806</ele>
        <time>2025-10-23T12:05:31Z</time>
      </trkpt>
      <trkpt lat="43.587" lon="3.18768">
        <ele>376.549322</ele>
        <time>2025-10-23T12:05:32Z</time>
      </trkpt>
      <trkpt lat="43.587" lon="3.18768">
        <ele>376.549322</ele>
        <time>2025-10-23T12:05:33Z</time>
      </trkpt>
      <trkpt lat="43.587" lon="3.18768">
        <ele>376.549322</ele>
        <time>2025-10-23T12:05:34Z</time>
      </trkpt>
      <trkpt lat="43.587" lon="3.18768">
        <ele>376.549322</ele>
        <time>2025-10-23T12:05:35Z</time>
      </trkpt>
      <trkpt lat="43.587" lon="3.18768">
        <ele>376.553317</ele>
        <time>2025-10-23T12:05:36Z</time>
      </trkpt>
      <trkpt lat="43.587" lon="3.18768">
        <ele>376.553317</ele>
        <time>2025-10-23T12:05:38Z</time>
      </trkpt>
      <trkpt lat="43.587" lon="3.18768">
        <ele>376.553317</ele>
        <time>2025-10-23T12:05:39Z</time>
      </trkpt>
      <trkpt lat="43.587" lon="3.18768">
        <ele>376.553317</ele>
        <time>2025-10-23T12:05:40Z</time>
      </trkpt>
      <trkpt lat="43.587" lon="3.18768">
        <ele>376.561309</ele>
        <time>2025-10-23T12:05:41Z</time>
      </trkpt>
      <trkpt lat="43.587" lon="3.18767">
        <ele>376.571019</ele>
        <time>2025-10-23T12:05:42Z</time>
      </trkpt>
      <trkpt lat="43.587" lon="3.18767">
        <ele>376.577831</ele>
        <time>2025-10-23T12:05:43Z</time>
      </trkpt>
      <trkpt lat="43.587" lon="3.18767">
        <ele>376.577831</ele>
        <time>2025-10-23T12:05:44Z</time>
      </trkpt>
      <trkpt lat="43.587" lon="3.18767">
        <ele>376.581826</ele>
        <time>2025-10-23T12:05:45Z</time>
      </trkpt>
      <trkpt lat="43.587" lon="3.18767">
        <ele>376.581826</ele>
        <time>2025-10-23T12:05:46Z</time>
      </trkpt>
      <trkpt lat="43.587" lon="3.18767">
        <ele>376.588638</ele>
        <time>2025-10-23T12:05:47Z</time>
      </trkpt>
      <trkpt lat="43.587" lon="3.18767">
        <ele>376.588638</ele>
        <time>2025-10-23T12:05:48Z</time>
      </trkpt>
      <trkpt lat="43.587" lon="3.18767">
        <ele>376.592633</ele>
        <time>2025-10-23T12:05:49Z</time>
      </trkpt>
      <trkpt lat="43.587" lon="3.18767">
        <ele>376.592633</ele>
        <time>2025-10-23T12:05:50Z</time>
      </trkpt>
      <trkpt lat="43.587" lon="3.18767">
        <ele>376.596629</ele>
        <time>2025-10-23T12:05:51Z</time>
      </trkpt>
      <trkpt lat="43.587" lon="3.18767">
        <ele>376.596629</ele>
        <time>2025-10-23T12:05:52Z</time>
      </trkpt>
      <trkpt lat="43.587" lon="3.18767">
        <ele>376.60344</ele>
        <time>2025-10-23T12:05:53Z</time>
      </trkpt>
      <trkpt lat="43.587" lon="3.18767">
        <ele>376.60344</ele>
        <time>2025-10-23T12:05:54Z</time>
      </trkpt>
      <trkpt lat="43.587" lon="3.18766">
        <ele>376.639435</ele>
        <time>2025-10-23T12:05:55Z</time>
      </trkpt>
      <trkpt lat="43.58699" lon="3.18765">
        <ele>376.681626</ele>
        <time>2025-10-23T12:05:56Z</time>
      </trkpt>
      <trkpt lat="43.58699" lon="3.18764">
        <ele>376.711693</ele>
        <time>2025-10-23T12:05:57Z</time>
      </trkpt>
      <trkpt lat="43.58699" lon="3.18764">
        <ele>376.74176</ele>
        <time>2025-10-23T12:05:58Z</time>
      </trkpt>
      <trkpt lat="43.58698" lon="3.18763">
        <ele>376.78395</ele>
        <time>2025-10-23T12:05:59Z</time>
      </trkpt>
      <trkpt lat="43.58698" lon="3.18762">
        <ele>376.832502</ele>
        <time>2025-10-23T12:06:00Z</time>
      </trkpt>
      <trkpt lat="43.58698" lon="3.18761">
        <ele>376.866318</ele>
        <time>2025-10-23T12:06:01Z</time>
      </trkpt>
      <trkpt lat="43.58697" lon="3.1876">
        <ele>376.905904</ele>
        <time>2025-10-23T12:06:02Z</time>
      </trkpt>
      <trkpt lat="43.58697" lon="3.18759">
        <ele>376.938402</ele>
        <time>2025-10-23T12:06:03Z</time>
      </trkpt>
      <trkpt lat="43.58697" lon="3.18759">
        <ele>376.949435</ele>
        <time>2025-10-23T12:06:04Z</time>
      </trkpt>
      <trkpt lat="43.58697" lon="3.18759">
        <ele>376.963058</ele>
        <time>2025-10-23T12:06:05Z</time>
      </trkpt>
      <trkpt lat="43.58697" lon="3.18759">
        <ele>376.967053</ele>
        <time>2025-10-23T12:06:06Z</time>
      </trkpt>
      <trkpt lat="43.58697" lon="3.18759">
        <ele>376.976764</ele>
        <time>2025-10-23T12:06:07Z</time>
      </trkpt>
      <trkpt lat="43.58697" lon="3.18759">
        <ele>376.98228</ele>
        <time>2025-10-23T12:06:08Z</time>
      </trkpt>
      <trkpt lat="43.58697" lon="3.18759">
        <ele>376.989091</ele>
        <time>2025-10-23T12:06:09Z</time>
      </trkpt>
      <trkpt lat="43.58697" lon="3.18759">
        <ele>376.995903</ele>
        <time>2025-10-23T12:06:10Z</time>
      </trkpt>
      <trkpt lat="43.58697" lon="3.18759">
        <ele>377.012194</ele>
        <time>2025-10-23T12:06:11Z</time>
      </trkpt>
      <trkpt lat="43.58697" lon="3.1876">
        <ele>377.036795</ele>
        <time>2025-10-23T12:06:12Z</time>
      </trkpt>
      <trkpt lat="43.58697" lon="3.18761">
        <ele>377.06876</ele>
        <time>2025-10-23T12:06:13Z</time>
      </trkpt>
      <trkpt lat="43.58697" lon="3.18762">
        <ele>377.105141</ele>
        <time>2025-10-23T12:06:14Z</time>
      </trkpt>
      <trkpt lat="43.58697" lon="3.18762">
        <ele>377.138957</ele>
        <time>2025-10-23T12:06:15Z</time>
      </trkpt>
      <trkpt lat="43.58697" lon="3.18763">
        <ele>377.148667</ele>
        <time>2025-10-23T12:06:16Z</time>
      </trkpt>
      <trkpt lat="43.58697" lon="3.18763">
        <ele>377.154183</ele>
        <time>2025-10-23T12:06:17Z</time>
      </trkpt>
      <trkpt lat="43.58697" lon="3.18763">
        <ele>377.167806</ele>
        <time>2025-10-23T12:06:18Z</time>
      </trkpt>
      <trkpt lat="43.58698" lon="3.18763">
        <ele>377.177516</ele>
        <time>2025-10-23T12:06:19Z</time>
      </trkpt>
      <trkpt lat="43.58698" lon="3.18763">
        <ele>377.183033</ele>
        <time>2025-10-23T12:06:20Z</time>
      </trkpt>
      <trkpt lat="43.58698" lon="3.18763">
        <ele>377.189844</ele>
        <time>2025-10-23T12:06:21Z</time>
      </trkpt>
      <trkpt lat="43.58698" lon="3.18762">
        <ele>377.209265</ele>
        <time>2025-10-23T12:06:22Z</time>
      </trkpt>
      <trkpt lat="43.58697" lon="3.18762">
        <ele>377.236511</ele>
        <time>2025-10-23T12:06:23Z</time>
      </trkpt>
      <trkpt lat="43.58697" lon="3.18762">
        <ele>377.258935</ele>
        <time>2025-10-23T12:06:24Z</time>
      </trkpt>
      <trkpt lat="43.58696" lon="3.18762">
        <ele>377.281359</ele>
        <time>2025-10-23T12:06:25Z</time>
      </trkpt>
      <trkpt lat="43.58696" lon="3.18761">
        <ele>377.316561</ele>
        <time>2025-10-23T12:06:26Z</time>
      </trkpt>
      <trkpt lat="43.58695" lon="3.18761">
        <ele>377.34443</ele>
        <time>2025-10-23T12:06:27Z</time>
      </trkpt>
      <trkpt lat="43.58695" lon="3.18761">
        <ele>377.379632</ele>
        <time>2025-10-23T12:06:28Z</time>
      </trkpt>
      <trkpt lat="43.58694" lon="3.18761">
        <ele>377.406878</ele>
        <time>2025-10-23T12:06:29Z</time>
      </trkpt>
      <trkpt lat="43.58694" lon="3.18761">
        <ele>377.430346</ele>
        <time>2025-10-23T12:06:30Z</time>
      </trkpt>
      <trkpt lat="43.58694" lon="3.18762">
        <ele>377.44737</ele>
        <time>2025-10-23T12:06:31Z</time>
      </trkpt>
      <trkpt lat="43.58693" lon="3.18762">
        <ele>377.459104</ele>
        <time>2025-10-23T12:06:32Z</time>
      </trkpt>
      <trkpt lat="43.58693" lon="3.18762">
        <ele>377.476012</ele>
        <time>2025-10-23T12:06:33Z</time>
      </trkpt>
      <trkpt lat="43.58694" lon="3.18762">
        <ele>377.499019</ele>
        <time>2025-10-23T12:06:34Z</time>
      </trkpt>
      <trkpt lat="43.58694" lon="3.18763">
        <ele>377.52413</ele>
        <time>2025-10-23T12:06:35Z</time>
      </trkpt>
      <trkpt lat="43.58695" lon="3.18763">
        <ele>377.551375</ele>
        <time>2025-10-23T12:06:36Z</time>
      </trkpt>
      <trkpt lat="43.58695" lon="3.18763">
        <ele>377.576487</ele>
        <time>2025-10-23T12:06:37Z</time>
      </trkpt>
      <trkpt lat="43.58696" lon="3.18764">
        <ele>377.609825</ele>
        <time>2025-10-23T12:06:38Z</time>
      </trkpt>
      <trkpt lat="43.58696" lon="3.18765">
        <ele>377.658377</ele>
        <time>2025-10-23T12:06:39Z</time>
      </trkpt>
      <trkpt lat="43.58697" lon="3.18765">
        <ele>377.710624</ele>
        <time>2025-10-23T12:06:40Z</time>
      </trkpt>
      <trkpt lat="43.58697" lon="3.18765">
        <ele>377.724247</ele>
        <time>2025-10-23T12:06:41Z</time>
      </trkpt>
      <trkpt lat="43.58697" lon="3.18766">
        <ele>377.741272</ele>
        <time>2025-10-23T12:06:42Z</time>
      </trkpt>
      <trkpt lat="43.58698" lon="3.18765">
        <ele>377.785583</ele>
        <time>2025-10-23T12:06:43Z</time>
      </trkpt>
      <trkpt lat="43.58698" lon="3.18765">
        <ele>377.802607</ele>
        <time>2025-10-23T12:06:44Z</time>
      </trkpt>
      <trkpt lat="43.58699" lon="3.18765">
        <ele>377.824673</ele>
        <time>2025-10-23T12:06:45Z</time>
      </trkpt>
      <trkpt lat="43.58699" lon="3.18765">
        <ele>377.828668</ele>
        <time>2025-10-23T12:06:46Z</time>
      </trkpt>
      <trkpt lat="43.58699" lon="3.18765">
        <ele>377.842291</ele>
        <time>2025-10-23T12:06:47Z</time>
      </trkpt>
      <trkpt lat="43.58698" lon="3.18765">
        <ele>377.85884</ele>
        <time>2025-10-23T12:06:48Z</time>
      </trkpt>
      <trkpt lat="43.58698" lon="3.18766">
        <ele>377.866832</ele>
        <time>2025-10-23T12:06:49Z</time>
      </trkpt>
      <trkpt lat="43.58698" lon="3.18766">
        <ele>377.883856</ele>
        <time>2025-10-23T12:06:50Z</time>
      </trkpt>
      <trkpt lat="43.58698" lon="3.18765">
        <ele>377.900881</ele>
        <time>2025-10-23T12:06:51Z</time>
      </trkpt>
      <trkpt lat="43.58698" lon="3.18765">
        <ele>377.917172</ele>
        <time>2025-10-23T12:06:52Z</time>
      </trkpt>
      <trkpt lat="43.58697" lon="3.18765">
        <ele>377.93408</ele>
        <time>2025-10-23T12:06:53Z</time>
      </trkpt>
      <trkpt lat="43.58697" lon="3.18764">
        <ele>377.954514</ele>
        <time>2025-10-23T12:06:54Z</time>
      </trkpt>
      <trkpt lat="43.58697" lon="3.18764">
        <ele>377.977982</ele>
        <time>2025-10-23T12:06:55Z</time>
      </trkpt>
      <trkpt lat="43.58696" lon="3.18764">
        <ele>377.994531</ele>
        <time>2025-10-23T12:06:56Z</time>
      </trkpt>
      <trkpt lat="43.58696" lon="3.18764">
        <ele>377.994531</ele>
        <time>2025-10-23T12:06:57Z</time>
      </trkpt>
      <trkpt lat="43.58696" lon="3.18765">
        <ele>378.044659</ele>
        <time>2025-10-23T12:06:58Z</time>
      </trkpt>
      <trkpt lat="43.58695" lon="3.18766">
        <ele>378.106223</ele>
        <time>2025-10-23T12:06:59Z</time>
      </trkpt>
      <trkpt lat="43.58694" lon="3.18767">
        <ele>378.156351</ele>
        <time>2025-10-23T12:07:00Z</time>
      </trkpt>
      <trkpt lat="43.58694" lon="3.18768">
        <ele>378.188933</ele>
        <time>2025-10-23T12:07:01Z</time>
      </trkpt>
      <trkpt lat="43.58694" lon="3.18768">
        <ele>378.208354</ele>
        <time>2025-10-23T12:07:02Z</time>
      </trkpt>
      <trkpt lat="43.58694" lon="3.18768">
        <ele>378.221977</ele>
        <time>2025-10-23T12:07:03Z</time>
      </trkpt>
      <trkpt lat="43.58693" lon="3.18768">
        <ele>378.231687</ele>
        <time>2025-10-23T12:07:04Z</time>
      </trkpt>
      <trkpt lat="43.58694" lon="3.18768">
        <ele>378.248595</ele>
        <time>2025-10-23T12:07:05Z</time>
      </trkpt>
      <trkpt lat="43.58694" lon="3.18768">
        <ele>378.248595</ele>
        <time>2025-10-23T12:07:06Z</time>
      </trkpt>
      <trkpt lat="43.58694" lon="3.18769">
        <ele>378.260329</ele>
        <time>2025-10-23T12:07:07Z</time>
      </trkpt>
      <trkpt lat="43.58694" lon="3.18769">
        <ele>378.265845</ele>
        <time>2025-10-23T12:07:08Z</time>
      </trkpt>
      <trkpt lat="43.58693" lon="3.18769">
        <ele>378.295611</ele>
        <time>2025-10-23T12:07:09Z</time>
      </trkpt>
      <trkpt lat="43.58693" lon="3.1877">
        <ele>378.357895</ele>
        <time>2025-10-23T12:07:10Z</time>
      </trkpt>
      <trkpt lat="43.58691" lon="3.18771">
        <ele>378.442038</ele>
        <time>2025-10-23T12:07:11Z</time>
      </trkpt>
      <trkpt lat="43.5869" lon="3.18772">
        <ele>378.526313</ele>
        <time>2025-10-23T12:07:12Z</time>
      </trkpt>
      <trkpt lat="43.58688" lon="3.18772">
        <ele>378.620431</ele>
        <time>2025-10-23T12:07:13Z</time>
      </trkpt>
      <trkpt lat="43.58687" lon="3.18773">
        <ele>378.71189</ele>
        <time>2025-10-23T12:07:14Z</time>
      </trkpt>
      <trkpt lat="43.58685" lon="3.18773">
        <ele>378.796165</ele>
        <time>2025-10-23T12:07:15Z</time>
      </trkpt>
      <trkpt lat="43.58683" lon="3.18773">
        <ele>378.89618</ele>
        <time>2025-10-23T12:07:16Z</time>
      </trkpt>
      <trkpt lat="43.58682" lon="3.18774">
        <ele>378.989874</ele>
        <time>2025-10-23T12:07:17Z</time>
      </trkpt>
      <trkpt lat="43.5868" lon="3.18776">
        <ele>379.094369</ele>
        <time>2025-10-23T12:07:18Z</time>
      </trkpt>
      <trkpt lat="43.58679" lon="3.18777">
        <ele>379.192969</ele>
        <time>2025-10-23T12:07:19Z</time>
      </trkpt>
      <trkpt lat="43.58677" lon="3.18777">
        <ele>379.294253</ele>
        <time>2025-10-23T12:07:20Z</time>
      </trkpt>
      <trkpt lat="43.58675" lon="3.18779">
        <ele>379.385155</ele>
        <time>2025-10-23T12:07:21Z</time>
      </trkpt>
      <trkpt lat="43.58674" lon="3.1878">
        <ele>379.469298</ele>
        <time>2025-10-23T12:07:22Z</time>
      </trkpt>
      <trkpt lat="43.58673" lon="3.18781">
        <ele>379.546619</ele>
        <time>2025-10-23T12:07:23Z</time>
      </trkpt>
      <trkpt lat="43.58672" lon="3.18782">
        <ele>379.633286</ele>
        <time>2025-10-23T12:07:24Z</time>
      </trkpt>
      <trkpt lat="43.58671" lon="3.18783">
        <ele>379.699593</ele>
        <time>2025-10-23T12:07:25Z</time>
      </trkpt>
      <trkpt lat="43.5867" lon="3.18784">
        <ele>379.781685</ele>
        <time>2025-10-23T12:07:26Z</time>
      </trkpt>
      <trkpt lat="43.58668" lon="3.18786">
        <ele>379.863422</ele>
        <time>2025-10-23T12:07:27Z</time>
      </trkpt>
      <trkpt lat="43.58667" lon="3.18787">
        <ele>379.933955</ele>
        <time>2025-10-23T12:07:28Z</time>
      </trkpt>
      <trkpt lat="43.58666" lon="3.18788">
        <ele>379.99771</ele>
        <time>2025-10-23T12:07:29Z</time>
      </trkpt>
      <trkpt lat="43.58665" lon="3.18788">
        <ele>380.066295</ele>
        <time>2025-10-23T12:07:30Z</time>
      </trkpt>
      <trkpt lat="43.58664" lon="3.18789">
        <ele>380.125342</ele>
        <time>2025-10-23T12:07:31Z</time>
      </trkpt>
      <trkpt lat="43.58663" lon="3.1879">
        <ele>380.197996</ele>
        <time>2025-10-23T12:07:32Z</time>
      </trkpt>
      <trkpt lat="43.58662" lon="3.18791">
        <ele>380.28227</ele>
        <time>2025-10-23T12:07:33Z</time>
      </trkpt>
      <trkpt lat="43.58661" lon="3.18792">
        <ele>380.36638</ele>
        <time>2025-10-23T12:07:34Z</time>
      </trkpt>
      <trkpt lat="43.5866" lon="3.18793">
        <ele>380.447325</ele>
        <time>2025-10-23T12:07:35Z</time>
      </trkpt>
      <trkpt lat="43.58658" lon="3.18795">
        <ele>380.55189</ele>
        <time>2025-10-23T12:07:36Z</time>
      </trkpt>
      <trkpt lat="43.58657" lon="3.18796">
        <ele>380.644962</ele>
        <time>2025-10-23T12:07:37Z</time>
      </trkpt>
      <trkpt lat="43.58656" lon="3.18798">
        <ele>380.751839</ele>
        <time>2025-10-23T12:07:38Z</time>
      </trkpt>
      <trkpt lat="43.58655" lon="3.18799">
        <ele>380.804621</ele>
        <time>2025-10-23T12:07:39Z</time>
      </trkpt>
      <trkpt lat="43.58655" lon="3.188">
        <ele>380.833752</ele>
        <time>2025-10-23T12:07:40Z</time>
      </trkpt>
      <trkpt lat="43.58655" lon="3.188">
        <ele>380.845486</ele>
        <time>2025-10-23T12:07:41Z</time>
      </trkpt>
      <trkpt lat="43.58655" lon="3.188">
        <ele>380.849481</ele>
        <time>2025-10-23T12:07:42Z</time>
      </trkpt>
      <trkpt lat="43.58655" lon="3.188">
        <ele>380.849481</ele>
        <time>2025-10-23T12:07:43Z</time>
      </trkpt>
      <trkpt lat="43.58627" lon="3.18818">
        <ele>382.55499</ele>
        <time>2025-10-23T12:08:20Z</time>
      </trkpt>
      <trkpt lat="43.58625" lon="3.1882">
        <ele>382.68669</ele>
        <time>2025-10-23T12:08:21Z</time>
      </trkpt>
      <trkpt lat="43.58623" lon="3.18822">
        <ele>382.819003</ele>
        <time>2025-10-23T12:08:22Z</time>
      </trkpt>
      <trkpt lat="43.58621" lon="3.18823">
        <ele>382.945959</ele>
        <time>2025-10-23T12:08:23Z</time>
      </trkpt>
      <trkpt lat="43.58619" lon="3.18825">
        <ele>383.084569</ele>
        <time>2025-10-23T12:08:24Z</time>
      </trkpt>
      <trkpt lat="43.58617" lon="3.18827">
        <ele>383.236682</ele>
        <time>2025-10-23T12:08:25Z</time>
      </trkpt>
      <trkpt lat="43.58614" lon="3.18829">
        <ele>383.392219</ele>
        <time>2025-10-23T12:08:26Z</time>
      </trkpt>
      <trkpt lat="43.58612" lon="3.18831">
        <ele>383.535259</ele>
        <time>2025-10-23T12:08:27Z</time>
      </trkpt>
      <trkpt lat="43.5861" lon="3.18833">
        <ele>383.673301</ele>
        <time>2025-10-23T12:08:28Z</time>
      </trkpt>
      <trkpt lat="43.58608" lon="3.18836">
        <ele>383.823686</ele>
        <time>2025-10-23T12:08:29Z</time>
      </trkpt>
      <trkpt lat="43.58606" lon="3.18838">
        <ele>383.956301</ele>
        <time>2025-10-23T12:08:30Z</time>
      </trkpt>
      <trkpt lat="43.58605" lon="3.1884">
        <ele>384.086633</ele>
        <time>2025-10-23T12:08:31Z</time>
      </trkpt>
      <trkpt lat="43.58603" lon="3.18842">
        <ele>384.200673</ele>
        <time>2025-10-23T12:08:32Z</time>
      </trkpt>
      <trkpt lat="43.58601" lon="3.18844">
        <ele>384.328131</ele>
        <time>2025-10-23T12:08:33Z</time>
      </trkpt>
      <trkpt lat="43.586" lon="3.18846">
        <ele>384.448436</ele>
        <time>2025-10-23T12:08:34Z</time>
      </trkpt>
      <trkpt lat="43.58598" lon="3.18848">
        <ele>384.578437</ele>
        <time>2025-10-23T12:08:35Z</time>
      </trkpt>
      <trkpt lat="43.58596" lon="3.1885">
        <ele>384.719502</ele>
        <time>2025-10-23T12:08:36Z</time>
      </trkpt>
      <trkpt lat="43.58594" lon="3.18852">
        <ele>384.838567</ele>
        <time>2025-10-23T12:08:37Z</time>
      </trkpt>
      <trkpt lat="43.58593" lon="3.18854">
        <ele>384.94755</ele>
        <time>2025-10-23T12:08:38Z</time>
      </trkpt>
      <trkpt lat="43.58591" lon="3.18856">
        <ele>385.054923</ele>
        <time>2025-10-23T12:08:39Z</time>
      </trkpt>
      <trkpt lat="43.58589" lon="3.18858">
        <ele>385.182038</ele>
        <time>2025-10-23T12:08:40Z</time>
      </trkpt>
      <trkpt lat="43.58588" lon="3.1886">
        <ele>385.251314</ele>
        <time>2025-10-23T12:08:41Z</time>
      </trkpt>
      <trkpt lat="43.58586" lon="3.18862">
        <ele>385.246212</ele>
        <time>2025-10-23T12:08:42Z</time>
      </trkpt>
      <trkpt lat="43.58584" lon="3.18864">
        <ele>385.240758</ele>
        <time>2025-10-23T12:08:43Z</time>
      </trkpt>
      <trkpt lat="43.58582" lon="3.18866">
        <ele>385.234172</ele>
        <time>2025-10-23T12:08:44Z</time>
      </trkpt>
      <trkpt lat="43.58579" lon="3.18868">
        <ele>385.227592</ele>
        <time>2025-10-23T12:08:45Z</time>
      </trkpt>
      <trkpt lat="43.58577" lon="3.18871">
        <ele>385.221469</ele>
        <time>2025-10-23T12:08:46Z</time>
      </trkpt>
      <trkpt lat="43.58575" lon="3.18873">
        <ele>385.215416</ele>
        <time>2025-10-23T12:08:47Z</time>
      </trkpt>
      <trkpt lat="43.58573" lon="3.18876">
        <ele>385.209081</ele>
        <time>2025-10-23T12:08:48Z</time>
      </trkpt>
      <trkpt lat="43.58571" lon="3.18878">
        <ele>385.202778</ele>
        <time>2025-10-23T12:08:49Z</time>
      </trkpt>
      <trkpt lat="43.58569" lon="3.1888">
        <ele>385.196725</ele>
        <time>2025-10-23T12:08:50Z</time>
      </trkpt>
      <trkpt lat="43.58567" lon="3.18883">
        <ele>385.19039</ele>
        <time>2025-10-23T12:08:51Z</time>
      </trkpt>
      <trkpt lat="43.58565" lon="3.18885">
        <ele>385.184508</ele>
        <time>2025-10-23T12:08:52Z</time>
      </trkpt>
      <trkpt lat="43.58563" lon="3.18887">
        <ele>385.178843</ele>
        <time>2025-10-23T12:08:53Z</time>
      </trkpt>
      <trkpt lat="43.58561" lon="3.1889">
        <ele>385.173632</ele>
        <time>2025-10-23T12:08:54Z</time>
      </trkpt>
      <trkpt lat="43.5856" lon="3.18891">
        <ele>385.16883</ele>
        <time>2025-10-23T12:08:55Z</time>
      </trkpt>
      <trkpt lat="43.58557" lon="3.18893">
        <ele>385.16287</ele>
        <time>2025-10-23T12:08:56Z</time>
      </trkpt>
      <trkpt lat="43.58555" lon="3.18896">
        <ele>385.156035</ele>
        <time>2025-10-23T12:08:57Z</time>
      </trkpt>
      <trkpt lat="43.58552" lon="3.18898">
        <ele>385.148327</ele>
        <time>2025-10-23T12:08:58Z</time>
      </trkpt>
      <trkpt lat="43.58549" lon="3.18901">
        <ele>385.140236</ele>
        <time>2025-10-23T12:08:59Z</time>
      </trkpt>
      <trkpt lat="43.58546" lon="3.18903">
        <ele>385.132426</ele>
        <time>2025-10-23T12:09:00Z</time>
      </trkpt>
      <trkpt lat="43.58544" lon="3.18906">
        <ele>385.124809</ele>
        <time>2025-10-23T12:09:01Z</time>
      </trkpt>
      <trkpt lat="43.58541" lon="3.18908">
        <ele>385.116971</ele>
        <time>2025-10-23T12:09:02Z</time>
      </trkpt>
      <trkpt lat="43.58538" lon="3.1891">
        <ele>385.109132</ele>
        <time>2025-10-23T12:09:03Z</time>
      </trkpt>
      <trkpt lat="43.58534" lon="3.18913">
        <ele>385.100846</ele>
        <time>2025-10-23T12:09:04Z</time>
      </trkpt>
      <trkpt lat="43.58532" lon="3.18916">
        <ele>385.093106</ele>
        <time>2025-10-23T12:09:05Z</time>
      </trkpt>
      <trkpt lat="43.58529" lon="3.18919">
        <ele>385.085491</ele>
        <time>2025-10-23T12:09:06Z</time>
      </trkpt>
      <trkpt lat="43.58526" lon="3.18921">
        <ele>385.077875</ele>
        <time>2025-10-23T12:09:07Z</time>
      </trkpt>
      <trkpt lat="43.58523" lon="3.18924">
        <ele>385.069603</ele>
        <time>2025-10-23T12:09:08Z</time>
      </trkpt>
      <trkpt lat="43.5852" lon="3.18927">
        <ele>385.059911</ele>
        <time>2025-10-23T12:09:09Z</time>
      </trkpt>
      <trkpt lat="43.58516" lon="3.1893">
        <ele>385.050072</ele>
        <time>2025-10-23T12:09:10Z</time>
      </trkpt>
      <trkpt lat="43.58512" lon="3.18933">
        <ele>385.039624</ele>
        <time>2025-10-23T12:09:11Z</time>
      </trkpt>
      <trkpt lat="43.58507" lon="3.18935">
        <ele>385.029043</ele>
        <time>2025-10-23T12:09:12Z</time>
      </trkpt>
      <trkpt lat="43.58503" lon="3.18936">
        <ele>385.019045</ele>
        <time>2025-10-23T12:09:13Z</time>
      </trkpt>
      <trkpt lat="43.58499" lon="3.18938">
        <ele>385.008841</ele>
        <time>2025-10-23T12:09:14Z</time>
      </trkpt>
      <trkpt lat="43.58494" lon="3.1894">
        <ele>384.997562</ele>
        <time>2025-10-23T12:09:15Z</time>
      </trkpt>
      <trkpt lat="43.5849" lon="3.18942">
        <ele>384.986726</ele>
        <time>2025-10-23T12:09:16Z</time>
      </trkpt>
      <trkpt lat="43.58485" lon="3.18943">
        <ele>384.975386</ele>
        <time>2025-10-23T12:09:17Z</time>
      </trkpt>
      <trkpt lat="43.5848" lon="3.18942">
        <ele>384.963503</ele>
        <time>2025-10-23T12:09:18Z</time>
      </trkpt>
      <trkpt lat="43.58474" lon="3.18942">
        <ele>384.951168</ele>
        <time>2025-10-23T12:09:19Z</time>
      </trkpt>
      <trkpt lat="43.58469" lon="3.18942">
        <ele>384.939289</ele>
        <time>2025-10-23T12:09:20Z</time>
      </trkpt>
      <trkpt lat="43.58463" lon="3.18942">
        <ele>384.926716</ele>
        <time>2025-10-23T12:09:21Z</time>
      </trkpt>
      <trkpt lat="43.58458" lon="3.18942">
        <ele>384.91437</ele>
        <time>2025-10-23T12:09:22Z</time>
      </trkpt>
      <trkpt lat="43.58453" lon="3.18944">
        <ele>384.902328</ele>
        <time>2025-10-23T12:09:23Z</time>
      </trkpt>
      <trkpt lat="43.58448" lon="3.18945">
        <ele>384.890787</ele>
        <time>2025-10-23T12:09:24Z</time>
      </trkpt>
      <trkpt lat="43.58443" lon="3.18947">
        <ele>384.879285</ele>
        <time>2025-10-23T12:09:25Z</time>
      </trkpt>
      <trkpt lat="43.58438" lon="3.18948">
        <ele>384.868266</ele>
        <time>2025-10-23T12:09:26Z</time>
      </trkpt>
      <trkpt lat="43.58434" lon="3.1895">
        <ele>384.857283</ele>
        <time>2025-10-23T12:09:27Z</time>
      </trkpt>
      <trkpt lat="43.58429" lon="3.18951">
        <ele>384.846813</ele>
        <time>2025-10-23T12:09:28Z</time>
      </trkpt>
      <trkpt lat="43.58425" lon="3.18952">
        <ele>384.827667</ele>
        <time>2025-10-23T12:09:29Z</time>
      </trkpt>
      <trkpt lat="43.58421" lon="3.18953">
        <ele>384.802543</ele>
        <time>2025-10-23T12:09:30Z</time>
      </trkpt>
      <trkpt lat="43.58417" lon="3.18955">
        <ele>384.778319</ele>
        <time>2025-10-23T12:09:31Z</time>
      </trkpt>
      <trkpt lat="43.58413" lon="3.18956">
        <ele>384.753994</ele>
        <time>2025-10-23T12:09:32Z</time>
      </trkpt>
      <trkpt lat="43.58409" lon="3.18957">
        <ele>384.729096</ele>
        <time>2025-10-23T12:09:33Z</time>
      </trkpt>
      <trkpt lat="43.58405" lon="3.18959">
        <ele>384.704199</ele>
        <time>2025-10-23T12:09:34Z</time>
      </trkpt>
      <trkpt lat="43.584" lon="3.1896">
        <ele>384.679493</ele>
        <time>2025-10-23T12:09:35Z</time>
      </trkpt>
      <trkpt lat="43.58396" lon="3.18961">
        <ele>384.655167</ele>
        <time>2025-10-23T12:09:36Z</time>
      </trkpt>
      <trkpt lat="43.58392" lon="3.18963">
        <ele>384.627427</ele>
        <time>2025-10-23T12:09:37Z</time>
      </trkpt>
      <trkpt lat="43.58387" lon="3.18965">
        <ele>384.599565</ele>
        <time>2025-10-23T12:09:38Z</time>
      </trkpt>
      <trkpt lat="43.58383" lon="3.18966">
        <ele>384.574282</ele>
        <time>2025-10-23T12:09:39Z</time>
      </trkpt>
      <trkpt lat="43.58379" lon="3.18968">
        <ele>384.548092</ele>
        <time>2025-10-23T12:09:40Z</time>
      </trkpt>
      <trkpt lat="43.58374" lon="3.1897">
        <ele>384.520802</ele>
        <time>2025-10-23T12:09:41Z</time>
      </trkpt>
      <trkpt lat="43.5837" lon="3.18971">
        <ele>384.494364</ele>
        <time>2025-10-23T12:09:42Z</time>
      </trkpt>
      <trkpt lat="43.58366" lon="3.18971">
        <ele>384.467669</ele>
        <time>2025-10-23T12:09:43Z</time>
      </trkpt>
      <trkpt lat="43.58361" lon="3.18972">
        <ele>384.439053</ele>
        <time>2025-10-23T12:09:44Z</time>
      </trkpt>
      <trkpt lat="43.58356" lon="3.18973">
        <ele>384.411229</ele>
        <time>2025-10-23T12:09:45Z</time>
      </trkpt>
      <trkpt lat="43.58351" lon="3.18974">
        <ele>384.381677</ele>
        <time>2025-10-23T12:09:46Z</time>
      </trkpt>
      <trkpt lat="43.58346" lon="3.18975">
        <ele>384.352413</ele>
        <time>2025-10-23T12:09:47Z</time>
      </trkpt>
      <trkpt lat="43.58341" lon="3.18976">
        <ele>384.323401</ele>
        <time>2025-10-23T12:09:48Z</time>
      </trkpt>
      <trkpt lat="43.58337" lon="3.18977">
        <ele>384.294567</ele>
        <time>2025-10-23T12:09:49Z</time>
      </trkpt>
      <trkpt lat="43.58332" lon="3.18979">
        <ele>384.265231</ele>
        <time>2025-10-23T12:09:50Z</time>
      </trkpt>
      <trkpt lat="43.58327" lon="3.1898">
        <ele>384.237463</ele>
        <time>2025-10-23T12:09:51Z</time>
      </trkpt>
      <trkpt lat="43.58322" lon="3.18981">
        <ele>384.208908</ele>
        <time>2025-10-23T12:09:52Z</time>
      </trkpt>
      <trkpt lat="43.58318" lon="3.18983">
        <ele>384.181856</ele>
        <time>2025-10-23T12:09:53Z</time>
      </trkpt>
      <trkpt lat="43.58313" lon="3.18984">
        <ele>384.155569</ele>
        <time>2025-10-23T12:09:54Z</time>
      </trkpt>
      <trkpt lat="43.58309" lon="3.18984">
        <ele>384.131985</ele>
        <time>2025-10-23T12:09:55Z</time>
      </trkpt>
      <trkpt lat="43.58305" lon="3.18986">
        <ele>384.106185</ele>
        <time>2025-10-23T12:09:56Z</time>
      </trkpt>
      <trkpt lat="43.58301" lon="3.18987">
        <ele>384.079132</ele>
        <time>2025-10-23T12:09:57Z</time>
      </trkpt>
      <trkpt lat="43.58297" lon="3.18989">
        <ele>384.052245</ele>
        <time>2025-10-23T12:09:58Z</time>
      </trkpt>
      <trkpt lat="43.58291" lon="3.18991">
        <ele>384.020435</ele>
        <time>2025-10-23T12:09:59Z</time>
      </trkpt>
      <trkpt lat="43.58287" lon="3.18993">
        <ele>383.992991</ele>
        <time>2025-10-23T12:10:00Z</time>
      </trkpt>
      <trkpt lat="43.58282" lon="3.18995">
        <ele>383.965939</ele>
        <time>2025-10-23T12:10:01Z</time>
      </trkpt>
      <trkpt lat="43.58278" lon="3.18996">
        <ele>383.941141</ele>
        <time>2025-10-23T12:10:02Z</time>
      </trkpt>
      <trkpt lat="43.58275" lon="3.18997">
        <ele>383.919882</ele>
        <time>2025-10-23T12:10:03Z</time>
      </trkpt>
      <trkpt lat="43.58271" lon="3.18998">
        <ele>383.896328</ele>
        <time>2025-10-23T12:10:04Z</time>
      </trkpt>
      <trkpt lat="43.58267" lon="3.18999">
        <ele>383.873019</ele>
        <time>2025-10-23T12:10:05Z</time>
      </trkpt>
      <trkpt lat="43.58263" lon="3.19001">
        <ele>383.849264</ele>
        <time>2025-10-23T12:10:06Z</time>
      </trkpt>
      <trkpt lat="43.58259" lon="3.19002">
        <ele>383.824466</ele>
        <time>2025-10-23T12:10:07Z</time>
      </trkpt>
      <trkpt lat="43.58255" lon="3.19003">
        <ele>383.798027</ele>
        <time>2025-10-23T12:10:08Z</time>
      </trkpt>
      <trkpt lat="43.58251" lon="3.19004">
        <ele>383.775295</ele>
        <time>2025-10-23T12:10:09Z</time>
      </trkpt>
      <trkpt lat="43.58246" lon="3.19005">
        <ele>383.75577</ele>
        <time>2025-10-23T12:10:10Z</time>
      </trkpt>
      <trkpt lat="43.58243" lon="3.19006">
        <ele>383.738576</ele>
        <time>2025-10-23T12:10:11Z</time>
      </trkpt>
      <trkpt lat="43.5824" lon="3.19007">
        <ele>383.723849</ele>
        <time>2025-10-23T12:10:12Z</time>
      </trkpt>
      <trkpt lat="43.58237" lon="3.19008">
        <ele>383.709373</ele>
        <time>2025-10-23T12:10:13Z</time>
      </trkpt>
      <trkpt lat="43.58233" lon="3.19009">
        <ele>383.69311</ele>
        <time>2025-10-23T12:10:14Z</time>
      </trkpt>
      <trkpt lat="43.5823" lon="3.1901">
        <ele>383.675332</ele>
        <time>2025-10-23T12:10:15Z</time>
      </trkpt>
      <trkpt lat="43.58226" lon="3.19011">
        <ele>383.656628</ele>
        <time>2025-10-23T12:10:16Z</time>
      </trkpt>
      <trkpt lat="43.58222" lon="3.19012">
        <ele>383.638626</ele>
        <time>2025-10-23T12:10:17Z</time>
      </trkpt>
      <trkpt lat="43.58218" lon="3.19013">
        <ele>383.61871</ele>
        <time>2025-10-23T12:10:18Z</time>
      </trkpt>
      <trkpt lat="43.58214" lon="3.19015">
        <ele>383.599253</ele>
        <time>2025-10-23T12:10:19Z</time>
      </trkpt>
      <trkpt lat="43.5821" lon="3.19016">
        <ele>383.578879</ele>
        <time>2025-10-23T12:10:20Z</time>
      </trkpt>
      <trkpt lat="43.58206" lon="3.19018">
        <ele>383.559961</ele>
        <time>2025-10-23T12:10:21Z</time>
      </trkpt>
      <trkpt lat="43.58202" lon="3.19019">
        <ele>383.541581</ele>
        <time>2025-10-23T12:10:22Z</time>
      </trkpt>
      <trkpt lat="43.58198" lon="3.1902">
        <ele>383.521745</ele>
        <time>2025-10-23T12:10:23Z</time>
      </trkpt>
      <trkpt lat="43.58194" lon="3.19021">
        <ele>383.501797</ele>
        <time>2025-10-23T12:10:24Z</time>
      </trkpt>
      <trkpt lat="43.5819" lon="3.19021">
        <ele>383.48199</ele>
        <time>2025-10-23T12:10:25Z</time>
      </trkpt>
      <trkpt lat="43.58186" lon="3.19019">
        <ele>383.462532</ele>
        <time>2025-10-23T12:10:26Z</time>
      </trkpt>
      <trkpt lat="43.58181" lon="3.19017">
        <ele>383.441025</ele>
        <time>2025-10-23T12:10:27Z</time>
      </trkpt>
      <trkpt lat="43.58177" lon="3.19015">
        <ele>383.419073</ele>
        <time>2025-10-23T12:10:28Z</time>
      </trkpt>
      <trkpt lat="43.58172" lon="3.19014">
        <ele>383.39525</ele>
        <time>2025-10-23T12:10:29Z</time>
      </trkpt>
      <trkpt lat="43.58167" lon="3.19012">
        <ele>383.371655</ele>
        <time>2025-10-23T12:10:30Z</time>
      </trkpt>
      <trkpt lat="43.58162" lon="3.19011">
        <ele>383.347137</ele>
        <time>2025-10-23T12:10:31Z</time>
      </trkpt>
      <trkpt lat="43.58157" lon="3.1901">
        <ele>383.322032</ele>
        <time>2025-10-23T12:10:32Z</time>
      </trkpt>
      <trkpt lat="43.58152" lon="3.19009">
        <ele>383.298298</ele>
        <time>2025-10-23T12:10:33Z</time>
      </trkpt>
      <trkpt lat="43.58147" lon="3.19008">
        <ele>383.276224</ele>
        <time>2025-10-23T12:10:34Z</time>
      </trkpt>
      <trkpt lat="43.58143" lon="3.19007">
        <ele>383.255603</ele>
        <time>2025-10-23T12:10:35Z</time>
      </trkpt>
      <trkpt lat="43.58139" lon="3.19006">
        <ele>383.236123</ele>
        <time>2025-10-23T12:10:36Z</time>
      </trkpt>
      <trkpt lat="43.58135" lon="3.19005">
        <ele>383.217065</ele>
        <time>2025-10-23T12:10:37Z</time>
      </trkpt>
      <trkpt lat="43.58131" lon="3.19004">
        <ele>383.19823</ele>
        <time>2025-10-23T12:10:38Z</time>
      </trkpt>
      <trkpt lat="43.58127" lon="3.19002">
        <ele>383.177231</ele>
        <time>2025-10-23T12:10:39Z</time>
      </trkpt>
      <trkpt lat="43.58122" lon="3.19001">
        <ele>383.156082</ele>
        <time>2025-10-23T12:10:40Z</time>
      </trkpt>
      <trkpt lat="43.58118" lon="3.19">
        <ele>383.137622</ele>
        <time>2025-10-23T12:10:41Z</time>
      </trkpt>
      <trkpt lat="43.58115" lon="3.18998">
        <ele>383.11962</ele>
        <time>2025-10-23T12:10:42Z</time>
      </trkpt>
      <trkpt lat="43.58111" lon="3.18997">
        <ele>383.101239</ele>
        <time>2025-10-23T12:10:43Z</time>
      </trkpt>
      <trkpt lat="43.58107" lon="3.18996">
        <ele>383.083524</ele>
        <time>2025-10-23T12:10:44Z</time>
      </trkpt>
      <trkpt lat="43.58104" lon="3.18996">
        <ele>383.067781</ele>
        <time>2025-10-23T12:10:45Z</time>
      </trkpt>
      <trkpt lat="43.58101" lon="3.18995">
        <ele>383.05185</ele>
        <time>2025-10-23T12:10:46Z</time>
      </trkpt>
      <trkpt lat="43.58097" lon="3.18994">
        <ele>383.035989</ele>
        <time>2025-10-23T12:10:47Z</time>
      </trkpt>
      <trkpt lat="43.58094" lon="3.18992">
        <ele>383.018899</ele>
        <time>2025-10-23T12:10:48Z</time>
      </trkpt>
      <trkpt lat="43.58091" lon="3.1899">
        <ele>383.001905</ele>
        <time>2025-10-23T12:10:49Z</time>
      </trkpt>
      <trkpt lat="43.58087" lon="3.18988">
        <ele>382.98404</ele>
        <time>2025-10-23T12:10:50Z</time>
      </trkpt>
      <trkpt lat="43.58084" lon="3.18985">
        <ele>382.966771</ele>
        <time>2025-10-23T12:10:51Z</time>
      </trkpt>
      <trkpt lat="43.58081" lon="3.18982">
        <ele>382.948337</ele>
        <time>2025-10-23T12:10:52Z</time>
      </trkpt>
      <trkpt lat="43.58078" lon="3.18978">
        <ele>382.944199</ele>
        <time>2025-10-23T12:10:53Z</time>
      </trkpt>
      <trkpt lat="43.58073" lon="3.18976">
        <ele>382.980366</ele>
        <time>2025-10-23T12:10:54Z</time>
      </trkpt>
      <trkpt lat="43.58068" lon="3.18973">
        <ele>383.020412</ele>
        <time>2025-10-23T12:10:55Z</time>
      </trkpt>
      <trkpt lat="43.58063" lon="3.1897">
        <ele>383.061495</ele>
        <time>2025-10-23T12:10:56Z</time>
      </trkpt>
      <trkpt lat="43.58058" lon="3.18968">
        <ele>383.103644</ele>
        <time>2025-10-23T12:10:57Z</time>
      </trkpt>
      <trkpt lat="43.58052" lon="3.18966">
        <ele>383.146766</ele>
        <time>2025-10-23T12:10:58Z</time>
      </trkpt>
      <trkpt lat="43.58047" lon="3.18964">
        <ele>383.18961</ele>
        <time>2025-10-23T12:10:59Z</time>
      </trkpt>
      <trkpt lat="43.58041" lon="3.18962">
        <ele>383.231974</ele>
        <time>2025-10-23T12:11:00Z</time>
      </trkpt>
      <trkpt lat="43.58036" lon="3.18961">
        <ele>383.274339</ele>
        <time>2025-10-23T12:11:01Z</time>
      </trkpt>
      <trkpt lat="43.58031" lon="3.18959">
        <ele>383.313677</ele>
        <time>2025-10-23T12:11:02Z</time>
      </trkpt>
      <trkpt lat="43.58026" lon="3.18957">
        <ele>383.354468</ele>
        <time>2025-10-23T12:11:03Z</time>
      </trkpt>
      <trkpt lat="43.5802" lon="3.18955">
        <ele>383.396092</ele>
        <time>2025-10-23T12:11:04Z</time>
      </trkpt>
      <trkpt lat="43.58015" lon="3.18954">
        <ele>383.437339</ele>
        <time>2025-10-23T12:11:05Z</time>
      </trkpt>
      <trkpt lat="43.5801" lon="3.18952">
        <ele>383.478584</ele>
        <time>2025-10-23T12:11:06Z</time>
      </trkpt>
      <trkpt lat="43.58005" lon="3.18951">
        <ele>383.516761</ele>
        <time>2025-10-23T12:11:07Z</time>
      </trkpt>
      <trkpt lat="43.58" lon="3.1895">
        <ele>383.554191</ele>
        <time>2025-10-23T12:11:08Z</time>
      </trkpt>
      <trkpt lat="43.57995" lon="3.1895">
        <ele>383.590665</ele>
        <time>2025-10-23T12:11:09Z</time>
      </trkpt>
      <trkpt lat="43.5799" lon="3.18949">
        <ele>383.6272</ele>
        <time>2025-10-23T12:11:10Z</time>
      </trkpt>
      <trkpt lat="43.57986" lon="3.18948">
        <ele>383.661315</ele>
        <time>2025-10-23T12:11:11Z</time>
      </trkpt>
      <trkpt lat="43.57982" lon="3.18948">
        <ele>383.689616</ele>
        <time>2025-10-23T12:11:12Z</time>
      </trkpt>
      <trkpt lat="43.57978" lon="3.18947">
        <ele>383.716115</ele>
        <time>2025-10-23T12:11:13Z</time>
      </trkpt>
      <trkpt lat="43.57975" lon="3.18947">
        <ele>383.73954</ele>
        <time>2025-10-23T12:11:14Z</time>
      </trkpt>
      <trkpt lat="43.57972" lon="3.18948">
        <ele>383.764573</ele>
        <time>2025-10-23T12:11:15Z</time>
      </trkpt>
      <trkpt lat="43.57969" lon="3.18947">
        <ele>383.791112</ele>
        <time>2025-10-23T12:11:16Z</time>
      </trkpt>
      <trkpt lat="43.57965" lon="3.18947">
        <ele>383.814544</ele>
        <time>2025-10-23T12:11:17Z</time>
      </trkpt>
      <trkpt lat="43.57962" lon="3.18947">
        <ele>383.83722</ele>
        <time>2025-10-23T12:11:18Z</time>
      </trkpt>
      <trkpt lat="43.5796" lon="3.18947">
        <ele>383.859244</ele>
        <time>2025-10-23T12:11:19Z</time>
      </trkpt>
      <trkpt lat="43.57957" lon="3.18946">
        <ele>383.881491</ele>
        <time>2025-10-23T12:11:20Z</time>
      </trkpt>
      <trkpt lat="43.57954" lon="3.18945">
        <ele>383.905093</ele>
        <time>2025-10-23T12:11:21Z</time>
      </trkpt>
      <trkpt lat="43.57951" lon="3.18945">
        <ele>383.921754</ele>
        <time>2025-10-23T12:11:22Z</time>
      </trkpt>
      <trkpt lat="43.5795" lon="3.18944">
        <ele>383.930138</ele>
        <time>2025-10-23T12:11:23Z</time>
      </trkpt>
      <trkpt lat="43.5795" lon="3.18944">
        <ele>383.935069</ele>
        <time>2025-10-23T12:11:24Z</time>
      </trkpt>
      <trkpt lat="43.5795" lon="3.18944">
        <ele>383.935069</ele>
        <time>2025-10-23T12:11:25Z</time>
      </trkpt>
      <trkpt lat="43.5795" lon="3.18944">
        <ele>383.937301</ele>
        <time>2025-10-23T12:11:26Z</time>
      </trkpt>
      <trkpt lat="43.5795" lon="3.18945">
        <ele>383.943913</ele>
        <time>2025-10-23T12:11:27Z</time>
      </trkpt>
      <trkpt lat="43.5795" lon="3.18945">
        <ele>383.946936</ele>
        <time>2025-10-23T12:11:28Z</time>
      </trkpt>
      <trkpt lat="43.5795" lon="3.18946">
        <ele>383.953005</ele>
        <time>2025-10-23T12:11:29Z</time>
      </trkpt>
      <trkpt lat="43.5795" lon="3.18947">
        <ele>383.956995</ele>
        <time>2025-10-23T12:11:30Z</time>
      </trkpt>
      <trkpt lat="43.57948" lon="3.18945">
        <ele>383.974863</ele>
        <time>2025-10-23T12:12:17Z</time>
      </trkpt>
      <trkpt lat="43.57948" lon="3.18945">
        <ele>383.974863</ele>
        <time>2025-10-23T12:12:18Z</time>
      </trkpt>
      <trkpt lat="43.57948" lon="3.18945">
        <ele>383.976193</ele>
        <time>2025-10-23T12:12:19Z</time>
      </trkpt>
      <trkpt lat="43.57948" lon="3.18945">
        <ele>383.977705</ele>
        <time>2025-10-23T12:12:20Z</time>
      </trkpt>
      <trkpt lat="43.57947" lon="3.18945">
        <ele>383.984585</ele>
        <time>2025-10-23T12:12:21Z</time>
      </trkpt>
      <trkpt lat="43.57946" lon="3.18944">
        <ele>383.98962</ele>
        <time>2025-10-23T12:12:22Z</time>
      </trkpt>
      <trkpt lat="43.57945" lon="3.18945">
        <ele>384.001585</ele>
        <time>2025-10-23T12:12:23Z</time>
      </trkpt>
      <trkpt lat="43.57943" lon="3.18945">
        <ele>384.015231</ele>
        <time>2025-10-23T12:12:24Z</time>
      </trkpt>
      <trkpt lat="43.57941" lon="3.18945">
        <ele>384.029599</ele>
        <time>2025-10-23T12:12:25Z</time>
      </trkpt>
      <trkpt lat="43.57939" lon="3.18945">
        <ele>384.047768</ele>
        <time>2025-10-23T12:12:26Z</time>
      </trkpt>
      <trkpt lat="43.57936" lon="3.18945">
        <ele>384.064401</ele>
        <time>2025-10-23T12:12:27Z</time>
      </trkpt>
      <trkpt lat="43.57934" lon="3.18945">
        <ele>384.083364</ele>
        <time>2025-10-23T12:12:28Z</time>
      </trkpt>
      <trkpt lat="43.57931" lon="3.18945">
        <ele>384.103133</ele>
        <time>2025-10-23T12:12:29Z</time>
      </trkpt>
      <trkpt lat="43.57929" lon="3.18945">
        <ele>384.121269</ele>
        <time>2025-10-23T12:12:30Z</time>
      </trkpt>
      <trkpt lat="43.57928" lon="3.18945">
        <ele>384.129742</ele>
        <time>2025-10-23T12:12:31Z</time>
      </trkpt>
      <trkpt lat="43.57928" lon="3.18945">
        <ele>384.131974</ele>
        <time>2025-10-23T12:12:32Z</time>
      </trkpt>
      <trkpt lat="43.57928" lon="3.18945">
        <ele>384.134634</ele>
        <time>2025-10-23T12:12:33Z</time>
      </trkpt>
      <trkpt lat="43.57928" lon="3.18945">
        <ele>384.137371</ele>
        <time>2025-10-23T12:12:34Z</time>
      </trkpt>
      <trkpt lat="43.57928" lon="3.18944">
        <ele>384.139179</ele>
        <time>2025-10-23T12:12:35Z</time>
      </trkpt>
      <trkpt lat="43.57928" lon="3.18944">
        <ele>384.144778</ele>
        <time>2025-10-23T12:12:36Z</time>
      </trkpt>
      <trkpt lat="43.57929" lon="3.18944">
        <ele>384.148769</ele>
        <time>2025-10-23T12:12:37Z</time>
      </trkpt>
      <trkpt lat="43.57929" lon="3.18944">
        <ele>384.154171</ele>
        <time>2025-10-23T12:12:38Z</time>
      </trkpt>
      <trkpt lat="43.5793" lon="3.18944">
        <ele>384.159488</ele>
        <time>2025-10-23T12:12:39Z</time>
      </trkpt>
      <trkpt lat="43.57931" lon="3.18945">
        <ele>384.166377</ele>
        <time>2025-10-23T12:12:40Z</time>
      </trkpt>
      <trkpt lat="43.57932" lon="3.18945">
        <ele>384.17485</ele>
        <time>2025-10-23T12:12:41Z</time>
      </trkpt>
      <trkpt lat="43.57933" lon="3.18945">
        <ele>384.184065</ele>
        <time>2025-10-23T12:12:42Z</time>
      </trkpt>
      <trkpt lat="43.57935" lon="3.18946">
        <ele>384.19391</ele>
        <time>2025-10-23T12:12:43Z</time>
      </trkpt>
      <trkpt lat="43.57935" lon="3.18946">
        <ele>384.198732</ele>
        <time>2025-10-23T12:12:44Z</time>
      </trkpt>
      <trkpt lat="43.57936" lon="3.18946">
        <ele>384.201947</ele>
        <time>2025-10-23T12:12:45Z</time>
      </trkpt>
      <trkpt lat="43.57936" lon="3.18946">
        <ele>384.207992</ele>
        <time>2025-10-23T12:12:46Z</time>
      </trkpt>
      <trkpt lat="43.57937" lon="3.18946">
        <ele>384.216376</ele>
        <time>2025-10-23T12:12:47Z</time>
      </trkpt>
      <trkpt lat="43.57939" lon="3.18946">
        <ele>384.226021</ele>
        <time>2025-10-23T12:12:48Z</time>
      </trkpt>
      <trkpt lat="43.57939" lon="3.18944">
        <ele>384.234013</ele>
        <time>2025-10-23T12:12:49Z</time>
      </trkpt>
      <trkpt lat="43.57939" lon="3.18945">
        <ele>384.238997</ele>
        <time>2025-10-23T12:12:50Z</time>
      </trkpt>
      <trkpt lat="43.57939" lon="3.18945">
        <ele>384.23993</ele>
        <time>2025-10-23T12:12:51Z</time>
      </trkpt>
      <trkpt lat="43.57939" lon="3.18945">
        <ele>384.240478</ele>
        <time>2025-10-23T12:12:52Z</time>
      </trkpt>
      <trkpt lat="43.57939" lon="3.18945">
        <ele>384.240478</ele>
        <time>2025-10-23T12:12:53Z</time>
      </trkpt>
      <trkpt lat="43.57939" lon="3.18945">
        <ele>384.241025</ele>
        <time>2025-10-23T12:12:54Z</time>
      </trkpt>
      <trkpt lat="43.57939" lon="3.18945">
        <ele>384.241025</ele>
        <time>2025-10-23T12:12:55Z</time>
      </trkpt>
      <trkpt lat="43.57939" lon="3.18945">
        <ele>384.242833</ele>
        <time>2025-10-23T12:12:56Z</time>
      </trkpt>
      <trkpt lat="43.57939" lon="3.18947">
        <ele>384.249782</ele>
        <time>2025-10-23T12:12:57Z</time>
      </trkpt>
      <trkpt lat="43.57939" lon="3.18948">
        <ele>384.254766</ele>
        <time>2025-10-23T12:12:58Z</time>
      </trkpt>
      <trkpt lat="43.57939" lon="3.18948">
        <ele>384.2557</ele>
        <time>2025-10-23T12:12:59Z</time>
      </trkpt>
      <trkpt lat="43.57939" lon="3.18948">
        <ele>384.2557</ele>
        <time>2025-10-23T12:13:00Z</time>
      </trkpt>
      <trkpt lat="43.57939" lon="3.18948">
        <ele>384.256455</ele>
        <time>2025-10-23T12:13:01Z</time>
      </trkpt>
      <trkpt lat="43.57939" lon="3.18948">
        <ele>384.256455</ele>
        <time>2025-10-23T12:13:02Z</time>
      </trkpt>
      <trkpt lat="43.57939" lon="3.18948">
        <ele>384.258722</ele>
        <time>2025-10-23T12:13:56Z</time>
      </trkpt>
      <trkpt lat="43.57939" lon="3.18948">
        <ele>384.259478</ele>
        <time>2025-10-23T12:13:57Z</time>
      </trkpt>
      <trkpt lat="43.57939" lon="3.18947">
        <ele>384.261794</ele>
        <time>2025-10-23T12:13:58Z</time>
      </trkpt>
      <trkpt lat="43.57937" lon="3.18946">
        <ele>384.27304</ele>
        <time>2025-10-23T12:13:59Z</time>
      </trkpt>
      <trkpt lat="43.57936" lon="3.18946">
        <ele>384.282685</ele>
        <time>2025-10-23T12:14:00Z</time>
      </trkpt>
      <trkpt lat="43.57936" lon="3.18946">
        <ele>384.286618</ele>
        <time>2025-10-23T12:14:01Z</time>
      </trkpt>
      <trkpt lat="43.57935" lon="3.18946">
        <ele>384.288935</ele>
        <time>2025-10-23T12:14:02Z</time>
      </trkpt>
      <trkpt lat="43.57935" lon="3.18946">
        <ele>384.290743</ele>
        <time>2025-10-23T12:14:03Z</time>
      </trkpt>
      <trkpt lat="43.57935" lon="3.18945">
        <ele>384.298347</ele>
        <time>2025-10-23T12:14:04Z</time>
      </trkpt>
      <trkpt lat="43.57934" lon="3.18944">
        <ele>384.307066</ele>
        <time>2025-10-23T12:14:05Z</time>
      </trkpt>
      <trkpt lat="43.57932" lon="3.18944">
        <ele>384.320178</ele>
        <time>2025-10-23T12:14:06Z</time>
      </trkpt>
      <trkpt lat="43.5793" lon="3.18944">
        <ele>384.33226</ele>
        <time>2025-10-23T12:14:07Z</time>
      </trkpt>
      <trkpt lat="43.57928" lon="3.18944">
        <ele>384.346635</ele>
        <time>2025-10-23T12:14:08Z</time>
      </trkpt>
      <trkpt lat="43.57926" lon="3.18944">
        <ele>384.364122</ele>
        <time>2025-10-23T12:14:09Z</time>
      </trkpt>
      <trkpt lat="43.57924" lon="3.18945">
        <ele>384.382627</ele>
        <time>2025-10-23T12:14:10Z</time>
      </trkpt>
      <trkpt lat="43.57921" lon="3.18945">
        <ele>384.400191</ele>
        <time>2025-10-23T12:14:11Z</time>
      </trkpt>
      <trkpt lat="43.57919" lon="3.18946">
        <ele>384.417576</ele>
        <time>2025-10-23T12:14:12Z</time>
      </trkpt>
      <trkpt lat="43.57916" lon="3.18945">
        <ele>384.43801</ele>
        <time>2025-10-23T12:14:13Z</time>
      </trkpt>
      <trkpt lat="43.57914" lon="3.18945">
        <ele>384.456319</ele>
        <time>2025-10-23T12:14:14Z</time>
      </trkpt>
      <trkpt lat="43.57911" lon="3.18945">
        <ele>384.475941</ele>
        <time>2025-10-23T12:14:15Z</time>
      </trkpt>
      <trkpt lat="43.57909" lon="3.18944">
        <ele>384.493975</ele>
        <time>2025-10-23T12:14:16Z</time>
      </trkpt>
      <trkpt lat="43.57907" lon="3.18943">
        <ele>384.514195</ele>
        <time>2025-10-23T12:14:17Z</time>
      </trkpt>
      <trkpt lat="43.57904" lon="3.18943">
        <ele>384.535431</ele>
        <time>2025-10-23T12:14:18Z</time>
      </trkpt>
      <trkpt lat="43.57901" lon="3.18942">
        <ele>384.556896</ele>
        <time>2025-10-23T12:14:19Z</time>
      </trkpt>
      <trkpt lat="43.57898" lon="3.18942">
        <ele>384.578882</ele>
        <time>2025-10-23T12:14:20Z</time>
      </trkpt>
      <trkpt lat="43.57895" lon="3.18941">
        <ele>384.601749</ele>
        <time>2025-10-23T12:14:21Z</time>
      </trkpt>
      <trkpt lat="43.57892" lon="3.1894">
        <ele>384.624701</ele>
        <time>2025-10-23T12:14:22Z</time>
      </trkpt>
      <trkpt lat="43.57889" lon="3.1894">
        <ele>384.649063</ele>
        <time>2025-10-23T12:14:23Z</time>
      </trkpt>
      <trkpt lat="43.57886" lon="3.18939">
        <ele>384.673504</ele>
        <time>2025-10-23T12:14:24Z</time>
      </trkpt>
      <trkpt lat="43.57882" lon="3.18938">
        <ele>384.698779</ele>
        <time>2025-10-23T12:14:25Z</time>
      </trkpt>
      <trkpt lat="43.57879" lon="3.18937">
        <ele>384.725636</ele>
        <time>2025-10-23T12:14:26Z</time>
      </trkpt>
      <trkpt lat="43.57875" lon="3.18937">
        <ele>384.753633</ele>
        <time>2025-10-23T12:14:27Z</time>
      </trkpt>
      <trkpt lat="43.57871" lon="3.18936">
        <ele>384.783985</ele>
        <time>2025-10-23T12:14:28Z</time>
      </trkpt>
      <trkpt lat="43.57867" lon="3.18935">
        <ele>384.813814</ele>
        <time>2025-10-23T12:14:29Z</time>
      </trkpt>
      <trkpt lat="43.57863" lon="3.18935">
        <ele>384.843482</ele>
        <time>2025-10-23T12:14:30Z</time>
      </trkpt>
      <trkpt lat="43.57859" lon="3.18934">
        <ele>384.873029</ele>
        <time>2025-10-23T12:14:31Z</time>
      </trkpt>
      <trkpt lat="43.57856" lon="3.18933">
        <ele>384.902211</ele>
        <time>2025-10-23T12:14:32Z</time>
      </trkpt>
      <trkpt lat="43.57852" lon="3.18932">
        <ele>384.931208</ele>
        <time>2025-10-23T12:14:33Z</time>
      </trkpt>
      <trkpt lat="43.57848" lon="3.18932">
        <ele>384.960129</ele>
        <time>2025-10-23T12:14:34Z</time>
      </trkpt>
      <trkpt lat="43.57844" lon="3.18931">
        <ele>384.989049</ele>
        <time>2025-10-23T12:14:35Z</time>
      </trkpt>
      <trkpt lat="43.5784" lon="3.1893">
        <ele>385.018717</ele>
        <time>2025-10-23T12:14:36Z</time>
      </trkpt>
      <trkpt lat="43.57837" lon="3.18929">
        <ele>385.047058</ele>
        <time>2025-10-23T12:14:37Z</time>
      </trkpt>
      <trkpt lat="43.57833" lon="3.18928">
        <ele>385.074657</ele>
        <time>2025-10-23T12:14:38Z</time>
      </trkpt>
      <trkpt lat="43.5783" lon="3.18928">
        <ele>385.100451</ele>
        <time>2025-10-23T12:14:39Z</time>
      </trkpt>
      <trkpt lat="43.57826" lon="3.18927">
        <ele>385.129448</ele>
        <time>2025-10-23T12:14:40Z</time>
      </trkpt>
      <trkpt lat="43.57822" lon="3.18926">
        <ele>385.159476</ele>
        <time>2025-10-23T12:14:41Z</time>
      </trkpt>
      <trkpt lat="43.57818" lon="3.18925">
        <ele>385.191211</ele>
        <time>2025-10-23T12:14:42Z</time>
      </trkpt>
      <trkpt lat="43.57814" lon="3.18924">
        <ele>385.222529</ele>
        <time>2025-10-23T12:14:43Z</time>
      </trkpt>
      <trkpt lat="43.5781" lon="3.18923">
        <ele>385.254777</ele>
        <time>2025-10-23T12:14:44Z</time>
      </trkpt>
      <trkpt lat="43.57805" lon="3.18921">
        <ele>385.286639</ele>
        <time>2025-10-23T12:14:45Z</time>
      </trkpt>
      <trkpt lat="43.57801" lon="3.1892">
        <ele>385.319109</ele>
        <time>2025-10-23T12:14:46Z</time>
      </trkpt>
      <trkpt lat="43.57797" lon="3.18919">
        <ele>385.352748</ele>
        <time>2025-10-23T12:14:47Z</time>
      </trkpt>
      <trkpt lat="43.57792" lon="3.18918">
        <ele>385.388543</ele>
        <time>2025-10-23T12:14:48Z</time>
      </trkpt>
      <trkpt lat="43.57787" lon="3.18917">
        <ele>385.426183</ele>
        <time>2025-10-23T12:14:49Z</time>
      </trkpt>
      <trkpt lat="43.57782" lon="3.18916">
        <ele>385.465042</ele>
        <time>2025-10-23T12:14:50Z</time>
      </trkpt>
      <trkpt lat="43.57777" lon="3.18915">
        <ele>385.503013</ele>
        <time>2025-10-23T12:14:51Z</time>
      </trkpt>
      <trkpt lat="43.57772" lon="3.18914">
        <ele>385.539404</ele>
        <time>2025-10-23T12:14:52Z</time>
      </trkpt>
      <trkpt lat="43.57768" lon="3.18912">
        <ele>385.576413</ele>
        <time>2025-10-23T12:14:53Z</time>
      </trkpt>
      <trkpt lat="43.57763" lon="3.18911">
        <ele>385.612803</ele>
        <time>2025-10-23T12:14:54Z</time>
      </trkpt>
      <trkpt lat="43.57758" lon="3.18909">
        <ele>385.648963</ele>
        <time>2025-10-23T12:14:55Z</time>
      </trkpt>
      <trkpt lat="43.57753" lon="3.18909">
        <ele>385.584636</ele>
        <time>2025-10-23T12:14:56Z</time>
      </trkpt>
      <trkpt lat="43.57749" lon="3.18907">
        <ele>385.514941</ele>
        <time>2025-10-23T12:14:57Z</time>
      </trkpt>
      <trkpt lat="43.57744" lon="3.18905">
        <ele>385.451825</ele>
        <time>2025-10-23T12:14:58Z</time>
      </trkpt>
      <trkpt lat="43.5774" lon="3.18902">
        <ele>385.385565</ele>
        <time>2025-10-23T12:14:59Z</time>
      </trkpt>
      <trkpt lat="43.57736" lon="3.18899">
        <ele>385.317082</ele>
        <time>2025-10-23T12:15:00Z</time>
      </trkpt>
      <trkpt lat="43.57732" lon="3.18895">
        <ele>385.245059</ele>
        <time>2025-10-23T12:15:01Z</time>
      </trkpt>
      <trkpt lat="43.57728" lon="3.1889">
        <ele>385.171885</ele>
        <time>2025-10-23T12:15:02Z</time>
      </trkpt>
      <trkpt lat="43.57725" lon="3.18884">
        <ele>385.097315</ele>
        <time>2025-10-23T12:15:03Z</time>
      </trkpt>
      <trkpt lat="43.57721" lon="3.18879">
        <ele>385.024458</ele>
        <time>2025-10-23T12:15:04Z</time>
      </trkpt>
      <trkpt lat="43.57718" lon="3.18874">
        <ele>384.94671</ele>
        <time>2025-10-23T12:15:05Z</time>
      </trkpt>
      <trkpt lat="43.57714" lon="3.18869">
        <ele>384.868962</ele>
        <time>2025-10-23T12:15:06Z</time>
      </trkpt>
      <trkpt lat="43.5771" lon="3.18863">
        <ele>384.791932</ele>
        <time>2025-10-23T12:15:07Z</time>
      </trkpt>
      <trkpt lat="43.57706" lon="3.18858">
        <ele>384.717651</ele>
        <time>2025-10-23T12:15:08Z</time>
      </trkpt>
      <trkpt lat="43.57702" lon="3.18853">
        <ele>384.642358</ele>
        <time>2025-10-23T12:15:09Z</time>
      </trkpt>
      <trkpt lat="43.57699" lon="3.18848">
        <ele>384.571212</ele>
        <time>2025-10-23T12:15:10Z</time>
      </trkpt>
      <trkpt lat="43.57695" lon="3.18843">
        <ele>384.498163</ele>
        <time>2025-10-23T12:15:11Z</time>
      </trkpt>
      <trkpt lat="43.57692" lon="3.18838">
        <ele>384.423583</ele>
        <time>2025-10-23T12:15:12Z</time>
      </trkpt>
      <trkpt lat="43.57688" lon="3.18833">
        <ele>384.34956</ele>
        <time>2025-10-23T12:15:13Z</time>
      </trkpt>
      <trkpt lat="43.57685" lon="3.18828">
        <ele>384.278741</ele>
        <time>2025-10-23T12:15:14Z</time>
      </trkpt>
      <trkpt lat="43.57681" lon="3.18823">
        <ele>384.204868</ele>
        <time>2025-10-23T12:15:15Z</time>
      </trkpt>
      <trkpt lat="43.57677" lon="3.18818">
        <ele>384.132384</ele>
        <time>2025-10-23T12:15:16Z</time>
      </trkpt>
      <trkpt lat="43.57673" lon="3.18813">
        <ele>384.059509</ele>
        <time>2025-10-23T12:15:17Z</time>
      </trkpt>
      <trkpt lat="43.57669" lon="3.18809">
        <ele>383.985281</ele>
        <time>2025-10-23T12:15:18Z</time>
      </trkpt>
      <trkpt lat="43.57665" lon="3.18804">
        <ele>383.910868</ele>
        <time>2025-10-23T12:15:19Z</time>
      </trkpt>
      <trkpt lat="43.5766" lon="3.188">
        <ele>383.833634</ele>
        <time>2025-10-23T12:15:20Z</time>
      </trkpt>
      <trkpt lat="43.57656" lon="3.18797">
        <ele>383.760972</ele>
        <time>2025-10-23T12:15:21Z</time>
      </trkpt>
      <trkpt lat="43.57652" lon="3.18793">
        <ele>383.689834</ele>
        <time>2025-10-23T12:15:22Z</time>
      </trkpt>
      <trkpt lat="43.57647" lon="3.1879">
        <ele>383.617922</ele>
        <time>2025-10-23T12:15:23Z</time>
      </trkpt>
      <trkpt lat="43.57643" lon="3.18787">
        <ele>383.54578</ele>
        <time>2025-10-23T12:15:24Z</time>
      </trkpt>
      <trkpt lat="43.57639" lon="3.18782">
        <ele>383.475725</ele>
        <time>2025-10-23T12:15:25Z</time>
      </trkpt>
      <trkpt lat="43.57636" lon="3.18777">
        <ele>383.405716</ele>
        <time>2025-10-23T12:15:26Z</time>
      </trkpt>
      <trkpt lat="43.57634" lon="3.18771">
        <ele>383.337137</ele>
        <time>2025-10-23T12:15:27Z</time>
      </trkpt>
      <trkpt lat="43.57632" lon="3.18764">
        <ele>383.266485</ele>
        <time>2025-10-23T12:15:28Z</time>
      </trkpt>
      <trkpt lat="43.57631" lon="3.18757">
        <ele>383.194313</ele>
        <time>2025-10-23T12:15:29Z</time>
      </trkpt>
      <trkpt lat="43.57629" lon="3.18751">
        <ele>383.124158</ele>
        <time>2025-10-23T12:15:30Z</time>
      </trkpt>
      <trkpt lat="43.57628" lon="3.18744">
        <ele>383.076098</ele>
        <time>2025-10-23T12:15:31Z</time>
      </trkpt>
      <trkpt lat="43.57625" lon="3.18738">
        <ele>383.043685</ele>
        <time>2025-10-23T12:15:32Z</time>
      </trkpt>
      <trkpt lat="43.57623" lon="3.18733">
        <ele>383.01071</ele>
        <time>2025-10-23T12:15:33Z</time>
      </trkpt>
      <trkpt lat="43.5762" lon="3.18727">
        <ele>382.979706</ele>
        <time>2025-10-23T12:15:34Z</time>
      </trkpt>
      <trkpt lat="43.57617" lon="3.18722">
        <ele>382.947991</ele>
        <time>2025-10-23T12:15:35Z</time>
      </trkpt>
      <trkpt lat="43.57615" lon="3.18717">
        <ele>382.918874</ele>
        <time>2025-10-23T12:15:36Z</time>
      </trkpt>
      <trkpt lat="43.57611" lon="3.18713">
        <ele>382.889439</ele>
        <time>2025-10-23T12:15:37Z</time>
      </trkpt>
      <trkpt lat="43.57609" lon="3.18708">
        <ele>382.86075</ele>
        <time>2025-10-23T12:15:38Z</time>
      </trkpt>
      <trkpt lat="43.57606" lon="3.18704">
        <ele>382.832908</ele>
        <time>2025-10-23T12:15:39Z</time>
      </trkpt>
      <trkpt lat="43.57603" lon="3.18699">
        <ele>382.80429</ele>
        <time>2025-10-23T12:15:40Z</time>
      </trkpt>
      <trkpt lat="43.57601" lon="3.18694">
        <ele>382.774902</ele>
        <time>2025-10-23T12:15:41Z</time>
      </trkpt>
      <trkpt lat="43.57598" lon="3.18689">
        <ele>382.747443</ele>
        <time>2025-10-23T12:15:42Z</time>
      </trkpt>
      <trkpt lat="43.57596" lon="3.18685">
        <ele>382.719959</ele>
        <time>2025-10-23T12:15:43Z</time>
      </trkpt>
      <trkpt lat="43.57593" lon="3.1868">
        <ele>382.692846</ele>
        <time>2025-10-23T12:15:44Z</time>
      </trkpt>
      <trkpt lat="43.5759" lon="3.18676">
        <ele>382.666287</ele>
        <time>2025-10-23T12:15:45Z</time>
      </trkpt>
      <trkpt lat="43.57588" lon="3.18672">
        <ele>382.63983</ele>
        <time>2025-10-23T12:15:46Z</time>
      </trkpt>
      <trkpt lat="43.57585" lon="3.18668">
        <ele>382.613018</ele>
        <time>2025-10-23T12:15:47Z</time>
      </trkpt>
      <trkpt lat="43.57582" lon="3.18664">
        <ele>382.587</ele>
        <time>2025-10-23T12:15:48Z</time>
      </trkpt>
      <trkpt lat="43.5758" lon="3.1866">
        <ele>382.561411</ele>
        <time>2025-10-23T12:15:49Z</time>
      </trkpt>
      <trkpt lat="43.57578" lon="3.18655">
        <ele>382.536251</ele>
        <time>2025-10-23T12:15:50Z</time>
      </trkpt>
      <trkpt lat="43.57575" lon="3.18651">
        <ele>382.511385</ele>
        <time>2025-10-23T12:15:51Z</time>
      </trkpt>
      <trkpt lat="43.57573" lon="3.18647">
        <ele>382.484214</ele>
        <time>2025-10-23T12:15:52Z</time>
      </trkpt>
      <trkpt lat="43.5757" lon="3.18643">
        <ele>382.45696</ele>
        <time>2025-10-23T12:15:53Z</time>
      </trkpt>
      <trkpt lat="43.57567" lon="3.18639">
        <ele>382.430941</ele>
        <time>2025-10-23T12:15:54Z</time>
      </trkpt>
      <trkpt lat="43.57565" lon="3.18635">
        <ele>382.405352</ele>
        <time>2025-10-23T12:15:55Z</time>
      </trkpt>
      <trkpt lat="43.57562" lon="3.18631">
        <ele>382.380212</ele>
        <time>2025-10-23T12:15:56Z</time>
      </trkpt>
      <trkpt lat="43.5756" lon="3.18626">
        <ele>382.354256</ele>
        <time>2025-10-23T12:15:57Z</time>
      </trkpt>
      <trkpt lat="43.57557" lon="3.18622">
        <ele>382.3283</ele>
        <time>2025-10-23T12:15:58Z</time>
      </trkpt>
      <trkpt lat="43.57555" lon="3.18618">
        <ele>382.303434</ele>
        <time>2025-10-23T12:15:59Z</time>
      </trkpt>
      <trkpt lat="43.57552" lon="3.18614">
        <ele>382.279362</ele>
        <time>2025-10-23T12:16:00Z</time>
      </trkpt>
      <trkpt lat="43.5755" lon="3.18611">
        <ele>382.25529</ele>
        <time>2025-10-23T12:16:01Z</time>
      </trkpt>
      <trkpt lat="43.57547" lon="3.18607">
        <ele>382.229741</ele>
        <time>2025-10-23T12:16:02Z</time>
      </trkpt>
      <trkpt lat="43.57544" lon="3.18603">
        <ele>382.203055</ele>
        <time>2025-10-23T12:16:03Z</time>
      </trkpt>
      <trkpt lat="43.57542" lon="3.186">
        <ele>382.179095</ele>
        <time>2025-10-23T12:16:04Z</time>
      </trkpt>
      <trkpt lat="43.5754" lon="3.18598">
        <ele>382.162749</ele>
        <time>2025-10-23T12:16:05Z</time>
      </trkpt>
      <trkpt lat="43.57539" lon="3.18597">
        <ele>382.155359</ele>
        <time>2025-10-23T12:16:06Z</time>
      </trkpt>
      <trkpt lat="43.57539" lon="3.18597">
        <ele>382.153449</ele>
        <time>2025-10-23T12:16:07Z</time>
      </trkpt>
      <trkpt lat="43.57539" lon="3.18597">
        <ele>382.153449</ele>
        <time>2025-10-23T12:16:08Z</time>
      </trkpt>
      <trkpt lat="43.57539" lon="3.18597">
        <ele>382.153449</ele>
        <time>2025-10-23T12:16:09Z</time>
      </trkpt>
      <trkpt lat="43.57539" lon="3.18597">
        <ele>382.153449</ele>
        <time>2025-10-23T12:16:10Z</time>
      </trkpt>
      <trkpt lat="43.57539" lon="3.18597">
        <ele>382.153449</ele>
        <time>2025-10-23T12:16:11Z</time>
      </trkpt>
      <trkpt lat="43.57539" lon="3.18597">
        <ele>382.153449</ele>
        <time>2025-10-23T12:16:12Z</time>
      </trkpt>
      <trkpt lat="43.57539" lon="3.18597">
        <ele>382.153449</ele>
        <time>2025-10-23T12:16:13Z</time>
      </trkpt>
      <trkpt lat="43.57539" lon="3.18597">
        <ele>382.153449</ele>
        <time>2025-10-23T12:16:14Z</time>
      </trkpt>
      <trkpt lat="43.57539" lon="3.18597">
        <ele>382.152635</ele>
        <time>2025-10-23T12:16:15Z</time>
      </trkpt>
      <trkpt lat="43.57539" lon="3.18597">
        <ele>382.151976</ele>
        <time>2025-10-23T12:16:16Z</time>
      </trkpt>
      <trkpt lat="43.57539" lon="3.18597">
        <ele>382.151317</ele>
        <time>2025-10-23T12:16:17Z</time>
      </trkpt>
      <trkpt lat="43.57539" lon="3.18597">
        <ele>382.151317</ele>
        <time>2025-10-23T12:16:19Z</time>
      </trkpt>
      <trkpt lat="43.57539" lon="3.18597">
        <ele>382.151317</ele>
        <time>2025-10-23T12:16:20Z</time>
      </trkpt>
      <trkpt lat="43.57539" lon="3.18597">
        <ele>382.151317</ele>
        <time>2025-10-23T12:16:21Z</time>
      </trkpt>
      <trkpt lat="43.57539" lon="3.18597">
        <ele>382.15084</ele>
        <time>2025-10-23T12:16:22Z</time>
      </trkpt>
      <trkpt lat="43.57539" lon="3.18597">
        <ele>382.15084</ele>
        <time>2025-10-23T12:16:23Z</time>
      </trkpt>
      <trkpt lat="43.57539" lon="3.18597">
        <ele>382.15018</ele>
        <time>2025-10-23T12:16:24Z</time>
      </trkpt>
      <trkpt lat="43.57539" lon="3.18597">
        <ele>382.149521</ele>
        <time>2025-10-23T12:16:25Z</time>
      </trkpt>
      <trkpt lat="43.57539" lon="3.18597">
        <ele>382.149521</ele>
        <time>2025-10-23T12:16:26Z</time>
      </trkpt>
      <trkpt lat="43.57539" lon="3.18597">
        <ele>382.149521</ele>
        <time>2025-10-23T12:16:27Z</time>
      </trkpt>
      <trkpt lat="43.57539" lon="3.18597">
        <ele>382.149044</ele>
        <time>2025-10-23T12:16:28Z</time>
      </trkpt>
      <trkpt lat="43.57539" lon="3.18597">
        <ele>382.148566</ele>
        <time>2025-10-23T12:16:29Z</time>
      </trkpt>
      <trkpt lat="43.57539" lon="3.18597">
        <ele>382.148566</ele>
        <time>2025-10-23T12:16:30Z</time>
      </trkpt>
      <trkpt lat="43.57539" lon="3.18597">
        <ele>382.148566</ele>
        <time>2025-10-23T12:16:31Z</time>
      </trkpt>
      <trkpt lat="43.57539" lon="3.18597">
        <ele>382.147907</ele>
        <time>2025-10-23T12:16:32Z</time>
      </trkpt>
      <trkpt lat="43.57539" lon="3.18597">
        <ele>382.147907</ele>
        <time>2025-10-23T12:16:33Z</time>
      </trkpt>
      <trkpt lat="43.57539" lon="3.18597">
        <ele>382.147907</ele>
        <time>2025-10-23T12:16:34Z</time>
      </trkpt>
      <trkpt lat="43.57539" lon="3.18597">
        <ele>382.14743</ele>
        <time>2025-10-23T12:16:35Z</time>
      </trkpt>
      <trkpt lat="43.57539" lon="3.18597">
        <ele>382.14743</ele>
        <time>2025-10-23T12:16:36Z</time>
      </trkpt>
      <trkpt lat="43.57539" lon="3.18597">
        <ele>382.14743</ele>
        <time>2025-10-23T12:16:37Z</time>
      </trkpt>
      <trkpt lat="43.57539" lon="3.18597">
        <ele>382.146952</ele>
        <time>2025-10-23T12:16:38Z</time>
      </trkpt>
      <trkpt lat="43.57539" lon="3.18597">
        <ele>382.146952</ele>
        <time>2025-10-23T12:16:39Z</time>
      </trkpt>
      <trkpt lat="43.57539" lon="3.18597">
        <ele>382.146952</ele>
        <time>2025-10-23T12:16:40Z</time>
      </trkpt>
      <trkpt lat="43.57539" lon="3.18597">
        <ele>382.146138</ele>
        <time>2025-10-23T12:16:41Z</time>
      </trkpt>
      <trkpt lat="43.57539" lon="3.18597">
        <ele>382.146138</ele>
        <time>2025-10-23T12:16:42Z</time>
      </trkpt>
      <trkpt lat="43.57539" lon="3.18597">
        <ele>382.146138</ele>
        <time>2025-10-23T12:16:43Z</time>
      </trkpt>
      <trkpt lat="43.57538" lon="3.18597">
        <ele>382.143038</ele>
        <time>2025-10-23T12:16:44Z</time>
      </trkpt>
      <trkpt lat="43.57537" lon="3.18595">
        <ele>382.133544</ele>
        <time>2025-10-23T12:16:45Z</time>
      </trkpt>
      <trkpt lat="43.57535" lon="3.18594">
        <ele>382.119348</ele>
        <time>2025-10-23T12:16:46Z</time>
      </trkpt>
      <trkpt lat="43.57533" lon="3.18592">
        <ele>382.099806</ele>
        <time>2025-10-23T12:16:47Z</time>
      </trkpt>
      <trkpt lat="43.5753" lon="3.18589">
        <ele>382.077017</ele>
        <time>2025-10-23T12:16:48Z</time>
      </trkpt>
      <trkpt lat="43.57527" lon="3.18586">
        <ele>382.050922</ele>
        <time>2025-10-23T12:16:49Z</time>
      </trkpt>
      <trkpt lat="43.57523" lon="3.18583">
        <ele>382.021899</ele>
        <time>2025-10-23T12:16:50Z</time>
      </trkpt>
      <trkpt lat="43.57519" lon="3.18578">
        <ele>381.990019</ele>
        <time>2025-10-23T12:16:51Z</time>
      </trkpt>
      <trkpt lat="43.57516" lon="3.18574">
        <ele>381.957359</ele>
        <time>2025-10-23T12:16:52Z</time>
      </trkpt>
      <trkpt lat="43.57512" lon="3.18568">
        <ele>381.923989</ele>
        <time>2025-10-23T12:16:53Z</time>
      </trkpt>
      <trkpt lat="43.57509" lon="3.18563">
        <ele>381.871482</ele>
        <time>2025-10-23T12:16:54Z</time>
      </trkpt>
      <trkpt lat="43.57506" lon="3.18556">
        <ele>381.804407</ele>
        <time>2025-10-23T12:16:55Z</time>
      </trkpt>
      <trkpt lat="43.57503" lon="3.1855">
        <ele>381.735744</ele>
        <time>2025-10-23T12:16:56Z</time>
      </trkpt>
      <trkpt lat="43.575" lon="3.18542">
        <ele>381.66182</ele>
        <time>2025-10-23T12:16:57Z</time>
      </trkpt>
      <trkpt lat="43.57497" lon="3.18534">
        <ele>381.584263</ele>
        <time>2025-10-23T12:16:58Z</time>
      </trkpt>
      <trkpt lat="43.57494" lon="3.18526">
        <ele>381.504766</ele>
        <time>2025-10-23T12:16:59Z</time>
      </trkpt>
      <trkpt lat="43.5749" lon="3.18519">
        <ele>381.424782</ele>
        <time>2025-10-23T12:17:00Z</time>
      </trkpt>
      <trkpt lat="43.57486" lon="3.18512">
        <ele>381.347107</ele>
        <time>2025-10-23T12:17:01Z</time>
      </trkpt>
      <trkpt lat="43.57482" lon="3.18505">
        <ele>381.270527</ele>
        <time>2025-10-23T12:17:02Z</time>
      </trkpt>
      <trkpt lat="43.57478" lon="3.18499">
        <ele>381.195071</ele>
        <time>2025-10-23T12:17:03Z</time>
      </trkpt>
      <trkpt lat="43.57473" lon="3.18493">
        <ele>381.121496</ele>
        <time>2025-10-23T12:17:04Z</time>
      </trkpt>
      <trkpt lat="43.57469" lon="3.18487">
        <ele>381.050853</ele>
        <time>2025-10-23T12:17:05Z</time>
      </trkpt>
      <trkpt lat="43.57465" lon="3.18481">
        <ele>380.983135</ele>
        <time>2025-10-23T12:17:06Z</time>
      </trkpt>
      <trkpt lat="43.57462" lon="3.18476">
        <ele>380.921682</ele>
        <time>2025-10-23T12:17:07Z</time>
      </trkpt>
      <trkpt lat="43.57459" lon="3.18473">
        <ele>380.875897</ele>
        <time>2025-10-23T12:17:08Z</time>
      </trkpt>
      <trkpt lat="43.57457" lon="3.1847">
        <ele>380.847465</ele>
        <time>2025-10-23T12:17:09Z</time>
      </trkpt>
      <trkpt lat="43.57456" lon="3.18469">
        <ele>380.827984</ele>
        <time>2025-10-23T12:17:10Z</time>
      </trkpt>
      <trkpt lat="43.57456" lon="3.18469">
        <ele>380.823975</ele>
        <time>2025-10-23T12:17:11Z</time>
      </trkpt>
      <trkpt lat="43.57456" lon="3.1847">
        <ele>380.817481</ele>
        <time>2025-10-23T12:17:12Z</time>
      </trkpt>
      <trkpt lat="43.57456" lon="3.1847">
        <ele>380.815995</ele>
        <time>2025-10-23T12:17:13Z</time>
      </trkpt>
      <trkpt lat="43.57456" lon="3.1847">
        <ele>380.815995</ele>
        <time>2025-10-23T12:17:14Z</time>
      </trkpt>
      <trkpt lat="43.57456" lon="3.18469">
        <ele>380.814252</ele>
        <time>2025-10-23T12:17:15Z</time>
      </trkpt>
      <trkpt lat="43.57456" lon="3.18469">
        <ele>380.81338</ele>
        <time>2025-10-23T12:17:16Z</time>
      </trkpt>
      <trkpt lat="43.57456" lon="3.18469">
        <ele>380.81338</ele>
        <time>2025-10-23T12:17:17Z</time>
      </trkpt>
      <trkpt lat="43.57456" lon="3.18469">
        <ele>380.81338</ele>
        <time>2025-10-23T12:17:18Z</time>
      </trkpt>
      <trkpt lat="43.57456" lon="3.18469">
        <ele>380.81338</ele>
        <time>2025-10-23T12:17:19Z</time>
      </trkpt>
      <trkpt lat="43.57456" lon="3.18469">
        <ele>380.812508</ele>
        <time>2025-10-23T12:17:20Z</time>
      </trkpt>
      <trkpt lat="43.57456" lon="3.18469">
        <ele>380.811637</ele>
        <time>2025-10-23T12:17:21Z</time>
      </trkpt>
      <trkpt lat="43.57456" lon="3.18469">
        <ele>380.811637</ele>
        <time>2025-10-23T12:17:22Z</time>
      </trkpt>
      <trkpt lat="43.57456" lon="3.18469">
        <ele>380.811637</ele>
        <time>2025-10-23T12:17:23Z</time>
      </trkpt>
      <trkpt lat="43.57456" lon="3.18469">
        <ele>380.811637</ele>
        <time>2025-10-23T12:17:24Z</time>
      </trkpt>
      <trkpt lat="43.57456" lon="3.18469">
        <ele>380.811637</ele>
        <time>2025-10-23T12:17:25Z</time>
      </trkpt>
      <trkpt lat="43.57456" lon="3.18469">
        <ele>380.811637</ele>
        <time>2025-10-23T12:17:26Z</time>
      </trkpt>
      <trkpt lat="43.57456" lon="3.18469">
        <ele>380.811637</ele>
        <time>2025-10-23T12:17:27Z</time>
      </trkpt>
      <trkpt lat="43.57456" lon="3.18469">
        <ele>380.811637</ele>
        <time>2025-10-23T12:17:28Z</time>
      </trkpt>
      <trkpt lat="43.57456" lon="3.18469">
        <ele>380.811637</ele>
        <time>2025-10-23T12:17:29Z</time>
      </trkpt>
      <trkpt lat="43.57456" lon="3.18469">
        <ele>380.811637</ele>
        <time>2025-10-23T12:17:30Z</time>
      </trkpt>
      <trkpt lat="43.57456" lon="3.18469">
        <ele>380.811637</ele>
        <time>2025-10-23T12:17:32Z</time>
      </trkpt>
      <trkpt lat="43.57456" lon="3.18469">
        <ele>380.810765</ele>
        <time>2025-10-23T12:17:33Z</time>
      </trkpt>
      <trkpt lat="43.57456" lon="3.18469">
        <ele>380.809893</ele>
        <time>2025-10-23T12:17:34Z</time>
      </trkpt>
      <trkpt lat="43.57456" lon="3.18469">
        <ele>380.809021</ele>
        <time>2025-10-23T12:17:35Z</time>
      </trkpt>
      <trkpt lat="43.57456" lon="3.18469">
        <ele>380.80815</ele>
        <time>2025-10-23T12:17:36Z</time>
      </trkpt>
      <trkpt lat="43.57456" lon="3.18469">
        <ele>380.80815</ele>
        <time>2025-10-23T12:17:37Z</time>
      </trkpt>
      <trkpt lat="43.57456" lon="3.18469">
        <ele>380.80815</ele>
        <time>2025-10-23T12:17:38Z</time>
      </trkpt>
      <trkpt lat="43.57456" lon="3.18469">
        <ele>380.80815</ele>
        <time>2025-10-23T12:17:39Z</time>
      </trkpt>
      <trkpt lat="43.57456" lon="3.18469">
        <ele>380.80815</ele>
        <time>2025-10-23T12:17:40Z</time>
      </trkpt>
      <trkpt lat="43.57456" lon="3.18469">
        <ele>380.80815</ele>
        <time>2025-10-23T12:17:41Z</time>
      </trkpt>
      <trkpt lat="43.57456" lon="3.1847">
        <ele>380.807278</ele>
        <time>2025-10-23T12:17:42Z</time>
      </trkpt>
      <trkpt lat="43.57456" lon="3.1847">
        <ele>380.806074</ele>
        <time>2025-10-23T12:17:43Z</time>
      </trkpt>
      <trkpt lat="43.57456" lon="3.1847">
        <ele>380.803668</ele>
        <time>2025-10-23T12:17:44Z</time>
      </trkpt>
      <trkpt lat="43.57457" lon="3.1847">
        <ele>380.802182</ele>
        <time>2025-10-23T12:17:45Z</time>
      </trkpt>
      <trkpt lat="43.57457" lon="3.1847">
        <ele>380.80131</ele>
        <time>2025-10-23T12:17:46Z</time>
      </trkpt>
      <trkpt lat="43.57457" lon="3.1847">
        <ele>380.80131</ele>
        <time>2025-10-23T12:17:47Z</time>
      </trkpt>
      <trkpt lat="43.57457" lon="3.1847">
        <ele>380.800107</ele>
        <time>2025-10-23T12:17:48Z</time>
      </trkpt>
      <trkpt lat="43.57457" lon="3.1847">
        <ele>380.800107</ele>
        <time>2025-10-23T12:17:49Z</time>
      </trkpt>
      <trkpt lat="43.57457" lon="3.1847">
        <ele>380.800107</ele>
        <time>2025-10-23T12:17:50Z</time>
      </trkpt>
      <trkpt lat="43.57457" lon="3.1847">
        <ele>380.798904</ele>
        <time>2025-10-23T12:17:51Z</time>
      </trkpt>
      <trkpt lat="43.57457" lon="3.1847">
        <ele>380.798904</ele>
        <time>2025-10-23T12:17:52Z</time>
      </trkpt>
      <trkpt lat="43.57457" lon="3.1847">
        <ele>380.798904</ele>
        <time>2025-10-23T12:17:53Z</time>
      </trkpt>
      <trkpt lat="43.57457" lon="3.1847">
        <ele>380.798032</ele>
        <time>2025-10-23T12:17:54Z</time>
      </trkpt>
      <trkpt lat="43.57457" lon="3.1847">
        <ele>380.798032</ele>
        <time>2025-10-23T12:17:55Z</time>
      </trkpt>
      <trkpt lat="43.57457" lon="3.1847">
        <ele>380.79716</ele>
        <time>2025-10-23T12:17:56Z</time>
      </trkpt>
      <trkpt lat="43.57457" lon="3.18469">
        <ele>380.796288</ele>
        <time>2025-10-23T12:17:57Z</time>
      </trkpt>
      <trkpt lat="43.57457" lon="3.18468">
        <ele>380.786042</ele>
        <time>2025-10-23T12:17:58Z</time>
      </trkpt>
      <trkpt lat="43.57456" lon="3.18468">
        <ele>380.775106</ele>
        <time>2025-10-23T12:17:59Z</time>
      </trkpt>
      <trkpt lat="43.57455" lon="3.18466">
        <ele>380.759431</ele>
        <time>2025-10-23T12:18:00Z</time>
      </trkpt>
      <trkpt lat="43.57454" lon="3.18464">
        <ele>380.735805</ele>
        <time>2025-10-23T12:18:01Z</time>
      </trkpt>
      <trkpt lat="43.57452" lon="3.18462">
        <ele>380.709238</ele>
        <time>2025-10-23T12:18:02Z</time>
      </trkpt>
      <trkpt lat="43.57451" lon="3.1846">
        <ele>380.680878</ele>
        <time>2025-10-23T12:18:03Z</time>
      </trkpt>
      <trkpt lat="43.57449" lon="3.18458">
        <ele>380.649527</ele>
        <time>2025-10-23T12:18:04Z</time>
      </trkpt>
      <trkpt lat="43.57447" lon="3.18454">
        <ele>380.611697</ele>
        <time>2025-10-23T12:18:05Z</time>
      </trkpt>
      <trkpt lat="43.57445" lon="3.18452">
        <ele>380.576792</ele>
        <time>2025-10-23T12:18:06Z</time>
      </trkpt>
      <trkpt lat="43.57442" lon="3.18449">
        <ele>380.539579</ele>
        <time>2025-10-23T12:18:07Z</time>
      </trkpt>
      <trkpt lat="43.5744" lon="3.18445">
        <ele>380.50063</ele>
        <time>2025-10-23T12:18:08Z</time>
      </trkpt>
      <trkpt lat="43.57438" lon="3.18441">
        <ele>380.458128</ele>
        <time>2025-10-23T12:18:09Z</time>
      </trkpt>
      <trkpt lat="43.57436" lon="3.18438">
        <ele>380.414961</ele>
        <time>2025-10-23T12:18:10Z</time>
      </trkpt>
      <trkpt lat="43.57434" lon="3.18434">
        <ele>380.372592</ele>
        <time>2025-10-23T12:18:11Z</time>
      </trkpt>
      <trkpt lat="43.57432" lon="3.1843">
        <ele>380.332348</ele>
        <time>2025-10-23T12:18:12Z</time>
      </trkpt>
      <trkpt lat="43.5743" lon="3.18427">
        <ele>380.29616</ele>
        <time>2025-10-23T12:18:13Z</time>
      </trkpt>
      <trkpt lat="43.57428" lon="3.18423">
        <ele>380.255214</ele>
        <time>2025-10-23T12:18:14Z</time>
      </trkpt>
      <trkpt lat="43.57426" lon="3.18419">
        <ele>380.212808</ele>
        <time>2025-10-23T12:18:15Z</time>
      </trkpt>
      <trkpt lat="43.57423" lon="3.18415">
        <ele>380.166857</ele>
        <time>2025-10-23T12:18:16Z</time>
      </trkpt>
      <trkpt lat="43.57421" lon="3.18411">
        <ele>380.120261</ele>
        <time>2025-10-23T12:18:17Z</time>
      </trkpt>
      <trkpt lat="43.57418" lon="3.18406">
        <ele>380.070843</ele>
        <time>2025-10-23T12:18:18Z</time>
      </trkpt>
      <trkpt lat="43.57416" lon="3.18402">
        <ele>380.019232</ele>
        <time>2025-10-23T12:18:19Z</time>
      </trkpt>
      <trkpt lat="43.57413" lon="3.18398">
        <ele>379.972514</ele>
        <time>2025-10-23T12:18:20Z</time>
      </trkpt>
      <trkpt lat="43.57411" lon="3.18394">
        <ele>379.92945</ele>
        <time>2025-10-23T12:18:21Z</time>
      </trkpt>
      <trkpt lat="43.57409" lon="3.18389">
        <ele>379.884971</ele>
        <time>2025-10-23T12:18:22Z</time>
      </trkpt>
      <trkpt lat="43.57407" lon="3.18386">
        <ele>379.842566</ele>
        <time>2025-10-23T12:18:23Z</time>
      </trkpt>
      <trkpt lat="43.57404" lon="3.18382">
        <ele>379.800649</ele>
        <time>2025-10-23T12:18:24Z</time>
      </trkpt>
      <trkpt lat="43.57401" lon="3.1838">
        <ele>379.761526</ele>
        <time>2025-10-23T12:18:25Z</time>
      </trkpt>
      <trkpt lat="43.57398" lon="3.18378">
        <ele>379.909359</ele>
        <time>2025-10-23T12:18:26Z</time>
      </trkpt>
      <trkpt lat="43.57395" lon="3.18376">
        <ele>380.159132</ele>
        <time>2025-10-23T12:18:27Z</time>
      </trkpt>
      <trkpt lat="43.57392" lon="3.18375">
        <ele>380.431858</ele>
        <time>2025-10-23T12:18:28Z</time>
      </trkpt>
      <trkpt lat="43.57388" lon="3.18375">
        <ele>380.714128</ele>
        <time>2025-10-23T12:18:29Z</time>
      </trkpt>
      <trkpt lat="43.57384" lon="3.18376">
        <ele>380.989762</ele>
        <time>2025-10-23T12:18:30Z</time>
      </trkpt>
      <trkpt lat="43.57381" lon="3.18376">
        <ele>381.214185</ele>
        <time>2025-10-23T12:18:31Z</time>
      </trkpt>
      <trkpt lat="43.57378" lon="3.18376">
        <ele>381.423247</ele>
        <time>2025-10-23T12:18:32Z</time>
      </trkpt>
      <trkpt lat="43.57376" lon="3.18377">
        <ele>381.610856</ele>
        <time>2025-10-23T12:18:33Z</time>
      </trkpt>
      <trkpt lat="43.57373" lon="3.18378">
        <ele>381.802738</ele>
        <time>2025-10-23T12:18:34Z</time>
      </trkpt>
      <trkpt lat="43.57371" lon="3.18378">
        <ele>381.998515</ele>
        <time>2025-10-23T12:18:35Z</time>
      </trkpt>
      <trkpt lat="43.57368" lon="3.18379">
        <ele>382.179659</ele>
        <time>2025-10-23T12:18:36Z</time>
      </trkpt>
      <trkpt lat="43.57366" lon="3.1838">
        <ele>382.368115</ele>
        <time>2025-10-23T12:18:37Z</time>
      </trkpt>
      <trkpt lat="43.57363" lon="3.1838">
        <ele>382.564851</ele>
        <time>2025-10-23T12:18:38Z</time>
      </trkpt>
      <trkpt lat="43.57361" lon="3.18381">
        <ele>382.747031</ele>
        <time>2025-10-23T12:18:39Z</time>
      </trkpt>
      <trkpt lat="43.57358" lon="3.18381">
        <ele>382.941324</ele>
        <time>2025-10-23T12:18:40Z</time>
      </trkpt>
      <trkpt lat="43.57356" lon="3.18382">
        <ele>383.134496</ele>
        <time>2025-10-23T12:18:41Z</time>
      </trkpt>
      <trkpt lat="43.57353" lon="3.18381">
        <ele>383.305652</ele>
        <time>2025-10-23T12:18:42Z</time>
      </trkpt>
      <trkpt lat="43.57351" lon="3.18381">
        <ele>383.469837</ele>
        <time>2025-10-23T12:18:43Z</time>
      </trkpt>
      <trkpt lat="43.57349" lon="3.1838">
        <ele>383.643678</ele>
        <time>2025-10-23T12:18:44Z</time>
      </trkpt>
      <trkpt lat="43.57347" lon="3.1838">
        <ele>383.814093</ele>
        <time>2025-10-23T12:18:45Z</time>
      </trkpt>
      <trkpt lat="43.57345" lon="3.18379">
        <ele>383.970324</ele>
        <time>2025-10-23T12:18:46Z</time>
      </trkpt>
      <trkpt lat="43.57342" lon="3.18378">
        <ele>384.130771</ele>
        <time>2025-10-23T12:18:47Z</time>
      </trkpt>
      <trkpt lat="43.5734" lon="3.18377">
        <ele>384.291218</ele>
        <time>2025-10-23T12:18:48Z</time>
      </trkpt>
      <trkpt lat="43.57338" lon="3.18377">
        <ele>384.450487</ele>
        <time>2025-10-23T12:18:49Z</time>
      </trkpt>
      <trkpt lat="43.57336" lon="3.18376">
        <ele>384.617036</ele>
        <time>2025-10-23T12:18:50Z</time>
      </trkpt>
      <trkpt lat="43.57334" lon="3.18375">
        <ele>384.761791</ele>
        <time>2025-10-23T12:18:51Z</time>
      </trkpt>
      <trkpt lat="43.57332" lon="3.18375">
        <ele>384.898154</ele>
        <time>2025-10-23T12:18:52Z</time>
      </trkpt>
      <trkpt lat="43.57331" lon="3.18374">
        <ele>385.034517</ele>
        <time>2025-10-23T12:18:53Z</time>
      </trkpt>
      <trkpt lat="43.57329" lon="3.18374">
        <ele>385.168308</ele>
        <time>2025-10-23T12:18:54Z</time>
      </trkpt>
      <trkpt lat="43.57327" lon="3.18374">
        <ele>385.324364</ele>
        <time>2025-10-23T12:18:55Z</time>
      </trkpt>
      <trkpt lat="43.57324" lon="3.18375">
        <ele>385.495266</ele>
        <time>2025-10-23T12:18:56Z</time>
      </trkpt>
      <trkpt lat="43.57322" lon="3.18374">
        <ele>385.644677</ele>
        <time>2025-10-23T12:18:57Z</time>
      </trkpt>
      <trkpt lat="43.5732" lon="3.18374">
        <ele>385.79563</ele>
        <time>2025-10-23T12:18:58Z</time>
      </trkpt>
      <trkpt lat="43.57319" lon="3.18373">
        <ele>385.923707</ele>
        <time>2025-10-23T12:18:59Z</time>
      </trkpt>
      <trkpt lat="43.57317" lon="3.18373">
        <ele>386.062595</ele>
        <time>2025-10-23T12:19:00Z</time>
      </trkpt>
      <trkpt lat="43.57315" lon="3.18372">
        <ele>386.20735</ele>
        <time>2025-10-23T12:19:01Z</time>
      </trkpt>
      <trkpt lat="43.57313" lon="3.18371">
        <ele>386.328823</ele>
        <time>2025-10-23T12:19:02Z</time>
      </trkpt>
      <trkpt lat="43.57312" lon="3.18371">
        <ele>386.472474</ele>
        <time>2025-10-23T12:19:03Z</time>
      </trkpt>
      <trkpt lat="43.5731" lon="3.1837">
        <ele>386.616125</ele>
        <time>2025-10-23T12:19:04Z</time>
      </trkpt>
      <trkpt lat="43.57308" lon="3.18369">
        <ele>386.755013</ele>
        <time>2025-10-23T12:19:05Z</time>
      </trkpt>
      <trkpt lat="43.57306" lon="3.18369">
        <ele>386.892538</ele>
        <time>2025-10-23T12:19:06Z</time>
      </trkpt>
      <trkpt lat="43.57304" lon="3.18368">
        <ele>387.025931</ele>
        <time>2025-10-23T12:19:07Z</time>
      </trkpt>
      <trkpt lat="43.57303" lon="3.18367">
        <ele>387.14536</ele>
        <time>2025-10-23T12:19:08Z</time>
      </trkpt>
      <trkpt lat="43.57301" lon="3.18366">
        <ele>387.266832</ele>
        <time>2025-10-23T12:19:09Z</time>
      </trkpt>
      <trkpt lat="43.573" lon="3.18366">
        <ele>387.387595</ele>
        <time>2025-10-23T12:19:10Z</time>
      </trkpt>
      <trkpt lat="43.57298" lon="3.18365">
        <ele>387.509068</ele>
        <time>2025-10-23T12:19:11Z</time>
      </trkpt>
      <trkpt lat="43.57297" lon="3.18364">
        <ele>387.61708</ele>
        <time>2025-10-23T12:19:12Z</time>
      </trkpt>
      <trkpt lat="43.57296" lon="3.18363">
        <ele>387.721211</ele>
        <time>2025-10-23T12:19:13Z</time>
      </trkpt>
      <trkpt lat="43.57295" lon="3.18361">
        <ele>387.810054</ele>
        <time>2025-10-23T12:19:14Z</time>
      </trkpt>
      <trkpt lat="43.57295" lon="3.1836">
        <ele>387.916516</ele>
        <time>2025-10-23T12:19:15Z</time>
      </trkpt>
      <trkpt lat="43.57295" lon="3.18358">
        <ele>387.997492</ele>
        <time>2025-10-23T12:19:16Z</time>
      </trkpt>
      <trkpt lat="43.57294" lon="3.18357">
        <ele>388.083497</ele>
        <time>2025-10-23T12:19:17Z</time>
      </trkpt>
      <trkpt lat="43.57293" lon="3.18355">
        <ele>388.214362</ele>
        <time>2025-10-23T12:19:18Z</time>
      </trkpt>
      <trkpt lat="43.57292" lon="3.18353">
        <ele>388.332188</ele>
        <time>2025-10-23T12:19:19Z</time>
      </trkpt>
      <trkpt lat="43.57291" lon="3.18352">
        <ele>388.452425</ele>
        <time>2025-10-23T12:19:20Z</time>
      </trkpt>
      <trkpt lat="43.5729" lon="3.1835">
        <ele>388.563549</ele>
        <time>2025-10-23T12:19:21Z</time>
      </trkpt>
      <trkpt lat="43.57289" lon="3.18349">
        <ele>388.674674</ele>
        <time>2025-10-23T12:19:22Z</time>
      </trkpt>
      <trkpt lat="43.57287" lon="3.18347">
        <ele>388.798587</ele>
        <time>2025-10-23T12:19:23Z</time>
      </trkpt>
      <trkpt lat="43.57286" lon="3.18345">
        <ele>388.926297</ele>
        <time>2025-10-23T12:19:24Z</time>
      </trkpt>
      <trkpt lat="43.57285" lon="3.18344">
        <ele>389.061923</ele>
        <time>2025-10-23T12:19:25Z</time>
      </trkpt>
      <trkpt lat="43.57284" lon="3.18342">
        <ele>389.179749</ele>
        <time>2025-10-23T12:19:26Z</time>
      </trkpt>
      <trkpt lat="43.57283" lon="3.1834">
        <ele>389.285534</ele>
        <time>2025-10-23T12:19:27Z</time>
      </trkpt>
      <trkpt lat="43.57282" lon="3.18339">
        <ele>389.37731</ele>
        <time>2025-10-23T12:19:28Z</time>
      </trkpt>
      <trkpt lat="43.57281" lon="3.18337">
        <ele>389.499361</ele>
        <time>2025-10-23T12:19:29Z</time>
      </trkpt>
      <trkpt lat="43.5728" lon="3.18336">
        <ele>389.595302</ele>
        <time>2025-10-23T12:19:30Z</time>
      </trkpt>
      <trkpt lat="43.5728" lon="3.18334">
        <ele>389.708593</ele>
        <time>2025-10-23T12:19:31Z</time>
      </trkpt>
      <trkpt lat="43.57279" lon="3.18333">
        <ele>389.818275</ele>
        <time>2025-10-23T12:19:32Z</time>
      </trkpt>
      <trkpt lat="43.57278" lon="3.18331">
        <ele>389.931974</ele>
        <time>2025-10-23T12:19:33Z</time>
      </trkpt>
      <trkpt lat="43.57276" lon="3.1833">
        <ele>390.050658</ele>
        <time>2025-10-23T12:19:34Z</time>
      </trkpt>
      <trkpt lat="43.57276" lon="3.18327">
        <ele>390.183108</ele>
        <time>2025-10-23T12:19:35Z</time>
      </trkpt>
      <trkpt lat="43.57275" lon="3.18325">
        <ele>390.323761</ele>
        <time>2025-10-23T12:19:36Z</time>
      </trkpt>
      <trkpt lat="43.57274" lon="3.18323">
        <ele>390.442006</ele>
        <time>2025-10-23T12:19:37Z</time>
      </trkpt>
      <trkpt lat="43.57273" lon="3.18321">
        <ele>390.550775</ele>
        <time>2025-10-23T12:19:38Z</time>
      </trkpt>
      <trkpt lat="43.57273" lon="3.18319">
        <ele>390.664617</ele>
        <time>2025-10-23T12:19:39Z</time>
      </trkpt>
      <trkpt lat="43.57272" lon="3.18317">
        <ele>390.786081</ele>
        <time>2025-10-23T12:19:40Z</time>
      </trkpt>
      <trkpt lat="43.57272" lon="3.18315">
        <ele>390.905595</ele>
        <time>2025-10-23T12:19:41Z</time>
      </trkpt>
      <trkpt lat="43.5727" lon="3.18313">
        <ele>391.045322</ele>
        <time>2025-10-23T12:19:42Z</time>
      </trkpt>
      <trkpt lat="43.5727" lon="3.18311">
        <ele>391.187029</ele>
        <time>2025-10-23T12:19:43Z</time>
      </trkpt>
      <trkpt lat="43.57269" lon="3.18308">
        <ele>391.331244</ele>
        <time>2025-10-23T12:19:44Z</time>
      </trkpt>
      <trkpt lat="43.57268" lon="3.18306">
        <ele>391.450758</ele>
        <time>2025-10-23T12:19:45Z</time>
      </trkpt>
      <trkpt lat="43.57268" lon="3.18304">
        <ele>391.581804</ele>
        <time>2025-10-23T12:19:46Z</time>
      </trkpt>
      <trkpt lat="43.57267" lon="3.18301">
        <ele>391.73105</ele>
        <time>2025-10-23T12:19:47Z</time>
      </trkpt>
      <trkpt lat="43.57267" lon="3.18299">
        <ele>391.870259</ele>
        <time>2025-10-23T12:19:48Z</time>
      </trkpt>
      <trkpt lat="43.57266" lon="3.18296">
        <ele>391.999467</ele>
        <time>2025-10-23T12:19:49Z</time>
      </trkpt>
      <trkpt lat="43.57266" lon="3.18294">
        <ele>392.114638</ele>
        <time>2025-10-23T12:19:50Z</time>
      </trkpt>
      <trkpt lat="43.57266" lon="3.18292">
        <ele>392.226278</ele>
        <time>2025-10-23T12:19:51Z</time>
      </trkpt>
      <trkpt lat="43.57265" lon="3.18291">
        <ele>392.313642</ele>
        <time>2025-10-23T12:19:52Z</time>
      </trkpt>
      <trkpt lat="43.57265" lon="3.18289">
        <ele>392.425165</ele>
        <time>2025-10-23T12:19:53Z</time>
      </trkpt>
      <trkpt lat="43.57264" lon="3.18287">
        <ele>392.535089</ele>
        <time>2025-10-23T12:19:54Z</time>
      </trkpt>
      <trkpt lat="43.57263" lon="3.18285">
        <ele>392.639693</ele>
        <time>2025-10-23T12:19:55Z</time>
      </trkpt>
      <trkpt lat="43.57262" lon="3.18283">
        <ele>392.76262</ele>
        <time>2025-10-23T12:19:56Z</time>
      </trkpt>
      <trkpt lat="43.57261" lon="3.18281">
        <ele>392.907197</ele>
        <time>2025-10-23T12:19:57Z</time>
      </trkpt>
      <trkpt lat="43.5726" lon="3.18279">
        <ele>393.067513</ele>
        <time>2025-10-23T12:19:58Z</time>
      </trkpt>
      <trkpt lat="43.57258" lon="3.18278">
        <ele>393.18926</ele>
        <time>2025-10-23T12:19:59Z</time>
      </trkpt>
      <trkpt lat="43.57256" lon="3.18276">
        <ele>393.299652</ele>
        <time>2025-10-23T12:20:00Z</time>
      </trkpt>
      <trkpt lat="43.57254" lon="3.18276">
        <ele>393.393183</ele>
        <time>2025-10-23T12:20:01Z</time>
      </trkpt>
      <trkpt lat="43.57252" lon="3.18276">
        <ele>393.472269</ele>
        <time>2025-10-23T12:20:02Z</time>
      </trkpt>
      <trkpt lat="43.5725" lon="3.18277">
        <ele>393.5619</ele>
        <time>2025-10-23T12:20:03Z</time>
      </trkpt>
      <trkpt lat="43.57249" lon="3.18278">
        <ele>393.635162</ele>
        <time>2025-10-23T12:20:04Z</time>
      </trkpt>
      <trkpt lat="43.57248" lon="3.1828">
        <ele>393.716124</ele>
        <time>2025-10-23T12:20:05Z</time>
      </trkpt>
      <trkpt lat="43.57247" lon="3.18282">
        <ele>393.80874</ele>
        <time>2025-10-23T12:20:06Z</time>
      </trkpt>
      <trkpt lat="43.57246" lon="3.18284">
        <ele>393.915614</ele>
        <time>2025-10-23T12:20:07Z</time>
      </trkpt>
      <trkpt lat="43.57245" lon="3.18287">
        <ele>394.02257</ele>
        <time>2025-10-23T12:20:08Z</time>
      </trkpt>
      <trkpt lat="43.57243" lon="3.18289">
        <ele>394.117905</ele>
        <time>2025-10-23T12:20:09Z</time>
      </trkpt>
      <trkpt lat="43.57242" lon="3.18292">
        <ele>394.229242</ele>
        <time>2025-10-23T12:20:10Z</time>
      </trkpt>
      <trkpt lat="43.57242" lon="3.18294">
        <ele>394.328806</ele>
        <time>2025-10-23T12:20:11Z</time>
      </trkpt>
      <trkpt lat="43.5724" lon="3.18297">
        <ele>394.430092</ele>
        <time>2025-10-23T12:20:12Z</time>
      </trkpt>
      <trkpt lat="43.57239" lon="3.183">
        <ele>394.555446</ele>
        <time>2025-10-23T12:20:13Z</time>
      </trkpt>
      <trkpt lat="43.57239" lon="3.18303">
        <ele>394.684943</ele>
        <time>2025-10-23T12:20:14Z</time>
      </trkpt>
      <trkpt lat="43.57238" lon="3.18307">
        <ele>394.815816</ele>
        <time>2025-10-23T12:20:15Z</time>
      </trkpt>
      <trkpt lat="43.57236" lon="3.1831">
        <ele>394.945371</ele>
        <time>2025-10-23T12:20:16Z</time>
      </trkpt>
      <trkpt lat="43.57235" lon="3.18314">
        <ele>395.091316</ele>
        <time>2025-10-23T12:20:17Z</time>
      </trkpt>
      <trkpt lat="43.57234" lon="3.18318">
        <ele>395.233902</ele>
        <time>2025-10-23T12:20:18Z</time>
      </trkpt>
      <trkpt lat="43.57233" lon="3.18322">
        <ele>395.385021</ele>
        <time>2025-10-23T12:20:19Z</time>
      </trkpt>
      <trkpt lat="43.57232" lon="3.18326">
        <ele>395.540253</ele>
        <time>2025-10-23T12:20:20Z</time>
      </trkpt>
      <trkpt lat="43.5723" lon="3.18329">
        <ele>395.690882</ele>
        <time>2025-10-23T12:20:21Z</time>
      </trkpt>
      <trkpt lat="43.57228" lon="3.18333">
        <ele>395.846885</ele>
        <time>2025-10-23T12:20:22Z</time>
      </trkpt>
      <trkpt lat="43.57227" lon="3.18336">
        <ele>395.993545</ele>
        <time>2025-10-23T12:20:23Z</time>
      </trkpt>
      <trkpt lat="43.57226" lon="3.1834">
        <ele>396.144761</ele>
        <time>2025-10-23T12:20:24Z</time>
      </trkpt>
      <trkpt lat="43.57224" lon="3.18344">
        <ele>396.296806</ele>
        <time>2025-10-23T12:20:25Z</time>
      </trkpt>
      <trkpt lat="43.57222" lon="3.18347">
        <ele>396.444128</ele>
        <time>2025-10-23T12:20:26Z</time>
      </trkpt>
      <trkpt lat="43.57221" lon="3.1835">
        <ele>396.588617</ele>
        <time>2025-10-23T12:20:27Z</time>
      </trkpt>
      <trkpt lat="43.57219" lon="3.18354">
        <ele>396.741698</ele>
        <time>2025-10-23T12:20:28Z</time>
      </trkpt>
      <trkpt lat="43.57217" lon="3.18358">
        <ele>396.897958</ele>
        <time>2025-10-23T12:20:29Z</time>
      </trkpt>
      <trkpt lat="43.57215" lon="3.18361">
        <ele>397.048243</ele>
        <time>2025-10-23T12:20:30Z</time>
      </trkpt>
      <trkpt lat="43.57214" lon="3.18365">
        <ele>397.198872</ele>
        <time>2025-10-23T12:20:31Z</time>
      </trkpt>
      <trkpt lat="43.57212" lon="3.18368">
        <ele>397.349059</ele>
        <time>2025-10-23T12:20:32Z</time>
      </trkpt>
      <trkpt lat="43.5721" lon="3.18371">
        <ele>397.484808</ele>
        <time>2025-10-23T12:20:33Z</time>
      </trkpt>
      <trkpt lat="43.57209" lon="3.18374">
        <ele>397.614811</ele>
        <time>2025-10-23T12:20:34Z</time>
      </trkpt>
      <trkpt lat="43.57207" lon="3.18377">
        <ele>397.747671</ele>
        <time>2025-10-23T12:20:35Z</time>
      </trkpt>
      <trkpt lat="43.57206" lon="3.1838">
        <ele>397.872077</ele>
        <time>2025-10-23T12:20:36Z</time>
      </trkpt>
      <trkpt lat="43.57204" lon="3.18383">
        <ele>398.01074</ele>
        <time>2025-10-23T12:20:37Z</time>
      </trkpt>
      <trkpt lat="43.57203" lon="3.18386">
        <ele>398.144064</ele>
        <time>2025-10-23T12:20:38Z</time>
      </trkpt>
      <trkpt lat="43.57201" lon="3.1839">
        <ele>398.286654</ele>
        <time>2025-10-23T12:20:39Z</time>
      </trkpt>
      <trkpt lat="43.572" lon="3.18393">
        <ele>398.427987</ele>
        <time>2025-10-23T12:20:40Z</time>
      </trkpt>
      <trkpt lat="43.57199" lon="3.18397">
        <ele>398.568832</ele>
        <time>2025-10-23T12:20:41Z</time>
      </trkpt>
      <trkpt lat="43.57198" lon="3.184">
        <ele>398.684859</ele>
        <time>2025-10-23T12:20:42Z</time>
      </trkpt>
      <trkpt lat="43.57197" lon="3.18403">
        <ele>398.80397</ele>
        <time>2025-10-23T12:20:43Z</time>
      </trkpt>
      <trkpt lat="43.57195" lon="3.18406">
        <ele>398.92619</ele>
        <time>2025-10-23T12:20:44Z</time>
      </trkpt>
      <trkpt lat="43.57194" lon="3.18409">
        <ele>399.047217</ele>
        <time>2025-10-23T12:20:45Z</time>
      </trkpt>
      <trkpt lat="43.57193" lon="3.18411">
        <ele>399.151536</ele>
        <time>2025-10-23T12:20:46Z</time>
      </trkpt>
      <trkpt lat="43.57192" lon="3.18414">
        <ele>399.252823</ele>
        <time>2025-10-23T12:20:47Z</time>
      </trkpt>
      <trkpt lat="43.57191" lon="3.18416">
        <ele>399.35978</ele>
        <time>2025-10-23T12:20:48Z</time>
      </trkpt>
      <trkpt lat="43.5719" lon="3.18419">
        <ele>399.464099</ele>
        <time>2025-10-23T12:20:49Z</time>
      </trkpt>
      <trkpt lat="43.57189" lon="3.18421">
        <ele>399.571238</ele>
        <time>2025-10-23T12:20:50Z</time>
      </trkpt>
      <trkpt lat="43.57187" lon="3.18423">
        <ele>399.678983</ele>
        <time>2025-10-23T12:20:51Z</time>
      </trkpt>
      <trkpt lat="43.57186" lon="3.18426">
        <ele>399.792029</ele>
        <time>2025-10-23T12:20:52Z</time>
      </trkpt>
      <trkpt lat="43.57184" lon="3.18428">
        <ele>399.910568</ele>
        <time>2025-10-23T12:20:53Z</time>
      </trkpt>
      <trkpt lat="43.57182" lon="3.1843">
        <ele>400.034684</ele>
        <time>2025-10-23T12:20:54Z</time>
      </trkpt>
      <trkpt lat="43.57179" lon="3.18432">
        <ele>400.169145</ele>
        <time>2025-10-23T12:20:55Z</time>
      </trkpt>
      <trkpt lat="43.57177" lon="3.18433">
        <ele>400.299442</ele>
        <time>2025-10-23T12:20:56Z</time>
      </trkpt>
      <trkpt lat="43.57174" lon="3.18433">
        <ele>400.428669</ele>
        <time>2025-10-23T12:20:57Z</time>
      </trkpt>
      <trkpt lat="43.57172" lon="3.18434">
        <ele>400.560624</ele>
        <time>2025-10-23T12:20:58Z</time>
      </trkpt>
      <trkpt lat="43.57169" lon="3.18435">
        <ele>400.684156</ele>
        <time>2025-10-23T12:20:59Z</time>
      </trkpt>
      <trkpt lat="43.57167" lon="3.18435">
        <ele>400.802355</ele>
        <time>2025-10-23T12:21:00Z</time>
      </trkpt>
      <trkpt lat="43.57164" lon="3.18434">
        <ele>400.926708</ele>
        <time>2025-10-23T12:21:01Z</time>
      </trkpt>
      <trkpt lat="43.57162" lon="3.18433">
        <ele>401.041935</ele>
        <time>2025-10-23T12:21:02Z</time>
      </trkpt>
      <trkpt lat="43.5716" lon="3.18433">
        <ele>401.15117</ele>
        <time>2025-10-23T12:21:03Z</time>
      </trkpt>
      <trkpt lat="43.57157" lon="3.18433">
        <ele>401.279359</ele>
        <time>2025-10-23T12:21:04Z</time>
      </trkpt>
      <trkpt lat="43.57155" lon="3.18433">
        <ele>401.397719</ele>
        <time>2025-10-23T12:21:05Z</time>
      </trkpt>
      <trkpt lat="43.57152" lon="3.18432">
        <ele>401.516348</ele>
        <time>2025-10-23T12:21:06Z</time>
      </trkpt>
      <trkpt lat="43.5715" lon="3.18432">
        <ele>401.624882</ele>
        <time>2025-10-23T12:21:07Z</time>
      </trkpt>
      <trkpt lat="43.57148" lon="3.18432">
        <ele>401.728505</ele>
        <time>2025-10-23T12:21:08Z</time>
      </trkpt>
      <trkpt lat="43.57146" lon="3.18432">
        <ele>401.827024</ele>
        <time>2025-10-23T12:21:09Z</time>
      </trkpt>
      <trkpt lat="43.57144" lon="3.18432">
        <ele>401.925543</ele>
        <time>2025-10-23T12:21:10Z</time>
      </trkpt>
      <trkpt lat="43.57142" lon="3.18432">
        <ele>402.047929</ele>
        <time>2025-10-23T12:21:11Z</time>
      </trkpt>
      <trkpt lat="43.5714" lon="3.18433">
        <ele>402.176038</ele>
        <time>2025-10-23T12:21:12Z</time>
      </trkpt>
      <trkpt lat="43.57137" lon="3.18433">
        <ele>402.311681</ele>
        <time>2025-10-23T12:21:13Z</time>
      </trkpt>
      <trkpt lat="43.57136" lon="3.18434">
        <ele>402.418082</ele>
        <time>2025-10-23T12:21:14Z</time>
      </trkpt>
      <trkpt lat="43.57135" lon="3.18434">
        <ele>402.461018</ele>
        <time>2025-10-23T12:21:15Z</time>
      </trkpt>
      <trkpt lat="43.57135" lon="3.18434">
        <ele>402.473614</ele>
        <time>2025-10-23T12:21:16Z</time>
      </trkpt>
      <trkpt lat="43.57135" lon="3.18434">
        <ele>402.473614</ele>
        <time>2025-10-23T12:21:17Z</time>
      </trkpt>
      <trkpt lat="43.57131" lon="3.18436">
        <ele>402.725017</ele>
        <time>2025-10-23T12:21:51Z</time>
      </trkpt>
      <trkpt lat="43.57129" lon="3.18435">
        <ele>402.847864</ele>
        <time>2025-10-23T12:21:52Z</time>
      </trkpt>
      <trkpt lat="43.57126" lon="3.18435">
        <ele>402.986943</ele>
        <time>2025-10-23T12:21:53Z</time>
      </trkpt>
      <trkpt lat="43.57124" lon="3.18435">
        <ele>403.143462</ele>
        <time>2025-10-23T12:21:54Z</time>
      </trkpt>
      <trkpt lat="43.57121" lon="3.18435">
        <ele>403.323105</ele>
        <time>2025-10-23T12:21:55Z</time>
      </trkpt>
      <trkpt lat="43.57117" lon="3.18435">
        <ele>403.520178</ele>
        <time>2025-10-23T12:21:56Z</time>
      </trkpt>
      <trkpt lat="43.57113" lon="3.18435">
        <ele>403.741025</ele>
        <time>2025-10-23T12:21:57Z</time>
      </trkpt>
      <trkpt lat="43.57109" lon="3.18434">
        <ele>403.98098</ele>
        <time>2025-10-23T12:21:58Z</time>
      </trkpt>
      <trkpt lat="43.57105" lon="3.18432">
        <ele>404.253951</ele>
        <time>2025-10-23T12:21:59Z</time>
      </trkpt>
      <trkpt lat="43.571" lon="3.18431">
        <ele>404.543923</ele>
        <time>2025-10-23T12:22:00Z</time>
      </trkpt>
      <trkpt lat="43.57095" lon="3.1843">
        <ele>404.847126</ele>
        <time>2025-10-23T12:22:01Z</time>
      </trkpt>
      <trkpt lat="43.5709" lon="3.1843">
        <ele>405.12107</ele>
        <time>2025-10-23T12:22:02Z</time>
      </trkpt>
      <trkpt lat="43.57086" lon="3.18429">
        <ele>405.358811</ele>
        <time>2025-10-23T12:22:03Z</time>
      </trkpt>
      <trkpt lat="43.57082" lon="3.18429">
        <ele>405.567597</ele>
        <time>2025-10-23T12:22:04Z</time>
      </trkpt>
      <trkpt lat="43.57079" lon="3.18429">
        <ele>405.737528</ele>
        <time>2025-10-23T12:22:05Z</time>
      </trkpt>
      <trkpt lat="43.57077" lon="3.18428">
        <ele>405.894217</ele>
        <time>2025-10-23T12:22:06Z</time>
      </trkpt>
      <trkpt lat="43.57074" lon="3.18429">
        <ele>406.045119</ele>
        <time>2025-10-23T12:22:07Z</time>
      </trkpt>
      <trkpt lat="43.57072" lon="3.18429">
        <ele>406.173709</ele>
        <time>2025-10-23T12:22:08Z</time>
      </trkpt>
      <trkpt lat="43.5707" lon="3.18429">
        <ele>406.302299</ele>
        <time>2025-10-23T12:22:09Z</time>
      </trkpt>
      <trkpt lat="43.57067" lon="3.1843">
        <ele>406.431505</ele>
        <time>2025-10-23T12:22:10Z</time>
      </trkpt>
      <trkpt lat="43.57065" lon="3.1843">
        <ele>406.564788</ele>
        <time>2025-10-23T12:22:11Z</time>
      </trkpt>
      <trkpt lat="43.57063" lon="3.1843">
        <ele>406.698336</ele>
        <time>2025-10-23T12:22:12Z</time>
      </trkpt>
      <trkpt lat="43.57061" lon="3.1843">
        <ele>406.820319</ele>
        <time>2025-10-23T12:22:13Z</time>
      </trkpt>
      <trkpt lat="43.57059" lon="3.1843">
        <ele>406.944593</ele>
        <time>2025-10-23T12:22:14Z</time>
      </trkpt>
      <trkpt lat="43.57056" lon="3.18429">
        <ele>407.070837</ele>
        <time>2025-10-23T12:22:15Z</time>
      </trkpt>
      <trkpt lat="43.57055" lon="3.18428">
        <ele>407.183786</ele>
        <time>2025-10-23T12:22:16Z</time>
      </trkpt>
      <trkpt lat="43.57052" lon="3.18428">
        <ele>407.305769</ele>
        <time>2025-10-23T12:22:17Z</time>
      </trkpt>
      <trkpt lat="43.5705" lon="3.18428">
        <ele>407.433258</ele>
        <time>2025-10-23T12:22:18Z</time>
      </trkpt>
      <trkpt lat="43.57048" lon="3.18427">
        <ele>407.564091</ele>
        <time>2025-10-23T12:22:19Z</time>
      </trkpt>
      <trkpt lat="43.57046" lon="3.18426">
        <ele>407.692824</ele>
        <time>2025-10-23T12:22:20Z</time>
      </trkpt>
      <trkpt lat="43.57044" lon="3.18427">
        <ele>407.820933</ele>
        <time>2025-10-23T12:22:21Z</time>
      </trkpt>
      <trkpt lat="43.57042" lon="3.18426">
        <ele>407.93302</ele>
        <time>2025-10-23T12:22:22Z</time>
      </trkpt>
      <trkpt lat="43.5704" lon="3.18426">
        <ele>408.06113</ele>
        <time>2025-10-23T12:22:23Z</time>
      </trkpt>
      <trkpt lat="43.57037" lon="3.18425">
        <ele>408.190335</ele>
        <time>2025-10-23T12:22:24Z</time>
      </trkpt>
      <trkpt lat="43.57035" lon="3.18425">
        <ele>408.317893</ele>
        <time>2025-10-23T12:22:25Z</time>
      </trkpt>
      <trkpt lat="43.57033" lon="3.18425">
        <ele>408.440237</ele>
        <time>2025-10-23T12:22:26Z</time>
      </trkpt>
      <trkpt lat="43.57031" lon="3.18425">
        <ele>408.556136</ele>
        <time>2025-10-23T12:22:27Z</time>
      </trkpt>
      <trkpt lat="43.57029" lon="3.18425">
        <ele>408.677902</ele>
        <time>2025-10-23T12:22:28Z</time>
      </trkpt>
      <trkpt lat="43.57027" lon="3.18425">
        <ele>408.811252</ele>
        <time>2025-10-23T12:22:29Z</time>
      </trkpt>
      <trkpt lat="43.57025" lon="3.18425">
        <ele>408.932945</ele>
        <time>2025-10-23T12:22:30Z</time>
      </trkpt>
      <trkpt lat="43.57022" lon="3.18425">
        <ele>409.067872</ele>
        <time>2025-10-23T12:22:31Z</time>
      </trkpt>
      <trkpt lat="43.5702" lon="3.18426">
        <ele>409.197078</ele>
        <time>2025-10-23T12:22:32Z</time>
      </trkpt>
      <trkpt lat="43.57018" lon="3.18426">
        <ele>409.314187</ele>
        <time>2025-10-23T12:22:33Z</time>
      </trkpt>
      <trkpt lat="43.57016" lon="3.18426">
        <ele>409.425009</ele>
        <time>2025-10-23T12:22:34Z</time>
      </trkpt>
      <trkpt lat="43.57014" lon="3.18427">
        <ele>409.529655</ele>
        <time>2025-10-23T12:22:35Z</time>
      </trkpt>
      <trkpt lat="43.57013" lon="3.18427">
        <ele>409.633738</ele>
        <time>2025-10-23T12:22:36Z</time>
      </trkpt>
      <trkpt lat="43.57011" lon="3.18428">
        <ele>409.738805</ele>
        <time>2025-10-23T12:22:37Z</time>
      </trkpt>
      <trkpt lat="43.57009" lon="3.18429">
        <ele>409.851247</ele>
        <time>2025-10-23T12:22:38Z</time>
      </trkpt>
      <trkpt lat="43.57007" lon="3.1843">
        <ele>409.980226</ele>
        <time>2025-10-23T12:22:39Z</time>
      </trkpt>
      <trkpt lat="43.57005" lon="3.18432">
        <ele>410.10131</ele>
        <time>2025-10-23T12:22:40Z</time>
      </trkpt>
      <trkpt lat="43.57003" lon="3.18432">
        <ele>410.228736</ele>
        <time>2025-10-23T12:22:41Z</time>
      </trkpt>
      <trkpt lat="43.57002" lon="3.18434">
        <ele>410.34121</ele>
        <time>2025-10-23T12:22:42Z</time>
      </trkpt>
      <trkpt lat="43.57001" lon="3.18436">
        <ele>410.450962</ele>
        <time>2025-10-23T12:22:43Z</time>
      </trkpt>
      <trkpt lat="43.57" lon="3.18439">
        <ele>410.577589</ele>
        <time>2025-10-23T12:22:44Z</time>
      </trkpt>
      <trkpt lat="43.57" lon="3.18442">
        <ele>410.67571</ele>
        <time>2025-10-23T12:22:45Z</time>
      </trkpt>
      <trkpt lat="43.57" lon="3.18444">
        <ele>410.773831</ele>
        <time>2025-10-23T12:22:46Z</time>
      </trkpt>
      <trkpt lat="43.57" lon="3.18447">
        <ele>410.885429</ele>
        <time>2025-10-23T12:22:47Z</time>
      </trkpt>
      <trkpt lat="43.57" lon="3.1845">
        <ele>411.012582</ele>
        <time>2025-10-23T12:22:48Z</time>
      </trkpt>
      <trkpt lat="43.57001" lon="3.18452">
        <ele>411.119179</ele>
        <time>2025-10-23T12:22:49Z</time>
      </trkpt>
      <trkpt lat="43.57002" lon="3.18454">
        <ele>411.230098</ele>
        <time>2025-10-23T12:22:50Z</time>
      </trkpt>
      <trkpt lat="43.57002" lon="3.18457">
        <ele>411.332735</ele>
        <time>2025-10-23T12:22:51Z</time>
      </trkpt>
      <trkpt lat="43.57003" lon="3.18459">
        <ele>411.443275</ele>
        <time>2025-10-23T12:22:52Z</time>
      </trkpt>
      <trkpt lat="43.57003" lon="3.18462">
        <ele>411.557843</ele>
        <time>2025-10-23T12:22:53Z</time>
      </trkpt>
      <trkpt lat="43.57004" lon="3.18465">
        <ele>411.677668</ele>
        <time>2025-10-23T12:22:54Z</time>
      </trkpt>
      <trkpt lat="43.57005" lon="3.18467">
        <ele>411.78671</ele>
        <time>2025-10-23T12:22:55Z</time>
      </trkpt>
      <trkpt lat="43.57006" lon="3.18469">
        <ele>411.88941</ele>
        <time>2025-10-23T12:22:56Z</time>
      </trkpt>
      <trkpt lat="43.57007" lon="3.1847">
        <ele>411.985108</ele>
        <time>2025-10-23T12:22:57Z</time>
      </trkpt>
      <trkpt lat="43.57008" lon="3.18471">
        <ele>412.036458</ele>
        <time>2025-10-23T12:22:58Z</time>
      </trkpt>
      <trkpt lat="43.57008" lon="3.18471">
        <ele>412.048047</ele>
        <time>2025-10-23T12:22:59Z</time>
      </trkpt>
      <trkpt lat="43.57008" lon="3.18472">
        <ele>412.064842</ele>
        <time>2025-10-23T12:23:00Z</time>
      </trkpt>
      <trkpt lat="43.57008" lon="3.18472">
        <ele>412.079154</ele>
        <time>2025-10-23T12:23:01Z</time>
      </trkpt>
      <trkpt lat="43.57009" lon="3.18471">
        <ele>412.133946</ele>
        <time>2025-10-23T12:23:02Z</time>
      </trkpt>
      <trkpt lat="43.57009" lon="3.18471">
        <ele>412.171767</ele>
        <time>2025-10-23T12:23:03Z</time>
      </trkpt>
      <trkpt lat="43.57009" lon="3.18471">
        <ele>412.189652</ele>
        <time>2025-10-23T12:23:04Z</time>
      </trkpt>
      <trkpt lat="43.5701" lon="3.18471">
        <ele>412.213209</ele>
        <time>2025-10-23T12:23:05Z</time>
      </trkpt>
      <trkpt lat="43.5701" lon="3.18471">
        <ele>412.220365</ele>
        <time>2025-10-23T12:23:06Z</time>
      </trkpt>
      <trkpt lat="43.57008" lon="3.18473">
        <ele>412.365397</ele>
        <time>2025-10-23T12:29:02Z</time>
      </trkpt>
      <trkpt lat="43.57008" lon="3.18472">
        <ele>412.374511</ele>
        <time>2025-10-23T12:29:03Z</time>
      </trkpt>
      <trkpt lat="43.57008" lon="3.18472">
        <ele>412.36984</ele>
        <time>2025-10-23T12:29:04Z</time>
      </trkpt>
      <trkpt lat="43.57008" lon="3.18472">
        <ele>412.354753</ele>
        <time>2025-10-23T12:29:05Z</time>
      </trkpt>
      <trkpt lat="43.57007" lon="3.18471">
        <ele>412.325525</ele>
        <time>2025-10-23T12:29:06Z</time>
      </trkpt>
      <trkpt lat="43.57006" lon="3.18469">
        <ele>412.291701</ele>
        <time>2025-10-23T12:29:07Z</time>
      </trkpt>
      <trkpt lat="43.57005" lon="3.18468">
        <ele>412.258432</ele>
        <time>2025-10-23T12:29:08Z</time>
      </trkpt>
      <trkpt lat="43.57004" lon="3.18465">
        <ele>412.212182</ele>
        <time>2025-10-23T12:29:09Z</time>
      </trkpt>
      <trkpt lat="43.57003" lon="3.18463">
        <ele>412.160345</ele>
        <time>2025-10-23T12:29:10Z</time>
      </trkpt>
      <trkpt lat="43.57002" lon="3.18459">
        <ele>412.100674</ele>
        <time>2025-10-23T12:29:11Z</time>
      </trkpt>
      <trkpt lat="43.57001" lon="3.18456">
        <ele>412.036951</ele>
        <time>2025-10-23T12:29:12Z</time>
      </trkpt>
      <trkpt lat="43.57001" lon="3.18452">
        <ele>411.969985</ele>
        <time>2025-10-23T12:29:13Z</time>
      </trkpt>
      <trkpt lat="43.57" lon="3.18448">
        <ele>411.900249</ele>
        <time>2025-10-23T12:29:14Z</time>
      </trkpt>
      <trkpt lat="43.57" lon="3.18443">
        <ele>411.827444</ele>
        <time>2025-10-23T12:29:15Z</time>
      </trkpt>
      <trkpt lat="43.57" lon="3.18439">
        <ele>411.75806</ele>
        <time>2025-10-23T12:29:16Z</time>
      </trkpt>
      <trkpt lat="43.57" lon="3.18435">
        <ele>411.685143</ele>
        <time>2025-10-23T12:29:17Z</time>
      </trkpt>
      <trkpt lat="43.57" lon="3.18431">
        <ele>411.617452</ele>
        <time>2025-10-23T12:29:18Z</time>
      </trkpt>
      <trkpt lat="43.57" lon="3.18428">
        <ele>411.558176</ele>
        <time>2025-10-23T12:29:19Z</time>
      </trkpt>
      <trkpt lat="43.57" lon="3.18424">
        <ele>411.505508</ele>
        <time>2025-10-23T12:29:20Z</time>
      </trkpt>
      <trkpt lat="43.57002" lon="3.18423">
        <ele>411.461955</ele>
        <time>2025-10-23T12:29:21Z</time>
      </trkpt>
      <trkpt lat="43.57004" lon="3.18422">
        <ele>411.412181</ele>
        <time>2025-10-23T12:29:22Z</time>
      </trkpt>
      <trkpt lat="43.57006" lon="3.18423">
        <ele>411.369019</ele>
        <time>2025-10-23T12:29:23Z</time>
      </trkpt>
      <trkpt lat="43.57008" lon="3.18424">
        <ele>411.319334</ele>
        <time>2025-10-23T12:29:24Z</time>
      </trkpt>
      <trkpt lat="43.5701" lon="3.18425">
        <ele>411.260722</ele>
        <time>2025-10-23T12:29:25Z</time>
      </trkpt>
      <trkpt lat="43.57013" lon="3.18424">
        <ele>411.185961</ele>
        <time>2025-10-23T12:29:26Z</time>
      </trkpt>
      <trkpt lat="43.57016" lon="3.18424">
        <ele>411.111971</ele>
        <time>2025-10-23T12:29:27Z</time>
      </trkpt>
      <trkpt lat="43.5702" lon="3.18423">
        <ele>411.036296</ele>
        <time>2025-10-23T12:29:28Z</time>
      </trkpt>
      <trkpt lat="43.57023" lon="3.18422">
        <ele>410.958039</ele>
        <time>2025-10-23T12:29:29Z</time>
      </trkpt>
      <trkpt lat="43.57026" lon="3.18422">
        <ele>410.880665</ele>
        <time>2025-10-23T12:29:30Z</time>
      </trkpt>
      <trkpt lat="43.5703" lon="3.18422">
        <ele>410.789432</ele>
        <time>2025-10-23T12:29:31Z</time>
      </trkpt>
      <trkpt lat="43.57034" lon="3.18423">
        <ele>410.694772</ele>
        <time>2025-10-23T12:29:32Z</time>
      </trkpt>
      <trkpt lat="43.57039" lon="3.18424">
        <ele>410.59033</ele>
        <time>2025-10-23T12:29:33Z</time>
      </trkpt>
      <trkpt lat="43.57043" lon="3.18425">
        <ele>410.484864</ele>
        <time>2025-10-23T12:29:34Z</time>
      </trkpt>
      <trkpt lat="43.57048" lon="3.18427">
        <ele>410.372218</ele>
        <time>2025-10-23T12:29:35Z</time>
      </trkpt>
      <trkpt lat="43.57052" lon="3.18429">
        <ele>410.266753</ele>
        <time>2025-10-23T12:29:36Z</time>
      </trkpt>
      <trkpt lat="43.57056" lon="3.1843">
        <ele>410.16055</ele>
        <time>2025-10-23T12:29:37Z</time>
      </trkpt>
      <trkpt lat="43.57061" lon="3.1843">
        <ele>410.05263</ele>
        <time>2025-10-23T12:29:38Z</time>
      </trkpt>
      <trkpt lat="43.57066" lon="3.1843">
        <ele>409.945175</ele>
        <time>2025-10-23T12:29:39Z</time>
      </trkpt>
      <trkpt lat="43.5707" lon="3.1843">
        <ele>409.839947</ele>
        <time>2025-10-23T12:29:40Z</time>
      </trkpt>
      <trkpt lat="43.57075" lon="3.18429">
        <ele>409.73629</ele>
        <time>2025-10-23T12:29:41Z</time>
      </trkpt>
      <trkpt lat="43.57079" lon="3.18429">
        <ele>409.630844</ele>
        <time>2025-10-23T12:29:42Z</time>
      </trkpt>
      <trkpt lat="43.57083" lon="3.18429">
        <ele>409.530353</ele>
        <time>2025-10-23T12:29:43Z</time>
      </trkpt>
      <trkpt lat="43.57087" lon="3.18429">
        <ele>409.436788</ele>
        <time>2025-10-23T12:29:44Z</time>
      </trkpt>
      <trkpt lat="43.57091" lon="3.1843">
        <ele>409.344138</ele>
        <time>2025-10-23T12:29:45Z</time>
      </trkpt>
      <trkpt lat="43.57095" lon="3.18431">
        <ele>409.251344</ele>
        <time>2025-10-23T12:29:46Z</time>
      </trkpt>
      <trkpt lat="43.57098" lon="3.18433">
        <ele>409.17241</ele>
        <time>2025-10-23T12:29:47Z</time>
      </trkpt>
      <trkpt lat="43.57101" lon="3.18435">
        <ele>409.105213</ele>
        <time>2025-10-23T12:29:48Z</time>
      </trkpt>
      <trkpt lat="43.57102" lon="3.18437">
        <ele>409.0565</ele>
        <time>2025-10-23T12:29:49Z</time>
      </trkpt>
      <trkpt lat="43.57103" lon="3.18439">
        <ele>409.016658</ele>
        <time>2025-10-23T12:29:50Z</time>
      </trkpt>
      <trkpt lat="43.57104" lon="3.1844">
        <ele>408.990587</ele>
        <time>2025-10-23T12:29:51Z</time>
      </trkpt>
      <trkpt lat="43.57105" lon="3.18441">
        <ele>408.968463</ele>
        <time>2025-10-23T12:29:52Z</time>
      </trkpt>
      <trkpt lat="43.57105" lon="3.18441">
        <ele>408.961303</ele>
        <time>2025-10-23T12:29:53Z</time>
      </trkpt>
      <trkpt lat="43.57105" lon="3.18441">
        <ele>408.959611</ele>
        <time>2025-10-23T12:29:54Z</time>
      </trkpt>
      <trkpt lat="43.57105" lon="3.18441">
        <ele>408.959611</ele>
        <time>2025-10-23T12:29:55Z</time>
      </trkpt>
      <trkpt lat="43.57105" lon="3.18441">
        <ele>408.959611</ele>
        <time>2025-10-23T12:29:56Z</time>
      </trkpt>
      <trkpt lat="43.57105" lon="3.18441">
        <ele>408.959611</ele>
        <time>2025-10-23T12:29:57Z</time>
      </trkpt>
      <trkpt lat="43.57105" lon="3.18441">
        <ele>408.956726</ele>
        <time>2025-10-23T12:29:58Z</time>
      </trkpt>
      <trkpt lat="43.57105" lon="3.18441">
        <ele>408.948945</ele>
        <time>2025-10-23T12:29:59Z</time>
      </trkpt>
      <trkpt lat="43.57106" lon="3.18441">
        <ele>408.922375</ele>
        <time>2025-10-23T12:30:00Z</time>
      </trkpt>
      <trkpt lat="43.57107" lon="3.18439">
        <ele>408.892202</ele>
        <time>2025-10-23T12:30:01Z</time>
      </trkpt>
      <trkpt lat="43.57108" lon="3.18437">
        <ele>408.85236</ele>
        <time>2025-10-23T12:30:02Z</time>
      </trkpt>
      <trkpt lat="43.57109" lon="3.18436">
        <ele>408.815661</ele>
        <time>2025-10-23T12:30:03Z</time>
      </trkpt>
      <trkpt lat="43.57111" lon="3.18435">
        <ele>408.774637</ele>
        <time>2025-10-23T12:30:04Z</time>
      </trkpt>
      <trkpt lat="43.57112" lon="3.18434">
        <ele>408.731752</ele>
        <time>2025-10-23T12:30:05Z</time>
      </trkpt>
      <trkpt lat="43.57115" lon="3.18434">
        <ele>408.682586</ele>
        <time>2025-10-23T12:30:06Z</time>
      </trkpt>
      <trkpt lat="43.57117" lon="3.18435">
        <ele>408.632497</ele>
        <time>2025-10-23T12:30:07Z</time>
      </trkpt>
      <trkpt lat="43.57119" lon="3.18436">
        <ele>408.582723</ele>
        <time>2025-10-23T12:30:08Z</time>
      </trkpt>
      <trkpt lat="43.57121" lon="3.18436">
        <ele>408.538056</ele>
        <time>2025-10-23T12:30:09Z</time>
      </trkpt>
      <trkpt lat="43.57123" lon="3.18436">
        <ele>408.486227</ele>
        <time>2025-10-23T12:30:10Z</time>
      </trkpt>
      <trkpt lat="43.57125" lon="3.18436">
        <ele>408.437061</ele>
        <time>2025-10-23T12:30:11Z</time>
      </trkpt>
      <trkpt lat="43.57127" lon="3.18437">
        <ele>408.385565</ele>
        <time>2025-10-23T12:30:12Z</time>
      </trkpt>
      <trkpt lat="43.57129" lon="3.18436">
        <ele>408.343217</ele>
        <time>2025-10-23T12:30:13Z</time>
      </trkpt>
      <trkpt lat="43.57131" lon="3.18436">
        <ele>408.29855</ele>
        <time>2025-10-23T12:30:14Z</time>
      </trkpt>
      <trkpt lat="43.57133" lon="3.18436">
        <ele>408.251349</ele>
        <time>2025-10-23T12:30:15Z</time>
      </trkpt>
      <trkpt lat="43.57135" lon="3.18435">
        <ele>408.202037</ele>
        <time>2025-10-23T12:30:16Z</time>
      </trkpt>
      <trkpt lat="43.57137" lon="3.18435">
        <ele>408.116345</ele>
        <time>2025-10-23T12:30:17Z</time>
      </trkpt>
      <trkpt lat="43.57139" lon="3.18435">
        <ele>408.012597</ele>
        <time>2025-10-23T12:30:18Z</time>
      </trkpt>
      <trkpt lat="43.57141" lon="3.18435">
        <ele>407.918237</ele>
        <time>2025-10-23T12:30:19Z</time>
      </trkpt>
      <trkpt lat="43.57143" lon="3.18434">
        <ele>407.819248</ele>
        <time>2025-10-23T12:30:20Z</time>
      </trkpt>
      <trkpt lat="43.57146" lon="3.18433">
        <ele>407.689974</ele>
        <time>2025-10-23T12:30:21Z</time>
      </trkpt>
      <trkpt lat="43.57149" lon="3.18433">
        <ele>407.556638</ele>
        <time>2025-10-23T12:30:22Z</time>
      </trkpt>
      <trkpt lat="43.57152" lon="3.18433">
        <ele>407.415427</ele>
        <time>2025-10-23T12:30:23Z</time>
      </trkpt>
      <trkpt lat="43.57156" lon="3.18433">
        <ele>407.244793</ele>
        <time>2025-10-23T12:30:24Z</time>
      </trkpt>
      <trkpt lat="43.5716" lon="3.18434">
        <ele>407.05138</ele>
        <time>2025-10-23T12:30:25Z</time>
      </trkpt>
      <trkpt lat="43.57164" lon="3.18434">
        <ele>406.848579</ele>
        <time>2025-10-23T12:30:26Z</time>
      </trkpt>
      <trkpt lat="43.57168" lon="3.18435">
        <ele>406.639742</ele>
        <time>2025-10-23T12:30:27Z</time>
      </trkpt>
      <trkpt lat="43.57173" lon="3.18434">
        <ele>406.424692</ele>
        <time>2025-10-23T12:30:28Z</time>
      </trkpt>
      <trkpt lat="43.57178" lon="3.18432">
        <ele>406.190633</ele>
        <time>2025-10-23T12:30:29Z</time>
      </trkpt>
      <trkpt lat="43.57182" lon="3.18429">
        <ele>405.955472</ele>
        <time>2025-10-23T12:30:30Z</time>
      </trkpt>
      <trkpt lat="43.57186" lon="3.18425">
        <ele>405.734659</ele>
        <time>2025-10-23T12:30:31Z</time>
      </trkpt>
      <trkpt lat="43.57189" lon="3.18421">
        <ele>405.52296</ele>
        <time>2025-10-23T12:30:32Z</time>
      </trkpt>
      <trkpt lat="43.57192" lon="3.18416">
        <ele>405.304851</ele>
        <time>2025-10-23T12:30:33Z</time>
      </trkpt>
      <trkpt lat="43.57194" lon="3.1841">
        <ele>405.085956</ele>
        <time>2025-10-23T12:30:34Z</time>
      </trkpt>
      <trkpt lat="43.57196" lon="3.18404">
        <ele>404.856695</ele>
        <time>2025-10-23T12:30:35Z</time>
      </trkpt>
      <trkpt lat="43.57198" lon="3.18398">
        <ele>404.625812</ele>
        <time>2025-10-23T12:30:36Z</time>
      </trkpt>
      <trkpt lat="43.572" lon="3.18391">
        <ele>404.378236</ele>
        <time>2025-10-23T12:30:37Z</time>
      </trkpt>
      <trkpt lat="43.57201" lon="3.18384">
        <ele>404.128212</ele>
        <time>2025-10-23T12:30:38Z</time>
      </trkpt>
      <trkpt lat="43.57204" lon="3.18378">
        <ele>403.87947</ele>
        <time>2025-10-23T12:30:39Z</time>
      </trkpt>
      <trkpt lat="43.57207" lon="3.18372">
        <ele>403.633729</ele>
        <time>2025-10-23T12:30:40Z</time>
      </trkpt>
      <trkpt lat="43.57211" lon="3.18366">
        <ele>403.376907</ele>
        <time>2025-10-23T12:30:41Z</time>
      </trkpt>
      <trkpt lat="43.57214" lon="3.1836">
        <ele>403.109083</ele>
        <time>2025-10-23T12:30:42Z</time>
      </trkpt>
      <trkpt lat="43.57217" lon="3.18353">
        <ele>402.846618</ele>
        <time>2025-10-23T12:30:43Z</time>
      </trkpt>
      <trkpt lat="43.5722" lon="3.18347">
        <ele>402.597541</ele>
        <time>2025-10-23T12:30:44Z</time>
      </trkpt>
      <trkpt lat="43.57222" lon="3.18341">
        <ele>402.373288</ele>
        <time>2025-10-23T12:30:45Z</time>
      </trkpt>
      <trkpt lat="43.57225" lon="3.18336">
        <ele>402.154394</ele>
        <time>2025-10-23T12:30:46Z</time>
      </trkpt>
      <trkpt lat="43.57228" lon="3.18331">
        <ele>401.94591</ele>
        <time>2025-10-23T12:30:47Z</time>
      </trkpt>
      <trkpt lat="43.5723" lon="3.18326">
        <ele>401.730298</ele>
        <time>2025-10-23T12:30:48Z</time>
      </trkpt>
      <trkpt lat="43.57232" lon="3.18321">
        <ele>401.518343</ele>
        <time>2025-10-23T12:30:49Z</time>
      </trkpt>
      <trkpt lat="43.57234" lon="3.18315">
        <ele>401.31538</ele>
        <time>2025-10-23T12:30:50Z</time>
      </trkpt>
      <trkpt lat="43.57237" lon="3.1831">
        <ele>401.115944</ele>
        <time>2025-10-23T12:30:51Z</time>
      </trkpt>
      <trkpt lat="43.57238" lon="3.18305">
        <ele>400.902638</ele>
        <time>2025-10-23T12:30:52Z</time>
      </trkpt>
      <trkpt lat="43.57239" lon="3.18298">
        <ele>400.68609</ele>
        <time>2025-10-23T12:30:53Z</time>
      </trkpt>
      <trkpt lat="43.57241" lon="3.18293">
        <ele>400.489613</ele>
        <time>2025-10-23T12:30:54Z</time>
      </trkpt>
      <trkpt lat="43.57243" lon="3.18288">
        <ele>400.279811</ele>
        <time>2025-10-23T12:30:55Z</time>
      </trkpt>
      <trkpt lat="43.57246" lon="3.18283">
        <ele>400.06988</ele>
        <time>2025-10-23T12:30:56Z</time>
      </trkpt>
      <trkpt lat="43.57249" lon="3.18278">
        <ele>399.862088</ele>
        <time>2025-10-23T12:30:57Z</time>
      </trkpt>
      <trkpt lat="43.57253" lon="3.18277">
        <ele>399.653814</ele>
        <time>2025-10-23T12:30:58Z</time>
      </trkpt>
      <trkpt lat="43.57256" lon="3.18277">
        <ele>399.348157</ele>
        <time>2025-10-23T12:30:59Z</time>
      </trkpt>
      <trkpt lat="43.5726" lon="3.18279">
        <ele>399.021401</ele>
        <time>2025-10-23T12:31:00Z</time>
      </trkpt>
      <trkpt lat="43.57262" lon="3.18283">
        <ele>398.736356</ele>
        <time>2025-10-23T12:31:01Z</time>
      </trkpt>
      <trkpt lat="43.57264" lon="3.18288">
        <ele>398.397025</ele>
        <time>2025-10-23T12:31:02Z</time>
      </trkpt>
      <trkpt lat="43.57265" lon="3.18295">
        <ele>398.009458</ele>
        <time>2025-10-23T12:31:03Z</time>
      </trkpt>
      <trkpt lat="43.57266" lon="3.18301">
        <ele>397.609182</ele>
        <time>2025-10-23T12:31:04Z</time>
      </trkpt>
      <trkpt lat="43.57268" lon="3.18309">
        <ele>397.159227</ele>
        <time>2025-10-23T12:31:05Z</time>
      </trkpt>
      <trkpt lat="43.5727" lon="3.18316">
        <ele>396.706997</ele>
        <time>2025-10-23T12:31:06Z</time>
      </trkpt>
      <trkpt lat="43.57271" lon="3.18324">
        <ele>396.218914</ele>
        <time>2025-10-23T12:31:07Z</time>
      </trkpt>
      <trkpt lat="43.57273" lon="3.18332">
        <ele>395.741946</ele>
        <time>2025-10-23T12:31:08Z</time>
      </trkpt>
      <trkpt lat="43.57276" lon="3.18339">
        <ele>395.253982</ele>
        <time>2025-10-23T12:31:09Z</time>
      </trkpt>
      <trkpt lat="43.5728" lon="3.18346">
        <ele>394.76327</ele>
        <time>2025-10-23T12:31:10Z</time>
      </trkpt>
      <trkpt lat="43.57283" lon="3.18353">
        <ele>394.296154</ele>
        <time>2025-10-23T12:31:11Z</time>
      </trkpt>
      <trkpt lat="43.57287" lon="3.18358">
        <ele>393.806853</ele>
        <time>2025-10-23T12:31:12Z</time>
      </trkpt>
      <trkpt lat="43.57292" lon="3.18364">
        <ele>393.331112</ele>
        <time>2025-10-23T12:31:13Z</time>
      </trkpt>
      <trkpt lat="43.57297" lon="3.18369">
        <ele>392.847496</ele>
        <time>2025-10-23T12:31:14Z</time>
      </trkpt>
      <trkpt lat="43.57302" lon="3.18373">
        <ele>392.38273</ele>
        <time>2025-10-23T12:31:15Z</time>
      </trkpt>
      <trkpt lat="43.57307" lon="3.18375">
        <ele>391.957903</ele>
        <time>2025-10-23T12:31:16Z</time>
      </trkpt>
      <trkpt lat="43.57313" lon="3.18377">
        <ele>391.454996</ele>
        <time>2025-10-23T12:31:17Z</time>
      </trkpt>
      <trkpt lat="43.57319" lon="3.18377">
        <ele>390.954209</ele>
        <time>2025-10-23T12:31:18Z</time>
      </trkpt>
      <trkpt lat="43.57326" lon="3.18378">
        <ele>390.429881</ele>
        <time>2025-10-23T12:31:19Z</time>
      </trkpt>
      <trkpt lat="43.57332" lon="3.18378">
        <ele>389.882736</ele>
        <time>2025-10-23T12:31:20Z</time>
      </trkpt>
      <trkpt lat="43.57339" lon="3.1838">
        <ele>389.347369</ele>
        <time>2025-10-23T12:31:21Z</time>
      </trkpt>
      <trkpt lat="43.57346" lon="3.18381">
        <ele>388.80944</ele>
        <time>2025-10-23T12:31:22Z</time>
      </trkpt>
      <trkpt lat="43.57352" lon="3.18383">
        <ele>388.286369</ele>
        <time>2025-10-23T12:31:23Z</time>
      </trkpt>
      <trkpt lat="43.57357" lon="3.18384">
        <ele>387.853457</ele>
        <time>2025-10-23T12:31:24Z</time>
      </trkpt>
      <trkpt lat="43.57362" lon="3.18385">
        <ele>387.457287</ele>
        <time>2025-10-23T12:31:25Z</time>
      </trkpt>
      <trkpt lat="43.57366" lon="3.18385">
        <ele>387.110691</ele>
        <time>2025-10-23T12:31:26Z</time>
      </trkpt>
      <trkpt lat="43.5737" lon="3.18385">
        <ele>386.80459</ele>
        <time>2025-10-23T12:31:27Z</time>
      </trkpt>
      <trkpt lat="43.57374" lon="3.18384">
        <ele>386.498926</ele>
        <time>2025-10-23T12:31:28Z</time>
      </trkpt>
      <trkpt lat="43.57377" lon="3.18382">
        <ele>386.215654</ele>
        <time>2025-10-23T12:31:29Z</time>
      </trkpt>
      <trkpt lat="43.5738" lon="3.18379">
        <ele>385.93413</ele>
        <time>2025-10-23T12:31:30Z</time>
      </trkpt>
      <trkpt lat="43.57382" lon="3.18376">
        <ele>385.661693</ele>
        <time>2025-10-23T12:31:31Z</time>
      </trkpt>
      <trkpt lat="43.57385" lon="3.18373">
        <ele>385.392861</ele>
        <time>2025-10-23T12:31:32Z</time>
      </trkpt>
      <trkpt lat="43.57387" lon="3.18371">
        <ele>385.232274</ele>
        <time>2025-10-23T12:31:33Z</time>
      </trkpt>
      <trkpt lat="43.57389" lon="3.1837">
        <ele>385.18731</ele>
        <time>2025-10-23T12:31:34Z</time>
      </trkpt>
      <trkpt lat="43.5739" lon="3.1837">
        <ele>385.166857</ele>
        <time>2025-10-23T12:31:35Z</time>
      </trkpt>
      <trkpt lat="43.5739" lon="3.1837">
        <ele>385.161691</ele>
        <time>2025-10-23T12:31:36Z</time>
      </trkpt>
      <trkpt lat="43.5739" lon="3.1837">
        <ele>385.159025</ele>
        <time>2025-10-23T12:31:37Z</time>
      </trkpt>
      <trkpt lat="43.5739" lon="3.1837">
        <ele>385.159025</ele>
        <time>2025-10-23T12:31:38Z</time>
      </trkpt>
      <trkpt lat="43.5739" lon="3.1837">
        <ele>385.15746</ele>
        <time>2025-10-23T12:31:39Z</time>
      </trkpt>
      <trkpt lat="43.5739" lon="3.1837">
        <ele>385.15746</ele>
        <time>2025-10-23T12:31:40Z</time>
      </trkpt>
      <trkpt lat="43.5739" lon="3.1837">
        <ele>385.155896</ele>
        <time>2025-10-23T12:31:41Z</time>
      </trkpt>
      <trkpt lat="43.5739" lon="3.1837">
        <ele>385.154331</ele>
        <time>2025-10-23T12:31:42Z</time>
      </trkpt>
      <trkpt lat="43.5739" lon="3.1837">
        <ele>385.154331</ele>
        <time>2025-10-23T12:31:43Z</time>
      </trkpt>
      <trkpt lat="43.5739" lon="3.1837">
        <ele>385.154331</ele>
        <time>2025-10-23T12:31:44Z</time>
      </trkpt>
      <trkpt lat="43.5739" lon="3.1837">
        <ele>385.154331</ele>
        <time>2025-10-23T12:31:45Z</time>
      </trkpt>
      <trkpt lat="43.5739" lon="3.1837">
        <ele>385.154331</ele>
        <time>2025-10-23T12:31:46Z</time>
      </trkpt>
      <trkpt lat="43.5739" lon="3.1837">
        <ele>385.152172</ele>
        <time>2025-10-23T12:31:47Z</time>
      </trkpt>
      <trkpt lat="43.5739" lon="3.1837">
        <ele>385.152172</ele>
        <time>2025-10-23T12:31:48Z</time>
      </trkpt>
      <trkpt lat="43.5739" lon="3.1837">
        <ele>385.152172</ele>
        <time>2025-10-23T12:31:49Z</time>
      </trkpt>
      <trkpt lat="43.5739" lon="3.1837">
        <ele>385.150013</ele>
        <time>2025-10-23T12:31:50Z</time>
      </trkpt>
      <trkpt lat="43.5739" lon="3.1837">
        <ele>385.147853</ele>
        <time>2025-10-23T12:31:52Z</time>
      </trkpt>
      <trkpt lat="43.5739" lon="3.1837">
        <ele>385.145694</ele>
        <time>2025-10-23T12:31:53Z</time>
      </trkpt>
      <trkpt lat="43.5739" lon="3.1837">
        <ele>385.145694</ele>
        <time>2025-10-23T12:31:54Z</time>
      </trkpt>
      <trkpt lat="43.5739" lon="3.1837">
        <ele>385.143535</ele>
        <time>2025-10-23T12:31:55Z</time>
      </trkpt>
      <trkpt lat="43.5739" lon="3.1837">
        <ele>385.141375</ele>
        <time>2025-10-23T12:31:56Z</time>
      </trkpt>
      <trkpt lat="43.5739" lon="3.1837">
        <ele>385.141375</ele>
        <time>2025-10-23T12:31:57Z</time>
      </trkpt>
      <trkpt lat="43.5739" lon="3.1837">
        <ele>385.141375</ele>
        <time>2025-10-23T12:31:58Z</time>
      </trkpt>
      <trkpt lat="43.5739" lon="3.1837">
        <ele>385.139216</ele>
        <time>2025-10-23T12:31:59Z</time>
      </trkpt>
      <trkpt lat="43.5739" lon="3.1837">
        <ele>385.13655</ele>
        <time>2025-10-23T12:32:00Z</time>
      </trkpt>
      <trkpt lat="43.5739" lon="3.1837">
        <ele>385.133883</ele>
        <time>2025-10-23T12:32:01Z</time>
      </trkpt>
      <trkpt lat="43.5739" lon="3.1837">
        <ele>385.131217</ele>
        <time>2025-10-23T12:32:02Z</time>
      </trkpt>
      <trkpt lat="43.5739" lon="3.1837">
        <ele>385.129057</ele>
        <time>2025-10-23T12:32:03Z</time>
      </trkpt>
      <trkpt lat="43.5739" lon="3.1837">
        <ele>385.129057</ele>
        <time>2025-10-23T12:32:04Z</time>
      </trkpt>
      <trkpt lat="43.5739" lon="3.1837">
        <ele>385.127493</ele>
        <time>2025-10-23T12:32:05Z</time>
      </trkpt>
      <trkpt lat="43.5739" lon="3.1837">
        <ele>385.127493</ele>
        <time>2025-10-23T12:32:06Z</time>
      </trkpt>
      <trkpt lat="43.5739" lon="3.1837">
        <ele>385.127493</ele>
        <time>2025-10-23T12:32:07Z</time>
      </trkpt>
      <trkpt lat="43.5739" lon="3.1837">
        <ele>385.127493</ele>
        <time>2025-10-23T12:32:08Z</time>
      </trkpt>
      <trkpt lat="43.5739" lon="3.1837">
        <ele>385.127493</ele>
        <time>2025-10-23T12:32:09Z</time>
      </trkpt>
      <trkpt lat="43.5739" lon="3.1837">
        <ele>385.127493</ele>
        <time>2025-10-23T12:32:10Z</time>
      </trkpt>
      <trkpt lat="43.5739" lon="3.1837">
        <ele>385.127493</ele>
        <time>2025-10-23T12:32:11Z</time>
      </trkpt>
      <trkpt lat="43.5739" lon="3.1837">
        <ele>385.127493</ele>
        <time>2025-10-23T12:32:12Z</time>
      </trkpt>
      <trkpt lat="43.5739" lon="3.1837">
        <ele>385.127493</ele>
        <time>2025-10-23T12:32:13Z</time>
      </trkpt>
      <trkpt lat="43.5739" lon="3.1837">
        <ele>385.127493</ele>
        <time>2025-10-23T12:32:14Z</time>
      </trkpt>
      <trkpt lat="43.5739" lon="3.1837">
        <ele>385.127493</ele>
        <time>2025-10-23T12:32:15Z</time>
      </trkpt>
      <trkpt lat="43.5739" lon="3.1837">
        <ele>385.127493</ele>
        <time>2025-10-23T12:32:16Z</time>
      </trkpt>
      <trkpt lat="43.5739" lon="3.1837">
        <ele>385.127493</ele>
        <time>2025-10-23T12:32:17Z</time>
      </trkpt>
      <trkpt lat="43.5739" lon="3.1837">
        <ele>385.127493</ele>
        <time>2025-10-23T12:32:18Z</time>
      </trkpt>
      <trkpt lat="43.5739" lon="3.1837">
        <ele>385.127493</ele>
        <time>2025-10-23T12:32:19Z</time>
      </trkpt>
      <trkpt lat="43.5739" lon="3.1837">
        <ele>385.127493</ele>
        <time>2025-10-23T12:32:20Z</time>
      </trkpt>
      <trkpt lat="43.5739" lon="3.1837">
        <ele>385.127493</ele>
        <time>2025-10-23T12:32:22Z</time>
      </trkpt>
      <trkpt lat="43.5739" lon="3.1837">
        <ele>385.127493</ele>
        <time>2025-10-23T12:32:23Z</time>
      </trkpt>
      <trkpt lat="43.5739" lon="3.1837">
        <ele>385.127493</ele>
        <time>2025-10-23T12:32:24Z</time>
      </trkpt>
      <trkpt lat="43.5739" lon="3.1837">
        <ele>385.125334</ele>
        <time>2025-10-23T12:32:25Z</time>
      </trkpt>
      <trkpt lat="43.5739" lon="3.1837">
        <ele>385.125334</ele>
        <time>2025-10-23T12:32:26Z</time>
      </trkpt>
      <trkpt lat="43.5739" lon="3.1837">
        <ele>385.123769</ele>
        <time>2025-10-23T12:32:27Z</time>
      </trkpt>
      <trkpt lat="43.5739" lon="3.1837">
        <ele>385.123769</ele>
        <time>2025-10-23T12:32:28Z</time>
      </trkpt>
      <trkpt lat="43.5739" lon="3.1837">
        <ele>385.123769</ele>
        <time>2025-10-23T12:32:29Z</time>
      </trkpt>
      <trkpt lat="43.5739" lon="3.1837">
        <ele>385.12161</ele>
        <time>2025-10-23T12:32:30Z</time>
      </trkpt>
      <trkpt lat="43.5739" lon="3.1837">
        <ele>385.12161</ele>
        <time>2025-10-23T12:32:31Z</time>
      </trkpt>
      <trkpt lat="43.5739" lon="3.1837">
        <ele>385.12161</ele>
        <time>2025-10-23T12:32:32Z</time>
      </trkpt>
      <trkpt lat="43.5739" lon="3.1837">
        <ele>385.12161</ele>
        <time>2025-10-23T12:32:33Z</time>
      </trkpt>
      <trkpt lat="43.5739" lon="3.1837">
        <ele>385.12161</ele>
        <time>2025-10-23T12:32:34Z</time>
      </trkpt>
      <trkpt lat="43.5739" lon="3.1837">
        <ele>385.119451</ele>
        <time>2025-10-23T12:32:35Z</time>
      </trkpt>
      <trkpt lat="43.5739" lon="3.1837">
        <ele>385.119451</ele>
        <time>2025-10-23T12:32:36Z</time>
      </trkpt>
      <trkpt lat="43.5739" lon="3.1837">
        <ele>385.119451</ele>
        <time>2025-10-23T12:32:37Z</time>
      </trkpt>
      <trkpt lat="43.5739" lon="3.1837">
        <ele>385.117886</ele>
        <time>2025-10-23T12:32:38Z</time>
      </trkpt>
      <trkpt lat="43.5739" lon="3.1837">
        <ele>385.111408</ele>
        <time>2025-10-23T12:32:39Z</time>
      </trkpt>
      <trkpt lat="43.57391" lon="3.18369">
        <ele>385.083849</ele>
        <time>2025-10-23T12:32:40Z</time>
      </trkpt>
      <trkpt lat="43.57393" lon="3.18368">
        <ele>385.051713</ele>
        <time>2025-10-23T12:32:41Z</time>
      </trkpt>
      <trkpt lat="43.57394" lon="3.18367">
        <ele>385.017455</ele>
        <time>2025-10-23T12:32:42Z</time>
      </trkpt>
      <trkpt lat="43.57394" lon="3.18364">
        <ele>384.974767</ele>
        <time>2025-10-23T12:32:43Z</time>
      </trkpt>
      <trkpt lat="43.57395" lon="3.1836">
        <ele>384.915452</ele>
        <time>2025-10-23T12:32:44Z</time>
      </trkpt>
      <trkpt lat="43.57395" lon="3.18356">
        <ele>384.851952</ele>
        <time>2025-10-23T12:32:45Z</time>
      </trkpt>
      <trkpt lat="43.57396" lon="3.18352">
        <ele>384.785366</ele>
        <time>2025-10-23T12:32:46Z</time>
      </trkpt>
      <trkpt lat="43.57397" lon="3.18348">
        <ele>384.715346</ele>
        <time>2025-10-23T12:32:47Z</time>
      </trkpt>
      <trkpt lat="43.57398" lon="3.18343">
        <ele>384.639817</ele>
        <time>2025-10-23T12:32:48Z</time>
      </trkpt>
      <trkpt lat="43.57398" lon="3.18338">
        <ele>384.559712</ele>
        <time>2025-10-23T12:32:49Z</time>
      </trkpt>
      <trkpt lat="43.57399" lon="3.18333">
        <ele>384.471503</ele>
        <time>2025-10-23T12:32:50Z</time>
      </trkpt>
      <trkpt lat="43.574" lon="3.18327">
        <ele>384.385255</ele>
        <time>2025-10-23T12:32:51Z</time>
      </trkpt>
      <trkpt lat="43.57402" lon="3.18322">
        <ele>384.302855</ele>
        <time>2025-10-23T12:32:52Z</time>
      </trkpt>
      <trkpt lat="43.57403" lon="3.18317">
        <ele>384.218109</ele>
        <time>2025-10-23T12:32:53Z</time>
      </trkpt>
      <trkpt lat="43.57404" lon="3.18312">
        <ele>384.1299</ele>
        <time>2025-10-23T12:32:54Z</time>
      </trkpt>
      <trkpt lat="43.57405" lon="3.18306">
        <ele>384.037041</ele>
        <time>2025-10-23T12:32:55Z</time>
      </trkpt>
      <trkpt lat="43.57406" lon="3.183">
        <ele>383.942868</ele>
        <time>2025-10-23T12:32:56Z</time>
      </trkpt>
      <trkpt lat="43.57407" lon="3.18295">
        <ele>383.85264</ele>
        <time>2025-10-23T12:32:57Z</time>
      </trkpt>
      <trkpt lat="43.57408" lon="3.18289">
        <ele>383.764431</ele>
        <time>2025-10-23T12:32:58Z</time>
      </trkpt>
      <trkpt lat="43.57409" lon="3.18284">
        <ele>383.678205</ele>
        <time>2025-10-23T12:32:59Z</time>
      </trkpt>
      <trkpt lat="43.5741" lon="3.18278">
        <ele>383.589936</ele>
        <time>2025-10-23T12:33:00Z</time>
      </trkpt>
      <trkpt lat="43.5741" lon="3.18273">
        <ele>383.502577</ele>
        <time>2025-10-23T12:33:01Z</time>
      </trkpt>
      <trkpt lat="43.57411" lon="3.18267">
        <ele>383.413284</ele>
        <time>2025-10-23T12:33:02Z</time>
      </trkpt>
      <trkpt lat="43.57412" lon="3.18262">
        <ele>383.323462</ele>
        <time>2025-10-23T12:33:03Z</time>
      </trkpt>
      <trkpt lat="43.57412" lon="3.18256">
        <ele>383.231097</ele>
        <time>2025-10-23T12:33:04Z</time>
      </trkpt>
      <trkpt lat="43.57413" lon="3.1825">
        <ele>383.140655</ele>
        <time>2025-10-23T12:33:05Z</time>
      </trkpt>
      <trkpt lat="43.57414" lon="3.18245">
        <ele>383.057042</ele>
        <time>2025-10-23T12:33:06Z</time>
      </trkpt>
      <trkpt lat="43.57414" lon="3.18239">
        <ele>382.972454</ele>
        <time>2025-10-23T12:33:07Z</time>
      </trkpt>
      <trkpt lat="43.57414" lon="3.18234">
        <ele>382.893967</ele>
        <time>2025-10-23T12:33:08Z</time>
      </trkpt>
      <trkpt lat="43.57414" lon="3.1823">
        <ele>382.818876</ele>
        <time>2025-10-23T12:33:09Z</time>
      </trkpt>
      <trkpt lat="43.57414" lon="3.18225">
        <ele>382.744844</ele>
        <time>2025-10-23T12:33:10Z</time>
      </trkpt>
      <trkpt lat="43.57413" lon="3.1822">
        <ele>382.668067</ele>
        <time>2025-10-23T12:33:11Z</time>
      </trkpt>
      <trkpt lat="43.57413" lon="3.18215">
        <ele>382.595975</ele>
        <time>2025-10-23T12:33:12Z</time>
      </trkpt>
      <trkpt lat="43.57413" lon="3.18211">
        <ele>382.520605</ele>
        <time>2025-10-23T12:33:13Z</time>
      </trkpt>
      <trkpt lat="43.57413" lon="3.18206">
        <ele>382.445019</ele>
        <time>2025-10-23T12:33:14Z</time>
      </trkpt>
      <trkpt lat="43.57412" lon="3.18201">
        <ele>382.367879</ele>
        <time>2025-10-23T12:33:15Z</time>
      </trkpt>
      <trkpt lat="43.57412" lon="3.18196">
        <ele>382.292293</ele>
        <time>2025-10-23T12:33:16Z</time>
      </trkpt>
      <trkpt lat="43.57412" lon="3.18191">
        <ele>382.217171</ele>
        <time>2025-10-23T12:33:17Z</time>
      </trkpt>
      <trkpt lat="43.57412" lon="3.18186">
        <ele>382.142049</ele>
        <time>2025-10-23T12:33:18Z</time>
      </trkpt>
      <trkpt lat="43.57412" lon="3.18181">
        <ele>382.06371</ele>
        <time>2025-10-23T12:33:19Z</time>
      </trkpt>
      <trkpt lat="43.57412" lon="3.18176">
        <ele>381.979122</ele>
        <time>2025-10-23T12:33:20Z</time>
      </trkpt>
      <trkpt lat="43.57413" lon="3.18171">
        <ele>381.895203</ele>
        <time>2025-10-23T12:33:21Z</time>
      </trkpt>
      <trkpt lat="43.57413" lon="3.18165">
        <ele>381.809738</ele>
        <time>2025-10-23T12:33:22Z</time>
      </trkpt>
      <trkpt lat="43.57414" lon="3.1816">
        <ele>381.723453</ele>
        <time>2025-10-23T12:33:23Z</time>
      </trkpt>
      <trkpt lat="43.57414" lon="3.18154">
        <ele>381.638865</ele>
        <time>2025-10-23T12:33:24Z</time>
      </trkpt>
      <trkpt lat="43.57414" lon="3.1815">
        <ele>381.568335</ele>
        <time>2025-10-23T12:33:25Z</time>
      </trkpt>
      <trkpt lat="43.57415" lon="3.18146">
        <ele>381.506376</ele>
        <time>2025-10-23T12:33:26Z</time>
      </trkpt>
      <trkpt lat="43.57415" lon="3.18143">
        <ele>381.448276</ele>
        <time>2025-10-23T12:33:27Z</time>
      </trkpt>
      <trkpt lat="43.57416" lon="3.18141">
        <ele>381.417279</ele>
        <time>2025-10-23T12:33:28Z</time>
      </trkpt>
      <trkpt lat="43.57416" lon="3.1814">
        <ele>381.409164</ele>
        <time>2025-10-23T12:33:29Z</time>
      </trkpt>
      <trkpt lat="43.57416" lon="3.1814">
        <ele>381.4076</ele>
        <time>2025-10-23T12:33:30Z</time>
      </trkpt>
      <trkpt lat="43.57416" lon="3.1814">
        <ele>381.405441</ele>
        <time>2025-10-23T12:33:31Z</time>
      </trkpt>
      <trkpt lat="43.57416" lon="3.1814">
        <ele>381.402774</ele>
        <time>2025-10-23T12:33:32Z</time>
      </trkpt>
      <trkpt lat="43.57416" lon="3.1814">
        <ele>381.400615</ele>
        <time>2025-10-23T12:33:33Z</time>
      </trkpt>
      <trkpt lat="43.57416" lon="3.18141">
        <ele>381.395282</ele>
        <time>2025-10-23T12:33:34Z</time>
      </trkpt>
      <trkpt lat="43.57416" lon="3.18141">
        <ele>381.393718</ele>
        <time>2025-10-23T12:33:35Z</time>
      </trkpt>
      <trkpt lat="43.57416" lon="3.18141">
        <ele>381.393718</ele>
        <time>2025-10-23T12:33:36Z</time>
      </trkpt>
      <trkpt lat="43.57416" lon="3.18141">
        <ele>381.391558</ele>
        <time>2025-10-23T12:33:37Z</time>
      </trkpt>
      <trkpt lat="43.57416" lon="3.18141">
        <ele>381.388892</ele>
        <time>2025-10-23T12:33:38Z</time>
      </trkpt>
      <trkpt lat="43.57416" lon="3.18141">
        <ele>381.388892</ele>
        <time>2025-10-23T12:33:39Z</time>
      </trkpt>
      <trkpt lat="43.57416" lon="3.18141">
        <ele>381.388892</ele>
        <time>2025-10-23T12:33:40Z</time>
      </trkpt>
      <trkpt lat="43.57416" lon="3.18141">
        <ele>381.388892</ele>
        <time>2025-10-23T12:33:41Z</time>
      </trkpt>
      <trkpt lat="43.57416" lon="3.18141">
        <ele>381.388892</ele>
        <time>2025-10-23T12:33:42Z</time>
      </trkpt>
      <trkpt lat="43.57416" lon="3.18141">
        <ele>381.387327</ele>
        <time>2025-10-23T12:33:43Z</time>
      </trkpt>
      <trkpt lat="43.57416" lon="3.18141">
        <ele>381.387327</ele>
        <time>2025-10-23T12:33:44Z</time>
      </trkpt>
      <trkpt lat="43.57416" lon="3.18141">
        <ele>381.387327</ele>
        <time>2025-10-23T12:33:45Z</time>
      </trkpt>
      <trkpt lat="43.57416" lon="3.18141">
        <ele>381.384661</ele>
        <time>2025-10-23T12:33:46Z</time>
      </trkpt>
      <trkpt lat="43.57416" lon="3.18141">
        <ele>381.382502</ele>
        <time>2025-10-23T12:33:47Z</time>
      </trkpt>
      <trkpt lat="43.57415" lon="3.18141">
        <ele>381.373315</ele>
        <time>2025-10-23T12:33:48Z</time>
      </trkpt>
      <trkpt lat="43.57415" lon="3.1814">
        <ele>381.363596</ele>
        <time>2025-10-23T12:33:49Z</time>
      </trkpt>
      <trkpt lat="43.57415" lon="3.18139">
        <ele>381.357046</ele>
        <time>2025-10-23T12:33:50Z</time>
      </trkpt>
      <trkpt lat="43.57414" lon="3.18137">
        <ele>381.347006</ele>
        <time>2025-10-23T12:33:51Z</time>
      </trkpt>
      <trkpt lat="43.57412" lon="3.18135">
        <ele>381.334596</ele>
        <time>2025-10-23T12:33:52Z</time>
      </trkpt>
      <trkpt lat="43.57411" lon="3.18132">
        <ele>381.318007</ele>
        <time>2025-10-23T12:33:53Z</time>
      </trkpt>
      <trkpt lat="43.5741" lon="3.18128">
        <ele>381.299795</ele>
        <time>2025-10-23T12:33:54Z</time>
      </trkpt>
      <trkpt lat="43.57409" lon="3.18124">
        <ele>381.281631</ele>
        <time>2025-10-23T12:33:55Z</time>
      </trkpt>
      <trkpt lat="43.57408" lon="3.1812">
        <ele>381.260657</ele>
        <time>2025-10-23T12:33:56Z</time>
      </trkpt>
      <trkpt lat="43.57407" lon="3.18116">
        <ele>381.240276</ele>
        <time>2025-10-23T12:33:57Z</time>
      </trkpt>
      <trkpt lat="43.57406" lon="3.18111">
        <ele>381.218927</ele>
        <time>2025-10-23T12:33:58Z</time>
      </trkpt>
      <trkpt lat="43.57405" lon="3.18107">
        <ele>381.198156</ele>
        <time>2025-10-23T12:33:59Z</time>
      </trkpt>
      <trkpt lat="43.57403" lon="3.18103">
        <ele>381.177041</ele>
        <time>2025-10-23T12:34:00Z</time>
      </trkpt>
      <trkpt lat="43.57401" lon="3.18099">
        <ele>381.154482</ele>
        <time>2025-10-23T12:34:01Z</time>
      </trkpt>
      <trkpt lat="43.57398" lon="3.18095">
        <ele>381.132651</ele>
        <time>2025-10-23T12:34:02Z</time>
      </trkpt>
      <trkpt lat="43.57397" lon="3.18091">
        <ele>381.109638</ele>
        <time>2025-10-23T12:34:03Z</time>
      </trkpt>
      <trkpt lat="43.57395" lon="3.18087">
        <ele>381.087431</ele>
        <time>2025-10-23T12:34:04Z</time>
      </trkpt>
      <trkpt lat="43.57392" lon="3.18082">
        <ele>381.063398</ele>
        <time>2025-10-23T12:34:05Z</time>
      </trkpt>
      <trkpt lat="43.5739" lon="3.18079">
        <ele>381.040668</ele>
        <time>2025-10-23T12:34:06Z</time>
      </trkpt>
      <trkpt lat="43.57387" lon="3.18075">
        <ele>381.017724</ele>
        <time>2025-10-23T12:34:07Z</time>
      </trkpt>
      <trkpt lat="43.57385" lon="3.18071">
        <ele>380.995478</ele>
        <time>2025-10-23T12:34:08Z</time>
      </trkpt>
      <trkpt lat="43.57383" lon="3.18067">
        <ele>380.972144</ele>
        <time>2025-10-23T12:34:09Z</time>
      </trkpt>
      <trkpt lat="43.5738" lon="3.18063">
        <ele>380.950579</ele>
        <time>2025-10-23T12:34:10Z</time>
      </trkpt>
      <trkpt lat="43.57378" lon="3.18059">
        <ele>380.927183</ele>
        <time>2025-10-23T12:34:11Z</time>
      </trkpt>
      <trkpt lat="43.57375" lon="3.18056">
        <ele>380.903589</ele>
        <time>2025-10-23T12:34:12Z</time>
      </trkpt>
      <trkpt lat="43.57372" lon="3.18052">
        <ele>380.878792</ele>
        <time>2025-10-23T12:34:13Z</time>
      </trkpt>
      <trkpt lat="43.57369" lon="3.18049">
        <ele>380.854515</ele>
        <time>2025-10-23T12:34:14Z</time>
      </trkpt>
      <trkpt lat="43.57366" lon="3.18046">
        <ele>380.830526</ele>
        <time>2025-10-23T12:34:15Z</time>
      </trkpt>
      <trkpt lat="43.57362" lon="3.18043">
        <ele>380.805662</ele>
        <time>2025-10-23T12:34:16Z</time>
      </trkpt>
      <trkpt lat="43.57359" lon="3.1804">
        <ele>380.780309</ele>
        <time>2025-10-23T12:34:17Z</time>
      </trkpt>
      <trkpt lat="43.57355" lon="3.18039">
        <ele>380.754808</ele>
        <time>2025-10-23T12:34:18Z</time>
      </trkpt>
      <trkpt lat="43.57351" lon="3.18037">
        <ele>380.728616</ele>
        <time>2025-10-23T12:34:19Z</time>
      </trkpt>
      <trkpt lat="43.57347" lon="3.18036">
        <ele>380.704825</ele>
        <time>2025-10-23T12:34:20Z</time>
      </trkpt>
      <trkpt lat="43.57343" lon="3.18035">
        <ele>380.679944</ele>
        <time>2025-10-23T12:34:21Z</time>
      </trkpt>
      <trkpt lat="43.57339" lon="3.18033">
        <ele>380.65456</ele>
        <time>2025-10-23T12:34:22Z</time>
      </trkpt>
      <trkpt lat="43.57336" lon="3.18032">
        <ele>380.63124</ele>
        <time>2025-10-23T12:34:23Z</time>
      </trkpt>
      <trkpt lat="43.57332" lon="3.1803">
        <ele>380.609105</ele>
        <time>2025-10-23T12:34:24Z</time>
      </trkpt>
      <trkpt lat="43.57329" lon="3.18029">
        <ele>380.587414</ele>
        <time>2025-10-23T12:34:25Z</time>
      </trkpt>
      <trkpt lat="43.57326" lon="3.18027">
        <ele>380.565812</ele>
        <time>2025-10-23T12:34:26Z</time>
      </trkpt>
      <trkpt lat="43.57322" lon="3.18025">
        <ele>380.543839</ele>
        <time>2025-10-23T12:34:27Z</time>
      </trkpt>
      <trkpt lat="43.57319" lon="3.18022">
        <ele>380.522558</ele>
        <time>2025-10-23T12:34:28Z</time>
      </trkpt>
      <trkpt lat="43.57316" lon="3.1802">
        <ele>380.500348</ele>
        <time>2025-10-23T12:34:29Z</time>
      </trkpt>
      <trkpt lat="43.57314" lon="3.18017">
        <ele>380.479607</ele>
        <time>2025-10-23T12:34:30Z</time>
      </trkpt>
      <trkpt lat="43.57311" lon="3.18015">
        <ele>380.461994</ele>
        <time>2025-10-23T12:34:31Z</time>
      </trkpt>
      <trkpt lat="43.57309" lon="3.18013">
        <ele>380.444893</ele>
        <time>2025-10-23T12:34:32Z</time>
      </trkpt>
      <trkpt lat="43.57306" lon="3.18011">
        <ele>380.426099</ele>
        <time>2025-10-23T12:34:33Z</time>
      </trkpt>
      <trkpt lat="43.57304" lon="3.18009">
        <ele>380.408258</ele>
        <time>2025-10-23T12:34:34Z</time>
      </trkpt>
      <trkpt lat="43.57301" lon="3.18007">
        <ele>380.389039</ele>
        <time>2025-10-23T12:34:35Z</time>
      </trkpt>
      <trkpt lat="43.57298" lon="3.18005">
        <ele>380.367624</ele>
        <time>2025-10-23T12:34:36Z</time>
      </trkpt>
      <trkpt lat="43.57295" lon="3.18003">
        <ele>380.346404</ele>
        <time>2025-10-23T12:34:37Z</time>
      </trkpt>
      <trkpt lat="43.57292" lon="3.18001">
        <ele>380.325883</ele>
        <time>2025-10-23T12:34:38Z</time>
      </trkpt>
      <trkpt lat="43.57289" lon="3.17999">
        <ele>380.30688</ele>
        <time>2025-10-23T12:34:39Z</time>
      </trkpt>
      <trkpt lat="43.57287" lon="3.17997">
        <ele>380.289014</ele>
        <time>2025-10-23T12:34:40Z</time>
      </trkpt>
      <trkpt lat="43.57284" lon="3.17994">
        <ele>380.270859</ele>
        <time>2025-10-23T12:34:41Z</time>
      </trkpt>
      <trkpt lat="43.57282" lon="3.17992">
        <ele>380.255428</ele>
        <time>2025-10-23T12:34:42Z</time>
      </trkpt>
      <trkpt lat="43.57278" lon="3.17989">
        <ele>380.294708</ele>
        <time>2025-10-23T12:34:43Z</time>
      </trkpt>
      <trkpt lat="43.57275" lon="3.17986">
        <ele>380.335168</ele>
        <time>2025-10-23T12:34:44Z</time>
      </trkpt>
      <trkpt lat="43.57272" lon="3.17983">
        <ele>380.375711</ele>
        <time>2025-10-23T12:34:45Z</time>
      </trkpt>
      <trkpt lat="43.57269" lon="3.17979">
        <ele>380.416611</ele>
        <time>2025-10-23T12:34:46Z</time>
      </trkpt>
      <trkpt lat="43.57266" lon="3.17976">
        <ele>380.458417</ele>
        <time>2025-10-23T12:34:47Z</time>
      </trkpt>
      <trkpt lat="43.57262" lon="3.17972">
        <ele>380.500688</ele>
        <time>2025-10-23T12:34:48Z</time>
      </trkpt>
      <trkpt lat="43.57259" lon="3.17969">
        <ele>380.542494</ele>
        <time>2025-10-23T12:34:49Z</time>
      </trkpt>
      <trkpt lat="43.57256" lon="3.17965">
        <ele>380.586371</ele>
        <time>2025-10-23T12:34:50Z</time>
      </trkpt>
      <trkpt lat="43.57252" lon="3.17961">
        <ele>380.630703</ele>
        <time>2025-10-23T12:34:51Z</time>
      </trkpt>
      <trkpt lat="43.57249" lon="3.17958">
        <ele>380.671628</ele>
        <time>2025-10-23T12:34:52Z</time>
      </trkpt>
      <trkpt lat="43.57245" lon="3.17955">
        <ele>380.715882</ele>
        <time>2025-10-23T12:34:53Z</time>
      </trkpt>
      <trkpt lat="43.57243" lon="3.17951">
        <ele>380.759463</ele>
        <time>2025-10-23T12:34:54Z</time>
      </trkpt>
      <trkpt lat="43.5724" lon="3.17946">
        <ele>380.800925</ele>
        <time>2025-10-23T12:34:55Z</time>
      </trkpt>
      <trkpt lat="43.57238" lon="3.17941">
        <ele>380.844128</ele>
        <time>2025-10-23T12:34:56Z</time>
      </trkpt>
      <trkpt lat="43.57237" lon="3.17936">
        <ele>380.882608</ele>
        <time>2025-10-23T12:34:57Z</time>
      </trkpt>
      <trkpt lat="43.57237" lon="3.17931">
        <ele>380.918582</ele>
        <time>2025-10-23T12:34:58Z</time>
      </trkpt>
      <trkpt lat="43.57236" lon="3.17926">
        <ele>380.954425</ele>
        <time>2025-10-23T12:34:59Z</time>
      </trkpt>
      <trkpt lat="43.57236" lon="3.17922">
        <ele>380.988795</ele>
        <time>2025-10-23T12:35:00Z</time>
      </trkpt>
      <trkpt lat="43.57236" lon="3.17917">
        <ele>381.020759</ele>
        <time>2025-10-23T12:35:01Z</time>
      </trkpt>
      <trkpt lat="43.57236" lon="3.17913">
        <ele>381.0534</ele>
        <time>2025-10-23T12:35:02Z</time>
      </trkpt>
      <trkpt lat="43.57236" lon="3.17908">
        <ele>381.088327</ele>
        <time>2025-10-23T12:35:03Z</time>
      </trkpt>
      <trkpt lat="43.57235" lon="3.17904">
        <ele>381.123567</ele>
        <time>2025-10-23T12:35:04Z</time>
      </trkpt>
      <trkpt lat="43.57235" lon="3.17899">
        <ele>381.158673</ele>
        <time>2025-10-23T12:35:05Z</time>
      </trkpt>
      <trkpt lat="43.57235" lon="3.17895">
        <ele>381.189898</ele>
        <time>2025-10-23T12:35:06Z</time>
      </trkpt>
      <trkpt lat="43.57234" lon="3.17892">
        <ele>381.210032</ele>
        <time>2025-10-23T12:35:07Z</time>
      </trkpt>
      <trkpt lat="43.57234" lon="3.1789">
        <ele>381.222281</ele>
        <time>2025-10-23T12:35:08Z</time>
      </trkpt>
      <trkpt lat="43.57234" lon="3.1789">
        <ele>381.226074</ele>
        <time>2025-10-23T12:35:09Z</time>
      </trkpt>
      <trkpt lat="43.57234" lon="3.1789">
        <ele>381.227098</ele>
        <time>2025-10-23T12:35:10Z</time>
      </trkpt>
      <trkpt lat="43.57234" lon="3.1789">
        <ele>381.228362</ele>
        <time>2025-10-23T12:35:11Z</time>
      </trkpt>
      <trkpt lat="43.57234" lon="3.1789">
        <ele>381.229627</ele>
        <time>2025-10-23T12:35:12Z</time>
      </trkpt>
      <trkpt lat="43.57234" lon="3.1789">
        <ele>381.229627</ele>
        <time>2025-10-23T12:35:13Z</time>
      </trkpt>
      <trkpt lat="43.57234" lon="3.1789">
        <ele>381.229627</ele>
        <time>2025-10-23T12:35:14Z</time>
      </trkpt>
      <trkpt lat="43.57234" lon="3.1789">
        <ele>381.229627</ele>
        <time>2025-10-23T12:35:15Z</time>
      </trkpt>
      <trkpt lat="43.57234" lon="3.1789">
        <ele>381.229627</ele>
        <time>2025-10-23T12:35:16Z</time>
      </trkpt>
      <trkpt lat="43.57234" lon="3.1789">
        <ele>381.229627</ele>
        <time>2025-10-23T12:35:18Z</time>
      </trkpt>
      <trkpt lat="43.57234" lon="3.1789">
        <ele>381.230369</ele>
        <time>2025-10-23T12:35:19Z</time>
      </trkpt>
      <trkpt lat="43.57234" lon="3.1789">
        <ele>381.23111</ele>
        <time>2025-10-23T12:35:20Z</time>
      </trkpt>
      <trkpt lat="43.57234" lon="3.1789">
        <ele>381.23111</ele>
        <time>2025-10-23T12:35:21Z</time>
      </trkpt>
      <trkpt lat="43.57234" lon="3.1789">
        <ele>381.23111</ele>
        <time>2025-10-23T12:35:22Z</time>
      </trkpt>
      <trkpt lat="43.57234" lon="3.1789">
        <ele>381.23111</ele>
        <time>2025-10-23T12:35:23Z</time>
      </trkpt>
      <trkpt lat="43.57234" lon="3.1789">
        <ele>381.23111</ele>
        <time>2025-10-23T12:35:24Z</time>
      </trkpt>
      <trkpt lat="43.57234" lon="3.1789">
        <ele>381.23111</ele>
        <time>2025-10-23T12:35:25Z</time>
      </trkpt>
      <trkpt lat="43.57233" lon="3.1789">
        <ele>381.233639</ele>
        <time>2025-10-23T12:35:26Z</time>
      </trkpt>
      <trkpt lat="43.57234" lon="3.1789">
        <ele>381.236089</ele>
        <time>2025-10-23T12:35:27Z</time>
      </trkpt>
      <trkpt lat="43.57234" lon="3.1789">
        <ele>381.236831</ele>
        <time>2025-10-23T12:35:28Z</time>
      </trkpt>
      <trkpt lat="43.57234" lon="3.1789">
        <ele>381.237573</ele>
        <time>2025-10-23T12:35:29Z</time>
      </trkpt>
      <trkpt lat="43.57234" lon="3.1789">
        <ele>381.237573</ele>
        <time>2025-10-23T12:35:30Z</time>
      </trkpt>
      <trkpt lat="43.57234" lon="3.1789">
        <ele>381.237573</ele>
        <time>2025-10-23T12:35:31Z</time>
      </trkpt>
      <trkpt lat="43.57234" lon="3.1789">
        <ele>381.237573</ele>
        <time>2025-10-23T12:35:32Z</time>
      </trkpt>
      <trkpt lat="43.57234" lon="3.1789">
        <ele>381.237573</ele>
        <time>2025-10-23T12:35:33Z</time>
      </trkpt>
      <trkpt lat="43.57234" lon="3.1789">
        <ele>381.237573</ele>
        <time>2025-10-23T12:35:34Z</time>
      </trkpt>
      <trkpt lat="43.57234" lon="3.1789">
        <ele>381.238315</ele>
        <time>2025-10-23T12:35:35Z</time>
      </trkpt>
      <trkpt lat="43.57234" lon="3.1789">
        <ele>381.238315</ele>
        <time>2025-10-23T12:35:36Z</time>
      </trkpt>
      <trkpt lat="43.57234" lon="3.1789">
        <ele>381.238315</ele>
        <time>2025-10-23T12:35:37Z</time>
      </trkpt>
      <trkpt lat="43.57234" lon="3.1789">
        <ele>381.238315</ele>
        <time>2025-10-23T12:35:38Z</time>
      </trkpt>
      <trkpt lat="43.57234" lon="3.1789">
        <ele>381.239056</ele>
        <time>2025-10-23T12:35:39Z</time>
      </trkpt>
      <trkpt lat="43.57234" lon="3.17889">
        <ele>381.242662</ele>
        <time>2025-10-23T12:35:40Z</time>
      </trkpt>
      <trkpt lat="43.57234" lon="3.17887">
        <ele>381.262545</ele>
        <time>2025-10-23T12:35:41Z</time>
      </trkpt>
      <trkpt lat="43.57235" lon="3.17886">
        <ele>381.266816</ele>
        <time>2025-10-23T12:35:42Z</time>
      </trkpt>
      <trkpt lat="43.57235" lon="3.17887">
        <ele>381.269783</ele>
        <time>2025-10-23T12:35:43Z</time>
      </trkpt>
      <trkpt lat="43.57235" lon="3.17889">
        <ele>381.28733</ele>
        <time>2025-10-23T12:35:44Z</time>
      </trkpt>
      <trkpt lat="43.57235" lon="3.17892">
        <ele>381.306726</ele>
        <time>2025-10-23T12:35:45Z</time>
      </trkpt>
      <trkpt lat="43.57236" lon="3.17895">
        <ele>381.328337</ele>
        <time>2025-10-23T12:35:46Z</time>
      </trkpt>
      <trkpt lat="43.57236" lon="3.17898">
        <ele>381.352164</ele>
        <time>2025-10-23T12:35:47Z</time>
      </trkpt>
      <trkpt lat="43.57236" lon="3.17901">
        <ele>381.37887</ele>
        <time>2025-10-23T12:35:48Z</time>
      </trkpt>
      <trkpt lat="43.57236" lon="3.17906">
        <ele>381.410044</ele>
        <time>2025-10-23T12:35:49Z</time>
      </trkpt>
      <trkpt lat="43.57236" lon="3.1791">
        <ele>381.441959</ele>
        <time>2025-10-23T12:35:50Z</time>
      </trkpt>
      <trkpt lat="43.57236" lon="3.17914">
        <ele>381.474665</ele>
        <time>2025-10-23T12:35:51Z</time>
      </trkpt>
      <trkpt lat="43.57236" lon="3.17919">
        <ele>381.50811</ele>
        <time>2025-10-23T12:35:52Z</time>
      </trkpt>
      <trkpt lat="43.57236" lon="3.17924">
        <ele>381.546165</ele>
        <time>2025-10-23T12:35:53Z</time>
      </trkpt>
      <trkpt lat="43.57237" lon="3.1793">
        <ele>381.592443</ele>
        <time>2025-10-23T12:35:54Z</time>
      </trkpt>
      <trkpt lat="43.57238" lon="3.17937">
        <ele>381.642464</ele>
        <time>2025-10-23T12:35:55Z</time>
      </trkpt>
      <trkpt lat="43.5724" lon="3.17943">
        <ele>381.69172</ele>
        <time>2025-10-23T12:35:56Z</time>
      </trkpt>
      <trkpt lat="43.57243" lon="3.17948">
        <ele>381.742201</ele>
        <time>2025-10-23T12:35:57Z</time>
      </trkpt>
      <trkpt lat="43.57246" lon="3.17953">
        <ele>381.790224</ele>
        <time>2025-10-23T12:35:58Z</time>
      </trkpt>
      <trkpt lat="43.5725" lon="3.17956">
        <ele>381.834479</ele>
        <time>2025-10-23T12:35:59Z</time>
      </trkpt>
      <trkpt lat="43.57253" lon="3.17959">
        <ele>381.877538</ele>
        <time>2025-10-23T12:36:00Z</time>
      </trkpt>
      <trkpt lat="43.57256" lon="3.17962">
        <ele>381.915188</ele>
        <time>2025-10-23T12:36:01Z</time>
      </trkpt>
      <trkpt lat="43.57258" lon="3.17963">
        <ele>381.938372</ele>
        <time>2025-10-23T12:36:02Z</time>
      </trkpt>
      <trkpt lat="43.57259" lon="3.17964">
        <ele>381.950231</ele>
        <time>2025-10-23T12:36:03Z</time>
      </trkpt>
      <trkpt lat="43.5726" lon="3.17964">
        <ele>381.953642</ele>
        <time>2025-10-23T12:36:04Z</time>
      </trkpt>
      <trkpt lat="43.5726" lon="3.17964">
        <ele>381.954666</ele>
        <time>2025-10-23T12:36:05Z</time>
      </trkpt>
      <trkpt lat="43.5726" lon="3.17964">
        <ele>381.955408</ele>
        <time>2025-10-23T12:36:06Z</time>
      </trkpt>
      <trkpt lat="43.5726" lon="3.17964">
        <ele>381.95615</ele>
        <time>2025-10-23T12:36:07Z</time>
      </trkpt>
      <trkpt lat="43.5726" lon="3.17964">
        <ele>381.95615</ele>
        <time>2025-10-23T12:36:08Z</time>
      </trkpt>
      <trkpt lat="43.5726" lon="3.17964">
        <ele>381.95615</ele>
        <time>2025-10-23T12:36:09Z</time>
      </trkpt>
      <trkpt lat="43.5726" lon="3.17964">
        <ele>381.95615</ele>
        <time>2025-10-23T12:36:10Z</time>
      </trkpt>
      <trkpt lat="43.5726" lon="3.17964">
        <ele>381.95615</ele>
        <time>2025-10-23T12:36:11Z</time>
      </trkpt>
      <trkpt lat="43.5726" lon="3.17964">
        <ele>381.95615</ele>
        <time>2025-10-23T12:36:13Z</time>
      </trkpt>
      <trkpt lat="43.5726" lon="3.17964">
        <ele>381.95615</ele>
        <time>2025-10-23T12:36:15Z</time>
      </trkpt>
      <trkpt lat="43.5726" lon="3.17964">
        <ele>381.957174</ele>
        <time>2025-10-23T12:36:16Z</time>
      </trkpt>
      <trkpt lat="43.5726" lon="3.17964">
        <ele>381.957174</ele>
        <time>2025-10-23T12:36:17Z</time>
      </trkpt>
      <trkpt lat="43.5726" lon="3.17964">
        <ele>381.957174</ele>
        <time>2025-10-23T12:36:18Z</time>
      </trkpt>
      <trkpt lat="43.5726" lon="3.17964">
        <ele>381.957915</ele>
        <time>2025-10-23T12:36:19Z</time>
      </trkpt>
      <trkpt lat="43.5726" lon="3.17964">
        <ele>381.958657</ele>
        <time>2025-10-23T12:36:20Z</time>
      </trkpt>
      <trkpt lat="43.5726" lon="3.17964">
        <ele>381.959681</ele>
        <time>2025-10-23T12:36:21Z</time>
      </trkpt>
      <trkpt lat="43.5726" lon="3.17964">
        <ele>381.960705</ele>
        <time>2025-10-23T12:36:22Z</time>
      </trkpt>
      <trkpt lat="43.5726" lon="3.17964">
        <ele>381.960705</ele>
        <time>2025-10-23T12:36:23Z</time>
      </trkpt>
      <trkpt lat="43.5726" lon="3.17964">
        <ele>381.960705</ele>
        <time>2025-10-23T12:36:24Z</time>
      </trkpt>
      <trkpt lat="43.5726" lon="3.17964">
        <ele>381.960705</ele>
        <time>2025-10-23T12:36:25Z</time>
      </trkpt>
      <trkpt lat="43.5726" lon="3.17964">
        <ele>381.960705</ele>
        <time>2025-10-23T12:36:26Z</time>
      </trkpt>
      <trkpt lat="43.5726" lon="3.17964">
        <ele>381.960705</ele>
        <time>2025-10-23T12:36:27Z</time>
      </trkpt>
      <trkpt lat="43.5726" lon="3.17964">
        <ele>381.960705</ele>
        <time>2025-10-23T12:36:28Z</time>
      </trkpt>
      <trkpt lat="43.5726" lon="3.17964">
        <ele>381.960705</ele>
        <time>2025-10-23T12:36:29Z</time>
      </trkpt>
      <trkpt lat="43.5726" lon="3.17964">
        <ele>381.960705</ele>
        <time>2025-10-23T12:36:30Z</time>
      </trkpt>
      <trkpt lat="43.5726" lon="3.17964">
        <ele>381.960705</ele>
        <time>2025-10-23T12:36:31Z</time>
      </trkpt>
      <trkpt lat="43.5726" lon="3.17964">
        <ele>381.960705</ele>
        <time>2025-10-23T12:36:32Z</time>
      </trkpt>
      <trkpt lat="43.5726" lon="3.17964">
        <ele>381.960705</ele>
        <time>2025-10-23T12:36:33Z</time>
      </trkpt>
      <trkpt lat="43.5726" lon="3.17964">
        <ele>381.961729</ele>
        <time>2025-10-23T12:36:34Z</time>
      </trkpt>
      <trkpt lat="43.57259" lon="3.17964">
        <ele>381.963532</ele>
        <time>2025-10-23T12:36:35Z</time>
      </trkpt>
      <trkpt lat="43.57259" lon="3.17964">
        <ele>381.965757</ele>
        <time>2025-10-23T12:36:36Z</time>
      </trkpt>
      <trkpt lat="43.57259" lon="3.17964">
        <ele>381.965757</ele>
        <time>2025-10-23T12:36:37Z</time>
      </trkpt>
      <trkpt lat="43.57259" lon="3.17964">
        <ele>381.965757</ele>
        <time>2025-10-23T12:36:38Z</time>
      </trkpt>
      <trkpt lat="43.57259" lon="3.17964">
        <ele>381.965757</ele>
        <time>2025-10-23T12:36:39Z</time>
      </trkpt>
      <trkpt lat="43.57259" lon="3.17964">
        <ele>381.965757</ele>
        <time>2025-10-23T12:36:40Z</time>
      </trkpt>
      <trkpt lat="43.57259" lon="3.17964">
        <ele>381.965757</ele>
        <time>2025-10-23T12:36:41Z</time>
      </trkpt>
      <trkpt lat="43.57259" lon="3.17964">
        <ele>381.965757</ele>
        <time>2025-10-23T12:36:42Z</time>
      </trkpt>
      <trkpt lat="43.57259" lon="3.17964">
        <ele>381.966499</ele>
        <time>2025-10-23T12:36:43Z</time>
      </trkpt>
      <trkpt lat="43.57259" lon="3.17964">
        <ele>381.966499</ele>
        <time>2025-10-23T12:36:44Z</time>
      </trkpt>
      <trkpt lat="43.57259" lon="3.17964">
        <ele>381.966499</ele>
        <time>2025-10-23T12:36:45Z</time>
      </trkpt>
      <trkpt lat="43.57259" lon="3.17964">
        <ele>381.967523</ele>
        <time>2025-10-23T12:36:46Z</time>
      </trkpt>
      <trkpt lat="43.57259" lon="3.17964">
        <ele>381.967523</ele>
        <time>2025-10-23T12:36:48Z</time>
      </trkpt>
      <trkpt lat="43.5726" lon="3.17965">
        <ele>381.971128</ele>
        <time>2025-10-23T12:36:49Z</time>
      </trkpt>
      <trkpt lat="43.5726" lon="3.17967">
        <ele>381.992402</ele>
        <time>2025-10-23T12:36:50Z</time>
      </trkpt>
      <trkpt lat="43.57261" lon="3.17969">
        <ele>382.004711</ele>
        <time>2025-10-23T12:36:51Z</time>
      </trkpt>
      <trkpt lat="43.57262" lon="3.1797">
        <ele>382.022857</ele>
        <time>2025-10-23T12:36:52Z</time>
      </trkpt>
      <trkpt lat="43.57264" lon="3.17972">
        <ele>382.046217</ele>
        <time>2025-10-23T12:36:53Z</time>
      </trkpt>
      <trkpt lat="43.57266" lon="3.17975">
        <ele>382.071947</ele>
        <time>2025-10-23T12:36:54Z</time>
      </trkpt>
      <trkpt lat="43.57268" lon="3.17977">
        <ele>382.08541</ele>
        <time>2025-10-23T12:36:55Z</time>
      </trkpt>
      <trkpt lat="43.5727" lon="3.1798">
        <ele>382.053236</ele>
        <time>2025-10-23T12:36:56Z</time>
      </trkpt>
      <trkpt lat="43.57273" lon="3.17983">
        <ele>382.017194</ele>
        <time>2025-10-23T12:36:57Z</time>
      </trkpt>
      <trkpt lat="43.57276" lon="3.17986">
        <ele>381.977105</ele>
        <time>2025-10-23T12:36:58Z</time>
      </trkpt>
      <trkpt lat="43.57279" lon="3.17989">
        <ele>381.934349</ele>
        <time>2025-10-23T12:36:59Z</time>
      </trkpt>
      <trkpt lat="43.57283" lon="3.17992">
        <ele>381.883935</ele>
        <time>2025-10-23T12:37:00Z</time>
      </trkpt>
      <trkpt lat="43.57287" lon="3.17995">
        <ele>381.838959</ele>
        <time>2025-10-23T12:37:01Z</time>
      </trkpt>
      <trkpt lat="43.5729" lon="3.17998">
        <ele>381.793217</ele>
        <time>2025-10-23T12:37:02Z</time>
      </trkpt>
      <trkpt lat="43.57294" lon="3.18">
        <ele>381.74784</ele>
        <time>2025-10-23T12:37:03Z</time>
      </trkpt>
      <trkpt lat="43.57298" lon="3.18003">
        <ele>381.703795</ele>
        <time>2025-10-23T12:37:04Z</time>
      </trkpt>
      <trkpt lat="43.57301" lon="3.18006">
        <ele>381.661314</ele>
        <time>2025-10-23T12:37:05Z</time>
      </trkpt>
      <trkpt lat="43.57305" lon="3.18008">
        <ele>381.616535</ele>
        <time>2025-10-23T12:37:06Z</time>
      </trkpt>
      <trkpt lat="43.57308" lon="3.18011">
        <ele>381.572129</ele>
        <time>2025-10-23T12:37:07Z</time>
      </trkpt>
      <trkpt lat="43.57312" lon="3.18013">
        <ele>381.525776</ele>
        <time>2025-10-23T12:37:08Z</time>
      </trkpt>
      <trkpt lat="43.57316" lon="3.18016">
        <ele>381.48137</ele>
        <time>2025-10-23T12:37:09Z</time>
      </trkpt>
      <trkpt lat="43.57319" lon="3.18019">
        <ele>381.433127</ele>
        <time>2025-10-23T12:37:10Z</time>
      </trkpt>
      <trkpt lat="43.57323" lon="3.18022">
        <ele>381.381255</ele>
        <time>2025-10-23T12:37:11Z</time>
      </trkpt>
      <trkpt lat="43.57328" lon="3.18025">
        <ele>381.329292</ele>
        <time>2025-10-23T12:37:12Z</time>
      </trkpt>
      <trkpt lat="43.57332" lon="3.18028">
        <ele>381.275665</ele>
        <time>2025-10-23T12:37:13Z</time>
      </trkpt>
      <trkpt lat="43.57337" lon="3.1803">
        <ele>381.224972</ele>
        <time>2025-10-23T12:37:14Z</time>
      </trkpt>
      <trkpt lat="43.57341" lon="3.18033">
        <ele>381.170941</ele>
        <time>2025-10-23T12:37:15Z</time>
      </trkpt>
      <trkpt lat="43.57346" lon="3.18035">
        <ele>381.115891</ele>
        <time>2025-10-23T12:37:16Z</time>
      </trkpt>
      <trkpt lat="43.5735" lon="3.18037">
        <ele>381.063181</ele>
        <time>2025-10-23T12:37:17Z</time>
      </trkpt>
      <trkpt lat="43.57355" lon="3.18039">
        <ele>381.011513</ele>
        <time>2025-10-23T12:37:18Z</time>
      </trkpt>
      <trkpt lat="43.57359" lon="3.18042">
        <ele>380.961112</ele>
        <time>2025-10-23T12:37:19Z</time>
      </trkpt>
      <trkpt lat="43.57364" lon="3.18044">
        <ele>380.910117</ele>
        <time>2025-10-23T12:37:20Z</time>
      </trkpt>
      <trkpt lat="43.57368" lon="3.18047">
        <ele>380.860364</ele>
        <time>2025-10-23T12:37:21Z</time>
      </trkpt>
      <trkpt lat="43.57371" lon="3.18051">
        <ele>380.809959</ele>
        <time>2025-10-23T12:37:22Z</time>
      </trkpt>
      <trkpt lat="43.57375" lon="3.18055">
        <ele>380.757603</ele>
        <time>2025-10-23T12:37:23Z</time>
      </trkpt>
      <trkpt lat="43.57378" lon="3.1806">
        <ele>380.708435</ele>
        <time>2025-10-23T12:37:24Z</time>
      </trkpt>
      <trkpt lat="43.57381" lon="3.18064">
        <ele>380.660013</ele>
        <time>2025-10-23T12:37:25Z</time>
      </trkpt>
      <trkpt lat="43.57384" lon="3.18069">
        <ele>380.610086</ele>
        <time>2025-10-23T12:37:26Z</time>
      </trkpt>
      <trkpt lat="43.57387" lon="3.18073">
        <ele>380.559758</ele>
        <time>2025-10-23T12:37:27Z</time>
      </trkpt>
      <trkpt lat="43.5739" lon="3.18079">
        <ele>380.508457</ele>
        <time>2025-10-23T12:37:28Z</time>
      </trkpt>
      <trkpt lat="43.57393" lon="3.18084">
        <ele>380.455868</ele>
        <time>2025-10-23T12:37:29Z</time>
      </trkpt>
      <trkpt lat="43.57396" lon="3.18089">
        <ele>380.403851</ele>
        <time>2025-10-23T12:37:30Z</time>
      </trkpt>
      <trkpt lat="43.57399" lon="3.18094">
        <ele>380.354473</ele>
        <time>2025-10-23T12:37:31Z</time>
      </trkpt>
      <trkpt lat="43.57401" lon="3.18099">
        <ele>380.303791</ele>
        <time>2025-10-23T12:37:32Z</time>
      </trkpt>
      <trkpt lat="43.57403" lon="3.18105">
        <ele>380.253862</ele>
        <time>2025-10-23T12:37:33Z</time>
      </trkpt>
      <trkpt lat="43.57405" lon="3.18111">
        <ele>380.204426</ele>
        <time>2025-10-23T12:37:34Z</time>
      </trkpt>
      <trkpt lat="43.57407" lon="3.18117">
        <ele>380.152578</ele>
        <time>2025-10-23T12:37:35Z</time>
      </trkpt>
      <trkpt lat="43.57409" lon="3.18123">
        <ele>380.126956</ele>
        <time>2025-10-23T12:37:36Z</time>
      </trkpt>
      <trkpt lat="43.5741" lon="3.18129">
        <ele>380.125366</ele>
        <time>2025-10-23T12:37:37Z</time>
      </trkpt>
      <trkpt lat="43.57412" lon="3.18135">
        <ele>380.123742</ele>
        <time>2025-10-23T12:37:38Z</time>
      </trkpt>
      <trkpt lat="43.57414" lon="3.18141">
        <ele>380.12215</ele>
        <time>2025-10-23T12:37:39Z</time>
      </trkpt>
      <trkpt lat="43.57414" lon="3.18148">
        <ele>380.120491</ele>
        <time>2025-10-23T12:37:40Z</time>
      </trkpt>
      <trkpt lat="43.57414" lon="3.18155">
        <ele>380.118799</ele>
        <time>2025-10-23T12:37:41Z</time>
      </trkpt>
      <trkpt lat="43.57414" lon="3.18162">
        <ele>380.117226</ele>
        <time>2025-10-23T12:37:42Z</time>
      </trkpt>
      <trkpt lat="43.57414" lon="3.18168">
        <ele>380.115773</ele>
        <time>2025-10-23T12:37:43Z</time>
      </trkpt>
      <trkpt lat="43.57413" lon="3.18174">
        <ele>380.114314</ele>
        <time>2025-10-23T12:37:44Z</time>
      </trkpt>
      <trkpt lat="43.57413" lon="3.1818">
        <ele>380.112762</ele>
        <time>2025-10-23T12:37:45Z</time>
      </trkpt>
      <trkpt lat="43.57413" lon="3.18186">
        <ele>380.111236</ele>
        <time>2025-10-23T12:37:46Z</time>
      </trkpt>
      <trkpt lat="43.57412" lon="3.18193">
        <ele>380.109714</ele>
        <time>2025-10-23T12:37:47Z</time>
      </trkpt>
      <trkpt lat="43.57412" lon="3.18199">
        <ele>380.108119</ele>
        <time>2025-10-23T12:37:48Z</time>
      </trkpt>
      <trkpt lat="43.57412" lon="3.18206">
        <ele>380.106548</ele>
        <time>2025-10-23T12:37:49Z</time>
      </trkpt>
      <trkpt lat="43.57413" lon="3.18213">
        <ele>380.104869</ele>
        <time>2025-10-23T12:37:50Z</time>
      </trkpt>
      <trkpt lat="43.57414" lon="3.1822">
        <ele>380.103166</ele>
        <time>2025-10-23T12:37:51Z</time>
      </trkpt>
      <trkpt lat="43.57414" lon="3.18227">
        <ele>380.10145</ele>
        <time>2025-10-23T12:37:52Z</time>
      </trkpt>
      <trkpt lat="43.57414" lon="3.18234">
        <ele>380.099638</ele>
        <time>2025-10-23T12:37:53Z</time>
      </trkpt>
      <trkpt lat="43.57414" lon="3.18242">
        <ele>380.097849</ele>
        <time>2025-10-23T12:37:54Z</time>
      </trkpt>
      <trkpt lat="43.57413" lon="3.18249">
        <ele>380.096074</ele>
        <time>2025-10-23T12:37:55Z</time>
      </trkpt>
      <trkpt lat="43.57412" lon="3.18256">
        <ele>380.094247</ele>
        <time>2025-10-23T12:37:56Z</time>
      </trkpt>
      <trkpt lat="43.57412" lon="3.18264">
        <ele>380.092444</ele>
        <time>2025-10-23T12:37:57Z</time>
      </trkpt>
      <trkpt lat="43.57411" lon="3.18271">
        <ele>380.090626</ele>
        <time>2025-10-23T12:37:58Z</time>
      </trkpt>
      <trkpt lat="43.57409" lon="3.18279">
        <ele>380.088739</ele>
        <time>2025-10-23T12:37:59Z</time>
      </trkpt>
      <trkpt lat="43.57408" lon="3.18286">
        <ele>380.08689</ele>
        <time>2025-10-23T12:38:00Z</time>
      </trkpt>
      <trkpt lat="43.57407" lon="3.18294">
        <ele>380.085024</ele>
        <time>2025-10-23T12:38:01Z</time>
      </trkpt>
      <trkpt lat="43.57406" lon="3.18302">
        <ele>380.08313</ele>
        <time>2025-10-23T12:38:02Z</time>
      </trkpt>
      <trkpt lat="43.57404" lon="3.18309">
        <ele>380.081233</ele>
        <time>2025-10-23T12:38:03Z</time>
      </trkpt>
      <trkpt lat="43.57403" lon="3.18316">
        <ele>380.079455</ele>
        <time>2025-10-23T12:38:04Z</time>
      </trkpt>
      <trkpt lat="43.57401" lon="3.18323">
        <ele>380.077733</ele>
        <time>2025-10-23T12:38:05Z</time>
      </trkpt>
      <trkpt lat="43.574" lon="3.1833">
        <ele>380.076015</ele>
        <time>2025-10-23T12:38:06Z</time>
      </trkpt>
      <trkpt lat="43.57399" lon="3.18336">
        <ele>380.074348</ele>
        <time>2025-10-23T12:38:07Z</time>
      </trkpt>
      <trkpt lat="43.57397" lon="3.18343">
        <ele>380.072688</ele>
        <time>2025-10-23T12:38:08Z</time>
      </trkpt>
      <trkpt lat="43.57396" lon="3.1835">
        <ele>380.071068</ele>
        <time>2025-10-23T12:38:09Z</time>
      </trkpt>
      <trkpt lat="43.57395" lon="3.18356">
        <ele>380.069499</ele>
        <time>2025-10-23T12:38:10Z</time>
      </trkpt>
      <trkpt lat="43.57394" lon="3.18362">
        <ele>380.067925</ele>
        <time>2025-10-23T12:38:11Z</time>
      </trkpt>
      <trkpt lat="43.57392" lon="3.18368">
        <ele>379.682823</ele>
        <time>2025-10-23T12:38:12Z</time>
      </trkpt>
      <trkpt lat="43.57391" lon="3.18374">
        <ele>379.254118</ele>
        <time>2025-10-23T12:38:13Z</time>
      </trkpt>
      <trkpt lat="43.57389" lon="3.18379">
        <ele>378.808819</ele>
        <time>2025-10-23T12:38:14Z</time>
      </trkpt>
      <trkpt lat="43.57388" lon="3.18386">
        <ele>378.319922</ele>
        <time>2025-10-23T12:38:15Z</time>
      </trkpt>
      <trkpt lat="43.57386" lon="3.18393">
        <ele>377.760803</ele>
        <time>2025-10-23T12:38:16Z</time>
      </trkpt>
      <trkpt lat="43.57384" lon="3.18401">
        <ele>377.171332</ele>
        <time>2025-10-23T12:38:17Z</time>
      </trkpt>
      <trkpt lat="43.57382" lon="3.18409">
        <ele>376.58715</ele>
        <time>2025-10-23T12:38:18Z</time>
      </trkpt>
      <trkpt lat="43.57381" lon="3.18418">
        <ele>375.935436</ele>
        <time>2025-10-23T12:38:19Z</time>
      </trkpt>
      <trkpt lat="43.5738" lon="3.18427">
        <ele>375.267238</ele>
        <time>2025-10-23T12:38:20Z</time>
      </trkpt>
      <trkpt lat="43.5738" lon="3.18437">
        <ele>374.609395</ele>
        <time>2025-10-23T12:38:21Z</time>
      </trkpt>
      <trkpt lat="43.57379" lon="3.18447">
        <ele>373.874218</ele>
        <time>2025-10-23T12:38:22Z</time>
      </trkpt>
      <trkpt lat="43.57379" lon="3.18457">
        <ele>373.162051</ele>
        <time>2025-10-23T12:38:23Z</time>
      </trkpt>
      <trkpt lat="43.57379" lon="3.18467">
        <ele>372.421397</ele>
        <time>2025-10-23T12:38:24Z</time>
      </trkpt>
      <trkpt lat="43.57379" lon="3.18478">
        <ele>371.673557</ele>
        <time>2025-10-23T12:38:25Z</time>
      </trkpt>
      <trkpt lat="43.57379" lon="3.18488">
        <ele>370.940025</ele>
        <time>2025-10-23T12:38:26Z</time>
      </trkpt>
      <trkpt lat="43.57379" lon="3.18498">
        <ele>370.212552</ele>
        <time>2025-10-23T12:38:27Z</time>
      </trkpt>
      <trkpt lat="43.57379" lon="3.18509">
        <ele>369.443348</ele>
        <time>2025-10-23T12:38:28Z</time>
      </trkpt>
      <trkpt lat="43.57379" lon="3.1852">
        <ele>368.645661</ele>
        <time>2025-10-23T12:38:29Z</time>
      </trkpt>
      <trkpt lat="43.57379" lon="3.18531">
        <ele>367.883388</ele>
        <time>2025-10-23T12:38:30Z</time>
      </trkpt>
      <trkpt lat="43.57379" lon="3.18541">
        <ele>367.142474</ele>
        <time>2025-10-23T12:38:31Z</time>
      </trkpt>
      <trkpt lat="43.57379" lon="3.18551">
        <ele>366.437428</ele>
        <time>2025-10-23T12:38:32Z</time>
      </trkpt>
      <trkpt lat="43.57378" lon="3.18561">
        <ele>365.711454</ele>
        <time>2025-10-23T12:38:33Z</time>
      </trkpt>
      <trkpt lat="43.57377" lon="3.18571">
        <ele>364.993803</ele>
        <time>2025-10-23T12:38:34Z</time>
      </trkpt>
      <trkpt lat="43.57374" lon="3.1858">
        <ele>364.283885</ele>
        <time>2025-10-23T12:38:35Z</time>
      </trkpt>
      <trkpt lat="43.57371" lon="3.18589">
        <ele>363.604122</ele>
        <time>2025-10-23T12:38:36Z</time>
      </trkpt>
      <trkpt lat="43.57368" lon="3.18597">
        <ele>362.979755</ele>
        <time>2025-10-23T12:38:37Z</time>
      </trkpt>
      <trkpt lat="43.57366" lon="3.18604">
        <ele>362.412838</ele>
        <time>2025-10-23T12:38:38Z</time>
      </trkpt>
      <trkpt lat="43.57362" lon="3.18611">
        <ele>361.589691</ele>
        <time>2025-10-23T12:38:39Z</time>
      </trkpt>
      <trkpt lat="43.57358" lon="3.18617">
        <ele>360.740627</ele>
        <time>2025-10-23T12:38:40Z</time>
      </trkpt>
      <trkpt lat="43.57355" lon="3.18622">
        <ele>360.039385</ele>
        <time>2025-10-23T12:38:41Z</time>
      </trkpt>
      <trkpt lat="43.57352" lon="3.18628">
        <ele>359.270901</ele>
        <time>2025-10-23T12:38:42Z</time>
      </trkpt>
      <trkpt lat="43.5735" lon="3.18635">
        <ele>358.410773</ele>
        <time>2025-10-23T12:38:43Z</time>
      </trkpt>
      <trkpt lat="43.57348" lon="3.18643">
        <ele>357.594185</ele>
        <time>2025-10-23T12:38:44Z</time>
      </trkpt>
      <trkpt lat="43.57347" lon="3.18651">
        <ele>356.70677</ele>
        <time>2025-10-23T12:38:45Z</time>
      </trkpt>
      <trkpt lat="43.57345" lon="3.1866">
        <ele>355.778738</ele>
        <time>2025-10-23T12:38:46Z</time>
      </trkpt>
      <trkpt lat="43.57342" lon="3.18668">
        <ele>354.831438</ele>
        <time>2025-10-23T12:38:47Z</time>
      </trkpt>
      <trkpt lat="43.57339" lon="3.18675">
        <ele>354.011256</ele>
        <time>2025-10-23T12:38:48Z</time>
      </trkpt>
      <trkpt lat="43.57334" lon="3.18681">
        <ele>353.048758</ele>
        <time>2025-10-23T12:38:49Z</time>
      </trkpt>
      <trkpt lat="43.5733" lon="3.18685">
        <ele>352.255125</ele>
        <time>2025-10-23T12:38:50Z</time>
      </trkpt>
      <trkpt lat="43.57324" lon="3.18687">
        <ele>351.428689</ele>
        <time>2025-10-23T12:38:51Z</time>
      </trkpt>
      <trkpt lat="43.57318" lon="3.18687">
        <ele>350.551368</ele>
        <time>2025-10-23T12:38:52Z</time>
      </trkpt>
      <trkpt lat="43.57312" lon="3.18686">
        <ele>349.692613</ele>
        <time>2025-10-23T12:38:53Z</time>
      </trkpt>
      <trkpt lat="43.57305" lon="3.18685">
        <ele>348.726012</ele>
        <time>2025-10-23T12:38:54Z</time>
      </trkpt>
      <trkpt lat="43.573" lon="3.18683">
        <ele>347.886235</ele>
        <time>2025-10-23T12:38:55Z</time>
      </trkpt>
      <trkpt lat="43.57294" lon="3.18679">
        <ele>347.019711</ele>
        <time>2025-10-23T12:38:56Z</time>
      </trkpt>
      <trkpt lat="43.57289" lon="3.18676">
        <ele>346.204037</ele>
        <time>2025-10-23T12:38:57Z</time>
      </trkpt>
      <trkpt lat="43.57284" lon="3.18674">
        <ele>345.395575</ele>
        <time>2025-10-23T12:38:58Z</time>
      </trkpt>
      <trkpt lat="43.57278" lon="3.18673">
        <ele>344.590407</ele>
        <time>2025-10-23T12:38:59Z</time>
      </trkpt>
      <trkpt lat="43.57272" lon="3.18674">
        <ele>343.755137</ele>
        <time>2025-10-23T12:39:00Z</time>
      </trkpt>
      <trkpt lat="43.57267" lon="3.18673">
        <ele>342.934807</ele>
        <time>2025-10-23T12:39:01Z</time>
      </trkpt>
      <trkpt lat="43.57261" lon="3.18673">
        <ele>342.038754</ele>
        <time>2025-10-23T12:39:02Z</time>
      </trkpt>
      <trkpt lat="43.57255" lon="3.1867">
        <ele>341.18519</ele>
        <time>2025-10-23T12:39:03Z</time>
      </trkpt>
      <trkpt lat="43.57249" lon="3.18668">
        <ele>340.300393</ele>
        <time>2025-10-23T12:39:04Z</time>
      </trkpt>
      <trkpt lat="43.57242" lon="3.18667">
        <ele>339.36035</ele>
        <time>2025-10-23T12:39:05Z</time>
      </trkpt>
      <trkpt lat="43.57236" lon="3.18668">
        <ele>338.410291</ele>
        <time>2025-10-23T12:39:06Z</time>
      </trkpt>
      <trkpt lat="43.57229" lon="3.1867">
        <ele>337.481137</ele>
        <time>2025-10-23T12:39:07Z</time>
      </trkpt>
      <trkpt lat="43.57224" lon="3.18674">
        <ele>336.565086</ele>
        <time>2025-10-23T12:39:08Z</time>
      </trkpt>
      <trkpt lat="43.57218" lon="3.18678">
        <ele>336.044268</ele>
        <time>2025-10-23T12:39:09Z</time>
      </trkpt>
      <trkpt lat="43.57211" lon="3.1868">
        <ele>335.50643</ele>
        <time>2025-10-23T12:39:10Z</time>
      </trkpt>
      <trkpt lat="43.57205" lon="3.18682">
        <ele>334.990525</ele>
        <time>2025-10-23T12:39:11Z</time>
      </trkpt>
      <trkpt lat="43.57198" lon="3.18685">
        <ele>334.401203</ele>
        <time>2025-10-23T12:39:12Z</time>
      </trkpt>
      <trkpt lat="43.57191" lon="3.18688">
        <ele>333.807601</ele>
        <time>2025-10-23T12:39:13Z</time>
      </trkpt>
      <trkpt lat="43.57184" lon="3.18693">
        <ele>333.20046</ele>
        <time>2025-10-23T12:39:14Z</time>
      </trkpt>
      <trkpt lat="43.57178" lon="3.18698">
        <ele>332.645839</ele>
        <time>2025-10-23T12:39:15Z</time>
      </trkpt>
      <trkpt lat="43.57172" lon="3.18705">
        <ele>332.037721</ele>
        <time>2025-10-23T12:39:16Z</time>
      </trkpt>
      <trkpt lat="43.57166" lon="3.18711">
        <ele>331.43887</ele>
        <time>2025-10-23T12:39:17Z</time>
      </trkpt>
      <trkpt lat="43.57161" lon="3.18719">
        <ele>330.845827</ele>
        <time>2025-10-23T12:39:18Z</time>
      </trkpt>
      <trkpt lat="43.57156" lon="3.18726">
        <ele>330.290097</ele>
        <time>2025-10-23T12:39:19Z</time>
      </trkpt>
      <trkpt lat="43.5715" lon="3.18732">
        <ele>329.730141</ele>
        <time>2025-10-23T12:39:20Z</time>
      </trkpt>
      <trkpt lat="43.57143" lon="3.18736">
        <ele>329.110622</ele>
        <time>2025-10-23T12:39:21Z</time>
      </trkpt>
      <trkpt lat="43.57136" lon="3.1874">
        <ele>328.540622</ele>
        <time>2025-10-23T12:39:22Z</time>
      </trkpt>
      <trkpt lat="43.5713" lon="3.18743">
        <ele>328.017783</ele>
        <time>2025-10-23T12:39:23Z</time>
      </trkpt>
      <trkpt lat="43.57124" lon="3.18746">
        <ele>327.50434</ele>
        <time>2025-10-23T12:39:24Z</time>
      </trkpt>
      <trkpt lat="43.57118" lon="3.1875">
        <ele>326.992031</ele>
        <time>2025-10-23T12:39:25Z</time>
      </trkpt>
      <trkpt lat="43.57112" lon="3.18755">
        <ele>326.457865</ele>
        <time>2025-10-23T12:39:26Z</time>
      </trkpt>
      <trkpt lat="43.57107" lon="3.18761">
        <ele>325.91643</ele>
        <time>2025-10-23T12:39:27Z</time>
      </trkpt>
      <trkpt lat="43.57102" lon="3.18767">
        <ele>325.367665</ele>
        <time>2025-10-23T12:39:28Z</time>
      </trkpt>
      <trkpt lat="43.57097" lon="3.18774">
        <ele>324.788602</ele>
        <time>2025-10-23T12:39:29Z</time>
      </trkpt>
      <trkpt lat="43.57092" lon="3.18782">
        <ele>324.194173</ele>
        <time>2025-10-23T12:39:30Z</time>
      </trkpt>
      <trkpt lat="43.57087" lon="3.1879">
        <ele>323.585889</ele>
        <time>2025-10-23T12:39:31Z</time>
      </trkpt>
      <trkpt lat="43.57082" lon="3.18799">
        <ele>322.950389</ele>
        <time>2025-10-23T12:39:32Z</time>
      </trkpt>
      <trkpt lat="43.57077" lon="3.18808">
        <ele>322.326259</ele>
        <time>2025-10-23T12:39:33Z</time>
      </trkpt>
      <trkpt lat="43.57072" lon="3.18815">
        <ele>322.214507</ele>
        <time>2025-10-23T12:39:34Z</time>
      </trkpt>
      <trkpt lat="43.57067" lon="3.18823">
        <ele>322.102081</ele>
        <time>2025-10-23T12:39:35Z</time>
      </trkpt>
      <trkpt lat="43.57062" lon="3.18831">
        <ele>321.987513</ele>
        <time>2025-10-23T12:39:36Z</time>
      </trkpt>
      <trkpt lat="43.57057" lon="3.18838">
        <ele>321.875882</ele>
        <time>2025-10-23T12:39:37Z</time>
      </trkpt>
      <trkpt lat="43.57051" lon="3.18845">
        <ele>321.76402</ele>
        <time>2025-10-23T12:39:38Z</time>
      </trkpt>
      <trkpt lat="43.57046" lon="3.18851">
        <ele>321.656652</ele>
        <time>2025-10-23T12:39:39Z</time>
      </trkpt>
      <trkpt lat="43.5704" lon="3.18856">
        <ele>321.554416</ele>
        <time>2025-10-23T12:39:40Z</time>
      </trkpt>
      <trkpt lat="43.57034" lon="3.1886">
        <ele>321.450048</ele>
        <time>2025-10-23T12:39:41Z</time>
      </trkpt>
      <trkpt lat="43.57028" lon="3.18863">
        <ele>321.356327</ele>
        <time>2025-10-23T12:39:42Z</time>
      </trkpt>
      <trkpt lat="43.57022" lon="3.18864">
        <ele>321.264142</ele>
        <time>2025-10-23T12:39:43Z</time>
      </trkpt>
      <trkpt lat="43.57015" lon="3.18865">
        <ele>321.167076</ele>
        <time>2025-10-23T12:39:44Z</time>
      </trkpt>
      <trkpt lat="43.57009" lon="3.18866">
        <ele>321.076242</ele>
        <time>2025-10-23T12:39:45Z</time>
      </trkpt>
      <trkpt lat="43.57004" lon="3.18867">
        <ele>320.99275</ele>
        <time>2025-10-23T12:39:46Z</time>
      </trkpt>
      <trkpt lat="43.56999" lon="3.18869">
        <ele>320.913013</ele>
        <time>2025-10-23T12:39:47Z</time>
      </trkpt>
      <trkpt lat="43.56994" lon="3.1887">
        <ele>320.836975</ele>
        <time>2025-10-23T12:39:48Z</time>
      </trkpt>
      <trkpt lat="43.56989" lon="3.18871">
        <ele>320.763915</ele>
        <time>2025-10-23T12:39:49Z</time>
      </trkpt>
      <trkpt lat="43.56984" lon="3.18872">
        <ele>320.69449</ele>
        <time>2025-10-23T12:39:50Z</time>
      </trkpt>
      <trkpt lat="43.5698" lon="3.18873">
        <ele>320.626988</ele>
        <time>2025-10-23T12:39:51Z</time>
      </trkpt>
      <trkpt lat="43.56976" lon="3.18875">
        <ele>320.558008</ele>
        <time>2025-10-23T12:39:52Z</time>
      </trkpt>
      <trkpt lat="43.56971" lon="3.18876">
        <ele>320.49219</ele>
        <time>2025-10-23T12:39:53Z</time>
      </trkpt>
      <trkpt lat="43.56967" lon="3.18877">
        <ele>320.428352</ele>
        <time>2025-10-23T12:39:54Z</time>
      </trkpt>
      <trkpt lat="43.56963" lon="3.18879">
        <ele>320.364322</ele>
        <time>2025-10-23T12:39:55Z</time>
      </trkpt>
      <trkpt lat="43.5696" lon="3.18882">
        <ele>320.311674</ele>
        <time>2025-10-23T12:39:56Z</time>
      </trkpt>
      <trkpt lat="43.56958" lon="3.18884">
        <ele>320.265555</ele>
        <time>2025-10-23T12:39:57Z</time>
      </trkpt>
      <trkpt lat="43.56954" lon="3.18888">
        <ele>320.197604</ele>
        <time>2025-10-23T12:39:58Z</time>
      </trkpt>
      <trkpt lat="43.56951" lon="3.18892">
        <ele>320.128848</ele>
        <time>2025-10-23T12:39:59Z</time>
      </trkpt>
      <trkpt lat="43.56948" lon="3.18897">
        <ele>320.05931</ele>
        <time>2025-10-23T12:40:00Z</time>
      </trkpt>
      <trkpt lat="43.56944" lon="3.18901">
        <ele>319.992773</ele>
        <time>2025-10-23T12:40:01Z</time>
      </trkpt>
      <trkpt lat="43.56943" lon="3.18904">
        <ele>319.94597</ele>
        <time>2025-10-23T12:40:02Z</time>
      </trkpt>
      <trkpt lat="43.56943" lon="3.18906">
        <ele>319.922899</ele>
        <time>2025-10-23T12:40:03Z</time>
      </trkpt>
      <trkpt lat="43.56945" lon="3.18906">
        <ele>319.898794</ele>
        <time>2025-10-23T12:40:04Z</time>
      </trkpt>
      <trkpt lat="43.56946" lon="3.18905">
        <ele>319.875752</ele>
        <time>2025-10-23T12:40:05Z</time>
      </trkpt>
      <trkpt lat="43.56946" lon="3.18903">
        <ele>319.853647</ele>
        <time>2025-10-23T12:40:06Z</time>
      </trkpt>
      <trkpt lat="43.56947" lon="3.18901">
        <ele>319.83062</ele>
        <time>2025-10-23T12:40:07Z</time>
      </trkpt>
      <trkpt lat="43.56948" lon="3.18899">
        <ele>319.804419</ele>
        <time>2025-10-23T12:40:08Z</time>
      </trkpt>
      <trkpt lat="43.56948" lon="3.18897">
        <ele>319.78147</ele>
        <time>2025-10-23T12:40:09Z</time>
      </trkpt>
      <trkpt lat="43.56948" lon="3.18895">
        <ele>319.760939</ele>
        <time>2025-10-23T12:40:10Z</time>
      </trkpt>
      <trkpt lat="43.56946" lon="3.18893">
        <ele>319.73164</ele>
        <time>2025-10-23T12:40:11Z</time>
      </trkpt>
      <trkpt lat="43.56944" lon="3.18892">
        <ele>319.695942</ele>
        <time>2025-10-23T12:40:12Z</time>
      </trkpt>
      <trkpt lat="43.56942" lon="3.18892">
        <ele>319.668502</ele>
        <time>2025-10-23T12:40:13Z</time>
      </trkpt>
      <trkpt lat="43.56941" lon="3.18892">
        <ele>319.642708</ele>
        <time>2025-10-23T12:40:14Z</time>
      </trkpt>
      <trkpt lat="43.56939" lon="3.18893">
        <ele>319.614881</ele>
        <time>2025-10-23T12:40:15Z</time>
      </trkpt>
      <trkpt lat="43.56937" lon="3.18894">
        <ele>319.4981</ele>
        <time>2025-10-23T12:40:16Z</time>
      </trkpt>
      <trkpt lat="43.56935" lon="3.18894">
        <ele>319.366319</ele>
        <time>2025-10-23T12:40:17Z</time>
      </trkpt>
      <trkpt lat="43.56933" lon="3.18895">
        <ele>319.243784</ele>
        <time>2025-10-23T12:40:18Z</time>
      </trkpt>
      <trkpt lat="43.56931" lon="3.18896">
        <ele>319.129711</ele>
        <time>2025-10-23T12:40:19Z</time>
      </trkpt>
      <trkpt lat="43.56929" lon="3.18896">
        <ele>318.99972</ele>
        <time>2025-10-23T12:40:20Z</time>
      </trkpt>
      <trkpt lat="43.56927" lon="3.18897">
        <ele>318.855036</ele>
        <time>2025-10-23T12:40:21Z</time>
      </trkpt>
      <trkpt lat="43.56924" lon="3.18898">
        <ele>318.664508</ele>
        <time>2025-10-23T12:40:22Z</time>
      </trkpt>
      <trkpt lat="43.56922" lon="3.18899">
        <ele>318.52679</ele>
        <time>2025-10-23T12:40:23Z</time>
      </trkpt>
      <trkpt lat="43.56919" lon="3.189">
        <ele>318.378009</ele>
        <time>2025-10-23T12:40:24Z</time>
      </trkpt>
      <trkpt lat="43.56917" lon="3.189">
        <ele>318.24352</ele>
        <time>2025-10-23T12:40:25Z</time>
      </trkpt>
      <trkpt lat="43.56915" lon="3.189">
        <ele>318.115346</ele>
        <time>2025-10-23T12:40:26Z</time>
      </trkpt>
      <trkpt lat="43.56913" lon="3.189">
        <ele>317.992073</ele>
        <time>2025-10-23T12:40:27Z</time>
      </trkpt>
      <trkpt lat="43.56911" lon="3.189">
        <ele>317.845609</ele>
        <time>2025-10-23T12:40:28Z</time>
      </trkpt>
      <trkpt lat="43.56909" lon="3.189">
        <ele>317.717434</ele>
        <time>2025-10-23T12:40:29Z</time>
      </trkpt>
      <trkpt lat="43.56907" lon="3.189">
        <ele>317.587444</ele>
        <time>2025-10-23T12:40:30Z</time>
      </trkpt>
      <trkpt lat="43.56905" lon="3.18899">
        <ele>317.464727</ele>
        <time>2025-10-23T12:40:31Z</time>
      </trkpt>
      <trkpt lat="43.56902" lon="3.18899">
        <ele>317.336553</ele>
        <time>2025-10-23T12:40:32Z</time>
      </trkpt>
      <trkpt lat="43.569" lon="3.18899">
        <ele>317.208378</ele>
        <time>2025-10-23T12:40:33Z</time>
      </trkpt>
      <trkpt lat="43.56898" lon="3.18899">
        <ele>317.076597</ele>
        <time>2025-10-23T12:40:34Z</time>
      </trkpt>
      <trkpt lat="43.56896" lon="3.18898">
        <ele>316.923673</ele>
        <time>2025-10-23T12:40:35Z</time>
      </trkpt>
      <trkpt lat="43.56894" lon="3.18897">
        <ele>316.794891</ele>
        <time>2025-10-23T12:40:36Z</time>
      </trkpt>
      <trkpt lat="43.56892" lon="3.18897">
        <ele>316.660402</ele>
        <time>2025-10-23T12:40:37Z</time>
      </trkpt>
      <trkpt lat="43.56889" lon="3.18896">
        <ele>316.522684</ele>
        <time>2025-10-23T12:40:38Z</time>
      </trkpt>
      <trkpt lat="43.56888" lon="3.18895">
        <ele>316.411618</ele>
        <time>2025-10-23T12:40:39Z</time>
      </trkpt>
      <trkpt lat="43.56886" lon="3.18895">
        <ele>316.298662</ele>
        <time>2025-10-23T12:40:40Z</time>
      </trkpt>
      <trkpt lat="43.56884" lon="3.18894">
        <ele>316.158693</ele>
        <time>2025-10-23T12:40:41Z</time>
      </trkpt>
      <trkpt lat="43.56881" lon="3.18893">
        <ele>315.998633</ele>
        <time>2025-10-23T12:40:42Z</time>
      </trkpt>
      <trkpt lat="43.56878" lon="3.18891">
        <ele>315.815421</ele>
        <time>2025-10-23T12:40:43Z</time>
      </trkpt>
      <trkpt lat="43.56875" lon="3.1889">
        <ele>315.629426</ele>
        <time>2025-10-23T12:40:44Z</time>
      </trkpt>
      <trkpt lat="43.56872" lon="3.18887">
        <ele>315.405824</ele>
        <time>2025-10-23T12:40:45Z</time>
      </trkpt>
      <trkpt lat="43.56869" lon="3.18886">
        <ele>315.169309</ele>
        <time>2025-10-23T12:40:46Z</time>
      </trkpt>
      <trkpt lat="43.56864" lon="3.18883">
        <ele>314.877348</ele>
        <time>2025-10-23T12:40:47Z</time>
      </trkpt>
      <trkpt lat="43.56859" lon="3.1888">
        <ele>314.544778</ele>
        <time>2025-10-23T12:40:48Z</time>
      </trkpt>
      <trkpt lat="43.56854" lon="3.18877">
        <ele>314.184032</ele>
        <time>2025-10-23T12:40:49Z</time>
      </trkpt>
      <trkpt lat="43.56848" lon="3.18875">
        <ele>313.797113</ele>
        <time>2025-10-23T12:40:50Z</time>
      </trkpt>
      <trkpt lat="43.56841" lon="3.18872">
        <ele>313.393385</ele>
        <time>2025-10-23T12:40:51Z</time>
      </trkpt>
      <trkpt lat="43.56835" lon="3.18868">
        <ele>312.981428</ele>
        <time>2025-10-23T12:40:52Z</time>
      </trkpt>
      <trkpt lat="43.56828" lon="3.18864">
        <ele>312.51003</ele>
        <time>2025-10-23T12:40:53Z</time>
      </trkpt>
      <trkpt lat="43.56821" lon="3.18861">
        <ele>312.04439</ele>
        <time>2025-10-23T12:40:54Z</time>
      </trkpt>
      <trkpt lat="43.56813" lon="3.18859">
        <ele>311.587641</ele>
        <time>2025-10-23T12:40:55Z</time>
      </trkpt>
      <trkpt lat="43.56806" lon="3.18857">
        <ele>311.145618</ele>
        <time>2025-10-23T12:40:56Z</time>
      </trkpt>
      <trkpt lat="43.568" lon="3.18854">
        <ele>310.724472</ele>
        <time>2025-10-23T12:40:57Z</time>
      </trkpt>
      <trkpt lat="43.56793" lon="3.18852">
        <ele>310.292492</ele>
        <time>2025-10-23T12:40:58Z</time>
      </trkpt>
      <trkpt lat="43.56787" lon="3.1885">
        <ele>309.931457</ele>
        <time>2025-10-23T12:40:59Z</time>
      </trkpt>
      <trkpt lat="43.56781" lon="3.18848">
        <ele>309.567941</ele>
        <time>2025-10-23T12:41:00Z</time>
      </trkpt>
      <trkpt lat="43.56775" lon="3.18848">
        <ele>309.208019</ele>
        <time>2025-10-23T12:41:01Z</time>
      </trkpt>
      <trkpt lat="43.56768" lon="3.1885">
        <ele>308.764663</ele>
        <time>2025-10-23T12:41:02Z</time>
      </trkpt>
      <trkpt lat="43.56761" lon="3.18854">
        <ele>307.675042</ele>
        <time>2025-10-23T12:41:03Z</time>
      </trkpt>
      <trkpt lat="43.56753" lon="3.18857">
        <ele>306.282637</ele>
        <time>2025-10-23T12:41:04Z</time>
      </trkpt>
      <trkpt lat="43.56745" lon="3.1886">
        <ele>304.842728</ele>
        <time>2025-10-23T12:41:05Z</time>
      </trkpt>
      <trkpt lat="43.56736" lon="3.18865">
        <ele>303.36975</ele>
        <time>2025-10-23T12:41:06Z</time>
      </trkpt>
      <trkpt lat="43.56728" lon="3.18867">
        <ele>302.053842</ele>
        <time>2025-10-23T12:41:07Z</time>
      </trkpt>
      <trkpt lat="43.56721" lon="3.18869">
        <ele>300.826758</ele>
        <time>2025-10-23T12:41:08Z</time>
      </trkpt>
      <trkpt lat="43.56714" lon="3.18869">
        <ele>299.602002</ele>
        <time>2025-10-23T12:41:09Z</time>
      </trkpt>
      <trkpt lat="43.56706" lon="3.1887">
        <ele>298.397513</ele>
        <time>2025-10-23T12:41:10Z</time>
      </trkpt>
      <trkpt lat="43.567" lon="3.18871">
        <ele>297.351994</ele>
        <time>2025-10-23T12:41:11Z</time>
      </trkpt>
      <trkpt lat="43.56693" lon="3.1887">
        <ele>296.180452</ele>
        <time>2025-10-23T12:41:12Z</time>
      </trkpt>
      <trkpt lat="43.56687" lon="3.18871">
        <ele>295.157987</ele>
        <time>2025-10-23T12:41:13Z</time>
      </trkpt>
      <trkpt lat="43.56682" lon="3.1887">
        <ele>294.415213</ele>
        <time>2025-10-23T12:41:14Z</time>
      </trkpt>
      <trkpt lat="43.56679" lon="3.18871">
        <ele>293.814041</ele>
        <time>2025-10-23T12:41:15Z</time>
      </trkpt>
      <trkpt lat="43.56675" lon="3.18873">
        <ele>293.189496</ele>
        <time>2025-10-23T12:41:16Z</time>
      </trkpt>
      <trkpt lat="43.56671" lon="3.18876">
        <ele>292.409804</ele>
        <time>2025-10-23T12:41:17Z</time>
      </trkpt>
      <trkpt lat="43.56668" lon="3.1888">
        <ele>291.710494</ele>
        <time>2025-10-23T12:41:18Z</time>
      </trkpt>
      <trkpt lat="43.56664" lon="3.18884">
        <ele>290.955955</ele>
        <time>2025-10-23T12:41:19Z</time>
      </trkpt>
      <trkpt lat="43.5666" lon="3.18887">
        <ele>290.209588</ele>
        <time>2025-10-23T12:41:20Z</time>
      </trkpt>
      <trkpt lat="43.56657" lon="3.1889">
        <ele>289.525055</ele>
        <time>2025-10-23T12:41:21Z</time>
      </trkpt>
      <trkpt lat="43.56652" lon="3.18892">
        <ele>288.761302</ele>
        <time>2025-10-23T12:41:22Z</time>
      </trkpt>
      <trkpt lat="43.56648" lon="3.18891">
        <ele>288.00206</ele>
        <time>2025-10-23T12:41:23Z</time>
      </trkpt>
      <trkpt lat="43.56643" lon="3.1889">
        <ele>287.292721</ele>
        <time>2025-10-23T12:41:24Z</time>
      </trkpt>
      <trkpt lat="43.5664" lon="3.18886">
        <ele>286.647258</ele>
        <time>2025-10-23T12:41:25Z</time>
      </trkpt>
      <trkpt lat="43.56638" lon="3.18882">
        <ele>286.036011</ele>
        <time>2025-10-23T12:41:26Z</time>
      </trkpt>
      <trkpt lat="43.56636" lon="3.18879">
        <ele>285.480349</ele>
        <time>2025-10-23T12:41:27Z</time>
      </trkpt>
      <trkpt lat="43.56633" lon="3.18876">
        <ele>284.944656</ele>
        <time>2025-10-23T12:41:28Z</time>
      </trkpt>
      <trkpt lat="43.56631" lon="3.18873">
        <ele>284.413838</ele>
        <time>2025-10-23T12:41:29Z</time>
      </trkpt>
      <trkpt lat="43.56629" lon="3.18871">
        <ele>284.009412</ele>
        <time>2025-10-23T12:41:30Z</time>
      </trkpt>
      <trkpt lat="43.56629" lon="3.18868">
        <ele>283.659464</ele>
        <time>2025-10-23T12:41:31Z</time>
      </trkpt>
      <trkpt lat="43.56628" lon="3.18865">
        <ele>283.241884</ele>
        <time>2025-10-23T12:41:32Z</time>
      </trkpt>
      <trkpt lat="43.56625" lon="3.18865">
        <ele>282.878387</ele>
        <time>2025-10-23T12:41:33Z</time>
      </trkpt>
      <trkpt lat="43.56622" lon="3.18865">
        <ele>282.382484</ele>
        <time>2025-10-23T12:41:34Z</time>
      </trkpt>
      <trkpt lat="43.56619" lon="3.18866">
        <ele>281.784912</ele>
        <time>2025-10-23T12:41:35Z</time>
      </trkpt>
      <trkpt lat="43.56615" lon="3.18868">
        <ele>281.149124</ele>
        <time>2025-10-23T12:41:36Z</time>
      </trkpt>
      <trkpt lat="43.56611" lon="3.18866">
        <ele>280.487648</ele>
        <time>2025-10-23T12:41:37Z</time>
      </trkpt>
      <trkpt lat="43.56607" lon="3.18868">
        <ele>279.762581</ele>
        <time>2025-10-23T12:41:38Z</time>
      </trkpt>
      <trkpt lat="43.56605" lon="3.18869">
        <ele>279.411871</ele>
        <time>2025-10-23T12:41:39Z</time>
      </trkpt>
      <trkpt lat="43.56604" lon="3.18869">
        <ele>279.196214</ele>
        <time>2025-10-23T12:41:40Z</time>
      </trkpt>
      <trkpt lat="43.56603" lon="3.18872">
        <ele>278.951552</ele>
        <time>2025-10-23T12:41:41Z</time>
      </trkpt>
      <trkpt lat="43.56603" lon="3.18874">
        <ele>278.835296</ele>
        <time>2025-10-23T12:41:42Z</time>
      </trkpt>
      <trkpt lat="43.56602" lon="3.18877">
        <ele>278.701011</ele>
        <time>2025-10-23T12:41:43Z</time>
      </trkpt>
      <trkpt lat="43.566" lon="3.18879">
        <ele>278.558246</ele>
        <time>2025-10-23T12:41:44Z</time>
      </trkpt>
      <trkpt lat="43.56598" lon="3.18881">
        <ele>278.368467</ele>
        <time>2025-10-23T12:41:45Z</time>
      </trkpt>
      <trkpt lat="43.56596" lon="3.18883">
        <ele>278.172917</ele>
        <time>2025-10-23T12:41:46Z</time>
      </trkpt>
      <trkpt lat="43.56593" lon="3.18885">
        <ele>277.957636</ele>
        <time>2025-10-23T12:41:47Z</time>
      </trkpt>
      <trkpt lat="43.5659" lon="3.18887">
        <ele>277.761062</ele>
        <time>2025-10-23T12:41:48Z</time>
      </trkpt>
      <trkpt lat="43.56588" lon="3.18888">
        <ele>277.598417</ele>
        <time>2025-10-23T12:41:49Z</time>
      </trkpt>
      <trkpt lat="43.56586" lon="3.18889">
        <ele>277.456284</ele>
        <time>2025-10-23T12:41:50Z</time>
      </trkpt>
      <trkpt lat="43.56584" lon="3.1889">
        <ele>277.345501</ele>
        <time>2025-10-23T12:41:51Z</time>
      </trkpt>
      <trkpt lat="43.56583" lon="3.1889">
        <ele>277.251458</ele>
        <time>2025-10-23T12:41:52Z</time>
      </trkpt>
      <trkpt lat="43.56582" lon="3.18891">
        <ele>277.177197</ele>
        <time>2025-10-23T12:41:53Z</time>
      </trkpt>
      <trkpt lat="43.56582" lon="3.18891">
        <ele>277.154935</ele>
        <time>2025-10-23T12:41:54Z</time>
      </trkpt>
      <trkpt lat="43.56582" lon="3.18891">
        <ele>277.143171</ele>
        <time>2025-10-23T12:41:55Z</time>
      </trkpt>
      <trkpt lat="43.56582" lon="3.18891">
        <ele>277.131407</ele>
        <time>2025-10-23T12:41:56Z</time>
      </trkpt>
      <trkpt lat="43.56582" lon="3.18891">
        <ele>277.117193</ele>
        <time>2025-10-23T12:41:57Z</time>
      </trkpt>
      <trkpt lat="43.56583" lon="3.18891">
        <ele>277.083436</ele>
        <time>2025-10-23T12:41:58Z</time>
      </trkpt>
      <trkpt lat="43.56583" lon="3.1889">
        <ele>277.033928</ele>
        <time>2025-10-23T12:41:59Z</time>
      </trkpt>
      <trkpt lat="43.56583" lon="3.1889">
        <ele>277.022164</ele>
        <time>2025-10-23T12:42:00Z</time>
      </trkpt>
      <trkpt lat="43.56583" lon="3.1889">
        <ele>276.982789</ele>
        <time>2025-10-23T12:42:01Z</time>
      </trkpt>
      <trkpt lat="43.56583" lon="3.18889">
        <ele>276.971025</ele>
        <time>2025-10-23T12:42:02Z</time>
      </trkpt>
      <trkpt lat="43.56583" lon="3.18889">
        <ele>276.966184</ele>
        <time>2025-10-23T12:42:03Z</time>
      </trkpt>
      <trkpt lat="43.56583" lon="3.18889">
        <ele>276.959502</ele>
        <time>2025-10-23T12:42:04Z</time>
      </trkpt>
      <trkpt lat="43.56583" lon="3.1889">
        <ele>276.905829</ele>
        <time>2025-10-23T12:42:05Z</time>
      </trkpt>
      <trkpt lat="43.56583" lon="3.18892">
        <ele>276.846215</ele>
        <time>2025-10-23T12:42:06Z</time>
      </trkpt>
      <trkpt lat="43.56582" lon="3.18892">
        <ele>276.818564</ele>
        <time>2025-10-23T12:42:07Z</time>
      </trkpt>
      <trkpt lat="43.56581" lon="3.18896">
        <ele>276.636416</ele>
        <time>2025-10-23T12:42:57Z</time>
      </trkpt>
      <trkpt lat="43.56582" lon="3.18896">
        <ele>276.619914</ele>
        <time>2025-10-23T12:42:58Z</time>
      </trkpt>
      <trkpt lat="43.56581" lon="3.18896">
        <ele>276.596385</ele>
        <time>2025-10-23T12:42:59Z</time>
      </trkpt>
      <trkpt lat="43.5658" lon="3.18897">
        <ele>276.519154</ele>
        <time>2025-10-23T12:43:00Z</time>
      </trkpt>
      <trkpt lat="43.56579" lon="3.18898">
        <ele>276.414804</ele>
        <time>2025-10-23T12:43:01Z</time>
      </trkpt>
      <trkpt lat="43.56577" lon="3.18898">
        <ele>276.293145</ele>
        <time>2025-10-23T12:43:02Z</time>
      </trkpt>
      <trkpt lat="43.56575" lon="3.18899">
        <ele>276.130176</ele>
        <time>2025-10-23T12:43:03Z</time>
      </trkpt>
      <trkpt lat="43.56573" lon="3.18899">
        <ele>275.996455</ele>
        <time>2025-10-23T12:43:04Z</time>
      </trkpt>
      <trkpt lat="43.5657" lon="3.18899">
        <ele>275.814433</ele>
        <time>2025-10-23T12:43:05Z</time>
      </trkpt>
      <trkpt lat="43.56568" lon="3.189">
        <ele>275.658033</ele>
        <time>2025-10-23T12:43:06Z</time>
      </trkpt>
      <trkpt lat="43.56567" lon="3.18901">
        <ele>275.59411</ele>
        <time>2025-10-23T12:43:07Z</time>
      </trkpt>
      <trkpt lat="43.56568" lon="3.18901">
        <ele>275.55805</ele>
        <time>2025-10-23T12:43:08Z</time>
      </trkpt>
      <trkpt lat="43.56568" lon="3.18902">
        <ele>275.494874</ele>
        <time>2025-10-23T12:43:09Z</time>
      </trkpt>
      <trkpt lat="43.56569" lon="3.18902">
        <ele>275.447852</ele>
        <time>2025-10-23T12:43:10Z</time>
      </trkpt>
      <trkpt lat="43.5657" lon="3.18902">
        <ele>275.371846</ele>
        <time>2025-10-23T12:43:11Z</time>
      </trkpt>
      <trkpt lat="43.56571" lon="3.18902">
        <ele>275.335417</ele>
        <time>2025-10-23T12:43:12Z</time>
      </trkpt>
      <trkpt lat="43.56571" lon="3.18901">
        <ele>275.310304</ele>
        <time>2025-10-23T12:43:13Z</time>
      </trkpt>
      <trkpt lat="43.56571" lon="3.18901">
        <ele>275.278875</ele>
        <time>2025-10-23T12:43:14Z</time>
      </trkpt>
      <trkpt lat="43.56571" lon="3.189">
        <ele>275.242446</ele>
        <time>2025-10-23T12:43:15Z</time>
      </trkpt>
      <trkpt lat="43.56571" lon="3.18899">
        <ele>275.171764</ele>
        <time>2025-10-23T12:43:16Z</time>
      </trkpt>
      <trkpt lat="43.5657" lon="3.18896">
        <ele>275.037478</ele>
        <time>2025-10-23T12:43:17Z</time>
      </trkpt>
      <trkpt lat="43.56569" lon="3.18893">
        <ele>274.855625</ele>
        <time>2025-10-23T12:43:18Z</time>
      </trkpt>
      <trkpt lat="43.56568" lon="3.18889">
        <ele>274.649235</ele>
        <time>2025-10-23T12:43:19Z</time>
      </trkpt>
      <trkpt lat="43.56566" lon="3.18884">
        <ele>274.365237</ele>
        <time>2025-10-23T12:43:20Z</time>
      </trkpt>
      <trkpt lat="43.56564" lon="3.18879">
        <ele>274.11023</ele>
        <time>2025-10-23T12:43:21Z</time>
      </trkpt>
      <trkpt lat="43.56564" lon="3.18874">
        <ele>273.84095</ele>
        <time>2025-10-23T12:43:22Z</time>
      </trkpt>
      <trkpt lat="43.56563" lon="3.18869">
        <ele>273.602219</ele>
        <time>2025-10-23T12:43:23Z</time>
      </trkpt>
      <trkpt lat="43.56563" lon="3.18864">
        <ele>273.388255</ele>
        <time>2025-10-23T12:43:24Z</time>
      </trkpt>
      <trkpt lat="43.56563" lon="3.18861">
        <ele>273.208624</ele>
        <time>2025-10-23T12:43:25Z</time>
      </trkpt>
      <trkpt lat="43.56563" lon="3.18858">
        <ele>273.068063</ele>
        <time>2025-10-23T12:43:26Z</time>
      </trkpt>
      <trkpt lat="43.56562" lon="3.18856">
        <ele>272.970197</ele>
        <time>2025-10-23T12:43:27Z</time>
      </trkpt>
      <trkpt lat="43.56564" lon="3.18854">
        <ele>272.846139</ele>
        <time>2025-10-23T12:43:28Z</time>
      </trkpt>
      <trkpt lat="43.56564" lon="3.18853">
        <ele>272.789236</ele>
        <time>2025-10-23T12:43:29Z</time>
      </trkpt>
      <trkpt lat="43.56564" lon="3.18853">
        <ele>272.760188</ele>
        <time>2025-10-23T12:43:30Z</time>
      </trkpt>
      <trkpt lat="43.56564" lon="3.18852">
        <ele>272.7442</ele>
        <time>2025-10-23T12:43:31Z</time>
      </trkpt>
      <trkpt lat="43.56564" lon="3.18853">
        <ele>272.710443</ele>
        <time>2025-10-23T12:43:32Z</time>
      </trkpt>
      <trkpt lat="43.56563" lon="3.18853">
        <ele>272.645618</ele>
        <time>2025-10-23T12:43:33Z</time>
      </trkpt>
      <trkpt lat="43.56561" lon="3.18854">
        <ele>272.552379</ele>
        <time>2025-10-23T12:43:34Z</time>
      </trkpt>
      <trkpt lat="43.5656" lon="3.18854">
        <ele>272.456853</ele>
        <time>2025-10-23T12:43:35Z</time>
      </trkpt>
      <trkpt lat="43.56559" lon="3.18855">
        <ele>272.373773</ele>
        <time>2025-10-23T12:43:36Z</time>
      </trkpt>
      <trkpt lat="43.56558" lon="3.18856">
        <ele>272.286725</ele>
        <time>2025-10-23T12:43:37Z</time>
      </trkpt>
      <trkpt lat="43.56557" lon="3.18857">
        <ele>272.239893</ele>
        <time>2025-10-23T12:43:38Z</time>
      </trkpt>
      <trkpt lat="43.56557" lon="3.18858">
        <ele>272.157319</ele>
        <time>2025-10-23T12:43:39Z</time>
      </trkpt>
      <trkpt lat="43.56556" lon="3.18859">
        <ele>272.091308</ele>
        <time>2025-10-23T12:43:40Z</time>
      </trkpt>
      <trkpt lat="43.56555" lon="3.18859">
        <ele>272.050927</ele>
        <time>2025-10-23T12:43:41Z</time>
      </trkpt>
      <trkpt lat="43.56555" lon="3.18859">
        <ele>272.017037</ele>
        <time>2025-10-23T12:43:42Z</time>
      </trkpt>
      <trkpt lat="43.56555" lon="3.18861">
        <ele>271.92821</ele>
        <time>2025-10-23T12:43:43Z</time>
      </trkpt>
      <trkpt lat="43.56555" lon="3.18862">
        <ele>271.884128</ele>
        <time>2025-10-23T12:43:44Z</time>
      </trkpt>
      <trkpt lat="43.56555" lon="3.18862">
        <ele>271.837106</ele>
        <time>2025-10-23T12:44:31Z</time>
      </trkpt>
      <trkpt lat="43.56554" lon="3.18862">
        <ele>271.77627</ele>
        <time>2025-10-23T12:44:32Z</time>
      </trkpt>
      <trkpt lat="43.56554" lon="3.18861">
        <ele>271.720878</ele>
        <time>2025-10-23T12:44:33Z</time>
      </trkpt>
      <trkpt lat="43.56553" lon="3.18861">
        <ele>271.674107</ele>
        <time>2025-10-23T12:44:34Z</time>
      </trkpt>
      <trkpt lat="43.56552" lon="3.18862">
        <ele>271.585112</ele>
        <time>2025-10-23T12:44:35Z</time>
      </trkpt>
      <trkpt lat="43.5655" lon="3.18863">
        <ele>271.491449</ele>
        <time>2025-10-23T12:44:36Z</time>
      </trkpt>
      <trkpt lat="43.56549" lon="3.18864">
        <ele>271.406005</ele>
        <time>2025-10-23T12:44:37Z</time>
      </trkpt>
      <trkpt lat="43.56548" lon="3.18864">
        <ele>271.303927</ele>
        <time>2025-10-23T12:44:38Z</time>
      </trkpt>
      <trkpt lat="43.56546" lon="3.18864">
        <ele>271.169506</ele>
        <time>2025-10-23T12:44:39Z</time>
      </trkpt>
      <trkpt lat="43.56544" lon="3.18865">
        <ele>271.052262</ele>
        <time>2025-10-23T12:44:40Z</time>
      </trkpt>
      <trkpt lat="43.56542" lon="3.18865">
        <ele>270.936123</ele>
        <time>2025-10-23T12:44:41Z</time>
      </trkpt>
      <trkpt lat="43.5654" lon="3.18866">
        <ele>270.79399</ele>
        <time>2025-10-23T12:44:42Z</time>
      </trkpt>
      <trkpt lat="43.56537" lon="3.18868">
        <ele>270.548896</ele>
        <time>2025-10-23T12:44:43Z</time>
      </trkpt>
      <trkpt lat="43.56534" lon="3.18871">
        <ele>270.292565</ele>
        <time>2025-10-23T12:44:44Z</time>
      </trkpt>
      <trkpt lat="43.56531" lon="3.18873">
        <ele>270.06908</ele>
        <time>2025-10-23T12:44:45Z</time>
      </trkpt>
      <trkpt lat="43.56528" lon="3.18875">
        <ele>269.876846</ele>
        <time>2025-10-23T12:44:46Z</time>
      </trkpt>
      <trkpt lat="43.56525" lon="3.18878">
        <ele>269.596325</ele>
        <time>2025-10-23T12:44:47Z</time>
      </trkpt>
      <trkpt lat="43.56522" lon="3.18881">
        <ele>269.362586</ele>
        <time>2025-10-23T12:44:48Z</time>
      </trkpt>
      <trkpt lat="43.56519" lon="3.18884">
        <ele>269.113392</ele>
        <time>2025-10-23T12:44:49Z</time>
      </trkpt>
      <trkpt lat="43.56516" lon="3.18888">
        <ele>268.867307</ele>
        <time>2025-10-23T12:44:50Z</time>
      </trkpt>
      <trkpt lat="43.56514" lon="3.18892">
        <ele>268.588155</ele>
        <time>2025-10-23T12:44:51Z</time>
      </trkpt>
      <trkpt lat="43.5651" lon="3.18898">
        <ele>268.212801</ele>
        <time>2025-10-23T12:44:52Z</time>
      </trkpt>
      <trkpt lat="43.56506" lon="3.18903">
        <ele>267.84672</ele>
        <time>2025-10-23T12:44:53Z</time>
      </trkpt>
      <trkpt lat="43.56502" lon="3.18908">
        <ele>267.477188</ele>
        <time>2025-10-23T12:44:54Z</time>
      </trkpt>
      <trkpt lat="43.56497" lon="3.18912">
        <ele>267.127195</ele>
        <time>2025-10-23T12:44:55Z</time>
      </trkpt>
      <trkpt lat="43.56492" lon="3.18916">
        <ele>266.944461</ele>
        <time>2025-10-23T12:44:56Z</time>
      </trkpt>
      <trkpt lat="43.56488" lon="3.1892">
        <ele>266.89134</ele>
        <time>2025-10-23T12:44:57Z</time>
      </trkpt>
      <trkpt lat="43.56484" lon="3.18924">
        <ele>266.84315</ele>
        <time>2025-10-23T12:44:58Z</time>
      </trkpt>
      <trkpt lat="43.5648" lon="3.18927">
        <ele>266.799706</ele>
        <time>2025-10-23T12:44:59Z</time>
      </trkpt>
      <trkpt lat="43.56477" lon="3.1893">
        <ele>266.75882</ele>
        <time>2025-10-23T12:45:00Z</time>
      </trkpt>
      <trkpt lat="43.56474" lon="3.18933">
        <ele>266.725944</ele>
        <time>2025-10-23T12:45:01Z</time>
      </trkpt>
      <trkpt lat="43.56472" lon="3.18935">
        <ele>266.693608</ele>
        <time>2025-10-23T12:45:02Z</time>
      </trkpt>
      <trkpt lat="43.56469" lon="3.18937">
        <ele>266.662321</ele>
        <time>2025-10-23T12:45:03Z</time>
      </trkpt>
      <trkpt lat="43.56466" lon="3.18939">
        <ele>266.637076</ele>
        <time>2025-10-23T12:45:04Z</time>
      </trkpt>
      <trkpt lat="43.56465" lon="3.18941">
        <ele>266.612038</ele>
        <time>2025-10-23T12:45:05Z</time>
      </trkpt>
      <trkpt lat="43.56464" lon="3.18945">
        <ele>266.587217</ele>
        <time>2025-10-23T12:45:06Z</time>
      </trkpt>
      <trkpt lat="43.56461" lon="3.18948">
        <ele>266.549728</ele>
        <time>2025-10-23T12:45:07Z</time>
      </trkpt>
      <trkpt lat="43.56458" lon="3.18951">
        <ele>266.517438</ele>
        <time>2025-10-23T12:45:08Z</time>
      </trkpt>
      <trkpt lat="43.56456" lon="3.18952">
        <ele>266.493037</ele>
        <time>2025-10-23T12:45:09Z</time>
      </trkpt>
      <trkpt lat="43.56455" lon="3.18952">
        <ele>266.478135</ele>
        <time>2025-10-23T12:45:10Z</time>
      </trkpt>
      <trkpt lat="43.56452" lon="3.18951">
        <ele>266.452953</ele>
        <time>2025-10-23T12:45:11Z</time>
      </trkpt>
      <trkpt lat="43.5645" lon="3.18951">
        <ele>266.434395</ele>
        <time>2025-10-23T12:45:12Z</time>
      </trkpt>
      <trkpt lat="43.56449" lon="3.18951">
        <ele>266.419962</ele>
        <time>2025-10-23T12:45:13Z</time>
      </trkpt>
      <trkpt lat="43.56448" lon="3.18954">
        <ele>266.401617</ele>
        <time>2025-10-23T12:45:14Z</time>
      </trkpt>
      <trkpt lat="43.56448" lon="3.18956">
        <ele>266.385798</ele>
        <time>2025-10-23T12:45:15Z</time>
      </trkpt>
      <trkpt lat="43.5645" lon="3.18959">
        <ele>266.361333</ele>
        <time>2025-10-23T12:45:16Z</time>
      </trkpt>
      <trkpt lat="43.56452" lon="3.18961">
        <ele>266.337473</ele>
        <time>2025-10-23T12:45:17Z</time>
      </trkpt>
      <trkpt lat="43.56454" lon="3.18962">
        <ele>266.312594</ele>
        <time>2025-10-23T12:45:18Z</time>
      </trkpt>
      <trkpt lat="43.56457" lon="3.18963">
        <ele>266.281167</ele>
        <time>2025-10-23T12:45:19Z</time>
      </trkpt>
      <trkpt lat="43.5646" lon="3.18965">
        <ele>266.248668</ele>
        <time>2025-10-23T12:45:20Z</time>
      </trkpt>
      <trkpt lat="43.56463" lon="3.18968">
        <ele>266.216332</ele>
        <time>2025-10-23T12:45:21Z</time>
      </trkpt>
      <trkpt lat="43.56466" lon="3.18971">
        <ele>266.179033</ele>
        <time>2025-10-23T12:45:22Z</time>
      </trkpt>
      <trkpt lat="43.56468" lon="3.18974">
        <ele>266.143067</ele>
        <time>2025-10-23T12:45:23Z</time>
      </trkpt>
      <trkpt lat="43.5647" lon="3.18978">
        <ele>266.109209</ele>
        <time>2025-10-23T12:45:24Z</time>
      </trkpt>
      <trkpt lat="43.56472" lon="3.18982">
        <ele>266.074818</ele>
        <time>2025-10-23T12:45:25Z</time>
      </trkpt>
      <trkpt lat="43.56474" lon="3.18986">
        <ele>266.04085</ele>
        <time>2025-10-23T12:45:26Z</time>
      </trkpt>
      <trkpt lat="43.56476" lon="3.18989">
        <ele>266.012843</ele>
        <time>2025-10-23T12:45:27Z</time>
      </trkpt>
      <trkpt lat="43.56477" lon="3.18992">
        <ele>265.985458</ele>
        <time>2025-10-23T12:45:28Z</time>
      </trkpt>
      <trkpt lat="43.56479" lon="3.18995">
        <ele>265.96093</ele>
        <time>2025-10-23T12:45:29Z</time>
      </trkpt>
      <trkpt lat="43.5648" lon="3.18997">
        <ele>265.939876</ele>
        <time>2025-10-23T12:45:30Z</time>
      </trkpt>
      <trkpt lat="43.56482" lon="3.18999">
        <ele>265.919496</ele>
        <time>2025-10-23T12:45:31Z</time>
      </trkpt>
      <trkpt lat="43.56483" lon="3.19001">
        <ele>265.902611</ele>
        <time>2025-10-23T12:45:32Z</time>
      </trkpt>
      <trkpt lat="43.56484" lon="3.19003">
        <ele>265.884336</ele>
        <time>2025-10-23T12:45:33Z</time>
      </trkpt>
      <trkpt lat="43.56485" lon="3.19005">
        <ele>265.863282</ele>
        <time>2025-10-23T12:45:34Z</time>
      </trkpt>
      <trkpt lat="43.56486" lon="3.19008">
        <ele>265.842307</ele>
        <time>2025-10-23T12:45:35Z</time>
      </trkpt>
      <trkpt lat="43.56487" lon="3.19011">
        <ele>265.818065</ele>
        <time>2025-10-23T12:45:36Z</time>
      </trkpt>
      <trkpt lat="43.56487" lon="3.19014">
        <ele>265.794297</ele>
        <time>2025-10-23T12:45:37Z</time>
      </trkpt>
      <trkpt lat="43.56488" lon="3.19018">
        <ele>265.767748</ele>
        <time>2025-10-23T12:45:38Z</time>
      </trkpt>
      <trkpt lat="43.5649" lon="3.1902">
        <ele>265.744124</ele>
        <time>2025-10-23T12:45:39Z</time>
      </trkpt>
      <trkpt lat="43.56492" lon="3.19022">
        <ele>265.720499</ele>
        <time>2025-10-23T12:45:40Z</time>
      </trkpt>
      <trkpt lat="43.56494" lon="3.19025">
        <ele>265.693042</ele>
        <time>2025-10-23T12:45:41Z</time>
      </trkpt>
      <trkpt lat="43.56496" lon="3.19027">
        <ele>265.665935</ele>
        <time>2025-10-23T12:45:42Z</time>
      </trkpt>
      <trkpt lat="43.56499" lon="3.19027">
        <ele>265.631084</ele>
        <time>2025-10-23T12:45:43Z</time>
      </trkpt>
      <trkpt lat="43.56502" lon="3.19027">
        <ele>265.603261</ele>
        <time>2025-10-23T12:45:44Z</time>
      </trkpt>
      <trkpt lat="43.56505" lon="3.19028">
        <ele>265.574731</ele>
        <time>2025-10-23T12:45:45Z</time>
      </trkpt>
      <trkpt lat="43.56508" lon="3.1903">
        <ele>265.547525</ele>
        <time>2025-10-23T12:45:46Z</time>
      </trkpt>
      <trkpt lat="43.5651" lon="3.1903">
        <ele>265.524655</ele>
        <time>2025-10-23T12:45:47Z</time>
      </trkpt>
      <trkpt lat="43.56512" lon="3.19029">
        <ele>265.504476</ele>
        <time>2025-10-23T12:45:48Z</time>
      </trkpt>
      <trkpt lat="43.56513" lon="3.19027">
        <ele>265.485156</ele>
        <time>2025-10-23T12:45:49Z</time>
      </trkpt>
      <trkpt lat="43.56514" lon="3.19025">
        <ele>265.468729</ele>
        <time>2025-10-23T12:45:50Z</time>
      </trkpt>
      <trkpt lat="43.56513" lon="3.19023">
        <ele>265.454165</ele>
        <time>2025-10-23T12:45:51Z</time>
      </trkpt>
      <trkpt lat="43.56511" lon="3.19023">
        <ele>265.436072</ele>
        <time>2025-10-23T12:45:52Z</time>
      </trkpt>
      <trkpt lat="43.56509" lon="3.19023">
        <ele>265.415762</ele>
        <time>2025-10-23T12:45:53Z</time>
      </trkpt>
      <trkpt lat="43.56507" lon="3.19024">
        <ele>265.396049</ele>
        <time>2025-10-23T12:45:54Z</time>
      </trkpt>
      <trkpt lat="43.56505" lon="3.19025">
        <ele>265.36793</ele>
        <time>2025-10-23T12:45:55Z</time>
      </trkpt>
      <trkpt lat="43.56502" lon="3.19025">
        <ele>265.339115</ele>
        <time>2025-10-23T12:45:56Z</time>
      </trkpt>
      <trkpt lat="43.56498" lon="3.19024">
        <ele>265.306707</ele>
        <time>2025-10-23T12:45:57Z</time>
      </trkpt>
      <trkpt lat="43.56495" lon="3.19022">
        <ele>265.274757</ele>
        <time>2025-10-23T12:45:58Z</time>
      </trkpt>
      <trkpt lat="43.56493" lon="3.19021">
        <ele>265.245001</ele>
        <time>2025-10-23T12:45:59Z</time>
      </trkpt>
      <trkpt lat="43.5649" lon="3.19019">
        <ele>265.2184</ele>
        <time>2025-10-23T12:46:00Z</time>
      </trkpt>
      <trkpt lat="43.56489" lon="3.19017">
        <ele>265.195759</ele>
        <time>2025-10-23T12:46:01Z</time>
      </trkpt>
      <trkpt lat="43.56487" lon="3.19014">
        <ele>265.147432</ele>
        <time>2025-10-23T12:46:02Z</time>
      </trkpt>
      <trkpt lat="43.56487" lon="3.19011">
        <ele>265.084068</ele>
        <time>2025-10-23T12:46:03Z</time>
      </trkpt>
      <trkpt lat="43.56486" lon="3.19008">
        <ele>265.007904</ele>
        <time>2025-10-23T12:46:04Z</time>
      </trkpt>
      <trkpt lat="43.56485" lon="3.19004">
        <ele>264.939094</ele>
        <time>2025-10-23T12:46:05Z</time>
      </trkpt>
      <trkpt lat="43.56484" lon="3.19001">
        <ele>264.871086</ele>
        <time>2025-10-23T12:46:06Z</time>
      </trkpt>
      <trkpt lat="43.56482" lon="3.18998">
        <ele>264.803133</ele>
        <time>2025-10-23T12:46:07Z</time>
      </trkpt>
      <trkpt lat="43.56481" lon="3.18996">
        <ele>264.73804</ele>
        <time>2025-10-23T12:46:08Z</time>
      </trkpt>
      <trkpt lat="43.56479" lon="3.18993">
        <ele>264.669263</ele>
        <time>2025-10-23T12:46:09Z</time>
      </trkpt>
      <trkpt lat="43.56477" lon="3.18992">
        <ele>264.616382</ele>
        <time>2025-10-23T12:46:10Z</time>
      </trkpt>
      <trkpt lat="43.56477" lon="3.18991">
        <ele>264.5931</ele>
        <time>2025-10-23T12:46:11Z</time>
      </trkpt>
      <trkpt lat="43.56476" lon="3.18991">
        <ele>264.578417</ele>
        <time>2025-10-23T12:46:12Z</time>
      </trkpt>
      <trkpt lat="43.56477" lon="3.1899">
        <ele>264.566958</ele>
        <time>2025-10-23T12:46:13Z</time>
      </trkpt>
      <trkpt lat="43.56477" lon="3.1899">
        <ele>264.562216</ele>
        <time>2025-10-23T12:46:14Z</time>
      </trkpt>
      <trkpt lat="43.56477" lon="3.1899">
        <ele>264.557474</ele>
        <time>2025-10-23T12:46:15Z</time>
      </trkpt>
      <trkpt lat="43.56476" lon="3.18991">
        <ele>264.539104</ele>
        <time>2025-10-23T12:46:16Z</time>
      </trkpt>
      <trkpt lat="43.56476" lon="3.18992">
        <ele>264.521335</ele>
        <time>2025-10-23T12:46:17Z</time>
      </trkpt>
      <trkpt lat="43.56476" lon="3.18992">
        <ele>264.511357</ele>
        <time>2025-10-23T12:46:18Z</time>
      </trkpt>
      <trkpt lat="43.56475" lon="3.18991">
        <ele>264.478163</ele>
        <time>2025-10-23T12:46:19Z</time>
      </trkpt>
      <trkpt lat="43.56474" lon="3.1899">
        <ele>264.431601</ele>
        <time>2025-10-23T12:46:20Z</time>
      </trkpt>
      <trkpt lat="43.56472" lon="3.18987">
        <ele>264.368259</ele>
        <time>2025-10-23T12:46:21Z</time>
      </trkpt>
      <trkpt lat="43.56471" lon="3.18986">
        <ele>264.310596</ele>
        <time>2025-10-23T12:46:22Z</time>
      </trkpt>
      <trkpt lat="43.56468" lon="3.18984">
        <ele>264.244509</ele>
        <time>2025-10-23T12:46:23Z</time>
      </trkpt>
      <trkpt lat="43.56467" lon="3.18983">
        <ele>264.200099</ele>
        <time>2025-10-23T12:46:24Z</time>
      </trkpt>
      <trkpt lat="43.56467" lon="3.18984">
        <ele>264.182535</ele>
        <time>2025-10-23T12:46:25Z</time>
      </trkpt>
      <trkpt lat="43.56468" lon="3.18986">
        <ele>264.122087</ele>
        <time>2025-10-23T12:46:26Z</time>
      </trkpt>
      <trkpt lat="43.5647" lon="3.1899">
        <ele>264.032924</ele>
        <time>2025-10-23T12:46:27Z</time>
      </trkpt>
      <trkpt lat="43.56472" lon="3.18995">
        <ele>263.928662</ele>
        <time>2025-10-23T12:46:28Z</time>
      </trkpt>
      <trkpt lat="43.56473" lon="3.19">
        <ele>263.820208</ele>
        <time>2025-10-23T12:46:29Z</time>
      </trkpt>
      <trkpt lat="43.56475" lon="3.19005">
        <ele>263.709503</ele>
        <time>2025-10-23T12:46:30Z</time>
      </trkpt>
      <trkpt lat="43.56477" lon="3.1901">
        <ele>263.592356</ele>
        <time>2025-10-23T12:46:31Z</time>
      </trkpt>
      <trkpt lat="43.56479" lon="3.19016">
        <ele>263.467429</ele>
        <time>2025-10-23T12:46:32Z</time>
      </trkpt>
      <trkpt lat="43.56481" lon="3.19023">
        <ele>263.335273</ele>
        <time>2025-10-23T12:46:33Z</time>
      </trkpt>
      <trkpt lat="43.56482" lon="3.19029">
        <ele>263.198425</ele>
        <time>2025-10-23T12:46:34Z</time>
      </trkpt>
      <trkpt lat="43.56484" lon="3.19036">
        <ele>263.066835</ele>
        <time>2025-10-23T12:46:35Z</time>
      </trkpt>
      <trkpt lat="43.56485" lon="3.19042">
        <ele>262.950489</ele>
        <time>2025-10-23T12:46:36Z</time>
      </trkpt>
      <trkpt lat="43.56486" lon="3.19048">
        <ele>262.813909</ele>
        <time>2025-10-23T12:46:37Z</time>
      </trkpt>
      <trkpt lat="43.56487" lon="3.19054">
        <ele>262.69373</ele>
        <time>2025-10-23T12:46:38Z</time>
      </trkpt>
      <trkpt lat="43.56489" lon="3.19059">
        <ele>262.582275</ele>
        <time>2025-10-23T12:46:39Z</time>
      </trkpt>
      <trkpt lat="43.56491" lon="3.19062">
        <ele>262.500874</ele>
        <time>2025-10-23T12:46:40Z</time>
      </trkpt>
      <trkpt lat="43.56494" lon="3.19064">
        <ele>262.42909</ele>
        <time>2025-10-23T12:46:41Z</time>
      </trkpt>
      <trkpt lat="43.56496" lon="3.19065">
        <ele>262.358134</ele>
        <time>2025-10-23T12:46:42Z</time>
      </trkpt>
      <trkpt lat="43.56498" lon="3.19067">
        <ele>262.285941</ele>
        <time>2025-10-23T12:46:43Z</time>
      </trkpt>
      <trkpt lat="43.56501" lon="3.19069">
        <ele>262.217429</ele>
        <time>2025-10-23T12:46:44Z</time>
      </trkpt>
      <trkpt lat="43.56503" lon="3.19069">
        <ele>262.159673</ele>
        <time>2025-10-23T12:46:45Z</time>
      </trkpt>
      <trkpt lat="43.56505" lon="3.1907">
        <ele>262.108353</ele>
        <time>2025-10-23T12:46:46Z</time>
      </trkpt>
      <trkpt lat="43.56507" lon="3.1907">
        <ele>262.043967</ele>
        <time>2025-10-23T12:46:47Z</time>
      </trkpt>
      <trkpt lat="43.56509" lon="3.19071">
        <ele>261.986874</ele>
        <time>2025-10-23T12:46:48Z</time>
      </trkpt>
      <trkpt lat="43.56511" lon="3.19071">
        <ele>261.93438</ele>
        <time>2025-10-23T12:46:49Z</time>
      </trkpt>
      <trkpt lat="43.56513" lon="3.19073">
        <ele>261.876373</ele>
        <time>2025-10-23T12:46:50Z</time>
      </trkpt>
      <trkpt lat="43.56515" lon="3.19074">
        <ele>261.815069</ele>
        <time>2025-10-23T12:46:51Z</time>
      </trkpt>
      <trkpt lat="43.56517" lon="3.19075">
        <ele>261.752361</ele>
        <time>2025-10-23T12:46:52Z</time>
      </trkpt>
      <trkpt lat="43.5652" lon="3.19075">
        <ele>261.690141</ele>
        <time>2025-10-23T12:46:53Z</time>
      </trkpt>
      <trkpt lat="43.56522" lon="3.19074">
        <ele>261.626709</ele>
        <time>2025-10-23T12:46:54Z</time>
      </trkpt>
      <trkpt lat="43.56524" lon="3.19073">
        <ele>261.565904</ele>
        <time>2025-10-23T12:46:55Z</time>
      </trkpt>
      <trkpt lat="43.56526" lon="3.19073">
        <ele>261.503684</ele>
        <time>2025-10-23T12:46:56Z</time>
      </trkpt>
      <trkpt lat="43.56529" lon="3.19073">
        <ele>261.433417</ele>
        <time>2025-10-23T12:46:57Z</time>
      </trkpt>
      <trkpt lat="43.56532" lon="3.19073">
        <ele>261.354924</ele>
        <time>2025-10-23T12:46:58Z</time>
      </trkpt>
      <trkpt lat="43.56534" lon="3.1907">
        <ele>261.277268</ele>
        <time>2025-10-23T12:46:59Z</time>
      </trkpt>
      <trkpt lat="43.56535" lon="3.19067">
        <ele>261.210049</ele>
        <time>2025-10-23T12:47:00Z</time>
      </trkpt>
      <trkpt lat="43.56534" lon="3.19065">
        <ele>261.159562</ele>
        <time>2025-10-23T12:47:01Z</time>
      </trkpt>
      <trkpt lat="43.56532" lon="3.19064">
        <ele>261.102971</ele>
        <time>2025-10-23T12:47:02Z</time>
      </trkpt>
      <trkpt lat="43.5653" lon="3.19065">
        <ele>261.043688</ele>
        <time>2025-10-23T12:47:03Z</time>
      </trkpt>
      <trkpt lat="43.56528" lon="3.19065">
        <ele>260.988119</ele>
        <time>2025-10-23T12:47:04Z</time>
      </trkpt>
      <trkpt lat="43.56525" lon="3.19066">
        <ele>260.924686</ele>
        <time>2025-10-23T12:47:05Z</time>
      </trkpt>
      <trkpt lat="43.56523" lon="3.19067">
        <ele>260.857749</ele>
        <time>2025-10-23T12:47:06Z</time>
      </trkpt>
      <trkpt lat="43.56521" lon="3.19069">
        <ele>260.794939</ele>
        <time>2025-10-23T12:47:07Z</time>
      </trkpt>
      <trkpt lat="43.56518" lon="3.1907">
        <ele>260.712255</ele>
        <time>2025-10-23T12:47:08Z</time>
      </trkpt>
      <trkpt lat="43.56515" lon="3.1907">
        <ele>260.628675</ele>
        <time>2025-10-23T12:47:09Z</time>
      </trkpt>
      <trkpt lat="43.56512" lon="3.1907">
        <ele>260.542139</ele>
        <time>2025-10-23T12:47:10Z</time>
      </trkpt>
      <trkpt lat="43.56509" lon="3.19071">
        <ele>260.460499</ele>
        <time>2025-10-23T12:47:11Z</time>
      </trkpt>
      <trkpt lat="43.56506" lon="3.19071">
        <ele>260.395744</ele>
        <time>2025-10-23T12:47:12Z</time>
      </trkpt>
      <trkpt lat="43.56504" lon="3.19069">
        <ele>260.353431</ele>
        <time>2025-10-23T12:47:13Z</time>
      </trkpt>
      <trkpt lat="43.56503" lon="3.19066">
        <ele>260.379026</ele>
        <time>2025-10-23T12:47:14Z</time>
      </trkpt>
      <trkpt lat="43.56503" lon="3.19063">
        <ele>260.397451</ele>
        <time>2025-10-23T12:47:15Z</time>
      </trkpt>
      <trkpt lat="43.56504" lon="3.19062">
        <ele>260.415875</ele>
        <time>2025-10-23T12:47:16Z</time>
      </trkpt>
      <trkpt lat="43.56505" lon="3.1906">
        <ele>260.428341</ele>
        <time>2025-10-23T12:47:17Z</time>
      </trkpt>
      <trkpt lat="43.56505" lon="3.19059">
        <ele>260.436292</ele>
        <time>2025-10-23T12:47:18Z</time>
      </trkpt>
      <trkpt lat="43.56505" lon="3.19059">
        <ele>260.438823</ele>
        <time>2025-10-23T12:47:19Z</time>
      </trkpt>
      <trkpt lat="43.56505" lon="3.19059">
        <ele>260.441435</ele>
        <time>2025-10-23T12:47:20Z</time>
      </trkpt>
      <trkpt lat="43.56505" lon="3.19059">
        <ele>260.445847</ele>
        <time>2025-10-23T12:47:21Z</time>
      </trkpt>
      <trkpt lat="43.56504" lon="3.19058">
        <ele>260.450259</ele>
        <time>2025-10-23T12:47:22Z</time>
      </trkpt>
      <trkpt lat="43.56504" lon="3.19058">
        <ele>260.451317</ele>
        <time>2025-10-23T12:47:23Z</time>
      </trkpt>
      <trkpt lat="43.56504" lon="3.19059">
        <ele>260.457848</ele>
        <time>2025-10-23T12:47:24Z</time>
      </trkpt>
      <trkpt lat="43.56504" lon="3.19059">
        <ele>260.461573</ele>
        <time>2025-10-23T12:47:25Z</time>
      </trkpt>
      <trkpt lat="43.56503" lon="3.19059">
        <ele>260.463823</ele>
        <time>2025-10-23T12:47:26Z</time>
      </trkpt>
      <trkpt lat="43.56503" lon="3.1906">
        <ele>260.470045</ele>
        <time>2025-10-23T12:47:27Z</time>
      </trkpt>
      <trkpt lat="43.56503" lon="3.19061">
        <ele>260.478737</ele>
        <time>2025-10-23T12:47:28Z</time>
      </trkpt>
      <trkpt lat="43.56503" lon="3.19062">
        <ele>260.485641</ele>
        <time>2025-10-23T12:47:29Z</time>
      </trkpt>
      <trkpt lat="43.56502" lon="3.19063">
        <ele>260.497862</ele>
        <time>2025-10-23T12:47:30Z</time>
      </trkpt>
      <trkpt lat="43.56501" lon="3.19064">
        <ele>260.507981</ele>
        <time>2025-10-23T12:47:31Z</time>
      </trkpt>
      <trkpt lat="43.565" lon="3.19064">
        <ele>260.520793</ele>
        <time>2025-10-23T12:47:32Z</time>
      </trkpt>
      <trkpt lat="43.56497" lon="3.19066">
        <ele>260.551268</ele>
        <time>2025-10-23T12:47:33Z</time>
      </trkpt>
      <trkpt lat="43.56495" lon="3.19068">
        <ele>260.577937</ele>
        <time>2025-10-23T12:47:34Z</time>
      </trkpt>
      <trkpt lat="43.56493" lon="3.19069">
        <ele>260.602688</ele>
        <time>2025-10-23T12:47:35Z</time>
      </trkpt>
      <trkpt lat="43.56491" lon="3.19071">
        <ele>260.627032</ele>
        <time>2025-10-23T12:47:36Z</time>
      </trkpt>
      <trkpt lat="43.56489" lon="3.19072">
        <ele>260.646671</ele>
        <time>2025-10-23T12:47:37Z</time>
      </trkpt>
      <trkpt lat="43.56488" lon="3.19073">
        <ele>260.661597</ele>
        <time>2025-10-23T12:47:38Z</time>
      </trkpt>
      <trkpt lat="43.56488" lon="3.19074">
        <ele>260.671549</ele>
        <time>2025-10-23T12:47:39Z</time>
      </trkpt>
      <trkpt lat="43.56488" lon="3.19075">
        <ele>260.677316</ele>
        <time>2025-10-23T12:47:40Z</time>
      </trkpt>
      <trkpt lat="43.56488" lon="3.19075">
        <ele>260.679615</ele>
        <time>2025-10-23T12:47:41Z</time>
      </trkpt>
      <trkpt lat="43.56488" lon="3.19076">
        <ele>260.682739</ele>
        <time>2025-10-23T12:47:42Z</time>
      </trkpt>
      <trkpt lat="43.56489" lon="3.19076">
        <ele>260.691236</ele>
        <time>2025-10-23T12:47:43Z</time>
      </trkpt>
      <trkpt lat="43.5649" lon="3.19075">
        <ele>260.698989</ele>
        <time>2025-10-23T12:47:44Z</time>
      </trkpt>
      <trkpt lat="43.56494" lon="3.19075">
        <ele>260.741409</ele>
        <time>2025-10-23T12:53:45Z</time>
      </trkpt>
      <trkpt lat="43.56494" lon="3.19075">
        <ele>260.742715</ele>
        <time>2025-10-23T12:53:46Z</time>
      </trkpt>
      <trkpt lat="43.56495" lon="3.19077">
        <ele>260.7586</ele>
        <time>2025-10-23T12:53:47Z</time>
      </trkpt>
      <trkpt lat="43.56495" lon="3.19077">
        <ele>260.762518</ele>
        <time>2025-10-23T12:53:48Z</time>
      </trkpt>
      <trkpt lat="43.56495" lon="3.19076">
        <ele>260.767494</ele>
        <time>2025-10-23T12:53:49Z</time>
      </trkpt>
      <trkpt lat="43.56494" lon="3.19076">
        <ele>260.771994</ele>
        <time>2025-10-23T12:53:50Z</time>
      </trkpt>
      <trkpt lat="43.56494" lon="3.19076">
        <ele>260.771994</ele>
        <time>2025-10-23T12:53:51Z</time>
      </trkpt>
      <trkpt lat="43.56494" lon="3.19076">
        <ele>260.7733</ele>
        <time>2025-10-23T12:53:52Z</time>
      </trkpt>
      <trkpt lat="43.56494" lon="3.19076">
        <ele>260.7733</ele>
        <time>2025-10-23T12:53:53Z</time>
      </trkpt>
      <trkpt lat="43.56494" lon="3.19076">
        <ele>260.7733</ele>
        <time>2025-10-23T12:53:54Z</time>
      </trkpt>
      <trkpt lat="43.56494" lon="3.19076">
        <ele>260.775599</ele>
        <time>2025-10-23T12:53:55Z</time>
      </trkpt>
      <trkpt lat="43.56493" lon="3.19075">
        <ele>260.790045</ele>
        <time>2025-10-23T12:53:56Z</time>
      </trkpt>
      <trkpt lat="43.56492" lon="3.19075">
        <ele>260.79486</ele>
        <time>2025-10-23T12:53:57Z</time>
      </trkpt>
      <trkpt lat="43.56493" lon="3.19075">
        <ele>260.796723</ele>
        <time>2025-10-23T12:53:58Z</time>
      </trkpt>
      <trkpt lat="43.56492" lon="3.19075">
        <ele>260.798029</ele>
        <time>2025-10-23T12:53:59Z</time>
      </trkpt>
      <trkpt lat="43.56493" lon="3.19075">
        <ele>260.799335</ele>
        <time>2025-10-23T12:54:00Z</time>
      </trkpt>
      <trkpt lat="43.56493" lon="3.19075">
        <ele>260.799335</ele>
        <time>2025-10-23T12:54:01Z</time>
      </trkpt>
      <trkpt lat="43.56493" lon="3.19075">
        <ele>260.799335</ele>
        <time>2025-10-23T12:54:02Z</time>
      </trkpt>
      <trkpt lat="43.56493" lon="3.19075">
        <ele>260.800101</ele>
        <time>2025-10-23T12:54:03Z</time>
      </trkpt>
      <trkpt lat="43.56493" lon="3.19075">
        <ele>260.800101</ele>
        <time>2025-10-23T12:54:04Z</time>
      </trkpt>
      <trkpt lat="43.56493" lon="3.19075">
        <ele>260.800101</ele>
        <time>2025-10-23T12:54:05Z</time>
      </trkpt>
      <trkpt lat="43.56493" lon="3.19075">
        <ele>260.800101</ele>
        <time>2025-10-23T12:54:06Z</time>
      </trkpt>
      <trkpt lat="43.56493" lon="3.19075">
        <ele>260.800101</ele>
        <time>2025-10-23T12:54:07Z</time>
      </trkpt>
      <trkpt lat="43.56493" lon="3.19075">
        <ele>260.800101</ele>
        <time>2025-10-23T12:54:08Z</time>
      </trkpt>
      <trkpt lat="43.56493" lon="3.19075">
        <ele>260.800101</ele>
        <time>2025-10-23T12:54:09Z</time>
      </trkpt>
      <trkpt lat="43.56493" lon="3.19075">
        <ele>260.800101</ele>
        <time>2025-10-23T12:54:10Z</time>
      </trkpt>
      <trkpt lat="43.56493" lon="3.19075">
        <ele>260.800101</ele>
        <time>2025-10-23T12:54:11Z</time>
      </trkpt>
      <trkpt lat="43.56493" lon="3.19075">
        <ele>260.800101</ele>
        <time>2025-10-23T12:54:12Z</time>
      </trkpt>
      <trkpt lat="43.56493" lon="3.19075">
        <ele>260.800101</ele>
        <time>2025-10-23T12:54:13Z</time>
      </trkpt>
      <trkpt lat="43.56493" lon="3.19075">
        <ele>260.800101</ele>
        <time>2025-10-23T12:54:14Z</time>
      </trkpt>
      <trkpt lat="43.56493" lon="3.19075">
        <ele>260.800101</ele>
        <time>2025-10-23T12:54:15Z</time>
      </trkpt>
      <trkpt lat="43.56493" lon="3.19075">
        <ele>260.800101</ele>
        <time>2025-10-23T12:54:16Z</time>
      </trkpt>
      <trkpt lat="43.56492" lon="3.19075">
        <ele>260.801159</ele>
        <time>2025-10-23T12:54:17Z</time>
      </trkpt>
      <trkpt lat="43.56492" lon="3.19075">
        <ele>260.801159</ele>
        <time>2025-10-23T12:54:19Z</time>
      </trkpt>
      <trkpt lat="43.56492" lon="3.19075">
        <ele>260.801926</ele>
        <time>2025-10-23T12:54:20Z</time>
      </trkpt>
      <trkpt lat="43.56492" lon="3.19075">
        <ele>260.802692</ele>
        <time>2025-10-23T12:54:21Z</time>
      </trkpt>
      <trkpt lat="43.56492" lon="3.19075">
        <ele>260.802692</ele>
        <time>2025-10-23T12:54:22Z</time>
      </trkpt>
      <trkpt lat="43.56492" lon="3.19075">
        <ele>260.802692</ele>
        <time>2025-10-23T12:54:23Z</time>
      </trkpt>
      <trkpt lat="43.56492" lon="3.19075">
        <ele>260.802692</ele>
        <time>2025-10-23T12:54:24Z</time>
      </trkpt>
      <trkpt lat="43.56492" lon="3.19075">
        <ele>260.802692</ele>
        <time>2025-10-23T12:54:25Z</time>
      </trkpt>
      <trkpt lat="43.56492" lon="3.19075">
        <ele>260.802692</ele>
        <time>2025-10-23T12:54:26Z</time>
      </trkpt>
      <trkpt lat="43.56493" lon="3.19075">
        <ele>260.80375</ele>
        <time>2025-10-23T12:54:27Z</time>
      </trkpt>
      <trkpt lat="43.56492" lon="3.19075">
        <ele>260.804807</ele>
        <time>2025-10-23T12:54:28Z</time>
      </trkpt>
      <trkpt lat="43.56493" lon="3.19075">
        <ele>260.805865</ele>
        <time>2025-10-23T12:54:29Z</time>
      </trkpt>
      <trkpt lat="43.56493" lon="3.19075">
        <ele>260.805865</ele>
        <time>2025-10-23T12:54:30Z</time>
      </trkpt>
      <trkpt lat="43.56493" lon="3.19075">
        <ele>260.805865</ele>
        <time>2025-10-23T12:54:31Z</time>
      </trkpt>
      <trkpt lat="43.56493" lon="3.19075">
        <ele>260.805865</ele>
        <time>2025-10-23T12:54:34Z</time>
      </trkpt>
      <trkpt lat="43.56493" lon="3.19075">
        <ele>260.805865</ele>
        <time>2025-10-23T12:54:35Z</time>
      </trkpt>
      <trkpt lat="43.56493" lon="3.19075">
        <ele>260.805865</ele>
        <time>2025-10-23T12:54:36Z</time>
      </trkpt>
      <trkpt lat="43.56493" lon="3.19075">
        <ele>260.805865</ele>
        <time>2025-10-23T12:54:37Z</time>
      </trkpt>
      <trkpt lat="43.56493" lon="3.19075">
        <ele>260.805865</ele>
        <time>2025-10-23T12:54:38Z</time>
      </trkpt>
      <trkpt lat="43.56493" lon="3.19075">
        <ele>260.805865</ele>
        <time>2025-10-23T12:54:39Z</time>
      </trkpt>
      <trkpt lat="43.56493" lon="3.19075">
        <ele>260.805865</ele>
        <time>2025-10-23T12:54:40Z</time>
      </trkpt>
      <trkpt lat="43.56493" lon="3.19075">
        <ele>260.805865</ele>
        <time>2025-10-23T12:54:42Z</time>
      </trkpt>
      <trkpt lat="43.56493" lon="3.19075">
        <ele>260.805865</ele>
        <time>2025-10-23T12:54:43Z</time>
      </trkpt>
      <trkpt lat="43.56493" lon="3.19075">
        <ele>260.805865</ele>
        <time>2025-10-23T12:54:44Z</time>
      </trkpt>
      <trkpt lat="43.56493" lon="3.19075">
        <ele>260.805865</ele>
        <time>2025-10-23T12:54:45Z</time>
      </trkpt>
      <trkpt lat="43.56493" lon="3.19075">
        <ele>260.805865</ele>
        <time>2025-10-23T12:54:46Z</time>
      </trkpt>
      <trkpt lat="43.56493" lon="3.19075">
        <ele>260.805865</ele>
        <time>2025-10-23T12:54:47Z</time>
      </trkpt>
      <trkpt lat="43.56493" lon="3.19075">
        <ele>260.805865</ele>
        <time>2025-10-23T12:54:48Z</time>
      </trkpt>
      <trkpt lat="43.56493" lon="3.19075">
        <ele>260.805865</ele>
        <time>2025-10-23T12:54:49Z</time>
      </trkpt>
      <trkpt lat="43.56493" lon="3.19075">
        <ele>260.805865</ele>
        <time>2025-10-23T12:54:50Z</time>
      </trkpt>
      <trkpt lat="43.56493" lon="3.19075">
        <ele>260.805865</ele>
        <time>2025-10-23T12:54:51Z</time>
      </trkpt>
      <trkpt lat="43.56493" lon="3.19075">
        <ele>260.805865</ele>
        <time>2025-10-23T12:54:52Z</time>
      </trkpt>
      <trkpt lat="43.56493" lon="3.19075">
        <ele>260.805865</ele>
        <time>2025-10-23T12:54:53Z</time>
      </trkpt>
      <trkpt lat="43.56493" lon="3.19075">
        <ele>260.805865</ele>
        <time>2025-10-23T12:54:54Z</time>
      </trkpt>
      <trkpt lat="43.56493" lon="3.19075">
        <ele>260.805865</ele>
        <time>2025-10-23T12:54:56Z</time>
      </trkpt>
      <trkpt lat="43.56493" lon="3.19075">
        <ele>260.805865</ele>
        <time>2025-10-23T12:54:57Z</time>
      </trkpt>
      <trkpt lat="43.56493" lon="3.19075">
        <ele>260.805865</ele>
        <time>2025-10-23T12:54:59Z</time>
      </trkpt>
      <trkpt lat="43.56493" lon="3.19075">
        <ele>260.805865</ele>
        <time>2025-10-23T12:55:00Z</time>
      </trkpt>
      <trkpt lat="43.56493" lon="3.19075">
        <ele>260.805865</ele>
        <time>2025-10-23T12:55:02Z</time>
      </trkpt>
      <trkpt lat="43.56493" lon="3.19075">
        <ele>260.805865</ele>
        <time>2025-10-23T12:55:03Z</time>
      </trkpt>
      <trkpt lat="43.56493" lon="3.19075">
        <ele>260.805865</ele>
        <time>2025-10-23T12:55:04Z</time>
      </trkpt>
      <trkpt lat="43.56493" lon="3.19075">
        <ele>260.805865</ele>
        <time>2025-10-23T12:55:06Z</time>
      </trkpt>
      <trkpt lat="43.56493" lon="3.19075">
        <ele>260.805865</ele>
        <time>2025-10-23T12:55:07Z</time>
      </trkpt>
      <trkpt lat="43.56493" lon="3.19075">
        <ele>260.805865</ele>
        <time>2025-10-23T12:55:08Z</time>
      </trkpt>
      <trkpt lat="43.56493" lon="3.19075">
        <ele>260.805865</ele>
        <time>2025-10-23T12:55:09Z</time>
      </trkpt>
      <trkpt lat="43.56493" lon="3.19075">
        <ele>260.805865</ele>
        <time>2025-10-23T12:55:10Z</time>
      </trkpt>
      <trkpt lat="43.56493" lon="3.19075">
        <ele>260.805865</ele>
        <time>2025-10-23T12:55:11Z</time>
      </trkpt>
      <trkpt lat="43.56493" lon="3.19075">
        <ele>260.805865</ele>
        <time>2025-10-23T12:55:12Z</time>
      </trkpt>
      <trkpt lat="43.56493" lon="3.19075">
        <ele>260.805865</ele>
        <time>2025-10-23T12:55:13Z</time>
      </trkpt>
      <trkpt lat="43.56493" lon="3.19075">
        <ele>260.805865</ele>
        <time>2025-10-23T12:55:14Z</time>
      </trkpt>
      <trkpt lat="43.56493" lon="3.19075">
        <ele>260.805865</ele>
        <time>2025-10-23T12:55:16Z</time>
      </trkpt>
      <trkpt lat="43.56493" lon="3.19075">
        <ele>260.805865</ele>
        <time>2025-10-23T12:55:17Z</time>
      </trkpt>
      <trkpt lat="43.56493" lon="3.19075">
        <ele>260.805865</ele>
        <time>2025-10-23T12:55:18Z</time>
      </trkpt>
      <trkpt lat="43.56493" lon="3.19075">
        <ele>260.805865</ele>
        <time>2025-10-23T12:55:21Z</time>
      </trkpt>
      <trkpt lat="43.56493" lon="3.19075">
        <ele>260.805865</ele>
        <time>2025-10-23T12:55:23Z</time>
      </trkpt>
      <trkpt lat="43.56493" lon="3.19075">
        <ele>260.805865</ele>
        <time>2025-10-23T12:55:24Z</time>
      </trkpt>
      <trkpt lat="43.56493" lon="3.19075">
        <ele>260.805865</ele>
        <time>2025-10-23T12:55:25Z</time>
      </trkpt>
      <trkpt lat="43.56493" lon="3.19075">
        <ele>260.805865</ele>
        <time>2025-10-23T12:55:26Z</time>
      </trkpt>
      <trkpt lat="43.56493" lon="3.19075">
        <ele>260.805865</ele>
        <time>2025-10-23T12:55:27Z</time>
      </trkpt>
      <trkpt lat="43.56493" lon="3.19075">
        <ele>260.805865</ele>
        <time>2025-10-23T12:55:28Z</time>
      </trkpt>
      <trkpt lat="43.56493" lon="3.19075">
        <ele>260.805865</ele>
        <time>2025-10-23T12:55:29Z</time>
      </trkpt>
      <trkpt lat="43.56493" lon="3.19075">
        <ele>260.805865</ele>
        <time>2025-10-23T12:55:32Z</time>
      </trkpt>
      <trkpt lat="43.56493" lon="3.19075">
        <ele>260.805865</ele>
        <time>2025-10-23T12:55:33Z</time>
      </trkpt>
      <trkpt lat="43.56493" lon="3.19075">
        <ele>260.805865</ele>
        <time>2025-10-23T12:55:34Z</time>
      </trkpt>
      <trkpt lat="43.56493" lon="3.19075">
        <ele>260.805865</ele>
        <time>2025-10-23T12:55:35Z</time>
      </trkpt>
      <trkpt lat="43.56493" lon="3.19075">
        <ele>260.805865</ele>
        <time>2025-10-23T12:55:37Z</time>
      </trkpt>
      <trkpt lat="43.56493" lon="3.19075">
        <ele>260.805865</ele>
        <time>2025-10-23T12:55:38Z</time>
      </trkpt>
      <trkpt lat="43.56493" lon="3.19075">
        <ele>260.805865</ele>
        <time>2025-10-23T12:55:39Z</time>
      </trkpt>
      <trkpt lat="43.56493" lon="3.19075">
        <ele>260.805865</ele>
        <time>2025-10-23T12:55:40Z</time>
      </trkpt>
      <trkpt lat="43.56493" lon="3.19075">
        <ele>260.805865</ele>
        <time>2025-10-23T12:55:41Z</time>
      </trkpt>
      <trkpt lat="43.56493" lon="3.19075">
        <ele>260.805865</ele>
        <time>2025-10-23T12:55:42Z</time>
      </trkpt>
      <trkpt lat="43.56493" lon="3.19075">
        <ele>260.805865</ele>
        <time>2025-10-23T12:55:43Z</time>
      </trkpt>
      <trkpt lat="43.56493" lon="3.19075">
        <ele>260.805865</ele>
        <time>2025-10-23T12:55:45Z</time>
      </trkpt>
      <trkpt lat="43.56493" lon="3.19075">
        <ele>260.805865</ele>
        <time>2025-10-23T12:55:46Z</time>
      </trkpt>
      <trkpt lat="43.56492" lon="3.19075">
        <ele>260.806923</ele>
        <time>2025-10-23T12:55:47Z</time>
      </trkpt>
      <trkpt lat="43.56492" lon="3.19075">
        <ele>260.806923</ele>
        <time>2025-10-23T12:55:48Z</time>
      </trkpt>
      <trkpt lat="43.56492" lon="3.19075">
        <ele>260.806923</ele>
        <time>2025-10-23T12:55:49Z</time>
      </trkpt>
      <trkpt lat="43.56492" lon="3.19075">
        <ele>260.806923</ele>
        <time>2025-10-23T12:55:50Z</time>
      </trkpt>
      <trkpt lat="43.56492" lon="3.19075">
        <ele>260.806923</ele>
        <time>2025-10-23T12:55:51Z</time>
      </trkpt>
      <trkpt lat="43.56492" lon="3.19075">
        <ele>260.806923</ele>
        <time>2025-10-23T12:55:52Z</time>
      </trkpt>
      <trkpt lat="43.56492" lon="3.19075">
        <ele>260.806923</ele>
        <time>2025-10-23T12:55:53Z</time>
      </trkpt>
      <trkpt lat="43.56492" lon="3.19075">
        <ele>260.806923</ele>
        <time>2025-10-23T12:55:54Z</time>
      </trkpt>
      <trkpt lat="43.56492" lon="3.19075">
        <ele>260.806923</ele>
        <time>2025-10-23T12:55:55Z</time>
      </trkpt>
      <trkpt lat="43.56493" lon="3.19075">
        <ele>260.807981</ele>
        <time>2025-10-23T12:55:56Z</time>
      </trkpt>
      <trkpt lat="43.56493" lon="3.19075">
        <ele>260.807981</ele>
        <time>2025-10-23T12:55:57Z</time>
      </trkpt>
      <trkpt lat="43.56493" lon="3.19075">
        <ele>260.807981</ele>
        <time>2025-10-23T12:55:58Z</time>
      </trkpt>
      <trkpt lat="43.56493" lon="3.19075">
        <ele>260.807981</ele>
        <time>2025-10-23T12:55:59Z</time>
      </trkpt>
      <trkpt lat="43.56493" lon="3.19075">
        <ele>260.807981</ele>
        <time>2025-10-23T12:56:00Z</time>
      </trkpt>
      <trkpt lat="43.56493" lon="3.19075">
        <ele>260.807981</ele>
        <time>2025-10-23T12:56:01Z</time>
      </trkpt>
      <trkpt lat="43.56493" lon="3.19075">
        <ele>260.807981</ele>
        <time>2025-10-23T12:56:02Z</time>
      </trkpt>
      <trkpt lat="43.56493" lon="3.19075">
        <ele>260.807981</ele>
        <time>2025-10-23T12:56:03Z</time>
      </trkpt>
      <trkpt lat="43.56493" lon="3.19075">
        <ele>260.807981</ele>
        <time>2025-10-23T12:56:04Z</time>
      </trkpt>
      <trkpt lat="43.56493" lon="3.19075">
        <ele>260.807981</ele>
        <time>2025-10-23T12:56:05Z</time>
      </trkpt>
      <trkpt lat="43.56493" lon="3.19075">
        <ele>260.807981</ele>
        <time>2025-10-23T12:56:06Z</time>
      </trkpt>
      <trkpt lat="43.56493" lon="3.19075">
        <ele>260.807981</ele>
        <time>2025-10-23T12:56:07Z</time>
      </trkpt>
      <trkpt lat="43.56493" lon="3.19075">
        <ele>260.807981</ele>
        <time>2025-10-23T12:56:09Z</time>
      </trkpt>
      <trkpt lat="43.56493" lon="3.19075">
        <ele>260.807981</ele>
        <time>2025-10-23T12:56:10Z</time>
      </trkpt>
      <trkpt lat="43.56493" lon="3.19075">
        <ele>260.807981</ele>
        <time>2025-10-23T12:56:12Z</time>
      </trkpt>
      <trkpt lat="43.56493" lon="3.19075">
        <ele>260.807981</ele>
        <time>2025-10-23T12:56:13Z</time>
      </trkpt>
      <trkpt lat="43.56493" lon="3.19075">
        <ele>260.807981</ele>
        <time>2025-10-23T12:56:14Z</time>
      </trkpt>
      <trkpt lat="43.56493" lon="3.19075">
        <ele>260.807981</ele>
        <time>2025-10-23T12:56:15Z</time>
      </trkpt>
      <trkpt lat="43.56493" lon="3.19075">
        <ele>260.807981</ele>
        <time>2025-10-23T12:56:16Z</time>
      </trkpt>
      <trkpt lat="43.56493" lon="3.19075">
        <ele>260.807981</ele>
        <time>2025-10-23T12:56:17Z</time>
      </trkpt>
      <trkpt lat="43.56493" lon="3.19075">
        <ele>260.807981</ele>
        <time>2025-10-23T12:56:18Z</time>
      </trkpt>
      <trkpt lat="43.56493" lon="3.19075">
        <ele>260.807981</ele>
        <time>2025-10-23T12:56:20Z</time>
      </trkpt>
      <trkpt lat="43.56493" lon="3.19075">
        <ele>260.807981</ele>
        <time>2025-10-23T12:56:21Z</time>
      </trkpt>
      <trkpt lat="43.56493" lon="3.19075">
        <ele>260.807981</ele>
        <time>2025-10-23T12:56:28Z</time>
      </trkpt>
      <trkpt lat="43.56493" lon="3.19075">
        <ele>260.807981</ele>
        <time>2025-10-23T12:56:29Z</time>
      </trkpt>
      <trkpt lat="43.56493" lon="3.19075">
        <ele>260.807981</ele>
        <time>2025-10-23T12:56:30Z</time>
      </trkpt>
      <trkpt lat="43.56493" lon="3.19075">
        <ele>260.807981</ele>
        <time>2025-10-23T12:56:31Z</time>
      </trkpt>
      <trkpt lat="43.56493" lon="3.19075">
        <ele>260.807981</ele>
        <time>2025-10-23T12:56:32Z</time>
      </trkpt>
      <trkpt lat="43.56493" lon="3.19075">
        <ele>260.807981</ele>
        <time>2025-10-23T12:56:33Z</time>
      </trkpt>
      <trkpt lat="43.56493" lon="3.19075">
        <ele>260.807981</ele>
        <time>2025-10-23T12:56:34Z</time>
      </trkpt>
      <trkpt lat="43.56493" lon="3.19075">
        <ele>260.807981</ele>
        <time>2025-10-23T12:56:35Z</time>
      </trkpt>
      <trkpt lat="43.56493" lon="3.19075">
        <ele>260.807981</ele>
        <time>2025-10-23T12:56:36Z</time>
      </trkpt>
      <trkpt lat="43.56492" lon="3.19075">
        <ele>260.809287</ele>
        <time>2025-10-23T12:56:37Z</time>
      </trkpt>
      <trkpt lat="43.56492" lon="3.19075">
        <ele>260.813787</ele>
        <time>2025-10-23T12:56:38Z</time>
      </trkpt>
      <trkpt lat="43.56492" lon="3.19075">
        <ele>260.815093</ele>
        <time>2025-10-23T12:56:39Z</time>
      </trkpt>
      <trkpt lat="43.56492" lon="3.19075">
        <ele>260.815093</ele>
        <time>2025-10-23T12:56:40Z</time>
      </trkpt>
      <trkpt lat="43.56492" lon="3.19075">
        <ele>260.815859</ele>
        <time>2025-10-23T12:56:41Z</time>
      </trkpt>
      <trkpt lat="43.56492" lon="3.19075">
        <ele>260.816917</ele>
        <time>2025-10-23T12:56:42Z</time>
      </trkpt>
      <trkpt lat="43.56492" lon="3.19075">
        <ele>260.816917</ele>
        <time>2025-10-23T12:56:43Z</time>
      </trkpt>
      <trkpt lat="43.56492" lon="3.19075">
        <ele>260.816917</ele>
        <time>2025-10-23T12:56:44Z</time>
      </trkpt>
      <trkpt lat="43.56492" lon="3.19075">
        <ele>260.818223</ele>
        <time>2025-10-23T12:56:45Z</time>
      </trkpt>
      <trkpt lat="43.56492" lon="3.19075">
        <ele>260.818223</ele>
        <time>2025-10-23T12:56:46Z</time>
      </trkpt>
      <trkpt lat="43.56492" lon="3.19075">
        <ele>260.819281</ele>
        <time>2025-10-23T12:56:47Z</time>
      </trkpt>
      <trkpt lat="43.56492" lon="3.19075">
        <ele>260.820587</ele>
        <time>2025-10-23T12:56:48Z</time>
      </trkpt>
      <trkpt lat="43.56491" lon="3.19075">
        <ele>260.821645</ele>
        <time>2025-10-23T12:56:49Z</time>
      </trkpt>
      <trkpt lat="43.56491" lon="3.19074">
        <ele>260.822411</ele>
        <time>2025-10-23T12:56:50Z</time>
      </trkpt>
      <trkpt lat="43.56492" lon="3.19074">
        <ele>260.824274</ele>
        <time>2025-10-23T12:56:51Z</time>
      </trkpt>
      <trkpt lat="43.5649" lon="3.19071">
        <ele>260.850729</ele>
        <time>2025-10-23T12:56:52Z</time>
      </trkpt>
      <trkpt lat="43.5649" lon="3.19068">
        <ele>260.871664</ele>
        <time>2025-10-23T12:56:53Z</time>
      </trkpt>
      <trkpt lat="43.5649" lon="3.19065">
        <ele>260.894874</ele>
        <time>2025-10-23T12:56:54Z</time>
      </trkpt>
      <trkpt lat="43.56489" lon="3.19064">
        <ele>260.912872</ele>
        <time>2025-10-23T12:56:55Z</time>
      </trkpt>
      <trkpt lat="43.56488" lon="3.19063">
        <ele>260.927928</ele>
        <time>2025-10-23T12:56:56Z</time>
      </trkpt>
      <trkpt lat="43.56487" lon="3.19062">
        <ele>260.940149</ele>
        <time>2025-10-23T12:56:57Z</time>
      </trkpt>
      <trkpt lat="43.56487" lon="3.1906">
        <ele>260.95475</ele>
        <time>2025-10-23T12:56:58Z</time>
      </trkpt>
      <trkpt lat="43.56486" lon="3.19058">
        <ele>260.972661</ele>
        <time>2025-10-23T12:56:59Z</time>
      </trkpt>
      <trkpt lat="43.56486" lon="3.19055">
        <ele>260.990572</ele>
        <time>2025-10-23T12:57:00Z</time>
      </trkpt>
      <trkpt lat="43.56486" lon="3.19053">
        <ele>261.007565</ele>
        <time>2025-10-23T12:57:01Z</time>
      </trkpt>
      <trkpt lat="43.56486" lon="3.19051">
        <ele>261.025224</ele>
        <time>2025-10-23T12:57:02Z</time>
      </trkpt>
      <trkpt lat="43.56486" lon="3.19048">
        <ele>261.044414</ele>
        <time>2025-10-23T12:57:03Z</time>
      </trkpt>
      <trkpt lat="43.56485" lon="3.19045">
        <ele>261.067039</ele>
        <time>2025-10-23T12:57:04Z</time>
      </trkpt>
      <trkpt lat="43.56485" lon="3.19042">
        <ele>261.092129</ele>
        <time>2025-10-23T12:57:05Z</time>
      </trkpt>
      <trkpt lat="43.56484" lon="3.19039">
        <ele>261.119694</ele>
        <time>2025-10-23T12:57:06Z</time>
      </trkpt>
      <trkpt lat="43.56484" lon="3.19035">
        <ele>261.14854</ele>
        <time>2025-10-23T12:57:07Z</time>
      </trkpt>
      <trkpt lat="43.56483" lon="3.19031">
        <ele>261.176454</ele>
        <time>2025-10-23T12:57:08Z</time>
      </trkpt>
      <trkpt lat="43.56483" lon="3.19028">
        <ele>261.203795</ele>
        <time>2025-10-23T12:57:09Z</time>
      </trkpt>
      <trkpt lat="43.56482" lon="3.19024">
        <ele>261.230385</ele>
        <time>2025-10-23T12:57:10Z</time>
      </trkpt>
      <trkpt lat="43.56482" lon="3.19021">
        <ele>261.255474</ele>
        <time>2025-10-23T12:57:11Z</time>
      </trkpt>
      <trkpt lat="43.56481" lon="3.19018">
        <ele>261.28155</ele>
        <time>2025-10-23T12:57:12Z</time>
      </trkpt>
      <trkpt lat="43.5648" lon="3.19015">
        <ele>261.308948</ele>
        <time>2025-10-23T12:57:13Z</time>
      </trkpt>
      <trkpt lat="43.5648" lon="3.19012">
        <ele>261.332375</ele>
        <time>2025-10-23T12:57:14Z</time>
      </trkpt>
      <trkpt lat="43.56479" lon="3.19009">
        <ele>261.352409</ele>
        <time>2025-10-23T12:57:15Z</time>
      </trkpt>
      <trkpt lat="43.56478" lon="3.19007">
        <ele>261.375392</ele>
        <time>2025-10-23T12:57:16Z</time>
      </trkpt>
      <trkpt lat="43.56476" lon="3.19004">
        <ele>261.400838</ele>
        <time>2025-10-23T12:57:17Z</time>
      </trkpt>
      <trkpt lat="43.56475" lon="3.19002">
        <ele>261.425054</ele>
        <time>2025-10-23T12:57:18Z</time>
      </trkpt>
      <trkpt lat="43.56473" lon="3.18999">
        <ele>261.452362</ele>
        <time>2025-10-23T12:57:19Z</time>
      </trkpt>
      <trkpt lat="43.56472" lon="3.18996">
        <ele>261.479813</ele>
        <time>2025-10-23T12:57:20Z</time>
      </trkpt>
      <trkpt lat="43.56471" lon="3.18992">
        <ele>261.509052</ele>
        <time>2025-10-23T12:57:21Z</time>
      </trkpt>
      <trkpt lat="43.5647" lon="3.18989">
        <ele>261.533463</ele>
        <time>2025-10-23T12:57:22Z</time>
      </trkpt>
      <trkpt lat="43.56469" lon="3.18987">
        <ele>261.556538</ele>
        <time>2025-10-23T12:57:23Z</time>
      </trkpt>
      <trkpt lat="43.56468" lon="3.18984">
        <ele>261.578887</ele>
        <time>2025-10-23T12:57:24Z</time>
      </trkpt>
      <trkpt lat="43.56467" lon="3.18982">
        <ele>261.602363</ele>
        <time>2025-10-23T12:57:25Z</time>
      </trkpt>
      <trkpt lat="43.56465" lon="3.18978">
        <ele>261.631671</ele>
        <time>2025-10-23T12:57:26Z</time>
      </trkpt>
      <trkpt lat="43.56464" lon="3.18975">
        <ele>261.657267</ele>
        <time>2025-10-23T12:57:27Z</time>
      </trkpt>
      <trkpt lat="43.56462" lon="3.18973">
        <ele>261.686667</ele>
        <time>2025-10-23T12:57:28Z</time>
      </trkpt>
      <trkpt lat="43.56461" lon="3.1897">
        <ele>261.710384</ele>
        <time>2025-10-23T12:57:29Z</time>
      </trkpt>
      <trkpt lat="43.56459" lon="3.18968">
        <ele>261.731919</ele>
        <time>2025-10-23T12:57:30Z</time>
      </trkpt>
      <trkpt lat="43.56457" lon="3.18967">
        <ele>261.755996</ele>
        <time>2025-10-23T12:57:31Z</time>
      </trkpt>
      <trkpt lat="43.56456" lon="3.18966">
        <ele>261.775257</ele>
        <time>2025-10-23T12:57:32Z</time>
      </trkpt>
      <trkpt lat="43.56454" lon="3.18963">
        <ele>261.797022</ele>
        <time>2025-10-23T12:57:33Z</time>
      </trkpt>
      <trkpt lat="43.56453" lon="3.18961">
        <ele>261.818143</ele>
        <time>2025-10-23T12:57:34Z</time>
      </trkpt>
      <trkpt lat="43.56452" lon="3.18959">
        <ele>261.836783</ele>
        <time>2025-10-23T12:57:35Z</time>
      </trkpt>
      <trkpt lat="43.56451" lon="3.18957">
        <ele>261.858844</ele>
        <time>2025-10-23T12:57:36Z</time>
      </trkpt>
      <trkpt lat="43.56449" lon="3.18955">
        <ele>261.880012</ele>
        <time>2025-10-23T12:57:37Z</time>
      </trkpt>
      <trkpt lat="43.56448" lon="3.18953">
        <ele>261.903035</ele>
        <time>2025-10-23T12:57:38Z</time>
      </trkpt>
      <trkpt lat="43.56447" lon="3.1895">
        <ele>261.927326</ele>
        <time>2025-10-23T12:57:39Z</time>
      </trkpt>
      <trkpt lat="43.56446" lon="3.18948">
        <ele>261.949683</ele>
        <time>2025-10-23T12:57:40Z</time>
      </trkpt>
      <trkpt lat="43.56445" lon="3.18945">
        <ele>261.969236</ele>
        <time>2025-10-23T12:57:41Z</time>
      </trkpt>
      <trkpt lat="43.56444" lon="3.18943">
        <ele>261.990549</ele>
        <time>2025-10-23T12:57:42Z</time>
      </trkpt>
      <trkpt lat="43.56441" lon="3.18942">
        <ele>262.014308</ele>
        <time>2025-10-23T12:57:43Z</time>
      </trkpt>
      <trkpt lat="43.5644" lon="3.18942">
        <ele>262.030247</ele>
        <time>2025-10-23T12:57:44Z</time>
      </trkpt>
      <trkpt lat="43.56437" lon="3.18943">
        <ele>262.057229</ele>
        <time>2025-10-23T12:57:45Z</time>
      </trkpt>
      <trkpt lat="43.56434" lon="3.18945">
        <ele>262.095993</ele>
        <time>2025-10-23T12:57:46Z</time>
      </trkpt>
      <trkpt lat="43.5643" lon="3.18946">
        <ele>262.14496</ele>
        <time>2025-10-23T12:57:47Z</time>
      </trkpt>
      <trkpt lat="43.56424" lon="3.18949">
        <ele>262.205973</ele>
        <time>2025-10-23T12:57:48Z</time>
      </trkpt>
      <trkpt lat="43.56419" lon="3.18951">
        <ele>262.235442</ele>
        <time>2025-10-23T12:57:49Z</time>
      </trkpt>
      <trkpt lat="43.56412" lon="3.18955">
        <ele>262.146562</ele>
        <time>2025-10-23T12:57:50Z</time>
      </trkpt>
      <trkpt lat="43.56406" lon="3.18957">
        <ele>262.069999</ele>
        <time>2025-10-23T12:57:51Z</time>
      </trkpt>
      <trkpt lat="43.564" lon="3.18959">
        <ele>261.989896</ele>
        <time>2025-10-23T12:57:52Z</time>
      </trkpt>
      <trkpt lat="43.56394" lon="3.1896">
        <ele>261.915187</ele>
        <time>2025-10-23T12:57:53Z</time>
      </trkpt>
      <trkpt lat="43.56389" lon="3.18961">
        <ele>261.850402</ele>
        <time>2025-10-23T12:57:54Z</time>
      </trkpt>
      <trkpt lat="43.56384" lon="3.18961">
        <ele>261.791964</ele>
        <time>2025-10-23T12:57:55Z</time>
      </trkpt>
      <trkpt lat="43.5638" lon="3.18962">
        <ele>261.738328</ele>
        <time>2025-10-23T12:57:56Z</time>
      </trkpt>
      <trkpt lat="43.56376" lon="3.18963">
        <ele>261.689909</ele>
        <time>2025-10-23T12:57:57Z</time>
      </trkpt>
      <trkpt lat="43.56373" lon="3.18963">
        <ele>261.651546</ele>
        <time>2025-10-23T12:57:58Z</time>
      </trkpt>
      <trkpt lat="43.56371" lon="3.18961">
        <ele>261.623779</ele>
        <time>2025-10-23T12:57:59Z</time>
      </trkpt>
      <trkpt lat="43.56369" lon="3.18959">
        <ele>261.597093</ele>
        <time>2025-10-23T12:58:00Z</time>
      </trkpt>
      <trkpt lat="43.56368" lon="3.18958">
        <ele>261.573686</ele>
        <time>2025-10-23T12:58:01Z</time>
      </trkpt>
      <trkpt lat="43.56367" lon="3.18955">
        <ele>261.550022</ele>
        <time>2025-10-23T12:58:02Z</time>
      </trkpt>
      <trkpt lat="43.56367" lon="3.18953">
        <ele>261.527963</ele>
        <time>2025-10-23T12:58:03Z</time>
      </trkpt>
      <trkpt lat="43.56366" lon="3.18951">
        <ele>261.506197</ele>
        <time>2025-10-23T12:58:04Z</time>
      </trkpt>
      <trkpt lat="43.56365" lon="3.18949">
        <ele>261.48588</ele>
        <time>2025-10-23T12:58:05Z</time>
      </trkpt>
      <trkpt lat="43.56363" lon="3.18947">
        <ele>261.45749</ele>
        <time>2025-10-23T12:58:06Z</time>
      </trkpt>
      <trkpt lat="43.56362" lon="3.18944">
        <ele>261.4291</ele>
        <time>2025-10-23T12:58:07Z</time>
      </trkpt>
      <trkpt lat="43.5636" lon="3.18941">
        <ele>261.397184</ele>
        <time>2025-10-23T12:58:08Z</time>
      </trkpt>
      <trkpt lat="43.56359" lon="3.18938">
        <ele>261.365221</ele>
        <time>2025-10-23T12:58:09Z</time>
      </trkpt>
      <trkpt lat="43.56357" lon="3.18935">
        <ele>261.32941</ele>
        <time>2025-10-23T12:58:10Z</time>
      </trkpt>
      <trkpt lat="43.56356" lon="3.18931">
        <ele>261.292212</ele>
        <time>2025-10-23T12:58:11Z</time>
      </trkpt>
      <trkpt lat="43.56354" lon="3.18928">
        <ele>261.255144</ele>
        <time>2025-10-23T12:58:12Z</time>
      </trkpt>
      <trkpt lat="43.56353" lon="3.18924">
        <ele>261.218075</ele>
        <time>2025-10-23T12:58:13Z</time>
      </trkpt>
      <trkpt lat="43.56351" lon="3.18921">
        <ele>261.178847</ele>
        <time>2025-10-23T12:58:14Z</time>
      </trkpt>
      <trkpt lat="43.56349" lon="3.18917">
        <ele>261.136778</ele>
        <time>2025-10-23T12:58:15Z</time>
      </trkpt>
      <trkpt lat="43.56347" lon="3.18913">
        <ele>261.098948</ele>
        <time>2025-10-23T12:58:16Z</time>
      </trkpt>
      <trkpt lat="43.56344" lon="3.1891">
        <ele>261.056797</ele>
        <time>2025-10-23T12:58:17Z</time>
      </trkpt>
      <trkpt lat="43.56342" lon="3.18907">
        <ele>261.021317</ele>
        <time>2025-10-23T12:58:18Z</time>
      </trkpt>
      <trkpt lat="43.56339" lon="3.18905">
        <ele>260.979048</ele>
        <time>2025-10-23T12:58:19Z</time>
      </trkpt>
      <trkpt lat="43.56336" lon="3.18902">
        <ele>260.927664</ele>
        <time>2025-10-23T12:58:20Z</time>
      </trkpt>
      <trkpt lat="43.56333" lon="3.18898">
        <ele>260.876058</ele>
        <time>2025-10-23T12:58:21Z</time>
      </trkpt>
      <trkpt lat="43.5633" lon="3.18894">
        <ele>260.822979</ele>
        <time>2025-10-23T12:58:22Z</time>
      </trkpt>
      <trkpt lat="43.56327" lon="3.1889">
        <ele>260.775673</ele>
        <time>2025-10-23T12:58:23Z</time>
      </trkpt>
      <trkpt lat="43.56325" lon="3.18887">
        <ele>260.735037</ele>
        <time>2025-10-23T12:58:24Z</time>
      </trkpt>
      <trkpt lat="43.56322" lon="3.18884">
        <ele>260.693783</ele>
        <time>2025-10-23T12:58:25Z</time>
      </trkpt>
      <trkpt lat="43.56319" lon="3.18881">
        <ele>260.648842</ele>
        <time>2025-10-23T12:58:26Z</time>
      </trkpt>
      <trkpt lat="43.56316" lon="3.18877">
        <ele>260.599893</ele>
        <time>2025-10-23T12:58:27Z</time>
      </trkpt>
      <trkpt lat="43.56313" lon="3.18874">
        <ele>260.552037</ele>
        <time>2025-10-23T12:58:28Z</time>
      </trkpt>
      <trkpt lat="43.5631" lon="3.18871">
        <ele>260.508619</ele>
        <time>2025-10-23T12:58:29Z</time>
      </trkpt>
      <trkpt lat="43.56308" lon="3.18868">
        <ele>260.470902</ele>
        <time>2025-10-23T12:58:30Z</time>
      </trkpt>
      <trkpt lat="43.56306" lon="3.18866">
        <ele>260.43471</ele>
        <time>2025-10-23T12:58:31Z</time>
      </trkpt>
      <trkpt lat="43.56303" lon="3.18864">
        <ele>260.402141</ele>
        <time>2025-10-23T12:58:32Z</time>
      </trkpt>
      <trkpt lat="43.56301" lon="3.18862">
        <ele>260.370082</ele>
        <time>2025-10-23T12:58:33Z</time>
      </trkpt>
      <trkpt lat="43.563" lon="3.1886">
        <ele>260.341522</ele>
        <time>2025-10-23T12:58:34Z</time>
      </trkpt>
      <trkpt lat="43.56298" lon="3.18859">
        <ele>260.318678</ele>
        <time>2025-10-23T12:58:35Z</time>
      </trkpt>
      <trkpt lat="43.56297" lon="3.18859">
        <ele>260.306187</ele>
        <time>2025-10-23T12:58:36Z</time>
      </trkpt>
      <trkpt lat="43.56297" lon="3.18858">
        <ele>260.300271</ele>
        <time>2025-10-23T12:58:37Z</time>
      </trkpt>
      <trkpt lat="43.56297" lon="3.18858">
        <ele>260.299035</ele>
        <time>2025-10-23T12:58:38Z</time>
      </trkpt>
      <trkpt lat="43.56297" lon="3.18858">
        <ele>260.299035</ele>
        <time>2025-10-23T12:58:39Z</time>
      </trkpt>
      <trkpt lat="43.56298" lon="3.18854">
        <ele>260.254807</ele>
        <time>2025-10-23T12:59:08Z</time>
      </trkpt>
      <trkpt lat="43.56298" lon="3.18851">
        <ele>260.229453</ele>
        <time>2025-10-23T12:59:09Z</time>
      </trkpt>
      <trkpt lat="43.56297" lon="3.18848">
        <ele>260.202438</ele>
        <time>2025-10-23T12:59:10Z</time>
      </trkpt>
      <trkpt lat="43.56296" lon="3.18845">
        <ele>260.172116</ele>
        <time>2025-10-23T12:59:11Z</time>
      </trkpt>
      <trkpt lat="43.56296" lon="3.18841">
        <ele>260.140455</ele>
        <time>2025-10-23T12:59:12Z</time>
      </trkpt>
      <trkpt lat="43.56295" lon="3.18838">
        <ele>260.104644</ele>
        <time>2025-10-23T12:59:13Z</time>
      </trkpt>
      <trkpt lat="43.56294" lon="3.18834">
        <ele>260.069198</ele>
        <time>2025-10-23T12:59:14Z</time>
      </trkpt>
      <trkpt lat="43.56293" lon="3.1883">
        <ele>260.031163</ele>
        <time>2025-10-23T12:59:15Z</time>
      </trkpt>
      <trkpt lat="43.56292" lon="3.18826">
        <ele>260.107994</ele>
        <time>2025-10-23T12:59:16Z</time>
      </trkpt>
      <trkpt lat="43.56291" lon="3.18822">
        <ele>260.205663</ele>
        <time>2025-10-23T12:59:17Z</time>
      </trkpt>
      <trkpt lat="43.56291" lon="3.18819">
        <ele>260.305704</ele>
        <time>2025-10-23T12:59:18Z</time>
      </trkpt>
      <trkpt lat="43.56289" lon="3.18815">
        <ele>260.408726</ele>
        <time>2025-10-23T12:59:19Z</time>
      </trkpt>
      <trkpt lat="43.56288" lon="3.18811">
        <ele>260.50909</ele>
        <time>2025-10-23T12:59:20Z</time>
      </trkpt>
      <trkpt lat="43.56286" lon="3.18808">
        <ele>260.613831</ele>
        <time>2025-10-23T12:59:21Z</time>
      </trkpt>
      <trkpt lat="43.56284" lon="3.18805">
        <ele>260.714446</ele>
        <time>2025-10-23T12:59:22Z</time>
      </trkpt>
      <trkpt lat="43.56282" lon="3.18803">
        <ele>260.805585</ele>
        <time>2025-10-23T12:59:23Z</time>
      </trkpt>
      <trkpt lat="43.5628" lon="3.188">
        <ele>260.893868</ele>
        <time>2025-10-23T12:59:24Z</time>
      </trkpt>
      <trkpt lat="43.56278" lon="3.18797">
        <ele>260.990364</ele>
        <time>2025-10-23T12:59:25Z</time>
      </trkpt>
      <trkpt lat="43.56276" lon="3.18794">
        <ele>261.085662</ele>
        <time>2025-10-23T12:59:26Z</time>
      </trkpt>
      <trkpt lat="43.56274" lon="3.18792">
        <ele>261.192707</ele>
        <time>2025-10-23T12:59:27Z</time>
      </trkpt>
      <trkpt lat="43.56272" lon="3.18788">
        <ele>261.290641</ele>
        <time>2025-10-23T12:59:28Z</time>
      </trkpt>
      <trkpt lat="43.5627" lon="3.18785">
        <ele>261.393593</ele>
        <time>2025-10-23T12:59:29Z</time>
      </trkpt>
      <trkpt lat="43.56267" lon="3.18783">
        <ele>261.503261</ele>
        <time>2025-10-23T12:59:30Z</time>
      </trkpt>
      <trkpt lat="43.56265" lon="3.18779">
        <ele>261.620296</ele>
        <time>2025-10-23T12:59:31Z</time>
      </trkpt>
      <trkpt lat="43.56262" lon="3.18777">
        <ele>261.73263</ele>
        <time>2025-10-23T12:59:32Z</time>
      </trkpt>
      <trkpt lat="43.5626" lon="3.18774">
        <ele>261.83779</ele>
        <time>2025-10-23T12:59:33Z</time>
      </trkpt>
      <trkpt lat="43.56257" lon="3.18772">
        <ele>261.944334</ele>
        <time>2025-10-23T12:59:34Z</time>
      </trkpt>
      <trkpt lat="43.56255" lon="3.18769">
        <ele>262.046756</ele>
        <time>2025-10-23T12:59:35Z</time>
      </trkpt>
      <trkpt lat="43.56253" lon="3.18766">
        <ele>262.141436</ele>
        <time>2025-10-23T12:59:36Z</time>
      </trkpt>
      <trkpt lat="43.56251" lon="3.18763">
        <ele>262.241371</ele>
        <time>2025-10-23T12:59:37Z</time>
      </trkpt>
      <trkpt lat="43.56249" lon="3.1876">
        <ele>262.3453</ele>
        <time>2025-10-23T12:59:38Z</time>
      </trkpt>
      <trkpt lat="43.56247" lon="3.18756">
        <ele>262.463758</ele>
        <time>2025-10-23T12:59:39Z</time>
      </trkpt>
      <trkpt lat="43.56246" lon="3.18753">
        <ele>262.553375</ele>
        <time>2025-10-23T12:59:40Z</time>
      </trkpt>
      <trkpt lat="43.56245" lon="3.18749">
        <ele>262.667501</ele>
        <time>2025-10-23T12:59:41Z</time>
      </trkpt>
      <trkpt lat="43.56243" lon="3.18745">
        <ele>262.777726</ele>
        <time>2025-10-23T12:59:42Z</time>
      </trkpt>
      <trkpt lat="43.56242" lon="3.18741">
        <ele>262.881444</ele>
        <time>2025-10-23T12:59:43Z</time>
      </trkpt>
      <trkpt lat="43.5624" lon="3.18738">
        <ele>262.980721</ele>
        <time>2025-10-23T12:59:44Z</time>
      </trkpt>
      <trkpt lat="43.56239" lon="3.18734">
        <ele>263.072982</ele>
        <time>2025-10-23T12:59:45Z</time>
      </trkpt>
      <trkpt lat="43.56237" lon="3.18731">
        <ele>263.16913</ele>
        <time>2025-10-23T12:59:46Z</time>
      </trkpt>
      <trkpt lat="43.56236" lon="3.18728">
        <ele>263.255144</ele>
        <time>2025-10-23T12:59:47Z</time>
      </trkpt>
      <trkpt lat="43.56235" lon="3.18725">
        <ele>263.342562</ele>
        <time>2025-10-23T12:59:48Z</time>
      </trkpt>
      <trkpt lat="43.56234" lon="3.18721">
        <ele>263.439636</ele>
        <time>2025-10-23T12:59:49Z</time>
      </trkpt>
      <trkpt lat="43.56233" lon="3.18718">
        <ele>263.526383</ele>
        <time>2025-10-23T12:59:50Z</time>
      </trkpt>
      <trkpt lat="43.56231" lon="3.18715">
        <ele>263.619091</ele>
        <time>2025-10-23T12:59:51Z</time>
      </trkpt>
      <trkpt lat="43.5623" lon="3.18712">
        <ele>263.707163</ele>
        <time>2025-10-23T12:59:52Z</time>
      </trkpt>
      <trkpt lat="43.56229" lon="3.18708">
        <ele>263.803312</ele>
        <time>2025-10-23T12:59:53Z</time>
      </trkpt>
      <trkpt lat="43.56227" lon="3.18705">
        <ele>263.901313</ele>
        <time>2025-10-23T12:59:54Z</time>
      </trkpt>
      <trkpt lat="43.56225" lon="3.18702">
        <ele>264.005615</ele>
        <time>2025-10-23T12:59:55Z</time>
      </trkpt>
      <trkpt lat="43.56223" lon="3.18699">
        <ele>264.106806</ele>
        <time>2025-10-23T12:59:56Z</time>
      </trkpt>
      <trkpt lat="43.56221" lon="3.18696">
        <ele>264.219312</ele>
        <time>2025-10-23T12:59:57Z</time>
      </trkpt>
      <trkpt lat="43.56218" lon="3.18692">
        <ele>264.335931</ele>
        <time>2025-10-23T12:59:58Z</time>
      </trkpt>
      <trkpt lat="43.56217" lon="3.18689">
        <ele>264.435917</ele>
        <time>2025-10-23T12:59:59Z</time>
      </trkpt>
      <trkpt lat="43.56215" lon="3.18686">
        <ele>264.539847</ele>
        <time>2025-10-23T13:00:00Z</time>
      </trkpt>
      <trkpt lat="43.56213" lon="3.18682">
        <ele>264.649842</ele>
        <time>2025-10-23T13:00:01Z</time>
      </trkpt>
      <trkpt lat="43.56211" lon="3.18678">
        <ele>264.768161</ele>
        <time>2025-10-23T13:00:02Z</time>
      </trkpt>
      <trkpt lat="43.5621" lon="3.18673">
        <ele>264.899452</ele>
        <time>2025-10-23T13:00:03Z</time>
      </trkpt>
      <trkpt lat="43.56208" lon="3.18668">
        <ele>265.028245</ele>
        <time>2025-10-23T13:00:04Z</time>
      </trkpt>
      <trkpt lat="43.56207" lon="3.18663">
        <ele>265.172239</ele>
        <time>2025-10-23T13:00:05Z</time>
      </trkpt>
      <trkpt lat="43.56205" lon="3.18657">
        <ele>265.316122</ele>
        <time>2025-10-23T13:00:06Z</time>
      </trkpt>
      <trkpt lat="43.56204" lon="3.18652">
        <ele>265.458911</ele>
        <time>2025-10-23T13:00:07Z</time>
      </trkpt>
      <trkpt lat="43.56203" lon="3.18646">
        <ele>265.598146</ele>
        <time>2025-10-23T13:00:08Z</time>
      </trkpt>
      <trkpt lat="43.56201" lon="3.18641">
        <ele>265.733916</ele>
        <time>2025-10-23T13:00:09Z</time>
      </trkpt>
      <trkpt lat="43.562" lon="3.18636">
        <ele>265.870968</ele>
        <time>2025-10-23T13:00:10Z</time>
      </trkpt>
      <trkpt lat="43.56199" lon="3.18631">
        <ele>266.00097</ele>
        <time>2025-10-23T13:00:11Z</time>
      </trkpt>
      <trkpt lat="43.56198" lon="3.18626">
        <ele>266.133273</ele>
        <time>2025-10-23T13:00:12Z</time>
      </trkpt>
      <trkpt lat="43.56196" lon="3.18621">
        <ele>266.174595</ele>
        <time>2025-10-23T13:00:13Z</time>
      </trkpt>
      <trkpt lat="43.56195" lon="3.18616">
        <ele>266.199923</ele>
        <time>2025-10-23T13:00:14Z</time>
      </trkpt>
      <trkpt lat="43.56194" lon="3.18611">
        <ele>266.224619</ele>
        <time>2025-10-23T13:00:15Z</time>
      </trkpt>
      <trkpt lat="43.56192" lon="3.18607">
        <ele>266.249337</ele>
        <time>2025-10-23T13:00:16Z</time>
      </trkpt>
      <trkpt lat="43.5619" lon="3.18602">
        <ele>266.272581</ele>
        <time>2025-10-23T13:00:17Z</time>
      </trkpt>
      <trkpt lat="43.56189" lon="3.18598">
        <ele>266.29569</ele>
        <time>2025-10-23T13:00:18Z</time>
      </trkpt>
      <trkpt lat="43.56187" lon="3.18594">
        <ele>266.318934</ele>
        <time>2025-10-23T13:00:19Z</time>
      </trkpt>
      <trkpt lat="43.56185" lon="3.18589">
        <ele>266.342912</ele>
        <time>2025-10-23T13:00:20Z</time>
      </trkpt>
      <trkpt lat="43.56184" lon="3.18585">
        <ele>266.365212</ele>
        <time>2025-10-23T13:00:21Z</time>
      </trkpt>
      <trkpt lat="43.56182" lon="3.18581">
        <ele>266.387098</ele>
        <time>2025-10-23T13:00:22Z</time>
      </trkpt>
      <trkpt lat="43.56181" lon="3.18577">
        <ele>266.409614</ele>
        <time>2025-10-23T13:00:23Z</time>
      </trkpt>
      <trkpt lat="43.56179" lon="3.18574">
        <ele>266.430644</ele>
        <time>2025-10-23T13:00:24Z</time>
      </trkpt>
      <trkpt lat="43.56177" lon="3.18571">
        <ele>266.449691</ele>
        <time>2025-10-23T13:00:25Z</time>
      </trkpt>
      <trkpt lat="43.56175" lon="3.18569">
        <ele>266.465027</ele>
        <time>2025-10-23T13:00:26Z</time>
      </trkpt>
      <trkpt lat="43.56173" lon="3.18568">
        <ele>266.47729</ele>
        <time>2025-10-23T13:00:27Z</time>
      </trkpt>
      <trkpt lat="43.56172" lon="3.18568">
        <ele>266.48334</ele>
        <time>2025-10-23T13:00:28Z</time>
      </trkpt>
      <trkpt lat="43.56172" lon="3.18568">
        <ele>266.484979</ele>
        <time>2025-10-23T13:00:29Z</time>
      </trkpt>
      <trkpt lat="43.56172" lon="3.18568">
        <ele>266.485642</ele>
        <time>2025-10-23T13:00:30Z</time>
      </trkpt>
      <trkpt lat="43.5617" lon="3.18565">
        <ele>266.507528</ele>
        <time>2025-10-23T13:01:16Z</time>
      </trkpt>
      <trkpt lat="43.56169" lon="3.18563">
        <ele>266.520365</ele>
        <time>2025-10-23T13:01:17Z</time>
      </trkpt>
      <trkpt lat="43.56167" lon="3.18562">
        <ele>266.53547</ele>
        <time>2025-10-23T13:01:18Z</time>
      </trkpt>
      <trkpt lat="43.56165" lon="3.1856">
        <ele>266.552403</ele>
        <time>2025-10-23T13:01:19Z</time>
      </trkpt>
      <trkpt lat="43.56163" lon="3.18557">
        <ele>266.569679</ele>
        <time>2025-10-23T13:01:20Z</time>
      </trkpt>
      <trkpt lat="43.56161" lon="3.18555">
        <ele>266.588402</ele>
        <time>2025-10-23T13:01:21Z</time>
      </trkpt>
      <trkpt lat="43.56158" lon="3.18553">
        <ele>266.608969</ele>
        <time>2025-10-23T13:01:22Z</time>
      </trkpt>
      <trkpt lat="43.56155" lon="3.1855">
        <ele>266.629999</ele>
        <time>2025-10-23T13:01:23Z</time>
      </trkpt>
      <trkpt lat="43.56152" lon="3.18547">
        <ele>266.652395</ele>
        <time>2025-10-23T13:01:24Z</time>
      </trkpt>
      <trkpt lat="43.5615" lon="3.18545">
        <ele>266.673543</ele>
        <time>2025-10-23T13:01:25Z</time>
      </trkpt>
      <trkpt lat="43.56148" lon="3.18543">
        <ele>266.690516</ele>
        <time>2025-10-23T13:01:26Z</time>
      </trkpt>
      <trkpt lat="43.56146" lon="3.1854">
        <ele>266.709563</ele>
        <time>2025-10-23T13:01:27Z</time>
      </trkpt>
      <trkpt lat="43.56143" lon="3.18538">
        <ele>266.7291</ele>
        <time>2025-10-23T13:01:28Z</time>
      </trkpt>
      <trkpt lat="43.56142" lon="3.18535">
        <ele>266.747038</ele>
        <time>2025-10-23T13:01:29Z</time>
      </trkpt>
      <trkpt lat="43.5614" lon="3.18532">
        <ele>266.763003</ele>
        <time>2025-10-23T13:01:30Z</time>
      </trkpt>
      <trkpt lat="43.56139" lon="3.18528">
        <ele>266.782496</ele>
        <time>2025-10-23T13:01:31Z</time>
      </trkpt>
      <trkpt lat="43.56138" lon="3.18524">
        <ele>266.80579</ele>
        <time>2025-10-23T13:01:32Z</time>
      </trkpt>
      <trkpt lat="43.56137" lon="3.18519">
        <ele>266.832492</ele>
        <time>2025-10-23T13:01:33Z</time>
      </trkpt>
      <trkpt lat="43.56136" lon="3.18513">
        <ele>266.858829</ele>
        <time>2025-10-23T13:01:34Z</time>
      </trkpt>
      <trkpt lat="43.56134" lon="3.18507">
        <ele>266.890257</ele>
        <time>2025-10-23T13:01:35Z</time>
      </trkpt>
      <trkpt lat="43.56132" lon="3.18501">
        <ele>266.92491</ele>
        <time>2025-10-23T13:01:36Z</time>
      </trkpt>
      <trkpt lat="43.56128" lon="3.18495">
        <ele>266.962432</ele>
        <time>2025-10-23T13:01:37Z</time>
      </trkpt>
      <trkpt lat="43.56123" lon="3.18489">
        <ele>267.005089</ele>
        <time>2025-10-23T13:01:38Z</time>
      </trkpt>
      <trkpt lat="43.56118" lon="3.18483">
        <ele>267.049977</ele>
        <time>2025-10-23T13:01:39Z</time>
      </trkpt>
      <trkpt lat="43.56112" lon="3.18477">
        <ele>267.095684</ele>
        <time>2025-10-23T13:01:40Z</time>
      </trkpt>
      <trkpt lat="43.56107" lon="3.18471">
        <ele>267.140615</ele>
        <time>2025-10-23T13:01:41Z</time>
      </trkpt>
      <trkpt lat="43.56103" lon="3.18464">
        <ele>267.185541</ele>
        <time>2025-10-23T13:01:42Z</time>
      </trkpt>
      <trkpt lat="43.56099" lon="3.18457">
        <ele>267.227211</ele>
        <time>2025-10-23T13:01:43Z</time>
      </trkpt>
      <trkpt lat="43.56096" lon="3.1845">
        <ele>267.265799</ele>
        <time>2025-10-23T13:01:44Z</time>
      </trkpt>
      <trkpt lat="43.56093" lon="3.18444">
        <ele>267.302098</ele>
        <time>2025-10-23T13:01:45Z</time>
      </trkpt>
      <trkpt lat="43.5609" lon="3.18437">
        <ele>267.339091</ele>
        <time>2025-10-23T13:01:46Z</time>
      </trkpt>
      <trkpt lat="43.56086" lon="3.18433">
        <ele>267.42512</ele>
        <time>2025-10-23T13:01:47Z</time>
      </trkpt>
      <trkpt lat="43.56081" lon="3.18429">
        <ele>267.541011</ele>
        <time>2025-10-23T13:01:48Z</time>
      </trkpt>
      <trkpt lat="43.56077" lon="3.18428">
        <ele>267.640402</ele>
        <time>2025-10-23T13:01:49Z</time>
      </trkpt>
      <trkpt lat="43.56072" lon="3.18428">
        <ele>267.731465</ele>
        <time>2025-10-23T13:01:50Z</time>
      </trkpt>
      <trkpt lat="43.56068" lon="3.18428">
        <ele>267.814163</ele>
        <time>2025-10-23T13:01:51Z</time>
      </trkpt>
      <trkpt lat="43.56065" lon="3.18428">
        <ele>267.888578</ele>
        <time>2025-10-23T13:01:52Z</time>
      </trkpt>
      <trkpt lat="43.56061" lon="3.18428">
        <ele>267.967142</ele>
        <time>2025-10-23T13:01:53Z</time>
      </trkpt>
      <trkpt lat="43.56057" lon="3.18428">
        <ele>268.043683</ele>
        <time>2025-10-23T13:01:54Z</time>
      </trkpt>
      <trkpt lat="43.56053" lon="3.18428">
        <ele>268.130501</ele>
        <time>2025-10-23T13:01:55Z</time>
      </trkpt>
      <trkpt lat="43.56049" lon="3.18428">
        <ele>268.213239</ele>
        <time>2025-10-23T13:01:56Z</time>
      </trkpt>
      <trkpt lat="43.56045" lon="3.18429">
        <ele>268.294535</ele>
        <time>2025-10-23T13:01:57Z</time>
      </trkpt>
      <trkpt lat="43.56041" lon="3.18429">
        <ele>268.375207</ele>
        <time>2025-10-23T13:01:58Z</time>
      </trkpt>
      <trkpt lat="43.56038" lon="3.1843">
        <ele>268.447803</ele>
        <time>2025-10-23T13:01:59Z</time>
      </trkpt>
      <trkpt lat="43.56034" lon="3.1843">
        <ele>268.518657</ele>
        <time>2025-10-23T13:02:00Z</time>
      </trkpt>
      <trkpt lat="43.56031" lon="3.1843">
        <ele>268.580742</ele>
        <time>2025-10-23T13:02:01Z</time>
      </trkpt>
      <trkpt lat="43.56028" lon="3.18431">
        <ele>268.643403</ele>
        <time>2025-10-23T13:02:02Z</time>
      </trkpt>
      <trkpt lat="43.56025" lon="3.18431">
        <ele>268.701591</ele>
        <time>2025-10-23T13:02:03Z</time>
      </trkpt>
      <trkpt lat="43.56022" lon="3.18432">
        <ele>268.770215</ele>
        <time>2025-10-23T13:02:04Z</time>
      </trkpt>
      <trkpt lat="43.56019" lon="3.18432">
        <ele>268.834365</ele>
        <time>2025-10-23T13:02:05Z</time>
      </trkpt>
      <trkpt lat="43.56016" lon="3.18431">
        <ele>268.895221</ele>
        <time>2025-10-23T13:02:06Z</time>
      </trkpt>
      <trkpt lat="43.56014" lon="3.1843">
        <ele>268.9441</ele>
        <time>2025-10-23T13:02:07Z</time>
      </trkpt>
      <trkpt lat="43.56012" lon="3.18428">
        <ele>268.991858</ele>
        <time>2025-10-23T13:02:08Z</time>
      </trkpt>
      <trkpt lat="43.5601" lon="3.18425">
        <ele>269.049188</ele>
        <time>2025-10-23T13:02:09Z</time>
      </trkpt>
      <trkpt lat="43.56009" lon="3.18423">
        <ele>269.096032</ele>
        <time>2025-10-23T13:02:10Z</time>
      </trkpt>
      <trkpt lat="43.56007" lon="3.18421">
        <ele>269.14777</ele>
        <time>2025-10-23T13:02:11Z</time>
      </trkpt>
      <trkpt lat="43.56005" lon="3.18419">
        <ele>269.193414</ele>
        <time>2025-10-23T13:02:12Z</time>
      </trkpt>
      <trkpt lat="43.56003" lon="3.18417">
        <ele>269.236812</ele>
        <time>2025-10-23T13:02:13Z</time>
      </trkpt>
      <trkpt lat="43.56002" lon="3.18415">
        <ele>269.273449</ele>
        <time>2025-10-23T13:02:14Z</time>
      </trkpt>
      <trkpt lat="43.56001" lon="3.18413">
        <ele>269.317741</ele>
        <time>2025-10-23T13:02:15Z</time>
      </trkpt>
      <trkpt lat="43.55999" lon="3.18412">
        <ele>269.352234</ele>
        <time>2025-10-23T13:02:16Z</time>
      </trkpt>
      <trkpt lat="43.55998" lon="3.18411">
        <ele>269.38217</ele>
        <time>2025-10-23T13:02:17Z</time>
      </trkpt>
      <trkpt lat="43.55997" lon="3.1841">
        <ele>269.408605</ele>
        <time>2025-10-23T13:02:18Z</time>
      </trkpt>
      <trkpt lat="43.55996" lon="3.18409">
        <ele>269.441191</ele>
        <time>2025-10-23T13:02:19Z</time>
      </trkpt>
      <trkpt lat="43.55994" lon="3.18408">
        <ele>269.481884</ele>
        <time>2025-10-23T13:02:20Z</time>
      </trkpt>
      <trkpt lat="43.55992" lon="3.18407">
        <ele>269.523899</ele>
        <time>2025-10-23T13:02:21Z</time>
      </trkpt>
      <trkpt lat="43.5599" lon="3.18407">
        <ele>269.573599</ele>
        <time>2025-10-23T13:02:22Z</time>
      </trkpt>
      <trkpt lat="43.55987" lon="3.18407">
        <ele>269.621729</ele>
        <time>2025-10-23T13:02:23Z</time>
      </trkpt>
      <trkpt lat="43.55985" lon="3.18408">
        <ele>269.6717</ele>
        <time>2025-10-23T13:02:24Z</time>
      </trkpt>
      <trkpt lat="43.55983" lon="3.18408">
        <ele>269.71552</ele>
        <time>2025-10-23T13:02:25Z</time>
      </trkpt>
      <trkpt lat="43.55981" lon="3.18409">
        <ele>269.758564</ele>
        <time>2025-10-23T13:02:26Z</time>
      </trkpt>
      <trkpt lat="43.55979" lon="3.1841">
        <ele>269.800088</ele>
        <time>2025-10-23T13:02:27Z</time>
      </trkpt>
      <trkpt lat="43.55977" lon="3.1841">
        <ele>269.844138</ele>
        <time>2025-10-23T13:02:28Z</time>
      </trkpt>
      <trkpt lat="43.55975" lon="3.18411">
        <ele>269.888189</ele>
        <time>2025-10-23T13:02:29Z</time>
      </trkpt>
      <trkpt lat="43.55972" lon="3.18411">
        <ele>269.934058</ele>
        <time>2025-10-23T13:02:30Z</time>
      </trkpt>
      <trkpt lat="43.5597" lon="3.18411">
        <ele>269.981625</ele>
        <time>2025-10-23T13:02:31Z</time>
      </trkpt>
      <trkpt lat="43.55968" lon="3.1841">
        <ele>270.024276</ele>
        <time>2025-10-23T13:02:32Z</time>
      </trkpt>
      <trkpt lat="43.55967" lon="3.18409">
        <ele>270.054807</ele>
        <time>2025-10-23T13:02:33Z</time>
      </trkpt>
      <trkpt lat="43.55966" lon="3.18407">
        <ele>270.087723</ele>
        <time>2025-10-23T13:02:34Z</time>
      </trkpt>
      <trkpt lat="43.55965" lon="3.18407">
        <ele>270.121634</ele>
        <time>2025-10-23T13:02:35Z</time>
      </trkpt>
      <trkpt lat="43.55962" lon="3.18406">
        <ele>270.169271</ele>
        <time>2025-10-23T13:02:36Z</time>
      </trkpt>
      <trkpt lat="43.5596" lon="3.18405">
        <ele>270.21497</ele>
        <time>2025-10-23T13:02:37Z</time>
      </trkpt>
      <trkpt lat="43.55959" lon="3.18404">
        <ele>270.256965</ele>
        <time>2025-10-23T13:02:38Z</time>
      </trkpt>
      <trkpt lat="43.55957" lon="3.18403">
        <ele>270.284514</ele>
        <time>2025-10-23T13:02:39Z</time>
      </trkpt>
      <trkpt lat="43.55957" lon="3.18403">
        <ele>270.297006</ele>
        <time>2025-10-23T13:02:40Z</time>
      </trkpt>
      <trkpt lat="43.55957" lon="3.18403">
        <ele>270.302112</ele>
        <time>2025-10-23T13:02:41Z</time>
      </trkpt>
      <trkpt lat="43.55957" lon="3.18403">
        <ele>270.308218</ele>
        <time>2025-10-23T13:02:42Z</time>
      </trkpt>
      <trkpt lat="43.55957" lon="3.18403">
        <ele>270.311858</ele>
        <time>2025-10-23T13:02:43Z</time>
      </trkpt>
      <trkpt lat="43.55957" lon="3.18403">
        <ele>270.313925</ele>
        <time>2025-10-23T13:02:44Z</time>
      </trkpt>
      <trkpt lat="43.55957" lon="3.18404">
        <ele>270.31903</ele>
        <time>2025-10-23T13:02:45Z</time>
      </trkpt>
      <trkpt lat="43.55957" lon="3.18404">
        <ele>270.324136</ele>
        <time>2025-10-23T13:02:46Z</time>
      </trkpt>
      <trkpt lat="43.55957" lon="3.18404">
        <ele>270.324136</ele>
        <time>2025-10-23T13:02:47Z</time>
      </trkpt>
      <trkpt lat="43.55957" lon="3.18404">
        <ele>270.324136</ele>
        <time>2025-10-23T13:02:48Z</time>
      </trkpt>
      <trkpt lat="43.55957" lon="3.18404">
        <ele>270.324136</ele>
        <time>2025-10-23T13:02:49Z</time>
      </trkpt>
      <trkpt lat="43.55957" lon="3.18404">
        <ele>270.324136</ele>
        <time>2025-10-23T13:02:50Z</time>
      </trkpt>
      <trkpt lat="43.55957" lon="3.18404">
        <ele>270.325634</ele>
        <time>2025-10-23T13:02:51Z</time>
      </trkpt>
      <trkpt lat="43.55957" lon="3.18404">
        <ele>270.325634</ele>
        <time>2025-10-23T13:02:52Z</time>
      </trkpt>
      <trkpt lat="43.55957" lon="3.18404">
        <ele>270.327701</ele>
        <time>2025-10-23T13:02:53Z</time>
      </trkpt>
      <trkpt lat="43.55957" lon="3.18404">
        <ele>270.329199</ele>
        <time>2025-10-23T13:02:54Z</time>
      </trkpt>
      <trkpt lat="43.55957" lon="3.18404">
        <ele>270.330697</ele>
        <time>2025-10-23T13:02:55Z</time>
      </trkpt>
      <trkpt lat="43.55957" lon="3.18404">
        <ele>270.332195</ele>
        <time>2025-10-23T13:02:56Z</time>
      </trkpt>
      <trkpt lat="43.55957" lon="3.18404">
        <ele>270.333693</ele>
        <time>2025-10-23T13:02:57Z</time>
      </trkpt>
      <trkpt lat="43.55957" lon="3.18404">
        <ele>270.333693</ele>
        <time>2025-10-23T13:02:58Z</time>
      </trkpt>
      <trkpt lat="43.55957" lon="3.18404">
        <ele>270.342316</ele>
        <time>2025-10-23T13:02:59Z</time>
      </trkpt>
      <trkpt lat="43.55955" lon="3.18403">
        <ele>270.378246</ele>
        <time>2025-10-23T13:03:00Z</time>
      </trkpt>
      <trkpt lat="43.55954" lon="3.18402">
        <ele>270.417821</ele>
        <time>2025-10-23T13:03:01Z</time>
      </trkpt>
      <trkpt lat="43.55951" lon="3.18401">
        <ele>270.468138</ele>
        <time>2025-10-23T13:03:02Z</time>
      </trkpt>
      <trkpt lat="43.55948" lon="3.184">
        <ele>270.532157</ele>
        <time>2025-10-23T13:03:03Z</time>
      </trkpt>
      <trkpt lat="43.55945" lon="3.18398">
        <ele>270.607274</ele>
        <time>2025-10-23T13:03:04Z</time>
      </trkpt>
      <trkpt lat="43.55942" lon="3.18395">
        <ele>270.684274</ele>
        <time>2025-10-23T13:03:05Z</time>
      </trkpt>
      <trkpt lat="43.55938" lon="3.18393">
        <ele>270.76391</ele>
        <time>2025-10-23T13:03:06Z</time>
      </trkpt>
      <trkpt lat="43.55935" lon="3.1839">
        <ele>270.845755</ele>
        <time>2025-10-23T13:03:07Z</time>
      </trkpt>
      <trkpt lat="43.55931" lon="3.18388">
        <ele>270.924697</ele>
        <time>2025-10-23T13:03:08Z</time>
      </trkpt>
      <trkpt lat="43.55928" lon="3.18387">
        <ele>271.0062</ele>
        <time>2025-10-23T13:03:09Z</time>
      </trkpt>
      <trkpt lat="43.55924" lon="3.18386">
        <ele>271.064605</ele>
        <time>2025-10-23T13:03:10Z</time>
      </trkpt>
      <trkpt lat="43.55921" lon="3.18386">
        <ele>271.058867</ele>
        <time>2025-10-23T13:03:11Z</time>
      </trkpt>
      <trkpt lat="43.55919" lon="3.18384">
        <ele>271.053265</ele>
        <time>2025-10-23T13:03:12Z</time>
      </trkpt>
      <trkpt lat="43.55917" lon="3.18381">
        <ele>271.046927</ele>
        <time>2025-10-23T13:03:13Z</time>
      </trkpt>
      <trkpt lat="43.55914" lon="3.18378">
        <ele>271.039923</ele>
        <time>2025-10-23T13:03:14Z</time>
      </trkpt>
      <trkpt lat="43.55911" lon="3.18375">
        <ele>271.033084</ele>
        <time>2025-10-23T13:03:15Z</time>
      </trkpt>
      <trkpt lat="43.55909" lon="3.18372">
        <ele>271.026565</ele>
        <time>2025-10-23T13:03:16Z</time>
      </trkpt>
      <trkpt lat="43.55907" lon="3.1837">
        <ele>271.020356</ele>
        <time>2025-10-23T13:03:17Z</time>
      </trkpt>
      <trkpt lat="43.55904" lon="3.18367">
        <ele>271.014544</ele>
        <time>2025-10-23T13:03:18Z</time>
      </trkpt>
      <trkpt lat="43.55902" lon="3.18364">
        <ele>271.008524</ele>
        <time>2025-10-23T13:03:19Z</time>
      </trkpt>
      <trkpt lat="43.559" lon="3.18362">
        <ele>271.002754</ele>
        <time>2025-10-23T13:03:20Z</time>
      </trkpt>
      <trkpt lat="43.55898" lon="3.18359">
        <ele>270.996916</ele>
        <time>2025-10-23T13:03:21Z</time>
      </trkpt>
      <trkpt lat="43.55896" lon="3.18357">
        <ele>270.991488</ele>
        <time>2025-10-23T13:03:22Z</time>
      </trkpt>
      <trkpt lat="43.55894" lon="3.18355">
        <ele>270.987072</ele>
        <time>2025-10-23T13:03:23Z</time>
      </trkpt>
      <trkpt lat="43.55893" lon="3.18355">
        <ele>270.985226</ele>
        <time>2025-10-23T13:03:24Z</time>
      </trkpt>
      <trkpt lat="43.55893" lon="3.18355">
        <ele>270.985226</ele>
        <time>2025-10-23T13:03:25Z</time>
      </trkpt>
      <trkpt lat="43.55893" lon="3.18355">
        <ele>270.985226</ele>
        <time>2025-10-23T13:03:26Z</time>
      </trkpt>
      <trkpt lat="43.55893" lon="3.18355">
        <ele>270.985079</ele>
        <time>2025-10-23T13:03:27Z</time>
      </trkpt>
      <trkpt lat="43.55893" lon="3.18355">
        <ele>270.984932</ele>
        <time>2025-10-23T13:03:28Z</time>
      </trkpt>
      <trkpt lat="43.55893" lon="3.18355">
        <ele>270.984932</ele>
        <time>2025-10-23T13:03:29Z</time>
      </trkpt>
      <trkpt lat="43.55893" lon="3.18355">
        <ele>270.984932</ele>
        <time>2025-10-23T13:03:30Z</time>
      </trkpt>
      <trkpt lat="43.55893" lon="3.18355">
        <ele>270.984932</ele>
        <time>2025-10-23T13:03:31Z</time>
      </trkpt>
      <trkpt lat="43.55893" lon="3.18355">
        <ele>270.984932</ele>
        <time>2025-10-23T13:03:32Z</time>
      </trkpt>
      <trkpt lat="43.55893" lon="3.18355">
        <ele>270.984932</ele>
        <time>2025-10-23T13:03:34Z</time>
      </trkpt>
      <trkpt lat="43.55893" lon="3.18355">
        <ele>270.984932</ele>
        <time>2025-10-23T13:03:36Z</time>
      </trkpt>
      <trkpt lat="43.55893" lon="3.18355">
        <ele>270.984932</ele>
        <time>2025-10-23T13:03:37Z</time>
      </trkpt>
      <trkpt lat="43.55893" lon="3.18355">
        <ele>270.984932</ele>
        <time>2025-10-23T13:03:38Z</time>
      </trkpt>
      <trkpt lat="43.55893" lon="3.18355">
        <ele>270.984932</ele>
        <time>2025-10-23T13:03:39Z</time>
      </trkpt>
      <trkpt lat="43.55893" lon="3.18355">
        <ele>270.984932</ele>
        <time>2025-10-23T13:03:40Z</time>
      </trkpt>
      <trkpt lat="43.55893" lon="3.18355">
        <ele>270.984932</ele>
        <time>2025-10-23T13:03:41Z</time>
      </trkpt>
      <trkpt lat="43.55893" lon="3.18355">
        <ele>270.984932</ele>
        <time>2025-10-23T13:03:43Z</time>
      </trkpt>
      <trkpt lat="43.55893" lon="3.18355">
        <ele>270.984932</ele>
        <time>2025-10-23T13:03:44Z</time>
      </trkpt>
      <trkpt lat="43.55893" lon="3.18355">
        <ele>270.984932</ele>
        <time>2025-10-23T13:03:45Z</time>
      </trkpt>
      <trkpt lat="43.55893" lon="3.18355">
        <ele>270.984932</ele>
        <time>2025-10-23T13:03:46Z</time>
      </trkpt>
      <trkpt lat="43.55893" lon="3.18355">
        <ele>270.984932</ele>
        <time>2025-10-23T13:03:47Z</time>
      </trkpt>
      <trkpt lat="43.55893" lon="3.18355">
        <ele>270.984932</ele>
        <time>2025-10-23T13:03:48Z</time>
      </trkpt>
      <trkpt lat="43.55893" lon="3.18355">
        <ele>270.984932</ele>
        <time>2025-10-23T13:03:49Z</time>
      </trkpt>
      <trkpt lat="43.55893" lon="3.18355">
        <ele>270.984932</ele>
        <time>2025-10-23T13:03:51Z</time>
      </trkpt>
      <trkpt lat="43.55893" lon="3.18355">
        <ele>270.984932</ele>
        <time>2025-10-23T13:03:52Z</time>
      </trkpt>
      <trkpt lat="43.55893" lon="3.18355">
        <ele>270.984932</ele>
        <time>2025-10-23T13:03:53Z</time>
      </trkpt>
      <trkpt lat="43.55893" lon="3.18355">
        <ele>270.984932</ele>
        <time>2025-10-23T13:03:54Z</time>
      </trkpt>
      <trkpt lat="43.55893" lon="3.18355">
        <ele>270.984932</ele>
        <time>2025-10-23T13:03:55Z</time>
      </trkpt>
      <trkpt lat="43.55893" lon="3.18355">
        <ele>270.984932</ele>
        <time>2025-10-23T13:03:56Z</time>
      </trkpt>
      <trkpt lat="43.55893" lon="3.18355">
        <ele>270.984932</ele>
        <time>2025-10-23T13:03:58Z</time>
      </trkpt>
      <trkpt lat="43.55893" lon="3.18355">
        <ele>270.984932</ele>
        <time>2025-10-23T13:03:59Z</time>
      </trkpt>
      <trkpt lat="43.55893" lon="3.18355">
        <ele>270.984932</ele>
        <time>2025-10-23T13:04:00Z</time>
      </trkpt>
      <trkpt lat="43.55893" lon="3.18355">
        <ele>270.984932</ele>
        <time>2025-10-23T13:04:01Z</time>
      </trkpt>
      <trkpt lat="43.55893" lon="3.18355">
        <ele>270.984932</ele>
        <time>2025-10-23T13:04:02Z</time>
      </trkpt>
      <trkpt lat="43.55893" lon="3.18355">
        <ele>270.984932</ele>
        <time>2025-10-23T13:04:03Z</time>
      </trkpt>
      <trkpt lat="43.55893" lon="3.18355">
        <ele>270.984932</ele>
        <time>2025-10-23T13:04:04Z</time>
      </trkpt>
      <trkpt lat="43.55893" lon="3.18355">
        <ele>270.984932</ele>
        <time>2025-10-23T13:04:05Z</time>
      </trkpt>
      <trkpt lat="43.55893" lon="3.18355">
        <ele>270.984932</ele>
        <time>2025-10-23T13:04:08Z</time>
      </trkpt>
      <trkpt lat="43.55893" lon="3.18355">
        <ele>270.984932</ele>
        <time>2025-10-23T13:04:09Z</time>
      </trkpt>
      <trkpt lat="43.55893" lon="3.18355">
        <ele>270.984932</ele>
        <time>2025-10-23T13:04:10Z</time>
      </trkpt>
      <trkpt lat="43.55893" lon="3.18355">
        <ele>270.984932</ele>
        <time>2025-10-23T13:04:11Z</time>
      </trkpt>
      <trkpt lat="43.55893" lon="3.18355">
        <ele>270.984932</ele>
        <time>2025-10-23T13:04:12Z</time>
      </trkpt>
      <trkpt lat="43.55893" lon="3.18355">
        <ele>270.984932</ele>
        <time>2025-10-23T13:04:13Z</time>
      </trkpt>
      <trkpt lat="43.55893" lon="3.18355">
        <ele>270.984786</ele>
        <time>2025-10-23T13:04:14Z</time>
      </trkpt>
      <trkpt lat="43.55893" lon="3.18355">
        <ele>270.984639</ele>
        <time>2025-10-23T13:04:15Z</time>
      </trkpt>
      <trkpt lat="43.55893" lon="3.18355">
        <ele>270.984639</ele>
        <time>2025-10-23T13:04:17Z</time>
      </trkpt>
      <trkpt lat="43.55893" lon="3.18355">
        <ele>270.984639</ele>
        <time>2025-10-23T13:04:18Z</time>
      </trkpt>
      <trkpt lat="43.55893" lon="3.18355">
        <ele>270.984639</ele>
        <time>2025-10-23T13:04:19Z</time>
      </trkpt>
      <trkpt lat="43.55893" lon="3.18355">
        <ele>270.984492</ele>
        <time>2025-10-23T13:04:20Z</time>
      </trkpt>
      <trkpt lat="43.55893" lon="3.18355">
        <ele>270.984242</ele>
        <time>2025-10-23T13:04:21Z</time>
      </trkpt>
      <trkpt lat="43.55893" lon="3.18355">
        <ele>270.984242</ele>
        <time>2025-10-23T13:04:22Z</time>
      </trkpt>
      <trkpt lat="43.55893" lon="3.18355">
        <ele>270.984242</ele>
        <time>2025-10-23T13:04:23Z</time>
      </trkpt>
      <trkpt lat="43.55893" lon="3.18355">
        <ele>270.98404</ele>
        <time>2025-10-23T13:04:24Z</time>
      </trkpt>
      <trkpt lat="43.55893" lon="3.18355">
        <ele>270.98404</ele>
        <time>2025-10-23T13:04:25Z</time>
      </trkpt>
      <trkpt lat="43.55893" lon="3.18355">
        <ele>270.98404</ele>
        <time>2025-10-23T13:04:26Z</time>
      </trkpt>
      <trkpt lat="43.55893" lon="3.18355">
        <ele>270.98404</ele>
        <time>2025-10-23T13:04:27Z</time>
      </trkpt>
      <trkpt lat="43.55893" lon="3.18355">
        <ele>270.98404</ele>
        <time>2025-10-23T13:04:28Z</time>
      </trkpt>
      <trkpt lat="43.55893" lon="3.18355">
        <ele>270.98404</ele>
        <time>2025-10-23T13:04:29Z</time>
      </trkpt>
      <trkpt lat="43.55893" lon="3.18355">
        <ele>270.983893</ele>
        <time>2025-10-23T13:04:30Z</time>
      </trkpt>
      <trkpt lat="43.55893" lon="3.18355">
        <ele>270.983893</ele>
        <time>2025-10-23T13:04:31Z</time>
      </trkpt>
      <trkpt lat="43.55893" lon="3.18355">
        <ele>270.983893</ele>
        <time>2025-10-23T13:04:32Z</time>
      </trkpt>
      <trkpt lat="43.55893" lon="3.18355">
        <ele>270.983746</ele>
        <time>2025-10-23T13:04:33Z</time>
      </trkpt>
      <trkpt lat="43.55893" lon="3.18355">
        <ele>270.98339</ele>
        <time>2025-10-23T13:04:34Z</time>
      </trkpt>
      <trkpt lat="43.55893" lon="3.18356">
        <ele>270.982486</ele>
        <time>2025-10-23T13:04:35Z</time>
      </trkpt>
      <trkpt lat="43.55893" lon="3.18357">
        <ele>270.981151</ele>
        <time>2025-10-23T13:04:36Z</time>
      </trkpt>
      <trkpt lat="43.55894" lon="3.18358">
        <ele>270.979059</ele>
        <time>2025-10-23T13:04:37Z</time>
      </trkpt>
      <trkpt lat="43.55894" lon="3.18358">
        <ele>270.978309</ele>
        <time>2025-10-23T13:04:38Z</time>
      </trkpt>
      <trkpt lat="43.55895" lon="3.18358">
        <ele>270.976394</ele>
        <time>2025-10-23T13:04:39Z</time>
      </trkpt>
      <trkpt lat="43.55896" lon="3.18359">
        <ele>270.974054</ele>
        <time>2025-10-23T13:04:40Z</time>
      </trkpt>
      <trkpt lat="43.55897" lon="3.1836">
        <ele>270.971304</ele>
        <time>2025-10-23T13:04:41Z</time>
      </trkpt>
      <trkpt lat="43.55899" lon="3.18361">
        <ele>270.96701</ele>
        <time>2025-10-23T13:04:42Z</time>
      </trkpt>
      <trkpt lat="43.55901" lon="3.18363">
        <ele>270.962164</ele>
        <time>2025-10-23T13:04:43Z</time>
      </trkpt>
      <trkpt lat="43.55904" lon="3.18365">
        <ele>270.956811</ele>
        <time>2025-10-23T13:04:44Z</time>
      </trkpt>
      <trkpt lat="43.55906" lon="3.18367">
        <ele>270.951223</ele>
        <time>2025-10-23T13:04:45Z</time>
      </trkpt>
      <trkpt lat="43.55908" lon="3.18369">
        <ele>270.945607</ele>
        <time>2025-10-23T13:04:46Z</time>
      </trkpt>
      <trkpt lat="43.5591" lon="3.18372">
        <ele>270.939942</ele>
        <time>2025-10-23T13:04:47Z</time>
      </trkpt>
      <trkpt lat="43.55912" lon="3.18374">
        <ele>270.934354</ele>
        <time>2025-10-23T13:04:48Z</time>
      </trkpt>
      <trkpt lat="43.55914" lon="3.18377">
        <ele>270.928442</ele>
        <time>2025-10-23T13:04:49Z</time>
      </trkpt>
      <trkpt lat="43.55916" lon="3.1838">
        <ele>270.922427</ele>
        <time>2025-10-23T13:04:50Z</time>
      </trkpt>
      <trkpt lat="43.55918" lon="3.18383">
        <ele>270.916367</ele>
        <time>2025-10-23T13:04:51Z</time>
      </trkpt>
      <trkpt lat="43.55921" lon="3.18385">
        <ele>270.910689</ele>
        <time>2025-10-23T13:04:52Z</time>
      </trkpt>
      <trkpt lat="43.55923" lon="3.18387">
        <ele>270.905262</ele>
        <time>2025-10-23T13:04:53Z</time>
      </trkpt>
      <trkpt lat="43.55925" lon="3.18388">
        <ele>270.900714</ele>
        <time>2025-10-23T13:04:54Z</time>
      </trkpt>
      <trkpt lat="43.55927" lon="3.18388">
        <ele>270.895852</ele>
        <time>2025-10-23T13:04:55Z</time>
      </trkpt>
      <trkpt lat="43.55929" lon="3.18387">
        <ele>270.891268</ele>
        <time>2025-10-23T13:04:56Z</time>
      </trkpt>
      <trkpt lat="43.55931" lon="3.18384">
        <ele>270.886745</ele>
        <time>2025-10-23T13:04:57Z</time>
      </trkpt>
      <trkpt lat="43.5593" lon="3.18381">
        <ele>270.881559</ele>
        <time>2025-10-23T13:04:58Z</time>
      </trkpt>
      <trkpt lat="43.55928" lon="3.18377">
        <ele>270.874946</ele>
        <time>2025-10-23T13:04:59Z</time>
      </trkpt>
      <trkpt lat="43.55925" lon="3.18374">
        <ele>270.867989</ele>
        <time>2025-10-23T13:05:00Z</time>
      </trkpt>
      <trkpt lat="43.55922" lon="3.18371">
        <ele>270.860151</ele>
        <time>2025-10-23T13:05:01Z</time>
      </trkpt>
      <trkpt lat="43.55918" lon="3.18368">
        <ele>270.851401</ele>
        <time>2025-10-23T13:05:02Z</time>
      </trkpt>
      <trkpt lat="43.55915" lon="3.18364">
        <ele>270.841793</ele>
        <time>2025-10-23T13:05:03Z</time>
      </trkpt>
      <trkpt lat="43.55911" lon="3.18359">
        <ele>270.83175</ele>
        <time>2025-10-23T13:05:04Z</time>
      </trkpt>
      <trkpt lat="43.55907" lon="3.18355">
        <ele>270.821764</ele>
        <time>2025-10-23T13:05:05Z</time>
      </trkpt>
      <trkpt lat="43.55903" lon="3.1835">
        <ele>270.811248</ele>
        <time>2025-10-23T13:05:06Z</time>
      </trkpt>
      <trkpt lat="43.55899" lon="3.18346">
        <ele>270.800822</ele>
        <time>2025-10-23T13:05:07Z</time>
      </trkpt>
      <trkpt lat="43.55895" lon="3.18342">
        <ele>270.790233</ele>
        <time>2025-10-23T13:05:08Z</time>
      </trkpt>
      <trkpt lat="43.55891" lon="3.18338">
        <ele>270.780217</ele>
        <time>2025-10-23T13:05:09Z</time>
      </trkpt>
      <trkpt lat="43.55887" lon="3.18333">
        <ele>270.770017</ele>
        <time>2025-10-23T13:05:10Z</time>
      </trkpt>
      <trkpt lat="43.55883" lon="3.18329">
        <ele>270.759091</ele>
        <time>2025-10-23T13:05:11Z</time>
      </trkpt>
      <trkpt lat="43.55878" lon="3.18324">
        <ele>270.748164</ele>
        <time>2025-10-23T13:05:12Z</time>
      </trkpt>
      <trkpt lat="43.55874" lon="3.18319">
        <ele>270.736684</ele>
        <time>2025-10-23T13:05:13Z</time>
      </trkpt>
      <trkpt lat="43.5587" lon="3.18314">
        <ele>270.724664</ele>
        <time>2025-10-23T13:05:14Z</time>
      </trkpt>
      <trkpt lat="43.55865" lon="3.18308">
        <ele>270.712387</ele>
        <time>2025-10-23T13:05:15Z</time>
      </trkpt>
      <trkpt lat="43.55861" lon="3.18302">
        <ele>270.669846</ele>
        <time>2025-10-23T13:05:16Z</time>
      </trkpt>
      <trkpt lat="43.55857" lon="3.18295">
        <ele>270.362913</ele>
        <time>2025-10-23T13:05:17Z</time>
      </trkpt>
      <trkpt lat="43.55854" lon="3.18287">
        <ele>270.04794</ele>
        <time>2025-10-23T13:05:18Z</time>
      </trkpt>
      <trkpt lat="43.55852" lon="3.18278">
        <ele>269.716173</ele>
        <time>2025-10-23T13:05:19Z</time>
      </trkpt>
      <trkpt lat="43.55851" lon="3.18269">
        <ele>269.366269</ele>
        <time>2025-10-23T13:05:20Z</time>
      </trkpt>
      <trkpt lat="43.5585" lon="3.1826">
        <ele>269.042036</ele>
        <time>2025-10-23T13:05:21Z</time>
      </trkpt>
      <trkpt lat="43.55849" lon="3.18251">
        <ele>268.729966</ele>
        <time>2025-10-23T13:05:22Z</time>
      </trkpt>
      <trkpt lat="43.55849" lon="3.18243">
        <ele>268.438817</ele>
        <time>2025-10-23T13:05:23Z</time>
      </trkpt>
      <trkpt lat="43.55848" lon="3.18235">
        <ele>268.160666</ele>
        <time>2025-10-23T13:05:24Z</time>
      </trkpt>
      <trkpt lat="43.55847" lon="3.18228">
        <ele>267.88798</ele>
        <time>2025-10-23T13:05:25Z</time>
      </trkpt>
      <trkpt lat="43.55846" lon="3.1822">
        <ele>267.610853</ele>
        <time>2025-10-23T13:05:26Z</time>
      </trkpt>
      <trkpt lat="43.55844" lon="3.18212">
        <ele>267.326753</ele>
        <time>2025-10-23T13:05:27Z</time>
      </trkpt>
      <trkpt lat="43.55842" lon="3.18205">
        <ele>267.045756</ele>
        <time>2025-10-23T13:05:28Z</time>
      </trkpt>
      <trkpt lat="43.5584" lon="3.18197">
        <ele>266.753116</ele>
        <time>2025-10-23T13:05:29Z</time>
      </trkpt>
      <trkpt lat="43.55838" lon="3.18189">
        <ele>266.430151</ele>
        <time>2025-10-23T13:05:30Z</time>
      </trkpt>
      <trkpt lat="43.55836" lon="3.1818">
        <ele>266.113496</ele>
        <time>2025-10-23T13:05:31Z</time>
      </trkpt>
      <trkpt lat="43.55834" lon="3.18172">
        <ele>265.792375</ele>
        <time>2025-10-23T13:05:32Z</time>
      </trkpt>
      <trkpt lat="43.55832" lon="3.18163">
        <ele>265.454283</ele>
        <time>2025-10-23T13:05:33Z</time>
      </trkpt>
      <trkpt lat="43.5583" lon="3.18154">
        <ele>265.119623</ele>
        <time>2025-10-23T13:05:34Z</time>
      </trkpt>
      <trkpt lat="43.55827" lon="3.18145">
        <ele>264.763184</ele>
        <time>2025-10-23T13:05:35Z</time>
      </trkpt>
      <trkpt lat="43.55824" lon="3.18135">
        <ele>264.397141</ele>
        <time>2025-10-23T13:05:36Z</time>
      </trkpt>
      <trkpt lat="43.55821" lon="3.18126">
        <ele>264.033727</ele>
        <time>2025-10-23T13:05:37Z</time>
      </trkpt>
      <trkpt lat="43.55818" lon="3.18117">
        <ele>263.688719</ele>
        <time>2025-10-23T13:05:38Z</time>
      </trkpt>
      <trkpt lat="43.55816" lon="3.18108">
        <ele>263.338493</ele>
        <time>2025-10-23T13:05:39Z</time>
      </trkpt>
      <trkpt lat="43.55813" lon="3.18099">
        <ele>262.983565</ele>
        <time>2025-10-23T13:05:40Z</time>
      </trkpt>
      <trkpt lat="43.5581" lon="3.1809">
        <ele>262.612198</ele>
        <time>2025-10-23T13:05:41Z</time>
      </trkpt>
      <trkpt lat="43.55806" lon="3.1808">
        <ele>262.24147</ele>
        <time>2025-10-23T13:05:42Z</time>
      </trkpt>
      <trkpt lat="43.55802" lon="3.18072">
        <ele>261.875664</ele>
        <time>2025-10-23T13:05:43Z</time>
      </trkpt>
      <trkpt lat="43.55799" lon="3.18063">
        <ele>261.681111</ele>
        <time>2025-10-23T13:05:44Z</time>
      </trkpt>
      <trkpt lat="43.55795" lon="3.18054">
        <ele>261.515048</ele>
        <time>2025-10-23T13:05:45Z</time>
      </trkpt>
      <trkpt lat="43.55792" lon="3.18045">
        <ele>261.352745</ele>
        <time>2025-10-23T13:05:46Z</time>
      </trkpt>
      <trkpt lat="43.5579" lon="3.18035">
        <ele>261.183586</ele>
        <time>2025-10-23T13:05:47Z</time>
      </trkpt>
      <trkpt lat="43.55787" lon="3.18026">
        <ele>261.012844</ele>
        <time>2025-10-23T13:05:48Z</time>
      </trkpt>
      <trkpt lat="43.55785" lon="3.18016">
        <ele>260.842581</ele>
        <time>2025-10-23T13:05:49Z</time>
      </trkpt>
      <trkpt lat="43.55784" lon="3.18006">
        <ele>260.680506</ele>
        <time>2025-10-23T13:05:50Z</time>
      </trkpt>
      <trkpt lat="43.55783" lon="3.17997">
        <ele>260.52369</ele>
        <time>2025-10-23T13:05:51Z</time>
      </trkpt>
      <trkpt lat="43.55782" lon="3.17988">
        <ele>260.374511</ele>
        <time>2025-10-23T13:05:52Z</time>
      </trkpt>
      <trkpt lat="43.55781" lon="3.17978">
        <ele>260.214736</ele>
        <time>2025-10-23T13:05:53Z</time>
      </trkpt>
      <trkpt lat="43.5578" lon="3.17969">
        <ele>260.063263</ele>
        <time>2025-10-23T13:05:54Z</time>
      </trkpt>
      <trkpt lat="43.55778" lon="3.1796">
        <ele>259.913511</ele>
        <time>2025-10-23T13:05:55Z</time>
      </trkpt>
      <trkpt lat="43.55777" lon="3.17952">
        <ele>259.768954</ele>
        <time>2025-10-23T13:05:56Z</time>
      </trkpt>
      <trkpt lat="43.55776" lon="3.17944">
        <ele>259.634959</ele>
        <time>2025-10-23T13:05:57Z</time>
      </trkpt>
      <trkpt lat="43.55775" lon="3.17936">
        <ele>259.507132</ele>
        <time>2025-10-23T13:05:58Z</time>
      </trkpt>
      <trkpt lat="43.55775" lon="3.17929">
        <ele>259.384228</ele>
        <time>2025-10-23T13:05:59Z</time>
      </trkpt>
      <trkpt lat="43.55774" lon="3.17921">
        <ele>259.258042</ele>
        <time>2025-10-23T13:06:00Z</time>
      </trkpt>
      <trkpt lat="43.55774" lon="3.17913">
        <ele>259.128795</ele>
        <time>2025-10-23T13:06:01Z</time>
      </trkpt>
      <trkpt lat="43.55773" lon="3.17906">
        <ele>259.003166</ele>
        <time>2025-10-23T13:06:02Z</time>
      </trkpt>
      <trkpt lat="43.55774" lon="3.17898">
        <ele>258.869392</ele>
        <time>2025-10-23T13:06:03Z</time>
      </trkpt>
      <trkpt lat="43.55773" lon="3.1789">
        <ele>258.740627</ele>
        <time>2025-10-23T13:06:04Z</time>
      </trkpt>
      <trkpt lat="43.55773" lon="3.17882">
        <ele>258.616499</ele>
        <time>2025-10-23T13:06:05Z</time>
      </trkpt>
      <trkpt lat="43.55773" lon="3.17875">
        <ele>258.495922</ele>
        <time>2025-10-23T13:06:06Z</time>
      </trkpt>
      <trkpt lat="43.55773" lon="3.17868">
        <ele>258.38677</ele>
        <time>2025-10-23T13:06:07Z</time>
      </trkpt>
      <trkpt lat="43.55773" lon="3.17862">
        <ele>258.277618</ele>
        <time>2025-10-23T13:06:08Z</time>
      </trkpt>
      <trkpt lat="43.55774" lon="3.17856">
        <ele>258.174878</ele>
        <time>2025-10-23T13:06:09Z</time>
      </trkpt>
      <trkpt lat="43.55775" lon="3.1785">
        <ele>258.074568</ele>
        <time>2025-10-23T13:06:10Z</time>
      </trkpt>
      <trkpt lat="43.55775" lon="3.17843">
        <ele>257.971601</ele>
        <time>2025-10-23T13:06:11Z</time>
      </trkpt>
      <trkpt lat="43.55775" lon="3.17837">
        <ele>257.867217</ele>
        <time>2025-10-23T13:06:12Z</time>
      </trkpt>
      <trkpt lat="43.55776" lon="3.17831">
        <ele>257.764477</ele>
        <time>2025-10-23T13:06:13Z</time>
      </trkpt>
      <trkpt lat="43.55776" lon="3.17825">
        <ele>257.759838</ele>
        <time>2025-10-23T13:06:14Z</time>
      </trkpt>
      <trkpt lat="43.55776" lon="3.17819">
        <ele>257.804538</ele>
        <time>2025-10-23T13:06:15Z</time>
      </trkpt>
      <trkpt lat="43.55777" lon="3.17814">
        <ele>257.847804</ele>
        <time>2025-10-23T13:06:16Z</time>
      </trkpt>
      <trkpt lat="43.55777" lon="3.17808">
        <ele>257.893281</ele>
        <time>2025-10-23T13:06:17Z</time>
      </trkpt>
      <trkpt lat="43.55778" lon="3.17802">
        <ele>257.937111</ele>
        <time>2025-10-23T13:06:18Z</time>
      </trkpt>
      <trkpt lat="43.55778" lon="3.17797">
        <ele>257.97948</ele>
        <time>2025-10-23T13:06:19Z</time>
      </trkpt>
      <trkpt lat="43.55778" lon="3.17792">
        <ele>258.020068</ele>
        <time>2025-10-23T13:06:20Z</time>
      </trkpt>
      <trkpt lat="43.55778" lon="3.17787">
        <ele>258.060109</ele>
        <time>2025-10-23T13:06:21Z</time>
      </trkpt>
      <trkpt lat="43.55779" lon="3.17782">
        <ele>258.098733</ele>
        <time>2025-10-23T13:06:22Z</time>
      </trkpt>
      <trkpt lat="43.55779" lon="3.17776">
        <ele>258.139832</ele>
        <time>2025-10-23T13:06:23Z</time>
      </trkpt>
      <trkpt lat="43.5578" lon="3.17771">
        <ele>258.184441</ele>
        <time>2025-10-23T13:06:24Z</time>
      </trkpt>
      <trkpt lat="43.5578" lon="3.17766">
        <ele>258.224</ele>
        <time>2025-10-23T13:06:25Z</time>
      </trkpt>
      <trkpt lat="43.55781" lon="3.1776">
        <ele>258.266818</ele>
        <time>2025-10-23T13:06:26Z</time>
      </trkpt>
      <trkpt lat="43.55782" lon="3.17755">
        <ele>258.310605</ele>
        <time>2025-10-23T13:06:27Z</time>
      </trkpt>
      <trkpt lat="43.55783" lon="3.17749">
        <ele>258.356646</ele>
        <time>2025-10-23T13:06:28Z</time>
      </trkpt>
      <trkpt lat="43.55784" lon="3.17744">
        <ele>258.402148</ele>
        <time>2025-10-23T13:06:29Z</time>
      </trkpt>
      <trkpt lat="43.55786" lon="3.17739">
        <ele>258.443387</ele>
        <time>2025-10-23T13:06:30Z</time>
      </trkpt>
      <trkpt lat="43.55788" lon="3.17734">
        <ele>258.484881</ele>
        <time>2025-10-23T13:06:31Z</time>
      </trkpt>
      <trkpt lat="43.5579" lon="3.1773">
        <ele>258.524763</ele>
        <time>2025-10-23T13:06:32Z</time>
      </trkpt>
      <trkpt lat="43.55792" lon="3.17726">
        <ele>258.563409</ele>
        <time>2025-10-23T13:06:33Z</time>
      </trkpt>
      <trkpt lat="43.55794" lon="3.17721">
        <ele>258.604532</ele>
        <time>2025-10-23T13:06:34Z</time>
      </trkpt>
      <trkpt lat="43.55796" lon="3.17717">
        <ele>258.646879</ele>
        <time>2025-10-23T13:06:35Z</time>
      </trkpt>
      <trkpt lat="43.55798" lon="3.17712">
        <ele>258.688206</ele>
        <time>2025-10-23T13:06:36Z</time>
      </trkpt>
      <trkpt lat="43.558" lon="3.17708">
        <ele>258.729932</ele>
        <time>2025-10-23T13:06:37Z</time>
      </trkpt>
      <trkpt lat="43.55802" lon="3.17703">
        <ele>258.77126</ele>
        <time>2025-10-23T13:06:38Z</time>
      </trkpt>
      <trkpt lat="43.55804" lon="3.17699">
        <ele>258.810698</ele>
        <time>2025-10-23T13:06:39Z</time>
      </trkpt>
      <trkpt lat="43.55806" lon="3.17694">
        <ele>258.853134</ele>
        <time>2025-10-23T13:06:40Z</time>
      </trkpt>
      <trkpt lat="43.55808" lon="3.1769">
        <ele>258.896232</ele>
        <time>2025-10-23T13:06:41Z</time>
      </trkpt>
      <trkpt lat="43.55809" lon="3.17685">
        <ele>258.936619</ele>
        <time>2025-10-23T13:06:42Z</time>
      </trkpt>
      <trkpt lat="43.55812" lon="3.1768">
        <ele>258.982824</ele>
        <time>2025-10-23T13:06:43Z</time>
      </trkpt>
      <trkpt lat="43.55815" lon="3.17676">
        <ele>259.026435</ele>
        <time>2025-10-23T13:06:44Z</time>
      </trkpt>
      <trkpt lat="43.55817" lon="3.17671">
        <ele>259.070702</ele>
        <time>2025-10-23T13:06:45Z</time>
      </trkpt>
      <trkpt lat="43.55819" lon="3.17666">
        <ele>259.114279</ele>
        <time>2025-10-23T13:06:46Z</time>
      </trkpt>
      <trkpt lat="43.55821" lon="3.17661">
        <ele>259.158175</ele>
        <time>2025-10-23T13:06:47Z</time>
      </trkpt>
      <trkpt lat="43.55823" lon="3.17656">
        <ele>259.203283</ele>
        <time>2025-10-23T13:06:48Z</time>
      </trkpt>
      <trkpt lat="43.55825" lon="3.17651">
        <ele>259.251502</ele>
        <time>2025-10-23T13:06:49Z</time>
      </trkpt>
      <trkpt lat="43.55827" lon="3.17646">
        <ele>259.29488</ele>
        <time>2025-10-23T13:06:50Z</time>
      </trkpt>
      <trkpt lat="43.55829" lon="3.17641">
        <ele>259.335531</ele>
        <time>2025-10-23T13:06:51Z</time>
      </trkpt>
      <trkpt lat="43.55831" lon="3.17637">
        <ele>259.374451</ele>
        <time>2025-10-23T13:06:52Z</time>
      </trkpt>
      <trkpt lat="43.55832" lon="3.17632">
        <ele>259.41226</ele>
        <time>2025-10-23T13:06:53Z</time>
      </trkpt>
      <trkpt lat="43.55833" lon="3.17628">
        <ele>259.449349</ele>
        <time>2025-10-23T13:06:54Z</time>
      </trkpt>
      <trkpt lat="43.55834" lon="3.17623">
        <ele>259.489346</ele>
        <time>2025-10-23T13:06:55Z</time>
      </trkpt>
      <trkpt lat="43.55836" lon="3.17618">
        <ele>259.530147</ele>
        <time>2025-10-23T13:06:56Z</time>
      </trkpt>
      <trkpt lat="43.55838" lon="3.17614">
        <ele>259.572837</ele>
        <time>2025-10-23T13:06:57Z</time>
      </trkpt>
      <trkpt lat="43.5584" lon="3.17608">
        <ele>259.620395</ele>
        <time>2025-10-23T13:06:58Z</time>
      </trkpt>
      <trkpt lat="43.55842" lon="3.17602">
        <ele>259.678331</ele>
        <time>2025-10-23T13:06:59Z</time>
      </trkpt>
      <trkpt lat="43.55843" lon="3.17597">
        <ele>259.859033</ele>
        <time>2025-10-23T13:07:00Z</time>
      </trkpt>
      <trkpt lat="43.55845" lon="3.17591">
        <ele>260.034996</ele>
        <time>2025-10-23T13:07:01Z</time>
      </trkpt>
      <trkpt lat="43.55847" lon="3.17586">
        <ele>260.203086</ele>
        <time>2025-10-23T13:07:02Z</time>
      </trkpt>
      <trkpt lat="43.55848" lon="3.17581">
        <ele>260.371176</ele>
        <time>2025-10-23T13:07:03Z</time>
      </trkpt>
      <trkpt lat="43.5585" lon="3.17576">
        <ele>260.528888</ele>
        <time>2025-10-23T13:07:04Z</time>
      </trkpt>
      <trkpt lat="43.55851" lon="3.17571">
        <ele>260.687948</ele>
        <time>2025-10-23T13:07:05Z</time>
      </trkpt>
      <trkpt lat="43.55852" lon="3.17566">
        <ele>260.84512</ele>
        <time>2025-10-23T13:07:06Z</time>
      </trkpt>
      <trkpt lat="43.55853" lon="3.17561">
        <ele>261.001365</ele>
        <time>2025-10-23T13:07:07Z</time>
      </trkpt>
      <trkpt lat="43.55853" lon="3.17556">
        <ele>261.145039</ele>
        <time>2025-10-23T13:07:08Z</time>
      </trkpt>
      <trkpt lat="43.55854" lon="3.17552">
        <ele>261.27544</ele>
        <time>2025-10-23T13:07:09Z</time>
      </trkpt>
      <trkpt lat="43.55854" lon="3.17548">
        <ele>261.407448</ele>
        <time>2025-10-23T13:07:10Z</time>
      </trkpt>
      <trkpt lat="43.55855" lon="3.17544">
        <ele>261.520977</ele>
        <time>2025-10-23T13:07:11Z</time>
      </trkpt>
      <trkpt lat="43.55855" lon="3.1754">
        <ele>261.635479</ele>
        <time>2025-10-23T13:07:12Z</time>
      </trkpt>
      <trkpt lat="43.55856" lon="3.17537">
        <ele>261.751095</ele>
        <time>2025-10-23T13:07:13Z</time>
      </trkpt>
      <trkpt lat="43.55857" lon="3.17532">
        <ele>261.886848</ele>
        <time>2025-10-23T13:07:14Z</time>
      </trkpt>
      <trkpt lat="43.55857" lon="3.17528">
        <ele>262.02216</ele>
        <time>2025-10-23T13:07:15Z</time>
      </trkpt>
      <trkpt lat="43.55857" lon="3.17523">
        <ele>262.154168</ele>
        <time>2025-10-23T13:07:16Z</time>
      </trkpt>
      <trkpt lat="43.55858" lon="3.17519">
        <ele>262.281614</ele>
        <time>2025-10-23T13:07:17Z</time>
      </trkpt>
      <trkpt lat="43.55858" lon="3.17515">
        <ele>262.393094</ele>
        <time>2025-10-23T13:07:18Z</time>
      </trkpt>
      <trkpt lat="43.55859" lon="3.17512">
        <ele>262.504296</ele>
        <time>2025-10-23T13:07:19Z</time>
      </trkpt>
      <trkpt lat="43.55859" lon="3.17509">
        <ele>262.598579</ele>
        <time>2025-10-23T13:07:20Z</time>
      </trkpt>
      <trkpt lat="43.5586" lon="3.17506">
        <ele>262.698575</ele>
        <time>2025-10-23T13:07:21Z</time>
      </trkpt>
      <trkpt lat="43.55861" lon="3.17502">
        <ele>262.826218</ele>
        <time>2025-10-23T13:07:22Z</time>
      </trkpt>
      <trkpt lat="43.55861" lon="3.17498">
        <ele>262.941195</ele>
        <time>2025-10-23T13:07:23Z</time>
      </trkpt>
      <trkpt lat="43.55862" lon="3.17494">
        <ele>263.061501</ele>
        <time>2025-10-23T13:07:24Z</time>
      </trkpt>
      <trkpt lat="43.55862" lon="3.1749">
        <ele>263.17211</ele>
        <time>2025-10-23T13:07:25Z</time>
      </trkpt>
      <trkpt lat="43.55863" lon="3.17487">
        <ele>263.284125</ele>
        <time>2025-10-23T13:07:26Z</time>
      </trkpt>
      <trkpt lat="43.55863" lon="3.17483">
        <ele>263.405031</ele>
        <time>2025-10-23T13:07:27Z</time>
      </trkpt>
      <trkpt lat="43.55864" lon="3.17479">
        <ele>263.524411</ele>
        <time>2025-10-23T13:07:28Z</time>
      </trkpt>
      <trkpt lat="43.55864" lon="3.17475">
        <ele>263.631228</ele>
        <time>2025-10-23T13:07:29Z</time>
      </trkpt>
      <trkpt lat="43.55865" lon="3.17472">
        <ele>263.741118</ele>
        <time>2025-10-23T13:07:30Z</time>
      </trkpt>
      <trkpt lat="43.55866" lon="3.17468">
        <ele>263.848156</ele>
        <time>2025-10-23T13:07:31Z</time>
      </trkpt>
      <trkpt lat="43.55867" lon="3.17465">
        <ele>263.955194</ele>
        <time>2025-10-23T13:07:32Z</time>
      </trkpt>
      <trkpt lat="43.55867" lon="3.17462">
        <ele>264.061029</ele>
        <time>2025-10-23T13:07:33Z</time>
      </trkpt>
      <trkpt lat="43.55868" lon="3.17458">
        <ele>264.165223</ele>
        <time>2025-10-23T13:07:34Z</time>
      </trkpt>
      <trkpt lat="43.55869" lon="3.17455">
        <ele>264.269103</ele>
        <time>2025-10-23T13:07:35Z</time>
      </trkpt>
      <trkpt lat="43.55869" lon="3.17452">
        <ele>264.370978</ele>
        <time>2025-10-23T13:07:36Z</time>
      </trkpt>
      <trkpt lat="43.5587" lon="3.17448">
        <ele>264.477073</ele>
        <time>2025-10-23T13:07:37Z</time>
      </trkpt>
      <trkpt lat="43.5587" lon="3.17444">
        <ele>264.598438</ele>
        <time>2025-10-23T13:07:38Z</time>
      </trkpt>
      <trkpt lat="43.55871" lon="3.1744">
        <ele>264.719804</ele>
        <time>2025-10-23T13:07:39Z</time>
      </trkpt>
      <trkpt lat="43.55872" lon="3.17437">
        <ele>264.828522</ele>
        <time>2025-10-23T13:07:40Z</time>
      </trkpt>
      <trkpt lat="43.55873" lon="3.17433">
        <ele>264.938411</ele>
        <time>2025-10-23T13:07:41Z</time>
      </trkpt>
      <trkpt lat="43.55874" lon="3.1743">
        <ele>265.046796</ele>
        <time>2025-10-23T13:07:42Z</time>
      </trkpt>
      <trkpt lat="43.55875" lon="3.17427">
        <ele>265.149577</ele>
        <time>2025-10-23T13:07:43Z</time>
      </trkpt>
      <trkpt lat="43.55875" lon="3.17424">
        <ele>265.243947</ele>
        <time>2025-10-23T13:07:44Z</time>
      </trkpt>
      <trkpt lat="43.55876" lon="3.17421">
        <ele>265.337416</ele>
        <time>2025-10-23T13:07:45Z</time>
      </trkpt>
      <trkpt lat="43.55877" lon="3.17418">
        <ele>265.419247</ele>
        <time>2025-10-23T13:07:46Z</time>
      </trkpt>
      <trkpt lat="43.55878" lon="3.17416">
        <ele>265.506589</ele>
        <time>2025-10-23T13:07:47Z</time>
      </trkpt>
      <trkpt lat="43.55879" lon="3.17413">
        <ele>265.592453</ele>
        <time>2025-10-23T13:07:48Z</time>
      </trkpt>
      <trkpt lat="43.55879" lon="3.1741">
        <ele>265.674156</ele>
        <time>2025-10-23T13:07:49Z</time>
      </trkpt>
      <trkpt lat="43.5588" lon="3.17408">
        <ele>265.758735</ele>
        <time>2025-10-23T13:07:50Z</time>
      </trkpt>
      <trkpt lat="43.55881" lon="3.17405">
        <ele>265.838985</ele>
        <time>2025-10-23T13:07:51Z</time>
      </trkpt>
      <trkpt lat="43.55881" lon="3.17403">
        <ele>265.923564</ele>
        <time>2025-10-23T13:07:52Z</time>
      </trkpt>
      <trkpt lat="43.55882" lon="3.174">
        <ele>266.008142</ele>
        <time>2025-10-23T13:07:53Z</time>
      </trkpt>
      <trkpt lat="43.55883" lon="3.17398">
        <ele>266.091192</ele>
        <time>2025-10-23T13:07:54Z</time>
      </trkpt>
      <trkpt lat="43.55884" lon="3.17395">
        <ele>266.170048</ele>
        <time>2025-10-23T13:07:55Z</time>
      </trkpt>
      <trkpt lat="43.55884" lon="3.17392">
        <ele>266.254609</ele>
        <time>2025-10-23T13:07:56Z</time>
      </trkpt>
      <trkpt lat="43.55885" lon="3.1739">
        <ele>266.33766</ele>
        <time>2025-10-23T13:07:57Z</time>
      </trkpt>
      <trkpt lat="43.55885" lon="3.17387">
        <ele>266.422221</ele>
        <time>2025-10-23T13:07:58Z</time>
      </trkpt>
      <trkpt lat="43.55886" lon="3.17385">
        <ele>266.498881</ele>
        <time>2025-10-23T13:07:59Z</time>
      </trkpt>
      <trkpt lat="43.55886" lon="3.17382">
        <ele>266.58631</ele>
        <time>2025-10-23T13:08:00Z</time>
      </trkpt>
      <trkpt lat="43.55887" lon="3.17379">
        <ele>266.672658</ele>
        <time>2025-10-23T13:08:01Z</time>
      </trkpt>
      <trkpt lat="43.55887" lon="3.17376">
        <ele>266.749317</ele>
        <time>2025-10-23T13:08:02Z</time>
      </trkpt>
      <trkpt lat="43.55888" lon="3.17374">
        <ele>266.828149</ele>
        <time>2025-10-23T13:08:03Z</time>
      </trkpt>
      <trkpt lat="43.55888" lon="3.17371">
        <ele>266.901073</ele>
        <time>2025-10-23T13:08:04Z</time>
      </trkpt>
      <trkpt lat="43.55888" lon="3.17369">
        <ele>266.982024</ele>
        <time>2025-10-23T13:08:05Z</time>
      </trkpt>
      <trkpt lat="43.55888" lon="3.17366">
        <ele>267.057901</ele>
        <time>2025-10-23T13:08:06Z</time>
      </trkpt>
      <trkpt lat="43.55889" lon="3.17364">
        <ele>267.137623</ele>
        <time>2025-10-23T13:08:07Z</time>
      </trkpt>
      <trkpt lat="43.55889" lon="3.17362">
        <ele>267.216836</ele>
        <time>2025-10-23T13:08:08Z</time>
      </trkpt>
      <trkpt lat="43.5589" lon="3.17359">
        <ele>267.311671</ele>
        <time>2025-10-23T13:08:09Z</time>
      </trkpt>
      <trkpt lat="43.55891" lon="3.17357">
        <ele>267.413628</ele>
        <time>2025-10-23T13:08:10Z</time>
      </trkpt>
      <trkpt lat="43.55891" lon="3.17354">
        <ele>267.518435</ele>
        <time>2025-10-23T13:08:11Z</time>
      </trkpt>
      <trkpt lat="43.55892" lon="3.17351">
        <ele>267.619418</ele>
        <time>2025-10-23T13:08:12Z</time>
      </trkpt>
      <trkpt lat="43.55892" lon="3.17348">
        <ele>267.725572</ele>
        <time>2025-10-23T13:08:13Z</time>
      </trkpt>
      <trkpt lat="43.55892" lon="3.17345">
        <ele>267.838907</ele>
        <time>2025-10-23T13:08:14Z</time>
      </trkpt>
      <trkpt lat="43.55891" lon="3.17342">
        <ele>267.949033</ele>
        <time>2025-10-23T13:08:15Z</time>
      </trkpt>
      <trkpt lat="43.55891" lon="3.17339">
        <ele>268.04859</ele>
        <time>2025-10-23T13:08:16Z</time>
      </trkpt>
      <trkpt lat="43.55891" lon="3.17336">
        <ele>268.151669</ele>
        <time>2025-10-23T13:08:17Z</time>
      </trkpt>
      <trkpt lat="43.55891" lon="3.17333">
        <ele>268.257935</ele>
        <time>2025-10-23T13:08:18Z</time>
      </trkpt>
      <trkpt lat="43.55891" lon="3.1733">
        <ele>268.360666</ele>
        <time>2025-10-23T13:08:19Z</time>
      </trkpt>
      <trkpt lat="43.5589" lon="3.17327">
        <ele>268.45585</ele>
        <time>2025-10-23T13:08:20Z</time>
      </trkpt>
      <trkpt lat="43.5589" lon="3.17325">
        <ele>268.559506</ele>
        <time>2025-10-23T13:08:21Z</time>
      </trkpt>
      <trkpt lat="43.5589" lon="3.17322">
        <ele>268.652665</ele>
        <time>2025-10-23T13:08:22Z</time>
      </trkpt>
      <trkpt lat="43.55889" lon="3.17319">
        <ele>268.752818</ele>
        <time>2025-10-23T13:08:23Z</time>
      </trkpt>
      <trkpt lat="43.55889" lon="3.17316">
        <ele>268.855897</ele>
        <time>2025-10-23T13:08:24Z</time>
      </trkpt>
      <trkpt lat="43.5591" lon="3.17268">
        <ele>273.867703</ele>
        <time>2025-10-23T13:27:06Z</time>
      </trkpt>
      <trkpt lat="43.55914" lon="3.17266">
        <ele>273.81062</ele>
        <time>2025-10-23T13:27:07Z</time>
      </trkpt>
      <trkpt lat="43.55917" lon="3.17264">
        <ele>273.75372</ele>
        <time>2025-10-23T13:27:08Z</time>
      </trkpt>
      <trkpt lat="43.55921" lon="3.17262">
        <ele>273.70196</ele>
        <time>2025-10-23T13:27:09Z</time>
      </trkpt>
      <trkpt lat="43.55924" lon="3.1726">
        <ele>273.655893</ele>
        <time>2025-10-23T13:27:10Z</time>
      </trkpt>
      <trkpt lat="43.55927" lon="3.17259">
        <ele>273.610687</ele>
        <time>2025-10-23T13:27:11Z</time>
      </trkpt>
      <trkpt lat="43.5593" lon="3.17258">
        <ele>273.566573</ele>
        <time>2025-10-23T13:27:12Z</time>
      </trkpt>
      <trkpt lat="43.55933" lon="3.17257">
        <ele>273.52246</ele>
        <time>2025-10-23T13:27:13Z</time>
      </trkpt>
      <trkpt lat="43.55936" lon="3.17256">
        <ele>273.477719</ele>
        <time>2025-10-23T13:27:14Z</time>
      </trkpt>
      <trkpt lat="43.55939" lon="3.17255">
        <ele>273.431961</ele>
        <time>2025-10-23T13:27:15Z</time>
      </trkpt>
      <trkpt lat="43.55942" lon="3.17257">
        <ele>273.38576</ele>
        <time>2025-10-23T13:27:16Z</time>
      </trkpt>
      <trkpt lat="43.55944" lon="3.17261">
        <ele>273.337563</ele>
        <time>2025-10-23T13:27:17Z</time>
      </trkpt>
      <trkpt lat="43.55946" lon="3.17265">
        <ele>273.289904</ele>
        <time>2025-10-23T13:27:18Z</time>
      </trkpt>
      <trkpt lat="43.55947" lon="3.17269">
        <ele>273.245459</ele>
        <time>2025-10-23T13:27:19Z</time>
      </trkpt>
      <trkpt lat="43.55947" lon="3.17273">
        <ele>273.202105</ele>
        <time>2025-10-23T13:27:20Z</time>
      </trkpt>
      <trkpt lat="43.55947" lon="3.17277">
        <ele>273.158912</ele>
        <time>2025-10-23T13:27:21Z</time>
      </trkpt>
      <trkpt lat="43.55946" lon="3.17282">
        <ele>273.114804</ele>
        <time>2025-10-23T13:27:22Z</time>
      </trkpt>
      <trkpt lat="43.55946" lon="3.17286">
        <ele>273.068749</ele>
        <time>2025-10-23T13:27:23Z</time>
      </trkpt>
      <trkpt lat="43.55946" lon="3.1729">
        <ele>273.024741</ele>
        <time>2025-10-23T13:27:24Z</time>
      </trkpt>
      <trkpt lat="43.55946" lon="3.17294">
        <ele>272.983706</ele>
        <time>2025-10-23T13:27:25Z</time>
      </trkpt>
      <trkpt lat="43.55946" lon="3.17299">
        <ele>272.937629</ele>
        <time>2025-10-23T13:27:26Z</time>
      </trkpt>
      <trkpt lat="43.55946" lon="3.17303">
        <ele>272.894551</ele>
        <time>2025-10-23T13:27:27Z</time>
      </trkpt>
      <trkpt lat="43.55947" lon="3.17307">
        <ele>272.850182</ele>
        <time>2025-10-23T13:27:28Z</time>
      </trkpt>
      <trkpt lat="43.55947" lon="3.17311">
        <ele>272.808856</ele>
        <time>2025-10-23T13:27:29Z</time>
      </trkpt>
      <trkpt lat="43.55947" lon="3.17315">
        <ele>272.769862</ele>
        <time>2025-10-23T13:27:30Z</time>
      </trkpt>
      <trkpt lat="43.55948" lon="3.17319">
        <ele>272.726785</ele>
        <time>2025-10-23T13:27:31Z</time>
      </trkpt>
      <trkpt lat="43.55948" lon="3.17324">
        <ele>272.682678</ele>
        <time>2025-10-23T13:27:32Z</time>
      </trkpt>
      <trkpt lat="43.55949" lon="3.17328">
        <ele>272.638571</ele>
        <time>2025-10-23T13:27:33Z</time>
      </trkpt>
      <trkpt lat="43.5595" lon="3.17332">
        <ele>272.598072</ele>
        <time>2025-10-23T13:27:34Z</time>
      </trkpt>
      <trkpt lat="43.55951" lon="3.17335">
        <ele>272.558444</ele>
        <time>2025-10-23T13:27:35Z</time>
      </trkpt>
      <trkpt lat="43.55953" lon="3.17338">
        <ele>272.52195</ele>
        <time>2025-10-23T13:27:36Z</time>
      </trkpt>
      <trkpt lat="43.55954" lon="3.17341">
        <ele>272.483694</ele>
        <time>2025-10-23T13:27:37Z</time>
      </trkpt>
      <trkpt lat="43.55956" lon="3.17344">
        <ele>272.447199</ele>
        <time>2025-10-23T13:27:38Z</time>
      </trkpt>
      <trkpt lat="43.55957" lon="3.17347">
        <ele>272.409814</ele>
        <time>2025-10-23T13:27:39Z</time>
      </trkpt>
      <trkpt lat="43.5596" lon="3.17349">
        <ele>272.369699</ele>
        <time>2025-10-23T13:27:40Z</time>
      </trkpt>
      <trkpt lat="43.55962" lon="3.17351">
        <ele>272.327349</ele>
        <time>2025-10-23T13:27:41Z</time>
      </trkpt>
      <trkpt lat="43.55965" lon="3.17353">
        <ele>272.281562</ele>
        <time>2025-10-23T13:27:42Z</time>
      </trkpt>
      <trkpt lat="43.55968" lon="3.17355">
        <ele>272.233656</ele>
        <time>2025-10-23T13:27:43Z</time>
      </trkpt>
      <trkpt lat="43.55971" lon="3.17356">
        <ele>272.186912</ele>
        <time>2025-10-23T13:27:44Z</time>
      </trkpt>
      <trkpt lat="43.55974" lon="3.17358">
        <ele>272.143287</ele>
        <time>2025-10-23T13:27:45Z</time>
      </trkpt>
      <trkpt lat="43.55977" lon="3.1736">
        <ele>272.239849</ele>
        <time>2025-10-23T13:27:46Z</time>
      </trkpt>
      <trkpt lat="43.5598" lon="3.17361">
        <ele>272.365748</ele>
        <time>2025-10-23T13:27:47Z</time>
      </trkpt>
      <trkpt lat="43.55983" lon="3.17363">
        <ele>272.489401</ele>
        <time>2025-10-23T13:27:48Z</time>
      </trkpt>
      <trkpt lat="43.55986" lon="3.17364">
        <ele>272.607116</ele>
        <time>2025-10-23T13:27:49Z</time>
      </trkpt>
      <trkpt lat="43.55989" lon="3.17364">
        <ele>272.725644</ele>
        <time>2025-10-23T13:27:50Z</time>
      </trkpt>
      <trkpt lat="43.55992" lon="3.17364">
        <ele>272.828958</ele>
        <time>2025-10-23T13:27:51Z</time>
      </trkpt>
      <trkpt lat="43.55994" lon="3.17363">
        <ele>272.915071</ele>
        <time>2025-10-23T13:27:52Z</time>
      </trkpt>
      <trkpt lat="43.55996" lon="3.17362">
        <ele>273.002591</ele>
        <time>2025-10-23T13:27:53Z</time>
      </trkpt>
      <trkpt lat="43.55998" lon="3.17361">
        <ele>273.084743</ele>
        <time>2025-10-23T13:27:54Z</time>
      </trkpt>
      <trkpt lat="43.56" lon="3.1736">
        <ele>273.154199</ele>
        <time>2025-10-23T13:27:55Z</time>
      </trkpt>
      <trkpt lat="43.56002" lon="3.17358">
        <ele>273.239735</ele>
        <time>2025-10-23T13:27:56Z</time>
      </trkpt>
      <trkpt lat="43.56005" lon="3.17357">
        <ele>273.345678</ele>
        <time>2025-10-23T13:27:57Z</time>
      </trkpt>
      <trkpt lat="43.56007" lon="3.17356">
        <ele>273.44576</ele>
        <time>2025-10-23T13:27:58Z</time>
      </trkpt>
      <trkpt lat="43.5601" lon="3.17355">
        <ele>273.545038</ele>
        <time>2025-10-23T13:27:59Z</time>
      </trkpt>
      <trkpt lat="43.56012" lon="3.17354">
        <ele>273.643376</ele>
        <time>2025-10-23T13:28:00Z</time>
      </trkpt>
      <trkpt lat="43.56015" lon="3.17353">
        <ele>273.744333</ele>
        <time>2025-10-23T13:28:01Z</time>
      </trkpt>
      <trkpt lat="43.56017" lon="3.17351">
        <ele>273.845994</ele>
        <time>2025-10-23T13:28:02Z</time>
      </trkpt>
      <trkpt lat="43.56019" lon="3.1735">
        <ele>273.947655</ele>
        <time>2025-10-23T13:28:03Z</time>
      </trkpt>
      <trkpt lat="43.56022" lon="3.17348">
        <ele>274.047171</ele>
        <time>2025-10-23T13:28:04Z</time>
      </trkpt>
      <trkpt lat="43.56024" lon="3.17346">
        <ele>274.15556</ele>
        <time>2025-10-23T13:28:05Z</time>
      </trkpt>
      <trkpt lat="43.56026" lon="3.17343">
        <ele>274.261343</ele>
        <time>2025-10-23T13:28:06Z</time>
      </trkpt>
      <trkpt lat="43.56028" lon="3.17341">
        <ele>274.373012</ele>
        <time>2025-10-23T13:28:07Z</time>
      </trkpt>
      <trkpt lat="43.56031" lon="3.17339">
        <ele>274.483959</ele>
        <time>2025-10-23T13:28:08Z</time>
      </trkpt>
      <trkpt lat="43.56033" lon="3.17337">
        <ele>274.584449</ele>
        <time>2025-10-23T13:28:09Z</time>
      </trkpt>
      <trkpt lat="43.56036" lon="3.17336">
        <ele>274.687354</ele>
        <time>2025-10-23T13:28:10Z</time>
      </trkpt>
      <trkpt lat="43.56038" lon="3.17335">
        <ele>274.764842</ele>
        <time>2025-10-23T13:28:11Z</time>
      </trkpt>
      <trkpt lat="43.5604" lon="3.17333">
        <ele>274.845043</ele>
        <time>2025-10-23T13:28:12Z</time>
      </trkpt>
      <trkpt lat="43.56042" lon="3.17332">
        <ele>274.937904</ele>
        <time>2025-10-23T13:28:13Z</time>
      </trkpt>
      <trkpt lat="43.56044" lon="3.1733">
        <ele>275.024725</ele>
        <time>2025-10-23T13:28:14Z</time>
      </trkpt>
      <trkpt lat="43.56046" lon="3.17329">
        <ele>275.104422</ele>
        <time>2025-10-23T13:28:15Z</time>
      </trkpt>
      <trkpt lat="43.56047" lon="3.17327">
        <ele>275.173491</ele>
        <time>2025-10-23T13:28:16Z</time>
      </trkpt>
      <trkpt lat="43.56049" lon="3.17326">
        <ele>275.251051</ele>
        <time>2025-10-23T13:28:17Z</time>
      </trkpt>
      <trkpt lat="43.56051" lon="3.17326">
        <ele>275.327669</ele>
        <time>2025-10-23T13:28:18Z</time>
      </trkpt>
      <trkpt lat="43.56053" lon="3.17324">
        <ele>275.421454</ele>
        <time>2025-10-23T13:28:19Z</time>
      </trkpt>
      <trkpt lat="43.56056" lon="3.17323">
        <ele>275.517075</ele>
        <time>2025-10-23T13:28:20Z</time>
      </trkpt>
      <trkpt lat="43.56057" lon="3.17322">
        <ele>275.594036</ele>
        <time>2025-10-23T13:28:21Z</time>
      </trkpt>
      <trkpt lat="43.56059" lon="3.17321">
        <ele>275.669803</ele>
        <time>2025-10-23T13:28:22Z</time>
      </trkpt>
      <trkpt lat="43.56061" lon="3.1732">
        <ele>275.741416</ele>
        <time>2025-10-23T13:28:23Z</time>
      </trkpt>
      <trkpt lat="43.56063" lon="3.17319">
        <ele>275.842453</ele>
        <time>2025-10-23T13:28:24Z</time>
      </trkpt>
      <trkpt lat="43.56066" lon="3.17318">
        <ele>275.946176</ele>
        <time>2025-10-23T13:28:25Z</time>
      </trkpt>
      <trkpt lat="43.56068" lon="3.17317">
        <ele>276.041797</ele>
        <time>2025-10-23T13:28:26Z</time>
      </trkpt>
      <trkpt lat="43.56071" lon="3.17316">
        <ele>276.13075</ele>
        <time>2025-10-23T13:28:27Z</time>
      </trkpt>
      <trkpt lat="43.56073" lon="3.17315">
        <ele>276.228112</ele>
        <time>2025-10-23T13:28:28Z</time>
      </trkpt>
      <trkpt lat="43.56076" lon="3.17314">
        <ele>276.33344</ele>
        <time>2025-10-23T13:28:29Z</time>
      </trkpt>
      <trkpt lat="43.56078" lon="3.17313">
        <ele>276.429061</ele>
        <time>2025-10-23T13:28:30Z</time>
      </trkpt>
      <trkpt lat="43.56081" lon="3.17312">
        <ele>276.528339</ele>
        <time>2025-10-23T13:28:31Z</time>
      </trkpt>
      <trkpt lat="43.56083" lon="3.1731">
        <ele>276.62772</ele>
        <time>2025-10-23T13:28:32Z</time>
      </trkpt>
      <trkpt lat="43.56085" lon="3.17309">
        <ele>276.726058</ele>
        <time>2025-10-23T13:28:33Z</time>
      </trkpt>
      <trkpt lat="43.56088" lon="3.17308">
        <ele>276.812833</ele>
        <time>2025-10-23T13:28:34Z</time>
      </trkpt>
      <trkpt lat="43.5609" lon="3.17308">
        <ele>276.897469</ele>
        <time>2025-10-23T13:28:35Z</time>
      </trkpt>
      <trkpt lat="43.56092" lon="3.17307">
        <ele>276.967007</ele>
        <time>2025-10-23T13:28:36Z</time>
      </trkpt>
      <trkpt lat="43.56094" lon="3.17306">
        <ele>277.077954</ele>
        <time>2025-10-23T13:28:37Z</time>
      </trkpt>
      <trkpt lat="43.56097" lon="3.17305">
        <ele>277.173574</ele>
        <time>2025-10-23T13:28:38Z</time>
      </trkpt>
      <trkpt lat="43.56099" lon="3.17303">
        <ele>277.278141</ele>
        <time>2025-10-23T13:28:39Z</time>
      </trkpt>
      <trkpt lat="43.56102" lon="3.17303">
        <ele>277.383469</ele>
        <time>2025-10-23T13:28:40Z</time>
      </trkpt>
      <trkpt lat="43.56104" lon="3.17302">
        <ele>277.486416</ele>
        <time>2025-10-23T13:28:41Z</time>
      </trkpt>
      <trkpt lat="43.56107" lon="3.173">
        <ele>277.599093</ele>
        <time>2025-10-23T13:28:42Z</time>
      </trkpt>
      <trkpt lat="43.5611" lon="3.173">
        <ele>277.696389</ele>
        <time>2025-10-23T13:28:43Z</time>
      </trkpt>
      <trkpt lat="43.56112" lon="3.17299">
        <ele>277.788303</ele>
        <time>2025-10-23T13:28:44Z</time>
      </trkpt>
      <trkpt lat="43.56115" lon="3.17299">
        <ele>277.884016</ele>
        <time>2025-10-23T13:28:45Z</time>
      </trkpt>
      <trkpt lat="43.56117" lon="3.17299">
        <ele>277.976592</ele>
        <time>2025-10-23T13:28:46Z</time>
      </trkpt>
      <trkpt lat="43.56119" lon="3.17298">
        <ele>278.072212</ele>
        <time>2025-10-23T13:28:47Z</time>
      </trkpt>
      <trkpt lat="43.56122" lon="3.17296">
        <ele>278.17055</ele>
        <time>2025-10-23T13:28:48Z</time>
      </trkpt>
      <trkpt lat="43.56124" lon="3.17295">
        <ele>278.267006</ele>
        <time>2025-10-23T13:28:49Z</time>
      </trkpt>
      <trkpt lat="43.56126" lon="3.17294">
        <ele>278.358285</ele>
        <time>2025-10-23T13:28:50Z</time>
      </trkpt>
      <trkpt lat="43.56128" lon="3.17292">
        <ele>278.440437</ele>
        <time>2025-10-23T13:28:51Z</time>
      </trkpt>
      <trkpt lat="43.5613" lon="3.17291">
        <ele>278.5221</ele>
        <time>2025-10-23T13:28:52Z</time>
      </trkpt>
      <trkpt lat="43.56132" lon="3.1729">
        <ele>278.615885</ele>
        <time>2025-10-23T13:28:53Z</time>
      </trkpt>
      <trkpt lat="43.56135" lon="3.17289">
        <ele>278.698285</ele>
        <time>2025-10-23T13:28:54Z</time>
      </trkpt>
      <trkpt lat="43.56137" lon="3.17288">
        <ele>278.79507</ele>
        <time>2025-10-23T13:28:55Z</time>
      </trkpt>
      <trkpt lat="43.5614" lon="3.17288">
        <ele>278.905714</ele>
        <time>2025-10-23T13:28:56Z</time>
      </trkpt>
      <trkpt lat="43.56142" lon="3.1729">
        <ele>279.000643</ele>
        <time>2025-10-23T13:28:57Z</time>
      </trkpt>
      <trkpt lat="43.56145" lon="3.17291">
        <ele>279.080032</ele>
        <time>2025-10-23T13:28:58Z</time>
      </trkpt>
      <trkpt lat="43.56147" lon="3.17292">
        <ele>279.157525</ele>
        <time>2025-10-23T13:28:59Z</time>
      </trkpt>
      <trkpt lat="43.5615" lon="3.17293">
        <ele>279.232718</ele>
        <time>2025-10-23T13:29:00Z</time>
      </trkpt>
      <trkpt lat="43.56152" lon="3.17294">
        <ele>279.30089</ele>
        <time>2025-10-23T13:29:01Z</time>
      </trkpt>
      <trkpt lat="43.56154" lon="3.17296">
        <ele>279.387562</ele>
        <time>2025-10-23T13:29:02Z</time>
      </trkpt>
      <trkpt lat="43.56157" lon="3.17298">
        <ele>279.473855</ele>
        <time>2025-10-23T13:29:03Z</time>
      </trkpt>
      <trkpt lat="43.5616" lon="3.17299">
        <ele>279.571971</ele>
        <time>2025-10-23T13:29:04Z</time>
      </trkpt>
      <trkpt lat="43.56163" lon="3.17302">
        <ele>279.676525</ele>
        <time>2025-10-23T13:29:05Z</time>
      </trkpt>
      <trkpt lat="43.56166" lon="3.17303">
        <ele>279.772991</ele>
        <time>2025-10-23T13:29:06Z</time>
      </trkpt>
      <trkpt lat="43.56169" lon="3.17304">
        <ele>279.872563</ele>
        <time>2025-10-23T13:29:07Z</time>
      </trkpt>
      <trkpt lat="43.56172" lon="3.17304">
        <ele>279.966176</ele>
        <time>2025-10-23T13:29:08Z</time>
      </trkpt>
      <trkpt lat="43.56176" lon="3.17304">
        <ele>280.059383</ele>
        <time>2025-10-23T13:29:09Z</time>
      </trkpt>
      <trkpt lat="43.56179" lon="3.17303">
        <ele>280.152768</ele>
        <time>2025-10-23T13:29:10Z</time>
      </trkpt>
      <trkpt lat="43.56182" lon="3.17302">
        <ele>280.242423</ele>
        <time>2025-10-23T13:29:11Z</time>
      </trkpt>
      <trkpt lat="43.56184" lon="3.17302">
        <ele>280.315578</ele>
        <time>2025-10-23T13:29:12Z</time>
      </trkpt>
      <trkpt lat="43.56187" lon="3.17301">
        <ele>280.395977</ele>
        <time>2025-10-23T13:29:13Z</time>
      </trkpt>
      <trkpt lat="43.56189" lon="3.173">
        <ele>280.46193</ele>
        <time>2025-10-23T13:29:14Z</time>
      </trkpt>
      <trkpt lat="43.56191" lon="3.17299">
        <ele>280.535984</ele>
        <time>2025-10-23T13:29:15Z</time>
      </trkpt>
      <trkpt lat="43.56193" lon="3.17298">
        <ele>280.608994</ele>
        <time>2025-10-23T13:29:16Z</time>
      </trkpt>
      <trkpt lat="43.56195" lon="3.17297">
        <ele>280.670966</ele>
        <time>2025-10-23T13:29:17Z</time>
      </trkpt>
      <trkpt lat="43.56197" lon="3.17295">
        <ele>280.732684</ele>
        <time>2025-10-23T13:29:18Z</time>
      </trkpt>
      <trkpt lat="43.56199" lon="3.17293">
        <ele>280.798104</ele>
        <time>2025-10-23T13:29:19Z</time>
      </trkpt>
      <trkpt lat="43.562" lon="3.17292">
        <ele>280.848069</ele>
        <time>2025-10-23T13:29:20Z</time>
      </trkpt>
      <trkpt lat="43.56202" lon="3.17291">
        <ele>280.905341</ele>
        <time>2025-10-23T13:29:21Z</time>
      </trkpt>
      <trkpt lat="43.56204" lon="3.1729">
        <ele>280.968012</ele>
        <time>2025-10-23T13:29:22Z</time>
      </trkpt>
      <trkpt lat="43.56205" lon="3.1729">
        <ele>281.013835</ele>
        <time>2025-10-23T13:29:23Z</time>
      </trkpt>
      <trkpt lat="43.56206" lon="3.17289">
        <ele>281.033708</ele>
        <time>2025-10-23T13:29:24Z</time>
      </trkpt>
      <trkpt lat="43.56206" lon="3.1729">
        <ele>281.046121</ele>
        <time>2025-10-23T13:29:25Z</time>
      </trkpt>
      <trkpt lat="43.56206" lon="3.17289">
        <ele>281.054981</ele>
        <time>2025-10-23T13:29:26Z</time>
      </trkpt>
      <trkpt lat="43.56206" lon="3.17289">
        <ele>281.064973</ele>
        <time>2025-10-23T13:29:27Z</time>
      </trkpt>
      <trkpt lat="43.56207" lon="3.17289">
        <ele>281.077166</ele>
        <time>2025-10-23T13:29:28Z</time>
      </trkpt>
      <trkpt lat="43.56226" lon="3.17273">
        <ele>281.761294</ele>
        <time>2025-10-23T13:30:27Z</time>
      </trkpt>
      <trkpt lat="43.56228" lon="3.17271">
        <ele>281.829264</ele>
        <time>2025-10-23T13:30:28Z</time>
      </trkpt>
      <trkpt lat="43.5623" lon="3.17269">
        <ele>281.900187</ele>
        <time>2025-10-23T13:30:29Z</time>
      </trkpt>
      <trkpt lat="43.56232" lon="3.17268">
        <ele>281.97111</ele>
        <time>2025-10-23T13:30:30Z</time>
      </trkpt>
      <trkpt lat="43.56235" lon="3.17266">
        <ele>282.046735</ele>
        <time>2025-10-23T13:30:31Z</time>
      </trkpt>
      <trkpt lat="43.56237" lon="3.17265">
        <ele>282.121322</ele>
        <time>2025-10-23T13:30:32Z</time>
      </trkpt>
      <trkpt lat="43.56239" lon="3.17263">
        <ele>282.199164</ele>
        <time>2025-10-23T13:30:33Z</time>
      </trkpt>
      <trkpt lat="43.56241" lon="3.17261">
        <ele>282.278186</ele>
        <time>2025-10-23T13:30:34Z</time>
      </trkpt>
      <trkpt lat="43.56244" lon="3.1726">
        <ele>282.351785</ele>
        <time>2025-10-23T13:30:35Z</time>
      </trkpt>
      <trkpt lat="43.56246" lon="3.17258">
        <ele>282.426373</ele>
        <time>2025-10-23T13:30:36Z</time>
      </trkpt>
      <trkpt lat="43.56248" lon="3.17257">
        <ele>282.494646</ele>
        <time>2025-10-23T13:30:37Z</time>
      </trkpt>
      <trkpt lat="43.5625" lon="3.17255">
        <ele>282.571899</ele>
        <time>2025-10-23T13:30:38Z</time>
      </trkpt>
      <trkpt lat="43.56252" lon="3.17253">
        <ele>282.649741</ele>
        <time>2025-10-23T13:30:39Z</time>
      </trkpt>
      <trkpt lat="43.56255" lon="3.17252">
        <ele>282.726994</ele>
        <time>2025-10-23T13:30:40Z</time>
      </trkpt>
      <trkpt lat="43.56257" lon="3.1725">
        <ele>282.803523</ele>
        <time>2025-10-23T13:30:41Z</time>
      </trkpt>
      <trkpt lat="43.56259" lon="3.17248">
        <ele>282.878839</ele>
        <time>2025-10-23T13:30:42Z</time>
      </trkpt>
      <trkpt lat="43.56261" lon="3.17246">
        <ele>282.952918</ele>
        <time>2025-10-23T13:30:43Z</time>
      </trkpt>
      <trkpt lat="43.56263" lon="3.17244">
        <ele>283.035635</ele>
        <time>2025-10-23T13:30:44Z</time>
      </trkpt>
      <trkpt lat="43.56265" lon="3.17241">
        <ele>283.112346</ele>
        <time>2025-10-23T13:30:45Z</time>
      </trkpt>
      <trkpt lat="43.56267" lon="3.17239">
        <ele>283.19043</ele>
        <time>2025-10-23T13:30:46Z</time>
      </trkpt>
      <trkpt lat="43.56269" lon="3.17237">
        <ele>283.265806</ele>
        <time>2025-10-23T13:30:47Z</time>
      </trkpt>
      <trkpt lat="43.56271" lon="3.17235">
        <ele>283.337478</ele>
        <time>2025-10-23T13:30:48Z</time>
      </trkpt>
      <trkpt lat="43.56273" lon="3.17233">
        <ele>283.408883</ele>
        <time>2025-10-23T13:30:49Z</time>
      </trkpt>
      <trkpt lat="43.56274" lon="3.17231">
        <ele>283.470901</ele>
        <time>2025-10-23T13:30:50Z</time>
      </trkpt>
      <trkpt lat="43.56276" lon="3.17228">
        <ele>283.536185</ele>
        <time>2025-10-23T13:30:51Z</time>
      </trkpt>
      <trkpt lat="43.56277" lon="3.17226">
        <ele>283.606728</ele>
        <time>2025-10-23T13:30:52Z</time>
      </trkpt>
      <trkpt lat="43.56279" lon="3.17224">
        <ele>283.674645</ele>
        <time>2025-10-23T13:30:53Z</time>
      </trkpt>
      <trkpt lat="43.56281" lon="3.17222">
        <ele>283.745021</ele>
        <time>2025-10-23T13:30:54Z</time>
      </trkpt>
      <trkpt lat="43.56283" lon="3.1722">
        <ele>283.814921</ele>
        <time>2025-10-23T13:30:55Z</time>
      </trkpt>
      <trkpt lat="43.56284" lon="3.17217">
        <ele>283.888856</ele>
        <time>2025-10-23T13:30:56Z</time>
      </trkpt>
      <trkpt lat="43.56285" lon="3.17214">
        <ele>283.95931</ele>
        <time>2025-10-23T13:30:57Z</time>
      </trkpt>
      <trkpt lat="43.56286" lon="3.17212">
        <ele>284.031891</ele>
        <time>2025-10-23T13:30:58Z</time>
      </trkpt>
      <trkpt lat="43.56287" lon="3.17209">
        <ele>284.10366</ele>
        <time>2025-10-23T13:30:59Z</time>
      </trkpt>
      <trkpt lat="43.56288" lon="3.17206">
        <ele>284.173136</ele>
        <time>2025-10-23T13:31:00Z</time>
      </trkpt>
      <trkpt lat="43.56289" lon="3.17203">
        <ele>284.239568</ele>
        <time>2025-10-23T13:31:01Z</time>
      </trkpt>
      <trkpt lat="43.56289" lon="3.17199">
        <ele>284.310715</ele>
        <time>2025-10-23T13:31:02Z</time>
      </trkpt>
      <trkpt lat="43.5629" lon="3.17196">
        <ele>284.390952</ele>
        <time>2025-10-23T13:31:03Z</time>
      </trkpt>
      <trkpt lat="43.56291" lon="3.17193">
        <ele>284.518097</ele>
        <time>2025-10-23T13:31:04Z</time>
      </trkpt>
      <trkpt lat="43.56292" lon="3.1719">
        <ele>284.629853</ele>
        <time>2025-10-23T13:31:05Z</time>
      </trkpt>
      <trkpt lat="43.56293" lon="3.17187">
        <ele>284.741373</ele>
        <time>2025-10-23T13:31:06Z</time>
      </trkpt>
      <trkpt lat="43.56294" lon="3.17184">
        <ele>284.858548</ele>
        <time>2025-10-23T13:31:07Z</time>
      </trkpt>
      <trkpt lat="43.56295" lon="3.17181">
        <ele>284.975615</ele>
        <time>2025-10-23T13:31:08Z</time>
      </trkpt>
      <trkpt lat="43.56295" lon="3.17178">
        <ele>285.09621</ele>
        <time>2025-10-23T13:31:09Z</time>
      </trkpt>
      <trkpt lat="43.56296" lon="3.17175">
        <ele>285.220013</ele>
        <time>2025-10-23T13:31:10Z</time>
      </trkpt>
      <trkpt lat="43.56297" lon="3.17172">
        <ele>285.345948</ele>
        <time>2025-10-23T13:31:11Z</time>
      </trkpt>
      <trkpt lat="43.56298" lon="3.17169">
        <ele>285.463122</ele>
        <time>2025-10-23T13:31:12Z</time>
      </trkpt>
      <trkpt lat="43.563" lon="3.17166">
        <ele>285.581809</ele>
        <time>2025-10-23T13:31:13Z</time>
      </trkpt>
      <trkpt lat="43.56301" lon="3.17163">
        <ele>285.717658</ele>
        <time>2025-10-23T13:31:14Z</time>
      </trkpt>
      <trkpt lat="43.56302" lon="3.17159">
        <ele>285.855637</ele>
        <time>2025-10-23T13:31:15Z</time>
      </trkpt>
      <trkpt lat="43.56303" lon="3.17156">
        <ele>285.994827</ele>
        <time>2025-10-23T13:31:16Z</time>
      </trkpt>
      <trkpt lat="43.56304" lon="3.17152">
        <ele>286.136095</ele>
        <time>2025-10-23T13:31:17Z</time>
      </trkpt>
      <trkpt lat="43.56306" lon="3.17149">
        <ele>286.284229</ele>
        <time>2025-10-23T13:31:18Z</time>
      </trkpt>
      <trkpt lat="43.56308" lon="3.17146">
        <ele>286.427674</ele>
        <time>2025-10-23T13:31:19Z</time>
      </trkpt>
      <trkpt lat="43.5631" lon="3.17143">
        <ele>286.573739</ele>
        <time>2025-10-23T13:31:20Z</time>
      </trkpt>
      <trkpt lat="43.56312" lon="3.17141">
        <ele>286.720762</ele>
        <time>2025-10-23T13:31:21Z</time>
      </trkpt>
      <trkpt lat="43.56314" lon="3.17139">
        <ele>286.859618</ele>
        <time>2025-10-23T13:31:22Z</time>
      </trkpt>
      <trkpt lat="43.56317" lon="3.17137">
        <ele>286.998855</ele>
        <time>2025-10-23T13:31:23Z</time>
      </trkpt>
      <trkpt lat="43.5632" lon="3.17137">
        <ele>287.137178</ele>
        <time>2025-10-23T13:31:24Z</time>
      </trkpt>
      <trkpt lat="43.56322" lon="3.17136">
        <ele>287.269353</ele>
        <time>2025-10-23T13:31:25Z</time>
      </trkpt>
      <trkpt lat="43.56325" lon="3.17136">
        <ele>287.405494</ele>
        <time>2025-10-23T13:31:26Z</time>
      </trkpt>
      <trkpt lat="43.56328" lon="3.17135">
        <ele>287.533258</ele>
        <time>2025-10-23T13:31:27Z</time>
      </trkpt>
      <trkpt lat="43.5633" lon="3.17134">
        <ele>287.648792</ele>
        <time>2025-10-23T13:31:28Z</time>
      </trkpt>
      <trkpt lat="43.56331" lon="3.17132">
        <ele>287.761268</ele>
        <time>2025-10-23T13:31:29Z</time>
      </trkpt>
      <trkpt lat="43.56332" lon="3.17129">
        <ele>287.878442</ele>
        <time>2025-10-23T13:31:30Z</time>
      </trkpt>
      <trkpt lat="43.56333" lon="3.17126">
        <ele>288.005586</ele>
        <time>2025-10-23T13:31:31Z</time>
      </trkpt>
      <trkpt lat="43.56334" lon="3.17123">
        <ele>288.115396</ele>
        <time>2025-10-23T13:31:32Z</time>
      </trkpt>
      <trkpt lat="43.56335" lon="3.17121">
        <ele>288.2316</ele>
        <time>2025-10-23T13:31:33Z</time>
      </trkpt>
      <trkpt lat="43.56336" lon="3.17118">
        <ele>288.348774</ele>
        <time>2025-10-23T13:31:34Z</time>
      </trkpt>
      <trkpt lat="43.56337" lon="3.17115">
        <ele>288.470727</ele>
        <time>2025-10-23T13:31:35Z</time>
      </trkpt>
      <trkpt lat="43.56338" lon="3.17111">
        <ele>288.597684</ele>
        <time>2025-10-23T13:31:36Z</time>
      </trkpt>
      <trkpt lat="43.56338" lon="3.17108">
        <ele>288.728904</ele>
        <time>2025-10-23T13:31:37Z</time>
      </trkpt>
      <trkpt lat="43.56339" lon="3.17104">
        <ele>288.864894</ele>
        <time>2025-10-23T13:31:38Z</time>
      </trkpt>
      <trkpt lat="43.5634" lon="3.17101">
        <ele>288.988396</ele>
        <time>2025-10-23T13:31:39Z</time>
      </trkpt>
      <trkpt lat="43.56341" lon="3.17098">
        <ele>289.118819</ele>
        <time>2025-10-23T13:31:40Z</time>
      </trkpt>
      <trkpt lat="43.56341" lon="3.17096">
        <ele>289.174464</ele>
        <time>2025-10-23T13:31:41Z</time>
      </trkpt>
      <trkpt lat="43.56341" lon="3.17096">
        <ele>289.180682</ele>
        <time>2025-10-23T13:31:42Z</time>
      </trkpt>
      <trkpt lat="43.56341" lon="3.17096">
        <ele>289.185717</ele>
        <time>2025-10-23T13:31:43Z</time>
      </trkpt>
      <trkpt lat="43.56341" lon="3.17096">
        <ele>289.189365</ele>
        <time>2025-10-23T13:31:44Z</time>
      </trkpt>
      <trkpt lat="43.56341" lon="3.17096">
        <ele>289.1944</ele>
        <time>2025-10-23T13:31:45Z</time>
      </trkpt>
      <trkpt lat="43.56341" lon="3.17096">
        <ele>289.1944</ele>
        <time>2025-10-23T13:31:46Z</time>
      </trkpt>
      <trkpt lat="43.56341" lon="3.17096">
        <ele>289.1944</ele>
        <time>2025-10-23T13:31:47Z</time>
      </trkpt>
      <trkpt lat="43.56341" lon="3.17096">
        <ele>289.1944</ele>
        <time>2025-10-23T13:31:48Z</time>
      </trkpt>
      <trkpt lat="43.56341" lon="3.17096">
        <ele>289.1944</ele>
        <time>2025-10-23T13:31:50Z</time>
      </trkpt>
      <trkpt lat="43.56341" lon="3.17096">
        <ele>289.1944</ele>
        <time>2025-10-23T13:31:51Z</time>
      </trkpt>
      <trkpt lat="43.56341" lon="3.17096">
        <ele>289.1944</ele>
        <time>2025-10-23T13:31:52Z</time>
      </trkpt>
      <trkpt lat="43.56341" lon="3.17096">
        <ele>289.198048</ele>
        <time>2025-10-23T13:31:53Z</time>
      </trkpt>
      <trkpt lat="43.56341" lon="3.17096">
        <ele>289.204266</ele>
        <time>2025-10-23T13:31:54Z</time>
      </trkpt>
      <trkpt lat="43.56341" lon="3.17096">
        <ele>289.207915</ele>
        <time>2025-10-23T13:31:55Z</time>
      </trkpt>
      <trkpt lat="43.56341" lon="3.17095">
        <ele>289.240779</ele>
        <time>2025-10-23T13:31:56Z</time>
      </trkpt>
      <trkpt lat="43.56341" lon="3.17093">
        <ele>289.335772</ele>
        <time>2025-10-23T13:31:57Z</time>
      </trkpt>
      <trkpt lat="43.56341" lon="3.1709">
        <ele>289.438422</ele>
        <time>2025-10-23T13:31:58Z</time>
      </trkpt>
      <trkpt lat="43.56342" lon="3.17086">
        <ele>289.571301</ele>
        <time>2025-10-23T13:31:59Z</time>
      </trkpt>
      <trkpt lat="43.56342" lon="3.17083">
        <ele>289.699094</ele>
        <time>2025-10-23T13:32:00Z</time>
      </trkpt>
      <trkpt lat="43.56342" lon="3.1708">
        <ele>289.813975</ele>
        <time>2025-10-23T13:32:01Z</time>
      </trkpt>
      <trkpt lat="43.56343" lon="3.17076">
        <ele>289.935316</ele>
        <time>2025-10-23T13:32:02Z</time>
      </trkpt>
      <trkpt lat="43.56343" lon="3.17073">
        <ele>290.052499</ele>
        <time>2025-10-23T13:32:03Z</time>
      </trkpt>
      <trkpt lat="43.56343" lon="3.17069">
        <ele>290.191504</ele>
        <time>2025-10-23T13:32:04Z</time>
      </trkpt>
      <trkpt lat="43.56343" lon="3.17065">
        <ele>290.334148</ele>
        <time>2025-10-23T13:32:05Z</time>
      </trkpt>
      <trkpt lat="43.56343" lon="3.17062">
        <ele>290.461942</ele>
        <time>2025-10-23T13:32:06Z</time>
      </trkpt>
      <trkpt lat="43.56343" lon="3.17059">
        <ele>290.583284</ele>
        <time>2025-10-23T13:32:07Z</time>
      </trkpt>
      <trkpt lat="43.56343" lon="3.17056">
        <ele>290.692852</ele>
        <time>2025-10-23T13:32:08Z</time>
      </trkpt>
      <trkpt lat="43.56343" lon="3.17053">
        <ele>290.802421</ele>
        <time>2025-10-23T13:32:09Z</time>
      </trkpt>
      <trkpt lat="43.56342" lon="3.17049">
        <ele>290.919278</ele>
        <time>2025-10-23T13:32:10Z</time>
      </trkpt>
      <trkpt lat="43.56343" lon="3.17047">
        <ele>291.021929</ele>
        <time>2025-10-23T13:32:11Z</time>
      </trkpt>
      <trkpt lat="43.56343" lon="3.17043">
        <ele>291.142524</ele>
        <time>2025-10-23T13:32:12Z</time>
      </trkpt>
      <trkpt lat="43.56344" lon="3.1704">
        <ele>291.267974</ele>
        <time>2025-10-23T13:32:13Z</time>
      </trkpt>
      <trkpt lat="43.56345" lon="3.17037">
        <ele>291.388569</ele>
        <time>2025-10-23T13:32:14Z</time>
      </trkpt>
      <trkpt lat="43.56345" lon="3.17034">
        <ele>291.498379</ele>
        <time>2025-10-23T13:32:15Z</time>
      </trkpt>
      <trkpt lat="43.56346" lon="3.17031">
        <ele>291.598924</ele>
        <time>2025-10-23T13:32:16Z</time>
      </trkpt>
      <trkpt lat="43.56347" lon="3.17028">
        <ele>291.717386</ele>
        <time>2025-10-23T13:32:17Z</time>
      </trkpt>
      <trkpt lat="43.56347" lon="3.17025">
        <ele>291.830931</ele>
        <time>2025-10-23T13:32:18Z</time>
      </trkpt>
      <trkpt lat="43.56348" lon="3.17022">
        <ele>291.942451</ele>
        <time>2025-10-23T13:32:19Z</time>
      </trkpt>
      <trkpt lat="43.56349" lon="3.1702">
        <ele>292.047578</ele>
        <time>2025-10-23T13:32:20Z</time>
      </trkpt>
      <trkpt lat="43.5635" lon="3.17017">
        <ele>292.156008</ele>
        <time>2025-10-23T13:32:21Z</time>
      </trkpt>
      <trkpt lat="43.56351" lon="3.17014">
        <ele>292.283539</ele>
        <time>2025-10-23T13:32:22Z</time>
      </trkpt>
      <trkpt lat="43.56352" lon="3.17011">
        <ele>292.404669</ele>
        <time>2025-10-23T13:32:23Z</time>
      </trkpt>
      <trkpt lat="43.56353" lon="3.17009">
        <ele>292.515298</ele>
        <time>2025-10-23T13:32:24Z</time>
      </trkpt>
      <trkpt lat="43.56355" lon="3.17007">
        <ele>292.612818</ele>
        <time>2025-10-23T13:32:25Z</time>
      </trkpt>
      <trkpt lat="43.56356" lon="3.17004">
        <ele>292.71924</ele>
        <time>2025-10-23T13:32:26Z</time>
      </trkpt>
      <trkpt lat="43.56357" lon="3.17002">
        <ele>292.83449</ele>
        <time>2025-10-23T13:32:27Z</time>
      </trkpt>
      <trkpt lat="43.56359" lon="3.16999">
        <ele>292.949764</ele>
        <time>2025-10-23T13:32:28Z</time>
      </trkpt>
      <trkpt lat="43.5636" lon="3.16997">
        <ele>293.062174</ele>
        <time>2025-10-23T13:32:29Z</time>
      </trkpt>
      <trkpt lat="43.56361" lon="3.16995">
        <ele>293.160198</ele>
        <time>2025-10-23T13:32:30Z</time>
      </trkpt>
      <trkpt lat="43.56362" lon="3.16992">
        <ele>293.266907</ele>
        <time>2025-10-23T13:32:31Z</time>
      </trkpt>
      <trkpt lat="43.56364" lon="3.1699">
        <ele>293.370309</ele>
        <time>2025-10-23T13:32:32Z</time>
      </trkpt>
      <trkpt lat="43.56365" lon="3.16988">
        <ele>293.47234</ele>
        <time>2025-10-23T13:32:33Z</time>
      </trkpt>
      <trkpt lat="43.56366" lon="3.16986">
        <ele>293.574513</ele>
        <time>2025-10-23T13:32:34Z</time>
      </trkpt>
      <trkpt lat="43.56368" lon="3.16983">
        <ele>293.676686</ele>
        <time>2025-10-23T13:32:35Z</time>
      </trkpt>
      <trkpt lat="43.56369" lon="3.16981">
        <ele>293.775719</ele>
        <time>2025-10-23T13:32:36Z</time>
      </trkpt>
      <trkpt lat="43.5637" lon="3.16979">
        <ele>293.86893</ele>
        <time>2025-10-23T13:32:37Z</time>
      </trkpt>
      <trkpt lat="43.56371" lon="3.16977">
        <ele>293.962569</ele>
        <time>2025-10-23T13:32:38Z</time>
      </trkpt>
      <trkpt lat="43.56373" lon="3.16974">
        <ele>294.052976</ele>
        <time>2025-10-23T13:32:39Z</time>
      </trkpt>
      <trkpt lat="43.56374" lon="3.16972">
        <ele>294.146615</ele>
        <time>2025-10-23T13:32:40Z</time>
      </trkpt>
      <trkpt lat="43.56375" lon="3.1697">
        <ele>294.242667</ele>
        <time>2025-10-23T13:32:41Z</time>
      </trkpt>
      <trkpt lat="43.56376" lon="3.16967">
        <ele>294.349799</ele>
        <time>2025-10-23T13:32:42Z</time>
      </trkpt>
      <trkpt lat="43.56377" lon="3.16964">
        <ele>294.456504</ele>
        <time>2025-10-23T13:32:43Z</time>
      </trkpt>
      <trkpt lat="43.56378" lon="3.16961">
        <ele>294.557026</ele>
        <time>2025-10-23T13:32:44Z</time>
      </trkpt>
      <trkpt lat="43.56379" lon="3.16959">
        <ele>294.653043</ele>
        <time>2025-10-23T13:32:45Z</time>
      </trkpt>
      <trkpt lat="43.56381" lon="3.16957">
        <ele>294.75847</ele>
        <time>2025-10-23T13:32:46Z</time>
      </trkpt>
      <trkpt lat="43.56382" lon="3.16955">
        <ele>294.856997</ele>
        <time>2025-10-23T13:32:47Z</time>
      </trkpt>
      <trkpt lat="43.56384" lon="3.16953">
        <ele>294.960065</ele>
        <time>2025-10-23T13:32:48Z</time>
      </trkpt>
      <trkpt lat="43.56385" lon="3.16951">
        <ele>295.056582</ele>
        <time>2025-10-23T13:32:49Z</time>
      </trkpt>
      <trkpt lat="43.56386" lon="3.16949">
        <ele>295.146989</ele>
        <time>2025-10-23T13:32:50Z</time>
      </trkpt>
      <trkpt lat="43.56387" lon="3.16947">
        <ele>295.232237</ele>
        <time>2025-10-23T13:32:51Z</time>
      </trkpt>
      <trkpt lat="43.56388" lon="3.16945">
        <ele>295.309014</ele>
        <time>2025-10-23T13:32:52Z</time>
      </trkpt>
      <trkpt lat="43.56389" lon="3.16943">
        <ele>295.385365</ele>
        <time>2025-10-23T13:32:53Z</time>
      </trkpt>
      <trkpt lat="43.5639" lon="3.16941">
        <ele>295.457459</ele>
        <time>2025-10-23T13:32:54Z</time>
      </trkpt>
      <trkpt lat="43.5639" lon="3.16939">
        <ele>295.538727</ele>
        <time>2025-10-23T13:32:55Z</time>
      </trkpt>
      <trkpt lat="43.56391" lon="3.16936">
        <ele>295.631164</ele>
        <time>2025-10-23T13:32:56Z</time>
      </trkpt>
      <trkpt lat="43.56392" lon="3.16934">
        <ele>295.720517</ele>
        <time>2025-10-23T13:32:57Z</time>
      </trkpt>
      <trkpt lat="43.56393" lon="3.16931">
        <ele>295.811918</ele>
        <time>2025-10-23T13:32:58Z</time>
      </trkpt>
      <trkpt lat="43.56394" lon="3.16929">
        <ele>295.90891</ele>
        <time>2025-10-23T13:32:59Z</time>
      </trkpt>
      <trkpt lat="43.56395" lon="3.16926">
        <ele>296.010743</ele>
        <time>2025-10-23T13:33:00Z</time>
      </trkpt>
      <trkpt lat="43.56396" lon="3.16923">
        <ele>296.108202</ele>
        <time>2025-10-23T13:33:01Z</time>
      </trkpt>
      <trkpt lat="43.56396" lon="3.16921">
        <ele>296.203742</ele>
        <time>2025-10-23T13:33:02Z</time>
      </trkpt>
      <trkpt lat="43.56397" lon="3.16918">
        <ele>296.29816</ele>
        <time>2025-10-23T13:33:03Z</time>
      </trkpt>
      <trkpt lat="43.56398" lon="3.16916">
        <ele>296.380348</ele>
        <time>2025-10-23T13:33:04Z</time>
      </trkpt>
      <trkpt lat="43.564" lon="3.16914">
        <ele>296.481697</ele>
        <time>2025-10-23T13:33:05Z</time>
      </trkpt>
      <trkpt lat="43.56401" lon="3.16912">
        <ele>296.577714</ele>
        <time>2025-10-23T13:33:06Z</time>
      </trkpt>
      <trkpt lat="43.56402" lon="3.1691">
        <ele>296.672752</ele>
        <time>2025-10-23T13:33:07Z</time>
      </trkpt>
      <trkpt lat="43.56403" lon="3.16908">
        <ele>296.752395</ele>
        <time>2025-10-23T13:33:08Z</time>
      </trkpt>
      <trkpt lat="43.56404" lon="3.16906">
        <ele>296.838686</ele>
        <time>2025-10-23T13:33:09Z</time>
      </trkpt>
      <trkpt lat="43.56405" lon="3.16903">
        <ele>296.924557</ele>
        <time>2025-10-23T13:33:10Z</time>
      </trkpt>
      <trkpt lat="43.56406" lon="3.16901">
        <ele>296.998526</ele>
        <time>2025-10-23T13:33:11Z</time>
      </trkpt>
      <trkpt lat="43.56407" lon="3.169">
        <ele>297.075242</ele>
        <time>2025-10-23T13:33:12Z</time>
      </trkpt>
      <trkpt lat="43.56408" lon="3.16897">
        <ele>297.160693</ele>
        <time>2025-10-23T13:33:13Z</time>
      </trkpt>
      <trkpt lat="43.56409" lon="3.16896">
        <ele>297.234753</ele>
        <time>2025-10-23T13:33:14Z</time>
      </trkpt>
      <trkpt lat="43.5641" lon="3.16894">
        <ele>297.319746</ele>
        <time>2025-10-23T13:33:15Z</time>
      </trkpt>
      <trkpt lat="43.56411" lon="3.16892">
        <ele>297.40474</ele>
        <time>2025-10-23T13:33:16Z</time>
      </trkpt>
      <trkpt lat="43.56412" lon="3.1689">
        <ele>297.502734</ele>
        <time>2025-10-23T13:33:17Z</time>
      </trkpt>
      <trkpt lat="43.56414" lon="3.16888">
        <ele>297.600729</ele>
        <time>2025-10-23T13:33:18Z</time>
      </trkpt>
      <trkpt lat="43.56416" lon="3.16886">
        <ele>297.706508</ele>
        <time>2025-10-23T13:33:19Z</time>
      </trkpt>
      <trkpt lat="43.56418" lon="3.16885">
        <ele>297.807046</ele>
        <time>2025-10-23T13:33:20Z</time>
      </trkpt>
      <trkpt lat="43.5642" lon="3.16883">
        <ele>297.928833</ele>
        <time>2025-10-23T13:33:21Z</time>
      </trkpt>
      <trkpt lat="43.56423" lon="3.16882">
        <ele>298.063466</ele>
        <time>2025-10-23T13:33:22Z</time>
      </trkpt>
      <trkpt lat="43.56425" lon="3.1688">
        <ele>298.189402</ele>
        <time>2025-10-23T13:33:23Z</time>
      </trkpt>
      <trkpt lat="43.56428" lon="3.16879">
        <ele>298.323598</ele>
        <time>2025-10-23T13:33:24Z</time>
      </trkpt>
      <trkpt lat="43.56431" lon="3.16879">
        <ele>298.446133</ele>
        <time>2025-10-23T13:33:25Z</time>
      </trkpt>
      <trkpt lat="43.56433" lon="3.16879">
        <ele>298.558974</ele>
        <time>2025-10-23T13:33:26Z</time>
      </trkpt>
      <trkpt lat="43.56435" lon="3.16878">
        <ele>298.672825</ele>
        <time>2025-10-23T13:33:27Z</time>
      </trkpt>
      <trkpt lat="43.56438" lon="3.16877">
        <ele>298.788914</ele>
        <time>2025-10-23T13:33:28Z</time>
      </trkpt>
      <trkpt lat="43.5644" lon="3.16876">
        <ele>298.907986</ele>
        <time>2025-10-23T13:33:29Z</time>
      </trkpt>
      <trkpt lat="43.56443" lon="3.16876">
        <ele>299.027059</ele>
        <time>2025-10-23T13:33:30Z</time>
      </trkpt>
      <trkpt lat="43.56445" lon="3.16875">
        <ele>299.140355</ele>
        <time>2025-10-23T13:33:31Z</time>
      </trkpt>
      <trkpt lat="43.56447" lon="3.16875">
        <ele>299.238902</ele>
        <time>2025-10-23T13:33:32Z</time>
      </trkpt>
      <trkpt lat="43.56449" lon="3.16874">
        <ele>299.334439</ele>
        <time>2025-10-23T13:33:33Z</time>
      </trkpt>
      <trkpt lat="43.56452" lon="3.16873">
        <ele>299.449214</ele>
        <time>2025-10-23T13:33:34Z</time>
      </trkpt>
      <trkpt lat="43.56454" lon="3.16872">
        <ele>299.568366</ele>
        <time>2025-10-23T13:33:35Z</time>
      </trkpt>
      <trkpt lat="43.56457" lon="3.1687">
        <ele>299.71619</ele>
        <time>2025-10-23T13:33:36Z</time>
      </trkpt>
      <trkpt lat="43.5646" lon="3.16869">
        <ele>299.858977</ele>
        <time>2025-10-23T13:33:37Z</time>
      </trkpt>
      <trkpt lat="43.56462" lon="3.16867">
        <ele>299.992196</ele>
        <time>2025-10-23T13:33:38Z</time>
      </trkpt>
      <trkpt lat="43.56465" lon="3.16865">
        <ele>300.123062</ele>
        <time>2025-10-23T13:33:39Z</time>
      </trkpt>
      <trkpt lat="43.56467" lon="3.16863">
        <ele>300.240273</ele>
        <time>2025-10-23T13:33:40Z</time>
      </trkpt>
      <trkpt lat="43.56469" lon="3.16861">
        <ele>300.349915</ele>
        <time>2025-10-23T13:33:41Z</time>
      </trkpt>
      <trkpt lat="43.56471" lon="3.16859">
        <ele>300.48826</ele>
        <time>2025-10-23T13:33:42Z</time>
      </trkpt>
      <trkpt lat="43.56474" lon="3.16856">
        <ele>300.640143</ele>
        <time>2025-10-23T13:33:43Z</time>
      </trkpt>
      <trkpt lat="43.56476" lon="3.16853">
        <ele>300.795913</ele>
        <time>2025-10-23T13:33:44Z</time>
      </trkpt>
      <trkpt lat="43.56478" lon="3.16849">
        <ele>300.957798</ele>
        <time>2025-10-23T13:33:45Z</time>
      </trkpt>
      <trkpt lat="43.56481" lon="3.16846">
        <ele>301.120781</ele>
        <time>2025-10-23T13:33:46Z</time>
      </trkpt>
      <trkpt lat="43.56483" lon="3.16843">
        <ele>301.281164</ele>
        <time>2025-10-23T13:33:47Z</time>
      </trkpt>
      <trkpt lat="43.56486" lon="3.16839">
        <ele>301.436031</ele>
        <time>2025-10-23T13:33:48Z</time>
      </trkpt>
      <trkpt lat="43.56488" lon="3.16836">
        <ele>301.593353</ele>
        <time>2025-10-23T13:33:49Z</time>
      </trkpt>
      <trkpt lat="43.5649" lon="3.16833">
        <ele>301.744501</ele>
        <time>2025-10-23T13:33:50Z</time>
      </trkpt>
      <trkpt lat="43.56493" lon="3.1683">
        <ele>301.892574</ele>
        <time>2025-10-23T13:33:51Z</time>
      </trkpt>
      <trkpt lat="43.56495" lon="3.16827">
        <ele>302.033935</ele>
        <time>2025-10-23T13:33:52Z</time>
      </trkpt>
      <trkpt lat="43.56497" lon="3.16824">
        <ele>302.158887</ele>
        <time>2025-10-23T13:33:53Z</time>
      </trkpt>
      <trkpt lat="43.56498" lon="3.16821">
        <ele>302.286367</ele>
        <time>2025-10-23T13:33:54Z</time>
      </trkpt>
      <trkpt lat="43.56501" lon="3.16819">
        <ele>302.424743</ele>
        <time>2025-10-23T13:33:55Z</time>
      </trkpt>
      <trkpt lat="43.56503" lon="3.16816">
        <ele>302.564482</ele>
        <time>2025-10-23T13:33:56Z</time>
      </trkpt>
      <trkpt lat="43.56505" lon="3.16814">
        <ele>302.696012</ele>
        <time>2025-10-23T13:33:57Z</time>
      </trkpt>
      <trkpt lat="43.56507" lon="3.16812">
        <ele>302.825633</ele>
        <time>2025-10-23T13:33:58Z</time>
      </trkpt>
      <trkpt lat="43.5651" lon="3.1681">
        <ele>302.949454</ele>
        <time>2025-10-23T13:33:59Z</time>
      </trkpt>
      <trkpt lat="43.56512" lon="3.16808">
        <ele>303.06168</ele>
        <time>2025-10-23T13:34:00Z</time>
      </trkpt>
      <trkpt lat="43.56514" lon="3.16807">
        <ele>303.171296</ele>
        <time>2025-10-23T13:34:01Z</time>
      </trkpt>
      <trkpt lat="43.56516" lon="3.16805">
        <ele>303.296864</ele>
        <time>2025-10-23T13:34:02Z</time>
      </trkpt>
      <trkpt lat="43.56519" lon="3.16805">
        <ele>303.425988</ele>
        <time>2025-10-23T13:34:03Z</time>
      </trkpt>
      <trkpt lat="43.56522" lon="3.16805">
        <ele>303.562292</ele>
        <time>2025-10-23T13:34:04Z</time>
      </trkpt>
      <trkpt lat="43.56524" lon="3.16806">
        <ele>303.685623</ele>
        <time>2025-10-23T13:34:05Z</time>
      </trkpt>
      <trkpt lat="43.56527" lon="3.16808">
        <ele>303.807604</ele>
        <time>2025-10-23T13:34:06Z</time>
      </trkpt>
      <trkpt lat="43.56529" lon="3.1681">
        <ele>303.936745</ele>
        <time>2025-10-23T13:34:07Z</time>
      </trkpt>
      <trkpt lat="43.56531" lon="3.16812">
        <ele>304.052936</ele>
        <time>2025-10-23T13:34:08Z</time>
      </trkpt>
      <trkpt lat="43.56533" lon="3.16814">
        <ele>304.188161</ele>
        <time>2025-10-23T13:34:09Z</time>
      </trkpt>
      <trkpt lat="43.56536" lon="3.16815">
        <ele>304.311993</ele>
        <time>2025-10-23T13:34:10Z</time>
      </trkpt>
      <trkpt lat="43.56538" lon="3.16816">
        <ele>304.424476</ele>
        <time>2025-10-23T13:34:11Z</time>
      </trkpt>
      <trkpt lat="43.56541" lon="3.16818">
        <ele>304.566915</ele>
        <time>2025-10-23T13:34:12Z</time>
      </trkpt>
      <trkpt lat="43.56544" lon="3.1682">
        <ele>304.71637</ele>
        <time>2025-10-23T13:34:13Z</time>
      </trkpt>
      <trkpt lat="43.56546" lon="3.16821">
        <ele>304.861933</ele>
        <time>2025-10-23T13:34:14Z</time>
      </trkpt>
      <trkpt lat="43.56549" lon="3.16823">
        <ele>305.020039</ele>
        <time>2025-10-23T13:34:15Z</time>
      </trkpt>
      <trkpt lat="43.56553" lon="3.16825">
        <ele>305.1881</ele>
        <time>2025-10-23T13:34:16Z</time>
      </trkpt>
      <trkpt lat="43.56556" lon="3.16827">
        <ele>305.347527</ele>
        <time>2025-10-23T13:34:17Z</time>
      </trkpt>
      <trkpt lat="43.56559" lon="3.16829">
        <ele>305.491555</ele>
        <time>2025-10-23T13:34:18Z</time>
      </trkpt>
      <trkpt lat="43.56561" lon="3.16831">
        <ele>305.634004</ele>
        <time>2025-10-23T13:34:19Z</time>
      </trkpt>
      <trkpt lat="43.56564" lon="3.16833">
        <ele>305.772283</ele>
        <time>2025-10-23T13:34:20Z</time>
      </trkpt>
      <trkpt lat="43.56567" lon="3.16835">
        <ele>305.92372</ele>
        <time>2025-10-23T13:34:21Z</time>
      </trkpt>
      <trkpt lat="43.5657" lon="3.16837">
        <ele>306.07926</ele>
        <time>2025-10-23T13:34:22Z</time>
      </trkpt>
      <trkpt lat="43.56573" lon="3.1684">
        <ele>306.241571</ele>
        <time>2025-10-23T13:34:23Z</time>
      </trkpt>
      <trkpt lat="43.56575" lon="3.16841">
        <ele>306.388223</ele>
        <time>2025-10-23T13:34:24Z</time>
      </trkpt>
      <trkpt lat="43.56578" lon="3.16843">
        <ele>306.52771</ele>
        <time>2025-10-23T13:34:25Z</time>
      </trkpt>
      <trkpt lat="43.56581" lon="3.16844">
        <ele>306.652117</ele>
        <time>2025-10-23T13:34:26Z</time>
      </trkpt>
      <trkpt lat="43.56583" lon="3.16846">
        <ele>306.781641</ele>
        <time>2025-10-23T13:34:27Z</time>
      </trkpt>
      <trkpt lat="43.56585" lon="3.16846">
        <ele>306.8906</ele>
        <time>2025-10-23T13:34:28Z</time>
      </trkpt>
      <trkpt lat="43.56587" lon="3.16848">
        <ele>307.002825</ele>
        <time>2025-10-23T13:34:29Z</time>
      </trkpt>
      <trkpt lat="43.56589" lon="3.1685">
        <ele>307.113226</ele>
        <time>2025-10-23T13:34:30Z</time>
      </trkpt>
      <trkpt lat="43.56591" lon="3.16851">
        <ele>307.20994</ele>
        <time>2025-10-23T13:34:31Z</time>
      </trkpt>
      <trkpt lat="43.56593" lon="3.16853">
        <ele>307.306655</ele>
        <time>2025-10-23T13:34:32Z</time>
      </trkpt>
      <trkpt lat="43.56595" lon="3.16854">
        <ele>307.41627</ele>
        <time>2025-10-23T13:34:33Z</time>
      </trkpt>
      <trkpt lat="43.56597" lon="3.16855">
        <ele>307.531566</ele>
        <time>2025-10-23T13:34:34Z</time>
      </trkpt>
      <trkpt lat="43.56599" lon="3.16855">
        <ele>307.630504</ele>
        <time>2025-10-23T13:34:35Z</time>
      </trkpt>
      <trkpt lat="43.56602" lon="3.16854">
        <ele>307.764898</ele>
        <time>2025-10-23T13:34:36Z</time>
      </trkpt>
      <trkpt lat="43.56605" lon="3.16853">
        <ele>307.89735</ele>
        <time>2025-10-23T13:34:37Z</time>
      </trkpt>
      <trkpt lat="43.56607" lon="3.16851">
        <ele>308.031492</ele>
        <time>2025-10-23T13:34:38Z</time>
      </trkpt>
      <trkpt lat="43.5661" lon="3.16849">
        <ele>308.159265</ele>
        <time>2025-10-23T13:34:39Z</time>
      </trkpt>
      <trkpt lat="43.56611" lon="3.16847">
        <ele>308.263742</ele>
        <time>2025-10-23T13:34:40Z</time>
      </trkpt>
      <trkpt lat="43.56613" lon="3.16845">
        <ele>308.37206</ele>
        <time>2025-10-23T13:34:41Z</time>
      </trkpt>
      <trkpt lat="43.56615" lon="3.16843">
        <ele>308.476857</ele>
        <time>2025-10-23T13:34:42Z</time>
      </trkpt>
      <trkpt lat="43.56615" lon="3.1684">
        <ele>308.582536</ele>
        <time>2025-10-23T13:34:43Z</time>
      </trkpt>
      <trkpt lat="43.56617" lon="3.16837">
        <ele>308.684837</ele>
        <time>2025-10-23T13:34:44Z</time>
      </trkpt>
      <trkpt lat="43.56618" lon="3.16835">
        <ele>308.787138</ele>
        <time>2025-10-23T13:34:45Z</time>
      </trkpt>
      <trkpt lat="43.56619" lon="3.16833">
        <ele>308.892122</ele>
        <time>2025-10-23T13:34:46Z</time>
      </trkpt>
      <trkpt lat="43.56621" lon="3.1683">
        <ele>309.002524</ele>
        <time>2025-10-23T13:34:47Z</time>
      </trkpt>
      <trkpt lat="43.56622" lon="3.16828">
        <ele>309.085616</ele>
        <time>2025-10-23T13:34:48Z</time>
      </trkpt>
      <trkpt lat="43.56623" lon="3.16826">
        <ele>309.171196</ele>
        <time>2025-10-23T13:34:49Z</time>
      </trkpt>
      <trkpt lat="43.56624" lon="3.16824">
        <ele>309.262279</ele>
        <time>2025-10-23T13:34:50Z</time>
      </trkpt>
      <trkpt lat="43.56624" lon="3.16822">
        <ele>309.335998</ele>
        <time>2025-10-23T13:34:51Z</time>
      </trkpt>
      <trkpt lat="43.56625" lon="3.16819">
        <ele>309.428031</ele>
        <time>2025-10-23T13:34:52Z</time>
      </trkpt>
      <trkpt lat="43.56626" lon="3.16817">
        <ele>309.511861</ele>
        <time>2025-10-23T13:34:53Z</time>
      </trkpt>
      <trkpt lat="43.56627" lon="3.16815">
        <ele>309.594686</ele>
        <time>2025-10-23T13:34:54Z</time>
      </trkpt>
      <trkpt lat="43.56628" lon="3.16813">
        <ele>309.680524</ele>
        <time>2025-10-23T13:34:55Z</time>
      </trkpt>
      <trkpt lat="43.5663" lon="3.16811">
        <ele>309.771752</ele>
        <time>2025-10-23T13:34:56Z</time>
      </trkpt>
      <trkpt lat="43.56631" lon="3.1681">
        <ele>309.860749</ele>
        <time>2025-10-23T13:34:57Z</time>
      </trkpt>
      <trkpt lat="43.56633" lon="3.16808">
        <ele>309.943999</ele>
        <time>2025-10-23T13:34:58Z</time>
      </trkpt>
      <trkpt lat="43.56634" lon="3.16807">
        <ele>310.02725</ele>
        <time>2025-10-23T13:34:59Z</time>
      </trkpt>
      <trkpt lat="43.56635" lon="3.16806">
        <ele>310.096902</ele>
        <time>2025-10-23T13:35:00Z</time>
      </trkpt>
      <trkpt lat="43.56637" lon="3.16804">
        <ele>310.182336</ele>
        <time>2025-10-23T13:35:01Z</time>
      </trkpt>
      <trkpt lat="43.56638" lon="3.16803">
        <ele>310.271379</ele>
        <time>2025-10-23T13:35:02Z</time>
      </trkpt>
      <trkpt lat="43.5664" lon="3.16802">
        <ele>310.350576</ele>
        <time>2025-10-23T13:35:03Z</time>
      </trkpt>
      <trkpt lat="43.56641" lon="3.16801">
        <ele>310.42637</ele>
        <time>2025-10-23T13:35:04Z</time>
      </trkpt>
      <trkpt lat="43.56643" lon="3.168">
        <ele>310.500376</ele>
        <time>2025-10-23T13:35:05Z</time>
      </trkpt>
      <trkpt lat="43.56644" lon="3.16799">
        <ele>310.575268</ele>
        <time>2025-10-23T13:35:06Z</time>
      </trkpt>
      <trkpt lat="43.56646" lon="3.16799">
        <ele>310.655735</ele>
        <time>2025-10-23T13:35:07Z</time>
      </trkpt>
      <trkpt lat="43.56647" lon="3.16798">
        <ele>310.72512</ele>
        <time>2025-10-23T13:35:08Z</time>
      </trkpt>
      <trkpt lat="43.56648" lon="3.16798">
        <ele>310.790616</ele>
        <time>2025-10-23T13:35:09Z</time>
      </trkpt>
      <trkpt lat="43.5665" lon="3.16797">
        <ele>310.852559</ele>
        <time>2025-10-23T13:35:10Z</time>
      </trkpt>
      <trkpt lat="43.56651" lon="3.16797">
        <ele>310.905479</ele>
        <time>2025-10-23T13:35:11Z</time>
      </trkpt>
      <trkpt lat="43.56652" lon="3.16796">
        <ele>310.977746</ele>
        <time>2025-10-23T13:35:12Z</time>
      </trkpt>
      <trkpt lat="43.56654" lon="3.16796">
        <ele>311.070559</ele>
        <time>2025-10-23T13:35:13Z</time>
      </trkpt>
      <trkpt lat="43.56656" lon="3.16796">
        <ele>311.162837</ele>
        <time>2025-10-23T13:35:14Z</time>
      </trkpt>
      <trkpt lat="43.56658" lon="3.16796">
        <ele>311.264815</ele>
        <time>2025-10-23T13:35:15Z</time>
      </trkpt>
      <trkpt lat="43.5666" lon="3.16795">
        <ele>311.386958</ele>
        <time>2025-10-23T13:35:16Z</time>
      </trkpt>
      <trkpt lat="43.56663" lon="3.16795">
        <ele>311.489842</ele>
        <time>2025-10-23T13:35:17Z</time>
      </trkpt>
      <trkpt lat="43.56665" lon="3.16795">
        <ele>311.592304</ele>
        <time>2025-10-23T13:35:18Z</time>
      </trkpt>
      <trkpt lat="43.56667" lon="3.16795">
        <ele>311.694221</ele>
        <time>2025-10-23T13:35:19Z</time>
      </trkpt>
      <trkpt lat="43.56668" lon="3.16795">
        <ele>311.76778</ele>
        <time>2025-10-23T13:35:20Z</time>
      </trkpt>
      <trkpt lat="43.5667" lon="3.16795">
        <ele>311.831748</ele>
        <time>2025-10-23T13:35:21Z</time>
      </trkpt>
      <trkpt lat="43.56671" lon="3.16795">
        <ele>311.916105</ele>
        <time>2025-10-23T13:35:22Z</time>
      </trkpt>
      <trkpt lat="43.56673" lon="3.16795">
        <ele>312.022876</ele>
        <time>2025-10-23T13:35:23Z</time>
      </trkpt>
      <trkpt lat="43.56676" lon="3.16795">
        <ele>312.144257</ele>
        <time>2025-10-23T13:35:24Z</time>
      </trkpt>
      <trkpt lat="43.56678" lon="3.16795">
        <ele>312.256103</ele>
        <time>2025-10-23T13:35:25Z</time>
      </trkpt>
      <trkpt lat="43.56681" lon="3.16795">
        <ele>312.367782</ele>
        <time>2025-10-23T13:35:26Z</time>
      </trkpt>
      <trkpt lat="43.56683" lon="3.16795">
        <ele>312.46976</ele>
        <time>2025-10-23T13:35:27Z</time>
      </trkpt>
      <trkpt lat="43.56685" lon="3.16795">
        <ele>312.57192</ele>
        <time>2025-10-23T13:35:28Z</time>
      </trkpt>
      <trkpt lat="43.56687" lon="3.16794">
        <ele>312.679613</ele>
        <time>2025-10-23T13:35:29Z</time>
      </trkpt>
      <trkpt lat="43.56689" lon="3.16794">
        <ele>312.763971</ele>
        <time>2025-10-23T13:35:30Z</time>
      </trkpt>
      <trkpt lat="43.5669" lon="3.16794">
        <ele>312.84194</ele>
        <time>2025-10-23T13:35:31Z</time>
      </trkpt>
      <trkpt lat="43.56692" lon="3.16794">
        <ele>312.914738</ele>
        <time>2025-10-23T13:35:32Z</time>
      </trkpt>
      <trkpt lat="43.56694" lon="3.16794">
        <ele>313.011866</ele>
        <time>2025-10-23T13:35:33Z</time>
      </trkpt>
      <trkpt lat="43.56696" lon="3.16794">
        <ele>313.113845</ele>
        <time>2025-10-23T13:35:34Z</time>
      </trkpt>
      <trkpt lat="43.56698" lon="3.16794">
        <ele>313.215762</ele>
        <time>2025-10-23T13:35:35Z</time>
      </trkpt>
      <trkpt lat="43.567" lon="3.16794">
        <ele>313.322764</ele>
        <time>2025-10-23T13:35:36Z</time>
      </trkpt>
      <trkpt lat="43.56702" lon="3.16794">
        <ele>313.4316</ele>
        <time>2025-10-23T13:35:37Z</time>
      </trkpt>
      <trkpt lat="43.56704" lon="3.16795">
        <ele>313.521286</ele>
        <time>2025-10-23T13:35:38Z</time>
      </trkpt>
      <trkpt lat="43.56707" lon="3.16796">
        <ele>313.648689</ele>
        <time>2025-10-23T13:35:39Z</time>
      </trkpt>
      <trkpt lat="43.56709" lon="3.16797">
        <ele>313.767738</ele>
        <time>2025-10-23T13:35:40Z</time>
      </trkpt>
      <trkpt lat="43.56711" lon="3.16798">
        <ele>313.87675</ele>
        <time>2025-10-23T13:35:41Z</time>
      </trkpt>
      <trkpt lat="43.56713" lon="3.168">
        <ele>314.000872</ele>
        <time>2025-10-23T13:35:42Z</time>
      </trkpt>
      <trkpt lat="43.56715" lon="3.16802">
        <ele>314.111598</ele>
        <time>2025-10-23T13:35:43Z</time>
      </trkpt>
      <trkpt lat="43.56717" lon="3.16804">
        <ele>314.218757</ele>
        <time>2025-10-23T13:35:44Z</time>
      </trkpt>
      <trkpt lat="43.56718" lon="3.16806">
        <ele>314.326636</ele>
        <time>2025-10-23T13:35:45Z</time>
      </trkpt>
      <trkpt lat="43.5672" lon="3.16808">
        <ele>314.437362</ele>
        <time>2025-10-23T13:35:46Z</time>
      </trkpt>
      <trkpt lat="43.56722" lon="3.1681">
        <ele>314.545775</ele>
        <time>2025-10-23T13:35:47Z</time>
      </trkpt>
      <trkpt lat="43.56724" lon="3.16812">
        <ele>314.663799</ele>
        <time>2025-10-23T13:35:48Z</time>
      </trkpt>
      <trkpt lat="43.56725" lon="3.16815">
        <ele>314.777709</ele>
        <time>2025-10-23T13:35:49Z</time>
      </trkpt>
      <trkpt lat="43.56726" lon="3.16817">
        <ele>314.90016</ele>
        <time>2025-10-23T13:35:50Z</time>
      </trkpt>
      <trkpt lat="43.56728" lon="3.1682">
        <ele>315.016912</ele>
        <time>2025-10-23T13:35:51Z</time>
      </trkpt>
      <trkpt lat="43.56729" lon="3.16823">
        <ele>315.119452</ele>
        <time>2025-10-23T13:35:52Z</time>
      </trkpt>
      <trkpt lat="43.5673" lon="3.16825">
        <ele>315.219117</ele>
        <time>2025-10-23T13:35:53Z</time>
      </trkpt>
      <trkpt lat="43.56731" lon="3.16827">
        <ele>315.28879</ele>
        <time>2025-10-23T13:35:54Z</time>
      </trkpt>
      <trkpt lat="43.56732" lon="3.16827">
        <ele>315.328781</ele>
        <time>2025-10-23T13:35:55Z</time>
      </trkpt>
      <trkpt lat="43.56732" lon="3.16827">
        <ele>315.343661</ele>
        <time>2025-10-23T13:35:56Z</time>
      </trkpt>
      <trkpt lat="43.56732" lon="3.16827">
        <ele>315.347177</ele>
        <time>2025-10-23T13:35:57Z</time>
      </trkpt>
      <trkpt lat="43.56732" lon="3.16827">
        <ele>315.353171</ele>
        <time>2025-10-23T13:35:58Z</time>
      </trkpt>
      <trkpt lat="43.56731" lon="3.16827">
        <ele>315.364783</ele>
        <time>2025-10-23T13:35:59Z</time>
      </trkpt>
      <trkpt lat="43.56731" lon="3.16827">
        <ele>315.369636</ele>
        <time>2025-10-23T13:36:00Z</time>
      </trkpt>
      <trkpt lat="43.56731" lon="3.16827">
        <ele>315.373153</ele>
        <time>2025-10-23T13:36:01Z</time>
      </trkpt>
      <trkpt lat="43.56731" lon="3.16827">
        <ele>315.373153</ele>
        <time>2025-10-23T13:36:02Z</time>
      </trkpt>
      <trkpt lat="43.56731" lon="3.16827">
        <ele>315.373153</ele>
        <time>2025-10-23T13:36:03Z</time>
      </trkpt>
      <trkpt lat="43.56731" lon="3.16827">
        <ele>315.373153</ele>
        <time>2025-10-23T13:36:04Z</time>
      </trkpt>
      <trkpt lat="43.56731" lon="3.16827">
        <ele>315.373153</ele>
        <time>2025-10-23T13:36:05Z</time>
      </trkpt>
      <trkpt lat="43.56731" lon="3.16827">
        <ele>315.373153</ele>
        <time>2025-10-23T13:36:06Z</time>
      </trkpt>
      <trkpt lat="43.56731" lon="3.16827">
        <ele>315.379146</ele>
        <time>2025-10-23T13:36:07Z</time>
      </trkpt>
      <trkpt lat="43.56731" lon="3.16827">
        <ele>315.379146</ele>
        <time>2025-10-23T13:36:08Z</time>
      </trkpt>
      <trkpt lat="43.56731" lon="3.16827">
        <ele>315.379146</ele>
        <time>2025-10-23T13:36:09Z</time>
      </trkpt>
      <trkpt lat="43.56731" lon="3.16827">
        <ele>315.379146</ele>
        <time>2025-10-23T13:36:10Z</time>
      </trkpt>
      <trkpt lat="43.56731" lon="3.16827">
        <ele>315.379146</ele>
        <time>2025-10-23T13:36:11Z</time>
      </trkpt>
      <trkpt lat="43.56731" lon="3.16828">
        <ele>315.400796</ele>
        <time>2025-10-23T13:36:12Z</time>
      </trkpt>
      <trkpt lat="43.56732" lon="3.16831">
        <ele>315.500328</ele>
        <time>2025-10-23T13:36:13Z</time>
      </trkpt>
      <trkpt lat="43.56732" lon="3.16832">
        <ele>315.57321</ele>
        <time>2025-10-23T13:36:14Z</time>
      </trkpt>
      <trkpt lat="43.56732" lon="3.16834">
        <ele>315.623389</ele>
        <time>2025-10-23T13:36:15Z</time>
      </trkpt>
      <trkpt lat="43.56733" lon="3.16835">
        <ele>315.671365</ele>
        <time>2025-10-23T13:36:16Z</time>
      </trkpt>
      <trkpt lat="43.56733" lon="3.16836">
        <ele>315.719782</ele>
        <time>2025-10-23T13:36:17Z</time>
      </trkpt>
      <trkpt lat="43.56734" lon="3.16837">
        <ele>315.763061</ele>
        <time>2025-10-23T13:36:18Z</time>
      </trkpt>
      <trkpt lat="43.56734" lon="3.16839">
        <ele>315.817262</ele>
        <time>2025-10-23T13:36:19Z</time>
      </trkpt>
      <trkpt lat="43.56735" lon="3.1684">
        <ele>315.872148</ele>
        <time>2025-10-23T13:36:20Z</time>
      </trkpt>
      <trkpt lat="43.56735" lon="3.16841">
        <ele>315.925068</ele>
        <time>2025-10-23T13:36:21Z</time>
      </trkpt>
      <trkpt lat="43.56736" lon="3.16843">
        <ele>315.968347</ele>
        <time>2025-10-23T13:36:22Z</time>
      </trkpt>
      <trkpt lat="43.56736" lon="3.16844">
        <ele>316.019617</ele>
        <time>2025-10-23T13:36:23Z</time>
      </trkpt>
      <trkpt lat="43.56737" lon="3.16845">
        <ele>316.071372</ele>
        <time>2025-10-23T13:36:24Z</time>
      </trkpt>
      <trkpt lat="43.56737" lon="3.16847">
        <ele>316.136322</ele>
        <time>2025-10-23T13:36:25Z</time>
      </trkpt>
      <trkpt lat="43.56737" lon="3.16848">
        <ele>316.183055</ele>
        <time>2025-10-23T13:36:26Z</time>
      </trkpt>
      <trkpt lat="43.56738" lon="3.16849">
        <ele>316.228717</ele>
        <time>2025-10-23T13:36:27Z</time>
      </trkpt>
      <trkpt lat="43.56738" lon="3.16851">
        <ele>316.281687</ele>
        <time>2025-10-23T13:36:28Z</time>
      </trkpt>
      <trkpt lat="43.56739" lon="3.16853">
        <ele>316.353524</ele>
        <time>2025-10-23T13:36:29Z</time>
      </trkpt>
      <trkpt lat="43.56739" lon="3.16854">
        <ele>316.430429</ele>
        <time>2025-10-23T13:36:30Z</time>
      </trkpt>
      <trkpt lat="43.5674" lon="3.16856">
        <ele>316.501512</ele>
        <time>2025-10-23T13:36:31Z</time>
      </trkpt>
      <trkpt lat="43.5674" lon="3.16858">
        <ele>316.569893</ele>
        <time>2025-10-23T13:36:32Z</time>
      </trkpt>
      <trkpt lat="43.56741" lon="3.1686">
        <ele>316.638377</ele>
        <time>2025-10-23T13:36:33Z</time>
      </trkpt>
      <trkpt lat="43.56741" lon="3.16861">
        <ele>316.702894</ele>
        <time>2025-10-23T13:36:34Z</time>
      </trkpt>
      <trkpt lat="43.56742" lon="3.16863">
        <ele>316.771653</ele>
        <time>2025-10-23T13:36:35Z</time>
      </trkpt>
      <trkpt lat="43.56743" lon="3.16865">
        <ele>316.842881</ele>
        <time>2025-10-23T13:36:36Z</time>
      </trkpt>
      <trkpt lat="43.56743" lon="3.16866">
        <ele>316.902858</ele>
        <time>2025-10-23T13:36:37Z</time>
      </trkpt>
      <trkpt lat="43.56745" lon="3.16867">
        <ele>316.966784</ele>
        <time>2025-10-23T13:36:38Z</time>
      </trkpt>
      <trkpt lat="43.56746" lon="3.16868">
        <ele>317.037068</ele>
        <time>2025-10-23T13:36:39Z</time>
      </trkpt>
      <trkpt lat="43.56747" lon="3.1687">
        <ele>317.108745</ele>
        <time>2025-10-23T13:36:40Z</time>
      </trkpt>
      <trkpt lat="43.56747" lon="3.16871">
        <ele>317.168721</ele>
        <time>2025-10-23T13:36:41Z</time>
      </trkpt>
      <trkpt lat="43.56748" lon="3.16873">
        <ele>317.239949</ele>
        <time>2025-10-23T13:36:42Z</time>
      </trkpt>
      <trkpt lat="43.56749" lon="3.16874">
        <ele>317.311177</ele>
        <time>2025-10-23T13:36:43Z</time>
      </trkpt>
      <trkpt lat="43.5675" lon="3.16876">
        <ele>317.379662</ele>
        <time>2025-10-23T13:36:44Z</time>
      </trkpt>
      <trkpt lat="43.56751" lon="3.16876">
        <ele>317.421614</ele>
        <time>2025-10-23T13:36:45Z</time>
      </trkpt>
      <trkpt lat="43.56751" lon="3.16876">
        <ele>317.43568</ele>
        <time>2025-10-23T13:36:46Z</time>
      </trkpt>
      <trkpt lat="43.56751" lon="3.16876">
        <ele>317.455925</ele>
        <time>2025-10-23T13:36:47Z</time>
      </trkpt>
      <trkpt lat="43.56752" lon="3.16878">
        <ele>317.523973</ele>
        <time>2025-10-23T13:36:48Z</time>
      </trkpt>
      <trkpt lat="43.56753" lon="3.16879">
        <ele>317.586672</ele>
        <time>2025-10-23T13:36:49Z</time>
      </trkpt>
      <trkpt lat="43.56755" lon="3.16881">
        <ele>317.67657</ele>
        <time>2025-10-23T13:36:50Z</time>
      </trkpt>
      <trkpt lat="43.56756" lon="3.16882">
        <ele>317.776433</ele>
        <time>2025-10-23T13:36:51Z</time>
      </trkpt>
      <trkpt lat="43.56758" lon="3.16884">
        <ele>317.878319</ele>
        <time>2025-10-23T13:36:52Z</time>
      </trkpt>
      <trkpt lat="43.5676" lon="3.16886">
        <ele>317.982306</ele>
        <time>2025-10-23T13:36:53Z</time>
      </trkpt>
      <trkpt lat="43.56761" lon="3.16887">
        <ele>318.086215</ele>
        <time>2025-10-23T13:36:54Z</time>
      </trkpt>
      <trkpt lat="43.56763" lon="3.16889">
        <ele>318.174097</ele>
        <time>2025-10-23T13:36:55Z</time>
      </trkpt>
      <trkpt lat="43.56765" lon="3.1689">
        <ele>318.269989</ele>
        <time>2025-10-23T13:36:56Z</time>
      </trkpt>
      <trkpt lat="43.56767" lon="3.16892">
        <ele>318.391854</ele>
        <time>2025-10-23T13:36:57Z</time>
      </trkpt>
      <trkpt lat="43.56768" lon="3.16894">
        <ele>318.492129</ele>
        <time>2025-10-23T13:36:58Z</time>
      </trkpt>
      <trkpt lat="43.5677" lon="3.16895">
        <ele>318.596617</ele>
        <time>2025-10-23T13:36:59Z</time>
      </trkpt>
      <trkpt lat="43.56773" lon="3.16896">
        <ele>318.719349</ele>
        <time>2025-10-23T13:37:00Z</time>
      </trkpt>
      <trkpt lat="43.56775" lon="3.16897">
        <ele>318.845802</ele>
        <time>2025-10-23T13:37:01Z</time>
      </trkpt>
      <trkpt lat="43.56778" lon="3.16898">
        <ele>318.971192</ele>
        <time>2025-10-23T13:37:02Z</time>
      </trkpt>
      <trkpt lat="43.5678" lon="3.16899">
        <ele>319.183152</ele>
        <time>2025-10-23T13:37:03Z</time>
      </trkpt>
      <trkpt lat="43.56783" lon="3.169">
        <ele>319.469933</ele>
        <time>2025-10-23T13:37:04Z</time>
      </trkpt>
      <trkpt lat="43.56785" lon="3.16901">
        <ele>319.721915</ele>
        <time>2025-10-23T13:37:05Z</time>
      </trkpt>
      <trkpt lat="43.56787" lon="3.16901">
        <ele>319.973898</ele>
        <time>2025-10-23T13:37:06Z</time>
      </trkpt>
      <trkpt lat="43.5679" lon="3.16902">
        <ele>320.244159</ele>
        <time>2025-10-23T13:37:07Z</time>
      </trkpt>
      <trkpt lat="43.56793" lon="3.16902">
        <ele>320.55913</ele>
        <time>2025-10-23T13:37:08Z</time>
      </trkpt>
      <trkpt lat="43.56795" lon="3.16903">
        <ele>320.832047</ele>
        <time>2025-10-23T13:37:09Z</time>
      </trkpt>
      <trkpt lat="43.56798" lon="3.16904">
        <ele>321.115456</ele>
        <time>2025-10-23T13:37:10Z</time>
      </trkpt>
      <trkpt lat="43.568" lon="3.16905">
        <ele>321.353126</ele>
        <time>2025-10-23T13:37:11Z</time>
      </trkpt>
      <trkpt lat="43.56802" lon="3.16906">
        <ele>321.59653</ele>
        <time>2025-10-23T13:37:12Z</time>
      </trkpt>
      <trkpt lat="43.56804" lon="3.16907">
        <ele>321.839698</ele>
        <time>2025-10-23T13:37:13Z</time>
      </trkpt>
      <trkpt lat="43.56807" lon="3.16908">
        <ele>322.12288</ele>
        <time>2025-10-23T13:37:14Z</time>
      </trkpt>
      <trkpt lat="43.56809" lon="3.16909">
        <ele>322.366048</ele>
        <time>2025-10-23T13:37:15Z</time>
      </trkpt>
      <trkpt lat="43.56811" lon="3.16911">
        <ele>322.641884</ele>
        <time>2025-10-23T13:37:16Z</time>
      </trkpt>
      <trkpt lat="43.56813" lon="3.16911">
        <ele>322.873017</ele>
        <time>2025-10-23T13:37:17Z</time>
      </trkpt>
      <trkpt lat="43.56816" lon="3.16913">
        <ele>323.148577</ele>
        <time>2025-10-23T13:37:18Z</time>
      </trkpt>
      <trkpt lat="43.56818" lon="3.16914">
        <ele>323.424138</ele>
        <time>2025-10-23T13:37:19Z</time>
      </trkpt>
      <trkpt lat="43.5682" lon="3.16916">
        <ele>323.712749</ele>
        <time>2025-10-23T13:37:20Z</time>
      </trkpt>
      <trkpt lat="43.56823" lon="3.16918">
        <ele>323.990404</ele>
        <time>2025-10-23T13:37:21Z</time>
      </trkpt>
      <trkpt lat="43.56825" lon="3.1692">
        <ele>324.299556</ele>
        <time>2025-10-23T13:37:22Z</time>
      </trkpt>
      <trkpt lat="43.56828" lon="3.16922">
        <ele>324.607799</ele>
        <time>2025-10-23T13:37:23Z</time>
      </trkpt>
      <trkpt lat="43.5683" lon="3.16924">
        <ele>324.907188</ele>
        <time>2025-10-23T13:37:24Z</time>
      </trkpt>
      <trkpt lat="43.56832" lon="3.16926">
        <ele>325.158487</ele>
        <time>2025-10-23T13:37:25Z</time>
      </trkpt>
      <trkpt lat="43.56834" lon="3.16928">
        <ele>325.444667</ele>
        <time>2025-10-23T13:37:26Z</time>
      </trkpt>
      <trkpt lat="43.56836" lon="3.1693">
        <ele>325.669625</ele>
        <time>2025-10-23T13:37:27Z</time>
      </trkpt>
      <trkpt lat="43.56837" lon="3.16931">
        <ele>325.821907</ele>
        <time>2025-10-23T13:37:28Z</time>
      </trkpt>
      <trkpt lat="43.56838" lon="3.1693">
        <ele>325.898386</ele>
        <time>2025-10-23T13:37:29Z</time>
      </trkpt>
      <trkpt lat="43.56837" lon="3.1693">
        <ele>325.960216</ele>
        <time>2025-10-23T13:37:30Z</time>
      </trkpt>
      <trkpt lat="43.56838" lon="3.1693">
        <ele>325.982975</ele>
        <time>2025-10-23T13:37:31Z</time>
      </trkpt>
      <trkpt lat="43.56838" lon="3.16931">
        <ele>326.06482</ele>
        <time>2025-10-23T13:37:32Z</time>
      </trkpt>
      <trkpt lat="43.56839" lon="3.16932">
        <ele>326.175241</ele>
        <time>2025-10-23T13:37:33Z</time>
      </trkpt>
      <trkpt lat="43.5684" lon="3.16933">
        <ele>326.312052</ele>
        <time>2025-10-23T13:37:34Z</time>
      </trkpt>
      <trkpt lat="43.56841" lon="3.16934">
        <ele>326.426582</ele>
        <time>2025-10-23T13:37:35Z</time>
      </trkpt>
      <trkpt lat="43.56842" lon="3.16935">
        <ele>326.545488</ele>
        <time>2025-10-23T13:37:36Z</time>
      </trkpt>
      <trkpt lat="43.56842" lon="3.16935">
        <ele>326.637971</ele>
        <time>2025-10-23T13:37:37Z</time>
      </trkpt>
      <trkpt lat="43.56843" lon="3.16936">
        <ele>326.752501</ele>
        <time>2025-10-23T13:37:38Z</time>
      </trkpt>
      <trkpt lat="43.56844" lon="3.16937">
        <ele>326.862923</ele>
        <time>2025-10-23T13:37:39Z</time>
      </trkpt>
      <trkpt lat="43.56845" lon="3.16938">
        <ele>326.977453</ele>
        <time>2025-10-23T13:37:40Z</time>
      </trkpt>
      <trkpt lat="43.56846" lon="3.16939">
        <ele>327.118374</ele>
        <time>2025-10-23T13:37:41Z</time>
      </trkpt>
      <trkpt lat="43.56847" lon="3.1694">
        <ele>327.27331</ele>
        <time>2025-10-23T13:37:42Z</time>
      </trkpt>
      <trkpt lat="43.56848" lon="3.16941">
        <ele>327.392732</ele>
        <time>2025-10-23T13:37:43Z</time>
      </trkpt>
      <trkpt lat="43.56848" lon="3.16942">
        <ele>327.489966</ele>
        <time>2025-10-23T13:37:44Z</time>
      </trkpt>
      <trkpt lat="43.56849" lon="3.16943">
        <ele>327.578124</ele>
        <time>2025-10-23T13:37:45Z</time>
      </trkpt>
      <trkpt lat="43.5685" lon="3.16944">
        <ele>327.675358</ele>
        <time>2025-10-23T13:37:46Z</time>
      </trkpt>
      <trkpt lat="43.56851" lon="3.16944">
        <ele>327.772591</ele>
        <time>2025-10-23T13:37:47Z</time>
      </trkpt>
      <trkpt lat="43.56851" lon="3.16945">
        <ele>327.853647</ele>
        <time>2025-10-23T13:37:48Z</time>
      </trkpt>
      <trkpt lat="43.56852" lon="3.16946">
        <ele>327.950881</ele>
        <time>2025-10-23T13:37:49Z</time>
      </trkpt>
      <trkpt lat="43.56852" lon="3.16946">
        <ele>328.021767</ele>
        <time>2025-10-23T13:37:50Z</time>
      </trkpt>
      <trkpt lat="43.56853" lon="3.16947">
        <ele>328.1128</ele>
        <time>2025-10-23T13:37:51Z</time>
      </trkpt>
      <trkpt lat="43.56854" lon="3.16947">
        <ele>328.163123</ele>
        <time>2025-10-23T13:37:52Z</time>
      </trkpt>
      <trkpt lat="43.56854" lon="3.16948">
        <ele>328.252377</ele>
        <time>2025-10-23T13:37:53Z</time>
      </trkpt>
      <trkpt lat="43.56855" lon="3.16948">
        <ele>328.349788</ele>
        <time>2025-10-23T13:37:54Z</time>
      </trkpt>
      <trkpt lat="43.56856" lon="3.1695">
        <ele>328.476194</ele>
        <time>2025-10-23T13:37:55Z</time>
      </trkpt>
      <trkpt lat="43.56856" lon="3.16951">
        <ele>328.578545</ele>
        <time>2025-10-23T13:37:56Z</time>
      </trkpt>
      <trkpt lat="43.56857" lon="3.16951">
        <ele>328.644604</ele>
        <time>2025-10-23T13:37:57Z</time>
      </trkpt>
      <trkpt lat="43.56857" lon="3.16952">
        <ele>328.726502</ele>
        <time>2025-10-23T13:37:58Z</time>
      </trkpt>
      <trkpt lat="43.56858" lon="3.16953">
        <ele>328.833808</ele>
        <time>2025-10-23T13:37:59Z</time>
      </trkpt>
      <trkpt lat="43.56859" lon="3.16954">
        <ele>328.928612</ele>
        <time>2025-10-23T13:38:00Z</time>
      </trkpt>
      <trkpt lat="43.56859" lon="3.16955">
        <ele>329.025846</ele>
        <time>2025-10-23T13:38:01Z</time>
      </trkpt>
      <trkpt lat="43.5686" lon="3.16956">
        <ele>329.133631</ele>
        <time>2025-10-23T13:38:02Z</time>
      </trkpt>
      <trkpt lat="43.56861" lon="3.16957">
        <ele>329.244052</ele>
        <time>2025-10-23T13:38:03Z</time>
      </trkpt>
      <trkpt lat="43.56861" lon="3.16958">
        <ele>329.346404</ele>
        <time>2025-10-23T13:38:04Z</time>
      </trkpt>
      <trkpt lat="43.56862" lon="3.16958">
        <ele>329.428302</ele>
        <time>2025-10-23T13:38:05Z</time>
      </trkpt>
      <trkpt lat="43.56863" lon="3.16959">
        <ele>329.523106</ele>
        <time>2025-10-23T13:38:06Z</time>
      </trkpt>
      <trkpt lat="43.56863" lon="3.16959">
        <ele>329.598397</ele>
        <time>2025-10-23T13:38:07Z</time>
      </trkpt>
      <trkpt lat="43.56864" lon="3.16959">
        <ele>329.664435</ele>
        <time>2025-10-23T13:38:08Z</time>
      </trkpt>
      <trkpt lat="43.56864" lon="3.1696">
        <ele>329.752981</ele>
        <time>2025-10-23T13:38:09Z</time>
      </trkpt>
      <trkpt lat="43.56865" lon="3.1696">
        <ele>329.839963</ele>
        <time>2025-10-23T13:38:10Z</time>
      </trkpt>
      <trkpt lat="43.56866" lon="3.16961">
        <ele>329.928656</ele>
        <time>2025-10-23T13:38:11Z</time>
      </trkpt>
      <trkpt lat="43.56867" lon="3.16961">
        <ele>330.017348</ele>
        <time>2025-10-23T13:38:12Z</time>
      </trkpt>
      <trkpt lat="43.56868" lon="3.16961">
        <ele>330.113948</ele>
        <time>2025-10-23T13:38:13Z</time>
      </trkpt>
      <trkpt lat="43.56868" lon="3.16961">
        <ele>330.199888</ele>
        <time>2025-10-23T13:38:14Z</time>
      </trkpt>
      <trkpt lat="43.56869" lon="3.16962">
        <ele>330.283942</ele>
        <time>2025-10-23T13:38:15Z</time>
      </trkpt>
      <trkpt lat="43.5687" lon="3.16962">
        <ele>330.364998</ele>
        <time>2025-10-23T13:38:16Z</time>
      </trkpt>
      <trkpt lat="43.5687" lon="3.16963">
        <ele>330.433272</ele>
        <time>2025-10-23T13:38:17Z</time>
      </trkpt>
      <trkpt lat="43.56871" lon="3.16963">
        <ele>330.521965</ele>
        <time>2025-10-23T13:38:18Z</time>
      </trkpt>
      <trkpt lat="43.56872" lon="3.16963">
        <ele>330.600383</ele>
        <time>2025-10-23T13:38:19Z</time>
      </trkpt>
      <trkpt lat="43.56872" lon="3.16964">
        <ele>330.681439</ele>
        <time>2025-10-23T13:38:20Z</time>
      </trkpt>
      <trkpt lat="43.56873" lon="3.16964">
        <ele>330.75673</ele>
        <time>2025-10-23T13:38:21Z</time>
      </trkpt>
      <trkpt lat="43.56874" lon="3.16964">
        <ele>330.832021</ele>
        <time>2025-10-23T13:38:22Z</time>
      </trkpt>
      <trkpt lat="43.56875" lon="3.16964">
        <ele>330.939008</ele>
        <time>2025-10-23T13:38:23Z</time>
      </trkpt>
      <trkpt lat="43.56876" lon="3.16964">
        <ele>331.0528</ele>
        <time>2025-10-23T13:38:24Z</time>
      </trkpt>
      <trkpt lat="43.56877" lon="3.16965">
        <ele>331.169459</ele>
        <time>2025-10-23T13:38:25Z</time>
      </trkpt>
      <trkpt lat="43.56878" lon="3.16966">
        <ele>331.30627</ele>
        <time>2025-10-23T13:38:26Z</time>
      </trkpt>
      <trkpt lat="43.56879" lon="3.16966">
        <ele>331.440377</ele>
        <time>2025-10-23T13:38:27Z</time>
      </trkpt>
      <trkpt lat="43.5688" lon="3.16966">
        <ele>331.53141</ele>
        <time>2025-10-23T13:38:28Z</time>
      </trkpt>
      <trkpt lat="43.56881" lon="3.16967">
        <ele>331.632568</ele>
        <time>2025-10-23T13:38:29Z</time>
      </trkpt>
      <trkpt lat="43.56881" lon="3.16967">
        <ele>331.698605</ele>
        <time>2025-10-23T13:38:30Z</time>
      </trkpt>
      <trkpt lat="43.56882" lon="3.16967">
        <ele>331.769894</ele>
        <time>2025-10-23T13:38:31Z</time>
      </trkpt>
      <trkpt lat="43.56883" lon="3.16968">
        <ele>331.848312</ele>
        <time>2025-10-23T13:38:32Z</time>
      </trkpt>
      <trkpt lat="43.56883" lon="3.16967">
        <ele>331.926731</ele>
        <time>2025-10-23T13:38:33Z</time>
      </trkpt>
      <trkpt lat="43.56884" lon="3.16968">
        <ele>332.015423</ele>
        <time>2025-10-23T13:38:34Z</time>
      </trkpt>
      <trkpt lat="43.56885" lon="3.16968">
        <ele>332.096479</ele>
        <time>2025-10-23T13:38:35Z</time>
      </trkpt>
      <trkpt lat="43.56885" lon="3.16968">
        <ele>332.119238</ele>
        <time>2025-10-23T13:38:36Z</time>
      </trkpt>
      <trkpt lat="43.56885" lon="3.16968">
        <ele>332.126989</ele>
        <time>2025-10-23T13:38:37Z</time>
      </trkpt>
      <trkpt lat="43.56885" lon="3.16968">
        <ele>332.148387</ele>
        <time>2025-10-23T13:38:38Z</time>
      </trkpt>
      <trkpt lat="43.56885" lon="3.16968">
        <ele>332.20188</ele>
        <time>2025-10-23T13:38:39Z</time>
      </trkpt>
      <trkpt lat="43.56886" lon="3.16968">
        <ele>332.29848</ele>
        <time>2025-10-23T13:38:40Z</time>
      </trkpt>
      <trkpt lat="43.56888" lon="3.16968">
        <ele>332.427797</ele>
        <time>2025-10-23T13:38:41Z</time>
      </trkpt>
      <trkpt lat="43.56888" lon="3.16969">
        <ele>332.521754</ele>
        <time>2025-10-23T13:38:42Z</time>
      </trkpt>
      <trkpt lat="43.56889" lon="3.16969">
        <ele>332.585946</ele>
        <time>2025-10-23T13:38:43Z</time>
      </trkpt>
      <trkpt lat="43.5689" lon="3.16969">
        <ele>332.661237</ele>
        <time>2025-10-23T13:38:44Z</time>
      </trkpt>
      <trkpt lat="43.5689" lon="3.16969">
        <ele>332.748219</ele>
        <time>2025-10-23T13:38:45Z</time>
      </trkpt>
      <trkpt lat="43.56891" lon="3.16968">
        <ele>332.824698</ele>
        <time>2025-10-23T13:38:46Z</time>
      </trkpt>
      <trkpt lat="43.56892" lon="3.16968">
        <ele>332.899989</ele>
        <time>2025-10-23T13:38:47Z</time>
      </trkpt>
      <trkpt lat="43.56893" lon="3.16968">
        <ele>332.991022</ele>
        <time>2025-10-23T13:38:48Z</time>
      </trkpt>
      <trkpt lat="43.56893" lon="3.16968">
        <ele>333.065913</ele>
        <time>2025-10-23T13:38:49Z</time>
      </trkpt>
      <trkpt lat="43.56895" lon="3.16968">
        <ele>333.19523</ele>
        <time>2025-10-23T13:38:50Z</time>
      </trkpt>
      <trkpt lat="43.56896" lon="3.16968">
        <ele>333.304715</ele>
        <time>2025-10-23T13:38:51Z</time>
      </trkpt>
      <trkpt lat="43.56897" lon="3.16968">
        <ele>333.423417</ele>
        <time>2025-10-23T13:38:52Z</time>
      </trkpt>
      <trkpt lat="43.56898" lon="3.16968">
        <ele>333.530685</ele>
        <time>2025-10-23T13:38:53Z</time>
      </trkpt>
      <trkpt lat="43.56899" lon="3.16968">
        <ele>333.628213</ele>
        <time>2025-10-23T13:38:54Z</time>
      </trkpt>
      <trkpt lat="43.569" lon="3.16968">
        <ele>333.75753</ele>
        <time>2025-10-23T13:38:55Z</time>
      </trkpt>
      <trkpt lat="43.56901" lon="3.16967">
        <ele>333.858688</ele>
        <time>2025-10-23T13:38:56Z</time>
      </trkpt>
      <trkpt lat="43.56902" lon="3.16967">
        <ele>333.965621</ele>
        <time>2025-10-23T13:38:57Z</time>
      </trkpt>
      <trkpt lat="43.56903" lon="3.16967">
        <ele>334.094005</ele>
        <time>2025-10-23T13:38:58Z</time>
      </trkpt>
      <trkpt lat="43.56903" lon="3.16967">
        <ele>334.160043</ele>
        <time>2025-10-23T13:38:59Z</time>
      </trkpt>
      <trkpt lat="43.56904" lon="3.16966">
        <ele>334.236522</ele>
        <time>2025-10-23T13:39:00Z</time>
      </trkpt>
      <trkpt lat="43.56905" lon="3.16966">
        <ele>334.31494</ele>
        <time>2025-10-23T13:39:01Z</time>
      </trkpt>
      <trkpt lat="43.56905" lon="3.16966">
        <ele>334.389926</ele>
        <time>2025-10-23T13:39:02Z</time>
      </trkpt>
      <trkpt lat="43.56906" lon="3.16965">
        <ele>334.458201</ele>
        <time>2025-10-23T13:39:03Z</time>
      </trkpt>
      <trkpt lat="43.56906" lon="3.16965">
        <ele>334.513895</ele>
        <time>2025-10-23T13:39:04Z</time>
      </trkpt>
      <trkpt lat="43.56907" lon="3.16964">
        <ele>334.606378</ele>
        <time>2025-10-23T13:39:05Z</time>
      </trkpt>
      <trkpt lat="43.56909" lon="3.16963">
        <ele>334.775029</ele>
        <time>2025-10-23T13:39:06Z</time>
      </trkpt>
      <trkpt lat="43.5691" lon="3.16963">
        <ele>334.901572</ele>
        <time>2025-10-23T13:39:07Z</time>
      </trkpt>
      <trkpt lat="43.5691" lon="3.16962">
        <ele>334.982628</ele>
        <time>2025-10-23T13:39:08Z</time>
      </trkpt>
      <trkpt lat="43.56911" lon="3.16962">
        <ele>335.053917</ele>
        <time>2025-10-23T13:39:09Z</time>
      </trkpt>
      <trkpt lat="43.56912" lon="3.16961">
        <ele>335.128902</ele>
        <time>2025-10-23T13:39:10Z</time>
      </trkpt>
      <trkpt lat="43.56912" lon="3.16961">
        <ele>335.226313</ele>
        <time>2025-10-23T13:39:11Z</time>
      </trkpt>
      <trkpt lat="43.56913" lon="3.1696">
        <ele>335.330109</ele>
        <time>2025-10-23T13:39:12Z</time>
      </trkpt>
      <trkpt lat="43.56914" lon="3.1696">
        <ele>335.387846</ele>
        <time>2025-10-23T13:39:13Z</time>
      </trkpt>
      <trkpt lat="43.56914" lon="3.1696">
        <ele>335.473786</ele>
        <time>2025-10-23T13:39:14Z</time>
      </trkpt>
      <trkpt lat="43.56915" lon="3.1696">
        <ele>335.571315</ele>
        <time>2025-10-23T13:39:15Z</time>
      </trkpt>
      <trkpt lat="43.56916" lon="3.16959">
        <ele>335.668843</ele>
        <time>2025-10-23T13:39:16Z</time>
      </trkpt>
      <trkpt lat="43.56917" lon="3.16959">
        <ele>335.757536</ele>
        <time>2025-10-23T13:39:17Z</time>
      </trkpt>
      <trkpt lat="43.56918" lon="3.16959">
        <ele>335.819366</ele>
        <time>2025-10-23T13:39:18Z</time>
      </trkpt>
      <trkpt lat="43.56918" lon="3.16958">
        <ele>335.90121</ele>
        <time>2025-10-23T13:39:19Z</time>
      </trkpt>
      <trkpt lat="43.56918" lon="3.16957">
        <ele>335.986479</ele>
        <time>2025-10-23T13:39:20Z</time>
      </trkpt>
      <trkpt lat="43.56919" lon="3.16956">
        <ele>336.083889</ele>
        <time>2025-10-23T13:39:21Z</time>
      </trkpt>
      <trkpt lat="43.56919" lon="3.16955">
        <ele>336.165786</ele>
        <time>2025-10-23T13:39:22Z</time>
      </trkpt>
      <trkpt lat="43.5692" lon="3.16954">
        <ele>336.276207</ele>
        <time>2025-10-23T13:39:23Z</time>
      </trkpt>
      <trkpt lat="43.5692" lon="3.16954">
        <ele>336.324912</ele>
        <time>2025-10-23T13:39:24Z</time>
      </trkpt>
      <trkpt lat="43.56921" lon="3.16954">
        <ele>336.380607</ele>
        <time>2025-10-23T13:39:25Z</time>
      </trkpt>
      <trkpt lat="43.56922" lon="3.16954">
        <ele>336.445266</ele>
        <time>2025-10-23T13:39:26Z</time>
      </trkpt>
      <trkpt lat="43.56922" lon="3.16954">
        <ele>336.509458</ele>
        <time>2025-10-23T13:39:27Z</time>
      </trkpt>
      <trkpt lat="43.56923" lon="3.16954">
        <ele>336.595398</ele>
        <time>2025-10-23T13:39:28Z</time>
      </trkpt>
      <trkpt lat="43.56924" lon="3.16953">
        <ele>336.671876</ele>
        <time>2025-10-23T13:39:29Z</time>
      </trkpt>
      <trkpt lat="43.56925" lon="3.16953">
        <ele>336.788536</ele>
        <time>2025-10-23T13:39:30Z</time>
      </trkpt>
      <trkpt lat="43.56925" lon="3.16953">
        <ele>336.852728</ele>
        <time>2025-10-23T13:39:31Z</time>
      </trkpt>
      <trkpt lat="43.56926" lon="3.16953">
        <ele>336.938317</ele>
        <time>2025-10-23T13:39:32Z</time>
      </trkpt>
      <trkpt lat="43.56926" lon="3.16953">
        <ele>336.938317</ele>
        <time>2025-10-23T13:39:33Z</time>
      </trkpt>
      <trkpt lat="43.56926" lon="3.16953">
        <ele>336.938317</ele>
        <time>2025-10-23T13:39:34Z</time>
      </trkpt>
      <trkpt lat="43.56926" lon="3.16953">
        <ele>336.938317</ele>
        <time>2025-10-23T13:39:35Z</time>
      </trkpt>
      <trkpt lat="43.56926" lon="3.16953">
        <ele>336.946069</ele>
        <time>2025-10-23T13:39:36Z</time>
      </trkpt>
      <trkpt lat="43.56926" lon="3.16953">
        <ele>336.946069</ele>
        <time>2025-10-23T13:39:37Z</time>
      </trkpt>
      <trkpt lat="43.56926" lon="3.16953">
        <ele>336.956768</ele>
        <time>2025-10-23T13:39:39Z</time>
      </trkpt>
      <trkpt lat="43.56926" lon="3.16953">
        <ele>336.967467</ele>
        <time>2025-10-23T13:39:40Z</time>
      </trkpt>
      <trkpt lat="43.56927" lon="3.16953">
        <ele>337.101574</ele>
        <time>2025-10-23T13:39:41Z</time>
      </trkpt>
      <trkpt lat="43.56928" lon="3.16953">
        <ele>337.157269</ele>
        <time>2025-10-23T13:39:42Z</time>
      </trkpt>
      <trkpt lat="43.56928" lon="3.16953">
        <ele>337.211321</ele>
        <time>2025-10-23T13:39:43Z</time>
      </trkpt>
      <trkpt lat="43.56929" lon="3.16953">
        <ele>337.300013</ele>
        <time>2025-10-23T13:39:44Z</time>
      </trkpt>
      <trkpt lat="43.5693" lon="3.16953">
        <ele>337.396613</ele>
        <time>2025-10-23T13:39:45Z</time>
      </trkpt>
      <trkpt lat="43.56931" lon="3.16953">
        <ele>337.494142</ele>
        <time>2025-10-23T13:39:46Z</time>
      </trkpt>
      <trkpt lat="43.56932" lon="3.16952">
        <ele>337.603627</ele>
        <time>2025-10-23T13:39:47Z</time>
      </trkpt>
      <trkpt lat="43.56933" lon="3.16952">
        <ele>337.717418</ele>
        <time>2025-10-23T13:39:48Z</time>
      </trkpt>
      <trkpt lat="43.56934" lon="3.16951">
        <ele>337.816475</ele>
        <time>2025-10-23T13:39:49Z</time>
      </trkpt>
      <trkpt lat="43.56935" lon="3.16951">
        <ele>337.923742</ele>
        <time>2025-10-23T13:39:50Z</time>
      </trkpt>
      <trkpt lat="43.56936" lon="3.16951">
        <ele>338.031009</ele>
        <time>2025-10-23T13:39:51Z</time>
      </trkpt>
      <trkpt lat="43.56937" lon="3.16952">
        <ele>338.142399</ele>
        <time>2025-10-23T13:39:52Z</time>
      </trkpt>
      <trkpt lat="43.56938" lon="3.16952">
        <ele>338.259058</ele>
        <time>2025-10-23T13:39:53Z</time>
      </trkpt>
      <trkpt lat="43.56939" lon="3.16953">
        <ele>338.305461</ele>
        <time>2025-10-23T13:39:54Z</time>
      </trkpt>
      <trkpt lat="43.5694" lon="3.16953">
        <ele>338.359977</ele>
        <time>2025-10-23T13:39:55Z</time>
      </trkpt>
      <trkpt lat="43.5694" lon="3.16954">
        <ele>338.395474</ele>
        <time>2025-10-23T13:39:56Z</time>
      </trkpt>
      <trkpt lat="43.56941" lon="3.16954">
        <ele>338.434945</ele>
        <time>2025-10-23T13:39:57Z</time>
      </trkpt>
      <trkpt lat="43.56942" lon="3.16955">
        <ele>338.490409</ele>
        <time>2025-10-23T13:39:58Z</time>
      </trkpt>
      <trkpt lat="43.56943" lon="3.16955">
        <ele>338.534305</ele>
        <time>2025-10-23T13:39:59Z</time>
      </trkpt>
      <trkpt lat="43.56943" lon="3.16956">
        <ele>338.587449</ele>
        <time>2025-10-23T13:40:00Z</time>
      </trkpt>
      <trkpt lat="43.56944" lon="3.16957">
        <ele>338.624966</ele>
        <time>2025-10-23T13:40:01Z</time>
      </trkpt>
      <trkpt lat="43.56944" lon="3.16958">
        <ele>338.671863</ele>
        <time>2025-10-23T13:40:02Z</time>
      </trkpt>
      <trkpt lat="43.56945" lon="3.1696">
        <ele>338.734645</ele>
        <time>2025-10-23T13:40:03Z</time>
      </trkpt>
      <trkpt lat="43.56945" lon="3.16961">
        <ele>338.787789</ele>
        <time>2025-10-23T13:40:04Z</time>
      </trkpt>
      <trkpt lat="43.56946" lon="3.16962">
        <ele>338.834685</ele>
        <time>2025-10-23T13:40:05Z</time>
      </trkpt>
      <trkpt lat="43.56947" lon="3.16963">
        <ele>338.889667</ele>
        <time>2025-10-23T13:40:06Z</time>
      </trkpt>
      <trkpt lat="43.56947" lon="3.16964">
        <ele>338.947165</ele>
        <time>2025-10-23T13:40:07Z</time>
      </trkpt>
      <trkpt lat="43.56948" lon="3.16963">
        <ele>338.964913</ele>
        <time>2025-10-23T13:40:08Z</time>
      </trkpt>
      <trkpt lat="43.56948" lon="3.16963">
        <ele>338.964913</ele>
        <time>2025-10-23T13:40:09Z</time>
      </trkpt>
      <trkpt lat="43.56959" lon="3.16973">
        <ele>339.675864</ele>
        <time>2025-10-23T13:40:29Z</time>
      </trkpt>
      <trkpt lat="43.56961" lon="3.16974">
        <ele>339.811042</ele>
        <time>2025-10-23T13:40:30Z</time>
      </trkpt>
      <trkpt lat="43.56964" lon="3.16974">
        <ele>339.940975</ele>
        <time>2025-10-23T13:40:31Z</time>
      </trkpt>
      <trkpt lat="43.56966" lon="3.16975">
        <ele>340.058744</ele>
        <time>2025-10-23T13:40:32Z</time>
      </trkpt>
      <trkpt lat="43.56969" lon="3.16975">
        <ele>340.191924</ele>
        <time>2025-10-23T13:40:33Z</time>
      </trkpt>
      <trkpt lat="43.56971" lon="3.16975">
        <ele>340.330915</ele>
        <time>2025-10-23T13:40:34Z</time>
      </trkpt>
      <trkpt lat="43.56974" lon="3.16976">
        <ele>340.467628</ele>
        <time>2025-10-23T13:40:35Z</time>
      </trkpt>
      <trkpt lat="43.56976" lon="3.16977">
        <ele>340.601179</ele>
        <time>2025-10-23T13:40:36Z</time>
      </trkpt>
      <trkpt lat="43.56978" lon="3.16978">
        <ele>340.729641</ele>
        <time>2025-10-23T13:40:37Z</time>
      </trkpt>
      <trkpt lat="43.56981" lon="3.16979">
        <ele>340.858102</ele>
        <time>2025-10-23T13:40:38Z</time>
      </trkpt>
      <trkpt lat="43.56983" lon="3.16979">
        <ele>340.96638</ele>
        <time>2025-10-23T13:40:39Z</time>
      </trkpt>
      <trkpt lat="43.56985" lon="3.16981">
        <ele>341.079351</ele>
        <time>2025-10-23T13:40:40Z</time>
      </trkpt>
      <trkpt lat="43.56987" lon="3.16981">
        <ele>341.201589</ele>
        <time>2025-10-23T13:40:41Z</time>
      </trkpt>
      <trkpt lat="43.56989" lon="3.16983">
        <ele>341.321246</ele>
        <time>2025-10-23T13:40:42Z</time>
      </trkpt>
      <trkpt lat="43.56991" lon="3.16984">
        <ele>341.440903</ele>
        <time>2025-10-23T13:40:43Z</time>
      </trkpt>
      <trkpt lat="43.56993" lon="3.16985">
        <ele>341.53447</ele>
        <time>2025-10-23T13:40:44Z</time>
      </trkpt>
      <trkpt lat="43.56995" lon="3.16986">
        <ele>341.64779</ele>
        <time>2025-10-23T13:40:45Z</time>
      </trkpt>
      <trkpt lat="43.56997" lon="3.16986">
        <ele>341.768062</ele>
        <time>2025-10-23T13:40:46Z</time>
      </trkpt>
      <trkpt lat="43.56999" lon="3.16987">
        <ele>341.892099</ele>
        <time>2025-10-23T13:40:47Z</time>
      </trkpt>
      <trkpt lat="43.57002" lon="3.16988">
        <ele>342.027992</ele>
        <time>2025-10-23T13:40:48Z</time>
      </trkpt>
      <trkpt lat="43.57004" lon="3.16988">
        <ele>342.170788</ele>
        <time>2025-10-23T13:40:49Z</time>
      </trkpt>
      <trkpt lat="43.57007" lon="3.16989">
        <ele>342.311218</ele>
        <time>2025-10-23T13:40:50Z</time>
      </trkpt>
      <trkpt lat="43.57009" lon="3.1699">
        <ele>342.436687</ele>
        <time>2025-10-23T13:40:51Z</time>
      </trkpt>
      <trkpt lat="43.57011" lon="3.1699">
        <ele>342.543859</ele>
        <time>2025-10-23T13:40:52Z</time>
      </trkpt>
      <trkpt lat="43.57013" lon="3.1699">
        <ele>342.651516</ele>
        <time>2025-10-23T13:40:53Z</time>
      </trkpt>
      <trkpt lat="43.57015" lon="3.16991">
        <ele>342.766603</ele>
        <time>2025-10-23T13:40:54Z</time>
      </trkpt>
      <trkpt lat="43.57018" lon="3.16992">
        <ele>342.899091</ele>
        <time>2025-10-23T13:40:55Z</time>
      </trkpt>
      <trkpt lat="43.5702" lon="3.16993">
        <ele>343.030079</ele>
        <time>2025-10-23T13:40:56Z</time>
      </trkpt>
      <trkpt lat="43.57022" lon="3.16994">
        <ele>343.146255</ele>
        <time>2025-10-23T13:40:57Z</time>
      </trkpt>
      <trkpt lat="43.57024" lon="3.16996">
        <ele>343.278656</ele>
        <time>2025-10-23T13:40:58Z</time>
      </trkpt>
      <trkpt lat="43.57026" lon="3.16997">
        <ele>343.399736</ele>
        <time>2025-10-23T13:40:59Z</time>
      </trkpt>
      <trkpt lat="43.57028" lon="3.16998">
        <ele>343.49936</ele>
        <time>2025-10-23T13:41:00Z</time>
      </trkpt>
      <trkpt lat="43.5703" lon="3.16999">
        <ele>343.588101</ele>
        <time>2025-10-23T13:41:01Z</time>
      </trkpt>
      <trkpt lat="43.57032" lon="3.17">
        <ele>343.707758</ele>
        <time>2025-10-23T13:41:02Z</time>
      </trkpt>
      <trkpt lat="43.57034" lon="3.17001">
        <ele>343.857728</ele>
        <time>2025-10-23T13:41:03Z</time>
      </trkpt>
      <trkpt lat="43.57037" lon="3.17002">
        <ele>344.004529</ele>
        <time>2025-10-23T13:41:04Z</time>
      </trkpt>
      <trkpt lat="43.5704" lon="3.17004">
        <ele>344.16106</ele>
        <time>2025-10-23T13:41:05Z</time>
      </trkpt>
      <trkpt lat="43.57042" lon="3.17005">
        <ele>344.294612</ele>
        <time>2025-10-23T13:41:06Z</time>
      </trkpt>
      <trkpt lat="43.57044" lon="3.17006">
        <ele>344.410788</ele>
        <time>2025-10-23T13:41:07Z</time>
      </trkpt>
      <trkpt lat="43.57046" lon="3.17007">
        <ele>344.524108</ele>
        <time>2025-10-23T13:41:08Z</time>
      </trkpt>
      <trkpt lat="43.57049" lon="3.17008">
        <ele>344.674077</ele>
        <time>2025-10-23T13:41:09Z</time>
      </trkpt>
      <trkpt lat="43.57051" lon="3.1701">
        <ele>344.810061</ele>
        <time>2025-10-23T13:41:10Z</time>
      </trkpt>
      <trkpt lat="43.57054" lon="3.17011">
        <ele>344.949845</ele>
        <time>2025-10-23T13:41:11Z</time>
      </trkpt>
      <trkpt lat="43.57056" lon="3.17011">
        <ele>345.102169</ele>
        <time>2025-10-23T13:41:12Z</time>
      </trkpt>
      <trkpt lat="43.57059" lon="3.17012">
        <ele>345.270926</ele>
        <time>2025-10-23T13:41:13Z</time>
      </trkpt>
      <trkpt lat="43.57062" lon="3.17013">
        <ele>345.430163</ele>
        <time>2025-10-23T13:41:14Z</time>
      </trkpt>
      <trkpt lat="43.57065" lon="3.17015">
        <ele>345.582498</ele>
        <time>2025-10-23T13:41:15Z</time>
      </trkpt>
      <trkpt lat="43.57068" lon="3.17016">
        <ele>345.731173</ele>
        <time>2025-10-23T13:41:16Z</time>
      </trkpt>
      <trkpt lat="43.5707" lon="3.17018">
        <ele>345.887704</ele>
        <time>2025-10-23T13:41:17Z</time>
      </trkpt>
      <trkpt lat="43.57073" lon="3.17019">
        <ele>346.056408</ele>
        <time>2025-10-23T13:41:18Z</time>
      </trkpt>
      <trkpt lat="43.57076" lon="3.17021">
        <ele>346.219363</ele>
        <time>2025-10-23T13:41:19Z</time>
      </trkpt>
      <trkpt lat="43.57079" lon="3.17022">
        <ele>346.368038</ele>
        <time>2025-10-23T13:41:20Z</time>
      </trkpt>
      <trkpt lat="43.57081" lon="3.17024">
        <ele>346.497093</ele>
        <time>2025-10-23T13:41:21Z</time>
      </trkpt>
      <trkpt lat="43.57083" lon="3.17025">
        <ele>346.642313</ele>
        <time>2025-10-23T13:41:22Z</time>
      </trkpt>
      <trkpt lat="43.57086" lon="3.17026">
        <ele>346.784631</ele>
        <time>2025-10-23T13:41:23Z</time>
      </trkpt>
      <trkpt lat="43.57088" lon="3.17028">
        <ele>346.92184</ele>
        <time>2025-10-23T13:41:24Z</time>
      </trkpt>
      <trkpt lat="43.5709" lon="3.1703">
        <ele>347.055605</ele>
        <time>2025-10-23T13:41:25Z</time>
      </trkpt>
      <trkpt lat="43.57093" lon="3.17032">
        <ele>347.202996</ele>
        <time>2025-10-23T13:41:26Z</time>
      </trkpt>
      <trkpt lat="43.57095" lon="3.17033">
        <ele>347.356259</ele>
        <time>2025-10-23T13:41:27Z</time>
      </trkpt>
      <trkpt lat="43.57098" lon="3.17035">
        <ele>347.50306</ele>
        <time>2025-10-23T13:41:28Z</time>
      </trkpt>
      <trkpt lat="43.571" lon="3.17037">
        <ele>347.656323</ele>
        <time>2025-10-23T13:41:29Z</time>
      </trkpt>
      <trkpt lat="43.57103" lon="3.17038">
        <ele>347.814416</ele>
        <time>2025-10-23T13:41:30Z</time>
      </trkpt>
      <trkpt lat="43.57106" lon="3.1704">
        <ele>347.89176</ele>
        <time>2025-10-23T13:41:31Z</time>
      </trkpt>
      <trkpt lat="43.57108" lon="3.17042">
        <ele>347.94814</ele>
        <time>2025-10-23T13:41:32Z</time>
      </trkpt>
      <trkpt lat="43.5711" lon="3.17043">
        <ele>348.000417</ele>
        <time>2025-10-23T13:41:33Z</time>
      </trkpt>
      <trkpt lat="43.57112" lon="3.17045">
        <ele>348.051373</ele>
        <time>2025-10-23T13:41:34Z</time>
      </trkpt>
      <trkpt lat="43.57114" lon="3.17046">
        <ele>348.098541</ele>
        <time>2025-10-23T13:41:35Z</time>
      </trkpt>
      <trkpt lat="43.57116" lon="3.17047">
        <ele>348.144411</ele>
        <time>2025-10-23T13:41:36Z</time>
      </trkpt>
      <trkpt lat="43.57118" lon="3.17049">
        <ele>348.193034</ele>
        <time>2025-10-23T13:41:37Z</time>
      </trkpt>
      <trkpt lat="43.5712" lon="3.1705">
        <ele>348.242088</ele>
        <time>2025-10-23T13:41:38Z</time>
      </trkpt>
      <trkpt lat="43.57122" lon="3.17051">
        <ele>348.286334</ele>
        <time>2025-10-23T13:41:39Z</time>
      </trkpt>
      <trkpt lat="43.57125" lon="3.17052">
        <ele>348.337055</ele>
        <time>2025-10-23T13:41:40Z</time>
      </trkpt>
      <trkpt lat="43.57127" lon="3.17054">
        <ele>348.386109</ele>
        <time>2025-10-23T13:41:41Z</time>
      </trkpt>
      <trkpt lat="43.57129" lon="3.17055">
        <ele>348.440338</ele>
        <time>2025-10-23T13:41:42Z</time>
      </trkpt>
      <trkpt lat="43.57132" lon="3.17056">
        <ele>348.499551</ele>
        <time>2025-10-23T13:41:43Z</time>
      </trkpt>
      <trkpt lat="43.57135" lon="3.17057">
        <ele>348.557335</ele>
        <time>2025-10-23T13:41:44Z</time>
      </trkpt>
      <trkpt lat="43.57137" lon="3.17057">
        <ele>348.607225</ele>
        <time>2025-10-23T13:41:45Z</time>
      </trkpt>
      <trkpt lat="43.57139" lon="3.17058">
        <ele>348.652048</ele>
        <time>2025-10-23T13:41:46Z</time>
      </trkpt>
      <trkpt lat="43.57141" lon="3.17058">
        <ele>348.696872</ele>
        <time>2025-10-23T13:41:47Z</time>
      </trkpt>
      <trkpt lat="43.57143" lon="3.17059">
        <ele>348.745632</ele>
        <time>2025-10-23T13:41:48Z</time>
      </trkpt>
      <trkpt lat="43.57146" lon="3.17059">
        <ele>348.792529</ele>
        <time>2025-10-23T13:41:49Z</time>
      </trkpt>
      <trkpt lat="43.57148" lon="3.1706">
        <ele>348.839426</ele>
        <time>2025-10-23T13:41:50Z</time>
      </trkpt>
      <trkpt lat="43.5715" lon="3.1706">
        <ele>348.883702</ele>
        <time>2025-10-23T13:41:51Z</time>
      </trkpt>
      <trkpt lat="43.57152" lon="3.17061">
        <ele>348.926751</ele>
        <time>2025-10-23T13:41:52Z</time>
      </trkpt>
      <trkpt lat="43.57154" lon="3.17061">
        <ele>348.972574</ele>
        <time>2025-10-23T13:41:53Z</time>
      </trkpt>
      <trkpt lat="43.57156" lon="3.17062">
        <ele>349.018825</ele>
        <time>2025-10-23T13:41:54Z</time>
      </trkpt>
      <trkpt lat="43.57159" lon="3.17063">
        <ele>349.072198</ele>
        <time>2025-10-23T13:41:55Z</time>
      </trkpt>
      <trkpt lat="43.57161" lon="3.17063">
        <ele>349.120958</ele>
        <time>2025-10-23T13:41:56Z</time>
      </trkpt>
      <trkpt lat="43.57163" lon="3.17064">
        <ele>349.169431</ele>
        <time>2025-10-23T13:41:57Z</time>
      </trkpt>
      <trkpt lat="43.57166" lon="3.17064">
        <ele>349.220734</ele>
        <time>2025-10-23T13:41:58Z</time>
      </trkpt>
      <trkpt lat="43.57168" lon="3.17065">
        <ele>349.271786</ele>
        <time>2025-10-23T13:41:59Z</time>
      </trkpt>
      <trkpt lat="43.5717" lon="3.17065">
        <ele>349.32102</ele>
        <time>2025-10-23T13:42:00Z</time>
      </trkpt>
      <trkpt lat="43.57173" lon="3.17066">
        <ele>349.37056</ele>
        <time>2025-10-23T13:42:01Z</time>
      </trkpt>
      <trkpt lat="43.57175" lon="3.17066">
        <ele>349.417234</ele>
        <time>2025-10-23T13:42:02Z</time>
      </trkpt>
      <trkpt lat="43.57177" lon="3.17067">
        <ele>349.465827</ele>
        <time>2025-10-23T13:42:03Z</time>
      </trkpt>
      <trkpt lat="43.57179" lon="3.17067">
        <ele>349.51442</ele>
        <time>2025-10-23T13:42:04Z</time>
      </trkpt>
      <trkpt lat="43.57182" lon="3.17067">
        <ele>349.569298</ele>
        <time>2025-10-23T13:42:05Z</time>
      </trkpt>
      <trkpt lat="43.57185" lon="3.17068">
        <ele>349.626273</ele>
        <time>2025-10-23T13:42:06Z</time>
      </trkpt>
      <trkpt lat="43.57187" lon="3.17068">
        <ele>349.679055</ele>
        <time>2025-10-23T13:42:07Z</time>
      </trkpt>
      <trkpt lat="43.5719" lon="3.17068">
        <ele>349.734082</ele>
        <time>2025-10-23T13:42:08Z</time>
      </trkpt>
      <trkpt lat="43.57192" lon="3.17069">
        <ele>349.789297</ele>
        <time>2025-10-23T13:42:09Z</time>
      </trkpt>
      <trkpt lat="43.57195" lon="3.17069">
        <ele>349.845016</ele>
        <time>2025-10-23T13:42:10Z</time>
      </trkpt>
      <trkpt lat="43.57198" lon="3.1707">
        <ele>349.898149</ele>
        <time>2025-10-23T13:42:11Z</time>
      </trkpt>
      <trkpt lat="43.572" lon="3.17071">
        <ele>349.951804</ele>
        <time>2025-10-23T13:42:12Z</time>
      </trkpt>
      <trkpt lat="43.57203" lon="3.17071">
        <ele>350.004938</ele>
        <time>2025-10-23T13:42:13Z</time>
      </trkpt>
      <trkpt lat="43.57205" lon="3.17072">
        <ele>350.05599</ele>
        <time>2025-10-23T13:42:14Z</time>
      </trkpt>
      <trkpt lat="43.57207" lon="3.17072">
        <ele>350.108927</ele>
        <time>2025-10-23T13:42:15Z</time>
      </trkpt>
      <trkpt lat="43.5721" lon="3.17073">
        <ele>350.166449</ele>
        <time>2025-10-23T13:42:16Z</time>
      </trkpt>
      <trkpt lat="43.57213" lon="3.17073">
        <ele>350.218045</ele>
        <time>2025-10-23T13:42:17Z</time>
      </trkpt>
      <trkpt lat="43.57215" lon="3.17074">
        <ele>350.273071</ele>
        <time>2025-10-23T13:42:18Z</time>
      </trkpt>
      <trkpt lat="43.57218" lon="3.17074">
        <ele>350.326204</ele>
        <time>2025-10-23T13:42:19Z</time>
      </trkpt>
      <trkpt lat="43.5722" lon="3.17075">
        <ele>350.386057</ele>
        <time>2025-10-23T13:42:20Z</time>
      </trkpt>
      <trkpt lat="43.57223" lon="3.17076">
        <ele>350.448261</ele>
        <time>2025-10-23T13:42:21Z</time>
      </trkpt>
      <trkpt lat="43.57226" lon="3.17076">
        <ele>350.512021</ele>
        <time>2025-10-23T13:42:22Z</time>
      </trkpt>
      <trkpt lat="43.57229" lon="3.17077">
        <ele>350.575287</ele>
        <time>2025-10-23T13:42:23Z</time>
      </trkpt>
      <trkpt lat="43.57232" lon="3.17077">
        <ele>350.638407</ele>
        <time>2025-10-23T13:42:24Z</time>
      </trkpt>
      <trkpt lat="43.57235" lon="3.17077">
        <ele>350.700086</ele>
        <time>2025-10-23T13:42:25Z</time>
      </trkpt>
      <trkpt lat="43.57238" lon="3.17078">
        <ele>350.761765</ele>
        <time>2025-10-23T13:42:26Z</time>
      </trkpt>
      <trkpt lat="43.57241" lon="3.17078">
        <ele>350.823237</ele>
        <time>2025-10-23T13:42:27Z</time>
      </trkpt>
      <trkpt lat="43.57244" lon="3.17078">
        <ele>350.888441</ele>
        <time>2025-10-23T13:42:28Z</time>
      </trkpt>
      <trkpt lat="43.57247" lon="3.17078">
        <ele>350.953664</ele>
        <time>2025-10-23T13:42:29Z</time>
      </trkpt>
      <trkpt lat="43.5725" lon="3.17079">
        <ele>351.018939</ele>
        <time>2025-10-23T13:42:30Z</time>
      </trkpt>
      <trkpt lat="43.57253" lon="3.17079">
        <ele>351.084215</ele>
        <time>2025-10-23T13:42:31Z</time>
      </trkpt>
      <trkpt lat="43.57257" lon="3.17078">
        <ele>351.149863</ele>
        <time>2025-10-23T13:42:32Z</time>
      </trkpt>
      <trkpt lat="43.5726" lon="3.17077">
        <ele>351.214131</ele>
        <time>2025-10-23T13:42:33Z</time>
      </trkpt>
      <trkpt lat="43.57262" lon="3.17076">
        <ele>351.279821</ele>
        <time>2025-10-23T13:42:34Z</time>
      </trkpt>
      <trkpt lat="43.57265" lon="3.17074">
        <ele>351.345448</ele>
        <time>2025-10-23T13:42:35Z</time>
      </trkpt>
      <trkpt lat="43.57268" lon="3.17072">
        <ele>351.41657</ele>
        <time>2025-10-23T13:42:36Z</time>
      </trkpt>
      <trkpt lat="43.57271" lon="3.17069">
        <ele>351.488413</ele>
        <time>2025-10-23T13:42:37Z</time>
      </trkpt>
      <trkpt lat="43.57274" lon="3.17066">
        <ele>351.561685</ele>
        <time>2025-10-23T13:42:38Z</time>
      </trkpt>
      <trkpt lat="43.57277" lon="3.17062">
        <ele>351.606936</ele>
        <time>2025-10-23T13:42:39Z</time>
      </trkpt>
      <trkpt lat="43.5728" lon="3.17058">
        <ele>351.4292</ele>
        <time>2025-10-23T13:42:40Z</time>
      </trkpt>
      <trkpt lat="43.57283" lon="3.17053">
        <ele>351.236828</ele>
        <time>2025-10-23T13:42:41Z</time>
      </trkpt>
      <trkpt lat="43.57286" lon="3.17048">
        <ele>351.031977</ele>
        <time>2025-10-23T13:42:42Z</time>
      </trkpt>
      <trkpt lat="43.5729" lon="3.17043">
        <ele>350.821509</ele>
        <time>2025-10-23T13:42:43Z</time>
      </trkpt>
      <trkpt lat="43.57294" lon="3.17037">
        <ele>350.60897</ele>
        <time>2025-10-23T13:42:44Z</time>
      </trkpt>
      <trkpt lat="43.57298" lon="3.17032">
        <ele>350.390104</ele>
        <time>2025-10-23T13:42:45Z</time>
      </trkpt>
      <trkpt lat="43.57301" lon="3.17027">
        <ele>350.177566</ele>
        <time>2025-10-23T13:42:46Z</time>
      </trkpt>
      <trkpt lat="43.57305" lon="3.17022">
        <ele>349.974822</ele>
        <time>2025-10-23T13:42:47Z</time>
      </trkpt>
      <trkpt lat="43.57308" lon="3.17017">
        <ele>349.769261</ele>
        <time>2025-10-23T13:42:48Z</time>
      </trkpt>
      <trkpt lat="43.57312" lon="3.17011">
        <ele>349.557974</ele>
        <time>2025-10-23T13:42:49Z</time>
      </trkpt>
      <trkpt lat="43.57315" lon="3.17006">
        <ele>349.34041</ele>
        <time>2025-10-23T13:42:50Z</time>
      </trkpt>
      <trkpt lat="43.57319" lon="3.17">
        <ele>349.120291</ele>
        <time>2025-10-23T13:42:51Z</time>
      </trkpt>
      <trkpt lat="43.57322" lon="3.16994">
        <ele>348.900173</ele>
        <time>2025-10-23T13:42:52Z</time>
      </trkpt>
      <trkpt lat="43.57326" lon="3.16988">
        <ele>348.66942</ele>
        <time>2025-10-23T13:42:53Z</time>
      </trkpt>
      <trkpt lat="43.5733" lon="3.16982">
        <ele>348.43999</ele>
        <time>2025-10-23T13:42:54Z</time>
      </trkpt>
      <trkpt lat="43.57333" lon="3.16975">
        <ele>348.208406</ele>
        <time>2025-10-23T13:42:55Z</time>
      </trkpt>
      <trkpt lat="43.57336" lon="3.16968">
        <ele>347.968725</ele>
        <time>2025-10-23T13:42:56Z</time>
      </trkpt>
      <trkpt lat="43.57339" lon="3.16961">
        <ele>347.716642</ele>
        <time>2025-10-23T13:42:57Z</time>
      </trkpt>
      <trkpt lat="43.57341" lon="3.16952">
        <ele>347.458294</ele>
        <time>2025-10-23T13:42:58Z</time>
      </trkpt>
      <trkpt lat="43.57344" lon="3.16944">
        <ele>347.194604</ele>
        <time>2025-10-23T13:42:59Z</time>
      </trkpt>
      <trkpt lat="43.57346" lon="3.16935">
        <ele>346.921801</ele>
        <time>2025-10-23T13:43:00Z</time>
      </trkpt>
      <trkpt lat="43.57348" lon="3.16926">
        <ele>346.647579</ele>
        <time>2025-10-23T13:43:01Z</time>
      </trkpt>
      <trkpt lat="43.57351" lon="3.16917">
        <ele>346.366503</ele>
        <time>2025-10-23T13:43:02Z</time>
      </trkpt>
      <trkpt lat="43.57354" lon="3.16908">
        <ele>346.066974</ele>
        <time>2025-10-23T13:43:03Z</time>
      </trkpt>
      <trkpt lat="43.57356" lon="3.16898">
        <ele>345.769495</ele>
        <time>2025-10-23T13:43:04Z</time>
      </trkpt>
      <trkpt lat="43.57359" lon="3.16888">
        <ele>345.455393</ele>
        <time>2025-10-23T13:43:05Z</time>
      </trkpt>
      <trkpt lat="43.57363" lon="3.16879">
        <ele>345.139516</ele>
        <time>2025-10-23T13:43:06Z</time>
      </trkpt>
      <trkpt lat="43.57366" lon="3.16869">
        <ele>344.836543</ele>
        <time>2025-10-23T13:43:07Z</time>
      </trkpt>
      <trkpt lat="43.57368" lon="3.16859">
        <ele>344.535075</ele>
        <time>2025-10-23T13:43:08Z</time>
      </trkpt>
      <trkpt lat="43.57369" lon="3.16849">
        <ele>344.175303</ele>
        <time>2025-10-23T13:43:09Z</time>
      </trkpt>
      <trkpt lat="43.5737" lon="3.16839">
        <ele>343.762122</ele>
        <time>2025-10-23T13:43:10Z</time>
      </trkpt>
      <trkpt lat="43.57369" lon="3.16829">
        <ele>343.352263</ele>
        <time>2025-10-23T13:43:11Z</time>
      </trkpt>
      <trkpt lat="43.57368" lon="3.1682">
        <ele>342.943759</ele>
        <time>2025-10-23T13:43:12Z</time>
      </trkpt>
      <trkpt lat="43.57366" lon="3.16811">
        <ele>342.548647</ele>
        <time>2025-10-23T13:43:13Z</time>
      </trkpt>
      <trkpt lat="43.57363" lon="3.16801">
        <ele>342.11107</ele>
        <time>2025-10-23T13:43:14Z</time>
      </trkpt>
      <trkpt lat="43.5736" lon="3.16791">
        <ele>341.67946</ele>
        <time>2025-10-23T13:43:15Z</time>
      </trkpt>
      <trkpt lat="43.57357" lon="3.16781">
        <ele>341.20302</ele>
        <time>2025-10-23T13:43:16Z</time>
      </trkpt>
      <trkpt lat="43.57353" lon="3.1677">
        <ele>340.706327</ele>
        <time>2025-10-23T13:43:17Z</time>
      </trkpt>
      <trkpt lat="43.57349" lon="3.16759">
        <ele>340.203817</ele>
        <time>2025-10-23T13:43:18Z</time>
      </trkpt>
      <trkpt lat="43.57345" lon="3.16748">
        <ele>339.706254</ele>
        <time>2025-10-23T13:43:19Z</time>
      </trkpt>
      <trkpt lat="43.57342" lon="3.16737">
        <ele>339.222391</ele>
        <time>2025-10-23T13:43:20Z</time>
      </trkpt>
      <trkpt lat="43.57339" lon="3.16726">
        <ele>338.705447</ele>
        <time>2025-10-23T13:43:21Z</time>
      </trkpt>
      <trkpt lat="43.57336" lon="3.16714">
        <ele>338.182549</ele>
        <time>2025-10-23T13:43:22Z</time>
      </trkpt>
      <trkpt lat="43.57334" lon="3.16701">
        <ele>337.657436</ele>
        <time>2025-10-23T13:43:23Z</time>
      </trkpt>
      <trkpt lat="43.57332" lon="3.16689">
        <ele>337.13733</ele>
        <time>2025-10-23T13:43:24Z</time>
      </trkpt>
      <trkpt lat="43.57328" lon="3.16677">
        <ele>336.610709</ele>
        <time>2025-10-23T13:43:25Z</time>
      </trkpt>
      <trkpt lat="43.57325" lon="3.16666">
        <ele>336.104933</ele>
        <time>2025-10-23T13:43:26Z</time>
      </trkpt>
      <trkpt lat="43.57322" lon="3.16653">
        <ele>335.564714</ele>
        <time>2025-10-23T13:43:27Z</time>
      </trkpt>
      <trkpt lat="43.5732" lon="3.16643">
        <ele>335.108928</ele>
        <time>2025-10-23T13:43:28Z</time>
      </trkpt>
      <trkpt lat="43.57316" lon="3.16633">
        <ele>334.665763</ele>
        <time>2025-10-23T13:43:29Z</time>
      </trkpt>
      <trkpt lat="43.57313" lon="3.16624">
        <ele>334.257564</ele>
        <time>2025-10-23T13:43:30Z</time>
      </trkpt>
      <trkpt lat="43.5731" lon="3.16616">
        <ele>333.992161</ele>
        <time>2025-10-23T13:43:31Z</time>
      </trkpt>
      <trkpt lat="43.5731" lon="3.16608">
        <ele>333.804146</ele>
        <time>2025-10-23T13:43:32Z</time>
      </trkpt>
      <trkpt lat="43.57311" lon="3.166">
        <ele>333.622272</ele>
        <time>2025-10-23T13:43:33Z</time>
      </trkpt>
      <trkpt lat="43.57313" lon="3.16593">
        <ele>333.448886</ele>
        <time>2025-10-23T13:43:34Z</time>
      </trkpt>
      <trkpt lat="43.57317" lon="3.16589">
        <ele>333.29261</ele>
        <time>2025-10-23T13:43:35Z</time>
      </trkpt>
      <trkpt lat="43.57321" lon="3.16587">
        <ele>333.174976</ele>
        <time>2025-10-23T13:43:36Z</time>
      </trkpt>
      <trkpt lat="43.57323" lon="3.16585">
        <ele>333.088198</ele>
        <time>2025-10-23T13:43:37Z</time>
      </trkpt>
      <trkpt lat="43.57325" lon="3.16584">
        <ele>333.020935</ele>
        <time>2025-10-23T13:43:38Z</time>
      </trkpt>
      <trkpt lat="43.57327" lon="3.16584">
        <ele>332.951896</ele>
        <time>2025-10-23T13:43:39Z</time>
      </trkpt>
      <trkpt lat="43.57328" lon="3.16584">
        <ele>332.920531</ele>
        <time>2025-10-23T13:43:40Z</time>
      </trkpt>
      <trkpt lat="43.57328" lon="3.16584">
        <ele>332.909169</ele>
        <time>2025-10-23T13:43:41Z</time>
      </trkpt>
      <trkpt lat="43.57328" lon="3.16585">
        <ele>332.901665</ele>
        <time>2025-10-23T13:43:42Z</time>
      </trkpt>
      <trkpt lat="43.57328" lon="3.16585">
        <ele>332.896143</ele>
        <time>2025-10-23T13:43:43Z</time>
      </trkpt>
      <trkpt lat="43.57328" lon="3.16585">
        <ele>332.896143</ele>
        <time>2025-10-23T13:43:44Z</time>
      </trkpt>
      <trkpt lat="43.57328" lon="3.16585">
        <ele>332.893871</ele>
        <time>2025-10-23T13:43:45Z</time>
      </trkpt>
      <trkpt lat="43.57328" lon="3.16585">
        <ele>332.893871</ele>
        <time>2025-10-23T13:43:46Z</time>
      </trkpt>
      <trkpt lat="43.57328" lon="3.16585">
        <ele>332.891599</ele>
        <time>2025-10-23T13:43:47Z</time>
      </trkpt>
      <trkpt lat="43.57328" lon="3.16585">
        <ele>332.891599</ele>
        <time>2025-10-23T13:43:48Z</time>
      </trkpt>
      <trkpt lat="43.57328" lon="3.16585">
        <ele>332.891599</ele>
        <time>2025-10-23T13:43:49Z</time>
      </trkpt>
      <trkpt lat="43.57328" lon="3.16585">
        <ele>332.891599</ele>
        <time>2025-10-23T13:43:50Z</time>
      </trkpt>
      <trkpt lat="43.57328" lon="3.16585">
        <ele>332.889326</ele>
        <time>2025-10-23T13:43:51Z</time>
      </trkpt>
      <trkpt lat="43.57328" lon="3.16585">
        <ele>332.88619</ele>
        <time>2025-10-23T13:43:52Z</time>
      </trkpt>
      <trkpt lat="43.57328" lon="3.16585">
        <ele>332.881645</ele>
        <time>2025-10-23T13:43:53Z</time>
      </trkpt>
      <trkpt lat="43.57329" lon="3.16587">
        <ele>332.851629</ele>
        <time>2025-10-23T13:43:54Z</time>
      </trkpt>
      <trkpt lat="43.57329" lon="3.16587">
        <ele>332.837639</ele>
        <time>2025-10-23T13:43:55Z</time>
      </trkpt>
      <trkpt lat="43.57329" lon="3.16588">
        <ele>332.816949</ele>
        <time>2025-10-23T13:43:56Z</time>
      </trkpt>
      <trkpt lat="43.57328" lon="3.16589">
        <ele>332.789339</ele>
        <time>2025-10-23T13:43:57Z</time>
      </trkpt>
      <trkpt lat="43.57328" lon="3.16589">
        <ele>332.781835</ele>
        <time>2025-10-23T13:43:58Z</time>
      </trkpt>
      <trkpt lat="43.57328" lon="3.1659">
        <ele>332.77729</ele>
        <time>2025-10-23T13:43:59Z</time>
      </trkpt>
      <trkpt lat="43.57328" lon="3.1659">
        <ele>332.769786</ele>
        <time>2025-10-23T13:44:00Z</time>
      </trkpt>
      <trkpt lat="43.57328" lon="3.1659">
        <ele>332.764265</ele>
        <time>2025-10-23T13:44:01Z</time>
      </trkpt>
      <trkpt lat="43.57328" lon="3.16589">
        <ele>332.75063</ele>
        <time>2025-10-23T13:44:02Z</time>
      </trkpt>
      <trkpt lat="43.57328" lon="3.16589">
        <ele>332.739269</ele>
        <time>2025-10-23T13:44:03Z</time>
      </trkpt>
      <trkpt lat="43.57328" lon="3.16588">
        <ele>332.731765</ele>
        <time>2025-10-23T13:44:04Z</time>
      </trkpt>
      <trkpt lat="43.57328" lon="3.16588">
        <ele>332.72722</ele>
        <time>2025-10-23T13:44:05Z</time>
      </trkpt>
      <trkpt lat="43.57328" lon="3.16588">
        <ele>332.722675</ele>
        <time>2025-10-23T13:44:06Z</time>
      </trkpt>
      <trkpt lat="43.57328" lon="3.16588">
        <ele>332.719539</ele>
        <time>2025-10-23T13:44:07Z</time>
      </trkpt>
      <trkpt lat="43.57328" lon="3.16589">
        <ele>332.712722</ele>
        <time>2025-10-23T13:44:08Z</time>
      </trkpt>
      <trkpt lat="43.57328" lon="3.16588">
        <ele>332.697229</ele>
        <time>2025-10-23T13:44:09Z</time>
      </trkpt>
      <trkpt lat="43.57328" lon="3.16589">
        <ele>332.677214</ele>
        <time>2025-10-23T13:44:10Z</time>
      </trkpt>
      <trkpt lat="43.57328" lon="3.16589">
        <ele>332.674941</ele>
        <time>2025-10-23T13:44:11Z</time>
      </trkpt>
      <trkpt lat="43.57328" lon="3.16589">
        <ele>332.672669</ele>
        <time>2025-10-23T13:44:12Z</time>
      </trkpt>
      <trkpt lat="43.57328" lon="3.16589">
        <ele>332.672669</ele>
        <time>2025-10-23T13:44:13Z</time>
      </trkpt>
      <trkpt lat="43.57328" lon="3.16589">
        <ele>332.672669</ele>
        <time>2025-10-23T13:44:14Z</time>
      </trkpt>
      <trkpt lat="43.57328" lon="3.16589">
        <ele>332.669533</ele>
        <time>2025-10-23T13:44:15Z</time>
      </trkpt>
      <trkpt lat="43.57328" lon="3.16589">
        <ele>332.666396</ele>
        <time>2025-10-23T13:44:16Z</time>
      </trkpt>
      <trkpt lat="43.57328" lon="3.16589">
        <ele>332.66326</ele>
        <time>2025-10-23T13:44:17Z</time>
      </trkpt>
      <trkpt lat="43.57328" lon="3.16589">
        <ele>332.66326</ele>
        <time>2025-10-23T13:44:18Z</time>
      </trkpt>
      <trkpt lat="43.57328" lon="3.16589">
        <ele>332.66326</ele>
        <time>2025-10-23T13:44:19Z</time>
      </trkpt>
      <trkpt lat="43.57328" lon="3.16589">
        <ele>332.66326</ele>
        <time>2025-10-23T13:44:20Z</time>
      </trkpt>
      <trkpt lat="43.57328" lon="3.16589">
        <ele>332.66326</ele>
        <time>2025-10-23T13:44:21Z</time>
      </trkpt>
      <trkpt lat="43.57328" lon="3.16589">
        <ele>332.66326</ele>
        <time>2025-10-23T13:44:22Z</time>
      </trkpt>
      <trkpt lat="43.57328" lon="3.16589">
        <ele>332.66326</ele>
        <time>2025-10-23T13:44:23Z</time>
      </trkpt>
      <trkpt lat="43.57328" lon="3.16589">
        <ele>332.66326</ele>
        <time>2025-10-23T13:44:24Z</time>
      </trkpt>
      <trkpt lat="43.57328" lon="3.16589">
        <ele>332.659387</ele>
        <time>2025-10-23T13:44:25Z</time>
      </trkpt>
      <trkpt lat="43.57328" lon="3.16589">
        <ele>332.659387</ele>
        <time>2025-10-23T13:44:26Z</time>
      </trkpt>
      <trkpt lat="43.57328" lon="3.16589">
        <ele>332.659387</ele>
        <time>2025-10-23T13:44:27Z</time>
      </trkpt>
      <trkpt lat="43.57328" lon="3.16589">
        <ele>332.659387</ele>
        <time>2025-10-23T13:44:28Z</time>
      </trkpt>
      <trkpt lat="43.57328" lon="3.16589">
        <ele>332.659387</ele>
        <time>2025-10-23T13:44:29Z</time>
      </trkpt>
      <trkpt lat="43.57328" lon="3.16589">
        <ele>332.657114</ele>
        <time>2025-10-23T13:44:30Z</time>
      </trkpt>
      <trkpt lat="43.57328" lon="3.16589">
        <ele>332.657114</ele>
        <time>2025-10-23T13:44:31Z</time>
      </trkpt>
      <trkpt lat="43.57328" lon="3.16589">
        <ele>332.657114</ele>
        <time>2025-10-23T13:44:32Z</time>
      </trkpt>
      <trkpt lat="43.57328" lon="3.16589">
        <ele>332.657114</ele>
        <time>2025-10-23T13:44:34Z</time>
      </trkpt>
      <trkpt lat="43.57328" lon="3.16589">
        <ele>332.653978</ele>
        <time>2025-10-23T13:44:35Z</time>
      </trkpt>
      <trkpt lat="43.57328" lon="3.16589">
        <ele>332.653978</ele>
        <time>2025-10-23T13:44:36Z</time>
      </trkpt>
      <trkpt lat="43.57328" lon="3.16589">
        <ele>332.653978</ele>
        <time>2025-10-23T13:44:37Z</time>
      </trkpt>
      <trkpt lat="43.57328" lon="3.16589">
        <ele>332.651705</ele>
        <time>2025-10-23T13:44:38Z</time>
      </trkpt>
      <trkpt lat="43.57328" lon="3.16589">
        <ele>332.651705</ele>
        <time>2025-10-23T13:44:39Z</time>
      </trkpt>
      <trkpt lat="43.57328" lon="3.16589">
        <ele>332.651705</ele>
        <time>2025-10-23T13:44:40Z</time>
      </trkpt>
      <trkpt lat="43.57328" lon="3.16589">
        <ele>332.651705</ele>
        <time>2025-10-23T13:44:41Z</time>
      </trkpt>
      <trkpt lat="43.57328" lon="3.16589">
        <ele>332.651705</ele>
        <time>2025-10-23T13:44:42Z</time>
      </trkpt>
      <trkpt lat="43.57328" lon="3.16589">
        <ele>332.649433</ele>
        <time>2025-10-23T13:44:43Z</time>
      </trkpt>
      <trkpt lat="43.57328" lon="3.16589">
        <ele>332.647161</ele>
        <time>2025-10-23T13:44:44Z</time>
      </trkpt>
      <trkpt lat="43.57328" lon="3.16589">
        <ele>332.644888</ele>
        <time>2025-10-23T13:44:45Z</time>
      </trkpt>
      <trkpt lat="43.57328" lon="3.16589">
        <ele>332.644888</ele>
        <time>2025-10-23T13:44:46Z</time>
      </trkpt>
      <trkpt lat="43.57328" lon="3.16589">
        <ele>332.641752</ele>
        <time>2025-10-23T13:44:47Z</time>
      </trkpt>
      <trkpt lat="43.57328" lon="3.16589">
        <ele>332.638615</ele>
        <time>2025-10-23T13:44:48Z</time>
      </trkpt>
      <trkpt lat="43.57328" lon="3.16589">
        <ele>332.635479</ele>
        <time>2025-10-23T13:44:49Z</time>
      </trkpt>
      <trkpt lat="43.57328" lon="3.16589">
        <ele>332.633207</ele>
        <time>2025-10-23T13:44:50Z</time>
      </trkpt>
      <trkpt lat="43.57328" lon="3.16589">
        <ele>332.633207</ele>
        <time>2025-10-23T13:44:51Z</time>
      </trkpt>
      <trkpt lat="43.57328" lon="3.16589">
        <ele>332.630934</ele>
        <time>2025-10-23T13:44:52Z</time>
      </trkpt>
      <trkpt lat="43.57327" lon="3.16589">
        <ele>332.621254</ele>
        <time>2025-10-23T13:44:53Z</time>
      </trkpt>
      <trkpt lat="43.57327" lon="3.16588">
        <ele>332.613508</ele>
        <time>2025-10-23T13:44:54Z</time>
      </trkpt>
      <trkpt lat="43.57327" lon="3.16588">
        <ele>332.613508</ele>
        <time>2025-10-23T13:44:55Z</time>
      </trkpt>
      <trkpt lat="43.57327" lon="3.16588">
        <ele>332.611236</ele>
        <time>2025-10-23T13:44:56Z</time>
      </trkpt>
      <trkpt lat="43.57327" lon="3.16588">
        <ele>332.608963</ele>
        <time>2025-10-23T13:44:57Z</time>
      </trkpt>
      <trkpt lat="43.57327" lon="3.16588">
        <ele>332.605827</ele>
        <time>2025-10-23T13:44:58Z</time>
      </trkpt>
      <trkpt lat="43.57327" lon="3.16588">
        <ele>332.603555</ele>
        <time>2025-10-23T13:44:59Z</time>
      </trkpt>
      <trkpt lat="43.57327" lon="3.16588">
        <ele>332.599682</ele>
        <time>2025-10-23T13:45:00Z</time>
      </trkpt>
      <trkpt lat="43.57327" lon="3.16588">
        <ele>332.599682</ele>
        <time>2025-10-23T13:45:01Z</time>
      </trkpt>
      <trkpt lat="43.57327" lon="3.16588">
        <ele>332.597409</ele>
        <time>2025-10-23T13:45:02Z</time>
      </trkpt>
      <trkpt lat="43.57327" lon="3.16588">
        <ele>332.595137</ele>
        <time>2025-10-23T13:45:03Z</time>
      </trkpt>
      <trkpt lat="43.57327" lon="3.16588">
        <ele>332.595137</ele>
        <time>2025-10-23T13:45:04Z</time>
      </trkpt>
      <trkpt lat="43.57327" lon="3.16588">
        <ele>332.592864</ele>
        <time>2025-10-23T13:45:05Z</time>
      </trkpt>
      <trkpt lat="43.57327" lon="3.16588">
        <ele>332.590592</ele>
        <time>2025-10-23T13:45:06Z</time>
      </trkpt>
      <trkpt lat="43.57328" lon="3.16588">
        <ele>332.576314</ele>
        <time>2025-10-23T13:45:07Z</time>
      </trkpt>
      <trkpt lat="43.57329" lon="3.16589">
        <ele>332.540635</ele>
        <time>2025-10-23T13:45:08Z</time>
      </trkpt>
      <trkpt lat="43.5733" lon="3.16589">
        <ele>332.498838</ele>
        <time>2025-10-23T13:45:09Z</time>
      </trkpt>
      <trkpt lat="43.57331" lon="3.1659">
        <ele>332.456233</ele>
        <time>2025-10-23T13:45:10Z</time>
      </trkpt>
      <trkpt lat="43.57331" lon="3.16592">
        <ele>332.412045</ele>
        <time>2025-10-23T13:45:11Z</time>
      </trkpt>
      <trkpt lat="43.57329" lon="3.16592">
        <ele>332.328495</ele>
        <time>2025-10-23T13:45:12Z</time>
      </trkpt>
      <trkpt lat="43.5733" lon="3.16591">
        <ele>332.299904</ele>
        <time>2025-10-23T13:45:13Z</time>
      </trkpt>
      <trkpt lat="43.5733" lon="3.16591">
        <ele>332.297631</ele>
        <time>2025-10-23T13:45:14Z</time>
      </trkpt>
      <trkpt lat="43.5733" lon="3.16591">
        <ele>332.297631</ele>
        <time>2025-10-23T13:45:15Z</time>
      </trkpt>
      <trkpt lat="43.5733" lon="3.16592">
        <ele>332.295359</ele>
        <time>2025-10-23T13:45:16Z</time>
      </trkpt>
      <trkpt lat="43.5733" lon="3.16592">
        <ele>332.295359</ele>
        <time>2025-10-23T13:45:17Z</time>
      </trkpt>
      <trkpt lat="43.5733" lon="3.16592">
        <ele>332.293087</ele>
        <time>2025-10-23T13:45:18Z</time>
      </trkpt>
      <trkpt lat="43.5733" lon="3.16592">
        <ele>332.28995</ele>
        <time>2025-10-23T13:45:19Z</time>
      </trkpt>
      <trkpt lat="43.5733" lon="3.16592">
        <ele>332.265942</ele>
        <time>2025-10-23T13:45:20Z</time>
      </trkpt>
      <trkpt lat="43.57331" lon="3.16592">
        <ele>332.250259</ele>
        <time>2025-10-23T13:45:21Z</time>
      </trkpt>
      <trkpt lat="43.57331" lon="3.16592">
        <ele>332.24085</ele>
        <time>2025-10-23T13:45:22Z</time>
      </trkpt>
      <trkpt lat="43.57332" lon="3.16592">
        <ele>332.222031</ele>
        <time>2025-10-23T13:45:23Z</time>
      </trkpt>
      <trkpt lat="43.57332" lon="3.16593">
        <ele>332.206185</ele>
        <time>2025-10-23T13:45:24Z</time>
      </trkpt>
      <trkpt lat="43.57333" lon="3.16593">
        <ele>332.184202</ele>
        <time>2025-10-23T13:45:25Z</time>
      </trkpt>
      <trkpt lat="43.57333" lon="3.16593">
        <ele>332.16871</ele>
        <time>2025-10-23T13:45:26Z</time>
      </trkpt>
      <trkpt lat="43.57333" lon="3.16594">
        <ele>332.15903</ele>
        <time>2025-10-23T13:45:27Z</time>
      </trkpt>
      <trkpt lat="43.57334" lon="3.16594">
        <ele>332.155894</ele>
        <time>2025-10-23T13:45:28Z</time>
      </trkpt>
      <trkpt lat="43.57334" lon="3.16593">
        <ele>332.148147</ele>
        <time>2025-10-23T13:45:29Z</time>
      </trkpt>
      <trkpt lat="43.57334" lon="3.16593">
        <ele>332.138532</ele>
        <time>2025-10-23T13:45:30Z</time>
      </trkpt>
      <trkpt lat="43.57334" lon="3.16592">
        <ele>332.126745</ele>
        <time>2025-10-23T13:45:31Z</time>
      </trkpt>
      <trkpt lat="43.57334" lon="3.16592">
        <ele>332.111737</ele>
        <time>2025-10-23T13:45:32Z</time>
      </trkpt>
      <trkpt lat="43.57334" lon="3.16591">
        <ele>332.08377</ele>
        <time>2025-10-23T13:45:33Z</time>
      </trkpt>
      <trkpt lat="43.57334" lon="3.16591">
        <ele>332.074154</ele>
        <time>2025-10-23T13:45:34Z</time>
      </trkpt>
      <trkpt lat="43.57334" lon="3.16591">
        <ele>332.06489</ele>
        <time>2025-10-23T13:45:35Z</time>
      </trkpt>
      <trkpt lat="43.57334" lon="3.16591">
        <ele>332.051547</ele>
        <time>2025-10-23T13:45:36Z</time>
      </trkpt>
      <trkpt lat="43.57334" lon="3.16591">
        <ele>332.051547</ele>
        <time>2025-10-23T13:45:37Z</time>
      </trkpt>
      <trkpt lat="43.57335" lon="3.16591">
        <ele>332.04841</ele>
        <time>2025-10-23T13:45:38Z</time>
      </trkpt>
      <trkpt lat="43.57335" lon="3.16591">
        <ele>332.04841</ele>
        <time>2025-10-23T13:45:39Z</time>
      </trkpt>
      <trkpt lat="43.57335" lon="3.16591">
        <ele>332.04841</ele>
        <time>2025-10-23T13:45:40Z</time>
      </trkpt>
      <trkpt lat="43.57335" lon="3.16591">
        <ele>332.04841</ele>
        <time>2025-10-23T13:45:41Z</time>
      </trkpt>
      <trkpt lat="43.57335" lon="3.16591">
        <ele>332.046138</ele>
        <time>2025-10-23T13:45:42Z</time>
      </trkpt>
      <trkpt lat="43.57335" lon="3.16591">
        <ele>332.046138</ele>
        <time>2025-10-23T13:45:43Z</time>
      </trkpt>
      <trkpt lat="43.57334" lon="3.16591">
        <ele>332.043002</ele>
        <time>2025-10-23T13:45:44Z</time>
      </trkpt>
      <trkpt lat="43.57334" lon="3.16591">
        <ele>332.043002</ele>
        <time>2025-10-23T13:45:45Z</time>
      </trkpt>
      <trkpt lat="43.57334" lon="3.16591">
        <ele>332.043002</ele>
        <time>2025-10-23T13:45:46Z</time>
      </trkpt>
      <trkpt lat="43.57334" lon="3.16591">
        <ele>332.03633</ele>
        <time>2025-10-23T13:45:47Z</time>
      </trkpt>
      <trkpt lat="43.57334" lon="3.16591">
        <ele>332.03633</ele>
        <time>2025-10-23T13:45:48Z</time>
      </trkpt>
      <trkpt lat="43.57334" lon="3.16591">
        <ele>332.03633</ele>
        <time>2025-10-23T13:45:49Z</time>
      </trkpt>
      <trkpt lat="43.57334" lon="3.16591">
        <ele>332.033193</ele>
        <time>2025-10-23T13:45:50Z</time>
      </trkpt>
      <trkpt lat="43.57334" lon="3.16591">
        <ele>332.030921</ele>
        <time>2025-10-23T13:45:51Z</time>
      </trkpt>
      <trkpt lat="43.57334" lon="3.16591">
        <ele>332.027048</ele>
        <time>2025-10-23T13:45:52Z</time>
      </trkpt>
      <trkpt lat="43.57334" lon="3.16591">
        <ele>332.027048</ele>
        <time>2025-10-23T13:45:53Z</time>
      </trkpt>
      <trkpt lat="43.57334" lon="3.16591">
        <ele>332.023175</ele>
        <time>2025-10-23T13:45:54Z</time>
      </trkpt>
      <trkpt lat="43.57334" lon="3.16591">
        <ele>332.020038</ele>
        <time>2025-10-23T13:45:55Z</time>
      </trkpt>
      <trkpt lat="43.57334" lon="3.16591">
        <ele>332.016902</ele>
        <time>2025-10-23T13:45:56Z</time>
      </trkpt>
      <trkpt lat="43.57334" lon="3.16591">
        <ele>332.016902</ele>
        <time>2025-10-23T13:45:57Z</time>
      </trkpt>
      <trkpt lat="43.57334" lon="3.1659">
        <ele>332.013029</ele>
        <time>2025-10-23T13:45:58Z</time>
      </trkpt>
      <trkpt lat="43.57334" lon="3.1659">
        <ele>332.013029</ele>
        <time>2025-10-23T13:45:59Z</time>
      </trkpt>
      <trkpt lat="43.57334" lon="3.1659">
        <ele>332.013029</ele>
        <time>2025-10-23T13:46:00Z</time>
      </trkpt>
      <trkpt lat="43.57334" lon="3.1659">
        <ele>331.996103</ele>
        <time>2025-10-23T13:46:01Z</time>
      </trkpt>
      <trkpt lat="43.57334" lon="3.1659">
        <ele>331.990581</ele>
        <time>2025-10-23T13:46:02Z</time>
      </trkpt>
      <trkpt lat="43.57334" lon="3.1659">
        <ele>331.985059</ele>
        <time>2025-10-23T13:46:03Z</time>
      </trkpt>
      <trkpt lat="43.57334" lon="3.16591">
        <ele>331.974609</ele>
        <time>2025-10-23T13:46:04Z</time>
      </trkpt>
      <trkpt lat="43.57333" lon="3.16591">
        <ele>331.968336</ele>
        <time>2025-10-23T13:46:05Z</time>
      </trkpt>
      <trkpt lat="43.57333" lon="3.16591">
        <ele>331.954058</ele>
        <time>2025-10-23T13:46:06Z</time>
      </trkpt>
      <trkpt lat="43.57333" lon="3.16591">
        <ele>331.950185</ele>
        <time>2025-10-23T13:46:07Z</time>
      </trkpt>
      <trkpt lat="43.57333" lon="3.16591">
        <ele>331.946312</ele>
        <time>2025-10-23T13:46:08Z</time>
      </trkpt>
      <trkpt lat="43.57333" lon="3.1659">
        <ele>331.94079</ele>
        <time>2025-10-23T13:46:09Z</time>
      </trkpt>
      <trkpt lat="43.57334" lon="3.1659">
        <ele>331.927707</ele>
        <time>2025-10-23T13:46:10Z</time>
      </trkpt>
      <trkpt lat="43.57334" lon="3.1659">
        <ele>331.916663</ele>
        <time>2025-10-23T13:46:11Z</time>
      </trkpt>
      <trkpt lat="43.57334" lon="3.16589">
        <ele>331.90332</ele>
        <time>2025-10-23T13:46:12Z</time>
      </trkpt>
      <trkpt lat="43.57335" lon="3.16589">
        <ele>331.89057</ele>
        <time>2025-10-23T13:46:13Z</time>
      </trkpt>
      <trkpt lat="43.57335" lon="3.16589">
        <ele>331.863458</ele>
        <time>2025-10-23T13:46:14Z</time>
      </trkpt>
      <trkpt lat="43.57336" lon="3.16588">
        <ele>331.844092</ele>
        <time>2025-10-23T13:46:15Z</time>
      </trkpt>
      <trkpt lat="43.57336" lon="3.16588">
        <ele>331.827167</ele>
        <time>2025-10-23T13:46:16Z</time>
      </trkpt>
      <trkpt lat="43.57337" lon="3.16587">
        <ele>331.801001</ele>
        <time>2025-10-23T13:46:17Z</time>
      </trkpt>
      <trkpt lat="43.57337" lon="3.16586">
        <ele>331.782473</ele>
        <time>2025-10-23T13:46:18Z</time>
      </trkpt>
      <trkpt lat="43.57338" lon="3.16586">
        <ele>331.766627</ele>
        <time>2025-10-23T13:46:19Z</time>
      </trkpt>
      <trkpt lat="43.57338" lon="3.16586">
        <ele>331.756947</ele>
        <time>2025-10-23T13:46:20Z</time>
      </trkpt>
      <trkpt lat="43.57338" lon="3.16586">
        <ele>331.750674</ele>
        <time>2025-10-23T13:46:21Z</time>
      </trkpt>
      <trkpt lat="43.57338" lon="3.16586">
        <ele>331.740994</ele>
        <time>2025-10-23T13:46:22Z</time>
      </trkpt>
      <trkpt lat="43.57339" lon="3.16586">
        <ele>331.734323</ele>
        <time>2025-10-23T13:46:23Z</time>
      </trkpt>
      <trkpt lat="43.57339" lon="3.16587">
        <ele>331.724707</ele>
        <time>2025-10-23T13:46:24Z</time>
      </trkpt>
      <trkpt lat="43.57339" lon="3.16587">
        <ele>331.720834</ele>
        <time>2025-10-23T13:46:25Z</time>
      </trkpt>
      <trkpt lat="43.57339" lon="3.16587">
        <ele>331.713088</ele>
        <time>2025-10-23T13:46:26Z</time>
      </trkpt>
      <trkpt lat="43.57339" lon="3.16587">
        <ele>331.713088</ele>
        <time>2025-10-23T13:46:27Z</time>
      </trkpt>
      <trkpt lat="43.57339" lon="3.16587">
        <ele>331.713088</ele>
        <time>2025-10-23T13:46:28Z</time>
      </trkpt>
      <trkpt lat="43.57339" lon="3.16587">
        <ele>331.710816</ele>
        <time>2025-10-23T13:46:29Z</time>
      </trkpt>
      <trkpt lat="43.57339" lon="3.16587">
        <ele>331.710816</ele>
        <time>2025-10-23T13:46:30Z</time>
      </trkpt>
      <trkpt lat="43.57339" lon="3.16587">
        <ele>331.707679</ele>
        <time>2025-10-23T13:46:31Z</time>
      </trkpt>
      <trkpt lat="43.57339" lon="3.16587">
        <ele>331.707679</ele>
        <time>2025-10-23T13:46:32Z</time>
      </trkpt>
      <trkpt lat="43.57339" lon="3.16587">
        <ele>331.707679</ele>
        <time>2025-10-23T13:46:33Z</time>
      </trkpt>
      <trkpt lat="43.57339" lon="3.16587">
        <ele>331.704543</ele>
        <time>2025-10-23T13:46:34Z</time>
      </trkpt>
      <trkpt lat="43.57339" lon="3.16587">
        <ele>331.704543</ele>
        <time>2025-10-23T13:46:35Z</time>
      </trkpt>
      <trkpt lat="43.57339" lon="3.16587">
        <ele>331.704543</ele>
        <time>2025-10-23T13:46:36Z</time>
      </trkpt>
      <trkpt lat="43.57339" lon="3.16587">
        <ele>331.704543</ele>
        <time>2025-10-23T13:46:37Z</time>
      </trkpt>
      <trkpt lat="43.57339" lon="3.16587">
        <ele>331.704543</ele>
        <time>2025-10-23T13:46:38Z</time>
      </trkpt>
      <trkpt lat="43.57339" lon="3.16587">
        <ele>331.704543</ele>
        <time>2025-10-23T13:46:39Z</time>
      </trkpt>
      <trkpt lat="43.57339" lon="3.16587">
        <ele>331.704543</ele>
        <time>2025-10-23T13:46:40Z</time>
      </trkpt>
      <trkpt lat="43.57339" lon="3.16587">
        <ele>331.704543</ele>
        <time>2025-10-23T13:46:41Z</time>
      </trkpt>
      <trkpt lat="43.57339" lon="3.16587">
        <ele>331.704543</ele>
        <time>2025-10-23T13:46:42Z</time>
      </trkpt>
      <trkpt lat="43.57339" lon="3.16587">
        <ele>331.704543</ele>
        <time>2025-10-23T13:46:43Z</time>
      </trkpt>
      <trkpt lat="43.57339" lon="3.16587">
        <ele>331.704543</ele>
        <time>2025-10-23T13:46:44Z</time>
      </trkpt>
      <trkpt lat="43.57339" lon="3.16587">
        <ele>331.704543</ele>
        <time>2025-10-23T13:46:45Z</time>
      </trkpt>
      <trkpt lat="43.57339" lon="3.16587">
        <ele>331.704543</ele>
        <time>2025-10-23T13:46:46Z</time>
      </trkpt>
      <trkpt lat="43.57339" lon="3.16587">
        <ele>331.704543</ele>
        <time>2025-10-23T13:46:47Z</time>
      </trkpt>
      <trkpt lat="43.57339" lon="3.16587">
        <ele>331.704543</ele>
        <time>2025-10-23T13:46:48Z</time>
      </trkpt>
      <trkpt lat="43.57339" lon="3.16587">
        <ele>331.704543</ele>
        <time>2025-10-23T13:46:49Z</time>
      </trkpt>
      <trkpt lat="43.57339" lon="3.16587">
        <ele>331.704543</ele>
        <time>2025-10-23T13:46:50Z</time>
      </trkpt>
      <trkpt lat="43.57339" lon="3.16587">
        <ele>331.704543</ele>
        <time>2025-10-23T13:46:51Z</time>
      </trkpt>
      <trkpt lat="43.57339" lon="3.16587">
        <ele>331.701406</ele>
        <time>2025-10-23T13:46:52Z</time>
      </trkpt>
      <trkpt lat="43.57339" lon="3.16587">
        <ele>331.69827</ele>
        <time>2025-10-23T13:46:53Z</time>
      </trkpt>
      <trkpt lat="43.57339" lon="3.16587">
        <ele>331.695997</ele>
        <time>2025-10-23T13:46:54Z</time>
      </trkpt>
      <trkpt lat="43.57339" lon="3.16587">
        <ele>331.695997</ele>
        <time>2025-10-23T13:46:55Z</time>
      </trkpt>
      <trkpt lat="43.57339" lon="3.16587">
        <ele>331.695997</ele>
        <time>2025-10-23T13:46:56Z</time>
      </trkpt>
      <trkpt lat="43.57339" lon="3.16587">
        <ele>331.693725</ele>
        <time>2025-10-23T13:46:57Z</time>
      </trkpt>
      <trkpt lat="43.57339" lon="3.16587">
        <ele>331.693725</ele>
        <time>2025-10-23T13:46:58Z</time>
      </trkpt>
      <trkpt lat="43.57339" lon="3.16587">
        <ele>331.691453</ele>
        <time>2025-10-23T13:46:59Z</time>
      </trkpt>
      <trkpt lat="43.57339" lon="3.16587">
        <ele>331.691453</ele>
        <time>2025-10-23T13:47:00Z</time>
      </trkpt>
      <trkpt lat="43.57339" lon="3.16587">
        <ele>331.691453</ele>
        <time>2025-10-23T13:47:01Z</time>
      </trkpt>
      <trkpt lat="43.57339" lon="3.16587">
        <ele>331.691453</ele>
        <time>2025-10-23T13:47:02Z</time>
      </trkpt>
      <trkpt lat="43.57338" lon="3.16587">
        <ele>331.663661</ele>
        <time>2025-10-23T13:47:03Z</time>
      </trkpt>
      <trkpt lat="43.57338" lon="3.16588">
        <ele>331.650317</ele>
        <time>2025-10-23T13:47:04Z</time>
      </trkpt>
      <trkpt lat="43.57338" lon="3.16588">
        <ele>331.646444</ele>
        <time>2025-10-23T13:47:05Z</time>
      </trkpt>
      <trkpt lat="43.57338" lon="3.16588">
        <ele>331.642571</ele>
        <time>2025-10-23T13:47:06Z</time>
      </trkpt>
      <trkpt lat="43.57338" lon="3.16588">
        <ele>331.638698</ele>
        <time>2025-10-23T13:47:07Z</time>
      </trkpt>
      <trkpt lat="43.57338" lon="3.16588">
        <ele>331.638698</ele>
        <time>2025-10-23T13:47:08Z</time>
      </trkpt>
      <trkpt lat="43.57337" lon="3.16588">
        <ele>331.634825</ele>
        <time>2025-10-23T13:47:09Z</time>
      </trkpt>
      <trkpt lat="43.57337" lon="3.16588">
        <ele>331.630952</ele>
        <time>2025-10-23T13:47:10Z</time>
      </trkpt>
      <trkpt lat="43.57337" lon="3.16588">
        <ele>331.627078</ele>
        <time>2025-10-23T13:47:11Z</time>
      </trkpt>
      <trkpt lat="43.57337" lon="3.16588">
        <ele>331.622534</ele>
        <time>2025-10-23T13:47:12Z</time>
      </trkpt>
      <trkpt lat="43.57337" lon="3.16589">
        <ele>331.618661</ele>
        <time>2025-10-23T13:47:13Z</time>
      </trkpt>
      <trkpt lat="43.57337" lon="3.16589">
        <ele>331.614788</ele>
        <time>2025-10-23T13:47:14Z</time>
      </trkpt>
      <trkpt lat="43.57337" lon="3.16589">
        <ele>331.609266</ele>
        <time>2025-10-23T13:47:15Z</time>
      </trkpt>
      <trkpt lat="43.57337" lon="3.16589">
        <ele>331.603744</ele>
        <time>2025-10-23T13:47:16Z</time>
      </trkpt>
      <trkpt lat="43.57335" lon="3.16593">
        <ele>331.504349</ele>
        <time>2025-10-23T13:47:17Z</time>
      </trkpt>
      <trkpt lat="43.57334" lon="3.16593">
        <ele>331.47392</ele>
        <time>2025-10-23T13:47:18Z</time>
      </trkpt>
      <trkpt lat="43.57334" lon="3.16593">
        <ele>331.461374</ele>
        <time>2025-10-23T13:47:19Z</time>
      </trkpt>
      <trkpt lat="43.57333" lon="3.16593">
        <ele>331.451965</ele>
        <time>2025-10-23T13:47:20Z</time>
      </trkpt>
      <trkpt lat="43.57333" lon="3.16593">
        <ele>331.445148</ele>
        <time>2025-10-23T13:47:21Z</time>
      </trkpt>
      <trkpt lat="43.57334" lon="3.16592">
        <ele>331.432169</ele>
        <time>2025-10-23T13:47:22Z</time>
      </trkpt>
      <trkpt lat="43.57334" lon="3.16592">
        <ele>331.413722</ele>
        <time>2025-10-23T13:47:23Z</time>
      </trkpt>
      <trkpt lat="43.57334" lon="3.16591">
        <ele>331.400744</ele>
        <time>2025-10-23T13:47:24Z</time>
      </trkpt>
      <trkpt lat="43.57334" lon="3.1659">
        <ele>331.384178</ele>
        <time>2025-10-23T13:47:25Z</time>
      </trkpt>
      <trkpt lat="43.57335" lon="3.1659">
        <ele>331.360169</ele>
        <time>2025-10-23T13:47:26Z</time>
      </trkpt>
      <trkpt lat="43.57335" lon="3.16589">
        <ele>331.343071</ele>
        <time>2025-10-23T13:47:27Z</time>
      </trkpt>
      <trkpt lat="43.57335" lon="3.16588">
        <ele>331.317114</ele>
        <time>2025-10-23T13:47:28Z</time>
      </trkpt>
      <trkpt lat="43.57336" lon="3.16588">
        <ele>331.30607</ele>
        <time>2025-10-23T13:47:29Z</time>
      </trkpt>
      <trkpt lat="43.57336" lon="3.16587">
        <ele>331.293092</ele>
        <time>2025-10-23T13:47:30Z</time>
      </trkpt>
      <trkpt lat="43.57336" lon="3.16587">
        <ele>331.276166</ele>
        <time>2025-10-23T13:47:31Z</time>
      </trkpt>
      <trkpt lat="43.57337" lon="3.16586">
        <ele>331.254183</ele>
        <time>2025-10-23T13:47:32Z</time>
      </trkpt>
      <trkpt lat="43.57337" lon="3.16586">
        <ele>331.235227</ele>
        <time>2025-10-23T13:47:33Z</time>
      </trkpt>
      <trkpt lat="43.57338" lon="3.16586">
        <ele>331.2189</ele>
        <time>2025-10-23T13:47:34Z</time>
      </trkpt>
      <trkpt lat="43.57338" lon="3.16586">
        <ele>331.207281</ele>
        <time>2025-10-23T13:47:35Z</time>
      </trkpt>
      <trkpt lat="43.57338" lon="3.16586">
        <ele>331.203407</ele>
        <time>2025-10-23T13:47:36Z</time>
      </trkpt>
      <trkpt lat="43.57338" lon="3.16586">
        <ele>331.193792</ele>
        <time>2025-10-23T13:47:37Z</time>
      </trkpt>
      <trkpt lat="43.57338" lon="3.16586">
        <ele>331.184177</ele>
        <time>2025-10-23T13:47:38Z</time>
      </trkpt>
      <trkpt lat="43.57338" lon="3.16586">
        <ele>331.177505</ele>
        <time>2025-10-23T13:47:39Z</time>
      </trkpt>
      <trkpt lat="43.57338" lon="3.16586">
        <ele>331.170001</ele>
        <time>2025-10-23T13:47:40Z</time>
      </trkpt>
      <trkpt lat="43.57338" lon="3.16585">
        <ele>331.151554</ele>
        <time>2025-10-23T13:47:41Z</time>
      </trkpt>
      <trkpt lat="43.57337" lon="3.16585">
        <ele>331.134455</ele>
        <time>2025-10-23T13:47:42Z</time>
      </trkpt>
      <trkpt lat="43.57337" lon="3.16585">
        <ele>331.132183</ele>
        <time>2025-10-23T13:47:43Z</time>
      </trkpt>
      <trkpt lat="43.57337" lon="3.16585">
        <ele>331.12591</ele>
        <time>2025-10-23T13:47:44Z</time>
      </trkpt>
      <trkpt lat="43.57337" lon="3.16585">
        <ele>331.122773</ele>
        <time>2025-10-23T13:47:45Z</time>
      </trkpt>
      <trkpt lat="43.57337" lon="3.16585">
        <ele>331.117251</ele>
        <time>2025-10-23T13:47:46Z</time>
      </trkpt>
      <trkpt lat="43.57337" lon="3.16585">
        <ele>331.112707</ele>
        <time>2025-10-23T13:47:47Z</time>
      </trkpt>
      <trkpt lat="43.57337" lon="3.16585">
        <ele>331.099624</ele>
        <time>2025-10-23T13:47:48Z</time>
      </trkpt>
      <trkpt lat="43.57337" lon="3.16586">
        <ele>331.084132</ele>
        <time>2025-10-23T13:47:49Z</time>
      </trkpt>
      <trkpt lat="43.57336" lon="3.16586">
        <ele>331.063351</ele>
        <time>2025-10-23T13:47:50Z</time>
      </trkpt>
      <trkpt lat="43.57336" lon="3.16587">
        <ele>331.041014</ele>
        <time>2025-10-23T13:47:51Z</time>
      </trkpt>
      <trkpt lat="43.57335" lon="3.16588">
        <ele>331.024801</ele>
        <time>2025-10-23T13:47:52Z</time>
      </trkpt>
      <trkpt lat="43.57335" lon="3.16588">
        <ele>331.008236</ele>
        <time>2025-10-23T13:47:53Z</time>
      </trkpt>
      <trkpt lat="43.57335" lon="3.16589">
        <ele>330.996449</ele>
        <time>2025-10-23T13:47:54Z</time>
      </trkpt>
      <trkpt lat="43.57335" lon="3.1659">
        <ele>330.975057</ele>
        <time>2025-10-23T13:47:55Z</time>
      </trkpt>
      <trkpt lat="43.57335" lon="3.16591">
        <ele>330.955827</ele>
        <time>2025-10-23T13:47:56Z</time>
      </trkpt>
      <trkpt lat="43.57334" lon="3.16591">
        <ele>330.944207</ele>
        <time>2025-10-23T13:47:57Z</time>
      </trkpt>
      <trkpt lat="43.57334" lon="3.16591">
        <ele>330.925679</ele>
        <time>2025-10-23T13:47:58Z</time>
      </trkpt>
      <trkpt lat="43.57334" lon="3.16592">
        <ele>330.91523</ele>
        <time>2025-10-23T13:47:59Z</time>
      </trkpt>
      <trkpt lat="43.57333" lon="3.16591">
        <ele>330.905966</ele>
        <time>2025-10-23T13:48:00Z</time>
      </trkpt>
      <trkpt lat="43.57333" lon="3.16591">
        <ele>330.89635</ele>
        <time>2025-10-23T13:48:01Z</time>
      </trkpt>
      <trkpt lat="43.57333" lon="3.16591">
        <ele>330.887261</ele>
        <time>2025-10-23T13:48:02Z</time>
      </trkpt>
      <trkpt lat="43.57334" lon="3.1659">
        <ele>330.867002</ele>
        <time>2025-10-23T13:48:03Z</time>
      </trkpt>
      <trkpt lat="43.57334" lon="3.16589">
        <ele>330.850076</ele>
        <time>2025-10-23T13:48:04Z</time>
      </trkpt>
      <trkpt lat="43.57334" lon="3.16589">
        <ele>330.840397</ele>
        <time>2025-10-23T13:48:05Z</time>
      </trkpt>
      <trkpt lat="43.57335" lon="3.16589">
        <ele>330.82455</ele>
        <time>2025-10-23T13:48:06Z</time>
      </trkpt>
      <trkpt lat="43.57335" lon="3.16589">
        <ele>330.808704</ele>
        <time>2025-10-23T13:48:07Z</time>
      </trkpt>
      <trkpt lat="43.57336" lon="3.16589">
        <ele>330.792377</ele>
        <time>2025-10-23T13:48:08Z</time>
      </trkpt>
      <trkpt lat="43.57336" lon="3.16589">
        <ele>330.774251</ele>
        <time>2025-10-23T13:48:09Z</time>
      </trkpt>
      <trkpt lat="43.57337" lon="3.16589">
        <ele>330.764571</ele>
        <time>2025-10-23T13:48:10Z</time>
      </trkpt>
      <trkpt lat="43.57337" lon="3.16589">
        <ele>330.757067</ele>
        <time>2025-10-23T13:48:11Z</time>
      </trkpt>
      <trkpt lat="43.57336" lon="3.16589">
        <ele>330.743723</ele>
        <time>2025-10-23T13:48:12Z</time>
      </trkpt>
      <trkpt lat="43.57336" lon="3.1659">
        <ele>330.73038</ele>
        <time>2025-10-23T13:48:13Z</time>
      </trkpt>
      <trkpt lat="43.57336" lon="3.1659">
        <ele>330.720764</ele>
        <time>2025-10-23T13:48:14Z</time>
      </trkpt>
      <trkpt lat="43.57336" lon="3.1659">
        <ele>330.71326</ele>
        <time>2025-10-23T13:48:15Z</time>
      </trkpt>
      <trkpt lat="43.57335" lon="3.16591">
        <ele>330.698508</ele>
        <time>2025-10-23T13:48:16Z</time>
      </trkpt>
      <trkpt lat="43.57335" lon="3.16591">
        <ele>330.684874</ele>
        <time>2025-10-23T13:48:17Z</time>
      </trkpt>
      <trkpt lat="43.57335" lon="3.16592">
        <ele>330.668661</ele>
        <time>2025-10-23T13:48:18Z</time>
      </trkpt>
      <trkpt lat="43.57335" lon="3.16593">
        <ele>330.657617</ele>
        <time>2025-10-23T13:48:19Z</time>
      </trkpt>
      <trkpt lat="43.57335" lon="3.16593">
        <ele>330.648528</ele>
        <time>2025-10-23T13:48:20Z</time>
      </trkpt>
      <trkpt lat="43.57335" lon="3.16593">
        <ele>330.643983</ele>
        <time>2025-10-23T13:48:21Z</time>
      </trkpt>
      <trkpt lat="43.57335" lon="3.16593">
        <ele>330.641711</ele>
        <time>2025-10-23T13:48:22Z</time>
      </trkpt>
      <trkpt lat="43.57335" lon="3.16593">
        <ele>330.635438</ele>
        <time>2025-10-23T13:48:23Z</time>
      </trkpt>
      <trkpt lat="43.57335" lon="3.16593">
        <ele>330.629165</ele>
        <time>2025-10-23T13:48:24Z</time>
      </trkpt>
      <trkpt lat="43.57335" lon="3.16593">
        <ele>330.621661</ele>
        <time>2025-10-23T13:48:25Z</time>
      </trkpt>
      <trkpt lat="43.57335" lon="3.16593">
        <ele>330.608579</ele>
        <time>2025-10-23T13:48:26Z</time>
      </trkpt>
      <trkpt lat="43.57335" lon="3.16592">
        <ele>330.588109</ele>
        <time>2025-10-23T13:48:27Z</time>
      </trkpt>
      <trkpt lat="43.57335" lon="3.16591">
        <ele>330.580605</ele>
        <time>2025-10-23T13:48:28Z</time>
      </trkpt>
      <trkpt lat="43.57335" lon="3.16591">
        <ele>330.565597</ele>
        <time>2025-10-23T13:48:29Z</time>
      </trkpt>
      <trkpt lat="43.57336" lon="3.1659">
        <ele>330.546232</ele>
        <time>2025-10-23T13:48:30Z</time>
      </trkpt>
      <trkpt lat="43.57336" lon="3.1659">
        <ele>330.533686</ele>
        <time>2025-10-23T13:48:31Z</time>
      </trkpt>
      <trkpt lat="43.57337" lon="3.1659">
        <ele>330.514326</ele>
        <time>2025-10-23T13:48:32Z</time>
      </trkpt>
      <trkpt lat="43.57338" lon="3.16591">
        <ele>330.480967</ele>
        <time>2025-10-23T13:48:33Z</time>
      </trkpt>
      <trkpt lat="43.57337" lon="3.16591">
        <ele>330.471287</ele>
        <time>2025-10-23T13:48:34Z</time>
      </trkpt>
      <trkpt lat="43.57337" lon="3.16591">
        <ele>330.461607</ele>
        <time>2025-10-23T13:48:35Z</time>
      </trkpt>
      <trkpt lat="43.57337" lon="3.16591">
        <ele>330.456085</ele>
        <time>2025-10-23T13:48:36Z</time>
      </trkpt>
      <trkpt lat="43.57337" lon="3.16591">
        <ele>330.443107</ele>
        <time>2025-10-23T13:48:37Z</time>
      </trkpt>
      <trkpt lat="43.57337" lon="3.16592">
        <ele>330.433843</ele>
        <time>2025-10-23T13:48:38Z</time>
      </trkpt>
      <trkpt lat="43.57336" lon="3.16592">
        <ele>330.418835</ele>
        <time>2025-10-23T13:48:39Z</time>
      </trkpt>
      <trkpt lat="43.57336" lon="3.16592">
        <ele>330.400709</ele>
        <time>2025-10-23T13:48:40Z</time>
      </trkpt>
      <trkpt lat="43.57336" lon="3.16592">
        <ele>330.387365</ele>
        <time>2025-10-23T13:48:41Z</time>
      </trkpt>
      <trkpt lat="43.57335" lon="3.16592">
        <ele>330.374615</ele>
        <time>2025-10-23T13:48:42Z</time>
      </trkpt>
      <trkpt lat="43.57335" lon="3.16592">
        <ele>330.365206</ele>
        <time>2025-10-23T13:48:43Z</time>
      </trkpt>
      <trkpt lat="43.57335" lon="3.16591">
        <ele>330.354162</ele>
        <time>2025-10-23T13:48:44Z</time>
      </trkpt>
      <trkpt lat="43.57335" lon="3.16591">
        <ele>330.344752</ele>
        <time>2025-10-23T13:48:45Z</time>
      </trkpt>
      <trkpt lat="43.57336" lon="3.16593">
        <ele>330.302221</ele>
        <time>2025-10-23T13:48:46Z</time>
      </trkpt>
      <trkpt lat="43.57337" lon="3.16595">
        <ele>330.24148</ele>
        <time>2025-10-23T13:48:47Z</time>
      </trkpt>
      <trkpt lat="43.57338" lon="3.16598">
        <ele>330.163042</ele>
        <time>2025-10-23T13:48:48Z</time>
      </trkpt>
      <trkpt lat="43.5734" lon="3.16601">
        <ele>330.061486</ele>
        <time>2025-10-23T13:48:49Z</time>
      </trkpt>
      <trkpt lat="43.57341" lon="3.16606">
        <ele>329.939999</ele>
        <time>2025-10-23T13:48:50Z</time>
      </trkpt>
      <trkpt lat="43.57344" lon="3.1661">
        <ele>329.811966</ele>
        <time>2025-10-23T13:48:51Z</time>
      </trkpt>
      <trkpt lat="43.57347" lon="3.16615">
        <ele>329.673006</ele>
        <time>2025-10-23T13:48:52Z</time>
      </trkpt>
      <trkpt lat="43.5735" lon="3.1662">
        <ele>329.527466</ele>
        <time>2025-10-23T13:48:53Z</time>
      </trkpt>
      <trkpt lat="43.57353" lon="3.16625">
        <ele>329.380144</ele>
        <time>2025-10-23T13:48:54Z</time>
      </trkpt>
      <trkpt lat="43.57356" lon="3.1663">
        <ele>329.213799</ele>
        <time>2025-10-23T13:48:55Z</time>
      </trkpt>
      <trkpt lat="43.5736" lon="3.16635">
        <ele>329.051392</ele>
        <time>2025-10-23T13:48:56Z</time>
      </trkpt>
      <trkpt lat="43.57364" lon="3.16641">
        <ele>328.87813</ele>
        <time>2025-10-23T13:48:57Z</time>
      </trkpt>
      <trkpt lat="43.57368" lon="3.16647">
        <ele>328.683587</ele>
        <time>2025-10-23T13:48:58Z</time>
      </trkpt>
      <trkpt lat="43.57373" lon="3.16653">
        <ele>328.485484</ele>
        <time>2025-10-23T13:48:59Z</time>
      </trkpt>
      <trkpt lat="43.57377" lon="3.1666">
        <ele>328.17587</ele>
        <time>2025-10-23T13:49:00Z</time>
      </trkpt>
      <trkpt lat="43.57381" lon="3.16666">
        <ele>327.86805</ele>
        <time>2025-10-23T13:49:01Z</time>
      </trkpt>
      <trkpt lat="43.57386" lon="3.16673">
        <ele>327.560966</ele>
        <time>2025-10-23T13:49:02Z</time>
      </trkpt>
      <trkpt lat="43.57391" lon="3.1668">
        <ele>327.231682</ele>
        <time>2025-10-23T13:49:03Z</time>
      </trkpt>
      <trkpt lat="43.57396" lon="3.16687">
        <ele>326.899961</ele>
        <time>2025-10-23T13:49:04Z</time>
      </trkpt>
      <trkpt lat="43.57401" lon="3.16694">
        <ele>326.552203</ele>
        <time>2025-10-23T13:49:05Z</time>
      </trkpt>
      <trkpt lat="43.57407" lon="3.16701">
        <ele>326.188188</ele>
        <time>2025-10-23T13:49:06Z</time>
      </trkpt>
      <trkpt lat="43.57413" lon="3.16708">
        <ele>325.825609</ele>
        <time>2025-10-23T13:49:07Z</time>
      </trkpt>
      <trkpt lat="43.57419" lon="3.16714">
        <ele>325.459733</ele>
        <time>2025-10-23T13:49:08Z</time>
      </trkpt>
      <trkpt lat="43.57425" lon="3.16721">
        <ele>325.091796</ele>
        <time>2025-10-23T13:49:09Z</time>
      </trkpt>
      <trkpt lat="43.57432" lon="3.16727">
        <ele>324.714509</ele>
        <time>2025-10-23T13:49:10Z</time>
      </trkpt>
      <trkpt lat="43.57438" lon="3.16733">
        <ele>324.329371</ele>
        <time>2025-10-23T13:49:11Z</time>
      </trkpt>
      <trkpt lat="43.57445" lon="3.1674">
        <ele>323.945009</ele>
        <time>2025-10-23T13:49:12Z</time>
      </trkpt>
      <trkpt lat="43.5745" lon="3.16749">
        <ele>323.541412</ele>
        <time>2025-10-23T13:49:13Z</time>
      </trkpt>
      <trkpt lat="43.57455" lon="3.16759">
        <ele>323.133557</ele>
        <time>2025-10-23T13:49:14Z</time>
      </trkpt>
      <trkpt lat="43.57459" lon="3.16769">
        <ele>322.729568</ele>
        <time>2025-10-23T13:49:15Z</time>
      </trkpt>
      <trkpt lat="43.57462" lon="3.1678">
        <ele>322.338405</ele>
        <time>2025-10-23T13:49:16Z</time>
      </trkpt>
      <trkpt lat="43.57463" lon="3.16792">
        <ele>321.943266</ele>
        <time>2025-10-23T13:49:17Z</time>
      </trkpt>
      <trkpt lat="43.57466" lon="3.16803">
        <ele>321.541401</ele>
        <time>2025-10-23T13:49:18Z</time>
      </trkpt>
      <trkpt lat="43.57469" lon="3.16813">
        <ele>321.151751</ele>
        <time>2025-10-23T13:49:19Z</time>
      </trkpt>
      <trkpt lat="43.57474" lon="3.16823">
        <ele>320.748704</ele>
        <time>2025-10-23T13:49:20Z</time>
      </trkpt>
      <trkpt lat="43.57479" lon="3.16832">
        <ele>320.35079</ele>
        <time>2025-10-23T13:49:21Z</time>
      </trkpt>
      <trkpt lat="43.57486" lon="3.1684">
        <ele>319.915564</ele>
        <time>2025-10-23T13:49:22Z</time>
      </trkpt>
      <trkpt lat="43.57492" lon="3.16848">
        <ele>319.341222</ele>
        <time>2025-10-23T13:49:23Z</time>
      </trkpt>
      <trkpt lat="43.57499" lon="3.16856">
        <ele>318.744622</ele>
        <time>2025-10-23T13:49:24Z</time>
      </trkpt>
      <trkpt lat="43.57506" lon="3.16864">
        <ele>318.143933</ele>
        <time>2025-10-23T13:49:25Z</time>
      </trkpt>
      <trkpt lat="43.57514" lon="3.16872">
        <ele>317.511601</ele>
        <time>2025-10-23T13:49:26Z</time>
      </trkpt>
      <trkpt lat="43.57521" lon="3.1688">
        <ele>316.878457</ele>
        <time>2025-10-23T13:49:27Z</time>
      </trkpt>
      <trkpt lat="43.5753" lon="3.16887">
        <ele>316.231632</ele>
        <time>2025-10-23T13:49:28Z</time>
      </trkpt>
      <trkpt lat="43.57538" lon="3.16895">
        <ele>315.58193</ele>
        <time>2025-10-23T13:49:29Z</time>
      </trkpt>
      <trkpt lat="43.57546" lon="3.16901">
        <ele>314.976881</ele>
        <time>2025-10-23T13:49:30Z</time>
      </trkpt>
      <trkpt lat="43.57554" lon="3.16907">
        <ele>314.365848</ele>
        <time>2025-10-23T13:49:31Z</time>
      </trkpt>
      <trkpt lat="43.57562" lon="3.16912">
        <ele>313.761251</ele>
        <time>2025-10-23T13:49:32Z</time>
      </trkpt>
      <trkpt lat="43.57571" lon="3.16916">
        <ele>313.163869</ele>
        <time>2025-10-23T13:49:33Z</time>
      </trkpt>
      <trkpt lat="43.5758" lon="3.16918">
        <ele>312.561459</ele>
        <time>2025-10-23T13:49:34Z</time>
      </trkpt>
      <trkpt lat="43.57589" lon="3.16917">
        <ele>311.963374</ele>
        <time>2025-10-23T13:49:35Z</time>
      </trkpt>
      <trkpt lat="43.57598" lon="3.16914">
        <ele>311.362903</ele>
        <time>2025-10-23T13:49:36Z</time>
      </trkpt>
      <trkpt lat="43.57606" lon="3.1691">
        <ele>310.746972</ele>
        <time>2025-10-23T13:49:37Z</time>
      </trkpt>
      <trkpt lat="43.57615" lon="3.16905">
        <ele>310.126446</ele>
        <time>2025-10-23T13:49:38Z</time>
      </trkpt>
      <trkpt lat="43.57623" lon="3.16899">
        <ele>309.527131</ele>
        <time>2025-10-23T13:49:39Z</time>
      </trkpt>
      <trkpt lat="43.5763" lon="3.16893">
        <ele>308.945413</ele>
        <time>2025-10-23T13:49:40Z</time>
      </trkpt>
      <trkpt lat="43.57639" lon="3.16889">
        <ele>308.37179</ele>
        <time>2025-10-23T13:49:41Z</time>
      </trkpt>
      <trkpt lat="43.57647" lon="3.16888">
        <ele>307.81494</ele>
        <time>2025-10-23T13:49:42Z</time>
      </trkpt>
      <trkpt lat="43.57656" lon="3.16888">
        <ele>307.29454</ele>
        <time>2025-10-23T13:49:43Z</time>
      </trkpt>
      <trkpt lat="43.57663" lon="3.16891">
        <ele>306.795276</ele>
        <time>2025-10-23T13:49:44Z</time>
      </trkpt>
      <trkpt lat="43.57672" lon="3.16896">
        <ele>306.247351</ele>
        <time>2025-10-23T13:49:45Z</time>
      </trkpt>
      <trkpt lat="43.57679" lon="3.16898">
        <ele>305.777536</ele>
        <time>2025-10-23T13:49:46Z</time>
      </trkpt>
      <trkpt lat="43.57688" lon="3.16898">
        <ele>305.208485</ele>
        <time>2025-10-23T13:49:47Z</time>
      </trkpt>
      <trkpt lat="43.57697" lon="3.16899">
        <ele>304.668917</ele>
        <time>2025-10-23T13:49:48Z</time>
      </trkpt>
      <trkpt lat="43.57706" lon="3.16898">
        <ele>304.117029</ele>
        <time>2025-10-23T13:49:49Z</time>
      </trkpt>
      <trkpt lat="43.57715" lon="3.16896">
        <ele>303.541411</ele>
        <time>2025-10-23T13:49:50Z</time>
      </trkpt>
      <trkpt lat="43.57724" lon="3.16895">
        <ele>302.956039</ele>
        <time>2025-10-23T13:49:51Z</time>
      </trkpt>
      <trkpt lat="43.57734" lon="3.16894">
        <ele>302.368273</ele>
        <time>2025-10-23T13:49:52Z</time>
      </trkpt>
      <trkpt lat="43.57743" lon="3.16896">
        <ele>301.790543</ele>
        <time>2025-10-23T13:49:53Z</time>
      </trkpt>
      <trkpt lat="43.57752" lon="3.16897">
        <ele>301.253594</ele>
        <time>2025-10-23T13:49:54Z</time>
      </trkpt>
      <trkpt lat="43.57761" lon="3.16898">
        <ele>300.695887</ele>
        <time>2025-10-23T13:49:55Z</time>
      </trkpt>
      <trkpt lat="43.5777" lon="3.16896">
        <ele>300.120948</ele>
        <time>2025-10-23T13:49:56Z</time>
      </trkpt>
      <trkpt lat="43.57779" lon="3.16892">
        <ele>299.532322</ele>
        <time>2025-10-23T13:49:57Z</time>
      </trkpt>
      <trkpt lat="43.57788" lon="3.16886">
        <ele>298.925932</ele>
        <time>2025-10-23T13:49:58Z</time>
      </trkpt>
      <trkpt lat="43.57797" lon="3.1688">
        <ele>298.322082</ele>
        <time>2025-10-23T13:49:59Z</time>
      </trkpt>
      <trkpt lat="43.57804" lon="3.16872">
        <ele>297.723741</ele>
        <time>2025-10-23T13:50:00Z</time>
      </trkpt>
      <trkpt lat="43.57811" lon="3.16862">
        <ele>297.126988</ele>
        <time>2025-10-23T13:50:01Z</time>
      </trkpt>
      <trkpt lat="43.57816" lon="3.16851">
        <ele>296.457988</ele>
        <time>2025-10-23T13:50:02Z</time>
      </trkpt>
      <trkpt lat="43.57822" lon="3.1684">
        <ele>295.770998</ele>
        <time>2025-10-23T13:50:03Z</time>
      </trkpt>
      <trkpt lat="43.57829" lon="3.1683">
        <ele>295.089025</ele>
        <time>2025-10-23T13:50:04Z</time>
      </trkpt>
      <trkpt lat="43.57837" lon="3.16821">
        <ele>294.342152</ele>
        <time>2025-10-23T13:50:05Z</time>
      </trkpt>
      <trkpt lat="43.57844" lon="3.1681">
        <ele>293.620261</ele>
        <time>2025-10-23T13:50:06Z</time>
      </trkpt>
      <trkpt lat="43.5785" lon="3.16799">
        <ele>292.881422</ele>
        <time>2025-10-23T13:50:07Z</time>
      </trkpt>
      <trkpt lat="43.57857" lon="3.16788">
        <ele>292.150239</ele>
        <time>2025-10-23T13:50:08Z</time>
      </trkpt>
      <trkpt lat="43.57865" lon="3.16778">
        <ele>291.437807</ele>
        <time>2025-10-23T13:50:09Z</time>
      </trkpt>
      <trkpt lat="43.57871" lon="3.16768">
        <ele>290.719772</ele>
        <time>2025-10-23T13:50:10Z</time>
      </trkpt>
      <trkpt lat="43.57878" lon="3.16757">
        <ele>290.000032</ele>
        <time>2025-10-23T13:50:11Z</time>
      </trkpt>
      <trkpt lat="43.57884" lon="3.16747">
        <ele>289.301966</ele>
        <time>2025-10-23T13:50:12Z</time>
      </trkpt>
      <trkpt lat="43.57892" lon="3.16739">
        <ele>288.606065</ele>
        <time>2025-10-23T13:50:13Z</time>
      </trkpt>
      <trkpt lat="43.579" lon="3.16732">
        <ele>287.949407</ele>
        <time>2025-10-23T13:50:14Z</time>
      </trkpt>
      <trkpt lat="43.57909" lon="3.16728">
        <ele>287.291153</ele>
        <time>2025-10-23T13:50:15Z</time>
      </trkpt>
      <trkpt lat="43.57919" lon="3.16725">
        <ele>286.572226</ele>
        <time>2025-10-23T13:50:16Z</time>
      </trkpt>
      <trkpt lat="43.57929" lon="3.16721">
        <ele>285.841438</ele>
        <time>2025-10-23T13:50:17Z</time>
      </trkpt>
      <trkpt lat="43.57938" lon="3.16716">
        <ele>285.155967</ele>
        <time>2025-10-23T13:50:18Z</time>
      </trkpt>
      <trkpt lat="43.57947" lon="3.1671">
        <ele>284.447602</ele>
        <time>2025-10-23T13:50:19Z</time>
      </trkpt>
      <trkpt lat="43.57957" lon="3.16704">
        <ele>283.765147</ele>
        <time>2025-10-23T13:50:20Z</time>
      </trkpt>
      <trkpt lat="43.57966" lon="3.167">
        <ele>283.105613</ele>
        <time>2025-10-23T13:50:21Z</time>
      </trkpt>
      <trkpt lat="43.57976" lon="3.16694">
        <ele>282.397763</ele>
        <time>2025-10-23T13:50:22Z</time>
      </trkpt>
      <trkpt lat="43.57986" lon="3.1669">
        <ele>281.73977</ele>
        <time>2025-10-23T13:50:23Z</time>
      </trkpt>
      <trkpt lat="43.57995" lon="3.16686">
        <ele>281.086134</ele>
        <time>2025-10-23T13:50:24Z</time>
      </trkpt>
      <trkpt lat="43.58005" lon="3.16684">
        <ele>280.429129</ele>
        <time>2025-10-23T13:50:25Z</time>
      </trkpt>
      <trkpt lat="43.58015" lon="3.1668">
        <ele>279.781799</ele>
        <time>2025-10-23T13:50:26Z</time>
      </trkpt>
      <trkpt lat="43.58024" lon="3.16675">
        <ele>279.146691</ele>
        <time>2025-10-23T13:50:27Z</time>
      </trkpt>
      <trkpt lat="43.58032" lon="3.1667">
        <ele>278.579906</ele>
        <time>2025-10-23T13:50:28Z</time>
      </trkpt>
      <trkpt lat="43.58039" lon="3.16664">
        <ele>278.035299</ele>
        <time>2025-10-23T13:50:29Z</time>
      </trkpt>
      <trkpt lat="43.58044" lon="3.16656">
        <ele>277.537079</ele>
        <time>2025-10-23T13:50:30Z</time>
      </trkpt>
      <trkpt lat="43.58048" lon="3.16647">
        <ele>277.062957</ele>
        <time>2025-10-23T13:50:31Z</time>
      </trkpt>
      <trkpt lat="43.5805" lon="3.16638">
        <ele>276.602901</ele>
        <time>2025-10-23T13:50:32Z</time>
      </trkpt>
      <trkpt lat="43.58052" lon="3.16629">
        <ele>276.142005</ele>
        <time>2025-10-23T13:50:33Z</time>
      </trkpt>
      <trkpt lat="43.58053" lon="3.16619">
        <ele>275.681921</ele>
        <time>2025-10-23T13:50:34Z</time>
      </trkpt>
      <trkpt lat="43.58054" lon="3.1661">
        <ele>275.238803</ele>
        <time>2025-10-23T13:50:35Z</time>
      </trkpt>
      <trkpt lat="43.58055" lon="3.16601">
        <ele>274.808243</ele>
        <time>2025-10-23T13:50:36Z</time>
      </trkpt>
      <trkpt lat="43.58055" lon="3.16592">
        <ele>274.402034</ele>
        <time>2025-10-23T13:50:37Z</time>
      </trkpt>
      <trkpt lat="43.58055" lon="3.16584">
        <ele>274.010046</ele>
        <time>2025-10-23T13:50:38Z</time>
      </trkpt>
      <trkpt lat="43.58054" lon="3.16576">
        <ele>273.636436</ele>
        <time>2025-10-23T13:50:39Z</time>
      </trkpt>
      <trkpt lat="43.58054" lon="3.16568">
        <ele>273.253006</ele>
        <time>2025-10-23T13:50:40Z</time>
      </trkpt>
      <trkpt lat="43.58053" lon="3.1656">
        <ele>272.880958</ele>
        <time>2025-10-23T13:50:41Z</time>
      </trkpt>
      <trkpt lat="43.58053" lon="3.16552">
        <ele>272.49851</ele>
        <time>2025-10-23T13:50:42Z</time>
      </trkpt>
      <trkpt lat="43.58052" lon="3.16544">
        <ele>272.151541</ele>
        <time>2025-10-23T13:50:43Z</time>
      </trkpt>
      <trkpt lat="43.58052" lon="3.16536">
        <ele>271.821425</ele>
        <time>2025-10-23T13:50:44Z</time>
      </trkpt>
      <trkpt lat="43.58052" lon="3.16528">
        <ele>271.512196</ele>
        <time>2025-10-23T13:50:45Z</time>
      </trkpt>
      <trkpt lat="43.58052" lon="3.16521">
        <ele>271.190022</ele>
        <time>2025-10-23T13:50:46Z</time>
      </trkpt>
      <trkpt lat="43.58052" lon="3.16513">
        <ele>270.872281</ele>
        <time>2025-10-23T13:50:47Z</time>
      </trkpt>
      <trkpt lat="43.58053" lon="3.16505">
        <ele>270.545935</ele>
        <time>2025-10-23T13:50:48Z</time>
      </trkpt>
      <trkpt lat="43.58053" lon="3.16497">
        <ele>270.220048</ele>
        <time>2025-10-23T13:50:49Z</time>
      </trkpt>
      <trkpt lat="43.58053" lon="3.1649">
        <ele>269.892887</ele>
        <time>2025-10-23T13:50:50Z</time>
      </trkpt>
      <trkpt lat="43.58053" lon="3.16482">
        <ele>269.558594</ele>
        <time>2025-10-23T13:50:51Z</time>
      </trkpt>
      <trkpt lat="43.58052" lon="3.16473">
        <ele>269.218946</ele>
        <time>2025-10-23T13:50:52Z</time>
      </trkpt>
      <trkpt lat="43.58052" lon="3.16466">
        <ele>268.8972</ele>
        <time>2025-10-23T13:50:53Z</time>
      </trkpt>
      <trkpt lat="43.58051" lon="3.16458">
        <ele>268.573634</ele>
        <time>2025-10-23T13:50:54Z</time>
      </trkpt>
      <trkpt lat="43.5805" lon="3.1645">
        <ele>268.249402</ele>
        <time>2025-10-23T13:50:55Z</time>
      </trkpt>
      <trkpt lat="43.5805" lon="3.16442">
        <ele>267.912729</ele>
        <time>2025-10-23T13:50:56Z</time>
      </trkpt>
      <trkpt lat="43.58048" lon="3.16435">
        <ele>267.579573</ele>
        <time>2025-10-23T13:50:57Z</time>
      </trkpt>
      <trkpt lat="43.58047" lon="3.16427">
        <ele>267.251936</ele>
        <time>2025-10-23T13:50:58Z</time>
      </trkpt>
      <trkpt lat="43.58046" lon="3.16419">
        <ele>266.917534</ele>
        <time>2025-10-23T13:50:59Z</time>
      </trkpt>
      <trkpt lat="43.58044" lon="3.16411">
        <ele>266.572275</ele>
        <time>2025-10-23T13:51:00Z</time>
      </trkpt>
      <trkpt lat="43.58043" lon="3.16403">
        <ele>266.225526</ele>
        <time>2025-10-23T13:51:01Z</time>
      </trkpt>
      <trkpt lat="43.58041" lon="3.16395">
        <ele>265.881708</ele>
        <time>2025-10-23T13:51:02Z</time>
      </trkpt>
      <trkpt lat="43.58038" lon="3.16387">
        <ele>265.51155</ele>
        <time>2025-10-23T13:51:03Z</time>
      </trkpt>
      <trkpt lat="43.58035" lon="3.16379">
        <ele>265.099416</ele>
        <time>2025-10-23T13:51:04Z</time>
      </trkpt>
      <trkpt lat="43.58031" lon="3.1637">
        <ele>264.688038</ele>
        <time>2025-10-23T13:51:05Z</time>
      </trkpt>
      <trkpt lat="43.58028" lon="3.16362">
        <ele>264.298888</ele>
        <time>2025-10-23T13:51:06Z</time>
      </trkpt>
      <trkpt lat="43.58025" lon="3.16354">
        <ele>263.918798</ele>
        <time>2025-10-23T13:51:07Z</time>
      </trkpt>
      <trkpt lat="43.58022" lon="3.16346">
        <ele>263.543819</ele>
        <time>2025-10-23T13:51:08Z</time>
      </trkpt>
      <trkpt lat="43.58019" lon="3.16338">
        <ele>263.169837</ele>
        <time>2025-10-23T13:51:09Z</time>
      </trkpt>
      <trkpt lat="43.58016" lon="3.16329">
        <ele>262.786022</ele>
        <time>2025-10-23T13:51:10Z</time>
      </trkpt>
      <trkpt lat="43.58014" lon="3.16321">
        <ele>262.392085</ele>
        <time>2025-10-23T13:51:11Z</time>
      </trkpt>
      <trkpt lat="43.58011" lon="3.16312">
        <ele>262.090172</ele>
        <time>2025-10-23T13:51:12Z</time>
      </trkpt>
      <trkpt lat="43.58009" lon="3.16304">
        <ele>261.881531</ele>
        <time>2025-10-23T13:51:13Z</time>
      </trkpt>
      <trkpt lat="43.58008" lon="3.16294">
        <ele>261.658177</ele>
        <time>2025-10-23T13:51:14Z</time>
      </trkpt>
      <trkpt lat="43.58006" lon="3.16284">
        <ele>261.435816</ele>
        <time>2025-10-23T13:51:15Z</time>
      </trkpt>
      <trkpt lat="43.58005" lon="3.16275">
        <ele>261.210235</ele>
        <time>2025-10-23T13:51:16Z</time>
      </trkpt>
      <trkpt lat="43.58004" lon="3.16266">
        <ele>261.004806</ele>
        <time>2025-10-23T13:51:17Z</time>
      </trkpt>
      <trkpt lat="43.58002" lon="3.16257">
        <ele>260.78908</ele>
        <time>2025-10-23T13:51:18Z</time>
      </trkpt>
      <trkpt lat="43.58001" lon="3.16246">
        <ele>260.559033</ele>
        <time>2025-10-23T13:51:19Z</time>
      </trkpt>
      <trkpt lat="43.58001" lon="3.16237">
        <ele>260.336351</ele>
        <time>2025-10-23T13:51:20Z</time>
      </trkpt>
      <trkpt lat="43.58002" lon="3.16227">
        <ele>260.125226</ele>
        <time>2025-10-23T13:51:21Z</time>
      </trkpt>
      <trkpt lat="43.58003" lon="3.16219">
        <ele>259.9176</ele>
        <time>2025-10-23T13:51:22Z</time>
      </trkpt>
      <trkpt lat="43.58005" lon="3.1621">
        <ele>259.71656</ele>
        <time>2025-10-23T13:51:23Z</time>
      </trkpt>
      <trkpt lat="43.58007" lon="3.16202">
        <ele>259.517209</ele>
        <time>2025-10-23T13:51:24Z</time>
      </trkpt>
      <trkpt lat="43.5801" lon="3.16194">
        <ele>259.316611</ele>
        <time>2025-10-23T13:51:25Z</time>
      </trkpt>
      <trkpt lat="43.58013" lon="3.16186">
        <ele>259.109697</ele>
        <time>2025-10-23T13:51:26Z</time>
      </trkpt>
      <trkpt lat="43.58017" lon="3.16178">
        <ele>258.903218</ele>
        <time>2025-10-23T13:51:27Z</time>
      </trkpt>
      <trkpt lat="43.58021" lon="3.1617">
        <ele>258.686845</ele>
        <time>2025-10-23T13:51:28Z</time>
      </trkpt>
      <trkpt lat="43.58025" lon="3.16163">
        <ele>258.473993</ele>
        <time>2025-10-23T13:51:29Z</time>
      </trkpt>
      <trkpt lat="43.58029" lon="3.16155">
        <ele>258.270408</ele>
        <time>2025-10-23T13:51:30Z</time>
      </trkpt>
      <trkpt lat="43.58032" lon="3.16148">
        <ele>258.068662</ele>
        <time>2025-10-23T13:51:31Z</time>
      </trkpt>
      <trkpt lat="43.58037" lon="3.16141">
        <ele>257.866599</ele>
        <time>2025-10-23T13:51:32Z</time>
      </trkpt>
      <trkpt lat="43.58041" lon="3.16135">
        <ele>257.670019</ele>
        <time>2025-10-23T13:51:33Z</time>
      </trkpt>
      <trkpt lat="43.58045" lon="3.16128">
        <ele>257.472808</ele>
        <time>2025-10-23T13:51:34Z</time>
      </trkpt>
      <trkpt lat="43.58048" lon="3.16121">
        <ele>257.282055</ele>
        <time>2025-10-23T13:51:35Z</time>
      </trkpt>
      <trkpt lat="43.58052" lon="3.16115">
        <ele>257.094977</ele>
        <time>2025-10-23T13:51:36Z</time>
      </trkpt>
      <trkpt lat="43.58056" lon="3.16108">
        <ele>256.905858</ele>
        <time>2025-10-23T13:51:37Z</time>
      </trkpt>
      <trkpt lat="43.5806" lon="3.16102">
        <ele>256.719941</ele>
        <time>2025-10-23T13:51:38Z</time>
      </trkpt>
      <trkpt lat="43.58063" lon="3.16096">
        <ele>256.533997</ele>
        <time>2025-10-23T13:51:39Z</time>
      </trkpt>
      <trkpt lat="43.58068" lon="3.16089">
        <ele>256.353985</ele>
        <time>2025-10-23T13:51:40Z</time>
      </trkpt>
      <trkpt lat="43.58072" lon="3.16083">
        <ele>256.18554</ele>
        <time>2025-10-23T13:51:41Z</time>
      </trkpt>
      <trkpt lat="43.58075" lon="3.16078">
        <ele>256.023612</ele>
        <time>2025-10-23T13:51:42Z</time>
      </trkpt>
      <trkpt lat="43.58079" lon="3.16072">
        <ele>255.864401</ele>
        <time>2025-10-23T13:51:43Z</time>
      </trkpt>
      <trkpt lat="43.58082" lon="3.16067">
        <ele>255.740746</ele>
        <time>2025-10-23T13:51:44Z</time>
      </trkpt>
      <trkpt lat="43.58084" lon="3.16064">
        <ele>255.640688</ele>
        <time>2025-10-23T13:51:45Z</time>
      </trkpt>
      <trkpt lat="43.58086" lon="3.16061">
        <ele>255.568677</ele>
        <time>2025-10-23T13:51:46Z</time>
      </trkpt>
      <trkpt lat="43.58088" lon="3.1606">
        <ele>255.505065</ele>
        <time>2025-10-23T13:51:47Z</time>
      </trkpt>
      <trkpt lat="43.5809" lon="3.16059">
        <ele>255.445614</ele>
        <time>2025-10-23T13:51:48Z</time>
      </trkpt>
      <trkpt lat="43.58091" lon="3.16056">
        <ele>255.379144</ele>
        <time>2025-10-23T13:51:49Z</time>
      </trkpt>
      <trkpt lat="43.58093" lon="3.16053">
        <ele>255.290761</ele>
        <time>2025-10-23T13:51:50Z</time>
      </trkpt>
      <trkpt lat="43.58094" lon="3.16047">
        <ele>255.177288</ele>
        <time>2025-10-23T13:51:51Z</time>
      </trkpt>
      <trkpt lat="43.58094" lon="3.16041">
        <ele>255.045933</ele>
        <time>2025-10-23T13:51:52Z</time>
      </trkpt>
      <trkpt lat="43.58094" lon="3.16034">
        <ele>254.908086</ele>
        <time>2025-10-23T13:51:53Z</time>
      </trkpt>
      <trkpt lat="43.58094" lon="3.16028">
        <ele>254.768158</ele>
        <time>2025-10-23T13:51:54Z</time>
      </trkpt>
      <trkpt lat="43.58094" lon="3.16021">
        <ele>254.630552</ele>
        <time>2025-10-23T13:51:55Z</time>
      </trkpt>
      <trkpt lat="43.58095" lon="3.16014">
        <ele>254.476058</ele>
        <time>2025-10-23T13:51:56Z</time>
      </trkpt>
      <trkpt lat="43.58095" lon="3.16006">
        <ele>254.31306</ele>
        <time>2025-10-23T13:51:57Z</time>
      </trkpt>
      <trkpt lat="43.58095" lon="3.15998">
        <ele>254.150368</ele>
        <time>2025-10-23T13:51:58Z</time>
      </trkpt>
      <trkpt lat="43.58095" lon="3.15991">
        <ele>253.996008</ele>
        <time>2025-10-23T13:51:59Z</time>
      </trkpt>
      <trkpt lat="43.58096" lon="3.15983">
        <ele>253.833011</ele>
        <time>2025-10-23T13:52:00Z</time>
      </trkpt>
      <trkpt lat="43.58096" lon="3.15975">
        <ele>253.666028</ele>
        <time>2025-10-23T13:52:01Z</time>
      </trkpt>
      <trkpt lat="43.58096" lon="3.15967">
        <ele>253.501328</ele>
        <time>2025-10-23T13:52:02Z</time>
      </trkpt>
      <trkpt lat="43.58096" lon="3.15959">
        <ele>253.330303</ele>
        <time>2025-10-23T13:52:03Z</time>
      </trkpt>
      <trkpt lat="43.58097" lon="3.15951">
        <ele>253.165603</ele>
        <time>2025-10-23T13:52:04Z</time>
      </trkpt>
      <trkpt lat="43.58097" lon="3.15943">
        <ele>253.000025</ele>
        <time>2025-10-23T13:52:05Z</time>
      </trkpt>
      <trkpt lat="43.58098" lon="3.15936">
        <ele>252.84653</ele>
        <time>2025-10-23T13:52:06Z</time>
      </trkpt>
      <trkpt lat="43.58098" lon="3.15928">
        <ele>252.689242</ele>
        <time>2025-10-23T13:52:07Z</time>
      </trkpt>
      <trkpt lat="43.58099" lon="3.15921">
        <ele>252.532667</ele>
        <time>2025-10-23T13:52:08Z</time>
      </trkpt>
      <trkpt lat="43.581" lon="3.15913">
        <ele>252.371654</ele>
        <time>2025-10-23T13:52:09Z</time>
      </trkpt>
      <trkpt lat="43.581" lon="3.15905">
        <ele>252.204003</ele>
        <time>2025-10-23T13:52:10Z</time>
      </trkpt>
      <trkpt lat="43.58101" lon="3.15897">
        <ele>252.042238</ele>
        <time>2025-10-23T13:52:11Z</time>
      </trkpt>
      <trkpt lat="43.58102" lon="3.1589">
        <ele>251.890399</ele>
        <time>2025-10-23T13:52:12Z</time>
      </trkpt>
      <trkpt lat="43.58103" lon="3.15883">
        <ele>251.73897</ele>
        <time>2025-10-23T13:52:13Z</time>
      </trkpt>
      <trkpt lat="43.58103" lon="3.15876">
        <ele>251.592038</ele>
        <time>2025-10-23T13:52:14Z</time>
      </trkpt>
      <trkpt lat="43.58103" lon="3.15869">
        <ele>251.448179</ele>
        <time>2025-10-23T13:52:15Z</time>
      </trkpt>
      <trkpt lat="43.58104" lon="3.15862">
        <ele>251.284776</ele>
        <time>2025-10-23T13:52:16Z</time>
      </trkpt>
      <trkpt lat="43.58105" lon="3.15854">
        <ele>251.096375</ele>
        <time>2025-10-23T13:52:17Z</time>
      </trkpt>
      <trkpt lat="43.58106" lon="3.15847">
        <ele>250.902334</ele>
        <time>2025-10-23T13:52:18Z</time>
      </trkpt>
      <trkpt lat="43.58107" lon="3.15839">
        <ele>250.708729</ele>
        <time>2025-10-23T13:52:19Z</time>
      </trkpt>
      <trkpt lat="43.58107" lon="3.15831">
        <ele>250.525517</ele>
        <time>2025-10-23T13:52:20Z</time>
      </trkpt>
      <trkpt lat="43.58108" lon="3.15824">
        <ele>250.339881</ele>
        <time>2025-10-23T13:52:21Z</time>
      </trkpt>
      <trkpt lat="43.58108" lon="3.15815">
        <ele>250.141021</ele>
        <time>2025-10-23T13:52:22Z</time>
      </trkpt>
      <trkpt lat="43.58109" lon="3.15807">
        <ele>249.939275</ele>
        <time>2025-10-23T13:52:23Z</time>
      </trkpt>
      <trkpt lat="43.5811" lon="3.15799">
        <ele>249.736998</ele>
        <time>2025-10-23T13:52:24Z</time>
      </trkpt>
      <trkpt lat="43.58111" lon="3.15791">
        <ele>249.537657</ele>
        <time>2025-10-23T13:52:25Z</time>
      </trkpt>
      <trkpt lat="43.58112" lon="3.15783">
        <ele>249.341207</ele>
        <time>2025-10-23T13:52:26Z</time>
      </trkpt>
      <trkpt lat="43.58113" lon="3.15775">
        <ele>249.14427</ele>
        <time>2025-10-23T13:52:27Z</time>
      </trkpt>
      <trkpt lat="43.58114" lon="3.15767">
        <ele>248.958763</ele>
        <time>2025-10-23T13:52:28Z</time>
      </trkpt>
      <trkpt lat="43.58115" lon="3.1576">
        <ele>248.777386</ele>
        <time>2025-10-23T13:52:29Z</time>
      </trkpt>
      <trkpt lat="43.58116" lon="3.15753">
        <ele>248.592921</ele>
        <time>2025-10-23T13:52:30Z</time>
      </trkpt>
      <trkpt lat="43.58121" lon="3.15684">
        <ele>245.70625</ele>
        <time>2025-10-23T13:54:23Z</time>
      </trkpt>
      <trkpt lat="43.58122" lon="3.1568">
        <ele>245.725623</ele>
        <time>2025-10-23T13:54:24Z</time>
      </trkpt>
      <trkpt lat="43.58123" lon="3.15675">
        <ele>245.746386</ele>
        <time>2025-10-23T13:54:25Z</time>
      </trkpt>
      <trkpt lat="43.58124" lon="3.15671">
        <ele>245.766957</ele>
        <time>2025-10-23T13:54:26Z</time>
      </trkpt>
      <trkpt lat="43.58125" lon="3.15666">
        <ele>245.789415</ele>
        <time>2025-10-23T13:54:27Z</time>
      </trkpt>
      <trkpt lat="43.58126" lon="3.15661">
        <ele>245.811267</ele>
        <time>2025-10-23T13:54:28Z</time>
      </trkpt>
      <trkpt lat="43.58128" lon="3.15656">
        <ele>245.835179</ele>
        <time>2025-10-23T13:54:29Z</time>
      </trkpt>
      <trkpt lat="43.58129" lon="3.15651">
        <ele>245.859926</ele>
        <time>2025-10-23T13:54:30Z</time>
      </trkpt>
      <trkpt lat="43.5813" lon="3.15646">
        <ele>245.886404</ele>
        <time>2025-10-23T13:54:31Z</time>
      </trkpt>
      <trkpt lat="43.58132" lon="3.1564">
        <ele>245.91409</ele>
        <time>2025-10-23T13:54:32Z</time>
      </trkpt>
      <trkpt lat="43.58133" lon="3.15634">
        <ele>245.941173</ele>
        <time>2025-10-23T13:54:33Z</time>
      </trkpt>
      <trkpt lat="43.58135" lon="3.15628">
        <ele>245.969292</ele>
        <time>2025-10-23T13:54:34Z</time>
      </trkpt>
      <trkpt lat="43.58136" lon="3.15622">
        <ele>245.997606</ele>
        <time>2025-10-23T13:54:35Z</time>
      </trkpt>
      <trkpt lat="43.58138" lon="3.15616">
        <ele>246.026001</ele>
        <time>2025-10-23T13:54:36Z</time>
      </trkpt>
      <trkpt lat="43.5814" lon="3.1561">
        <ele>246.055464</ele>
        <time>2025-10-23T13:54:37Z</time>
      </trkpt>
      <trkpt lat="43.58142" lon="3.15604">
        <ele>246.083611</ele>
        <time>2025-10-23T13:54:38Z</time>
      </trkpt>
      <trkpt lat="43.58144" lon="3.15598">
        <ele>246.113231</ele>
        <time>2025-10-23T13:54:39Z</time>
      </trkpt>
      <trkpt lat="43.58145" lon="3.15591">
        <ele>246.14532</ele>
        <time>2025-10-23T13:54:40Z</time>
      </trkpt>
      <trkpt lat="43.58149" lon="3.15586">
        <ele>246.176406</ele>
        <time>2025-10-23T13:54:41Z</time>
      </trkpt>
      <trkpt lat="43.58151" lon="3.1558">
        <ele>246.20698</ele>
        <time>2025-10-23T13:54:42Z</time>
      </trkpt>
      <trkpt lat="43.58154" lon="3.15574">
        <ele>246.238937</ele>
        <time>2025-10-23T13:54:43Z</time>
      </trkpt>
      <trkpt lat="43.58156" lon="3.15567">
        <ele>246.270981</ele>
        <time>2025-10-23T13:54:44Z</time>
      </trkpt>
      <trkpt lat="43.58158" lon="3.15561">
        <ele>246.30285</ele>
        <time>2025-10-23T13:54:45Z</time>
      </trkpt>
      <trkpt lat="43.58161" lon="3.15554">
        <ele>246.335665</ele>
        <time>2025-10-23T13:54:46Z</time>
      </trkpt>
      <trkpt lat="43.58163" lon="3.15548">
        <ele>246.36864</ele>
        <time>2025-10-23T13:54:47Z</time>
      </trkpt>
      <trkpt lat="43.58165" lon="3.15541">
        <ele>246.400965</ele>
        <time>2025-10-23T13:54:48Z</time>
      </trkpt>
      <trkpt lat="43.58167" lon="3.15534">
        <ele>246.434532</ele>
        <time>2025-10-23T13:54:49Z</time>
      </trkpt>
      <trkpt lat="43.58168" lon="3.15527">
        <ele>246.344981</ele>
        <time>2025-10-23T13:54:50Z</time>
      </trkpt>
      <trkpt lat="43.5817" lon="3.15519">
        <ele>246.219132</ele>
        <time>2025-10-23T13:54:51Z</time>
      </trkpt>
      <trkpt lat="43.58172" lon="3.15512">
        <ele>246.088481</ele>
        <time>2025-10-23T13:54:52Z</time>
      </trkpt>
      <trkpt lat="43.58173" lon="3.15505">
        <ele>245.960073</ele>
        <time>2025-10-23T13:54:53Z</time>
      </trkpt>
      <trkpt lat="43.58175" lon="3.15497">
        <ele>245.82579</ele>
        <time>2025-10-23T13:54:54Z</time>
      </trkpt>
      <trkpt lat="43.58176" lon="3.15489">
        <ele>245.69367</ele>
        <time>2025-10-23T13:54:55Z</time>
      </trkpt>
      <trkpt lat="43.58177" lon="3.15481">
        <ele>245.560882</ele>
        <time>2025-10-23T13:54:56Z</time>
      </trkpt>
      <trkpt lat="43.58178" lon="3.15474">
        <ele>245.435794</ele>
        <time>2025-10-23T13:54:57Z</time>
      </trkpt>
      <trkpt lat="43.58179" lon="3.15467">
        <ele>245.310706</ele>
        <time>2025-10-23T13:54:58Z</time>
      </trkpt>
      <trkpt lat="43.5818" lon="3.15459">
        <ele>245.187743</ele>
        <time>2025-10-23T13:54:59Z</time>
      </trkpt>
      <trkpt lat="43.58182" lon="3.15452">
        <ele>245.059872</ele>
        <time>2025-10-23T13:55:00Z</time>
      </trkpt>
      <trkpt lat="43.58182" lon="3.15444">
        <ele>244.929537</ele>
        <time>2025-10-23T13:55:01Z</time>
      </trkpt>
      <trkpt lat="43.58183" lon="3.15436">
        <ele>244.793222</ele>
        <time>2025-10-23T13:55:02Z</time>
      </trkpt>
      <trkpt lat="43.58184" lon="3.15428">
        <ele>244.662148</ele>
        <time>2025-10-23T13:55:03Z</time>
      </trkpt>
      <trkpt lat="43.58184" lon="3.1542">
        <ele>244.524947</ele>
        <time>2025-10-23T13:55:04Z</time>
      </trkpt>
      <trkpt lat="43.58184" lon="3.15412">
        <ele>244.387844</ele>
        <time>2025-10-23T13:55:05Z</time>
      </trkpt>
      <trkpt lat="43.58184" lon="3.15403">
        <ele>244.244115</ele>
        <time>2025-10-23T13:55:06Z</time>
      </trkpt>
      <trkpt lat="43.58184" lon="3.15395">
        <ele>244.103747</ele>
        <time>2025-10-23T13:55:07Z</time>
      </trkpt>
      <trkpt lat="43.58184" lon="3.15387">
        <ele>243.966702</ele>
        <time>2025-10-23T13:55:08Z</time>
      </trkpt>
      <trkpt lat="43.58184" lon="3.15379">
        <ele>243.839619</ele>
        <time>2025-10-23T13:55:09Z</time>
      </trkpt>
      <trkpt lat="43.58183" lon="3.15371">
        <ele>243.710206</ele>
        <time>2025-10-23T13:55:10Z</time>
      </trkpt>
      <trkpt lat="43.58183" lon="3.15364">
        <ele>243.584348</ele>
        <time>2025-10-23T13:55:11Z</time>
      </trkpt>
      <trkpt lat="43.58182" lon="3.15357">
        <ele>243.459918</ele>
        <time>2025-10-23T13:55:12Z</time>
      </trkpt>
      <trkpt lat="43.58182" lon="3.15349">
        <ele>243.330505</ele>
        <time>2025-10-23T13:55:13Z</time>
      </trkpt>
      <trkpt lat="43.58181" lon="3.15342">
        <ele>243.206357</ele>
        <time>2025-10-23T13:55:14Z</time>
      </trkpt>
      <trkpt lat="43.5818" lon="3.15335">
        <ele>243.097518</ele>
        <time>2025-10-23T13:55:15Z</time>
      </trkpt>
      <trkpt lat="43.5818" lon="3.15329">
        <ele>242.991839</ele>
        <time>2025-10-23T13:55:16Z</time>
      </trkpt>
      <trkpt lat="43.58179" lon="3.15322">
        <ele>242.884957</ele>
        <time>2025-10-23T13:55:17Z</time>
      </trkpt>
      <trkpt lat="43.58179" lon="3.15316">
        <ele>242.776798</ele>
        <time>2025-10-23T13:55:18Z</time>
      </trkpt>
      <trkpt lat="43.58178" lon="3.1531">
        <ele>242.672273</ele>
        <time>2025-10-23T13:55:19Z</time>
      </trkpt>
      <trkpt lat="43.58177" lon="3.15304">
        <ele>242.570718</ele>
        <time>2025-10-23T13:55:20Z</time>
      </trkpt>
      <trkpt lat="43.58177" lon="3.15298">
        <ele>242.467513</ele>
        <time>2025-10-23T13:55:21Z</time>
      </trkpt>
      <trkpt lat="43.58176" lon="3.15292">
        <ele>242.367607</ele>
        <time>2025-10-23T13:55:22Z</time>
      </trkpt>
      <trkpt lat="43.58175" lon="3.15286">
        <ele>242.272023</ele>
        <time>2025-10-23T13:55:23Z</time>
      </trkpt>
      <trkpt lat="43.58174" lon="3.1528">
        <ele>242.168698</ele>
        <time>2025-10-23T13:55:24Z</time>
      </trkpt>
      <trkpt lat="43.58174" lon="3.15275">
        <ele>242.067064</ele>
        <time>2025-10-23T13:55:25Z</time>
      </trkpt>
      <trkpt lat="43.58173" lon="3.15268">
        <ele>241.960353</ele>
        <time>2025-10-23T13:55:26Z</time>
      </trkpt>
      <trkpt lat="43.58172" lon="3.15262">
        <ele>241.85488</ele>
        <time>2025-10-23T13:55:27Z</time>
      </trkpt>
      <trkpt lat="43.58171" lon="3.15257">
        <ele>241.752251</ele>
        <time>2025-10-23T13:55:28Z</time>
      </trkpt>
      <trkpt lat="43.5817" lon="3.15251">
        <ele>241.651296</ele>
        <time>2025-10-23T13:55:29Z</time>
      </trkpt>
      <trkpt lat="43.58169" lon="3.15245">
        <ele>241.547971</ele>
        <time>2025-10-23T13:55:30Z</time>
      </trkpt>
      <trkpt lat="43.58168" lon="3.15239">
        <ele>241.444645</ele>
        <time>2025-10-23T13:55:31Z</time>
      </trkpt>
      <trkpt lat="43.58168" lon="3.15234">
        <ele>241.3472</ele>
        <time>2025-10-23T13:55:32Z</time>
      </trkpt>
      <trkpt lat="43.58167" lon="3.15228">
        <ele>241.253493</ele>
        <time>2025-10-23T13:55:33Z</time>
      </trkpt>
      <trkpt lat="43.58166" lon="3.15223">
        <ele>241.160301</ele>
        <time>2025-10-23T13:55:34Z</time>
      </trkpt>
      <trkpt lat="43.58165" lon="3.15217">
        <ele>241.064557</ele>
        <time>2025-10-23T13:55:35Z</time>
      </trkpt>
      <trkpt lat="43.58165" lon="3.15212">
        <ele>240.966735</ele>
        <time>2025-10-23T13:55:36Z</time>
      </trkpt>
      <trkpt lat="43.58164" lon="3.15206">
        <ele>240.867586</ele>
        <time>2025-10-23T13:55:37Z</time>
      </trkpt>
      <trkpt lat="43.58163" lon="3.152">
        <ele>240.763324</ele>
        <time>2025-10-23T13:55:38Z</time>
      </trkpt>
      <trkpt lat="43.58163" lon="3.15194">
        <ele>240.654919</ele>
        <time>2025-10-23T13:55:39Z</time>
      </trkpt>
      <trkpt lat="43.58162" lon="3.15188">
        <ele>240.542217</ele>
        <time>2025-10-23T13:55:40Z</time>
      </trkpt>
      <trkpt lat="43.58161" lon="3.15181">
        <ele>240.42661</ele>
        <time>2025-10-23T13:55:41Z</time>
      </trkpt>
      <trkpt lat="43.5816" lon="3.15175">
        <ele>240.317763</ele>
        <time>2025-10-23T13:55:42Z</time>
      </trkpt>
      <trkpt lat="43.58159" lon="3.15169">
        <ele>240.211052</ele>
        <time>2025-10-23T13:55:43Z</time>
      </trkpt>
      <trkpt lat="43.58158" lon="3.15162">
        <ele>240.102204</ele>
        <time>2025-10-23T13:55:44Z</time>
      </trkpt>
      <trkpt lat="43.58157" lon="3.15157">
        <ele>240.000099</ele>
        <time>2025-10-23T13:55:45Z</time>
      </trkpt>
      <trkpt lat="43.58156" lon="3.15151">
        <ele>239.895081</ele>
        <time>2025-10-23T13:55:46Z</time>
      </trkpt>
      <trkpt lat="43.58156" lon="3.15145">
        <ele>239.788768</ele>
        <time>2025-10-23T13:55:47Z</time>
      </trkpt>
      <trkpt lat="43.58155" lon="3.15138">
        <ele>239.678232</ele>
        <time>2025-10-23T13:55:48Z</time>
      </trkpt>
      <trkpt lat="43.58154" lon="3.15132">
        <ele>239.572758</ele>
        <time>2025-10-23T13:55:49Z</time>
      </trkpt>
      <trkpt lat="43.58153" lon="3.15126">
        <ele>239.466047</ele>
        <time>2025-10-23T13:55:50Z</time>
      </trkpt>
      <trkpt lat="43.58152" lon="3.1512">
        <ele>239.356167</ele>
        <time>2025-10-23T13:55:51Z</time>
      </trkpt>
      <trkpt lat="43.58151" lon="3.15114">
        <ele>239.24294</ele>
        <time>2025-10-23T13:55:52Z</time>
      </trkpt>
      <trkpt lat="43.5815" lon="3.15107">
        <ele>239.130237</ele>
        <time>2025-10-23T13:55:53Z</time>
      </trkpt>
      <trkpt lat="43.58149" lon="3.15101">
        <ele>239.017535</ele>
        <time>2025-10-23T13:55:54Z</time>
      </trkpt>
      <trkpt lat="43.58148" lon="3.15094">
        <ele>238.905982</ele>
        <time>2025-10-23T13:55:55Z</time>
      </trkpt>
      <trkpt lat="43.58147" lon="3.15088">
        <ele>238.792183</ele>
        <time>2025-10-23T13:55:56Z</time>
      </trkpt>
      <trkpt lat="43.58145" lon="3.15082">
        <ele>238.676717</ele>
        <time>2025-10-23T13:55:57Z</time>
      </trkpt>
      <trkpt lat="43.58144" lon="3.15075">
        <ele>238.553899</ele>
        <time>2025-10-23T13:55:58Z</time>
      </trkpt>
      <trkpt lat="43.58144" lon="3.15068">
        <ele>238.433612</ele>
        <time>2025-10-23T13:55:59Z</time>
      </trkpt>
      <trkpt lat="43.58143" lon="3.15061">
        <ele>238.315856</ele>
        <time>2025-10-23T13:56:00Z</time>
      </trkpt>
      <trkpt lat="43.58142" lon="3.15054">
        <ele>238.201471</ele>
        <time>2025-10-23T13:56:01Z</time>
      </trkpt>
      <trkpt lat="43.58141" lon="3.15047">
        <ele>238.07909</ele>
        <time>2025-10-23T13:56:02Z</time>
      </trkpt>
      <trkpt lat="43.5814" lon="3.15041">
        <ele>237.976278</ele>
        <time>2025-10-23T13:56:03Z</time>
      </trkpt>
      <trkpt lat="43.58139" lon="3.15034">
        <ele>237.892983</ele>
        <time>2025-10-23T13:56:04Z</time>
      </trkpt>
      <trkpt lat="43.58138" lon="3.15028">
        <ele>237.812231</ele>
        <time>2025-10-23T13:56:05Z</time>
      </trkpt>
      <trkpt lat="43.58137" lon="3.15022">
        <ele>237.733829</ele>
        <time>2025-10-23T13:56:06Z</time>
      </trkpt>
      <trkpt lat="43.58137" lon="3.15016">
        <ele>237.653332</ele>
        <time>2025-10-23T13:56:07Z</time>
      </trkpt>
      <trkpt lat="43.58136" lon="3.1501">
        <ele>237.573555</ele>
        <time>2025-10-23T13:56:08Z</time>
      </trkpt>
      <trkpt lat="43.58135" lon="3.15004">
        <ele>237.495577</ele>
        <time>2025-10-23T13:56:09Z</time>
      </trkpt>
      <trkpt lat="43.58134" lon="3.14998">
        <ele>237.418331</ele>
        <time>2025-10-23T13:56:10Z</time>
      </trkpt>
      <trkpt lat="43.58133" lon="3.14992">
        <ele>237.336956</ele>
        <time>2025-10-23T13:56:11Z</time>
      </trkpt>
      <trkpt lat="43.58132" lon="3.14985">
        <ele>237.248547</ele>
        <time>2025-10-23T13:56:12Z</time>
      </trkpt>
      <trkpt lat="43.58131" lon="3.14979">
        <ele>237.163384</ele>
        <time>2025-10-23T13:56:13Z</time>
      </trkpt>
      <trkpt lat="43.5813" lon="3.14972">
        <ele>237.07822</ele>
        <time>2025-10-23T13:56:14Z</time>
      </trkpt>
      <trkpt lat="43.5813" lon="3.14966">
        <ele>237.000974</ele>
        <time>2025-10-23T13:56:15Z</time>
      </trkpt>
      <trkpt lat="43.58129" lon="3.1496">
        <ele>236.91993</ele>
        <time>2025-10-23T13:56:16Z</time>
      </trkpt>
      <trkpt lat="43.58128" lon="3.14954">
        <ele>236.841418</ele>
        <time>2025-10-23T13:56:17Z</time>
      </trkpt>
      <trkpt lat="43.58127" lon="3.14948">
        <ele>236.764479</ele>
        <time>2025-10-23T13:56:18Z</time>
      </trkpt>
      <trkpt lat="43.58127" lon="3.14942">
        <ele>236.687807</ele>
        <time>2025-10-23T13:56:19Z</time>
      </trkpt>
      <trkpt lat="43.58126" lon="3.14937">
        <ele>236.61264</ele>
        <time>2025-10-23T13:56:20Z</time>
      </trkpt>
      <trkpt lat="43.58126" lon="3.14931">
        <ele>236.538516</ele>
        <time>2025-10-23T13:56:21Z</time>
      </trkpt>
      <trkpt lat="43.58125" lon="3.14925">
        <ele>236.459035</ele>
        <time>2025-10-23T13:56:22Z</time>
      </trkpt>
      <trkpt lat="43.58124" lon="3.14918">
        <ele>236.377262</ele>
        <time>2025-10-23T13:56:23Z</time>
      </trkpt>
      <trkpt lat="43.58123" lon="3.14912">
        <ele>236.294951</ele>
        <time>2025-10-23T13:56:24Z</time>
      </trkpt>
      <trkpt lat="43.58122" lon="3.14906">
        <ele>236.210695</ele>
        <time>2025-10-23T13:56:25Z</time>
      </trkpt>
      <trkpt lat="43.58122" lon="3.149">
        <ele>236.129943</ele>
        <time>2025-10-23T13:56:26Z</time>
      </trkpt>
      <trkpt lat="43.58121" lon="3.14893">
        <ele>236.050165</ele>
        <time>2025-10-23T13:56:27Z</time>
      </trkpt>
      <trkpt lat="43.5812" lon="3.14887">
        <ele>235.972442</ele>
        <time>2025-10-23T13:56:28Z</time>
      </trkpt>
      <trkpt lat="43.5812" lon="3.14881">
        <ele>235.894495</ele>
        <time>2025-10-23T13:56:29Z</time>
      </trkpt>
      <trkpt lat="43.58119" lon="3.14875">
        <ele>235.815492</ele>
        <time>2025-10-23T13:56:30Z</time>
      </trkpt>
      <trkpt lat="43.58119" lon="3.14869">
        <ele>235.735388</ele>
        <time>2025-10-23T13:56:31Z</time>
      </trkpt>
      <trkpt lat="43.58119" lon="3.14863">
        <ele>235.656566</ele>
        <time>2025-10-23T13:56:32Z</time>
      </trkpt>
      <trkpt lat="43.58118" lon="3.14857">
        <ele>235.574031</ele>
        <time>2025-10-23T13:56:33Z</time>
      </trkpt>
      <trkpt lat="43.58118" lon="3.1485">
        <ele>235.489021</ele>
        <time>2025-10-23T13:56:34Z</time>
      </trkpt>
      <trkpt lat="43.58118" lon="3.14843">
        <ele>235.400153</ele>
        <time>2025-10-23T13:56:35Z</time>
      </trkpt>
      <trkpt lat="43.58118" lon="3.14837">
        <ele>235.31505</ele>
        <time>2025-10-23T13:56:36Z</time>
      </trkpt>
      <trkpt lat="43.58117" lon="3.1483">
        <ele>235.23004</ele>
        <time>2025-10-23T13:56:37Z</time>
      </trkpt>
      <trkpt lat="43.58117" lon="3.14824">
        <ele>235.147658</ele>
        <time>2025-10-23T13:56:38Z</time>
      </trkpt>
      <trkpt lat="43.58117" lon="3.14817">
        <ele>235.06399</ele>
        <time>2025-10-23T13:56:39Z</time>
      </trkpt>
      <trkpt lat="43.58117" lon="3.1481">
        <ele>234.977694</ele>
        <time>2025-10-23T13:56:40Z</time>
      </trkpt>
      <trkpt lat="43.58117" lon="3.14804">
        <ele>234.890112</ele>
        <time>2025-10-23T13:56:41Z</time>
      </trkpt>
      <trkpt lat="43.58116" lon="3.14797">
        <ele>234.809541</ele>
        <time>2025-10-23T13:56:42Z</time>
      </trkpt>
      <trkpt lat="43.58116" lon="3.1479">
        <ele>234.74595</ele>
        <time>2025-10-23T13:56:43Z</time>
      </trkpt>
      <trkpt lat="43.58116" lon="3.14784">
        <ele>234.680405</ele>
        <time>2025-10-23T13:56:44Z</time>
      </trkpt>
      <trkpt lat="43.58116" lon="3.14777">
        <ele>234.613938</ele>
        <time>2025-10-23T13:56:45Z</time>
      </trkpt>
      <trkpt lat="43.58116" lon="3.1477">
        <ele>234.54644</ele>
        <time>2025-10-23T13:56:46Z</time>
      </trkpt>
      <trkpt lat="43.58116" lon="3.14763">
        <ele>234.477028</ele>
        <time>2025-10-23T13:56:47Z</time>
      </trkpt>
      <trkpt lat="43.58116" lon="3.14756">
        <ele>234.406651</ele>
        <time>2025-10-23T13:56:48Z</time>
      </trkpt>
      <trkpt lat="43.58116" lon="3.14749">
        <ele>234.338216</ele>
        <time>2025-10-23T13:56:49Z</time>
      </trkpt>
      <trkpt lat="43.58116" lon="3.14742">
        <ele>234.270718</ele>
        <time>2025-10-23T13:56:50Z</time>
      </trkpt>
      <trkpt lat="43.58116" lon="3.14735">
        <ele>234.201266</ele>
        <time>2025-10-23T13:56:51Z</time>
      </trkpt>
      <trkpt lat="43.58115" lon="3.14728">
        <ele>234.130838</ele>
        <time>2025-10-23T13:56:52Z</time>
      </trkpt>
      <trkpt lat="43.58115" lon="3.1472">
        <ele>234.06041</ele>
        <time>2025-10-23T13:56:53Z</time>
      </trkpt>
      <trkpt lat="43.58115" lon="3.14713">
        <ele>233.989981</ele>
        <time>2025-10-23T13:56:54Z</time>
      </trkpt>
      <trkpt lat="43.58115" lon="3.14706">
        <ele>233.918576</ele>
        <time>2025-10-23T13:56:55Z</time>
      </trkpt>
      <trkpt lat="43.58115" lon="3.14698">
        <ele>233.845218</ele>
        <time>2025-10-23T13:56:56Z</time>
      </trkpt>
      <trkpt lat="43.58115" lon="3.14691">
        <ele>233.773851</ele>
        <time>2025-10-23T13:56:57Z</time>
      </trkpt>
      <trkpt lat="43.58114" lon="3.14684">
        <ele>233.704399</ele>
        <time>2025-10-23T13:56:58Z</time>
      </trkpt>
      <trkpt lat="43.58114" lon="3.14677">
        <ele>233.633816</ele>
        <time>2025-10-23T13:56:59Z</time>
      </trkpt>
      <trkpt lat="43.58114" lon="3.14669">
        <ele>233.559334</ele>
        <time>2025-10-23T13:57:00Z</time>
      </trkpt>
      <trkpt lat="43.58113" lon="3.14662">
        <ele>233.489882</ele>
        <time>2025-10-23T13:57:01Z</time>
      </trkpt>
      <trkpt lat="43.58113" lon="3.14655">
        <ele>233.418413</ele>
        <time>2025-10-23T13:57:02Z</time>
      </trkpt>
      <trkpt lat="43.58113" lon="3.14647">
        <ele>233.341981</ele>
        <time>2025-10-23T13:57:03Z</time>
      </trkpt>
      <trkpt lat="43.58113" lon="3.14639">
        <ele>233.267682</ele>
        <time>2025-10-23T13:57:04Z</time>
      </trkpt>
      <trkpt lat="43.58113" lon="3.14632">
        <ele>233.198283</ele>
        <time>2025-10-23T13:57:05Z</time>
      </trkpt>
      <trkpt lat="43.58112" lon="3.14625">
        <ele>233.129742</ele>
        <time>2025-10-23T13:57:06Z</time>
      </trkpt>
      <trkpt lat="43.58112" lon="3.14618">
        <ele>233.059352</ele>
        <time>2025-10-23T13:57:07Z</time>
      </trkpt>
      <trkpt lat="43.58112" lon="3.14611">
        <ele>232.989835</ele>
        <time>2025-10-23T13:57:08Z</time>
      </trkpt>
      <trkpt lat="43.58112" lon="3.14604">
        <ele>232.92136</ele>
        <time>2025-10-23T13:57:09Z</time>
      </trkpt>
      <trkpt lat="43.58111" lon="3.14597">
        <ele>232.853579</ele>
        <time>2025-10-23T13:57:10Z</time>
      </trkpt>
      <trkpt lat="43.58111" lon="3.1459">
        <ele>232.786081</ele>
        <time>2025-10-23T13:57:11Z</time>
      </trkpt>
      <trkpt lat="43.58111" lon="3.14583">
        <ele>232.718515</ele>
        <time>2025-10-23T13:57:12Z</time>
      </trkpt>
      <trkpt lat="43.5811" lon="3.14577">
        <ele>232.653497</ele>
        <time>2025-10-23T13:57:13Z</time>
      </trkpt>
      <trkpt lat="43.5811" lon="3.1457">
        <ele>232.587661</ele>
        <time>2025-10-23T13:57:14Z</time>
      </trkpt>
      <trkpt lat="43.58109" lon="3.14563">
        <ele>232.521674</ele>
        <time>2025-10-23T13:57:15Z</time>
      </trkpt>
      <trkpt lat="43.58108" lon="3.14556">
        <ele>232.454336</ele>
        <time>2025-10-23T13:57:16Z</time>
      </trkpt>
      <trkpt lat="43.58107" lon="3.1455">
        <ele>232.370273</ele>
        <time>2025-10-23T13:57:17Z</time>
      </trkpt>
      <trkpt lat="43.58106" lon="3.14542">
        <ele>232.195233</ele>
        <time>2025-10-23T13:57:18Z</time>
      </trkpt>
      <trkpt lat="43.58106" lon="3.14536">
        <ele>232.029628</ele>
        <time>2025-10-23T13:57:19Z</time>
      </trkpt>
      <trkpt lat="43.58105" lon="3.14528">
        <ele>231.856347</ele>
        <time>2025-10-23T13:57:20Z</time>
      </trkpt>
      <trkpt lat="43.58104" lon="3.14521">
        <ele>231.674731</ele>
        <time>2025-10-23T13:57:21Z</time>
      </trkpt>
      <trkpt lat="43.58103" lon="3.14514">
        <ele>231.497854</ele>
        <time>2025-10-23T13:57:22Z</time>
      </trkpt>
      <trkpt lat="43.58102" lon="3.14507">
        <ele>231.32388</ele>
        <time>2025-10-23T13:57:23Z</time>
      </trkpt>
      <trkpt lat="43.581" lon="3.145">
        <ele>231.155393</ele>
        <time>2025-10-23T13:57:24Z</time>
      </trkpt>
      <trkpt lat="43.58099" lon="3.14493">
        <ele>230.982806</ele>
        <time>2025-10-23T13:57:25Z</time>
      </trkpt>
      <trkpt lat="43.58097" lon="3.14486">
        <ele>230.807922</ele>
        <time>2025-10-23T13:57:26Z</time>
      </trkpt>
      <trkpt lat="43.58096" lon="3.14479">
        <ele>230.639436</ele>
        <time>2025-10-23T13:57:27Z</time>
      </trkpt>
      <trkpt lat="43.58094" lon="3.14473">
        <ele>230.478285</ele>
        <time>2025-10-23T13:57:28Z</time>
      </trkpt>
      <trkpt lat="43.58093" lon="3.14466">
        <ele>230.317223</ele>
        <time>2025-10-23T13:57:29Z</time>
      </trkpt>
      <trkpt lat="43.58091" lon="3.1446">
        <ele>230.16405</ele>
        <time>2025-10-23T13:57:30Z</time>
      </trkpt>
      <trkpt lat="43.5809" lon="3.14454">
        <ele>229.997313</ele>
        <time>2025-10-23T13:57:31Z</time>
      </trkpt>
      <trkpt lat="43.58088" lon="3.14447">
        <ele>229.827019</ele>
        <time>2025-10-23T13:57:32Z</time>
      </trkpt>
      <trkpt lat="43.58086" lon="3.1444">
        <ele>229.651322</ele>
        <time>2025-10-23T13:57:33Z</time>
      </trkpt>
      <trkpt lat="43.58084" lon="3.14433">
        <ele>229.475625</ele>
        <time>2025-10-23T13:57:34Z</time>
      </trkpt>
      <trkpt lat="43.58083" lon="3.14426">
        <ele>229.29315</ele>
        <time>2025-10-23T13:57:35Z</time>
      </trkpt>
      <trkpt lat="43.58081" lon="3.14419">
        <ele>229.115103</ele>
        <time>2025-10-23T13:57:36Z</time>
      </trkpt>
      <trkpt lat="43.58079" lon="3.14412">
        <ele>228.939278</ele>
        <time>2025-10-23T13:57:37Z</time>
      </trkpt>
      <trkpt lat="43.58077" lon="3.14406">
        <ele>228.76658</ele>
        <time>2025-10-23T13:57:38Z</time>
      </trkpt>
      <trkpt lat="43.58075" lon="3.14399">
        <ele>228.590755</ele>
        <time>2025-10-23T13:57:39Z</time>
      </trkpt>
      <trkpt lat="43.58072" lon="3.14392">
        <ele>228.404807</ele>
        <time>2025-10-23T13:57:40Z</time>
      </trkpt>
      <trkpt lat="43.5807" lon="3.14385">
        <ele>228.220661</ele>
        <time>2025-10-23T13:57:41Z</time>
      </trkpt>
      <trkpt lat="43.58068" lon="3.14378">
        <ele>228.035657</ele>
        <time>2025-10-23T13:57:42Z</time>
      </trkpt>
      <trkpt lat="43.58066" lon="3.1437">
        <ele>227.8436</ele>
        <time>2025-10-23T13:57:43Z</time>
      </trkpt>
      <trkpt lat="43.58063" lon="3.14363">
        <ele>227.647985</ele>
        <time>2025-10-23T13:57:44Z</time>
      </trkpt>
      <trkpt lat="43.5806" lon="3.14356">
        <ele>227.450949</ele>
        <time>2025-10-23T13:57:45Z</time>
      </trkpt>
      <trkpt lat="43.58058" lon="3.14348">
        <ele>227.258212</ele>
        <time>2025-10-23T13:57:46Z</time>
      </trkpt>
      <trkpt lat="43.58055" lon="3.14341">
        <ele>227.066155</ele>
        <time>2025-10-23T13:57:47Z</time>
      </trkpt>
      <trkpt lat="43.58053" lon="3.14333">
        <ele>226.866186</ele>
        <time>2025-10-23T13:57:48Z</time>
      </trkpt>
      <trkpt lat="43.5805" lon="3.14326">
        <ele>226.67057</ele>
        <time>2025-10-23T13:57:49Z</time>
      </trkpt>
      <trkpt lat="43.58048" lon="3.14319">
        <ele>226.482051</ele>
        <time>2025-10-23T13:57:50Z</time>
      </trkpt>
      <trkpt lat="43.58046" lon="3.14311">
        <ele>226.286505</ele>
        <time>2025-10-23T13:57:51Z</time>
      </trkpt>
      <trkpt lat="43.58043" lon="3.14304">
        <ele>226.085692</ele>
        <time>2025-10-23T13:57:52Z</time>
      </trkpt>
      <trkpt lat="43.58041" lon="3.14296">
        <ele>225.878321</ele>
        <time>2025-10-23T13:57:53Z</time>
      </trkpt>
      <trkpt lat="43.58038" lon="3.14289">
        <ele>225.677508</ele>
        <time>2025-10-23T13:57:54Z</time>
      </trkpt>
      <trkpt lat="43.58035" lon="3.14281">
        <ele>225.473714</ele>
        <time>2025-10-23T13:57:55Z</time>
      </trkpt>
      <trkpt lat="43.58033" lon="3.14273">
        <ele>225.264585</ele>
        <time>2025-10-23T13:57:56Z</time>
      </trkpt>
      <trkpt lat="43.58031" lon="3.14265">
        <ele>225.054158</ele>
        <time>2025-10-23T13:57:57Z</time>
      </trkpt>
      <trkpt lat="43.58028" lon="3.14257">
        <ele>224.847258</ele>
        <time>2025-10-23T13:57:58Z</time>
      </trkpt>
      <trkpt lat="43.58026" lon="3.14249">
        <ele>224.628857</ele>
        <time>2025-10-23T13:57:59Z</time>
      </trkpt>
      <trkpt lat="43.58023" lon="3.1424">
        <ele>224.409526</ele>
        <time>2025-10-23T13:58:00Z</time>
      </trkpt>
      <trkpt lat="43.58021" lon="3.14232">
        <ele>224.189191</ele>
        <time>2025-10-23T13:58:01Z</time>
      </trkpt>
      <trkpt lat="43.58018" lon="3.14224">
        <ele>223.97335</ele>
        <time>2025-10-23T13:58:02Z</time>
      </trkpt>
      <trkpt lat="43.58016" lon="3.14215">
        <ele>223.760702</ele>
        <time>2025-10-23T13:58:03Z</time>
      </trkpt>
      <trkpt lat="43.58013" lon="3.14208">
        <ele>223.555069</ele>
        <time>2025-10-23T13:58:04Z</time>
      </trkpt>
      <trkpt lat="43.58012" lon="3.142">
        <ele>223.358342</ele>
        <time>2025-10-23T13:58:05Z</time>
      </trkpt>
      <trkpt lat="43.5801" lon="3.14192">
        <ele>223.158503</ele>
        <time>2025-10-23T13:58:06Z</time>
      </trkpt>
      <trkpt lat="43.58008" lon="3.14185">
        <ele>222.971042</ele>
        <time>2025-10-23T13:58:07Z</time>
      </trkpt>
      <trkpt lat="43.58006" lon="3.14178">
        <ele>222.791457</ele>
        <time>2025-10-23T13:58:08Z</time>
      </trkpt>
      <trkpt lat="43.58004" lon="3.14171">
        <ele>222.627539</ele>
        <time>2025-10-23T13:58:09Z</time>
      </trkpt>
      <trkpt lat="43.58002" lon="3.14165">
        <ele>222.456446</ele>
        <time>2025-10-23T13:58:10Z</time>
      </trkpt>
      <trkpt lat="43.58" lon="3.14158">
        <ele>222.28267</ele>
        <time>2025-10-23T13:58:11Z</time>
      </trkpt>
      <trkpt lat="43.57998" lon="3.14152">
        <ele>222.114602</ele>
        <time>2025-10-23T13:58:12Z</time>
      </trkpt>
      <trkpt lat="43.57997" lon="3.14145">
        <ele>221.954067</ele>
        <time>2025-10-23T13:58:13Z</time>
      </trkpt>
      <trkpt lat="43.57995" lon="3.14138">
        <ele>221.772389</ele>
        <time>2025-10-23T13:58:14Z</time>
      </trkpt>
      <trkpt lat="43.57994" lon="3.14131">
        <ele>221.597698</ele>
        <time>2025-10-23T13:58:15Z</time>
      </trkpt>
      <trkpt lat="43.57993" lon="3.14123">
        <ele>221.40439</ele>
        <time>2025-10-23T13:58:16Z</time>
      </trkpt>
      <trkpt lat="43.57992" lon="3.14116">
        <ele>221.213076</ele>
        <time>2025-10-23T13:58:17Z</time>
      </trkpt>
      <trkpt lat="43.57991" lon="3.14108">
        <ele>221.015634</ele>
        <time>2025-10-23T13:58:18Z</time>
      </trkpt>
      <trkpt lat="43.5799" lon="3.141">
        <ele>220.821385</ele>
        <time>2025-10-23T13:58:19Z</time>
      </trkpt>
      <trkpt lat="43.5799" lon="3.14092">
        <ele>220.62745</ele>
        <time>2025-10-23T13:58:20Z</time>
      </trkpt>
      <trkpt lat="43.5799" lon="3.14084">
        <ele>220.445881</ele>
        <time>2025-10-23T13:58:21Z</time>
      </trkpt>
      <trkpt lat="43.57989" lon="3.14077">
        <ele>220.348535</ele>
        <time>2025-10-23T13:58:22Z</time>
      </trkpt>
      <trkpt lat="43.57989" lon="3.14069">
        <ele>220.244887</ele>
        <time>2025-10-23T13:58:23Z</time>
      </trkpt>
      <trkpt lat="43.5799" lon="3.14061">
        <ele>220.143521</ele>
        <time>2025-10-23T13:58:24Z</time>
      </trkpt>
      <trkpt lat="43.5799" lon="3.14054">
        <ele>220.036164</ele>
        <time>2025-10-23T13:58:25Z</time>
      </trkpt>
      <trkpt lat="43.57991" lon="3.14046">
        <ele>219.935176</ele>
        <time>2025-10-23T13:58:26Z</time>
      </trkpt>
      <trkpt lat="43.57992" lon="3.14039">
        <ele>219.832541</ele>
        <time>2025-10-23T13:58:27Z</time>
      </trkpt>
      <trkpt lat="43.57994" lon="3.14031">
        <ele>219.733108</ele>
        <time>2025-10-23T13:58:28Z</time>
      </trkpt>
      <trkpt lat="43.57995" lon="3.14024">
        <ele>219.632757</ele>
        <time>2025-10-23T13:58:29Z</time>
      </trkpt>
      <trkpt lat="43.57996" lon="3.14017">
        <ele>219.53289</ele>
        <time>2025-10-23T13:58:30Z</time>
      </trkpt>
      <trkpt lat="43.57998" lon="3.14009">
        <ele>219.42508</ele>
        <time>2025-10-23T13:58:31Z</time>
      </trkpt>
      <trkpt lat="43.57999" lon="3.14002">
        <ele>219.321661</ele>
        <time>2025-10-23T13:58:32Z</time>
      </trkpt>
      <trkpt lat="43.58001" lon="3.13994">
        <ele>219.216603</ele>
        <time>2025-10-23T13:58:33Z</time>
      </trkpt>
      <trkpt lat="43.58002" lon="3.13987">
        <ele>219.116271</ele>
        <time>2025-10-23T13:58:34Z</time>
      </trkpt>
      <trkpt lat="43.58004" lon="3.1398">
        <ele>219.015939</ele>
        <time>2025-10-23T13:58:35Z</time>
      </trkpt>
      <trkpt lat="43.58005" lon="3.13973">
        <ele>218.919501</ele>
        <time>2025-10-23T13:58:36Z</time>
      </trkpt>
      <trkpt lat="43.58007" lon="3.13966">
        <ele>218.822686</ele>
        <time>2025-10-23T13:58:37Z</time>
      </trkpt>
      <trkpt lat="43.58008" lon="3.1396">
        <ele>218.726461</ele>
        <time>2025-10-23T13:58:38Z</time>
      </trkpt>
      <trkpt lat="43.5801" lon="3.13952">
        <ele>218.625716</ele>
        <time>2025-10-23T13:58:39Z</time>
      </trkpt>
      <trkpt lat="43.58011" lon="3.13945">
        <ele>218.527155</ele>
        <time>2025-10-23T13:58:40Z</time>
      </trkpt>
      <trkpt lat="43.58012" lon="3.13938">
        <ele>218.423736</ele>
        <time>2025-10-23T13:58:41Z</time>
      </trkpt>
      <trkpt lat="43.58014" lon="3.1393">
        <ele>218.320317</ele>
        <time>2025-10-23T13:58:42Z</time>
      </trkpt>
      <trkpt lat="43.58015" lon="3.13923">
        <ele>218.218958</ele>
        <time>2025-10-23T13:58:43Z</time>
      </trkpt>
      <trkpt lat="43.58017" lon="3.13916">
        <ele>218.116312</ele>
        <time>2025-10-23T13:58:44Z</time>
      </trkpt>
      <trkpt lat="43.58019" lon="3.13908">
        <ele>218.007419</ele>
        <time>2025-10-23T13:58:45Z</time>
      </trkpt>
      <trkpt lat="43.5802" lon="3.139">
        <ele>217.895345</ele>
        <time>2025-10-23T13:58:46Z</time>
      </trkpt>
      <trkpt lat="43.58022" lon="3.13892">
        <ele>217.785887</ele>
        <time>2025-10-23T13:58:47Z</time>
      </trkpt>
      <trkpt lat="43.58023" lon="3.13884">
        <ele>217.677551</ele>
        <time>2025-10-23T13:58:48Z</time>
      </trkpt>
      <trkpt lat="43.58025" lon="3.13877">
        <ele>217.572493</ele>
        <time>2025-10-23T13:58:49Z</time>
      </trkpt>
      <trkpt lat="43.58026" lon="3.1387">
        <ele>217.475236</ele>
        <time>2025-10-23T13:58:50Z</time>
      </trkpt>
      <trkpt lat="43.58028" lon="3.13863">
        <ele>217.381568</ele>
        <time>2025-10-23T13:58:51Z</time>
      </trkpt>
      <trkpt lat="43.58029" lon="3.13856">
        <ele>217.283834</ele>
        <time>2025-10-23T13:58:52Z</time>
      </trkpt>
      <trkpt lat="43.58031" lon="3.13849">
        <ele>217.176521</ele>
        <time>2025-10-23T13:58:53Z</time>
      </trkpt>
      <trkpt lat="43.58032" lon="3.13841">
        <ele>217.095994</ele>
        <time>2025-10-23T13:58:54Z</time>
      </trkpt>
      <trkpt lat="43.58034" lon="3.13832">
        <ele>217.059525</ele>
        <time>2025-10-23T13:58:55Z</time>
      </trkpt>
      <trkpt lat="43.58035" lon="3.13824">
        <ele>217.024966</ele>
        <time>2025-10-23T13:58:56Z</time>
      </trkpt>
      <trkpt lat="43.58037" lon="3.13816">
        <ele>216.991909</ele>
        <time>2025-10-23T13:58:57Z</time>
      </trkpt>
      <trkpt lat="43.58038" lon="3.13809">
        <ele>216.960061</ele>
        <time>2025-10-23T13:58:58Z</time>
      </trkpt>
      <trkpt lat="43.5804" lon="3.13801">
        <ele>216.92637</ele>
        <time>2025-10-23T13:58:59Z</time>
      </trkpt>
      <trkpt lat="43.58042" lon="3.13795">
        <ele>216.896195</ele>
        <time>2025-10-23T13:59:00Z</time>
      </trkpt>
      <trkpt lat="43.58043" lon="3.13788">
        <ele>216.867958</ele>
        <time>2025-10-23T13:59:01Z</time>
      </trkpt>
      <trkpt lat="43.58044" lon="3.13782">
        <ele>216.841081</ele>
        <time>2025-10-23T13:59:02Z</time>
      </trkpt>
      <trkpt lat="43.58046" lon="3.13776">
        <ele>216.814359</ele>
        <time>2025-10-23T13:59:03Z</time>
      </trkpt>
      <trkpt lat="43.58046" lon="3.1377">
        <ele>216.789463</ele>
        <time>2025-10-23T13:59:04Z</time>
      </trkpt>
      <trkpt lat="43.58047" lon="3.13764">
        <ele>216.765287</ele>
        <time>2025-10-23T13:59:05Z</time>
      </trkpt>
      <trkpt lat="43.58048" lon="3.13759">
        <ele>216.741528</ele>
        <time>2025-10-23T13:59:06Z</time>
      </trkpt>
      <trkpt lat="43.58049" lon="3.13753">
        <ele>216.718008</ele>
        <time>2025-10-23T13:59:07Z</time>
      </trkpt>
      <trkpt lat="43.58051" lon="3.13748">
        <ele>216.695009</ele>
        <time>2025-10-23T13:59:08Z</time>
      </trkpt>
      <trkpt lat="43.58053" lon="3.13743">
        <ele>216.672596</ele>
        <time>2025-10-23T13:59:09Z</time>
      </trkpt>
      <trkpt lat="43.58054" lon="3.13738">
        <ele>216.649296</ele>
        <time>2025-10-23T13:59:10Z</time>
      </trkpt>
      <trkpt lat="43.58056" lon="3.13733">
        <ele>216.625387</ele>
        <time>2025-10-23T13:59:11Z</time>
      </trkpt>
      <trkpt lat="43.58058" lon="3.13728">
        <ele>216.601251</ele>
        <time>2025-10-23T13:59:12Z</time>
      </trkpt>
      <trkpt lat="43.58059" lon="3.13722">
        <ele>216.575359</ele>
        <time>2025-10-23T13:59:13Z</time>
      </trkpt>
      <trkpt lat="43.58061" lon="3.13716">
        <ele>216.550292</ele>
        <time>2025-10-23T13:59:14Z</time>
      </trkpt>
      <trkpt lat="43.58063" lon="3.13711">
        <ele>216.525009</ele>
        <time>2025-10-23T13:59:15Z</time>
      </trkpt>
      <trkpt lat="43.58064" lon="3.13705">
        <ele>216.498956</ele>
        <time>2025-10-23T13:59:16Z</time>
      </trkpt>
      <trkpt lat="43.58066" lon="3.13699">
        <ele>216.471453</ele>
        <time>2025-10-23T13:59:17Z</time>
      </trkpt>
      <trkpt lat="43.58068" lon="3.13693">
        <ele>216.444947</ele>
        <time>2025-10-23T13:59:18Z</time>
      </trkpt>
      <trkpt lat="43.5807" lon="3.13688">
        <ele>216.420063</ele>
        <time>2025-10-23T13:59:19Z</time>
      </trkpt>
      <trkpt lat="43.58072" lon="3.13682">
        <ele>216.393936</ele>
        <time>2025-10-23T13:59:20Z</time>
      </trkpt>
      <trkpt lat="43.58074" lon="3.13677">
        <ele>216.369052</ele>
        <time>2025-10-23T13:59:21Z</time>
      </trkpt>
      <trkpt lat="43.58076" lon="3.13671">
        <ele>216.344054</ele>
        <time>2025-10-23T13:59:22Z</time>
      </trkpt>
      <trkpt lat="43.58078" lon="3.13666">
        <ele>216.319302</ele>
        <time>2025-10-23T13:59:23Z</time>
      </trkpt>
      <trkpt lat="43.5808" lon="3.13661">
        <ele>216.294928</ele>
        <time>2025-10-23T13:59:24Z</time>
      </trkpt>
      <trkpt lat="43.58081" lon="3.13656">
        <ele>216.271551</ele>
        <time>2025-10-23T13:59:25Z</time>
      </trkpt>
      <trkpt lat="43.58083" lon="3.13651">
        <ele>216.248302</ele>
        <time>2025-10-23T13:59:26Z</time>
      </trkpt>
      <trkpt lat="43.58085" lon="3.13646">
        <ele>216.224518</ele>
        <time>2025-10-23T13:59:27Z</time>
      </trkpt>
      <trkpt lat="43.58087" lon="3.1364">
        <ele>216.199728</ele>
        <time>2025-10-23T13:59:28Z</time>
      </trkpt>
      <trkpt lat="43.5809" lon="3.13635">
        <ele>216.17393</ele>
        <time>2025-10-23T13:59:29Z</time>
      </trkpt>
      <trkpt lat="43.58092" lon="3.13629">
        <ele>216.148042</ele>
        <time>2025-10-23T13:59:30Z</time>
      </trkpt>
      <trkpt lat="43.58094" lon="3.13624">
        <ele>216.12379</ele>
        <time>2025-10-23T13:59:31Z</time>
      </trkpt>
      <trkpt lat="43.58096" lon="3.13619">
        <ele>216.09827</ele>
        <time>2025-10-23T13:59:32Z</time>
      </trkpt>
      <trkpt lat="43.58097" lon="3.13613">
        <ele>216.065</ele>
        <time>2025-10-23T13:59:33Z</time>
      </trkpt>
      <trkpt lat="43.58099" lon="3.13608">
        <ele>215.946029</ele>
        <time>2025-10-23T13:59:34Z</time>
      </trkpt>
      <trkpt lat="43.58102" lon="3.13602">
        <ele>215.818367</ele>
        <time>2025-10-23T13:59:35Z</time>
      </trkpt>
      <trkpt lat="43.58104" lon="3.13596">
        <ele>215.689056</ele>
        <time>2025-10-23T13:59:36Z</time>
      </trkpt>
      <trkpt lat="43.58107" lon="3.1359">
        <ele>215.556827</ele>
        <time>2025-10-23T13:59:37Z</time>
      </trkpt>
      <trkpt lat="43.58109" lon="3.13584">
        <ele>215.429165</ele>
        <time>2025-10-23T13:59:38Z</time>
      </trkpt>
      <trkpt lat="43.58111" lon="3.13579">
        <ele>215.315552</ele>
        <time>2025-10-23T13:59:39Z</time>
      </trkpt>
      <trkpt lat="43.58114" lon="3.13573">
        <ele>215.195737</ele>
        <time>2025-10-23T13:59:40Z</time>
      </trkpt>
      <trkpt lat="43.58116" lon="3.13568">
        <ele>215.072639</ele>
        <time>2025-10-23T13:59:41Z</time>
      </trkpt>
      <trkpt lat="43.58118" lon="3.13562">
        <ele>214.944977</ele>
        <time>2025-10-23T13:59:42Z</time>
      </trkpt>
      <trkpt lat="43.58121" lon="3.13556">
        <ele>214.816905</ele>
        <time>2025-10-23T13:59:43Z</time>
      </trkpt>
      <trkpt lat="43.58123" lon="3.13549">
        <ele>214.679722</ele>
        <time>2025-10-23T13:59:44Z</time>
      </trkpt>
      <trkpt lat="43.58126" lon="3.13543">
        <ele>214.544198</ele>
        <time>2025-10-23T13:59:45Z</time>
      </trkpt>
      <trkpt lat="43.58128" lon="3.13537">
        <ele>214.413608</ele>
        <time>2025-10-23T13:59:46Z</time>
      </trkpt>
      <trkpt lat="43.58131" lon="3.13531">
        <ele>214.28138</ele>
        <time>2025-10-23T13:59:47Z</time>
      </trkpt>
      <trkpt lat="43.58133" lon="3.13525">
        <ele>214.146725</ele>
        <time>2025-10-23T13:59:48Z</time>
      </trkpt>
      <trkpt lat="43.58136" lon="3.13519">
        <ele>214.01048</ele>
        <time>2025-10-23T13:59:49Z</time>
      </trkpt>
      <trkpt lat="43.58139" lon="3.13513">
        <ele>213.878252</ele>
        <time>2025-10-23T13:59:50Z</time>
      </trkpt>
      <trkpt lat="43.58142" lon="3.13506">
        <ele>213.74041</ele>
        <time>2025-10-23T13:59:51Z</time>
      </trkpt>
      <trkpt lat="43.58144" lon="3.135">
        <ele>213.60068</ele>
        <time>2025-10-23T13:59:52Z</time>
      </trkpt>
      <trkpt lat="43.58147" lon="3.13494">
        <ele>213.464435</ele>
        <time>2025-10-23T13:59:53Z</time>
      </trkpt>
      <trkpt lat="43.5815" lon="3.13488">
        <ele>213.32978</ele>
        <time>2025-10-23T13:59:54Z</time>
      </trkpt>
      <trkpt lat="43.58153" lon="3.13482">
        <ele>213.198281</ele>
        <time>2025-10-23T13:59:55Z</time>
      </trkpt>
      <trkpt lat="43.58155" lon="3.13476">
        <ele>213.066782</ele>
        <time>2025-10-23T13:59:56Z</time>
      </trkpt>
      <trkpt lat="43.58158" lon="3.13471">
        <ele>212.936849</ele>
        <time>2025-10-23T13:59:57Z</time>
      </trkpt>
      <trkpt lat="43.58161" lon="3.13465">
        <ele>212.809518</ele>
        <time>2025-10-23T13:59:58Z</time>
      </trkpt>
      <trkpt lat="43.58163" lon="3.13459">
        <ele>212.682186</ele>
        <time>2025-10-23T13:59:59Z</time>
      </trkpt>
      <trkpt lat="43.58166" lon="3.13453">
        <ele>212.554854</ele>
        <time>2025-10-23T14:00:00Z</time>
      </trkpt>
      <trkpt lat="43.58168" lon="3.13447">
        <ele>212.422627</ele>
        <time>2025-10-23T14:00:01Z</time>
      </trkpt>
      <trkpt lat="43.58171" lon="3.13441">
        <ele>212.286662</ele>
        <time>2025-10-23T14:00:02Z</time>
      </trkpt>
      <trkpt lat="43.58173" lon="3.13434">
        <ele>212.146148</ele>
        <time>2025-10-23T14:00:03Z</time>
      </trkpt>
      <trkpt lat="43.58176" lon="3.13428">
        <ele>212.007302</ele>
        <time>2025-10-23T14:00:04Z</time>
      </trkpt>
      <trkpt lat="43.58178" lon="3.13421">
        <ele>211.868457</ele>
        <time>2025-10-23T14:00:05Z</time>
      </trkpt>
      <trkpt lat="43.58181" lon="3.13415">
        <ele>211.726036</ele>
        <time>2025-10-23T14:00:06Z</time>
      </trkpt>
      <trkpt lat="43.58184" lon="3.13408">
        <ele>211.586307</ele>
        <time>2025-10-23T14:00:07Z</time>
      </trkpt>
      <trkpt lat="43.58187" lon="3.13402">
        <ele>211.442282</ele>
        <time>2025-10-23T14:00:08Z</time>
      </trkpt>
      <trkpt lat="43.5819" lon="3.13395">
        <ele>211.253948</ele>
        <time>2025-10-23T14:00:09Z</time>
      </trkpt>
      <trkpt lat="43.58192" lon="3.13389">
        <ele>211.052202</ele>
        <time>2025-10-23T14:00:10Z</time>
      </trkpt>
      <trkpt lat="43.58195" lon="3.13382">
        <ele>210.838844</ele>
        <time>2025-10-23T14:00:11Z</time>
      </trkpt>
      <trkpt lat="43.58198" lon="3.13376">
        <ele>210.621196</ele>
        <time>2025-10-23T14:00:12Z</time>
      </trkpt>
      <trkpt lat="43.58201" lon="3.13368">
        <ele>210.396504</ele>
        <time>2025-10-23T14:00:13Z</time>
      </trkpt>
      <trkpt lat="43.58204" lon="3.13361">
        <ele>210.171812</ele>
        <time>2025-10-23T14:00:14Z</time>
      </trkpt>
      <trkpt lat="43.58207" lon="3.13354">
        <ele>209.953743</ele>
        <time>2025-10-23T14:00:15Z</time>
      </trkpt>
      <trkpt lat="43.5821" lon="3.13348">
        <ele>209.740386</ele>
        <time>2025-10-23T14:00:16Z</time>
      </trkpt>
      <trkpt lat="43.58213" lon="3.13341">
        <ele>209.535014</ele>
        <time>2025-10-23T14:00:17Z</time>
      </trkpt>
      <trkpt lat="43.58215" lon="3.13335">
        <ele>209.330188</ele>
        <time>2025-10-23T14:00:18Z</time>
      </trkpt>
      <trkpt lat="43.58218" lon="3.13329">
        <ele>209.140974</ele>
        <time>2025-10-23T14:00:19Z</time>
      </trkpt>
      <trkpt lat="43.58221" lon="3.13322">
        <ele>208.945138</ele>
        <time>2025-10-23T14:00:20Z</time>
      </trkpt>
      <trkpt lat="43.58223" lon="3.13317">
        <ele>208.756355</ele>
        <time>2025-10-23T14:00:21Z</time>
      </trkpt>
      <trkpt lat="43.58226" lon="3.13311">
        <ele>208.568994</ele>
        <time>2025-10-23T14:00:22Z</time>
      </trkpt>
      <trkpt lat="43.58228" lon="3.13304">
        <ele>208.372628</ele>
        <time>2025-10-23T14:00:23Z</time>
      </trkpt>
      <trkpt lat="43.58231" lon="3.13298">
        <ele>208.181857</ele>
        <time>2025-10-23T14:00:24Z</time>
      </trkpt>
      <trkpt lat="43.58233" lon="3.13293">
        <ele>207.999706</ele>
        <time>2025-10-23T14:00:25Z</time>
      </trkpt>
      <trkpt lat="43.58236" lon="3.13287">
        <ele>207.822209</ele>
        <time>2025-10-23T14:00:26Z</time>
      </trkpt>
      <trkpt lat="43.58238" lon="3.13282">
        <ele>207.648064</ele>
        <time>2025-10-23T14:00:27Z</time>
      </trkpt>
      <trkpt lat="43.5824" lon="3.13276">
        <ele>207.464232</ele>
        <time>2025-10-23T14:00:28Z</time>
      </trkpt>
      <trkpt lat="43.58242" lon="3.1327">
        <ele>207.280401</ele>
        <time>2025-10-23T14:00:29Z</time>
      </trkpt>
      <trkpt lat="43.58245" lon="3.13263">
        <ele>207.089986</ele>
        <time>2025-10-23T14:00:30Z</time>
      </trkpt>
      <trkpt lat="43.58247" lon="3.13257">
        <ele>206.897821</ele>
        <time>2025-10-23T14:00:31Z</time>
      </trkpt>
      <trkpt lat="43.5825" lon="3.13251">
        <ele>206.709557</ele>
        <time>2025-10-23T14:00:32Z</time>
      </trkpt>
      <trkpt lat="43.58253" lon="3.13246">
        <ele>206.525793</ele>
        <time>2025-10-23T14:00:33Z</time>
      </trkpt>
      <trkpt lat="43.58255" lon="3.1324">
        <ele>206.348297</ele>
        <time>2025-10-23T14:00:34Z</time>
      </trkpt>
      <trkpt lat="43.58258" lon="3.13235">
        <ele>206.168933</ele>
        <time>2025-10-23T14:00:35Z</time>
      </trkpt>
      <trkpt lat="43.58261" lon="3.1323">
        <ele>205.991697</ele>
        <time>2025-10-23T14:00:36Z</time>
      </trkpt>
      <trkpt lat="43.58264" lon="3.13225">
        <ele>205.818936</ele>
        <time>2025-10-23T14:00:37Z</time>
      </trkpt>
      <trkpt lat="43.58266" lon="3.1322">
        <ele>205.646258</ele>
        <time>2025-10-23T14:00:38Z</time>
      </trkpt>
      <trkpt lat="43.58269" lon="3.13215">
        <ele>205.477964</ele>
        <time>2025-10-23T14:00:39Z</time>
      </trkpt>
      <trkpt lat="43.58272" lon="3.1321">
        <ele>205.313987</ele>
        <time>2025-10-23T14:00:40Z</time>
      </trkpt>
      <trkpt lat="43.58274" lon="3.13206">
        <ele>205.149741</ele>
        <time>2025-10-23T14:00:41Z</time>
      </trkpt>
      <trkpt lat="43.58278" lon="3.13201">
        <ele>204.973952</ele>
        <time>2025-10-23T14:00:42Z</time>
      </trkpt>
      <trkpt lat="43.58281" lon="3.13196">
        <ele>204.798909</ele>
        <time>2025-10-23T14:00:43Z</time>
      </trkpt>
      <trkpt lat="43.58284" lon="3.13192">
        <ele>204.627442</ele>
        <time>2025-10-23T14:00:44Z</time>
      </trkpt>
      <trkpt lat="43.58288" lon="3.13188">
        <ele>204.545726</ele>
        <time>2025-10-23T14:00:45Z</time>
      </trkpt>
      <trkpt lat="43.58292" lon="3.13184">
        <ele>204.480779</ele>
        <time>2025-10-23T14:00:46Z</time>
      </trkpt>
      <trkpt lat="43.58294" lon="3.13179">
        <ele>204.420208</ele>
        <time>2025-10-23T14:00:47Z</time>
      </trkpt>
      <trkpt lat="43.58297" lon="3.13175">
        <ele>204.361775</ele>
        <time>2025-10-23T14:00:48Z</time>
      </trkpt>
      <trkpt lat="43.583" lon="3.1317">
        <ele>204.302846</ele>
        <time>2025-10-23T14:00:49Z</time>
      </trkpt>
      <trkpt lat="43.58302" lon="3.13166">
        <ele>204.246372</ele>
        <time>2025-10-23T14:00:50Z</time>
      </trkpt>
      <trkpt lat="43.58305" lon="3.13162">
        <ele>204.192579</ele>
        <time>2025-10-23T14:00:51Z</time>
      </trkpt>
      <trkpt lat="43.58308" lon="3.13158">
        <ele>204.135776</ele>
        <time>2025-10-23T14:00:52Z</time>
      </trkpt>
      <trkpt lat="43.5831" lon="3.13155">
        <ele>204.083407</ele>
        <time>2025-10-23T14:00:53Z</time>
      </trkpt>
      <trkpt lat="43.58313" lon="3.13151">
        <ele>204.035477</ele>
        <time>2025-10-23T14:00:54Z</time>
      </trkpt>
      <trkpt lat="43.58316" lon="3.13148">
        <ele>203.986483</ele>
        <time>2025-10-23T14:00:55Z</time>
      </trkpt>
      <trkpt lat="43.58318" lon="3.13146">
        <ele>203.940478</ele>
        <time>2025-10-23T14:00:56Z</time>
      </trkpt>
      <trkpt lat="43.58321" lon="3.13144">
        <ele>203.902844</ele>
        <time>2025-10-23T14:00:57Z</time>
      </trkpt>
      <trkpt lat="43.58322" lon="3.13143">
        <ele>203.881027</ele>
        <time>2025-10-23T14:00:58Z</time>
      </trkpt>
      <trkpt lat="43.58323" lon="3.13144">
        <ele>203.867111</ele>
        <time>2025-10-23T14:00:59Z</time>
      </trkpt>
      <trkpt lat="43.58323" lon="3.13144">
        <ele>203.85874</ele>
        <time>2025-10-23T14:01:00Z</time>
      </trkpt>
      <trkpt lat="43.58324" lon="3.13143">
        <ele>203.851849</ele>
        <time>2025-10-23T14:01:01Z</time>
      </trkpt>
      <trkpt lat="43.58323" lon="3.13143">
        <ele>203.843629</ele>
        <time>2025-10-23T14:01:02Z</time>
      </trkpt>
      <trkpt lat="43.58323" lon="3.13143">
        <ele>203.843629</ele>
        <time>2025-10-23T14:01:03Z</time>
      </trkpt>
      <trkpt lat="43.58324" lon="3.13143">
        <ele>203.837958</ele>
        <time>2025-10-23T14:01:04Z</time>
      </trkpt>
      <trkpt lat="43.58323" lon="3.13142">
        <ele>203.832186</ele>
        <time>2025-10-23T14:01:05Z</time>
      </trkpt>
      <trkpt lat="43.58324" lon="3.13142">
        <ele>203.82521</ele>
        <time>2025-10-23T14:01:06Z</time>
      </trkpt>
      <trkpt lat="43.58324" lon="3.13142">
        <ele>203.820562</ele>
        <time>2025-10-23T14:01:07Z</time>
      </trkpt>
      <trkpt lat="43.58324" lon="3.13141">
        <ele>203.814744</ele>
        <time>2025-10-23T14:01:08Z</time>
      </trkpt>
      <trkpt lat="43.58324" lon="3.13141">
        <ele>203.813348</ele>
        <time>2025-10-23T14:01:09Z</time>
      </trkpt>
      <trkpt lat="43.58324" lon="3.13141">
        <ele>203.808295</ele>
        <time>2025-10-23T14:01:10Z</time>
      </trkpt>
      <trkpt lat="43.58324" lon="3.13141">
        <ele>203.805839</ele>
        <time>2025-10-23T14:01:11Z</time>
      </trkpt>
      <trkpt lat="43.58324" lon="3.13141">
        <ele>203.802394</ele>
        <time>2025-10-23T14:01:12Z</time>
      </trkpt>
      <trkpt lat="43.58325" lon="3.1314">
        <ele>203.796723</ele>
        <time>2025-10-23T14:01:13Z</time>
      </trkpt>
      <trkpt lat="43.58324" lon="3.1314">
        <ele>203.792537</ele>
        <time>2025-10-23T14:01:14Z</time>
      </trkpt>
      <trkpt lat="43.58324" lon="3.1314">
        <ele>203.784167</ele>
        <time>2025-10-23T14:01:15Z</time>
      </trkpt>
      <trkpt lat="43.58323" lon="3.1314">
        <ele>203.77296</ele>
        <time>2025-10-23T14:01:16Z</time>
      </trkpt>
      <trkpt lat="43.58323" lon="3.1314">
        <ele>203.769992</ele>
        <time>2025-10-23T14:01:17Z</time>
      </trkpt>
      <trkpt lat="43.58322" lon="3.1314">
        <ele>203.763016</ele>
        <time>2025-10-23T14:01:18Z</time>
      </trkpt>
      <trkpt lat="43.58322" lon="3.1314">
        <ele>203.757436</ele>
        <time>2025-10-23T14:01:19Z</time>
      </trkpt>
      <trkpt lat="43.58321" lon="3.1314">
        <ele>203.75313</ele>
        <time>2025-10-23T14:01:20Z</time>
      </trkpt>
      <trkpt lat="43.58321" lon="3.1314">
        <ele>203.743312</ele>
        <time>2025-10-23T14:01:21Z</time>
      </trkpt>
      <trkpt lat="43.5832" lon="3.1314">
        <ele>203.734941</ele>
        <time>2025-10-23T14:01:22Z</time>
      </trkpt>
      <trkpt lat="43.5832" lon="3.1314">
        <ele>203.729006</ele>
        <time>2025-10-23T14:01:23Z</time>
      </trkpt>
      <trkpt lat="43.5832" lon="3.1314">
        <ele>203.727283</ele>
        <time>2025-10-23T14:01:24Z</time>
      </trkpt>
      <trkpt lat="43.58319" lon="3.1314">
        <ele>203.721464</ele>
        <time>2025-10-23T14:01:25Z</time>
      </trkpt>
      <trkpt lat="43.58319" lon="3.13139">
        <ele>203.712853</ele>
        <time>2025-10-23T14:01:26Z</time>
      </trkpt>
      <trkpt lat="43.58318" lon="3.13139">
        <ele>203.708547</ele>
        <time>2025-10-23T14:01:27Z</time>
      </trkpt>
      <trkpt lat="43.58319" lon="3.13139">
        <ele>203.706825</ele>
        <time>2025-10-23T14:01:28Z</time>
      </trkpt>
      <trkpt lat="43.58319" lon="3.13139">
        <ele>203.705102</ele>
        <time>2025-10-23T14:01:29Z</time>
      </trkpt>
      <trkpt lat="43.58319" lon="3.13139">
        <ele>203.702134</ele>
        <time>2025-10-23T14:01:30Z</time>
      </trkpt>
      <trkpt lat="43.58319" lon="3.13139">
        <ele>203.700412</ele>
        <time>2025-10-23T14:01:31Z</time>
      </trkpt>
      <trkpt lat="43.58319" lon="3.13139">
        <ele>203.69474</ele>
        <time>2025-10-23T14:01:32Z</time>
      </trkpt>
      <trkpt lat="43.58319" lon="3.13139">
        <ele>203.69373</ele>
        <time>2025-10-23T14:01:33Z</time>
      </trkpt>
      <trkpt lat="43.58319" lon="3.13139">
        <ele>203.69373</ele>
        <time>2025-10-23T14:01:34Z</time>
      </trkpt>
      <trkpt lat="43.58319" lon="3.13139">
        <ele>203.692335</ele>
        <time>2025-10-23T14:01:35Z</time>
      </trkpt>
      <trkpt lat="43.58319" lon="3.13139">
        <ele>203.691324</ele>
        <time>2025-10-23T14:01:36Z</time>
      </trkpt>
      <trkpt lat="43.58319" lon="3.13139">
        <ele>203.691324</ele>
        <time>2025-10-23T14:01:37Z</time>
      </trkpt>
      <trkpt lat="43.58319" lon="3.13139">
        <ele>203.690313</ele>
        <time>2025-10-23T14:01:38Z</time>
      </trkpt>
      <trkpt lat="43.58318" lon="3.13138">
        <ele>203.681761</ele>
        <time>2025-10-23T14:01:39Z</time>
      </trkpt>
      <trkpt lat="43.58318" lon="3.13138">
        <ele>203.681761</ele>
        <time>2025-10-23T14:01:40Z</time>
      </trkpt>
      <trkpt lat="43.58319" lon="3.13138">
        <ele>203.678793</ele>
        <time>2025-10-23T14:01:41Z</time>
      </trkpt>
      <trkpt lat="43.58319" lon="3.13138">
        <ele>203.678793</ele>
        <time>2025-10-23T14:01:42Z</time>
      </trkpt>
      <trkpt lat="43.58319" lon="3.13138">
        <ele>203.677398</ele>
        <time>2025-10-23T14:01:43Z</time>
      </trkpt>
      <trkpt lat="43.58319" lon="3.13138">
        <ele>203.677398</ele>
        <time>2025-10-23T14:01:44Z</time>
      </trkpt>
      <trkpt lat="43.58319" lon="3.13138">
        <ele>203.676003</ele>
        <time>2025-10-23T14:01:45Z</time>
      </trkpt>
      <trkpt lat="43.58319" lon="3.13138">
        <ele>203.676003</ele>
        <time>2025-10-23T14:01:46Z</time>
      </trkpt>
      <trkpt lat="43.58319" lon="3.13138">
        <ele>203.674992</ele>
        <time>2025-10-23T14:01:47Z</time>
      </trkpt>
      <trkpt lat="43.58319" lon="3.13138">
        <ele>203.673269</ele>
        <time>2025-10-23T14:01:48Z</time>
      </trkpt>
      <trkpt lat="43.58319" lon="3.13138">
        <ele>203.671874</ele>
        <time>2025-10-23T14:01:49Z</time>
      </trkpt>
      <trkpt lat="43.58319" lon="3.13138">
        <ele>203.670152</ele>
        <time>2025-10-23T14:01:50Z</time>
      </trkpt>
      <trkpt lat="43.58319" lon="3.13138">
        <ele>203.668429</ele>
        <time>2025-10-23T14:01:51Z</time>
      </trkpt>
      <trkpt lat="43.58319" lon="3.13138">
        <ele>203.665639</ele>
        <time>2025-10-23T14:01:52Z</time>
      </trkpt>
      <trkpt lat="43.58322" lon="3.1314">
        <ele>203.622964</ele>
        <time>2025-10-23T14:01:53Z</time>
      </trkpt>
      <trkpt lat="43.58323" lon="3.13139">
        <ele>203.606482</ele>
        <time>2025-10-23T14:01:54Z</time>
      </trkpt>
      <trkpt lat="43.58324" lon="3.13138">
        <ele>203.593268</ele>
        <time>2025-10-23T14:01:55Z</time>
      </trkpt>
      <trkpt lat="43.58324" lon="3.13138">
        <ele>203.586707</ele>
        <time>2025-10-23T14:01:56Z</time>
      </trkpt>
      <trkpt lat="43.58324" lon="3.13138">
        <ele>203.584251</ele>
        <time>2025-10-23T14:01:57Z</time>
      </trkpt>
      <trkpt lat="43.58325" lon="3.13138">
        <ele>203.572192</ele>
        <time>2025-10-23T14:01:58Z</time>
      </trkpt>
      <trkpt lat="43.58325" lon="3.13138">
        <ele>203.568746</ele>
        <time>2025-10-23T14:01:59Z</time>
      </trkpt>
      <trkpt lat="43.58325" lon="3.13137">
        <ele>203.562396</ele>
        <time>2025-10-23T14:02:00Z</time>
      </trkpt>
      <trkpt lat="43.58326" lon="3.13136">
        <ele>203.543446</ele>
        <time>2025-10-23T14:02:01Z</time>
      </trkpt>
      <trkpt lat="43.58328" lon="3.13135">
        <ele>203.519907</ele>
        <time>2025-10-23T14:02:02Z</time>
      </trkpt>
      <trkpt lat="43.5833" lon="3.13133">
        <ele>203.478382</ele>
        <time>2025-10-23T14:02:03Z</time>
      </trkpt>
      <trkpt lat="43.58333" lon="3.13131">
        <ele>203.438567</ele>
        <time>2025-10-23T14:02:04Z</time>
      </trkpt>
      <trkpt lat="43.58335" lon="3.13129">
        <ele>203.394932</ele>
        <time>2025-10-23T14:02:05Z</time>
      </trkpt>
      <trkpt lat="43.58338" lon="3.13127">
        <ele>203.353407</ele>
        <time>2025-10-23T14:02:06Z</time>
      </trkpt>
      <trkpt lat="43.58341" lon="3.13124">
        <ele>203.305033</ele>
        <time>2025-10-23T14:02:07Z</time>
      </trkpt>
      <trkpt lat="43.58344" lon="3.13122">
        <ele>203.255447</ele>
        <time>2025-10-23T14:02:08Z</time>
      </trkpt>
      <trkpt lat="43.58347" lon="3.1312">
        <ele>203.205861</ele>
        <time>2025-10-23T14:02:09Z</time>
      </trkpt>
      <trkpt lat="43.5835" lon="3.13117">
        <ele>203.153824</ele>
        <time>2025-10-23T14:02:10Z</time>
      </trkpt>
      <trkpt lat="43.58354" lon="3.13115">
        <ele>203.102697</ele>
        <time>2025-10-23T14:02:11Z</time>
      </trkpt>
      <trkpt lat="43.58357" lon="3.13113">
        <ele>203.049874</ele>
        <time>2025-10-23T14:02:12Z</time>
      </trkpt>
      <trkpt lat="43.58361" lon="3.1311">
        <ele>202.994948</ele>
        <time>2025-10-23T14:02:13Z</time>
      </trkpt>
      <trkpt lat="43.58364" lon="3.13108">
        <ele>202.940722</ele>
        <time>2025-10-23T14:02:14Z</time>
      </trkpt>
      <trkpt lat="43.58367" lon="3.13106">
        <ele>202.890848</ele>
        <time>2025-10-23T14:02:15Z</time>
      </trkpt>
      <trkpt lat="43.58371" lon="3.13103">
        <ele>202.840515</ele>
        <time>2025-10-23T14:02:16Z</time>
      </trkpt>
      <trkpt lat="43.58374" lon="3.13101">
        <ele>202.789708</ele>
        <time>2025-10-23T14:02:17Z</time>
      </trkpt>
      <trkpt lat="43.58377" lon="3.13099">
        <ele>202.735186</ele>
        <time>2025-10-23T14:02:18Z</time>
      </trkpt>
      <trkpt lat="43.58381" lon="3.13096">
        <ele>202.678965</ele>
        <time>2025-10-23T14:02:19Z</time>
      </trkpt>
      <trkpt lat="43.58385" lon="3.13094">
        <ele>202.62186</ele>
        <time>2025-10-23T14:02:20Z</time>
      </trkpt>
      <trkpt lat="43.58388" lon="3.13092">
        <ele>202.564754</ele>
        <time>2025-10-23T14:02:21Z</time>
      </trkpt>
      <trkpt lat="43.58392" lon="3.1309">
        <ele>202.506352</ele>
        <time>2025-10-23T14:02:22Z</time>
      </trkpt>
      <trkpt lat="43.58396" lon="3.13088">
        <ele>202.45162</ele>
        <time>2025-10-23T14:02:23Z</time>
      </trkpt>
      <trkpt lat="43.584" lon="3.13086">
        <ele>202.396545</ele>
        <time>2025-10-23T14:02:24Z</time>
      </trkpt>
      <trkpt lat="43.58403" lon="3.13084">
        <ele>202.343463</ele>
        <time>2025-10-23T14:02:25Z</time>
      </trkpt>
      <trkpt lat="43.58407" lon="3.13083">
        <ele>202.286092</ele>
        <time>2025-10-23T14:02:26Z</time>
      </trkpt>
      <trkpt lat="43.58412" lon="3.13081">
        <ele>202.224216</ele>
        <time>2025-10-23T14:02:27Z</time>
      </trkpt>
      <trkpt lat="43.58416" lon="3.13079">
        <ele>202.163153</ele>
        <time>2025-10-23T14:02:28Z</time>
      </trkpt>
      <trkpt lat="43.5842" lon="3.13078">
        <ele>202.095106</ele>
        <time>2025-10-23T14:02:29Z</time>
      </trkpt>
      <trkpt lat="43.58425" lon="3.13076">
        <ele>201.993015</ele>
        <time>2025-10-23T14:02:30Z</time>
      </trkpt>
      <trkpt lat="43.58429" lon="3.13074">
        <ele>201.890766</ele>
        <time>2025-10-23T14:02:31Z</time>
      </trkpt>
      <trkpt lat="43.58433" lon="3.13072">
        <ele>201.783557</ele>
        <time>2025-10-23T14:02:32Z</time>
      </trkpt>
      <trkpt lat="43.58438" lon="3.1307">
        <ele>201.673033</ele>
        <time>2025-10-23T14:02:33Z</time>
      </trkpt>
      <trkpt lat="43.58442" lon="3.13068">
        <ele>201.566841</ele>
        <time>2025-10-23T14:02:34Z</time>
      </trkpt>
      <trkpt lat="43.58446" lon="3.13065">
        <ele>201.464077</ele>
        <time>2025-10-23T14:02:35Z</time>
      </trkpt>
      <trkpt lat="43.5845" lon="3.13063">
        <ele>201.362849</ele>
        <time>2025-10-23T14:02:36Z</time>
      </trkpt>
      <trkpt lat="43.58454" lon="3.1306">
        <ele>201.261671</ele>
        <time>2025-10-23T14:02:37Z</time>
      </trkpt>
      <trkpt lat="43.58458" lon="3.13058">
        <ele>201.156898</ele>
        <time>2025-10-23T14:02:38Z</time>
      </trkpt>
      <trkpt lat="43.58462" lon="3.13055">
        <ele>201.059275</ele>
        <time>2025-10-23T14:02:39Z</time>
      </trkpt>
      <trkpt lat="43.58465" lon="3.13053">
        <ele>200.967973</ele>
        <time>2025-10-23T14:02:40Z</time>
      </trkpt>
      <trkpt lat="43.58469" lon="3.13051">
        <ele>200.875911</ele>
        <time>2025-10-23T14:02:41Z</time>
      </trkpt>
      <trkpt lat="43.58472" lon="3.13048">
        <ele>200.78306</ele>
        <time>2025-10-23T14:02:42Z</time>
      </trkpt>
      <trkpt lat="43.58476" lon="3.13045">
        <ele>200.680795</ele>
        <time>2025-10-23T14:02:43Z</time>
      </trkpt>
      <trkpt lat="43.5848" lon="3.13042">
        <ele>200.580767</ele>
        <time>2025-10-23T14:02:44Z</time>
      </trkpt>
      <trkpt lat="43.58483" lon="3.13039">
        <ele>200.477652</ele>
        <time>2025-10-23T14:02:45Z</time>
      </trkpt>
      <trkpt lat="43.58487" lon="3.13035">
        <ele>200.373816</ele>
        <time>2025-10-23T14:02:46Z</time>
      </trkpt>
      <trkpt lat="43.58491" lon="3.13032">
        <ele>200.272863</ele>
        <time>2025-10-23T14:02:47Z</time>
      </trkpt>
      <trkpt lat="43.58494" lon="3.13029">
        <ele>200.17191</ele>
        <time>2025-10-23T14:02:48Z</time>
      </trkpt>
      <trkpt lat="43.58498" lon="3.13025">
        <ele>200.072829</ele>
        <time>2025-10-23T14:02:49Z</time>
      </trkpt>
      <trkpt lat="43.58501" lon="3.13022">
        <ele>199.976697</ele>
        <time>2025-10-23T14:02:50Z</time>
      </trkpt>
      <trkpt lat="43.58504" lon="3.13019">
        <ele>199.887085</ele>
        <time>2025-10-23T14:02:51Z</time>
      </trkpt>
      <trkpt lat="43.58507" lon="3.13015">
        <ele>199.796537</ele>
        <time>2025-10-23T14:02:52Z</time>
      </trkpt>
      <trkpt lat="43.5851" lon="3.13011">
        <ele>199.705988</ele>
        <time>2025-10-23T14:02:53Z</time>
      </trkpt>
      <trkpt lat="43.58513" lon="3.13007">
        <ele>199.61022</ele>
        <time>2025-10-23T14:02:54Z</time>
      </trkpt>
      <trkpt lat="43.58516" lon="3.13003">
        <ele>199.511601</ele>
        <time>2025-10-23T14:02:55Z</time>
      </trkpt>
      <trkpt lat="43.58519" lon="3.12999">
        <ele>199.41218</ele>
        <time>2025-10-23T14:02:56Z</time>
      </trkpt>
      <trkpt lat="43.58521" lon="3.12995">
        <ele>199.312759</ele>
        <time>2025-10-23T14:02:57Z</time>
      </trkpt>
      <trkpt lat="43.58524" lon="3.1299">
        <ele>199.209564</ele>
        <time>2025-10-23T14:02:58Z</time>
      </trkpt>
      <trkpt lat="43.58527" lon="3.12985">
        <ele>199.106369</ele>
        <time>2025-10-23T14:02:59Z</time>
      </trkpt>
      <trkpt lat="43.5853" lon="3.12981">
        <ele>199.009397</ele>
        <time>2025-10-23T14:03:00Z</time>
      </trkpt>
      <trkpt lat="43.58533" lon="3.12977">
        <ele>198.912426</ele>
        <time>2025-10-23T14:03:01Z</time>
      </trkpt>
      <trkpt lat="43.58535" lon="3.12973">
        <ele>198.820566</ele>
        <time>2025-10-23T14:03:02Z</time>
      </trkpt>
      <trkpt lat="43.58538" lon="3.12969">
        <ele>198.729274</ele>
        <time>2025-10-23T14:03:03Z</time>
      </trkpt>
      <trkpt lat="43.58541" lon="3.12965">
        <ele>198.63449</ele>
        <time>2025-10-23T14:03:04Z</time>
      </trkpt>
      <trkpt lat="43.58544" lon="3.1296">
        <ele>198.534104</ele>
        <time>2025-10-23T14:03:05Z</time>
      </trkpt>
      <trkpt lat="43.58546" lon="3.12956">
        <ele>198.432179</ele>
        <time>2025-10-23T14:03:06Z</time>
      </trkpt>
      <trkpt lat="43.58549" lon="3.12951">
        <ele>198.331793</ele>
        <time>2025-10-23T14:03:07Z</time>
      </trkpt>
      <trkpt lat="43.58552" lon="3.12946">
        <ele>198.226022</ele>
        <time>2025-10-23T14:03:08Z</time>
      </trkpt>
      <trkpt lat="43.58555" lon="3.12942">
        <ele>198.121279</ele>
        <time>2025-10-23T14:03:09Z</time>
      </trkpt>
      <trkpt lat="43.58558" lon="3.12937">
        <ele>198.016536</ele>
        <time>2025-10-23T14:03:10Z</time>
      </trkpt>
      <trkpt lat="43.58561" lon="3.12933">
        <ele>197.908971</ele>
        <time>2025-10-23T14:03:11Z</time>
      </trkpt>
      <trkpt lat="43.58564" lon="3.12928">
        <ele>197.830319</ele>
        <time>2025-10-23T14:03:12Z</time>
      </trkpt>
      <trkpt lat="43.58568" lon="3.12923">
        <ele>197.756918</ele>
        <time>2025-10-23T14:03:13Z</time>
      </trkpt>
      <trkpt lat="43.58571" lon="3.12918">
        <ele>197.680782</ele>
        <time>2025-10-23T14:03:14Z</time>
      </trkpt>
      <trkpt lat="43.58574" lon="3.12914">
        <ele>197.605195</ele>
        <time>2025-10-23T14:03:15Z</time>
      </trkpt>
      <trkpt lat="43.58577" lon="3.12909">
        <ele>197.531163</ele>
        <time>2025-10-23T14:03:16Z</time>
      </trkpt>
      <trkpt lat="43.5858" lon="3.12904">
        <ele>197.456402</ele>
        <time>2025-10-23T14:03:17Z</time>
      </trkpt>
      <trkpt lat="43.58583" lon="3.12898">
        <ele>197.380818</ele>
        <time>2025-10-23T14:03:18Z</time>
      </trkpt>
      <trkpt lat="43.58586" lon="3.12893">
        <ele>197.305248</ele>
        <time>2025-10-23T14:03:19Z</time>
      </trkpt>
      <trkpt lat="43.58589" lon="3.12887">
        <ele>197.230512</ele>
        <time>2025-10-23T14:03:20Z</time>
      </trkpt>
      <trkpt lat="43.58591" lon="3.12882">
        <ele>197.153861</ele>
        <time>2025-10-23T14:03:21Z</time>
      </trkpt>
      <trkpt lat="43.58594" lon="3.12875">
        <ele>197.073114</ele>
        <time>2025-10-23T14:03:22Z</time>
      </trkpt>
      <trkpt lat="43.58596" lon="3.12869">
        <ele>196.993848</ele>
        <time>2025-10-23T14:03:23Z</time>
      </trkpt>
      <trkpt lat="43.58598" lon="3.12863">
        <ele>196.915964</ele>
        <time>2025-10-23T14:03:24Z</time>
      </trkpt>
      <trkpt lat="43.58601" lon="3.12857">
        <ele>196.833955</ele>
        <time>2025-10-23T14:03:25Z</time>
      </trkpt>
      <trkpt lat="43.58604" lon="3.12851">
        <ele>196.746637</ele>
        <time>2025-10-23T14:03:26Z</time>
      </trkpt>
      <trkpt lat="43.58608" lon="3.12846">
        <ele>196.661459</ele>
        <time>2025-10-23T14:03:27Z</time>
      </trkpt>
      <trkpt lat="43.58611" lon="3.1284">
        <ele>196.582196</ele>
        <time>2025-10-23T14:03:28Z</time>
      </trkpt>
      <trkpt lat="43.58613" lon="3.12833">
        <ele>196.501752</ele>
        <time>2025-10-23T14:03:29Z</time>
      </trkpt>
      <trkpt lat="43.58613" lon="3.12827">
        <ele>196.42777</ele>
        <time>2025-10-23T14:03:30Z</time>
      </trkpt>
      <trkpt lat="43.58613" lon="3.1282">
        <ele>196.353738</ele>
        <time>2025-10-23T14:03:31Z</time>
      </trkpt>
      <trkpt lat="43.58613" lon="3.12814">
        <ele>196.280843</ele>
        <time>2025-10-23T14:03:32Z</time>
      </trkpt>
      <trkpt lat="43.58614" lon="3.12807">
        <ele>196.205539</ele>
        <time>2025-10-23T14:03:33Z</time>
      </trkpt>
      <trkpt lat="43.58614" lon="3.12801">
        <ele>196.130419</ele>
        <time>2025-10-23T14:03:34Z</time>
      </trkpt>
      <trkpt lat="43.58614" lon="3.12794">
        <ele>196.05304</ele>
        <time>2025-10-23T14:03:35Z</time>
      </trkpt>
      <trkpt lat="43.58614" lon="3.12787">
        <ele>195.972186</ele>
        <time>2025-10-23T14:03:36Z</time>
      </trkpt>
      <trkpt lat="43.58613" lon="3.1278">
        <ele>195.888585</ele>
        <time>2025-10-23T14:03:37Z</time>
      </trkpt>
      <trkpt lat="43.58613" lon="3.12772">
        <ele>195.800739</ele>
        <time>2025-10-23T14:03:38Z</time>
      </trkpt>
      <trkpt lat="43.58613" lon="3.12764">
        <ele>195.706278</ele>
        <time>2025-10-23T14:03:39Z</time>
      </trkpt>
      <trkpt lat="43.58612" lon="3.12756">
        <ele>195.620013</ele>
        <time>2025-10-23T14:03:40Z</time>
      </trkpt>
      <trkpt lat="43.58611" lon="3.12748">
        <ele>195.530577</ele>
        <time>2025-10-23T14:03:41Z</time>
      </trkpt>
      <trkpt lat="43.5861" lon="3.12741">
        <ele>195.445191</ele>
        <time>2025-10-23T14:03:42Z</time>
      </trkpt>
      <trkpt lat="43.5861" lon="3.12733">
        <ele>195.358683</ele>
        <time>2025-10-23T14:03:43Z</time>
      </trkpt>
      <trkpt lat="43.58609" lon="3.12726">
        <ele>195.274111</ele>
        <time>2025-10-23T14:03:44Z</time>
      </trkpt>
      <trkpt lat="43.58609" lon="3.12719">
        <ele>195.19407</ele>
        <time>2025-10-23T14:03:45Z</time>
      </trkpt>
      <trkpt lat="43.58608" lon="3.12712">
        <ele>195.111181</ele>
        <time>2025-10-23T14:03:46Z</time>
      </trkpt>
      <trkpt lat="43.58607" lon="3.12705">
        <ele>194.999562</ele>
        <time>2025-10-23T14:03:47Z</time>
      </trkpt>
      <trkpt lat="43.58606" lon="3.12698">
        <ele>194.860663</ele>
        <time>2025-10-23T14:03:48Z</time>
      </trkpt>
      <trkpt lat="43.58606" lon="3.12691">
        <ele>194.710295</ele>
        <time>2025-10-23T14:03:49Z</time>
      </trkpt>
      <trkpt lat="43.58605" lon="3.12684">
        <ele>194.565212</ele>
        <time>2025-10-23T14:03:50Z</time>
      </trkpt>
      <trkpt lat="43.58604" lon="3.12678">
        <ele>194.422788</ele>
        <time>2025-10-23T14:03:51Z</time>
      </trkpt>
      <trkpt lat="43.58603" lon="3.1267">
        <ele>194.270971</ele>
        <time>2025-10-23T14:03:52Z</time>
      </trkpt>
      <trkpt lat="43.58601" lon="3.12664">
        <ele>194.124068</ele>
        <time>2025-10-23T14:03:53Z</time>
      </trkpt>
      <trkpt lat="43.58599" lon="3.12658">
        <ele>193.988837</ele>
        <time>2025-10-23T14:03:54Z</time>
      </trkpt>
      <trkpt lat="43.58597" lon="3.12652">
        <ele>193.849748</ele>
        <time>2025-10-23T14:03:55Z</time>
      </trkpt>
      <trkpt lat="43.58596" lon="3.12645">
        <ele>193.713633</ele>
        <time>2025-10-23T14:03:56Z</time>
      </trkpt>
      <trkpt lat="43.58595" lon="3.12638">
        <ele>193.565868</ele>
        <time>2025-10-23T14:03:57Z</time>
      </trkpt>
      <trkpt lat="43.58594" lon="3.12631">
        <ele>193.402812</ele>
        <time>2025-10-23T14:03:58Z</time>
      </trkpt>
      <trkpt lat="43.58594" lon="3.12623">
        <ele>193.238207</ele>
        <time>2025-10-23T14:03:59Z</time>
      </trkpt>
      <trkpt lat="43.58594" lon="3.12615">
        <ele>193.08617</ele>
        <time>2025-10-23T14:04:00Z</time>
      </trkpt>
      <trkpt lat="43.58595" lon="3.12608">
        <ele>192.937628</ele>
        <time>2025-10-23T14:04:01Z</time>
      </trkpt>
      <trkpt lat="43.58595" lon="3.12602">
        <ele>192.809795</ele>
        <time>2025-10-23T14:04:02Z</time>
      </trkpt>
      <trkpt lat="43.58595" lon="3.12598">
        <ele>192.717767</ele>
        <time>2025-10-23T14:04:03Z</time>
      </trkpt>
      <trkpt lat="43.58595" lon="3.12595">
        <ele>192.658828</ele>
        <time>2025-10-23T14:04:04Z</time>
      </trkpt>
      <trkpt lat="43.58595" lon="3.12594">
        <ele>192.63</ele>
        <time>2025-10-23T14:04:05Z</time>
      </trkpt>
      <trkpt lat="43.58594" lon="3.12593">
        <ele>192.615801</ele>
        <time>2025-10-23T14:04:06Z</time>
      </trkpt>
      <trkpt lat="43.58594" lon="3.12593">
        <ele>192.600836</ele>
        <time>2025-10-23T14:04:07Z</time>
      </trkpt>
      <trkpt lat="43.58594" lon="3.12593">
        <ele>192.595776</ele>
        <time>2025-10-23T14:04:08Z</time>
      </trkpt>
      <trkpt lat="43.58595" lon="3.12555">
        <ele>191.78475</ele>
        <time>2025-10-23T14:04:50Z</time>
      </trkpt>
      <trkpt lat="43.58596" lon="3.12549">
        <ele>191.667131</ele>
        <time>2025-10-23T14:04:51Z</time>
      </trkpt>
      <trkpt lat="43.58598" lon="3.12544">
        <ele>191.549658</ele>
        <time>2025-10-23T14:04:52Z</time>
      </trkpt>
      <trkpt lat="43.58599" lon="3.12539">
        <ele>191.432754</ele>
        <time>2025-10-23T14:04:53Z</time>
      </trkpt>
      <trkpt lat="43.58601" lon="3.12533">
        <ele>191.311264</ele>
        <time>2025-10-23T14:04:54Z</time>
      </trkpt>
      <trkpt lat="43.58602" lon="3.12528">
        <ele>191.19744</ele>
        <time>2025-10-23T14:04:55Z</time>
      </trkpt>
      <trkpt lat="43.58604" lon="3.12523">
        <ele>191.075548</ele>
        <time>2025-10-23T14:04:56Z</time>
      </trkpt>
      <trkpt lat="43.58606" lon="3.12518">
        <ele>190.961143</ele>
        <time>2025-10-23T14:04:57Z</time>
      </trkpt>
      <trkpt lat="43.58608" lon="3.12513">
        <ele>190.848008</ele>
        <time>2025-10-23T14:04:58Z</time>
      </trkpt>
      <trkpt lat="43.58609" lon="3.12508">
        <ele>190.739151</ele>
        <time>2025-10-23T14:04:59Z</time>
      </trkpt>
      <trkpt lat="43.58611" lon="3.12504">
        <ele>190.630689</ele>
        <time>2025-10-23T14:05:00Z</time>
      </trkpt>
      <trkpt lat="43.58613" lon="3.12499">
        <ele>190.515698</ele>
        <time>2025-10-23T14:05:01Z</time>
      </trkpt>
      <trkpt lat="43.58615" lon="3.12495">
        <ele>190.40423</ele>
        <time>2025-10-23T14:05:02Z</time>
      </trkpt>
      <trkpt lat="43.58617" lon="3.1249">
        <ele>190.294292</ele>
        <time>2025-10-23T14:05:03Z</time>
      </trkpt>
      <trkpt lat="43.58619" lon="3.12486">
        <ele>190.193082</ele>
        <time>2025-10-23T14:05:04Z</time>
      </trkpt>
      <trkpt lat="43.58621" lon="3.12482">
        <ele>190.093477</ele>
        <time>2025-10-23T14:05:05Z</time>
      </trkpt>
      <trkpt lat="43.58623" lon="3.12478">
        <ele>189.978694</ele>
        <time>2025-10-23T14:05:06Z</time>
      </trkpt>
      <trkpt lat="43.58626" lon="3.12473">
        <ele>189.87588</ele>
        <time>2025-10-23T14:05:07Z</time>
      </trkpt>
      <trkpt lat="43.58628" lon="3.12469">
        <ele>189.817621</ele>
        <time>2025-10-23T14:05:08Z</time>
      </trkpt>
      <trkpt lat="43.58631" lon="3.12465">
        <ele>189.755652</ele>
        <time>2025-10-23T14:05:09Z</time>
      </trkpt>
      <trkpt lat="43.58633" lon="3.1246">
        <ele>189.693581</ele>
        <time>2025-10-23T14:05:10Z</time>
      </trkpt>
      <trkpt lat="43.58635" lon="3.12456">
        <ele>189.632473</ele>
        <time>2025-10-23T14:05:11Z</time>
      </trkpt>
      <trkpt lat="43.58637" lon="3.12451">
        <ele>189.568268</ele>
        <time>2025-10-23T14:05:12Z</time>
      </trkpt>
      <trkpt lat="43.58639" lon="3.12446">
        <ele>189.499795</ele>
        <time>2025-10-23T14:05:13Z</time>
      </trkpt>
      <trkpt lat="43.58642" lon="3.12441">
        <ele>189.426161</ele>
        <time>2025-10-23T14:05:14Z</time>
      </trkpt>
      <trkpt lat="43.58645" lon="3.12436">
        <ele>189.354014</ele>
        <time>2025-10-23T14:05:15Z</time>
      </trkpt>
      <trkpt lat="43.58648" lon="3.12432">
        <ele>189.290073</ele>
        <time>2025-10-23T14:05:16Z</time>
      </trkpt>
      <trkpt lat="43.58651" lon="3.12427">
        <ele>189.21535</ele>
        <time>2025-10-23T14:05:17Z</time>
      </trkpt>
      <trkpt lat="43.58654" lon="3.12422">
        <ele>189.14088</ele>
        <time>2025-10-23T14:05:18Z</time>
      </trkpt>
      <trkpt lat="43.58657" lon="3.12417">
        <ele>189.067468</ele>
        <time>2025-10-23T14:05:19Z</time>
      </trkpt>
      <trkpt lat="43.58661" lon="3.12413">
        <ele>188.992093</ele>
        <time>2025-10-23T14:05:20Z</time>
      </trkpt>
      <trkpt lat="43.58663" lon="3.12409">
        <ele>188.929023</ele>
        <time>2025-10-23T14:05:21Z</time>
      </trkpt>
      <trkpt lat="43.58666" lon="3.12405">
        <ele>188.873363</ele>
        <time>2025-10-23T14:05:22Z</time>
      </trkpt>
      <trkpt lat="43.58668" lon="3.12402">
        <ele>188.82407</ele>
        <time>2025-10-23T14:05:23Z</time>
      </trkpt>
      <trkpt lat="43.5867" lon="3.12399">
        <ele>188.775337</ele>
        <time>2025-10-23T14:05:24Z</time>
      </trkpt>
      <trkpt lat="43.58672" lon="3.12396">
        <ele>188.727088</ele>
        <time>2025-10-23T14:05:25Z</time>
      </trkpt>
      <trkpt lat="43.58674" lon="3.12393">
        <ele>188.679463</ele>
        <time>2025-10-23T14:05:26Z</time>
      </trkpt>
      <trkpt lat="43.58677" lon="3.1239">
        <ele>188.629921</ele>
        <time>2025-10-23T14:05:27Z</time>
      </trkpt>
      <trkpt lat="43.58679" lon="3.12387">
        <ele>188.580628</ele>
        <time>2025-10-23T14:05:28Z</time>
      </trkpt>
      <trkpt lat="43.58681" lon="3.12384">
        <ele>188.527226</ele>
        <time>2025-10-23T14:05:29Z</time>
      </trkpt>
      <trkpt lat="43.58684" lon="3.1238">
        <ele>188.473497</ele>
        <time>2025-10-23T14:05:30Z</time>
      </trkpt>
      <trkpt lat="43.58686" lon="3.12376">
        <ele>188.412318</ele>
        <time>2025-10-23T14:05:31Z</time>
      </trkpt>
      <trkpt lat="43.58689" lon="3.12373">
        <ele>188.355386</ele>
        <time>2025-10-23T14:05:32Z</time>
      </trkpt>
      <trkpt lat="43.58691" lon="3.12369">
        <ele>188.302003</ele>
        <time>2025-10-23T14:05:33Z</time>
      </trkpt>
      <trkpt lat="43.58694" lon="3.12366">
        <ele>188.242847</ele>
        <time>2025-10-23T14:05:34Z</time>
      </trkpt>
      <trkpt lat="43.58696" lon="3.12363">
        <ele>188.191385</ele>
        <time>2025-10-23T14:05:35Z</time>
      </trkpt>
      <trkpt lat="43.58699" lon="3.1236">
        <ele>188.144575</ele>
        <time>2025-10-23T14:05:36Z</time>
      </trkpt>
      <trkpt lat="43.58701" lon="3.12357">
        <ele>188.096949</ele>
        <time>2025-10-23T14:05:37Z</time>
      </trkpt>
      <trkpt lat="43.58703" lon="3.12354">
        <ele>188.045925</ele>
        <time>2025-10-23T14:05:38Z</time>
      </trkpt>
      <trkpt lat="43.58705" lon="3.12351">
        <ele>187.996405</ele>
        <time>2025-10-23T14:05:39Z</time>
      </trkpt>
      <trkpt lat="43.58708" lon="3.12349">
        <ele>187.950014</ele>
        <time>2025-10-23T14:05:40Z</time>
      </trkpt>
      <trkpt lat="43.5871" lon="3.12346">
        <ele>187.897811</ele>
        <time>2025-10-23T14:05:41Z</time>
      </trkpt>
      <trkpt lat="43.58713" lon="3.12342">
        <ele>187.844083</ele>
        <time>2025-10-23T14:05:42Z</time>
      </trkpt>
      <trkpt lat="43.58715" lon="3.12339">
        <ele>187.787151</ele>
        <time>2025-10-23T14:05:43Z</time>
      </trkpt>
      <trkpt lat="43.58718" lon="3.12335">
        <ele>187.727196</ele>
        <time>2025-10-23T14:05:44Z</time>
      </trkpt>
      <trkpt lat="43.58721" lon="3.12331">
        <ele>187.664184</ele>
        <time>2025-10-23T14:05:45Z</time>
      </trkpt>
      <trkpt lat="43.58723" lon="3.12327">
        <ele>187.600929</ele>
        <time>2025-10-23T14:05:46Z</time>
      </trkpt>
      <trkpt lat="43.58726" lon="3.12324">
        <ele>187.541401</ele>
        <time>2025-10-23T14:05:47Z</time>
      </trkpt>
      <trkpt lat="43.58729" lon="3.12321">
        <ele>187.482386</ele>
        <time>2025-10-23T14:05:48Z</time>
      </trkpt>
      <trkpt lat="43.58732" lon="3.12318">
        <ele>187.42206</ele>
        <time>2025-10-23T14:05:49Z</time>
      </trkpt>
      <trkpt lat="43.58736" lon="3.12315">
        <ele>187.362956</ele>
        <time>2025-10-23T14:05:50Z</time>
      </trkpt>
      <trkpt lat="43.58739" lon="3.12312">
        <ele>187.304438</ele>
        <time>2025-10-23T14:05:51Z</time>
      </trkpt>
      <trkpt lat="43.58742" lon="3.1231">
        <ele>187.247858</ele>
        <time>2025-10-23T14:05:52Z</time>
      </trkpt>
      <trkpt lat="43.58744" lon="3.12308">
        <ele>187.203077</ele>
        <time>2025-10-23T14:05:53Z</time>
      </trkpt>
      <trkpt lat="43.58746" lon="3.12306">
        <ele>187.175833</ele>
        <time>2025-10-23T14:05:54Z</time>
      </trkpt>
      <trkpt lat="43.58746" lon="3.12306">
        <ele>187.163894</ele>
        <time>2025-10-23T14:05:55Z</time>
      </trkpt>
      <trkpt lat="43.58747" lon="3.12306">
        <ele>187.155932</ele>
        <time>2025-10-23T14:05:56Z</time>
      </trkpt>
      <trkpt lat="43.58747" lon="3.12306">
        <ele>187.15278</ele>
        <time>2025-10-23T14:05:57Z</time>
      </trkpt>
      <trkpt lat="43.58747" lon="3.12306">
        <ele>187.150497</ele>
        <time>2025-10-23T14:05:58Z</time>
      </trkpt>
      <trkpt lat="43.58746" lon="3.12306">
        <ele>187.145633</ele>
        <time>2025-10-23T14:05:59Z</time>
      </trkpt>
      <trkpt lat="43.58746" lon="3.12306">
        <ele>187.141741</ele>
        <time>2025-10-23T14:06:00Z</time>
      </trkpt>
      <trkpt lat="43.58746" lon="3.12305">
        <ele>187.13582</ele>
        <time>2025-10-23T14:06:01Z</time>
      </trkpt>
      <trkpt lat="43.58746" lon="3.12305">
        <ele>187.133045</ele>
        <time>2025-10-23T14:06:02Z</time>
      </trkpt>
      <trkpt lat="43.58746" lon="3.12305">
        <ele>187.130271</ele>
        <time>2025-10-23T14:06:03Z</time>
      </trkpt>
      <trkpt lat="43.58746" lon="3.12305">
        <ele>187.127497</ele>
        <time>2025-10-23T14:06:04Z</time>
      </trkpt>
      <trkpt lat="43.58746" lon="3.12305">
        <ele>187.125921</ele>
        <time>2025-10-23T14:06:05Z</time>
      </trkpt>
      <trkpt lat="43.58747" lon="3.12305">
        <ele>187.118747</ele>
        <time>2025-10-23T14:06:06Z</time>
      </trkpt>
      <trkpt lat="43.58747" lon="3.12304">
        <ele>187.110424</ele>
        <time>2025-10-23T14:06:07Z</time>
      </trkpt>
      <trkpt lat="43.58747" lon="3.12303">
        <ele>187.10192</ele>
        <time>2025-10-23T14:06:08Z</time>
      </trkpt>
      <trkpt lat="43.58748" lon="3.12303">
        <ele>187.094509</ele>
        <time>2025-10-23T14:06:09Z</time>
      </trkpt>
      <trkpt lat="43.58748" lon="3.12303">
        <ele>187.087335</ele>
        <time>2025-10-23T14:06:10Z</time>
      </trkpt>
      <trkpt lat="43.58748" lon="3.12302">
        <ele>187.08268</ele>
        <time>2025-10-23T14:06:11Z</time>
      </trkpt>
      <trkpt lat="43.58748" lon="3.12302">
        <ele>187.077816</ele>
        <time>2025-10-23T14:06:12Z</time>
      </trkpt>
      <trkpt lat="43.58749" lon="3.12302">
        <ele>187.074664</ele>
        <time>2025-10-23T14:06:13Z</time>
      </trkpt>
      <trkpt lat="43.58748" lon="3.12303">
        <ele>187.06749</ele>
        <time>2025-10-23T14:06:14Z</time>
      </trkpt>
      <trkpt lat="43.58748" lon="3.12303">
        <ele>187.066435</ele>
        <time>2025-10-23T14:06:15Z</time>
      </trkpt>
      <trkpt lat="43.58747" lon="3.12303">
        <ele>187.0717</ele>
        <time>2025-10-23T14:06:16Z</time>
      </trkpt>
      <trkpt lat="43.58747" lon="3.12303">
        <ele>187.0717</ele>
        <time>2025-10-23T14:06:17Z</time>
      </trkpt>
      <trkpt lat="43.58747" lon="3.12303">
        <ele>187.072742</ele>
        <time>2025-10-23T14:06:18Z</time>
      </trkpt>
      <trkpt lat="43.58747" lon="3.12303">
        <ele>187.072742</ele>
        <time>2025-10-23T14:06:19Z</time>
      </trkpt>
      <trkpt lat="43.58747" lon="3.12303">
        <ele>187.072742</ele>
        <time>2025-10-23T14:06:20Z</time>
      </trkpt>
      <trkpt lat="43.58747" lon="3.12303">
        <ele>187.073784</ele>
        <time>2025-10-23T14:06:21Z</time>
      </trkpt>
      <trkpt lat="43.58747" lon="3.12303">
        <ele>187.074539</ele>
        <time>2025-10-23T14:06:22Z</time>
      </trkpt>
      <trkpt lat="43.58747" lon="3.12303">
        <ele>187.075825</ele>
        <time>2025-10-23T14:06:23Z</time>
      </trkpt>
      <trkpt lat="43.58747" lon="3.12303">
        <ele>187.07658</ele>
        <time>2025-10-23T14:06:24Z</time>
      </trkpt>
      <trkpt lat="43.58747" lon="3.12303">
        <ele>187.077622</ele>
        <time>2025-10-23T14:06:25Z</time>
      </trkpt>
      <trkpt lat="43.58747" lon="3.12303">
        <ele>187.077622</ele>
        <time>2025-10-23T14:06:26Z</time>
      </trkpt>
      <trkpt lat="43.58747" lon="3.12303">
        <ele>187.078664</ele>
        <time>2025-10-23T14:06:27Z</time>
      </trkpt>
      <trkpt lat="43.58745" lon="3.12303">
        <ele>187.095406</ele>
        <time>2025-10-23T14:06:28Z</time>
      </trkpt>
      <trkpt lat="43.58744" lon="3.12304">
        <ele>187.103044</ele>
        <time>2025-10-23T14:06:29Z</time>
      </trkpt>
      <trkpt lat="43.58744" lon="3.12304">
        <ele>187.109199</ele>
        <time>2025-10-23T14:06:30Z</time>
      </trkpt>
      <trkpt lat="43.58743" lon="3.12305">
        <ele>187.115354</ele>
        <time>2025-10-23T14:06:31Z</time>
      </trkpt>
      <trkpt lat="43.58743" lon="3.12305">
        <ele>187.120097</ele>
        <time>2025-10-23T14:06:32Z</time>
      </trkpt>
      <trkpt lat="43.58743" lon="3.12305">
        <ele>187.124266</ele>
        <time>2025-10-23T14:06:33Z</time>
      </trkpt>
      <trkpt lat="43.58743" lon="3.12305">
        <ele>187.125552</ele>
        <time>2025-10-23T14:06:34Z</time>
      </trkpt>
      <trkpt lat="43.58743" lon="3.12305">
        <ele>187.131574</ele>
        <time>2025-10-23T14:06:35Z</time>
      </trkpt>
      <trkpt lat="43.58743" lon="3.12304">
        <ele>187.133791</ele>
        <time>2025-10-23T14:06:36Z</time>
      </trkpt>
      <trkpt lat="43.58745" lon="3.12304">
        <ele>187.146386</ele>
        <time>2025-10-23T14:06:37Z</time>
      </trkpt>
      <trkpt lat="43.58746" lon="3.12304">
        <ele>187.164166</ele>
        <time>2025-10-23T14:06:38Z</time>
      </trkpt>
      <trkpt lat="43.58748" lon="3.12304">
        <ele>187.178833</ele>
        <time>2025-10-23T14:06:39Z</time>
      </trkpt>
      <trkpt lat="43.5875" lon="3.12304">
        <ele>187.198989</ele>
        <time>2025-10-23T14:06:40Z</time>
      </trkpt>
      <trkpt lat="43.58752" lon="3.12304">
        <ele>187.219299</ele>
        <time>2025-10-23T14:06:41Z</time>
      </trkpt>
      <trkpt lat="43.58753" lon="3.12302">
        <ele>187.239887</ele>
        <time>2025-10-23T14:06:42Z</time>
      </trkpt>
      <trkpt lat="43.58754" lon="3.123">
        <ele>187.260286</ele>
        <time>2025-10-23T14:06:43Z</time>
      </trkpt>
      <trkpt lat="43.58755" lon="3.12297">
        <ele>187.281603</ele>
        <time>2025-10-23T14:06:44Z</time>
      </trkpt>
      <trkpt lat="43.58755" lon="3.12295">
        <ele>187.302232</ele>
        <time>2025-10-23T14:06:45Z</time>
      </trkpt>
      <trkpt lat="43.58756" lon="3.12293">
        <ele>187.319368</ele>
        <time>2025-10-23T14:06:46Z</time>
      </trkpt>
      <trkpt lat="43.58758" lon="3.12291">
        <ele>187.338307</ele>
        <time>2025-10-23T14:06:47Z</time>
      </trkpt>
      <trkpt lat="43.5876" lon="3.12289">
        <ele>187.363301</ele>
        <time>2025-10-23T14:06:48Z</time>
      </trkpt>
      <trkpt lat="43.58763" lon="3.12288">
        <ele>187.394546</ele>
        <time>2025-10-23T14:06:49Z</time>
      </trkpt>
      <trkpt lat="43.58765" lon="3.12285">
        <ele>187.429709</ele>
        <time>2025-10-23T14:06:50Z</time>
      </trkpt>
      <trkpt lat="43.58768" lon="3.12281">
        <ele>187.467087</ele>
        <time>2025-10-23T14:06:51Z</time>
      </trkpt>
      <trkpt lat="43.5877" lon="3.12276">
        <ele>187.508884</ele>
        <time>2025-10-23T14:06:52Z</time>
      </trkpt>
      <trkpt lat="43.58772" lon="3.12272">
        <ele>187.550491</ele>
        <time>2025-10-23T14:06:53Z</time>
      </trkpt>
      <trkpt lat="43.58774" lon="3.12267">
        <ele>187.593297</ele>
        <time>2025-10-23T14:06:54Z</time>
      </trkpt>
      <trkpt lat="43.58776" lon="3.12262">
        <ele>187.637932</ele>
        <time>2025-10-23T14:06:55Z</time>
      </trkpt>
      <trkpt lat="43.58778" lon="3.12257">
        <ele>187.681683</ele>
        <time>2025-10-23T14:06:56Z</time>
      </trkpt>
      <trkpt lat="43.58779" lon="3.12251">
        <ele>187.728545</ele>
        <time>2025-10-23T14:06:57Z</time>
      </trkpt>
      <trkpt lat="43.5878" lon="3.12245">
        <ele>187.774693</ele>
        <time>2025-10-23T14:06:58Z</time>
      </trkpt>
      <trkpt lat="43.58779" lon="3.12239">
        <ele>187.821676</ele>
        <time>2025-10-23T14:06:59Z</time>
      </trkpt>
      <trkpt lat="43.58779" lon="3.12232">
        <ele>187.869637</ele>
        <time>2025-10-23T14:07:00Z</time>
      </trkpt>
      <trkpt lat="43.58777" lon="3.12226">
        <ele>187.916185</ele>
        <time>2025-10-23T14:07:01Z</time>
      </trkpt>
      <trkpt lat="43.58776" lon="3.12221">
        <ele>187.962015</ele>
        <time>2025-10-23T14:07:02Z</time>
      </trkpt>
      <trkpt lat="43.58773" lon="3.12216">
        <ele>188.006722</ele>
        <time>2025-10-23T14:07:03Z</time>
      </trkpt>
      <trkpt lat="43.5877" lon="3.12212">
        <ele>188.049977</ele>
        <time>2025-10-23T14:07:04Z</time>
      </trkpt>
      <trkpt lat="43.58767" lon="3.12208">
        <ele>188.095429</ele>
        <time>2025-10-23T14:07:05Z</time>
      </trkpt>
      <trkpt lat="43.58763" lon="3.12206">
        <ele>188.142514</ele>
        <time>2025-10-23T14:07:06Z</time>
      </trkpt>
      <trkpt lat="43.58758" lon="3.12205">
        <ele>188.192321</ele>
        <time>2025-10-23T14:07:07Z</time>
      </trkpt>
      <trkpt lat="43.58753" lon="3.12204">
        <ele>188.242392</ele>
        <time>2025-10-23T14:07:08Z</time>
      </trkpt>
      <trkpt lat="43.58748" lon="3.12205">
        <ele>188.293504</ele>
        <time>2025-10-23T14:07:09Z</time>
      </trkpt>
      <trkpt lat="43.58744" lon="3.12206">
        <ele>188.342121</ele>
        <time>2025-10-23T14:07:10Z</time>
      </trkpt>
      <trkpt lat="43.5874" lon="3.12209">
        <ele>188.385666</ele>
        <time>2025-10-23T14:07:11Z</time>
      </trkpt>
      <trkpt lat="43.58736" lon="3.12212">
        <ele>188.429635</ele>
        <time>2025-10-23T14:07:12Z</time>
      </trkpt>
      <trkpt lat="43.58733" lon="3.12215">
        <ele>188.472516</ele>
        <time>2025-10-23T14:07:13Z</time>
      </trkpt>
      <trkpt lat="43.58729" lon="3.12219">
        <ele>188.519284</ele>
        <time>2025-10-23T14:07:14Z</time>
      </trkpt>
      <trkpt lat="43.58726" lon="3.12222">
        <ele>188.566154</ele>
        <time>2025-10-23T14:07:15Z</time>
      </trkpt>
      <trkpt lat="43.58722" lon="3.12226">
        <ele>188.615042</ele>
        <time>2025-10-23T14:07:16Z</time>
      </trkpt>
      <trkpt lat="43.58717" lon="3.12228">
        <ele>188.664305</ele>
        <time>2025-10-23T14:07:17Z</time>
      </trkpt>
      <trkpt lat="43.58713" lon="3.12228">
        <ele>188.713376</ele>
        <time>2025-10-23T14:07:18Z</time>
      </trkpt>
      <trkpt lat="43.58709" lon="3.12225">
        <ele>188.759536</ele>
        <time>2025-10-23T14:07:19Z</time>
      </trkpt>
      <trkpt lat="43.58706" lon="3.1222">
        <ele>188.80547</ele>
        <time>2025-10-23T14:07:20Z</time>
      </trkpt>
      <trkpt lat="43.58704" lon="3.12214">
        <ele>188.852597</ele>
        <time>2025-10-23T14:07:21Z</time>
      </trkpt>
      <trkpt lat="43.58703" lon="3.12209">
        <ele>188.897599</ele>
        <time>2025-10-23T14:07:22Z</time>
      </trkpt>
      <trkpt lat="43.58703" lon="3.12203">
        <ele>188.926069</ele>
        <time>2025-10-23T14:07:23Z</time>
      </trkpt>
      <trkpt lat="43.58704" lon="3.12197">
        <ele>188.85976</ele>
        <time>2025-10-23T14:07:24Z</time>
      </trkpt>
      <trkpt lat="43.58706" lon="3.12191">
        <ele>188.788054</ele>
        <time>2025-10-23T14:07:25Z</time>
      </trkpt>
      <trkpt lat="43.58708" lon="3.12186">
        <ele>188.715673</ele>
        <time>2025-10-23T14:07:26Z</time>
      </trkpt>
      <trkpt lat="43.5871" lon="3.1218">
        <ele>188.645863</ele>
        <time>2025-10-23T14:07:27Z</time>
      </trkpt>
      <trkpt lat="43.58712" lon="3.12174">
        <ele>188.5683</ele>
        <time>2025-10-23T14:07:28Z</time>
      </trkpt>
      <trkpt lat="43.58714" lon="3.12168">
        <ele>188.489046</ele>
        <time>2025-10-23T14:07:29Z</time>
      </trkpt>
      <trkpt lat="43.58716" lon="3.12161">
        <ele>188.408423</ele>
        <time>2025-10-23T14:07:30Z</time>
      </trkpt>
      <trkpt lat="43.58717" lon="3.12154">
        <ele>188.325839</ele>
        <time>2025-10-23T14:07:31Z</time>
      </trkpt>
      <trkpt lat="43.58718" lon="3.12147">
        <ele>188.238472</ele>
        <time>2025-10-23T14:07:32Z</time>
      </trkpt>
      <trkpt lat="43.58718" lon="3.12138">
        <ele>188.145851</ele>
        <time>2025-10-23T14:07:33Z</time>
      </trkpt>
      <trkpt lat="43.58718" lon="3.1213">
        <ele>188.050788</ele>
        <time>2025-10-23T14:07:34Z</time>
      </trkpt>
      <trkpt lat="43.58717" lon="3.12122">
        <ele>187.961389</ele>
        <time>2025-10-23T14:07:35Z</time>
      </trkpt>
      <trkpt lat="43.58715" lon="3.12115">
        <ele>187.873258</ele>
        <time>2025-10-23T14:07:36Z</time>
      </trkpt>
      <trkpt lat="43.58714" lon="3.12107">
        <ele>187.78364</ele>
        <time>2025-10-23T14:07:37Z</time>
      </trkpt>
      <trkpt lat="43.58713" lon="3.121">
        <ele>187.694747</ele>
        <time>2025-10-23T14:07:38Z</time>
      </trkpt>
      <trkpt lat="43.58712" lon="3.12092">
        <ele>187.607297</ele>
        <time>2025-10-23T14:07:39Z</time>
      </trkpt>
      <trkpt lat="43.5871" lon="3.12084">
        <ele>187.514715</ele>
        <time>2025-10-23T14:07:40Z</time>
      </trkpt>
      <trkpt lat="43.58709" lon="3.12076">
        <ele>187.420813</ele>
        <time>2025-10-23T14:07:41Z</time>
      </trkpt>
      <trkpt lat="43.58708" lon="3.12068">
        <ele>187.330288</ele>
        <time>2025-10-23T14:07:42Z</time>
      </trkpt>
      <trkpt lat="43.58707" lon="3.12061">
        <ele>187.242158</ele>
        <time>2025-10-23T14:07:43Z</time>
      </trkpt>
      <trkpt lat="43.58706" lon="3.12054">
        <ele>187.156248</ele>
        <time>2025-10-23T14:07:44Z</time>
      </trkpt>
      <trkpt lat="43.58705" lon="3.12047">
        <ele>187.072557</ele>
        <time>2025-10-23T14:07:45Z</time>
      </trkpt>
      <trkpt lat="43.58703" lon="3.12039">
        <ele>186.987346</ele>
        <time>2025-10-23T14:07:46Z</time>
      </trkpt>
      <trkpt lat="43.58703" lon="3.12032">
        <ele>186.904973</ele>
        <time>2025-10-23T14:07:47Z</time>
      </trkpt>
      <trkpt lat="43.58702" lon="3.12025">
        <ele>186.827099</ele>
        <time>2025-10-23T14:07:48Z</time>
      </trkpt>
      <trkpt lat="43.587" lon="3.12019">
        <ele>186.752655</ele>
        <time>2025-10-23T14:07:49Z</time>
      </trkpt>
      <trkpt lat="43.58699" lon="3.12013">
        <ele>186.685242</ele>
        <time>2025-10-23T14:07:50Z</time>
      </trkpt>
      <trkpt lat="43.58698" lon="3.12007">
        <ele>186.614511</ele>
        <time>2025-10-23T14:07:51Z</time>
      </trkpt>
      <trkpt lat="43.58697" lon="3.12001">
        <ele>186.542473</ele>
        <time>2025-10-23T14:07:52Z</time>
      </trkpt>
      <trkpt lat="43.58695" lon="3.11996">
        <ele>186.472027</ele>
        <time>2025-10-23T14:07:53Z</time>
      </trkpt>
      <trkpt lat="43.58694" lon="3.1199">
        <ele>186.398408</ele>
        <time>2025-10-23T14:07:54Z</time>
      </trkpt>
      <trkpt lat="43.58692" lon="3.11983">
        <ele>186.320419</ele>
        <time>2025-10-23T14:07:55Z</time>
      </trkpt>
      <trkpt lat="43.58689" lon="3.11977">
        <ele>186.241315</ele>
        <time>2025-10-23T14:07:56Z</time>
      </trkpt>
      <trkpt lat="43.58686" lon="3.11972">
        <ele>186.162607</ele>
        <time>2025-10-23T14:07:57Z</time>
      </trkpt>
      <trkpt lat="43.58684" lon="3.11966">
        <ele>186.093175</ele>
        <time>2025-10-23T14:07:58Z</time>
      </trkpt>
      <trkpt lat="43.58681" lon="3.1196">
        <ele>186.064678</ele>
        <time>2025-10-23T14:07:59Z</time>
      </trkpt>
      <trkpt lat="43.58679" lon="3.11954">
        <ele>186.038391</ele>
        <time>2025-10-23T14:08:00Z</time>
      </trkpt>
      <trkpt lat="43.58677" lon="3.11949">
        <ele>186.014359</ele>
        <time>2025-10-23T14:08:01Z</time>
      </trkpt>
      <trkpt lat="43.58675" lon="3.11944">
        <ele>185.98951</ele>
        <time>2025-10-23T14:08:02Z</time>
      </trkpt>
      <trkpt lat="43.58673" lon="3.11939">
        <ele>185.963855</ele>
        <time>2025-10-23T14:08:03Z</time>
      </trkpt>
      <trkpt lat="43.5867" lon="3.11933">
        <ele>185.93793</ele>
        <time>2025-10-23T14:08:04Z</time>
      </trkpt>
      <trkpt lat="43.58668" lon="3.11927">
        <ele>185.910367</ele>
        <time>2025-10-23T14:08:05Z</time>
      </trkpt>
      <trkpt lat="43.58666" lon="3.11922">
        <ele>185.883716</ele>
        <time>2025-10-23T14:08:06Z</time>
      </trkpt>
      <trkpt lat="43.58664" lon="3.11916">
        <ele>185.857825</ele>
        <time>2025-10-23T14:08:07Z</time>
      </trkpt>
      <trkpt lat="43.58662" lon="3.1191">
        <ele>185.832007</ele>
        <time>2025-10-23T14:08:08Z</time>
      </trkpt>
      <trkpt lat="43.58661" lon="3.11904">
        <ele>185.805423</ele>
        <time>2025-10-23T14:08:09Z</time>
      </trkpt>
      <trkpt lat="43.58659" lon="3.11898">
        <ele>185.778024</ele>
        <time>2025-10-23T14:08:10Z</time>
      </trkpt>
      <trkpt lat="43.58657" lon="3.11892">
        <ele>185.751381</ele>
        <time>2025-10-23T14:08:11Z</time>
      </trkpt>
      <trkpt lat="43.58655" lon="3.11886">
        <ele>185.725246</ele>
        <time>2025-10-23T14:08:12Z</time>
      </trkpt>
      <trkpt lat="43.58653" lon="3.11881">
        <ele>185.69874</ele>
        <time>2025-10-23T14:08:13Z</time>
      </trkpt>
      <trkpt lat="43.58651" lon="3.11875">
        <ele>185.675047</ele>
        <time>2025-10-23T14:08:14Z</time>
      </trkpt>
      <trkpt lat="43.5865" lon="3.1187">
        <ele>185.652113</ele>
        <time>2025-10-23T14:08:15Z</time>
      </trkpt>
      <trkpt lat="43.58648" lon="3.11865">
        <ele>185.628332</ele>
        <time>2025-10-23T14:08:16Z</time>
      </trkpt>
      <trkpt lat="43.58646" lon="3.1186">
        <ele>185.604667</ele>
        <time>2025-10-23T14:08:17Z</time>
      </trkpt>
      <trkpt lat="43.58644" lon="3.11855">
        <ele>185.580527</ele>
        <time>2025-10-23T14:08:18Z</time>
      </trkpt>
      <trkpt lat="43.58642" lon="3.11849">
        <ele>185.554507</ele>
        <time>2025-10-23T14:08:19Z</time>
      </trkpt>
      <trkpt lat="43.58639" lon="3.11844">
        <ele>185.528715</ele>
        <time>2025-10-23T14:08:20Z</time>
      </trkpt>
      <trkpt lat="43.58636" lon="3.11839">
        <ele>185.502694</ele>
        <time>2025-10-23T14:08:21Z</time>
      </trkpt>
      <trkpt lat="43.58633" lon="3.11835">
        <ele>185.476844</ele>
        <time>2025-10-23T14:08:22Z</time>
      </trkpt>
      <trkpt lat="43.5863" lon="3.11829">
        <ele>185.449776</ele>
        <time>2025-10-23T14:08:23Z</time>
      </trkpt>
      <trkpt lat="43.58628" lon="3.11824">
        <ele>185.421854</ele>
        <time>2025-10-23T14:08:24Z</time>
      </trkpt>
      <trkpt lat="43.58625" lon="3.11818">
        <ele>185.393649</ele>
        <time>2025-10-23T14:08:25Z</time>
      </trkpt>
      <trkpt lat="43.58623" lon="3.11812">
        <ele>185.365366</ele>
        <time>2025-10-23T14:08:26Z</time>
      </trkpt>
      <trkpt lat="43.5862" lon="3.11806">
        <ele>185.336446</ele>
        <time>2025-10-23T14:08:27Z</time>
      </trkpt>
      <trkpt lat="43.58618" lon="3.11799">
        <ele>185.307525</ele>
        <time>2025-10-23T14:08:28Z</time>
      </trkpt>
      <trkpt lat="43.58615" lon="3.11793">
        <ele>185.277964</ele>
        <time>2025-10-23T14:08:29Z</time>
      </trkpt>
      <trkpt lat="43.58613" lon="3.11788">
        <ele>185.250888</ele>
        <time>2025-10-23T14:08:30Z</time>
      </trkpt>
      <trkpt lat="43.5861" lon="3.11782">
        <ele>185.221037</ele>
        <time>2025-10-23T14:08:31Z</time>
      </trkpt>
      <trkpt lat="43.58607" lon="3.11776">
        <ele>185.192276</ele>
        <time>2025-10-23T14:08:32Z</time>
      </trkpt>
      <trkpt lat="43.58604" lon="3.1177">
        <ele>185.163129</ele>
        <time>2025-10-23T14:08:33Z</time>
      </trkpt>
      <trkpt lat="43.58602" lon="3.11764">
        <ele>185.136633</ele>
        <time>2025-10-23T14:08:34Z</time>
      </trkpt>
      <trkpt lat="43.586" lon="3.11758">
        <ele>185.108145</ele>
        <time>2025-10-23T14:08:35Z</time>
      </trkpt>
      <trkpt lat="43.58598" lon="3.11752">
        <ele>185.081129</ele>
        <time>2025-10-23T14:08:36Z</time>
      </trkpt>
      <trkpt lat="43.58595" lon="3.11747">
        <ele>185.018201</ele>
        <time>2025-10-23T14:08:37Z</time>
      </trkpt>
      <trkpt lat="43.58593" lon="3.11741">
        <ele>184.944534</ele>
        <time>2025-10-23T14:08:38Z</time>
      </trkpt>
      <trkpt lat="43.5859" lon="3.11735">
        <ele>184.869908</ele>
        <time>2025-10-23T14:08:39Z</time>
      </trkpt>
      <trkpt lat="43.58588" lon="3.11729">
        <ele>184.794318</ele>
        <time>2025-10-23T14:08:40Z</time>
      </trkpt>
      <trkpt lat="43.58586" lon="3.11723">
        <ele>184.725871</ele>
        <time>2025-10-23T14:08:41Z</time>
      </trkpt>
      <trkpt lat="43.58584" lon="3.11716">
        <ele>184.647545</ele>
        <time>2025-10-23T14:08:42Z</time>
      </trkpt>
      <trkpt lat="43.58582" lon="3.1171">
        <ele>184.570674</ele>
        <time>2025-10-23T14:08:43Z</time>
      </trkpt>
      <trkpt lat="43.5858" lon="3.11704">
        <ele>184.496508</ele>
        <time>2025-10-23T14:08:44Z</time>
      </trkpt>
      <trkpt lat="43.58578" lon="3.11697">
        <ele>184.413365</ele>
        <time>2025-10-23T14:08:45Z</time>
      </trkpt>
      <trkpt lat="43.58576" lon="3.11691">
        <ele>184.33424</ele>
        <time>2025-10-23T14:08:46Z</time>
      </trkpt>
      <trkpt lat="43.58573" lon="3.11684">
        <ele>184.250048</ele>
        <time>2025-10-23T14:08:47Z</time>
      </trkpt>
      <trkpt lat="43.5857" lon="3.11677">
        <ele>184.166625</ele>
        <time>2025-10-23T14:08:48Z</time>
      </trkpt>
      <trkpt lat="43.58568" lon="3.1167">
        <ele>184.08315</ele>
        <time>2025-10-23T14:08:49Z</time>
      </trkpt>
      <trkpt lat="43.58566" lon="3.11663">
        <ele>183.992312</ele>
        <time>2025-10-23T14:08:50Z</time>
      </trkpt>
      <trkpt lat="43.58564" lon="3.11654">
        <ele>183.896392</ele>
        <time>2025-10-23T14:08:51Z</time>
      </trkpt>
      <trkpt lat="43.58562" lon="3.11646">
        <ele>183.800841</ele>
        <time>2025-10-23T14:08:52Z</time>
      </trkpt>
      <trkpt lat="43.5856" lon="3.11638">
        <ele>183.707506</ele>
        <time>2025-10-23T14:08:53Z</time>
      </trkpt>
      <trkpt lat="43.58558" lon="3.1163">
        <ele>183.613662</ele>
        <time>2025-10-23T14:08:54Z</time>
      </trkpt>
      <trkpt lat="43.58556" lon="3.11622">
        <ele>183.515996</ele>
        <time>2025-10-23T14:08:55Z</time>
      </trkpt>
      <trkpt lat="43.58555" lon="3.11613">
        <ele>183.419107</ele>
        <time>2025-10-23T14:08:56Z</time>
      </trkpt>
      <trkpt lat="43.58553" lon="3.11605">
        <ele>183.323318</ele>
        <time>2025-10-23T14:08:57Z</time>
      </trkpt>
      <trkpt lat="43.58552" lon="3.11596">
        <ele>183.226462</ele>
        <time>2025-10-23T14:08:58Z</time>
      </trkpt>
      <trkpt lat="43.5855" lon="3.11587">
        <ele>183.127833</ele>
        <time>2025-10-23T14:08:59Z</time>
      </trkpt>
      <trkpt lat="43.58549" lon="3.11579">
        <ele>183.028784</ele>
        <time>2025-10-23T14:09:00Z</time>
      </trkpt>
      <trkpt lat="43.58548" lon="3.11569">
        <ele>182.923243</ele>
        <time>2025-10-23T14:09:01Z</time>
      </trkpt>
      <trkpt lat="43.58546" lon="3.1156">
        <ele>182.821972</ele>
        <time>2025-10-23T14:09:02Z</time>
      </trkpt>
      <trkpt lat="43.58544" lon="3.11552">
        <ele>182.725973</ele>
        <time>2025-10-23T14:09:03Z</time>
      </trkpt>
      <trkpt lat="43.58542" lon="3.11544">
        <ele>182.63626</ele>
        <time>2025-10-23T14:09:04Z</time>
      </trkpt>
      <trkpt lat="43.5854" lon="3.11537">
        <ele>182.547021</ele>
        <time>2025-10-23T14:09:05Z</time>
      </trkpt>
      <trkpt lat="43.58538" lon="3.11529">
        <ele>182.456281</ele>
        <time>2025-10-23T14:09:06Z</time>
      </trkpt>
      <trkpt lat="43.58535" lon="3.11522">
        <ele>182.365855</ele>
        <time>2025-10-23T14:09:07Z</time>
      </trkpt>
      <trkpt lat="43.58533" lon="3.11515">
        <ele>182.295608</ele>
        <time>2025-10-23T14:09:08Z</time>
      </trkpt>
      <trkpt lat="43.5853" lon="3.11508">
        <ele>182.234758</ele>
        <time>2025-10-23T14:09:09Z</time>
      </trkpt>
      <trkpt lat="43.58527" lon="3.115">
        <ele>182.172572</ele>
        <time>2025-10-23T14:09:10Z</time>
      </trkpt>
      <trkpt lat="43.58525" lon="3.11493">
        <ele>182.111549</ele>
        <time>2025-10-23T14:09:11Z</time>
      </trkpt>
      <trkpt lat="43.58522" lon="3.11486">
        <ele>182.049</ele>
        <time>2025-10-23T14:09:12Z</time>
      </trkpt>
      <trkpt lat="43.58518" lon="3.1148">
        <ele>181.987367</ele>
        <time>2025-10-23T14:09:13Z</time>
      </trkpt>
      <trkpt lat="43.58514" lon="3.11473">
        <ele>181.922012</ele>
        <time>2025-10-23T14:09:14Z</time>
      </trkpt>
      <trkpt lat="43.58511" lon="3.11465">
        <ele>181.855117</ele>
        <time>2025-10-23T14:09:15Z</time>
      </trkpt>
      <trkpt lat="43.58508" lon="3.11458">
        <ele>181.7885</ele>
        <time>2025-10-23T14:09:16Z</time>
      </trkpt>
      <trkpt lat="43.58504" lon="3.11451">
        <ele>181.724943</ele>
        <time>2025-10-23T14:09:17Z</time>
      </trkpt>
      <trkpt lat="43.58501" lon="3.11444">
        <ele>181.660842</ele>
        <time>2025-10-23T14:09:18Z</time>
      </trkpt>
      <trkpt lat="43.58497" lon="3.11438">
        <ele>181.599779</ele>
        <time>2025-10-23T14:09:19Z</time>
      </trkpt>
      <trkpt lat="43.58493" lon="3.11432">
        <ele>181.537975</ele>
        <time>2025-10-23T14:09:20Z</time>
      </trkpt>
      <trkpt lat="43.5849" lon="3.11425">
        <ele>181.47571</ele>
        <time>2025-10-23T14:09:21Z</time>
      </trkpt>
      <trkpt lat="43.58486" lon="3.11419">
        <ele>181.41774</ele>
        <time>2025-10-23T14:09:22Z</time>
      </trkpt>
      <trkpt lat="43.58483" lon="3.11413">
        <ele>181.357776</ele>
        <time>2025-10-23T14:09:23Z</time>
      </trkpt>
      <trkpt lat="43.58479" lon="3.11407">
        <ele>181.297697</ele>
        <time>2025-10-23T14:09:24Z</time>
      </trkpt>
      <trkpt lat="43.58476" lon="3.11402">
        <ele>181.247152</ele>
        <time>2025-10-23T14:09:25Z</time>
      </trkpt>
      <trkpt lat="43.58474" lon="3.11397">
        <ele>181.206695</ele>
        <time>2025-10-23T14:09:26Z</time>
      </trkpt>
      <trkpt lat="43.58473" lon="3.11393">
        <ele>181.175117</ele>
        <time>2025-10-23T14:09:27Z</time>
      </trkpt>
      <trkpt lat="43.58473" lon="3.11392">
        <ele>181.162077</ele>
        <time>2025-10-23T14:09:28Z</time>
      </trkpt>
      <trkpt lat="43.58474" lon="3.11391">
        <ele>181.152852</ele>
        <time>2025-10-23T14:09:29Z</time>
      </trkpt>
      <trkpt lat="43.58473" lon="3.11391">
        <ele>181.151801</ele>
        <time>2025-10-23T14:09:30Z</time>
      </trkpt>
      <trkpt lat="43.58474" lon="3.11391">
        <ele>181.145317</ele>
        <time>2025-10-23T14:09:31Z</time>
      </trkpt>
      <trkpt lat="43.58474" lon="3.11391">
        <ele>181.144266</ele>
        <time>2025-10-23T14:09:32Z</time>
      </trkpt>
      <trkpt lat="43.58474" lon="3.11391">
        <ele>181.142969</ele>
        <time>2025-10-23T14:09:33Z</time>
      </trkpt>
      <trkpt lat="43.58474" lon="3.11391">
        <ele>181.140868</ele>
        <time>2025-10-23T14:09:34Z</time>
      </trkpt>
      <trkpt lat="43.58474" lon="3.11391">
        <ele>181.133908</ele>
        <time>2025-10-23T14:09:35Z</time>
      </trkpt>
      <trkpt lat="43.58473" lon="3.1139">
        <ele>181.126908</ele>
        <time>2025-10-23T14:09:36Z</time>
      </trkpt>
      <trkpt lat="43.58471" lon="3.11389">
        <ele>181.108695</ele>
        <time>2025-10-23T14:09:37Z</time>
      </trkpt>
      <trkpt lat="43.5847" lon="3.11388">
        <ele>181.088279</ele>
        <time>2025-10-23T14:09:38Z</time>
      </trkpt>
      <trkpt lat="43.58468" lon="3.11386">
        <ele>181.061037</ele>
        <time>2025-10-23T14:09:39Z</time>
      </trkpt>
      <trkpt lat="43.58466" lon="3.11383">
        <ele>181.031113</ele>
        <time>2025-10-23T14:09:40Z</time>
      </trkpt>
      <trkpt lat="43.58463" lon="3.1138">
        <ele>180.994009</ele>
        <time>2025-10-23T14:09:41Z</time>
      </trkpt>
      <trkpt lat="43.58461" lon="3.11376">
        <ele>180.957141</ele>
        <time>2025-10-23T14:09:42Z</time>
      </trkpt>
      <trkpt lat="43.58458" lon="3.11373">
        <ele>180.920466</ele>
        <time>2025-10-23T14:09:43Z</time>
      </trkpt>
      <trkpt lat="43.58456" lon="3.11369">
        <ele>180.88379</ele>
        <time>2025-10-23T14:09:44Z</time>
      </trkpt>
      <trkpt lat="43.58453" lon="3.11366">
        <ele>180.844356</ele>
        <time>2025-10-23T14:09:45Z</time>
      </trkpt>
      <trkpt lat="43.58451" lon="3.11362">
        <ele>180.805292</ele>
        <time>2025-10-23T14:09:46Z</time>
      </trkpt>
      <trkpt lat="43.58448" lon="3.11358">
        <ele>180.761987</ele>
        <time>2025-10-23T14:09:47Z</time>
      </trkpt>
      <trkpt lat="43.58445" lon="3.11354">
        <ele>180.72038</ele>
        <time>2025-10-23T14:09:48Z</time>
      </trkpt>
      <trkpt lat="43.58442" lon="3.11349">
        <ele>180.675811</ele>
        <time>2025-10-23T14:09:49Z</time>
      </trkpt>
      <trkpt lat="43.5844" lon="3.11345">
        <ele>180.633481</ele>
        <time>2025-10-23T14:09:50Z</time>
      </trkpt>
      <trkpt lat="43.58437" lon="3.11341">
        <ele>180.590415</ele>
        <time>2025-10-23T14:09:51Z</time>
      </trkpt>
      <trkpt lat="43.58434" lon="3.11338">
        <ele>180.548153</ele>
        <time>2025-10-23T14:09:52Z</time>
      </trkpt>
      <trkpt lat="43.58431" lon="3.11334">
        <ele>180.505086</ele>
        <time>2025-10-23T14:09:53Z</time>
      </trkpt>
      <trkpt lat="43.58428" lon="3.11329">
        <ele>180.458919</ele>
        <time>2025-10-23T14:09:54Z</time>
      </trkpt>
      <trkpt lat="43.58424" lon="3.11325">
        <ele>180.495697</ele>
        <time>2025-10-23T14:09:55Z</time>
      </trkpt>
      <trkpt lat="43.58421" lon="3.11321">
        <ele>180.568442</ele>
        <time>2025-10-23T14:09:56Z</time>
      </trkpt>
      <trkpt lat="43.58418" lon="3.11316">
        <ele>180.641694</ele>
        <time>2025-10-23T14:09:57Z</time>
      </trkpt>
      <trkpt lat="43.58415" lon="3.11311">
        <ele>180.715778</ele>
        <time>2025-10-23T14:09:58Z</time>
      </trkpt>
      <trkpt lat="43.58412" lon="3.11307">
        <ele>180.78582</ele>
        <time>2025-10-23T14:09:59Z</time>
      </trkpt>
      <trkpt lat="43.58409" lon="3.11302">
        <ele>180.858495</ele>
        <time>2025-10-23T14:10:00Z</time>
      </trkpt>
      <trkpt lat="43.58406" lon="3.11297">
        <ele>180.927393</ele>
        <time>2025-10-23T14:10:01Z</time>
      </trkpt>
      <trkpt lat="43.58404" lon="3.11292">
        <ele>180.997173</ele>
        <time>2025-10-23T14:10:02Z</time>
      </trkpt>
      <trkpt lat="43.58402" lon="3.11287">
        <ele>181.063042</ele>
        <time>2025-10-23T14:10:03Z</time>
      </trkpt>
      <trkpt lat="43.58401" lon="3.11282">
        <ele>181.1284</ele>
        <time>2025-10-23T14:10:04Z</time>
      </trkpt>
      <trkpt lat="43.584" lon="3.11276">
        <ele>181.192066</ele>
        <time>2025-10-23T14:10:05Z</time>
      </trkpt>
      <trkpt lat="43.584" lon="3.1127">
        <ele>181.258758</ele>
        <time>2025-10-23T14:10:06Z</time>
      </trkpt>
      <trkpt lat="43.58401" lon="3.11265">
        <ele>181.323888</ele>
        <time>2025-10-23T14:10:07Z</time>
      </trkpt>
      <trkpt lat="43.58403" lon="3.1126">
        <ele>181.389836</ele>
        <time>2025-10-23T14:10:08Z</time>
      </trkpt>
      <trkpt lat="43.58404" lon="3.11254">
        <ele>181.458412</ele>
        <time>2025-10-23T14:10:09Z</time>
      </trkpt>
      <trkpt lat="43.58406" lon="3.11249">
        <ele>181.523287</ele>
        <time>2025-10-23T14:10:10Z</time>
      </trkpt>
      <trkpt lat="43.58407" lon="3.11243">
        <ele>181.591863</ele>
        <time>2025-10-23T14:10:11Z</time>
      </trkpt>
      <trkpt lat="43.58408" lon="3.11238">
        <ele>181.656657</ele>
        <time>2025-10-23T14:10:12Z</time>
      </trkpt>
      <trkpt lat="43.5841" lon="3.11232">
        <ele>181.726875</ele>
        <time>2025-10-23T14:10:13Z</time>
      </trkpt>
      <trkpt lat="43.58411" lon="3.11226">
        <ele>181.797092</ele>
        <time>2025-10-23T14:10:14Z</time>
      </trkpt>
      <trkpt lat="43.58413" lon="3.1122">
        <ele>181.867309</ele>
        <time>2025-10-23T14:10:15Z</time>
      </trkpt>
      <trkpt lat="43.58414" lon="3.11215">
        <ele>181.936963</ele>
        <time>2025-10-23T14:10:16Z</time>
      </trkpt>
      <trkpt lat="43.58415" lon="3.11209">
        <ele>182.004505</ele>
        <time>2025-10-23T14:10:17Z</time>
      </trkpt>
      <trkpt lat="43.58417" lon="3.11204">
        <ele>182.069862</ele>
        <time>2025-10-23T14:10:18Z</time>
      </trkpt>
      <trkpt lat="43.58418" lon="3.11198">
        <ele>182.133044</ele>
        <time>2025-10-23T14:10:19Z</time>
      </trkpt>
      <trkpt lat="43.5842" lon="3.11193">
        <ele>182.198399</ele>
        <time>2025-10-23T14:10:20Z</time>
      </trkpt>
      <trkpt lat="43.58421" lon="3.11188">
        <ele>182.263193</ele>
        <time>2025-10-23T14:10:21Z</time>
      </trkpt>
      <trkpt lat="43.58423" lon="3.11182">
        <ele>182.331267</ele>
        <time>2025-10-23T14:10:22Z</time>
      </trkpt>
      <trkpt lat="43.58424" lon="3.11177">
        <ele>182.397216</ele>
        <time>2025-10-23T14:10:23Z</time>
      </trkpt>
      <trkpt lat="43.58426" lon="3.11173">
        <ele>182.452412</ele>
        <time>2025-10-23T14:10:24Z</time>
      </trkpt>
      <trkpt lat="43.58427" lon="3.11169">
        <ele>182.502767</ele>
        <time>2025-10-23T14:10:25Z</time>
      </trkpt>
      <trkpt lat="43.58428" lon="3.11165">
        <ele>182.543449</ele>
        <time>2025-10-23T14:10:26Z</time>
      </trkpt>
      <trkpt lat="43.58429" lon="3.11162">
        <ele>182.579685</ele>
        <time>2025-10-23T14:10:27Z</time>
      </trkpt>
      <trkpt lat="43.5843" lon="3.1116">
        <ele>182.609401</ele>
        <time>2025-10-23T14:10:28Z</time>
      </trkpt>
      <trkpt lat="43.5843" lon="3.11158">
        <ele>182.63479</ele>
        <time>2025-10-23T14:10:29Z</time>
      </trkpt>
      <trkpt lat="43.58431" lon="3.11156">
        <ele>182.662815</ele>
        <time>2025-10-23T14:10:30Z</time>
      </trkpt>
      <trkpt lat="43.58431" lon="3.11153">
        <ele>182.70085</ele>
        <time>2025-10-23T14:10:31Z</time>
      </trkpt>
      <trkpt lat="43.58429" lon="3.11149">
        <ele>182.74855</ele>
        <time>2025-10-23T14:10:32Z</time>
      </trkpt>
      <trkpt lat="43.58429" lon="3.11145">
        <ele>182.79857</ele>
        <time>2025-10-23T14:10:33Z</time>
      </trkpt>
      <trkpt lat="43.58429" lon="3.11141">
        <ele>182.846612</ele>
        <time>2025-10-23T14:10:34Z</time>
      </trkpt>
      <trkpt lat="43.5843" lon="3.11137">
        <ele>182.894719</ele>
        <time>2025-10-23T14:10:35Z</time>
      </trkpt>
      <trkpt lat="43.5843" lon="3.11133">
        <ele>182.937245</ele>
        <time>2025-10-23T14:10:36Z</time>
      </trkpt>
      <trkpt lat="43.5843" lon="3.11129">
        <ele>182.982151</ele>
        <time>2025-10-23T14:10:37Z</time>
      </trkpt>
      <trkpt lat="43.5843" lon="3.11126">
        <ele>183.021998</ele>
        <time>2025-10-23T14:10:38Z</time>
      </trkpt>
      <trkpt lat="43.5843" lon="3.11122">
        <ele>183.059058</ele>
        <time>2025-10-23T14:10:39Z</time>
      </trkpt>
      <trkpt lat="43.58429" lon="3.1112">
        <ele>183.089587</ele>
        <time>2025-10-23T14:10:40Z</time>
      </trkpt>
      <trkpt lat="43.58428" lon="3.11117">
        <ele>183.122031</ele>
        <time>2025-10-23T14:10:41Z</time>
      </trkpt>
      <trkpt lat="43.58428" lon="3.11114">
        <ele>183.15627</ele>
        <time>2025-10-23T14:10:42Z</time>
      </trkpt>
      <trkpt lat="43.58427" lon="3.11112">
        <ele>183.190716</ele>
        <time>2025-10-23T14:10:43Z</time>
      </trkpt>
      <trkpt lat="43.58425" lon="3.11109">
        <ele>183.227952</ele>
        <time>2025-10-23T14:10:44Z</time>
      </trkpt>
      <trkpt lat="43.58423" lon="3.11107">
        <ele>183.274368</ele>
        <time>2025-10-23T14:10:45Z</time>
      </trkpt>
      <trkpt lat="43.58421" lon="3.11104">
        <ele>183.321907</ele>
        <time>2025-10-23T14:10:46Z</time>
      </trkpt>
      <trkpt lat="43.58419" lon="3.11102">
        <ele>183.387863</ele>
        <time>2025-10-23T14:10:47Z</time>
      </trkpt>
      <trkpt lat="43.58417" lon="3.111">
        <ele>183.464505</ele>
        <time>2025-10-23T14:10:48Z</time>
      </trkpt>
      <trkpt lat="43.58415" lon="3.11098">
        <ele>183.542462</ele>
        <time>2025-10-23T14:10:49Z</time>
      </trkpt>
      <trkpt lat="43.58413" lon="3.11095">
        <ele>183.616252</ele>
        <time>2025-10-23T14:10:50Z</time>
      </trkpt>
      <trkpt lat="43.58411" lon="3.11093">
        <ele>183.685679</ele>
        <time>2025-10-23T14:10:51Z</time>
      </trkpt>
      <trkpt lat="43.58409" lon="3.11091">
        <ele>183.766732</ele>
        <time>2025-10-23T14:10:52Z</time>
      </trkpt>
      <trkpt lat="43.58407" lon="3.11088">
        <ele>183.851255</ele>
        <time>2025-10-23T14:10:53Z</time>
      </trkpt>
      <trkpt lat="43.58404" lon="3.11086">
        <ele>183.940331</ele>
        <time>2025-10-23T14:10:54Z</time>
      </trkpt>
      <trkpt lat="43.58402" lon="3.11083">
        <ele>184.021321</ele>
        <time>2025-10-23T14:10:55Z</time>
      </trkpt>
      <trkpt lat="43.58399" lon="3.11081">
        <ele>184.101204</ele>
        <time>2025-10-23T14:10:56Z</time>
      </trkpt>
      <trkpt lat="43.58397" lon="3.1108">
        <ele>184.177038</ele>
        <time>2025-10-23T14:10:57Z</time>
      </trkpt>
      <trkpt lat="43.58395" lon="3.11078">
        <ele>184.247916</ele>
        <time>2025-10-23T14:10:58Z</time>
      </trkpt>
      <trkpt lat="43.58393" lon="3.11076">
        <ele>184.31634</ele>
        <time>2025-10-23T14:10:59Z</time>
      </trkpt>
      <trkpt lat="43.5839" lon="3.11074">
        <ele>184.393863</ele>
        <time>2025-10-23T14:11:00Z</time>
      </trkpt>
      <trkpt lat="43.58389" lon="3.11071">
        <ele>184.467653</ele>
        <time>2025-10-23T14:11:01Z</time>
      </trkpt>
      <trkpt lat="43.58386" lon="3.11069">
        <ele>184.554465</ele>
        <time>2025-10-23T14:11:02Z</time>
      </trkpt>
      <trkpt lat="43.58383" lon="3.11067">
        <ele>184.642606</ele>
        <time>2025-10-23T14:11:03Z</time>
      </trkpt>
      <trkpt lat="43.5838" lon="3.11064">
        <ele>184.734203</ele>
        <time>2025-10-23T14:11:04Z</time>
      </trkpt>
      <trkpt lat="43.58378" lon="3.11062">
        <ele>184.82675</ele>
        <time>2025-10-23T14:11:05Z</time>
      </trkpt>
      <trkpt lat="43.58375" lon="3.11059">
        <ele>184.912515</ele>
        <time>2025-10-23T14:11:06Z</time>
      </trkpt>
      <trkpt lat="43.58373" lon="3.11057">
        <ele>184.997038</ele>
        <time>2025-10-23T14:11:07Z</time>
      </trkpt>
      <trkpt lat="43.58371" lon="3.11055">
        <ele>185.075703</ele>
        <time>2025-10-23T14:11:08Z</time>
      </trkpt>
      <trkpt lat="43.58369" lon="3.11052">
        <ele>185.151063</ele>
        <time>2025-10-23T14:11:09Z</time>
      </trkpt>
      <trkpt lat="43.58367" lon="3.1105">
        <ele>185.218648</ele>
        <time>2025-10-23T14:11:10Z</time>
      </trkpt>
      <trkpt lat="43.58364" lon="3.11048">
        <ele>185.296171</ele>
        <time>2025-10-23T14:11:11Z</time>
      </trkpt>
      <trkpt lat="43.58362" lon="3.11046">
        <ele>185.373693</ele>
        <time>2025-10-23T14:11:12Z</time>
      </trkpt>
      <trkpt lat="43.5836" lon="3.11044">
        <ele>185.451216</ele>
        <time>2025-10-23T14:11:13Z</time>
      </trkpt>
      <trkpt lat="43.58358" lon="3.11042">
        <ele>185.526409</ele>
        <time>2025-10-23T14:11:14Z</time>
      </trkpt>
      <trkpt lat="43.58355" lon="3.11041">
        <ele>185.600175</ele>
        <time>2025-10-23T14:11:15Z</time>
      </trkpt>
      <trkpt lat="43.58353" lon="3.1104">
        <ele>185.673975</ele>
        <time>2025-10-23T14:11:16Z</time>
      </trkpt>
      <trkpt lat="43.5835" lon="3.11039">
        <ele>185.741182</ele>
        <time>2025-10-23T14:11:17Z</time>
      </trkpt>
      <trkpt lat="43.58348" lon="3.11038">
        <ele>185.816285</ele>
        <time>2025-10-23T14:11:18Z</time>
      </trkpt>
      <trkpt lat="43.58345" lon="3.11037">
        <ele>185.893355</ele>
        <time>2025-10-23T14:11:19Z</time>
      </trkpt>
      <trkpt lat="43.58343" lon="3.11036">
        <ele>185.969805</ele>
        <time>2025-10-23T14:11:20Z</time>
      </trkpt>
      <trkpt lat="43.5834" lon="3.11034">
        <ele>186.054916</ele>
        <time>2025-10-23T14:11:21Z</time>
      </trkpt>
      <trkpt lat="43.58337" lon="3.11033">
        <ele>186.136737</ele>
        <time>2025-10-23T14:11:22Z</time>
      </trkpt>
      <trkpt lat="43.58334" lon="3.11031">
        <ele>186.225366</ele>
        <time>2025-10-23T14:11:23Z</time>
      </trkpt>
      <trkpt lat="43.58331" lon="3.11029">
        <ele>186.312489</ele>
        <time>2025-10-23T14:11:24Z</time>
      </trkpt>
      <trkpt lat="43.58329" lon="3.11027">
        <ele>186.397686</ele>
        <time>2025-10-23T14:11:25Z</time>
      </trkpt>
      <trkpt lat="43.58326" lon="3.11025">
        <ele>186.488259</ele>
        <time>2025-10-23T14:11:26Z</time>
      </trkpt>
      <trkpt lat="43.58323" lon="3.11022">
        <ele>186.580914</ele>
        <time>2025-10-23T14:11:27Z</time>
      </trkpt>
      <trkpt lat="43.58321" lon="3.1102">
        <ele>186.67117</ele>
        <time>2025-10-23T14:11:28Z</time>
      </trkpt>
      <trkpt lat="43.58318" lon="3.11017">
        <ele>186.756901</ele>
        <time>2025-10-23T14:11:29Z</time>
      </trkpt>
      <trkpt lat="43.58315" lon="3.11015">
        <ele>186.839172</ele>
        <time>2025-10-23T14:11:30Z</time>
      </trkpt>
      <trkpt lat="43.58313" lon="3.11013">
        <ele>186.922485</ele>
        <time>2025-10-23T14:11:31Z</time>
      </trkpt>
      <trkpt lat="43.5831" lon="3.1101">
        <ele>187.011561</ele>
        <time>2025-10-23T14:11:32Z</time>
      </trkpt>
      <trkpt lat="43.58308" lon="3.11008">
        <ele>187.092978</ele>
        <time>2025-10-23T14:11:33Z</time>
      </trkpt>
      <trkpt lat="43.58306" lon="3.11005">
        <ele>187.184779</ele>
        <time>2025-10-23T14:11:34Z</time>
      </trkpt>
      <trkpt lat="43.58304" lon="3.11001">
        <ele>187.279148</ele>
        <time>2025-10-23T14:11:35Z</time>
      </trkpt>
      <trkpt lat="43.58302" lon="3.10998">
        <ele>187.371988</ele>
        <time>2025-10-23T14:11:36Z</time>
      </trkpt>
      <trkpt lat="43.583" lon="3.10995">
        <ele>187.44377</ele>
        <time>2025-10-23T14:11:37Z</time>
      </trkpt>
      <trkpt lat="43.58299" lon="3.10994">
        <ele>187.483175</ele>
        <time>2025-10-23T14:11:38Z</time>
      </trkpt>
      <trkpt lat="43.58298" lon="3.10994">
        <ele>187.49781</ele>
        <time>2025-10-23T14:11:39Z</time>
      </trkpt>
      <trkpt lat="43.58298" lon="3.10995">
        <ele>187.516981</ele>
        <time>2025-10-23T14:11:40Z</time>
      </trkpt>
      <trkpt lat="43.58298" lon="3.10995">
        <ele>187.526879</ele>
        <time>2025-10-23T14:11:41Z</time>
      </trkpt>
      <trkpt lat="43.58298" lon="3.10995">
        <ele>187.52969</ele>
        <time>2025-10-23T14:11:42Z</time>
      </trkpt>
      <trkpt lat="43.58298" lon="3.10995">
        <ele>187.541415</ele>
        <time>2025-10-23T14:11:43Z</time>
      </trkpt>
      <trkpt lat="43.58298" lon="3.10995">
        <ele>187.541415</ele>
        <time>2025-10-23T14:11:44Z</time>
      </trkpt>
      <trkpt lat="43.58298" lon="3.10994">
        <ele>187.543452</ele>
        <time>2025-10-23T14:11:45Z</time>
      </trkpt>
      <trkpt lat="43.58298" lon="3.10994">
        <ele>187.546263</ele>
        <time>2025-10-23T14:11:46Z</time>
      </trkpt>
      <trkpt lat="43.58298" lon="3.10994">
        <ele>187.554566</ele>
        <time>2025-10-23T14:11:47Z</time>
      </trkpt>
      <trkpt lat="43.58298" lon="3.10994">
        <ele>187.558037</ele>
        <time>2025-10-23T14:11:48Z</time>
      </trkpt>
      <trkpt lat="43.58298" lon="3.10994">
        <ele>187.560074</ele>
        <time>2025-10-23T14:11:49Z</time>
      </trkpt>
      <trkpt lat="43.58298" lon="3.10994">
        <ele>187.560074</ele>
        <time>2025-10-23T14:11:50Z</time>
      </trkpt>
      <trkpt lat="43.58295" lon="3.1099">
        <ele>187.667295</ele>
        <time>2025-10-23T14:12:52Z</time>
      </trkpt>
      <trkpt lat="43.58293" lon="3.10988">
        <ele>187.744527</ele>
        <time>2025-10-23T14:12:53Z</time>
      </trkpt>
      <trkpt lat="43.58291" lon="3.10984">
        <ele>187.83372</ele>
        <time>2025-10-23T14:12:54Z</time>
      </trkpt>
      <trkpt lat="43.58289" lon="3.1098">
        <ele>187.949355</ele>
        <time>2025-10-23T14:12:55Z</time>
      </trkpt>
      <trkpt lat="43.58288" lon="3.10974">
        <ele>188.063588</ele>
        <time>2025-10-23T14:12:56Z</time>
      </trkpt>
      <trkpt lat="43.58287" lon="3.10968">
        <ele>188.195847</ele>
        <time>2025-10-23T14:12:57Z</time>
      </trkpt>
      <trkpt lat="43.58286" lon="3.10963">
        <ele>188.30541</ele>
        <time>2025-10-23T14:12:58Z</time>
      </trkpt>
      <trkpt lat="43.58285" lon="3.10958">
        <ele>188.392009</ele>
        <time>2025-10-23T14:12:59Z</time>
      </trkpt>
      <trkpt lat="43.58286" lon="3.10955">
        <ele>188.45294</ele>
        <time>2025-10-23T14:13:00Z</time>
      </trkpt>
      <trkpt lat="43.58286" lon="3.10952">
        <ele>188.502529</ele>
        <time>2025-10-23T14:13:01Z</time>
      </trkpt>
      <trkpt lat="43.58285" lon="3.1095">
        <ele>188.547661</ele>
        <time>2025-10-23T14:13:02Z</time>
      </trkpt>
      <trkpt lat="43.58284" lon="3.10948">
        <ele>188.586764</ele>
        <time>2025-10-23T14:13:03Z</time>
      </trkpt>
      <trkpt lat="43.58284" lon="3.10946">
        <ele>188.625866</ele>
        <time>2025-10-23T14:13:04Z</time>
      </trkpt>
      <trkpt lat="43.58283" lon="3.10943">
        <ele>188.667837</ele>
        <time>2025-10-23T14:13:05Z</time>
      </trkpt>
      <trkpt lat="43.58283" lon="3.10941">
        <ele>188.707436</ele>
        <time>2025-10-23T14:13:06Z</time>
      </trkpt>
      <trkpt lat="43.58282" lon="3.10939">
        <ele>188.749277</ele>
        <time>2025-10-23T14:13:07Z</time>
      </trkpt>
      <trkpt lat="43.58283" lon="3.10937">
        <ele>188.790035</ele>
        <time>2025-10-23T14:13:08Z</time>
      </trkpt>
      <trkpt lat="43.58282" lon="3.10935">
        <ele>188.824136</ele>
        <time>2025-10-23T14:13:09Z</time>
      </trkpt>
      <trkpt lat="43.58282" lon="3.10933">
        <ele>188.854602</ele>
        <time>2025-10-23T14:13:10Z</time>
      </trkpt>
      <trkpt lat="43.58282" lon="3.10932">
        <ele>188.881135</ele>
        <time>2025-10-23T14:13:11Z</time>
      </trkpt>
      <trkpt lat="43.58282" lon="3.1093">
        <ele>188.916513</ele>
        <time>2025-10-23T14:13:12Z</time>
      </trkpt>
      <trkpt lat="43.58282" lon="3.10928">
        <ele>188.951976</ele>
        <time>2025-10-23T14:13:13Z</time>
      </trkpt>
      <trkpt lat="43.58282" lon="3.10926">
        <ele>188.985938</ele>
        <time>2025-10-23T14:13:14Z</time>
      </trkpt>
      <trkpt lat="43.58282" lon="3.10924">
        <ele>189.021652</ele>
        <time>2025-10-23T14:13:15Z</time>
      </trkpt>
      <trkpt lat="43.58282" lon="3.10922">
        <ele>189.052117</ele>
        <time>2025-10-23T14:13:16Z</time>
      </trkpt>
      <trkpt lat="43.58282" lon="3.1092">
        <ele>189.086516</ele>
        <time>2025-10-23T14:13:17Z</time>
      </trkpt>
      <trkpt lat="43.58282" lon="3.10918">
        <ele>189.127855</ele>
        <time>2025-10-23T14:13:18Z</time>
      </trkpt>
      <trkpt lat="43.58282" lon="3.10916">
        <ele>189.169194</ele>
        <time>2025-10-23T14:13:19Z</time>
      </trkpt>
      <trkpt lat="43.58282" lon="3.10914">
        <ele>189.204908</ele>
        <time>2025-10-23T14:13:20Z</time>
      </trkpt>
      <trkpt lat="43.58282" lon="3.10912">
        <ele>189.23321</ele>
        <time>2025-10-23T14:13:21Z</time>
      </trkpt>
      <trkpt lat="43.58282" lon="3.1091">
        <ele>189.266908</ele>
        <time>2025-10-23T14:13:22Z</time>
      </trkpt>
      <trkpt lat="43.58283" lon="3.10908">
        <ele>189.302622</ele>
        <time>2025-10-23T14:13:23Z</time>
      </trkpt>
      <trkpt lat="43.58282" lon="3.10906">
        <ele>189.341843</ele>
        <time>2025-10-23T14:13:24Z</time>
      </trkpt>
      <trkpt lat="43.58283" lon="3.10903">
        <ele>189.389254</ele>
        <time>2025-10-23T14:13:25Z</time>
      </trkpt>
      <trkpt lat="43.58284" lon="3.10901">
        <ele>189.438551</ele>
        <time>2025-10-23T14:13:26Z</time>
      </trkpt>
      <trkpt lat="43.58284" lon="3.10898">
        <ele>189.479337</ele>
        <time>2025-10-23T14:13:27Z</time>
      </trkpt>
      <trkpt lat="43.58284" lon="3.10896">
        <ele>189.521178</ele>
        <time>2025-10-23T14:13:28Z</time>
      </trkpt>
      <trkpt lat="43.58284" lon="3.10894">
        <ele>189.567234</ele>
        <time>2025-10-23T14:13:29Z</time>
      </trkpt>
      <trkpt lat="43.58284" lon="3.10891">
        <ele>189.617303</ele>
        <time>2025-10-23T14:13:30Z</time>
      </trkpt>
      <trkpt lat="43.58284" lon="3.10888">
        <ele>189.670426</ele>
        <time>2025-10-23T14:13:31Z</time>
      </trkpt>
      <trkpt lat="43.58284" lon="3.10885">
        <ele>189.727241</ele>
        <time>2025-10-23T14:13:32Z</time>
      </trkpt>
      <trkpt lat="43.58284" lon="3.10881">
        <ele>189.787582</ele>
        <time>2025-10-23T14:13:33Z</time>
      </trkpt>
      <trkpt lat="43.58283" lon="3.10878">
        <ele>189.846007</ele>
        <time>2025-10-23T14:13:34Z</time>
      </trkpt>
      <trkpt lat="43.58283" lon="3.10874">
        <ele>189.907967</ele>
        <time>2025-10-23T14:13:35Z</time>
      </trkpt>
      <trkpt lat="43.58283" lon="3.10871">
        <ele>189.973599</ele>
        <time>2025-10-23T14:13:36Z</time>
      </trkpt>
      <trkpt lat="43.58283" lon="3.10867">
        <ele>190.039048</ele>
        <time>2025-10-23T14:13:37Z</time>
      </trkpt>
      <trkpt lat="43.58283" lon="3.10863">
        <ele>190.106665</ele>
        <time>2025-10-23T14:13:38Z</time>
      </trkpt>
      <trkpt lat="43.58283" lon="3.10859">
        <ele>190.172114</ele>
        <time>2025-10-23T14:13:39Z</time>
      </trkpt>
      <trkpt lat="43.58283" lon="3.10856">
        <ele>190.241102</ele>
        <time>2025-10-23T14:13:40Z</time>
      </trkpt>
      <trkpt lat="43.58283" lon="3.10852">
        <ele>190.312236</ele>
        <time>2025-10-23T14:13:41Z</time>
      </trkpt>
      <trkpt lat="43.58283" lon="3.10847">
        <ele>190.38717</ele>
        <time>2025-10-23T14:13:42Z</time>
      </trkpt>
      <trkpt lat="43.58282" lon="3.10843">
        <ele>190.465346</ele>
        <time>2025-10-23T14:13:43Z</time>
      </trkpt>
      <trkpt lat="43.58282" lon="3.10838">
        <ele>190.548806</ele>
        <time>2025-10-23T14:13:44Z</time>
      </trkpt>
      <trkpt lat="43.58282" lon="3.10834">
        <ele>190.630505</ele>
        <time>2025-10-23T14:13:45Z</time>
      </trkpt>
      <trkpt lat="43.58281" lon="3.10829">
        <ele>190.708948</ele>
        <time>2025-10-23T14:13:46Z</time>
      </trkpt>
      <trkpt lat="43.58281" lon="3.10825">
        <ele>190.790464</ele>
        <time>2025-10-23T14:13:47Z</time>
      </trkpt>
      <trkpt lat="43.58281" lon="3.1082">
        <ele>190.86864</ele>
        <time>2025-10-23T14:13:48Z</time>
      </trkpt>
      <trkpt lat="43.5828" lon="3.10816">
        <ele>190.947424</ele>
        <time>2025-10-23T14:13:49Z</time>
      </trkpt>
      <trkpt lat="43.5828" lon="3.10811">
        <ele>191.031106</ele>
        <time>2025-10-23T14:13:50Z</time>
      </trkpt>
      <trkpt lat="43.58278" lon="3.10807">
        <ele>191.115929</ele>
        <time>2025-10-23T14:13:51Z</time>
      </trkpt>
      <trkpt lat="43.58277" lon="3.10802">
        <ele>191.20686</ele>
        <time>2025-10-23T14:13:52Z</time>
      </trkpt>
      <trkpt lat="43.58275" lon="3.10798">
        <ele>191.304542</ele>
        <time>2025-10-23T14:13:53Z</time>
      </trkpt>
      <trkpt lat="43.58272" lon="3.10793">
        <ele>191.401963</ele>
        <time>2025-10-23T14:13:54Z</time>
      </trkpt>
      <trkpt lat="43.5827" lon="3.10788">
        <ele>191.502242</ele>
        <time>2025-10-23T14:13:55Z</time>
      </trkpt>
      <trkpt lat="43.58268" lon="3.10784">
        <ele>191.601228</ele>
        <time>2025-10-23T14:13:56Z</time>
      </trkpt>
      <trkpt lat="43.58265" lon="3.10779">
        <ele>191.706227</ele>
        <time>2025-10-23T14:13:57Z</time>
      </trkpt>
      <trkpt lat="43.58263" lon="3.10773">
        <ele>191.814002</ele>
        <time>2025-10-23T14:13:58Z</time>
      </trkpt>
      <trkpt lat="43.5826" lon="3.10768">
        <ele>191.924319</ele>
        <time>2025-10-23T14:13:59Z</time>
      </trkpt>
      <trkpt lat="43.58258" lon="3.10764">
        <ele>192.033335</ele>
        <time>2025-10-23T14:14:00Z</time>
      </trkpt>
      <trkpt lat="43.58255" lon="3.10758">
        <ele>192.146508</ele>
        <time>2025-10-23T14:14:01Z</time>
      </trkpt>
      <trkpt lat="43.58252" lon="3.10753">
        <ele>192.256825</ele>
        <time>2025-10-23T14:14:02Z</time>
      </trkpt>
      <trkpt lat="43.58249" lon="3.10748">
        <ele>192.373244</ele>
        <time>2025-10-23T14:14:03Z</time>
      </trkpt>
      <trkpt lat="43.58245" lon="3.10745">
        <ele>192.483783</ele>
        <time>2025-10-23T14:14:04Z</time>
      </trkpt>
      <trkpt lat="43.58242" lon="3.10742">
        <ele>192.592807</ele>
        <time>2025-10-23T14:14:05Z</time>
      </trkpt>
      <trkpt lat="43.58237" lon="3.10738">
        <ele>192.727056</ele>
        <time>2025-10-23T14:14:06Z</time>
      </trkpt>
      <trkpt lat="43.58232" lon="3.10734">
        <ele>192.648952</ele>
        <time>2025-10-23T14:14:07Z</time>
      </trkpt>
      <trkpt lat="43.58227" lon="3.10729">
        <ele>192.541558</ele>
        <time>2025-10-23T14:14:08Z</time>
      </trkpt>
      <trkpt lat="43.58224" lon="3.10724">
        <ele>192.444569</ele>
        <time>2025-10-23T14:14:09Z</time>
      </trkpt>
      <trkpt lat="43.58223" lon="3.10718">
        <ele>192.363862</ele>
        <time>2025-10-23T14:14:10Z</time>
      </trkpt>
      <trkpt lat="43.58223" lon="3.10713">
        <ele>192.294951</ele>
        <time>2025-10-23T14:14:11Z</time>
      </trkpt>
      <trkpt lat="43.58224" lon="3.10709">
        <ele>192.232523</ele>
        <time>2025-10-23T14:14:12Z</time>
      </trkpt>
      <trkpt lat="43.58224" lon="3.10704">
        <ele>192.173951</ele>
        <time>2025-10-23T14:14:13Z</time>
      </trkpt>
      <trkpt lat="43.58225" lon="3.107">
        <ele>192.109708</ele>
        <time>2025-10-23T14:14:14Z</time>
      </trkpt>
      <trkpt lat="43.58225" lon="3.10696">
        <ele>192.051414</ele>
        <time>2025-10-23T14:14:15Z</time>
      </trkpt>
      <trkpt lat="43.58226" lon="3.10692">
        <ele>191.994705</ele>
        <time>2025-10-23T14:14:16Z</time>
      </trkpt>
      <trkpt lat="43.58225" lon="3.10687">
        <ele>191.935258</ele>
        <time>2025-10-23T14:14:17Z</time>
      </trkpt>
      <trkpt lat="43.58225" lon="3.10683">
        <ele>191.874609</ele>
        <time>2025-10-23T14:14:18Z</time>
      </trkpt>
      <trkpt lat="43.58224" lon="3.10678">
        <ele>191.80771</ele>
        <time>2025-10-23T14:14:19Z</time>
      </trkpt>
      <trkpt lat="43.58223" lon="3.10674">
        <ele>191.743011</ele>
        <time>2025-10-23T14:14:20Z</time>
      </trkpt>
      <trkpt lat="43.58221" lon="3.1067">
        <ele>191.680636</ele>
        <time>2025-10-23T14:14:21Z</time>
      </trkpt>
      <trkpt lat="43.5822" lon="3.10666">
        <ele>191.617881</ele>
        <time>2025-10-23T14:14:22Z</time>
      </trkpt>
      <trkpt lat="43.58218" lon="3.10662">
        <ele>191.554061</ele>
        <time>2025-10-23T14:14:23Z</time>
      </trkpt>
      <trkpt lat="43.58217" lon="3.10658">
        <ele>191.490425</ele>
        <time>2025-10-23T14:14:24Z</time>
      </trkpt>
      <trkpt lat="43.58215" lon="3.10654">
        <ele>191.432415</ele>
        <time>2025-10-23T14:14:25Z</time>
      </trkpt>
      <trkpt lat="43.58213" lon="3.10651">
        <ele>191.375477</ele>
        <time>2025-10-23T14:14:26Z</time>
      </trkpt>
      <trkpt lat="43.58211" lon="3.10648">
        <ele>191.31187</ele>
        <time>2025-10-23T14:14:27Z</time>
      </trkpt>
      <trkpt lat="43.58208" lon="3.10644">
        <ele>191.242242</ele>
        <time>2025-10-23T14:14:28Z</time>
      </trkpt>
      <trkpt lat="43.58205" lon="3.1064">
        <ele>191.161631</ele>
        <time>2025-10-23T14:14:29Z</time>
      </trkpt>
      <trkpt lat="43.58201" lon="3.10636">
        <ele>191.075605</ele>
        <time>2025-10-23T14:14:30Z</time>
      </trkpt>
      <trkpt lat="43.58197" lon="3.10634">
        <ele>190.97995</ele>
        <time>2025-10-23T14:14:31Z</time>
      </trkpt>
      <trkpt lat="43.58191" lon="3.10633">
        <ele>190.874168</ele>
        <time>2025-10-23T14:14:32Z</time>
      </trkpt>
      <trkpt lat="43.58185" lon="3.10632">
        <ele>190.749588</ele>
        <time>2025-10-23T14:14:33Z</time>
      </trkpt>
      <trkpt lat="43.58177" lon="3.10629">
        <ele>190.599423</ele>
        <time>2025-10-23T14:14:34Z</time>
      </trkpt>
      <trkpt lat="43.58169" lon="3.10626">
        <ele>190.446258</ele>
        <time>2025-10-23T14:14:35Z</time>
      </trkpt>
      <trkpt lat="43.58161" lon="3.10622">
        <ele>190.284603</ele>
        <time>2025-10-23T14:14:36Z</time>
      </trkpt>
      <trkpt lat="43.58154" lon="3.10619">
        <ele>190.138678</ele>
        <time>2025-10-23T14:14:37Z</time>
      </trkpt>
      <trkpt lat="43.58148" lon="3.10615">
        <ele>190.020718</ele>
        <time>2025-10-23T14:14:38Z</time>
      </trkpt>
      <trkpt lat="43.58144" lon="3.10611">
        <ele>189.911999</ele>
        <time>2025-10-23T14:14:39Z</time>
      </trkpt>
      <trkpt lat="43.58141" lon="3.10604">
        <ele>189.808115</ele>
        <time>2025-10-23T14:14:40Z</time>
      </trkpt>
      <trkpt lat="43.5814" lon="3.10597">
        <ele>189.709544</ele>
        <time>2025-10-23T14:14:41Z</time>
      </trkpt>
      <trkpt lat="43.5814" lon="3.1059">
        <ele>189.611378</ele>
        <time>2025-10-23T14:14:42Z</time>
      </trkpt>
      <trkpt lat="43.58142" lon="3.10584">
        <ele>189.511827</ele>
        <time>2025-10-23T14:14:43Z</time>
      </trkpt>
      <trkpt lat="43.58145" lon="3.10578">
        <ele>189.417009</ele>
        <time>2025-10-23T14:14:44Z</time>
      </trkpt>
      <trkpt lat="43.58148" lon="3.10574">
        <ele>189.33993</ele>
        <time>2025-10-23T14:14:45Z</time>
      </trkpt>
      <trkpt lat="43.5815" lon="3.1057">
        <ele>189.462136</ele>
        <time>2025-10-23T14:14:46Z</time>
      </trkpt>
      <trkpt lat="43.58152" lon="3.10567">
        <ele>189.595888</ele>
        <time>2025-10-23T14:14:47Z</time>
      </trkpt>
      <trkpt lat="43.58153" lon="3.10563">
        <ele>189.715725</ele>
        <time>2025-10-23T14:14:48Z</time>
      </trkpt>
      <trkpt lat="43.58154" lon="3.1056">
        <ele>189.836781</ele>
        <time>2025-10-23T14:14:49Z</time>
      </trkpt>
      <trkpt lat="43.58154" lon="3.10556">
        <ele>189.968308</ele>
        <time>2025-10-23T14:14:50Z</time>
      </trkpt>
      <trkpt lat="43.58154" lon="3.10553">
        <ele>190.070979</ele>
        <time>2025-10-23T14:14:51Z</time>
      </trkpt>
      <trkpt lat="43.58155" lon="3.1055">
        <ele>190.165128</ele>
        <time>2025-10-23T14:14:52Z</time>
      </trkpt>
      <trkpt lat="43.58156" lon="3.10548">
        <ele>190.247428</ele>
        <time>2025-10-23T14:14:53Z</time>
      </trkpt>
      <trkpt lat="43.58156" lon="3.10545">
        <ele>190.336171</ele>
        <time>2025-10-23T14:14:54Z</time>
      </trkpt>
      <trkpt lat="43.58157" lon="3.10543">
        <ele>190.415389</ele>
        <time>2025-10-23T14:14:55Z</time>
      </trkpt>
      <trkpt lat="43.58157" lon="3.1054">
        <ele>190.498363</ele>
        <time>2025-10-23T14:14:56Z</time>
      </trkpt>
      <trkpt lat="43.58157" lon="3.10538">
        <ele>190.585216</ele>
        <time>2025-10-23T14:14:57Z</time>
      </trkpt>
      <trkpt lat="43.58157" lon="3.10535">
        <ele>190.671108</ele>
        <time>2025-10-23T14:14:58Z</time>
      </trkpt>
      <trkpt lat="43.58157" lon="3.10532">
        <ele>190.76359</ele>
        <time>2025-10-23T14:14:59Z</time>
      </trkpt>
      <trkpt lat="43.58156" lon="3.1053">
        <ele>190.831966</ele>
        <time>2025-10-23T14:15:00Z</time>
      </trkpt>
      <trkpt lat="43.58156" lon="3.10528">
        <ele>190.901393</ele>
        <time>2025-10-23T14:15:01Z</time>
      </trkpt>
      <trkpt lat="43.58156" lon="3.10526">
        <ele>190.974112</ele>
        <time>2025-10-23T14:15:02Z</time>
      </trkpt>
      <trkpt lat="43.58157" lon="3.10524">
        <ele>191.04149</ele>
        <time>2025-10-23T14:15:03Z</time>
      </trkpt>
      <trkpt lat="43.58157" lon="3.10523">
        <ele>191.094469</ele>
        <time>2025-10-23T14:15:04Z</time>
      </trkpt>
      <trkpt lat="43.58157" lon="3.10521">
        <ele>191.164266</ele>
        <time>2025-10-23T14:15:05Z</time>
      </trkpt>
      <trkpt lat="43.58158" lon="3.10518">
        <ele>191.237189</ele>
        <time>2025-10-23T14:15:06Z</time>
      </trkpt>
      <trkpt lat="43.58158" lon="3.10516">
        <ele>191.321357</ele>
        <time>2025-10-23T14:15:07Z</time>
      </trkpt>
      <trkpt lat="43.58159" lon="3.10514">
        <ele>191.409042</ele>
        <time>2025-10-23T14:15:08Z</time>
      </trkpt>
      <trkpt lat="43.58159" lon="3.10511">
        <ele>191.504177</ele>
        <time>2025-10-23T14:15:09Z</time>
      </trkpt>
      <trkpt lat="43.5816" lon="3.10508">
        <ele>191.603671</ele>
        <time>2025-10-23T14:15:10Z</time>
      </trkpt>
      <trkpt lat="43.58161" lon="3.10506">
        <ele>191.678142</ele>
        <time>2025-10-23T14:15:11Z</time>
      </trkpt>
      <trkpt lat="43.58162" lon="3.10504">
        <ele>191.763633</ele>
        <time>2025-10-23T14:15:12Z</time>
      </trkpt>
      <trkpt lat="43.58162" lon="3.10502">
        <ele>191.841906</ele>
        <time>2025-10-23T14:15:13Z</time>
      </trkpt>
      <trkpt lat="43.58163" lon="3.10499">
        <ele>191.921175</ele>
        <time>2025-10-23T14:15:14Z</time>
      </trkpt>
      <trkpt lat="43.58164" lon="3.10498">
        <ele>191.98654</ele>
        <time>2025-10-23T14:15:15Z</time>
      </trkpt>
      <trkpt lat="43.58164" lon="3.10496">
        <ele>192.056337</ele>
        <time>2025-10-23T14:15:16Z</time>
      </trkpt>
      <trkpt lat="43.58165" lon="3.10493">
        <ele>192.127969</ele>
        <time>2025-10-23T14:15:17Z</time>
      </trkpt>
      <trkpt lat="43.58165" lon="3.10491">
        <ele>192.202796</ele>
        <time>2025-10-23T14:15:18Z</time>
      </trkpt>
      <trkpt lat="43.58165" lon="3.10489">
        <ele>192.279891</ele>
        <time>2025-10-23T14:15:19Z</time>
      </trkpt>
      <trkpt lat="43.58166" lon="3.10487">
        <ele>192.356311</ele>
        <time>2025-10-23T14:15:20Z</time>
      </trkpt>
      <trkpt lat="43.58166" lon="3.10484">
        <ele>192.440771</ele>
        <time>2025-10-23T14:15:21Z</time>
      </trkpt>
      <trkpt lat="43.58166" lon="3.10482">
        <ele>192.527624</ele>
        <time>2025-10-23T14:15:22Z</time>
      </trkpt>
      <trkpt lat="43.58165" lon="3.10479">
        <ele>192.604719</ele>
        <time>2025-10-23T14:15:23Z</time>
      </trkpt>
      <trkpt lat="43.58165" lon="3.10477">
        <ele>192.687693</ele>
        <time>2025-10-23T14:15:24Z</time>
      </trkpt>
      <trkpt lat="43.58165" lon="3.10474">
        <ele>192.763705</ele>
        <time>2025-10-23T14:15:25Z</time>
      </trkpt>
      <trkpt lat="43.58165" lon="3.10472">
        <ele>192.843401</ele>
        <time>2025-10-23T14:15:26Z</time>
      </trkpt>
      <trkpt lat="43.58164" lon="3.10469">
        <ele>192.931085</ele>
        <time>2025-10-23T14:15:27Z</time>
      </trkpt>
      <trkpt lat="43.58164" lon="3.10467">
        <ele>193.015546</ele>
        <time>2025-10-23T14:15:28Z</time>
      </trkpt>
      <trkpt lat="43.58164" lon="3.10465">
        <ele>193.088691</ele>
        <time>2025-10-23T14:15:29Z</time>
      </trkpt>
      <trkpt lat="43.58164" lon="3.10462">
        <ele>193.167865</ele>
        <time>2025-10-23T14:15:30Z</time>
      </trkpt>
      <trkpt lat="43.58164" lon="3.1046">
        <ele>193.243877</ele>
        <time>2025-10-23T14:15:31Z</time>
      </trkpt>
      <trkpt lat="43.58164" lon="3.10458">
        <ele>193.317022</ele>
        <time>2025-10-23T14:15:32Z</time>
      </trkpt>
      <trkpt lat="43.58164" lon="3.10456">
        <ele>193.383</ele>
        <time>2025-10-23T14:15:33Z</time>
      </trkpt>
      <trkpt lat="43.58163" lon="3.10454">
        <ele>193.456145</ele>
        <time>2025-10-23T14:15:34Z</time>
      </trkpt>
      <trkpt lat="43.58163" lon="3.10451">
        <ele>193.528864</ele>
        <time>2025-10-23T14:15:35Z</time>
      </trkpt>
      <trkpt lat="43.58163" lon="3.10449">
        <ele>193.605959</ele>
        <time>2025-10-23T14:15:36Z</time>
      </trkpt>
      <trkpt lat="43.58163" lon="3.10447">
        <ele>193.681971</ele>
        <time>2025-10-23T14:15:37Z</time>
      </trkpt>
      <trkpt lat="43.58163" lon="3.10445">
        <ele>193.755247</ele>
        <time>2025-10-23T14:15:38Z</time>
      </trkpt>
      <trkpt lat="43.58162" lon="3.10443">
        <ele>193.832796</ele>
        <time>2025-10-23T14:15:39Z</time>
      </trkpt>
      <trkpt lat="43.58161" lon="3.10441">
        <ele>193.905719</ele>
        <time>2025-10-23T14:15:40Z</time>
      </trkpt>
      <trkpt lat="43.58161" lon="3.10439">
        <ele>193.961557</ele>
        <time>2025-10-23T14:15:41Z</time>
      </trkpt>
      <trkpt lat="43.58161" lon="3.10437">
        <ele>194.028244</ele>
        <time>2025-10-23T14:15:42Z</time>
      </trkpt>
      <trkpt lat="43.5816" lon="3.10435">
        <ele>194.099876</ele>
        <time>2025-10-23T14:15:43Z</time>
      </trkpt>
      <trkpt lat="43.5816" lon="3.10432">
        <ele>194.185434</ele>
        <time>2025-10-23T14:15:44Z</time>
      </trkpt>
      <trkpt lat="43.58159" lon="3.1043">
        <ele>194.268408</ele>
        <time>2025-10-23T14:15:45Z</time>
      </trkpt>
      <trkpt lat="43.5816" lon="3.10428">
        <ele>194.331253</ele>
        <time>2025-10-23T14:15:46Z</time>
      </trkpt>
      <trkpt lat="43.5816" lon="3.10426">
        <ele>194.394849</ele>
        <time>2025-10-23T14:15:47Z</time>
      </trkpt>
      <trkpt lat="43.5816" lon="3.10425">
        <ele>194.434436</ele>
        <time>2025-10-23T14:15:48Z</time>
      </trkpt>
      <trkpt lat="43.5816" lon="3.10424">
        <ele>194.457529</ele>
        <time>2025-10-23T14:15:49Z</time>
      </trkpt>
      <trkpt lat="43.5816" lon="3.10424">
        <ele>194.481066</ele>
        <time>2025-10-23T14:15:50Z</time>
      </trkpt>
      <trkpt lat="43.5816" lon="3.10423">
        <ele>194.487664</ele>
        <time>2025-10-23T14:15:51Z</time>
      </trkpt>
      <trkpt lat="43.5816" lon="3.10423">
        <ele>194.514445</ele>
        <time>2025-10-23T14:15:52Z</time>
      </trkpt>
      <trkpt lat="43.5816" lon="3.10423">
        <ele>194.518999</ele>
        <time>2025-10-23T14:15:53Z</time>
      </trkpt>
      <trkpt lat="43.5816" lon="3.10423">
        <ele>194.518999</ele>
        <time>2025-10-23T14:15:54Z</time>
      </trkpt>
      <trkpt lat="43.5816" lon="3.10423">
        <ele>194.524622</ele>
        <time>2025-10-23T14:15:55Z</time>
      </trkpt>
      <trkpt lat="43.5816" lon="3.10422">
        <ele>194.546411</ele>
        <time>2025-10-23T14:15:56Z</time>
      </trkpt>
      <trkpt lat="43.5816" lon="3.10422">
        <ele>194.567142</ele>
        <time>2025-10-23T14:15:57Z</time>
      </trkpt>
      <trkpt lat="43.5816" lon="3.10422">
        <ele>194.571696</ele>
        <time>2025-10-23T14:15:58Z</time>
      </trkpt>
      <trkpt lat="43.5816" lon="3.10422">
        <ele>194.574995</ele>
        <time>2025-10-23T14:15:59Z</time>
      </trkpt>
      <trkpt lat="43.5816" lon="3.10422">
        <ele>194.578294</ele>
        <time>2025-10-23T14:16:00Z</time>
      </trkpt>
      <trkpt lat="43.5816" lon="3.10422">
        <ele>194.583917</ele>
        <time>2025-10-23T14:16:01Z</time>
      </trkpt>
      <trkpt lat="43.5816" lon="3.10421">
        <ele>194.587216</ele>
        <time>2025-10-23T14:16:02Z</time>
      </trkpt>
      <trkpt lat="43.5816" lon="3.10421">
        <ele>194.587216</ele>
        <time>2025-10-23T14:16:03Z</time>
      </trkpt>
      <trkpt lat="43.5816" lon="3.10421">
        <ele>194.587216</ele>
        <time>2025-10-23T14:16:04Z</time>
      </trkpt>
      <trkpt lat="43.5816" lon="3.10421">
        <ele>194.587216</ele>
        <time>2025-10-23T14:16:05Z</time>
      </trkpt>
      <trkpt lat="43.5816" lon="3.10421">
        <ele>194.587216</ele>
        <time>2025-10-23T14:16:06Z</time>
      </trkpt>
      <trkpt lat="43.5816" lon="3.10421">
        <ele>194.590515</ele>
        <time>2025-10-23T14:16:07Z</time>
      </trkpt>
      <trkpt lat="43.5816" lon="3.10421">
        <ele>194.590515</ele>
        <time>2025-10-23T14:16:08Z</time>
      </trkpt>
      <trkpt lat="43.5816" lon="3.10421">
        <ele>194.593814</ele>
        <time>2025-10-23T14:16:09Z</time>
      </trkpt>
      <trkpt lat="43.5816" lon="3.10421">
        <ele>194.597113</ele>
        <time>2025-10-23T14:16:10Z</time>
      </trkpt>
      <trkpt lat="43.5816" lon="3.10421">
        <ele>194.597113</ele>
        <time>2025-10-23T14:16:11Z</time>
      </trkpt>
      <trkpt lat="43.58161" lon="3.10422">
        <ele>194.617844</ele>
        <time>2025-10-23T14:16:12Z</time>
      </trkpt>
      <trkpt lat="43.58161" lon="3.10422">
        <ele>194.617844</ele>
        <time>2025-10-23T14:16:13Z</time>
      </trkpt>
      <trkpt lat="43.58161" lon="3.10422">
        <ele>194.617844</ele>
        <time>2025-10-23T14:16:14Z</time>
      </trkpt>
      <trkpt lat="43.58161" lon="3.10422">
        <ele>194.627531</ele>
        <time>2025-10-23T14:16:15Z</time>
      </trkpt>
      <trkpt lat="43.58161" lon="3.10422">
        <ele>194.632085</ele>
        <time>2025-10-23T14:16:16Z</time>
      </trkpt>
      <trkpt lat="43.58161" lon="3.10422">
        <ele>194.635384</ele>
        <time>2025-10-23T14:16:17Z</time>
      </trkpt>
      <trkpt lat="43.58161" lon="3.10422">
        <ele>194.635384</ele>
        <time>2025-10-23T14:16:18Z</time>
      </trkpt>
      <trkpt lat="43.58161" lon="3.10422">
        <ele>194.641007</ele>
        <time>2025-10-23T14:16:19Z</time>
      </trkpt>
      <trkpt lat="43.58161" lon="3.10422">
        <ele>194.641007</ele>
        <time>2025-10-23T14:16:20Z</time>
      </trkpt>
      <trkpt lat="43.58161" lon="3.10422">
        <ele>194.644306</ele>
        <time>2025-10-23T14:16:21Z</time>
      </trkpt>
      <trkpt lat="43.58161" lon="3.10422">
        <ele>194.644306</ele>
        <time>2025-10-23T14:16:22Z</time>
      </trkpt>
      <trkpt lat="43.58161" lon="3.10422">
        <ele>194.647605</ele>
        <time>2025-10-23T14:16:23Z</time>
      </trkpt>
      <trkpt lat="43.58161" lon="3.10422">
        <ele>194.652159</ele>
        <time>2025-10-23T14:16:24Z</time>
      </trkpt>
      <trkpt lat="43.58161" lon="3.10422">
        <ele>194.660176</ele>
        <time>2025-10-23T14:16:25Z</time>
      </trkpt>
      <trkpt lat="43.58162" lon="3.10422">
        <ele>194.701295</ele>
        <time>2025-10-23T14:16:26Z</time>
      </trkpt>
      <trkpt lat="43.58162" lon="3.1042">
        <ele>194.754273</ele>
        <time>2025-10-23T14:16:27Z</time>
      </trkpt>
      <trkpt lat="43.58161" lon="3.10418">
        <ele>194.826425</ele>
        <time>2025-10-23T14:16:28Z</time>
      </trkpt>
      <trkpt lat="43.58159" lon="3.10417">
        <ele>194.910776</ele>
        <time>2025-10-23T14:16:29Z</time>
      </trkpt>
      <trkpt lat="43.58158" lon="3.10416">
        <ele>194.983879</ele>
        <time>2025-10-23T14:16:30Z</time>
      </trkpt>
      <trkpt lat="43.58157" lon="3.10414">
        <ele>195.056649</ele>
        <time>2025-10-23T14:16:31Z</time>
      </trkpt>
      <trkpt lat="43.58156" lon="3.10412">
        <ele>195.144886</ele>
        <time>2025-10-23T14:16:32Z</time>
      </trkpt>
      <trkpt lat="43.58155" lon="3.1041">
        <ele>195.238546</ele>
        <time>2025-10-23T14:16:33Z</time>
      </trkpt>
      <trkpt lat="43.58153" lon="3.10407">
        <ele>195.340737</ele>
        <time>2025-10-23T14:16:34Z</time>
      </trkpt>
      <trkpt lat="43.58152" lon="3.10404">
        <ele>195.442929</ele>
        <time>2025-10-23T14:16:35Z</time>
      </trkpt>
      <trkpt lat="43.58151" lon="3.10402">
        <ele>195.541789</ele>
        <time>2025-10-23T14:16:36Z</time>
      </trkpt>
      <trkpt lat="43.5815" lon="3.104">
        <ele>195.643443</ele>
        <time>2025-10-23T14:16:37Z</time>
      </trkpt>
      <trkpt lat="43.58148" lon="3.10397">
        <ele>195.750767</ele>
        <time>2025-10-23T14:16:38Z</time>
      </trkpt>
      <trkpt lat="43.58148" lon="3.10393">
        <ele>195.871692</ele>
        <time>2025-10-23T14:16:39Z</time>
      </trkpt>
      <trkpt lat="43.58147" lon="3.1039">
        <ele>195.987135</ele>
        <time>2025-10-23T14:16:40Z</time>
      </trkpt>
      <trkpt lat="43.58146" lon="3.10387">
        <ele>196.105302</ele>
        <time>2025-10-23T14:16:41Z</time>
      </trkpt>
      <trkpt lat="43.58145" lon="3.10384">
        <ele>196.204631</ele>
        <time>2025-10-23T14:16:42Z</time>
      </trkpt>
      <trkpt lat="43.58144" lon="3.10381">
        <ele>196.316306</ele>
        <time>2025-10-23T14:16:43Z</time>
      </trkpt>
      <trkpt lat="43.58143" lon="3.10378">
        <ele>196.428812</ele>
        <time>2025-10-23T14:16:44Z</time>
      </trkpt>
      <trkpt lat="43.58141" lon="3.10376">
        <ele>196.521521</ele>
        <time>2025-10-23T14:16:45Z</time>
      </trkpt>
      <trkpt lat="43.58139" lon="3.10375">
        <ele>196.620833</ele>
        <time>2025-10-23T14:16:46Z</time>
      </trkpt>
      <trkpt lat="43.58137" lon="3.10374">
        <ele>196.729702</ele>
        <time>2025-10-23T14:16:47Z</time>
      </trkpt>
      <trkpt lat="43.58135" lon="3.10374">
        <ele>196.821022</ele>
        <time>2025-10-23T14:16:48Z</time>
      </trkpt>
      <trkpt lat="43.58133" lon="3.10373">
        <ele>196.912638</ele>
        <time>2025-10-23T14:16:49Z</time>
      </trkpt>
      <trkpt lat="43.58131" lon="3.10373">
        <ele>197.02668</ele>
        <time>2025-10-23T14:16:50Z</time>
      </trkpt>
      <trkpt lat="43.58129" lon="3.10372">
        <ele>197.118159</ele>
        <time>2025-10-23T14:16:51Z</time>
      </trkpt>
      <trkpt lat="43.58127" lon="3.10371">
        <ele>197.205343</ele>
        <time>2025-10-23T14:16:52Z</time>
      </trkpt>
      <trkpt lat="43.58126" lon="3.10371">
        <ele>197.255953</ele>
        <time>2025-10-23T14:16:53Z</time>
      </trkpt>
      <trkpt lat="43.58125" lon="3.1037">
        <ele>197.301828</ele>
        <time>2025-10-23T14:16:54Z</time>
      </trkpt>
      <trkpt lat="43.58125" lon="3.10369">
        <ele>197.341913</ele>
        <time>2025-10-23T14:16:55Z</time>
      </trkpt>
      <trkpt lat="43.58125" lon="3.10368">
        <ele>197.372969</ele>
        <time>2025-10-23T14:16:56Z</time>
      </trkpt>
      <trkpt lat="43.58125" lon="3.10367">
        <ele>197.392762</ele>
        <time>2025-10-23T14:16:57Z</time>
      </trkpt>
      <trkpt lat="43.58124" lon="3.10366">
        <ele>197.428538</ele>
        <time>2025-10-23T14:16:58Z</time>
      </trkpt>
      <trkpt lat="43.58124" lon="3.10366">
        <ele>197.444572</ele>
        <time>2025-10-23T14:16:59Z</time>
      </trkpt>
      <trkpt lat="43.58124" lon="3.10365">
        <ele>197.461066</ele>
        <time>2025-10-23T14:17:00Z</time>
      </trkpt>
      <trkpt lat="43.58124" lon="3.10366">
        <ele>197.489183</ele>
        <time>2025-10-23T14:17:01Z</time>
      </trkpt>
      <trkpt lat="43.58124" lon="3.10366">
        <ele>197.494806</ele>
        <time>2025-10-23T14:17:02Z</time>
      </trkpt>
      <trkpt lat="43.58124" lon="3.10366">
        <ele>197.494806</ele>
        <time>2025-10-23T14:17:03Z</time>
      </trkpt>
      <trkpt lat="43.58124" lon="3.10366">
        <ele>197.508861</ele>
        <time>2025-10-23T14:17:04Z</time>
      </trkpt>
      <trkpt lat="43.58124" lon="3.10366">
        <ele>197.518548</ele>
        <time>2025-10-23T14:17:05Z</time>
      </trkpt>
      <trkpt lat="43.58124" lon="3.10366">
        <ele>197.520538</ele>
        <time>2025-10-23T14:17:06Z</time>
      </trkpt>
      <trkpt lat="43.58124" lon="3.10365">
        <ele>197.520547</ele>
        <time>2025-10-23T14:17:07Z</time>
      </trkpt>
      <trkpt lat="43.58124" lon="3.10365">
        <ele>197.520559</ele>
        <time>2025-10-23T14:17:08Z</time>
      </trkpt>
      <trkpt lat="43.58124" lon="3.10365">
        <ele>197.520561</ele>
        <time>2025-10-23T14:17:09Z</time>
      </trkpt>
      <trkpt lat="43.58124" lon="3.10365">
        <ele>197.520569</ele>
        <time>2025-10-23T14:17:10Z</time>
      </trkpt>
      <trkpt lat="43.58124" lon="3.10365">
        <ele>197.520581</ele>
        <time>2025-10-23T14:17:11Z</time>
      </trkpt>
      <trkpt lat="43.58123" lon="3.10364">
        <ele>197.520608</ele>
        <time>2025-10-23T14:17:12Z</time>
      </trkpt>
      <trkpt lat="43.58123" lon="3.10363">
        <ele>197.52063</ele>
        <time>2025-10-23T14:17:13Z</time>
      </trkpt>
      <trkpt lat="43.58122" lon="3.10362">
        <ele>197.520652</ele>
        <time>2025-10-23T14:17:14Z</time>
      </trkpt>
      <trkpt lat="43.58122" lon="3.10361">
        <ele>197.520671</ele>
        <time>2025-10-23T14:17:15Z</time>
      </trkpt>
      <trkpt lat="43.58122" lon="3.1036">
        <ele>197.520686</ele>
        <time>2025-10-23T14:17:16Z</time>
      </trkpt>
      <trkpt lat="43.58122" lon="3.10359">
        <ele>197.520703</ele>
        <time>2025-10-23T14:17:17Z</time>
      </trkpt>
      <trkpt lat="43.58122" lon="3.10359">
        <ele>197.520715</ele>
        <time>2025-10-23T14:17:18Z</time>
      </trkpt>
      <trkpt lat="43.58122" lon="3.10358">
        <ele>197.520726</ele>
        <time>2025-10-23T14:17:19Z</time>
      </trkpt>
      <trkpt lat="43.58122" lon="3.10358">
        <ele>197.520735</ele>
        <time>2025-10-23T14:17:20Z</time>
      </trkpt>
      <trkpt lat="43.58123" lon="3.10358">
        <ele>197.520744</ele>
        <time>2025-10-23T14:17:21Z</time>
      </trkpt>
      <trkpt lat="43.58123" lon="3.10358">
        <ele>197.520751</ele>
        <time>2025-10-23T14:17:22Z</time>
      </trkpt>
      <trkpt lat="43.58123" lon="3.10357">
        <ele>197.520761</ele>
        <time>2025-10-23T14:17:23Z</time>
      </trkpt>
      <trkpt lat="43.58123" lon="3.10357">
        <ele>197.52077</ele>
        <time>2025-10-23T14:17:24Z</time>
      </trkpt>
      <trkpt lat="43.58123" lon="3.10357">
        <ele>197.520773</ele>
        <time>2025-10-23T14:17:25Z</time>
      </trkpt>
      <trkpt lat="43.58123" lon="3.10358">
        <ele>197.520777</ele>
        <time>2025-10-23T14:17:26Z</time>
      </trkpt>
      <trkpt lat="43.58123" lon="3.10358">
        <ele>197.520786</ele>
        <time>2025-10-23T14:17:27Z</time>
      </trkpt>
      <trkpt lat="43.58123" lon="3.10358">
        <ele>197.520794</ele>
        <time>2025-10-23T14:17:28Z</time>
      </trkpt>
      <trkpt lat="43.58124" lon="3.10359">
        <ele>197.520812</ele>
        <time>2025-10-23T14:17:29Z</time>
      </trkpt>
      <trkpt lat="43.58124" lon="3.1036">
        <ele>197.520826</ele>
        <time>2025-10-23T14:17:30Z</time>
      </trkpt>
      <trkpt lat="43.58124" lon="3.1036">
        <ele>197.520831</ele>
        <time>2025-10-23T14:17:31Z</time>
      </trkpt>
      <trkpt lat="43.58124" lon="3.1036">
        <ele>197.520835</ele>
        <time>2025-10-23T14:17:32Z</time>
      </trkpt>
      <trkpt lat="43.58124" lon="3.10361">
        <ele>197.520856</ele>
        <time>2025-10-23T14:17:33Z</time>
      </trkpt>
      <trkpt lat="43.58124" lon="3.10361">
        <ele>197.520866</ele>
        <time>2025-10-23T14:17:34Z</time>
      </trkpt>
      <trkpt lat="43.58124" lon="3.10362">
        <ele>197.520886</ele>
        <time>2025-10-23T14:17:35Z</time>
      </trkpt>
      <trkpt lat="43.58123" lon="3.10363">
        <ele>197.520925</ele>
        <time>2025-10-23T14:17:36Z</time>
      </trkpt>
      <trkpt lat="43.58123" lon="3.10364">
        <ele>197.520938</ele>
        <time>2025-10-23T14:17:37Z</time>
      </trkpt>
      <trkpt lat="43.58123" lon="3.10364">
        <ele>197.520946</ele>
        <time>2025-10-23T14:17:38Z</time>
      </trkpt>
      <trkpt lat="43.58122" lon="3.10365">
        <ele>197.520955</ele>
        <time>2025-10-23T14:17:39Z</time>
      </trkpt>
      <trkpt lat="43.58122" lon="3.10365">
        <ele>197.520968</ele>
        <time>2025-10-23T14:17:40Z</time>
      </trkpt>
      <trkpt lat="43.58122" lon="3.10365">
        <ele>197.52098</ele>
        <time>2025-10-23T14:17:41Z</time>
      </trkpt>
      <trkpt lat="43.58121" lon="3.10365">
        <ele>197.520995</ele>
        <time>2025-10-23T14:17:42Z</time>
      </trkpt>
      <trkpt lat="43.5812" lon="3.10364">
        <ele>197.521014</ele>
        <time>2025-10-23T14:17:43Z</time>
      </trkpt>
      <trkpt lat="43.5812" lon="3.10365">
        <ele>197.521035</ele>
        <time>2025-10-23T14:17:44Z</time>
      </trkpt>
      <trkpt lat="43.58119" lon="3.10365">
        <ele>197.521069</ele>
        <time>2025-10-23T14:17:45Z</time>
      </trkpt>
      <trkpt lat="43.58118" lon="3.10365">
        <ele>197.521095</ele>
        <time>2025-10-23T14:17:46Z</time>
      </trkpt>
      <trkpt lat="43.58116" lon="3.10365">
        <ele>197.521138</ele>
        <time>2025-10-23T14:17:47Z</time>
      </trkpt>
      <trkpt lat="43.58115" lon="3.10365">
        <ele>197.521177</ele>
        <time>2025-10-23T14:17:48Z</time>
      </trkpt>
      <trkpt lat="43.58114" lon="3.10364">
        <ele>197.521213</ele>
        <time>2025-10-23T14:17:49Z</time>
      </trkpt>
      <trkpt lat="43.58112" lon="3.10363">
        <ele>197.521253</ele>
        <time>2025-10-23T14:17:50Z</time>
      </trkpt>
      <trkpt lat="43.58111" lon="3.10364">
        <ele>197.521299</ele>
        <time>2025-10-23T14:17:51Z</time>
      </trkpt>
      <trkpt lat="43.58109" lon="3.10364">
        <ele>197.521349</ele>
        <time>2025-10-23T14:17:52Z</time>
      </trkpt>
      <trkpt lat="43.58107" lon="3.10365">
        <ele>197.521407</ele>
        <time>2025-10-23T14:17:53Z</time>
      </trkpt>
      <trkpt lat="43.58105" lon="3.10365">
        <ele>197.521461</ele>
        <time>2025-10-23T14:17:54Z</time>
      </trkpt>
      <trkpt lat="43.58103" lon="3.10365">
        <ele>197.521512</ele>
        <time>2025-10-23T14:17:55Z</time>
      </trkpt>
      <trkpt lat="43.58095" lon="3.1034">
        <ele>197.153005</ele>
        <time>2025-10-23T14:18:58Z</time>
      </trkpt>
      <trkpt lat="43.58097" lon="3.10336">
        <ele>196.994943</ele>
        <time>2025-10-23T14:18:59Z</time>
      </trkpt>
      <trkpt lat="43.58099" lon="3.10332">
        <ele>196.814491</ele>
        <time>2025-10-23T14:19:00Z</time>
      </trkpt>
      <trkpt lat="43.58102" lon="3.10328">
        <ele>196.63669</ele>
        <time>2025-10-23T14:19:01Z</time>
      </trkpt>
      <trkpt lat="43.58104" lon="3.10324">
        <ele>196.459299</ele>
        <time>2025-10-23T14:19:02Z</time>
      </trkpt>
      <trkpt lat="43.58107" lon="3.10321">
        <ele>196.290075</ele>
        <time>2025-10-23T14:19:03Z</time>
      </trkpt>
      <trkpt lat="43.58111" lon="3.10319">
        <ele>196.115379</ele>
        <time>2025-10-23T14:19:04Z</time>
      </trkpt>
      <trkpt lat="43.58114" lon="3.10317">
        <ele>195.950763</ele>
        <time>2025-10-23T14:19:05Z</time>
      </trkpt>
      <trkpt lat="43.58117" lon="3.10316">
        <ele>195.798616</ele>
        <time>2025-10-23T14:19:06Z</time>
      </trkpt>
      <trkpt lat="43.5812" lon="3.10314">
        <ele>195.637781</ele>
        <time>2025-10-23T14:19:07Z</time>
      </trkpt>
      <trkpt lat="43.58123" lon="3.10312">
        <ele>195.468844</ele>
        <time>2025-10-23T14:19:08Z</time>
      </trkpt>
      <trkpt lat="43.58126" lon="3.10309">
        <ele>195.309258</ele>
        <time>2025-10-23T14:19:09Z</time>
      </trkpt>
      <trkpt lat="43.58129" lon="3.10306">
        <ele>195.126335</ele>
        <time>2025-10-23T14:19:10Z</time>
      </trkpt>
      <trkpt lat="43.58132" lon="3.10303">
        <ele>194.943411</ele>
        <time>2025-10-23T14:19:11Z</time>
      </trkpt>
      <trkpt lat="43.58135" lon="3.103">
        <ele>194.785828</ele>
        <time>2025-10-23T14:19:12Z</time>
      </trkpt>
      <trkpt lat="43.58138" lon="3.10299">
        <ele>194.634132</ele>
        <time>2025-10-23T14:19:13Z</time>
      </trkpt>
      <trkpt lat="43.5814" lon="3.10297">
        <ele>194.534773</ele>
        <time>2025-10-23T14:19:14Z</time>
      </trkpt>
      <trkpt lat="43.58141" lon="3.10296">
        <ele>194.455456</ele>
        <time>2025-10-23T14:19:15Z</time>
      </trkpt>
      <trkpt lat="43.58142" lon="3.10295">
        <ele>194.40507</ele>
        <time>2025-10-23T14:19:16Z</time>
      </trkpt>
      <trkpt lat="43.58142" lon="3.10293">
        <ele>194.343451</ele>
        <time>2025-10-23T14:19:17Z</time>
      </trkpt>
      <trkpt lat="43.58142" lon="3.10292">
        <ele>194.296745</ele>
        <time>2025-10-23T14:19:18Z</time>
      </trkpt>
      <trkpt lat="43.58143" lon="3.10291">
        <ele>194.241295</ele>
        <time>2025-10-23T14:19:19Z</time>
      </trkpt>
      <trkpt lat="43.58144" lon="3.10289">
        <ele>194.185845</ele>
        <time>2025-10-23T14:19:20Z</time>
      </trkpt>
      <trkpt lat="43.58144" lon="3.10289">
        <ele>194.162504</ele>
        <time>2025-10-23T14:19:21Z</time>
      </trkpt>
      <trkpt lat="43.58144" lon="3.10289">
        <ele>194.150833</ele>
        <time>2025-10-23T14:19:22Z</time>
      </trkpt>
      <trkpt lat="43.58145" lon="3.10289">
        <ele>194.122273</ele>
        <time>2025-10-23T14:19:23Z</time>
      </trkpt>
      <trkpt lat="43.58145" lon="3.10288">
        <ele>194.09651</ele>
        <time>2025-10-23T14:19:24Z</time>
      </trkpt>
      <trkpt lat="43.58146" lon="3.10288">
        <ele>194.071909</ele>
        <time>2025-10-23T14:19:25Z</time>
      </trkpt>
      <trkpt lat="43.58146" lon="3.10288">
        <ele>194.052699</ele>
        <time>2025-10-23T14:19:26Z</time>
      </trkpt>
      <trkpt lat="43.58147" lon="3.10288">
        <ele>194.02353</ele>
        <time>2025-10-23T14:19:27Z</time>
      </trkpt>
      <trkpt lat="43.58147" lon="3.10288">
        <ele>194.008946</ele>
        <time>2025-10-23T14:19:28Z</time>
      </trkpt>
      <trkpt lat="43.58148" lon="3.10288">
        <ele>193.984345</ele>
        <time>2025-10-23T14:19:29Z</time>
      </trkpt>
      <trkpt lat="43.58147" lon="3.10289">
        <ele>193.967707</ele>
        <time>2025-10-23T14:19:30Z</time>
      </trkpt>
      <trkpt lat="43.58148" lon="3.10289">
        <ele>193.948155</ele>
        <time>2025-10-23T14:19:31Z</time>
      </trkpt>
      <trkpt lat="43.58148" lon="3.10289">
        <ele>193.929252</ele>
        <time>2025-10-23T14:19:32Z</time>
      </trkpt>
      <trkpt lat="43.58148" lon="3.10289">
        <ele>193.915295</ele>
        <time>2025-10-23T14:19:33Z</time>
      </trkpt>
      <trkpt lat="43.58148" lon="3.10289">
        <ele>193.903991</ele>
        <time>2025-10-23T14:19:34Z</time>
      </trkpt>
      <trkpt lat="43.58149" lon="3.10289">
        <ele>193.888247</ele>
        <time>2025-10-23T14:19:35Z</time>
      </trkpt>
      <trkpt lat="43.58149" lon="3.10289">
        <ele>193.87429</ele>
        <time>2025-10-23T14:19:36Z</time>
      </trkpt>
      <trkpt lat="43.58149" lon="3.1029">
        <ele>193.828795</ele>
        <time>2025-10-23T14:19:37Z</time>
      </trkpt>
      <trkpt lat="43.58149" lon="3.10291">
        <ele>193.78969</ele>
        <time>2025-10-23T14:19:38Z</time>
      </trkpt>
      <trkpt lat="43.58149" lon="3.10293">
        <ele>193.748341</ele>
        <time>2025-10-23T14:19:39Z</time>
      </trkpt>
      <trkpt lat="43.58149" lon="3.10294">
        <ele>193.710389</ele>
        <time>2025-10-23T14:19:40Z</time>
      </trkpt>
      <trkpt lat="43.58149" lon="3.10295">
        <ele>193.671566</ele>
        <time>2025-10-23T14:19:41Z</time>
      </trkpt>
      <trkpt lat="43.5815" lon="3.10296">
        <ele>193.629432</ele>
        <time>2025-10-23T14:19:42Z</time>
      </trkpt>
      <trkpt lat="43.5815" lon="3.10297">
        <ele>193.572907</ele>
        <time>2025-10-23T14:19:43Z</time>
      </trkpt>
      <trkpt lat="43.58149" lon="3.10299">
        <ele>193.506355</ele>
        <time>2025-10-23T14:19:44Z</time>
      </trkpt>
      <trkpt lat="43.58149" lon="3.103">
        <ele>193.456233</ele>
        <time>2025-10-23T14:19:45Z</time>
      </trkpt>
      <trkpt lat="43.58148" lon="3.10301">
        <ele>193.403491</ele>
        <time>2025-10-23T14:19:46Z</time>
      </trkpt>
      <trkpt lat="43.58148" lon="3.10303">
        <ele>193.35514</ele>
        <time>2025-10-23T14:19:47Z</time>
      </trkpt>
      <trkpt lat="43.58147" lon="3.10304">
        <ele>193.318994</ele>
        <time>2025-10-23T14:19:48Z</time>
      </trkpt>
      <trkpt lat="43.58147" lon="3.10304">
        <ele>193.308942</ele>
        <time>2025-10-23T14:19:49Z</time>
      </trkpt>
      <trkpt lat="43.58148" lon="3.10304">
        <ele>193.277455</ele>
        <time>2025-10-23T14:19:50Z</time>
      </trkpt>
      <trkpt lat="43.58153" lon="3.10306">
        <ele>193.02142</ele>
        <time>2025-10-23T14:20:22Z</time>
      </trkpt>
      <trkpt lat="43.58153" lon="3.10306">
        <ele>193.011969</ele>
        <time>2025-10-23T14:20:23Z</time>
      </trkpt>
      <trkpt lat="43.58154" lon="3.10306">
        <ele>192.974009</ele>
        <time>2025-10-23T14:20:24Z</time>
      </trkpt>
      <trkpt lat="43.58155" lon="3.10306">
        <ele>192.958265</ele>
        <time>2025-10-23T14:20:25Z</time>
      </trkpt>
      <trkpt lat="43.58155" lon="3.10307">
        <ele>192.94378</ele>
        <time>2025-10-23T14:20:26Z</time>
      </trkpt>
      <trkpt lat="43.58155" lon="3.10307">
        <ele>192.926023</ele>
        <time>2025-10-23T14:20:27Z</time>
      </trkpt>
      <trkpt lat="43.58155" lon="3.10306">
        <ele>192.883889</ele>
        <time>2025-10-23T14:20:28Z</time>
      </trkpt>
      <trkpt lat="43.58155" lon="3.10304">
        <ele>192.819437</ele>
        <time>2025-10-23T14:20:29Z</time>
      </trkpt>
      <trkpt lat="43.58155" lon="3.10303">
        <ele>192.781486</ele>
        <time>2025-10-23T14:20:30Z</time>
      </trkpt>
      <trkpt lat="43.58154" lon="3.10302">
        <ele>192.719928</ele>
        <time>2025-10-23T14:20:31Z</time>
      </trkpt>
      <trkpt lat="43.58153" lon="3.103">
        <ele>192.638672</ele>
        <time>2025-10-23T14:20:32Z</time>
      </trkpt>
      <trkpt lat="43.58151" lon="3.10299">
        <ele>192.567969</ele>
        <time>2025-10-23T14:20:33Z</time>
      </trkpt>
      <trkpt lat="43.5815" lon="3.10297">
        <ele>192.46701</ele>
        <time>2025-10-23T14:20:34Z</time>
      </trkpt>
      <trkpt lat="43.58149" lon="3.10295">
        <ele>192.382389</ele>
        <time>2025-10-23T14:20:35Z</time>
      </trkpt>
      <trkpt lat="43.58148" lon="3.10293">
        <ele>192.309321</ele>
        <time>2025-10-23T14:20:36Z</time>
      </trkpt>
      <trkpt lat="43.58147" lon="3.10292">
        <ele>192.245556</ele>
        <time>2025-10-23T14:20:37Z</time>
      </trkpt>
      <trkpt lat="43.58146" lon="3.1029">
        <ele>192.170044</ele>
        <time>2025-10-23T14:20:38Z</time>
      </trkpt>
      <trkpt lat="43.58144" lon="3.1029">
        <ele>192.09252</ele>
        <time>2025-10-23T14:20:39Z</time>
      </trkpt>
      <trkpt lat="43.58143" lon="3.10289">
        <ele>192.018029</ele>
        <time>2025-10-23T14:20:40Z</time>
      </trkpt>
      <trkpt lat="43.58141" lon="3.10287">
        <ele>191.929916</ele>
        <time>2025-10-23T14:20:41Z</time>
      </trkpt>
      <trkpt lat="43.5814" lon="3.10287">
        <ele>191.858701</ele>
        <time>2025-10-23T14:20:42Z</time>
      </trkpt>
      <trkpt lat="43.58138" lon="3.10287">
        <ele>191.764188</ele>
        <time>2025-10-23T14:20:43Z</time>
      </trkpt>
      <trkpt lat="43.58136" lon="3.10286">
        <ele>191.663977</ele>
        <time>2025-10-23T14:20:44Z</time>
      </trkpt>
      <trkpt lat="43.58134" lon="3.10285">
        <ele>191.560065</ele>
        <time>2025-10-23T14:20:45Z</time>
      </trkpt>
      <trkpt lat="43.58131" lon="3.10284">
        <ele>191.44069</ele>
        <time>2025-10-23T14:20:46Z</time>
      </trkpt>
      <trkpt lat="43.58129" lon="3.10284">
        <ele>191.340511</ele>
        <time>2025-10-23T14:20:47Z</time>
      </trkpt>
      <trkpt lat="43.58128" lon="3.10283">
        <ele>191.260093</ele>
        <time>2025-10-23T14:20:48Z</time>
      </trkpt>
      <trkpt lat="43.58126" lon="3.10283">
        <ele>191.173326</ele>
        <time>2025-10-23T14:20:49Z</time>
      </trkpt>
      <trkpt lat="43.58124" lon="3.10283">
        <ele>191.078812</ele>
        <time>2025-10-23T14:20:50Z</time>
      </trkpt>
      <trkpt lat="43.58121" lon="3.10283">
        <ele>190.958265</ele>
        <time>2025-10-23T14:20:51Z</time>
      </trkpt>
      <trkpt lat="43.58119" lon="3.10284">
        <ele>190.825231</ele>
        <time>2025-10-23T14:20:52Z</time>
      </trkpt>
      <trkpt lat="43.58116" lon="3.10285">
        <ele>190.697454</ele>
        <time>2025-10-23T14:20:53Z</time>
      </trkpt>
      <trkpt lat="43.58114" lon="3.10285">
        <ele>190.619104</ele>
        <time>2025-10-23T14:20:54Z</time>
      </trkpt>
      <trkpt lat="43.58113" lon="3.10285">
        <ele>190.581144</ele>
        <time>2025-10-23T14:20:55Z</time>
      </trkpt>
      <trkpt lat="43.58113" lon="3.10285">
        <ele>190.564505</ele>
        <time>2025-10-23T14:20:56Z</time>
      </trkpt>
      <trkpt lat="43.58113" lon="3.10282">
        <ele>190.477592</ele>
        <time>2025-10-23T14:20:57Z</time>
      </trkpt>
      <trkpt lat="43.58112" lon="3.10281">
        <ele>190.409858</ele>
        <time>2025-10-23T14:20:58Z</time>
      </trkpt>
      <trkpt lat="43.58112" lon="3.10279">
        <ele>190.351471</ele>
        <time>2025-10-23T14:20:59Z</time>
      </trkpt>
      <trkpt lat="43.58112" lon="3.10277">
        <ele>190.296753</ele>
        <time>2025-10-23T14:21:00Z</time>
      </trkpt>
      <trkpt lat="43.58112" lon="3.10277">
        <ele>190.287302</ele>
        <time>2025-10-23T14:21:01Z</time>
      </trkpt>
      <trkpt lat="43.58111" lon="3.10277">
        <ele>190.27725</ele>
        <time>2025-10-23T14:21:02Z</time>
      </trkpt>
      <trkpt lat="43.58111" lon="3.10276">
        <ele>190.215574</ele>
        <time>2025-10-23T14:21:03Z</time>
      </trkpt>
      <trkpt lat="43.5811" lon="3.10275">
        <ele>190.159746</ele>
        <time>2025-10-23T14:21:04Z</time>
      </trkpt>
      <trkpt lat="43.58109" lon="3.10274">
        <ele>190.110976</ele>
        <time>2025-10-23T14:21:05Z</time>
      </trkpt>
      <trkpt lat="43.58108" lon="3.10273">
        <ele>190.063745</ele>
        <time>2025-10-23T14:21:06Z</time>
      </trkpt>
      <trkpt lat="43.58108" lon="3.10273">
        <ele>190.029964</ele>
        <time>2025-10-23T14:21:07Z</time>
      </trkpt>
      <trkpt lat="43.58107" lon="3.10273">
        <ele>190.00161</ele>
        <time>2025-10-23T14:21:08Z</time>
      </trkpt>
      <trkpt lat="43.58108" lon="3.10277">
        <ele>189.861524</ele>
        <time>2025-10-23T14:22:15Z</time>
      </trkpt>
      <trkpt lat="43.58108" lon="3.10277">
        <ele>189.861524</ele>
        <time>2025-10-23T14:22:16Z</time>
      </trkpt>
      <trkpt lat="43.58108" lon="3.10278">
        <ele>189.823573</ele>
        <time>2025-10-23T14:22:17Z</time>
      </trkpt>
      <trkpt lat="43.58108" lon="3.10279">
        <ele>189.788059</ele>
        <time>2025-10-23T14:22:18Z</time>
      </trkpt>
      <trkpt lat="43.58108" lon="3.1028">
        <ele>189.760217</ele>
        <time>2025-10-23T14:22:19Z</time>
      </trkpt>
      <trkpt lat="43.58107" lon="3.10281">
        <ele>189.721112</ele>
        <time>2025-10-23T14:22:20Z</time>
      </trkpt>
      <trkpt lat="43.58107" lon="3.10281">
        <ele>189.692141</ele>
        <time>2025-10-23T14:22:21Z</time>
      </trkpt>
      <trkpt lat="43.58107" lon="3.10282">
        <ele>189.675024</ele>
        <time>2025-10-23T14:22:22Z</time>
      </trkpt>
      <trkpt lat="43.58107" lon="3.10282">
        <ele>189.670299</ele>
        <time>2025-10-23T14:22:23Z</time>
      </trkpt>
      <trkpt lat="43.58106" lon="3.10282">
        <ele>189.64667</ele>
        <time>2025-10-23T14:22:24Z</time>
      </trkpt>
      <trkpt lat="43.58106" lon="3.10282">
        <ele>189.61811</ele>
        <time>2025-10-23T14:22:25Z</time>
      </trkpt>
      <trkpt lat="43.58106" lon="3.10282">
        <ele>189.606805</ele>
        <time>2025-10-23T14:22:26Z</time>
      </trkpt>
      <trkpt lat="43.58106" lon="3.10282">
        <ele>189.596753</ele>
        <time>2025-10-23T14:22:27Z</time>
      </trkpt>
      <trkpt lat="43.58106" lon="3.10282">
        <ele>189.582268</ele>
        <time>2025-10-23T14:22:28Z</time>
      </trkpt>
      <trkpt lat="43.58105" lon="3.10281">
        <ele>189.559658</ele>
        <time>2025-10-23T14:22:29Z</time>
      </trkpt>
      <trkpt lat="43.58105" lon="3.10281">
        <ele>189.54302</ele>
        <time>2025-10-23T14:22:30Z</time>
      </trkpt>
      <trkpt lat="43.58105" lon="3.1028">
        <ele>189.51726</ele>
        <time>2025-10-23T14:22:31Z</time>
      </trkpt>
      <trkpt lat="43.58105" lon="3.10279">
        <ele>189.488289</ele>
        <time>2025-10-23T14:22:32Z</time>
      </trkpt>
      <trkpt lat="43.58105" lon="3.10278">
        <ele>189.457451</ele>
        <time>2025-10-23T14:22:33Z</time>
      </trkpt>
      <trkpt lat="43.58105" lon="3.10278">
        <ele>189.430064</ele>
        <time>2025-10-23T14:22:34Z</time>
      </trkpt>
      <trkpt lat="43.58104" lon="3.10277">
        <ele>189.404305</ele>
        <time>2025-10-23T14:22:35Z</time>
      </trkpt>
      <trkpt lat="43.58104" lon="3.10276">
        <ele>189.376391</ele>
        <time>2025-10-23T14:22:36Z</time>
      </trkpt>
      <trkpt lat="43.58104" lon="3.10276">
        <ele>189.358885</ele>
        <time>2025-10-23T14:22:37Z</time>
      </trkpt>
      <trkpt lat="43.58103" lon="3.10276">
        <ele>189.334285</ele>
        <time>2025-10-23T14:22:38Z</time>
      </trkpt>
      <trkpt lat="43.58103" lon="3.10275">
        <ele>189.31206</ele>
        <time>2025-10-23T14:22:39Z</time>
      </trkpt>
      <trkpt lat="43.58103" lon="3.10275">
        <ele>189.281221</ele>
        <time>2025-10-23T14:22:40Z</time>
      </trkpt>
      <trkpt lat="43.58103" lon="3.10274">
        <ele>189.267528</ele>
        <time>2025-10-23T14:22:41Z</time>
      </trkpt>
      <trkpt lat="43.58103" lon="3.10274">
        <ele>189.253571</ele>
        <time>2025-10-23T14:22:42Z</time>
      </trkpt>
      <trkpt lat="43.58103" lon="3.10274">
        <ele>189.243519</ele>
        <time>2025-10-23T14:22:43Z</time>
      </trkpt>
      <trkpt lat="43.58102" lon="3.10274">
        <ele>189.229033</ele>
        <time>2025-10-23T14:22:44Z</time>
      </trkpt>
      <trkpt lat="43.58102" lon="3.10275">
        <ele>189.217363</ele>
        <time>2025-10-23T14:22:45Z</time>
      </trkpt>
      <trkpt lat="43.58102" lon="3.10275">
        <ele>189.200725</ele>
        <time>2025-10-23T14:22:46Z</time>
      </trkpt>
      <trkpt lat="43.58102" lon="3.10275">
        <ele>189.183219</ele>
        <time>2025-10-23T14:22:47Z</time>
      </trkpt>
      <trkpt lat="43.58101" lon="3.10275">
        <ele>189.164009</ele>
        <time>2025-10-23T14:22:48Z</time>
      </trkpt>
      <trkpt lat="43.58101" lon="3.10275">
        <ele>189.145106</ele>
        <time>2025-10-23T14:22:49Z</time>
      </trkpt>
      <trkpt lat="43.581" lon="3.10275">
        <ele>189.113798</ele>
        <time>2025-10-23T14:22:50Z</time>
      </trkpt>
      <trkpt lat="43.581" lon="3.10274">
        <ele>189.086412</ele>
        <time>2025-10-23T14:22:51Z</time>
      </trkpt>
      <trkpt lat="43.581" lon="3.10273">
        <ele>189.061987</ele>
        <time>2025-10-23T14:22:52Z</time>
      </trkpt>
      <trkpt lat="43.581" lon="3.10273">
        <ele>189.03703</ele>
        <time>2025-10-23T14:22:53Z</time>
      </trkpt>
      <trkpt lat="43.581" lon="3.10272">
        <ele>189.02914</ele>
        <time>2025-10-23T14:22:54Z</time>
      </trkpt>
      <trkpt lat="43.581" lon="3.10272">
        <ele>189.0388</ele>
        <time>2025-10-23T14:22:55Z</time>
      </trkpt>
      <trkpt lat="43.581" lon="3.10273">
        <ele>189.058119</ele>
        <time>2025-10-23T14:22:56Z</time>
      </trkpt>
      <trkpt lat="43.581" lon="3.10272">
        <ele>189.078445</ele>
        <time>2025-10-23T14:22:57Z</time>
      </trkpt>
      <trkpt lat="43.581" lon="3.10272">
        <ele>189.094651</ele>
        <time>2025-10-23T14:22:58Z</time>
      </trkpt>
      <trkpt lat="43.58101" lon="3.10272">
        <ele>189.117994</ele>
        <time>2025-10-23T14:22:59Z</time>
      </trkpt>
      <trkpt lat="43.58101" lon="3.10272">
        <ele>189.127654</ele>
        <time>2025-10-23T14:23:00Z</time>
      </trkpt>
      <trkpt lat="43.58101" lon="3.10271">
        <ele>189.150998</ele>
        <time>2025-10-23T14:23:01Z</time>
      </trkpt>
      <trkpt lat="43.58101" lon="3.10271">
        <ele>189.164124</ele>
        <time>2025-10-23T14:23:02Z</time>
      </trkpt>
      <trkpt lat="43.58101" lon="3.1027">
        <ele>189.196393</ele>
        <time>2025-10-23T14:23:03Z</time>
      </trkpt>
      <trkpt lat="43.58101" lon="3.1027">
        <ele>189.224753</ele>
        <time>2025-10-23T14:23:04Z</time>
      </trkpt>
      <trkpt lat="43.58101" lon="3.10269">
        <ele>189.232702</ele>
        <time>2025-10-23T14:23:05Z</time>
      </trkpt>
      <trkpt lat="43.58101" lon="3.10269">
        <ele>189.242362</ele>
        <time>2025-10-23T14:23:06Z</time>
      </trkpt>
      <trkpt lat="43.58101" lon="3.10269">
        <ele>189.255488</ele>
        <time>2025-10-23T14:23:07Z</time>
      </trkpt>
      <trkpt lat="43.58101" lon="3.10268">
        <ele>189.274807</ele>
        <time>2025-10-23T14:23:08Z</time>
      </trkpt>
      <trkpt lat="43.58101" lon="3.10267">
        <ele>189.325266</ele>
        <time>2025-10-23T14:23:09Z</time>
      </trkpt>
      <trkpt lat="43.58101" lon="3.10267">
        <ele>189.353626</ele>
        <time>2025-10-23T14:23:10Z</time>
      </trkpt>
      <trkpt lat="43.58101" lon="3.10266">
        <ele>189.3735</ele>
        <time>2025-10-23T14:23:11Z</time>
      </trkpt>
      <trkpt lat="43.58102" lon="3.10266">
        <ele>189.386626</ele>
        <time>2025-10-23T14:23:12Z</time>
      </trkpt>
      <trkpt lat="43.58102" lon="3.10265">
        <ele>189.402832</ele>
        <time>2025-10-23T14:23:13Z</time>
      </trkpt>
      <trkpt lat="43.58102" lon="3.10265">
        <ele>189.426176</ele>
        <time>2025-10-23T14:23:14Z</time>
      </trkpt>
      <trkpt lat="43.58102" lon="3.10265">
        <ele>189.444456</ele>
        <time>2025-10-23T14:23:15Z</time>
      </trkpt>
      <trkpt lat="43.58103" lon="3.10265">
        <ele>189.458007</ele>
        <time>2025-10-23T14:23:16Z</time>
      </trkpt>
      <trkpt lat="43.58103" lon="3.10265">
        <ele>189.467667</ele>
        <time>2025-10-23T14:23:17Z</time>
      </trkpt>
      <trkpt lat="43.58103" lon="3.10265">
        <ele>189.479338</ele>
        <time>2025-10-23T14:23:18Z</time>
      </trkpt>
      <trkpt lat="43.58103" lon="3.10265">
        <ele>189.4958</ele>
        <time>2025-10-23T14:23:19Z</time>
      </trkpt>
      <trkpt lat="43.58103" lon="3.10265">
        <ele>189.508926</ele>
        <time>2025-10-23T14:23:20Z</time>
      </trkpt>
      <trkpt lat="43.58104" lon="3.10265">
        <ele>189.520598</ele>
        <time>2025-10-23T14:23:21Z</time>
      </trkpt>
      <trkpt lat="43.58104" lon="3.10265">
        <ele>189.530257</ele>
        <time>2025-10-23T14:23:22Z</time>
      </trkpt>
      <trkpt lat="43.58103" lon="3.10266">
        <ele>189.553143</ele>
        <time>2025-10-23T14:23:23Z</time>
      </trkpt>
      <trkpt lat="43.58103" lon="3.10266">
        <ele>189.598915</ele>
        <time>2025-10-23T14:23:24Z</time>
      </trkpt>
      <trkpt lat="43.58102" lon="3.10267">
        <ele>189.627893</ele>
        <time>2025-10-23T14:23:25Z</time>
      </trkpt>
      <trkpt lat="43.58102" lon="3.10268">
        <ele>189.680399</ele>
        <time>2025-10-23T14:23:26Z</time>
      </trkpt>
      <trkpt lat="43.58102" lon="3.10269">
        <ele>189.716206</ele>
        <time>2025-10-23T14:23:27Z</time>
      </trkpt>
      <trkpt lat="43.58102" lon="3.10269">
        <ele>189.735525</ele>
        <time>2025-10-23T14:23:28Z</time>
      </trkpt>
      <trkpt lat="43.58101" lon="3.1027">
        <ele>189.745184</ele>
        <time>2025-10-23T14:23:29Z</time>
      </trkpt>
      <trkpt lat="43.58101" lon="3.10269">
        <ele>189.758735</ele>
        <time>2025-10-23T14:23:30Z</time>
      </trkpt>
      <trkpt lat="43.58101" lon="3.10269">
        <ele>189.781438</ele>
        <time>2025-10-23T14:23:31Z</time>
      </trkpt>
      <trkpt lat="43.58101" lon="3.10268">
        <ele>189.818857</ele>
        <time>2025-10-23T14:23:32Z</time>
      </trkpt>
      <trkpt lat="43.58101" lon="3.10267">
        <ele>189.847217</ele>
        <time>2025-10-23T14:23:33Z</time>
      </trkpt>
      <trkpt lat="43.581" lon="3.10267">
        <ele>189.879546</ele>
        <time>2025-10-23T14:23:34Z</time>
      </trkpt>
      <trkpt lat="43.581" lon="3.10266">
        <ele>189.913185</ele>
        <time>2025-10-23T14:23:35Z</time>
      </trkpt>
      <trkpt lat="43.581" lon="3.10265">
        <ele>189.942794</ele>
        <time>2025-10-23T14:23:36Z</time>
      </trkpt>
      <trkpt lat="43.58099" lon="3.10265">
        <ele>189.975206</ele>
        <time>2025-10-23T14:23:37Z</time>
      </trkpt>
      <trkpt lat="43.58099" lon="3.10264">
        <ele>190.001012</ele>
        <time>2025-10-23T14:23:38Z</time>
      </trkpt>
      <trkpt lat="43.58099" lon="3.10264">
        <ele>190.026818</ele>
        <time>2025-10-23T14:23:39Z</time>
      </trkpt>
      <trkpt lat="43.58099" lon="3.10263">
        <ele>190.062592</ele>
        <time>2025-10-23T14:23:40Z</time>
      </trkpt>
      <trkpt lat="43.58099" lon="3.10262">
        <ele>190.09492</ele>
        <time>2025-10-23T14:23:41Z</time>
      </trkpt>
      <trkpt lat="43.58098" lon="3.10261">
        <ele>190.12856</ele>
        <time>2025-10-23T14:23:42Z</time>
      </trkpt>
      <trkpt lat="43.58098" lon="3.10261">
        <ele>190.155662</ele>
        <time>2025-10-23T14:23:43Z</time>
      </trkpt>
      <trkpt lat="43.58098" lon="3.1026">
        <ele>190.185271</ele>
        <time>2025-10-23T14:23:44Z</time>
      </trkpt>
      <trkpt lat="43.58098" lon="3.1026">
        <ele>190.198822</ele>
        <time>2025-10-23T14:23:45Z</time>
      </trkpt>
      <trkpt lat="43.58098" lon="3.1026">
        <ele>190.227801</ele>
        <time>2025-10-23T14:23:46Z</time>
      </trkpt>
      <trkpt lat="43.58097" lon="3.10259">
        <ele>190.270906</ele>
        <time>2025-10-23T14:23:47Z</time>
      </trkpt>
      <trkpt lat="43.58097" lon="3.10258">
        <ele>190.32618</ele>
        <time>2025-10-23T14:23:48Z</time>
      </trkpt>
      <trkpt lat="43.58096" lon="3.10257">
        <ele>190.371952</ele>
        <time>2025-10-23T14:23:49Z</time>
      </trkpt>
      <trkpt lat="43.58095" lon="3.10256">
        <ele>190.445991</ele>
        <time>2025-10-23T14:23:50Z</time>
      </trkpt>
      <trkpt lat="43.58094" lon="3.10255">
        <ele>190.50521</ele>
        <time>2025-10-23T14:23:51Z</time>
      </trkpt>
      <trkpt lat="43.58094" lon="3.10254">
        <ele>190.550292</ele>
        <time>2025-10-23T14:23:52Z</time>
      </trkpt>
      <trkpt lat="43.58093" lon="3.10253">
        <ele>190.601911</ele>
        <time>2025-10-23T14:23:53Z</time>
      </trkpt>
      <trkpt lat="43.58093" lon="3.10252">
        <ele>190.653523</ele>
        <time>2025-10-23T14:23:54Z</time>
      </trkpt>
      <trkpt lat="43.58092" lon="3.10251">
        <ele>190.708797</ele>
        <time>2025-10-23T14:23:55Z</time>
      </trkpt>
      <trkpt lat="43.58091" lon="3.1025">
        <ele>190.751902</ele>
        <time>2025-10-23T14:23:56Z</time>
      </trkpt>
      <trkpt lat="43.58091" lon="3.10249">
        <ele>190.783612</ele>
        <time>2025-10-23T14:23:57Z</time>
      </trkpt>
      <trkpt lat="43.5809" lon="3.10249">
        <ele>190.83104</ele>
        <time>2025-10-23T14:23:58Z</time>
      </trkpt>
      <trkpt lat="43.5809" lon="3.10249">
        <ele>190.83899</ele>
        <time>2025-10-23T14:23:59Z</time>
      </trkpt>
      <trkpt lat="43.5809" lon="3.10248">
        <ele>190.861693</ele>
        <time>2025-10-23T14:24:00Z</time>
      </trkpt>
      <trkpt lat="43.5809" lon="3.10247">
        <ele>190.898045</ele>
        <time>2025-10-23T14:24:01Z</time>
      </trkpt>
      <trkpt lat="43.58089" lon="3.10247">
        <ele>190.94115</ele>
        <time>2025-10-23T14:24:02Z</time>
      </trkpt>
      <trkpt lat="43.58088" lon="3.10246">
        <ele>191.000369</ele>
        <time>2025-10-23T14:24:03Z</time>
      </trkpt>
      <trkpt lat="43.58088" lon="3.10245">
        <ele>191.035808</ele>
        <time>2025-10-23T14:24:04Z</time>
      </trkpt>
      <trkpt lat="43.58087" lon="3.10245">
        <ele>191.056135</ele>
        <time>2025-10-23T14:24:05Z</time>
      </trkpt>
      <trkpt lat="43.58087" lon="3.10244">
        <ele>191.095514</ele>
        <time>2025-10-23T14:24:06Z</time>
      </trkpt>
      <trkpt lat="43.58087" lon="3.10243">
        <ele>191.149746</ele>
        <time>2025-10-23T14:24:07Z</time>
      </trkpt>
      <trkpt lat="43.58088" lon="3.10242">
        <ele>191.191716</ele>
        <time>2025-10-23T14:24:08Z</time>
      </trkpt>
      <trkpt lat="43.58088" lon="3.10241">
        <ele>191.232951</ele>
        <time>2025-10-23T14:24:09Z</time>
      </trkpt>
      <trkpt lat="43.58089" lon="3.1024">
        <ele>191.287684</ele>
        <time>2025-10-23T14:24:10Z</time>
      </trkpt>
      <trkpt lat="43.58089" lon="3.10239">
        <ele>191.330789</ele>
        <time>2025-10-23T14:24:11Z</time>
      </trkpt>
      <trkpt lat="43.5809" lon="3.10238">
        <ele>191.356595</ele>
        <time>2025-10-23T14:24:12Z</time>
      </trkpt>
      <trkpt lat="43.5809" lon="3.10237">
        <ele>191.401678</ele>
        <time>2025-10-23T14:24:13Z</time>
      </trkpt>
      <trkpt lat="43.5809" lon="3.10236">
        <ele>191.453641</ele>
        <time>2025-10-23T14:24:14Z</time>
      </trkpt>
      <trkpt lat="43.5809" lon="3.10235">
        <ele>191.513516</ele>
        <time>2025-10-23T14:24:15Z</time>
      </trkpt>
      <trkpt lat="43.5809" lon="3.10233">
        <ele>191.570236</ele>
        <time>2025-10-23T14:24:16Z</time>
      </trkpt>
      <trkpt lat="43.5809" lon="3.10232">
        <ele>191.618249</ele>
        <time>2025-10-23T14:24:17Z</time>
      </trkpt>
      <trkpt lat="43.5809" lon="3.10231">
        <ele>191.654441</ele>
        <time>2025-10-23T14:24:18Z</time>
      </trkpt>
      <trkpt lat="43.5809" lon="3.1023">
        <ele>191.698164</ele>
        <time>2025-10-23T14:24:19Z</time>
      </trkpt>
      <trkpt lat="43.58091" lon="3.10228">
        <ele>191.761998</ele>
        <time>2025-10-23T14:24:20Z</time>
      </trkpt>
      <trkpt lat="43.58091" lon="3.10227">
        <ele>191.813962</ele>
        <time>2025-10-23T14:24:21Z</time>
      </trkpt>
      <trkpt lat="43.58091" lon="3.10226">
        <ele>191.865925</ele>
        <time>2025-10-23T14:24:22Z</time>
      </trkpt>
      <trkpt lat="43.58091" lon="3.10224">
        <ele>191.937683</ele>
        <time>2025-10-23T14:24:23Z</time>
      </trkpt>
      <trkpt lat="43.58091" lon="3.10223">
        <ele>191.997557</ele>
        <time>2025-10-23T14:24:24Z</time>
      </trkpt>
      <trkpt lat="43.5809" lon="3.10221">
        <ele>192.04557</ele>
        <time>2025-10-23T14:24:25Z</time>
      </trkpt>
      <trkpt lat="43.5809" lon="3.10221">
        <ele>192.071823</ele>
        <time>2025-10-23T14:24:26Z</time>
      </trkpt>
      <trkpt lat="43.58091" lon="3.10221">
        <ele>192.088757</ele>
        <time>2025-10-23T14:24:27Z</time>
      </trkpt>
      <trkpt lat="43.58091" lon="3.10221">
        <ele>192.092732</ele>
        <time>2025-10-23T14:24:28Z</time>
      </trkpt>
      <trkpt lat="43.58091" lon="3.10221">
        <ele>192.099508</ele>
        <time>2025-10-23T14:24:29Z</time>
      </trkpt>
      <trkpt lat="43.58091" lon="3.10221">
        <ele>192.099508</ele>
        <time>2025-10-23T14:24:30Z</time>
      </trkpt>
      <trkpt lat="43.58091" lon="3.10221">
        <ele>192.099508</ele>
        <time>2025-10-23T14:24:31Z</time>
      </trkpt>
      <trkpt lat="43.58091" lon="3.10221">
        <ele>192.099508</ele>
        <time>2025-10-23T14:24:32Z</time>
      </trkpt>
      <trkpt lat="43.58091" lon="3.10221">
        <ele>192.099508</ele>
        <time>2025-10-23T14:24:33Z</time>
      </trkpt>
      <trkpt lat="43.58091" lon="3.10221">
        <ele>192.103483</ele>
        <time>2025-10-23T14:24:34Z</time>
      </trkpt>
      <trkpt lat="43.58091" lon="3.10221">
        <ele>192.110258</ele>
        <time>2025-10-23T14:24:35Z</time>
      </trkpt>
      <trkpt lat="43.58091" lon="3.10221">
        <ele>192.114233</ele>
        <time>2025-10-23T14:24:36Z</time>
      </trkpt>
      <trkpt lat="43.58091" lon="3.10221">
        <ele>192.152689</ele>
        <time>2025-10-23T14:24:37Z</time>
      </trkpt>
      <trkpt lat="43.58091" lon="3.10221">
        <ele>192.160639</ele>
        <time>2025-10-23T14:24:38Z</time>
      </trkpt>
      <trkpt lat="43.58091" lon="3.10221">
        <ele>192.164614</ele>
        <time>2025-10-23T14:24:39Z</time>
      </trkpt>
      <trkpt lat="43.58091" lon="3.10221">
        <ele>192.17774</ele>
        <time>2025-10-23T14:24:40Z</time>
      </trkpt>
      <trkpt lat="43.58091" lon="3.1022">
        <ele>192.209539</ele>
        <time>2025-10-23T14:24:41Z</time>
      </trkpt>
      <trkpt lat="43.58092" lon="3.1022">
        <ele>192.221211</ele>
        <time>2025-10-23T14:24:42Z</time>
      </trkpt>
      <trkpt lat="43.58092" lon="3.1022">
        <ele>192.227986</ele>
        <time>2025-10-23T14:24:43Z</time>
      </trkpt>
      <trkpt lat="43.58092" lon="3.1022">
        <ele>192.227986</ele>
        <time>2025-10-23T14:24:44Z</time>
      </trkpt>
      <trkpt lat="43.58091" lon="3.10213">
        <ele>192.501818</ele>
        <time>2025-10-23T14:25:54Z</time>
      </trkpt>
      <trkpt lat="43.58091" lon="3.10211">
        <ele>192.601793</ele>
        <time>2025-10-23T14:25:55Z</time>
      </trkpt>
      <trkpt lat="43.58091" lon="3.10208">
        <ele>192.713224</ele>
        <time>2025-10-23T14:25:56Z</time>
      </trkpt>
      <trkpt lat="43.58091" lon="3.10205">
        <ele>192.820685</ele>
        <time>2025-10-23T14:25:57Z</time>
      </trkpt>
      <trkpt lat="43.58091" lon="3.10203">
        <ele>192.924031</ele>
        <time>2025-10-23T14:25:58Z</time>
      </trkpt>
      <trkpt lat="43.58091" lon="3.102">
        <ele>193.039433</ele>
        <time>2025-10-23T14:25:59Z</time>
      </trkpt>
      <trkpt lat="43.58091" lon="3.10197">
        <ele>193.139408</ele>
        <time>2025-10-23T14:26:00Z</time>
      </trkpt>
      <trkpt lat="43.58091" lon="3.10195">
        <ele>193.2429</ele>
        <time>2025-10-23T14:26:01Z</time>
      </trkpt>
      <trkpt lat="43.5809" lon="3.10193">
        <ele>193.330519</ele>
        <time>2025-10-23T14:26:02Z</time>
      </trkpt>
      <trkpt lat="43.58091" lon="3.1019">
        <ele>193.422597</ele>
        <time>2025-10-23T14:26:03Z</time>
      </trkpt>
      <trkpt lat="43.58091" lon="3.10188">
        <ele>193.505068</ele>
        <time>2025-10-23T14:26:04Z</time>
      </trkpt>
      <trkpt lat="43.58091" lon="3.10186">
        <ele>193.584754</ele>
        <time>2025-10-23T14:26:05Z</time>
      </trkpt>
      <trkpt lat="43.58091" lon="3.10184">
        <ele>193.668406</ele>
        <time>2025-10-23T14:26:06Z</time>
      </trkpt>
      <trkpt lat="43.58091" lon="3.10182">
        <ele>193.756025</ele>
        <time>2025-10-23T14:26:07Z</time>
      </trkpt>
      <trkpt lat="43.58091" lon="3.1018">
        <ele>193.835711</ele>
        <time>2025-10-23T14:26:08Z</time>
      </trkpt>
      <trkpt lat="43.58091" lon="3.10178">
        <ele>193.911432</ele>
        <time>2025-10-23T14:26:09Z</time>
      </trkpt>
      <trkpt lat="43.58091" lon="3.10176">
        <ele>193.991118</ele>
        <time>2025-10-23T14:26:10Z</time>
      </trkpt>
      <trkpt lat="43.58091" lon="3.10174">
        <ele>194.082704</ele>
        <time>2025-10-23T14:26:11Z</time>
      </trkpt>
      <trkpt lat="43.58091" lon="3.10171">
        <ele>194.178101</ele>
        <time>2025-10-23T14:26:12Z</time>
      </trkpt>
      <trkpt lat="43.58091" lon="3.10169">
        <ele>194.26572</ele>
        <time>2025-10-23T14:26:13Z</time>
      </trkpt>
      <trkpt lat="43.58092" lon="3.10167">
        <ele>194.354702</ele>
        <time>2025-10-23T14:26:14Z</time>
      </trkpt>
      <trkpt lat="43.58092" lon="3.10165">
        <ele>194.434388</ele>
        <time>2025-10-23T14:26:15Z</time>
      </trkpt>
      <trkpt lat="43.58092" lon="3.10163">
        <ele>194.521835</ele>
        <time>2025-10-23T14:26:16Z</time>
      </trkpt>
      <trkpt lat="43.58092" lon="3.1016">
        <ele>194.617861</ele>
        <time>2025-10-23T14:26:17Z</time>
      </trkpt>
      <trkpt lat="43.58092" lon="3.10158">
        <ele>194.70294</ele>
        <time>2025-10-23T14:26:18Z</time>
      </trkpt>
      <trkpt lat="43.58092" lon="3.10156">
        <ele>194.778662</ele>
        <time>2025-10-23T14:26:19Z</time>
      </trkpt>
      <trkpt lat="43.58092" lon="3.10154">
        <ele>194.861133</ele>
        <time>2025-10-23T14:26:20Z</time>
      </trkpt>
      <trkpt lat="43.58091" lon="3.10153">
        <ele>194.939891</ele>
        <time>2025-10-23T14:26:21Z</time>
      </trkpt>
      <trkpt lat="43.5809" lon="3.10152">
        <ele>195.008113</ele>
        <time>2025-10-23T14:26:22Z</time>
      </trkpt>
      <trkpt lat="43.58089" lon="3.10151">
        <ele>195.081235</ele>
        <time>2025-10-23T14:26:23Z</time>
      </trkpt>
      <trkpt lat="43.58088" lon="3.10151">
        <ele>195.150014</ele>
        <time>2025-10-23T14:26:24Z</time>
      </trkpt>
      <trkpt lat="43.58087" lon="3.1015">
        <ele>195.225227</ele>
        <time>2025-10-23T14:26:25Z</time>
      </trkpt>
      <trkpt lat="43.58085" lon="3.10149">
        <ele>195.308368</ele>
        <time>2025-10-23T14:26:26Z</time>
      </trkpt>
      <trkpt lat="43.58084" lon="3.10149">
        <ele>195.382417</ele>
        <time>2025-10-23T14:26:27Z</time>
      </trkpt>
      <trkpt lat="43.58083" lon="3.10148">
        <ele>195.447315</ele>
        <time>2025-10-23T14:26:28Z</time>
      </trkpt>
      <trkpt lat="43.58082" lon="3.10147">
        <ele>195.530981</ele>
        <time>2025-10-23T14:26:29Z</time>
      </trkpt>
      <trkpt lat="43.5808" lon="3.10146">
        <ele>195.611418</ele>
        <time>2025-10-23T14:26:30Z</time>
      </trkpt>
      <trkpt lat="43.58079" lon="3.10146">
        <ele>195.688237</ele>
        <time>2025-10-23T14:26:31Z</time>
      </trkpt>
      <trkpt lat="43.58077" lon="3.10146">
        <ele>195.782862</ele>
        <time>2025-10-23T14:26:32Z</time>
      </trkpt>
      <trkpt lat="43.58076" lon="3.10146">
        <ele>195.860092</ele>
        <time>2025-10-23T14:26:33Z</time>
      </trkpt>
      <trkpt lat="43.58074" lon="3.10145">
        <ele>195.949313</ele>
        <time>2025-10-23T14:26:34Z</time>
      </trkpt>
      <trkpt lat="43.58072" lon="3.10145">
        <ele>196.065634</ele>
        <time>2025-10-23T14:26:35Z</time>
      </trkpt>
      <trkpt lat="43.58071" lon="3.10144">
        <ele>196.144982</ele>
        <time>2025-10-23T14:26:36Z</time>
      </trkpt>
      <trkpt lat="43.58069" lon="3.10144">
        <ele>196.259238</ele>
        <time>2025-10-23T14:26:37Z</time>
      </trkpt>
      <trkpt lat="43.58066" lon="3.10144">
        <ele>196.390988</ele>
        <time>2025-10-23T14:26:38Z</time>
      </trkpt>
      <trkpt lat="43.58064" lon="3.10143">
        <ele>196.509529</ele>
        <time>2025-10-23T14:26:39Z</time>
      </trkpt>
      <trkpt lat="43.58063" lon="3.10141">
        <ele>196.608882</ele>
        <time>2025-10-23T14:26:40Z</time>
      </trkpt>
      <trkpt lat="43.58061" lon="3.1014">
        <ele>196.706124</ele>
        <time>2025-10-23T14:26:41Z</time>
      </trkpt>
      <trkpt lat="43.5806" lon="3.10138">
        <ele>196.815674</ele>
        <time>2025-10-23T14:26:42Z</time>
      </trkpt>
      <trkpt lat="43.58059" lon="3.10136">
        <ele>196.903755</ele>
        <time>2025-10-23T14:26:43Z</time>
      </trkpt>
      <trkpt lat="43.58057" lon="3.10135">
        <ele>197.003669</ele>
        <time>2025-10-23T14:26:44Z</time>
      </trkpt>
      <trkpt lat="43.58055" lon="3.10134">
        <ele>197.111682</ele>
        <time>2025-10-23T14:26:45Z</time>
      </trkpt>
      <trkpt lat="43.58054" lon="3.10133">
        <ele>197.202105</ele>
        <time>2025-10-23T14:26:46Z</time>
      </trkpt>
      <trkpt lat="43.58053" lon="3.10132">
        <ele>197.285805</ele>
        <time>2025-10-23T14:26:47Z</time>
      </trkpt>
      <trkpt lat="43.58051" lon="3.1013">
        <ele>197.385159</ele>
        <time>2025-10-23T14:26:48Z</time>
      </trkpt>
      <trkpt lat="43.5805" lon="3.10129">
        <ele>197.482341</ele>
        <time>2025-10-23T14:26:49Z</time>
      </trkpt>
      <trkpt lat="43.58049" lon="3.10128">
        <ele>197.554612</ele>
        <time>2025-10-23T14:26:50Z</time>
      </trkpt>
      <trkpt lat="43.58048" lon="3.10126">
        <ele>197.641657</ele>
        <time>2025-10-23T14:26:51Z</time>
      </trkpt>
      <trkpt lat="43.58047" lon="3.10124">
        <ele>197.732469</ele>
        <time>2025-10-23T14:26:52Z</time>
      </trkpt>
      <trkpt lat="43.58046" lon="3.10122">
        <ele>197.81641</ele>
        <time>2025-10-23T14:26:53Z</time>
      </trkpt>
      <trkpt lat="43.58046" lon="3.1012">
        <ele>197.915674</ele>
        <time>2025-10-23T14:26:54Z</time>
      </trkpt>
      <trkpt lat="43.58045" lon="3.10118">
        <ele>198.012481</ele>
        <time>2025-10-23T14:26:55Z</time>
      </trkpt>
      <trkpt lat="43.58044" lon="3.10115">
        <ele>198.115718</ele>
        <time>2025-10-23T14:26:56Z</time>
      </trkpt>
      <trkpt lat="43.58043" lon="3.10113">
        <ele>198.215532</ele>
        <time>2025-10-23T14:26:57Z</time>
      </trkpt>
      <trkpt lat="43.58042" lon="3.10112">
        <ele>198.313789</ele>
        <time>2025-10-23T14:26:58Z</time>
      </trkpt>
      <trkpt lat="43.58041" lon="3.1011">
        <ele>198.401142</ele>
        <time>2025-10-23T14:26:59Z</time>
      </trkpt>
      <trkpt lat="43.5804" lon="3.10108">
        <ele>198.491378</ele>
        <time>2025-10-23T14:27:00Z</time>
      </trkpt>
      <trkpt lat="43.58039" lon="3.10106">
        <ele>198.568797</ele>
        <time>2025-10-23T14:27:01Z</time>
      </trkpt>
      <trkpt lat="43.58038" lon="3.10105">
        <ele>198.653638</ele>
        <time>2025-10-23T14:27:02Z</time>
      </trkpt>
      <trkpt lat="43.58037" lon="3.10103">
        <ele>198.745182</ele>
        <time>2025-10-23T14:27:03Z</time>
      </trkpt>
      <trkpt lat="43.58037" lon="3.10101">
        <ele>198.840737</ele>
        <time>2025-10-23T14:27:04Z</time>
      </trkpt>
      <trkpt lat="43.58037" lon="3.10098">
        <ele>198.886714</ele>
        <time>2025-10-23T14:27:05Z</time>
      </trkpt>
      <trkpt lat="43.58038" lon="3.10096">
        <ele>198.865165</ele>
        <time>2025-10-23T14:27:06Z</time>
      </trkpt>
      <trkpt lat="43.58039" lon="3.10094">
        <ele>198.847469</ele>
        <time>2025-10-23T14:27:07Z</time>
      </trkpt>
      <trkpt lat="43.58041" lon="3.10093">
        <ele>198.829536</ele>
        <time>2025-10-23T14:27:08Z</time>
      </trkpt>
      <trkpt lat="43.58042" lon="3.10091">
        <ele>198.812408</ele>
        <time>2025-10-23T14:27:09Z</time>
      </trkpt>
      <trkpt lat="43.58043" lon="3.10089">
        <ele>198.790598</ele>
        <time>2025-10-23T14:27:10Z</time>
      </trkpt>
      <trkpt lat="43.58045" lon="3.10088">
        <ele>198.769525</ele>
        <time>2025-10-23T14:27:11Z</time>
      </trkpt>
      <trkpt lat="43.58047" lon="3.10087">
        <ele>198.745723</ele>
        <time>2025-10-23T14:27:12Z</time>
      </trkpt>
      <trkpt lat="43.5805" lon="3.10087">
        <ele>198.720816</ele>
        <time>2025-10-23T14:27:13Z</time>
      </trkpt>
      <trkpt lat="43.58053" lon="3.10088">
        <ele>198.691614</ele>
        <time>2025-10-23T14:27:14Z</time>
      </trkpt>
      <trkpt lat="43.58056" lon="3.1009">
        <ele>198.655332</ele>
        <time>2025-10-23T14:27:15Z</time>
      </trkpt>
      <trkpt lat="43.58059" lon="3.1009">
        <ele>198.618902</ele>
        <time>2025-10-23T14:27:16Z</time>
      </trkpt>
      <trkpt lat="43.58063" lon="3.10089">
        <ele>198.582862</ele>
        <time>2025-10-23T14:27:17Z</time>
      </trkpt>
      <trkpt lat="43.58065" lon="3.10085">
        <ele>198.548712</ele>
        <time>2025-10-23T14:27:18Z</time>
      </trkpt>
      <trkpt lat="43.58066" lon="3.10081">
        <ele>198.513053</ele>
        <time>2025-10-23T14:27:19Z</time>
      </trkpt>
      <trkpt lat="43.58069" lon="3.10077">
        <ele>198.473056</ele>
        <time>2025-10-23T14:27:20Z</time>
      </trkpt>
      <trkpt lat="43.58073" lon="3.10075">
        <ele>198.432106</ele>
        <time>2025-10-23T14:27:21Z</time>
      </trkpt>
      <trkpt lat="43.58076" lon="3.10076">
        <ele>198.394694</ele>
        <time>2025-10-23T14:27:22Z</time>
      </trkpt>
      <trkpt lat="43.5808" lon="3.10077">
        <ele>198.356206</ele>
        <time>2025-10-23T14:27:23Z</time>
      </trkpt>
      <trkpt lat="43.58083" lon="3.10079">
        <ele>198.317869</ele>
        <time>2025-10-23T14:27:24Z</time>
      </trkpt>
      <trkpt lat="43.58087" lon="3.10082">
        <ele>198.273874</ele>
        <time>2025-10-23T14:27:25Z</time>
      </trkpt>
      <trkpt lat="43.58091" lon="3.10084">
        <ele>198.232645</ele>
        <time>2025-10-23T14:27:26Z</time>
      </trkpt>
      <trkpt lat="43.58095" lon="3.10086">
        <ele>198.188016</ele>
        <time>2025-10-23T14:27:27Z</time>
      </trkpt>
      <trkpt lat="43.58099" lon="3.10088">
        <ele>198.145812</ele>
        <time>2025-10-23T14:27:28Z</time>
      </trkpt>
      <trkpt lat="43.58103" lon="3.10089">
        <ele>198.102486</ele>
        <time>2025-10-23T14:27:29Z</time>
      </trkpt>
      <trkpt lat="43.58106" lon="3.10091">
        <ele>198.0603</ele>
        <time>2025-10-23T14:27:30Z</time>
      </trkpt>
      <trkpt lat="43.5811" lon="3.10092">
        <ele>198.018682</ele>
        <time>2025-10-23T14:27:31Z</time>
      </trkpt>
      <trkpt lat="43.58114" lon="3.10092">
        <ele>197.978115</ele>
        <time>2025-10-23T14:27:32Z</time>
      </trkpt>
      <trkpt lat="43.58117" lon="3.10091">
        <ele>197.948452</ele>
        <time>2025-10-23T14:27:33Z</time>
      </trkpt>
      <trkpt lat="43.58119" lon="3.10087">
        <ele>197.916694</ele>
        <time>2025-10-23T14:27:34Z</time>
      </trkpt>
      <trkpt lat="43.5812" lon="3.10083">
        <ele>197.885937</ele>
        <time>2025-10-23T14:27:35Z</time>
      </trkpt>
      <trkpt lat="43.58121" lon="3.10079">
        <ele>197.85403</ele>
        <time>2025-10-23T14:27:36Z</time>
      </trkpt>
      <trkpt lat="43.58121" lon="3.10075">
        <ele>197.821862</ele>
        <time>2025-10-23T14:27:37Z</time>
      </trkpt>
      <trkpt lat="43.58122" lon="3.1007">
        <ele>197.784605</ele>
        <time>2025-10-23T14:27:38Z</time>
      </trkpt>
      <trkpt lat="43.58123" lon="3.10065">
        <ele>197.743595</ele>
        <time>2025-10-23T14:27:39Z</time>
      </trkpt>
      <trkpt lat="43.58125" lon="3.1006">
        <ele>197.699407</ele>
        <time>2025-10-23T14:27:40Z</time>
      </trkpt>
      <trkpt lat="43.58126" lon="3.10054">
        <ele>197.658781</ele>
        <time>2025-10-23T14:27:41Z</time>
      </trkpt>
      <trkpt lat="43.58127" lon="3.10049">
        <ele>197.616734</ele>
        <time>2025-10-23T14:27:42Z</time>
      </trkpt>
      <trkpt lat="43.58129" lon="3.10044">
        <ele>197.572197</ele>
        <time>2025-10-23T14:27:43Z</time>
      </trkpt>
      <trkpt lat="43.5813" lon="3.10038">
        <ele>197.529439</ele>
        <time>2025-10-23T14:27:44Z</time>
      </trkpt>
      <trkpt lat="43.58132" lon="3.10033">
        <ele>197.488773</ele>
        <time>2025-10-23T14:27:45Z</time>
      </trkpt>
      <trkpt lat="43.58134" lon="3.10028">
        <ele>197.445904</ele>
        <time>2025-10-23T14:27:46Z</time>
      </trkpt>
      <trkpt lat="43.58135" lon="3.10023">
        <ele>197.405986</ele>
        <time>2025-10-23T14:27:47Z</time>
      </trkpt>
      <trkpt lat="43.58136" lon="3.10018">
        <ele>197.363594</ele>
        <time>2025-10-23T14:27:48Z</time>
      </trkpt>
      <trkpt lat="43.58138" lon="3.10013">
        <ele>197.321548</ele>
        <time>2025-10-23T14:27:49Z</time>
      </trkpt>
      <trkpt lat="43.58139" lon="3.10007">
        <ele>197.278385</ele>
        <time>2025-10-23T14:27:50Z</time>
      </trkpt>
      <trkpt lat="43.5814" lon="3.10001">
        <ele>197.233869</ele>
        <time>2025-10-23T14:27:51Z</time>
      </trkpt>
      <trkpt lat="43.58142" lon="3.09995">
        <ele>197.184757</ele>
        <time>2025-10-23T14:27:52Z</time>
      </trkpt>
      <trkpt lat="43.58144" lon="3.09989">
        <ele>197.135263</ele>
        <time>2025-10-23T14:27:53Z</time>
      </trkpt>
      <trkpt lat="43.58145" lon="3.09983">
        <ele>197.082973</ele>
        <time>2025-10-23T14:27:54Z</time>
      </trkpt>
      <trkpt lat="43.58147" lon="3.09976">
        <ele>197.021193</ele>
        <time>2025-10-23T14:27:55Z</time>
      </trkpt>
      <trkpt lat="43.58149" lon="3.09968">
        <ele>196.766775</ele>
        <time>2025-10-23T14:27:56Z</time>
      </trkpt>
      <trkpt lat="43.58151" lon="3.09961">
        <ele>196.509739</ele>
        <time>2025-10-23T14:27:57Z</time>
      </trkpt>
      <trkpt lat="43.58152" lon="3.09953">
        <ele>196.258806</ele>
        <time>2025-10-23T14:27:58Z</time>
      </trkpt>
      <trkpt lat="43.58154" lon="3.09945">
        <ele>195.995852</ele>
        <time>2025-10-23T14:27:59Z</time>
      </trkpt>
      <trkpt lat="43.58157" lon="3.09937">
        <ele>195.711051</ele>
        <time>2025-10-23T14:28:00Z</time>
      </trkpt>
      <trkpt lat="43.58159" lon="3.09929">
        <ele>195.419124</ele>
        <time>2025-10-23T14:28:01Z</time>
      </trkpt>
      <trkpt lat="43.58162" lon="3.0992">
        <ele>195.113844</ele>
        <time>2025-10-23T14:28:02Z</time>
      </trkpt>
      <trkpt lat="43.58164" lon="3.09912">
        <ele>194.820581</ele>
        <time>2025-10-23T14:28:03Z</time>
      </trkpt>
      <trkpt lat="43.58166" lon="3.09903">
        <ele>194.539487</ele>
        <time>2025-10-23T14:28:04Z</time>
      </trkpt>
      <trkpt lat="43.58168" lon="3.09896">
        <ele>194.295563</ele>
        <time>2025-10-23T14:28:05Z</time>
      </trkpt>
      <trkpt lat="43.58169" lon="3.09889">
        <ele>194.063984</ele>
        <time>2025-10-23T14:28:06Z</time>
      </trkpt>
      <trkpt lat="43.58171" lon="3.09882">
        <ele>193.837205</ele>
        <time>2025-10-23T14:28:07Z</time>
      </trkpt>
      <trkpt lat="43.58173" lon="3.09876">
        <ele>193.616509</ele>
        <time>2025-10-23T14:28:08Z</time>
      </trkpt>
      <trkpt lat="43.58175" lon="3.0987">
        <ele>193.406408</ele>
        <time>2025-10-23T14:28:09Z</time>
      </trkpt>
      <trkpt lat="43.58176" lon="3.09864">
        <ele>193.203774</ele>
        <time>2025-10-23T14:28:10Z</time>
      </trkpt>
      <trkpt lat="43.58177" lon="3.09858">
        <ele>192.995011</ele>
        <time>2025-10-23T14:28:11Z</time>
      </trkpt>
      <trkpt lat="43.58179" lon="3.09851">
        <ele>192.775717</ele>
        <time>2025-10-23T14:28:12Z</time>
      </trkpt>
      <trkpt lat="43.5818" lon="3.09845">
        <ele>192.560808</ele>
        <time>2025-10-23T14:28:13Z</time>
      </trkpt>
      <trkpt lat="43.58182" lon="3.09839">
        <ele>192.349234</ele>
        <time>2025-10-23T14:28:14Z</time>
      </trkpt>
      <trkpt lat="43.58183" lon="3.09832">
        <ele>192.126875</ele>
        <time>2025-10-23T14:28:15Z</time>
      </trkpt>
      <trkpt lat="43.58185" lon="3.09825">
        <ele>191.902716</ele>
        <time>2025-10-23T14:28:16Z</time>
      </trkpt>
      <trkpt lat="43.58186" lon="3.09819">
        <ele>191.67451</ele>
        <time>2025-10-23T14:28:17Z</time>
      </trkpt>
      <trkpt lat="43.58188" lon="3.09812">
        <ele>191.450449</ele>
        <time>2025-10-23T14:28:18Z</time>
      </trkpt>
      <trkpt lat="43.5819" lon="3.09805">
        <ele>191.214527</ele>
        <time>2025-10-23T14:28:19Z</time>
      </trkpt>
      <trkpt lat="43.58192" lon="3.09799">
        <ele>190.977237</ele>
        <time>2025-10-23T14:28:20Z</time>
      </trkpt>
      <trkpt lat="43.58194" lon="3.09791">
        <ele>190.730908</ele>
        <time>2025-10-23T14:28:21Z</time>
      </trkpt>
      <trkpt lat="43.58196" lon="3.09784">
        <ele>190.481354</ele>
        <time>2025-10-23T14:28:22Z</time>
      </trkpt>
      <trkpt lat="43.58198" lon="3.09776">
        <ele>190.228733</ele>
        <time>2025-10-23T14:28:23Z</time>
      </trkpt>
      <trkpt lat="43.58199" lon="3.09769">
        <ele>189.965581</ele>
        <time>2025-10-23T14:28:24Z</time>
      </trkpt>
      <trkpt lat="43.58202" lon="3.09761">
        <ele>189.685911</ele>
        <time>2025-10-23T14:28:25Z</time>
      </trkpt>
      <trkpt lat="43.58204" lon="3.09753">
        <ele>189.415276</ele>
        <time>2025-10-23T14:28:26Z</time>
      </trkpt>
      <trkpt lat="43.58205" lon="3.09744">
        <ele>189.144459</ele>
        <time>2025-10-23T14:28:27Z</time>
      </trkpt>
      <trkpt lat="43.58205" lon="3.09736">
        <ele>188.830246</ele>
        <time>2025-10-23T14:28:28Z</time>
      </trkpt>
      <trkpt lat="43.58204" lon="3.09728">
        <ele>188.507243</ele>
        <time>2025-10-23T14:28:29Z</time>
      </trkpt>
      <trkpt lat="43.58202" lon="3.0972">
        <ele>188.183586</ele>
        <time>2025-10-23T14:28:30Z</time>
      </trkpt>
      <trkpt lat="43.582" lon="3.09712">
        <ele>187.865715</ele>
        <time>2025-10-23T14:28:31Z</time>
      </trkpt>
      <trkpt lat="43.58199" lon="3.09705">
        <ele>187.541397</ele>
        <time>2025-10-23T14:28:32Z</time>
      </trkpt>
      <trkpt lat="43.58198" lon="3.09697">
        <ele>187.229122</ele>
        <time>2025-10-23T14:28:33Z</time>
      </trkpt>
      <trkpt lat="43.58197" lon="3.09689">
        <ele>186.915943</ele>
        <time>2025-10-23T14:28:34Z</time>
      </trkpt>
      <trkpt lat="43.58196" lon="3.09681">
        <ele>186.6072</ele>
        <time>2025-10-23T14:28:35Z</time>
      </trkpt>
      <trkpt lat="43.58194" lon="3.09674">
        <ele>186.291935</ele>
        <time>2025-10-23T14:28:36Z</time>
      </trkpt>
      <trkpt lat="43.58193" lon="3.09666">
        <ele>185.9844</ele>
        <time>2025-10-23T14:28:37Z</time>
      </trkpt>
      <trkpt lat="43.58192" lon="3.09658">
        <ele>185.680727</ele>
        <time>2025-10-23T14:28:38Z</time>
      </trkpt>
      <trkpt lat="43.58191" lon="3.0965">
        <ele>185.361433</ele>
        <time>2025-10-23T14:28:39Z</time>
      </trkpt>
      <trkpt lat="43.58191" lon="3.09642">
        <ele>185.025326</ele>
        <time>2025-10-23T14:28:40Z</time>
      </trkpt>
      <trkpt lat="43.58193" lon="3.09633">
        <ele>184.674274</ele>
        <time>2025-10-23T14:28:41Z</time>
      </trkpt>
      <trkpt lat="43.58196" lon="3.09626">
        <ele>184.320551</ele>
        <time>2025-10-23T14:28:42Z</time>
      </trkpt>
      <trkpt lat="43.58201" lon="3.09618">
        <ele>183.93441</ele>
        <time>2025-10-23T14:28:43Z</time>
      </trkpt>
      <trkpt lat="43.58207" lon="3.09612">
        <ele>183.519938</ele>
        <time>2025-10-23T14:28:44Z</time>
      </trkpt>
      <trkpt lat="43.58213" lon="3.09606">
        <ele>183.12655</ele>
        <time>2025-10-23T14:28:45Z</time>
      </trkpt>
      <trkpt lat="43.58219" lon="3.09602">
        <ele>182.753026</ele>
        <time>2025-10-23T14:28:46Z</time>
      </trkpt>
      <trkpt lat="43.58225" lon="3.09599">
        <ele>182.418651</ele>
        <time>2025-10-23T14:28:47Z</time>
      </trkpt>
      <trkpt lat="43.5823" lon="3.09598">
        <ele>182.134048</ele>
        <time>2025-10-23T14:28:48Z</time>
      </trkpt>
      <trkpt lat="43.58234" lon="3.09599">
        <ele>181.902547</ele>
        <time>2025-10-23T14:28:49Z</time>
      </trkpt>
      <trkpt lat="43.58238" lon="3.09603">
        <ele>181.648661</ele>
        <time>2025-10-23T14:28:50Z</time>
      </trkpt>
      <trkpt lat="43.58242" lon="3.09607">
        <ele>181.338646</ele>
        <time>2025-10-23T14:28:51Z</time>
      </trkpt>
      <trkpt lat="43.58247" lon="3.09613">
        <ele>181.014675</ele>
        <time>2025-10-23T14:28:52Z</time>
      </trkpt>
      <trkpt lat="43.58251" lon="3.09618">
        <ele>180.686639</ele>
        <time>2025-10-23T14:28:53Z</time>
      </trkpt>
      <trkpt lat="43.58255" lon="3.09623">
        <ele>180.430678</ele>
        <time>2025-10-23T14:28:54Z</time>
      </trkpt>
      <trkpt lat="43.58258" lon="3.09626">
        <ele>180.230788</ele>
        <time>2025-10-23T14:28:55Z</time>
      </trkpt>
      <trkpt lat="43.58261" lon="3.09627">
        <ele>180.051499</ele>
        <time>2025-10-23T14:28:56Z</time>
      </trkpt>
      <trkpt lat="43.58264" lon="3.09628">
        <ele>179.876442</ele>
        <time>2025-10-23T14:28:57Z</time>
      </trkpt>
      <trkpt lat="43.58267" lon="3.09626">
        <ele>179.697154</ele>
        <time>2025-10-23T14:28:58Z</time>
      </trkpt>
      <trkpt lat="43.5827" lon="3.09623">
        <ele>179.48823</ele>
        <time>2025-10-23T14:28:59Z</time>
      </trkpt>
      <trkpt lat="43.58273" lon="3.09619">
        <ele>179.259633</ele>
        <time>2025-10-23T14:29:00Z</time>
      </trkpt>
      <trkpt lat="43.58275" lon="3.09614">
        <ele>179.178504</ele>
        <time>2025-10-23T14:29:01Z</time>
      </trkpt>
      <trkpt lat="43.58278" lon="3.09608">
        <ele>179.117058</ele>
        <time>2025-10-23T14:29:02Z</time>
      </trkpt>
      <trkpt lat="43.5828" lon="3.09602">
        <ele>179.053547</ele>
        <time>2025-10-23T14:29:03Z</time>
      </trkpt>
      <trkpt lat="43.58283" lon="3.09596">
        <ele>178.991462</ele>
        <time>2025-10-23T14:29:04Z</time>
      </trkpt>
      <trkpt lat="43.58285" lon="3.0959">
        <ele>178.927108</ele>
        <time>2025-10-23T14:29:05Z</time>
      </trkpt>
      <trkpt lat="43.58287" lon="3.09583">
        <ele>178.858015</ele>
        <time>2025-10-23T14:29:06Z</time>
      </trkpt>
      <trkpt lat="43.58289" lon="3.09577">
        <ele>178.788647</ele>
        <time>2025-10-23T14:29:07Z</time>
      </trkpt>
      <trkpt lat="43.58291" lon="3.0957">
        <ele>178.717257</ele>
        <time>2025-10-23T14:29:08Z</time>
      </trkpt>
      <trkpt lat="43.58294" lon="3.09563">
        <ele>178.645076</ele>
        <time>2025-10-23T14:29:09Z</time>
      </trkpt>
      <trkpt lat="43.58296" lon="3.09556">
        <ele>178.574306</ele>
        <time>2025-10-23T14:29:10Z</time>
      </trkpt>
      <trkpt lat="43.58299" lon="3.09549">
        <ele>178.501195</ele>
        <time>2025-10-23T14:29:11Z</time>
      </trkpt>
      <trkpt lat="43.583" lon="3.09542">
        <ele>178.433878</ele>
        <time>2025-10-23T14:29:12Z</time>
      </trkpt>
      <trkpt lat="43.58302" lon="3.09536">
        <ele>178.368772</ele>
        <time>2025-10-23T14:29:13Z</time>
      </trkpt>
      <trkpt lat="43.58304" lon="3.09529">
        <ele>178.306312</ele>
        <time>2025-10-23T14:29:14Z</time>
      </trkpt>
      <trkpt lat="43.58305" lon="3.09523">
        <ele>178.24197</ele>
        <time>2025-10-23T14:29:15Z</time>
      </trkpt>
      <trkpt lat="43.58307" lon="3.09516">
        <ele>178.177979</ele>
        <time>2025-10-23T14:29:16Z</time>
      </trkpt>
      <trkpt lat="43.58308" lon="3.09509">
        <ele>178.109768</ele>
        <time>2025-10-23T14:29:17Z</time>
      </trkpt>
      <trkpt lat="43.58309" lon="3.09503">
        <ele>178.047723</ele>
        <time>2025-10-23T14:29:18Z</time>
      </trkpt>
      <trkpt lat="43.58311" lon="3.09497">
        <ele>177.988338</ele>
        <time>2025-10-23T14:29:19Z</time>
      </trkpt>
      <trkpt lat="43.58312" lon="3.09491">
        <ele>177.929363</ele>
        <time>2025-10-23T14:29:20Z</time>
      </trkpt>
      <trkpt lat="43.58313" lon="3.09485">
        <ele>177.871457</ele>
        <time>2025-10-23T14:29:21Z</time>
      </trkpt>
      <trkpt lat="43.58315" lon="3.09479">
        <ele>177.812864</ele>
        <time>2025-10-23T14:29:22Z</time>
      </trkpt>
      <trkpt lat="43.58316" lon="3.09472">
        <ele>177.751211</ele>
        <time>2025-10-23T14:29:23Z</time>
      </trkpt>
      <trkpt lat="43.58317" lon="3.09466">
        <ele>177.690265</ele>
        <time>2025-10-23T14:29:24Z</time>
      </trkpt>
      <trkpt lat="43.58318" lon="3.0946">
        <ele>177.628978</ele>
        <time>2025-10-23T14:29:25Z</time>
      </trkpt>
      <trkpt lat="43.5832" lon="3.09453">
        <ele>177.565889</ele>
        <time>2025-10-23T14:29:26Z</time>
      </trkpt>
      <trkpt lat="43.58321" lon="3.09447">
        <ele>177.506462</ele>
        <time>2025-10-23T14:29:27Z</time>
      </trkpt>
      <trkpt lat="43.58322" lon="3.09441">
        <ele>177.447035</ele>
        <time>2025-10-23T14:29:28Z</time>
      </trkpt>
      <trkpt lat="43.58323" lon="3.09435">
        <ele>177.390714</ele>
        <time>2025-10-23T14:29:29Z</time>
      </trkpt>
      <trkpt lat="43.58324" lon="3.09429">
        <ele>177.331794</ele>
        <time>2025-10-23T14:29:30Z</time>
      </trkpt>
      <trkpt lat="43.58325" lon="3.09423">
        <ele>177.271454</ele>
        <time>2025-10-23T14:29:31Z</time>
      </trkpt>
      <trkpt lat="43.58326" lon="3.09416">
        <ele>177.211376</ele>
        <time>2025-10-23T14:29:32Z</time>
      </trkpt>
      <trkpt lat="43.58327" lon="3.0941">
        <ele>177.154298</ele>
        <time>2025-10-23T14:29:33Z</time>
      </trkpt>
      <trkpt lat="43.58328" lon="3.09405">
        <ele>177.099286</ele>
        <time>2025-10-23T14:29:34Z</time>
      </trkpt>
      <trkpt lat="43.58328" lon="3.09399">
        <ele>177.044705</ele>
        <time>2025-10-23T14:29:35Z</time>
      </trkpt>
      <trkpt lat="43.58329" lon="3.09393">
        <ele>176.991538</ele>
        <time>2025-10-23T14:29:36Z</time>
      </trkpt>
      <trkpt lat="43.5833" lon="3.09388">
        <ele>176.940954</ele>
        <time>2025-10-23T14:29:37Z</time>
      </trkpt>
      <trkpt lat="43.58331" lon="3.09383">
        <ele>176.889678</ele>
        <time>2025-10-23T14:29:38Z</time>
      </trkpt>
      <trkpt lat="43.58333" lon="3.09378">
        <ele>176.842882</ele>
        <time>2025-10-23T14:29:39Z</time>
      </trkpt>
      <trkpt lat="43.58334" lon="3.09373">
        <ele>176.79776</ele>
        <time>2025-10-23T14:29:40Z</time>
      </trkpt>
      <trkpt lat="43.58334" lon="3.09368">
        <ele>176.756683</ele>
        <time>2025-10-23T14:29:41Z</time>
      </trkpt>
      <trkpt lat="43.58335" lon="3.09363">
        <ele>176.710161</ele>
        <time>2025-10-23T14:29:42Z</time>
      </trkpt>
      <trkpt lat="43.58336" lon="3.09356">
        <ele>176.653548</ele>
        <time>2025-10-23T14:29:43Z</time>
      </trkpt>
      <trkpt lat="43.58337" lon="3.0935">
        <ele>176.594406</ele>
        <time>2025-10-23T14:29:44Z</time>
      </trkpt>
      <trkpt lat="43.58338" lon="3.09344">
        <ele>176.539951</ele>
        <time>2025-10-23T14:29:45Z</time>
      </trkpt>
      <trkpt lat="43.58339" lon="3.09337">
        <ele>176.48139</ele>
        <time>2025-10-23T14:29:46Z</time>
      </trkpt>
      <trkpt lat="43.5834" lon="3.09331">
        <ele>176.424776</ele>
        <time>2025-10-23T14:29:47Z</time>
      </trkpt>
      <trkpt lat="43.58341" lon="3.09324">
        <ele>176.365372</ele>
        <time>2025-10-23T14:29:48Z</time>
      </trkpt>
      <trkpt lat="43.58342" lon="3.09317">
        <ele>176.3056</ele>
        <time>2025-10-23T14:29:49Z</time>
      </trkpt>
      <trkpt lat="43.58343" lon="3.09311">
        <ele>176.248141</ele>
        <time>2025-10-23T14:29:50Z</time>
      </trkpt>
      <trkpt lat="43.58344" lon="3.09304">
        <ele>176.190918</ele>
        <time>2025-10-23T14:29:51Z</time>
      </trkpt>
      <trkpt lat="43.58345" lon="3.09298">
        <ele>176.137088</ele>
        <time>2025-10-23T14:29:52Z</time>
      </trkpt>
      <trkpt lat="43.58346" lon="3.09292">
        <ele>176.083858</ele>
        <time>2025-10-23T14:29:53Z</time>
      </trkpt>
      <trkpt lat="43.58347" lon="3.09286">
        <ele>176.029181</ele>
        <time>2025-10-23T14:29:54Z</time>
      </trkpt>
      <trkpt lat="43.58348" lon="3.09279">
        <ele>175.973656</ele>
        <time>2025-10-23T14:29:55Z</time>
      </trkpt>
      <trkpt lat="43.58348" lon="3.09273">
        <ele>175.919201</ele>
        <time>2025-10-23T14:29:56Z</time>
      </trkpt>
      <trkpt lat="43.58349" lon="3.09267">
        <ele>175.86219</ele>
        <time>2025-10-23T14:29:57Z</time>
      </trkpt>
      <trkpt lat="43.5835" lon="3.0926">
        <ele>175.805367</ele>
        <time>2025-10-23T14:29:58Z</time>
      </trkpt>
      <trkpt lat="43.5835" lon="3.09254">
        <ele>175.74785</ele>
        <time>2025-10-23T14:29:59Z</time>
      </trkpt>
      <trkpt lat="43.58351" lon="3.09247">
        <ele>175.694119</ele>
        <time>2025-10-23T14:30:00Z</time>
      </trkpt>
      <trkpt lat="43.58351" lon="3.09241">
        <ele>175.642879</ele>
        <time>2025-10-23T14:30:01Z</time>
      </trkpt>
      <trkpt lat="43.58351" lon="3.09235">
        <ele>175.589215</ele>
        <time>2025-10-23T14:30:02Z</time>
      </trkpt>
      <trkpt lat="43.58351" lon="3.09229">
        <ele>175.534726</ele>
        <time>2025-10-23T14:30:03Z</time>
      </trkpt>
      <trkpt lat="43.58351" lon="3.09223">
        <ele>175.481926</ele>
        <time>2025-10-23T14:30:04Z</time>
      </trkpt>
      <trkpt lat="43.58352" lon="3.09217">
        <ele>175.431547</ele>
        <time>2025-10-23T14:30:05Z</time>
      </trkpt>
      <trkpt lat="43.58352" lon="3.09211">
        <ele>175.382597</ele>
        <time>2025-10-23T14:30:06Z</time>
      </trkpt>
      <trkpt lat="43.58353" lon="3.09206">
        <ele>175.333252</ele>
        <time>2025-10-23T14:30:07Z</time>
      </trkpt>
      <trkpt lat="43.58353" lon="3.092">
        <ele>175.280384</ele>
        <time>2025-10-23T14:30:08Z</time>
      </trkpt>
      <trkpt lat="43.58353" lon="3.09194">
        <ele>175.227584</ele>
        <time>2025-10-23T14:30:09Z</time>
      </trkpt>
      <trkpt lat="43.58353" lon="3.09188">
        <ele>175.175647</ele>
        <time>2025-10-23T14:30:10Z</time>
      </trkpt>
      <trkpt lat="43.58353" lon="3.09181">
        <ele>175.122023</ele>
        <time>2025-10-23T14:30:11Z</time>
      </trkpt>
      <trkpt lat="43.58353" lon="3.09176">
        <ele>175.073541</ele>
        <time>2025-10-23T14:30:12Z</time>
      </trkpt>
      <trkpt lat="43.58353" lon="3.0917">
        <ele>175.025059</ele>
        <time>2025-10-23T14:30:13Z</time>
      </trkpt>
      <trkpt lat="43.58353" lon="3.09164">
        <ele>174.974042</ele>
        <time>2025-10-23T14:30:14Z</time>
      </trkpt>
      <trkpt lat="43.58353" lon="3.09158">
        <ele>174.92389</ele>
        <time>2025-10-23T14:30:15Z</time>
      </trkpt>
      <trkpt lat="43.58353" lon="3.09153">
        <ele>174.874545</ele>
        <time>2025-10-23T14:30:16Z</time>
      </trkpt>
      <trkpt lat="43.58353" lon="3.09148">
        <ele>174.829517</ele>
        <time>2025-10-23T14:30:17Z</time>
      </trkpt>
      <trkpt lat="43.58352" lon="3.09142">
        <ele>174.782763</ele>
        <time>2025-10-23T14:30:18Z</time>
      </trkpt>
      <trkpt lat="43.58352" lon="3.09137">
        <ele>174.745446</ele>
        <time>2025-10-23T14:30:19Z</time>
      </trkpt>
      <trkpt lat="43.58352" lon="3.09131">
        <ele>174.712657</ele>
        <time>2025-10-23T14:30:20Z</time>
      </trkpt>
      <trkpt lat="43.58352" lon="3.09126">
        <ele>174.681621</ele>
        <time>2025-10-23T14:30:21Z</time>
      </trkpt>
      <trkpt lat="43.58352" lon="3.0912">
        <ele>174.649289</ele>
        <time>2025-10-23T14:30:22Z</time>
      </trkpt>
      <trkpt lat="43.58351" lon="3.09115">
        <ele>174.617204</ele>
        <time>2025-10-23T14:30:23Z</time>
      </trkpt>
      <trkpt lat="43.5835" lon="3.09109">
        <ele>174.584245</ele>
        <time>2025-10-23T14:30:24Z</time>
      </trkpt>
      <trkpt lat="43.58349" lon="3.09104">
        <ele>174.552288</ele>
        <time>2025-10-23T14:30:25Z</time>
      </trkpt>
      <trkpt lat="43.5835" lon="3.09098">
        <ele>174.522316</ele>
        <time>2025-10-23T14:30:26Z</time>
      </trkpt>
      <trkpt lat="43.58351" lon="3.09093">
        <ele>174.490084</ele>
        <time>2025-10-23T14:30:27Z</time>
      </trkpt>
      <trkpt lat="43.58351" lon="3.09088">
        <ele>174.459057</ele>
        <time>2025-10-23T14:30:28Z</time>
      </trkpt>
      <trkpt lat="43.58351" lon="3.09082">
        <ele>174.42918</ele>
        <time>2025-10-23T14:30:29Z</time>
      </trkpt>
      <trkpt lat="43.5835" lon="3.09077">
        <ele>174.400408</ele>
        <time>2025-10-23T14:30:30Z</time>
      </trkpt>
      <trkpt lat="43.5835" lon="3.09072">
        <ele>174.371636</ele>
        <time>2025-10-23T14:30:31Z</time>
      </trkpt>
      <trkpt lat="43.5835" lon="3.09067">
        <ele>174.342322</ele>
        <time>2025-10-23T14:30:32Z</time>
      </trkpt>
      <trkpt lat="43.5835" lon="3.09062">
        <ele>174.311133</ele>
        <time>2025-10-23T14:30:33Z</time>
      </trkpt>
      <trkpt lat="43.58349" lon="3.09055">
        <ele>174.274327</ele>
        <time>2025-10-23T14:30:34Z</time>
      </trkpt>
      <trkpt lat="43.58349" lon="3.0905">
        <ele>174.245555</ele>
        <time>2025-10-23T14:30:35Z</time>
      </trkpt>
      <trkpt lat="43.58349" lon="3.09046">
        <ele>174.21739</ele>
        <time>2025-10-23T14:30:36Z</time>
      </trkpt>
      <trkpt lat="43.58349" lon="3.0904">
        <ele>174.187991</ele>
        <time>2025-10-23T14:30:37Z</time>
      </trkpt>
      <trkpt lat="43.58348" lon="3.09035">
        <ele>174.156711</ele>
        <time>2025-10-23T14:30:38Z</time>
      </trkpt>
      <trkpt lat="43.58348" lon="3.0903">
        <ele>174.125675</ele>
        <time>2025-10-23T14:30:39Z</time>
      </trkpt>
      <trkpt lat="43.58348" lon="3.09024">
        <ele>174.093489</ele>
        <time>2025-10-23T14:30:40Z</time>
      </trkpt>
      <trkpt lat="43.58348" lon="3.09019">
        <ele>174.06164</ele>
        <time>2025-10-23T14:30:41Z</time>
      </trkpt>
      <trkpt lat="43.58348" lon="3.09014">
        <ele>174.032901</ele>
        <time>2025-10-23T14:30:42Z</time>
      </trkpt>
      <trkpt lat="43.58348" lon="3.09009">
        <ele>174.005322</ele>
        <time>2025-10-23T14:30:43Z</time>
      </trkpt>
      <trkpt lat="43.58347" lon="3.09004">
        <ele>173.977697</ele>
        <time>2025-10-23T14:30:44Z</time>
      </trkpt>
      <trkpt lat="43.58347" lon="3.08999">
        <ele>173.949532</ele>
        <time>2025-10-23T14:30:45Z</time>
      </trkpt>
      <trkpt lat="43.58347" lon="3.08994">
        <ele>173.921367</ele>
        <time>2025-10-23T14:30:46Z</time>
      </trkpt>
      <trkpt lat="43.58347" lon="3.08989">
        <ele>173.892628</ele>
        <time>2025-10-23T14:30:47Z</time>
      </trkpt>
      <trkpt lat="43.58347" lon="3.08984">
        <ele>173.860937</ele>
        <time>2025-10-23T14:30:48Z</time>
      </trkpt>
      <trkpt lat="43.58347" lon="3.08978">
        <ele>173.828751</ele>
        <time>2025-10-23T14:30:49Z</time>
      </trkpt>
      <trkpt lat="43.58347" lon="3.08972">
        <ele>173.796488</ele>
        <time>2025-10-23T14:30:50Z</time>
      </trkpt>
      <trkpt lat="43.58348" lon="3.08967">
        <ele>173.765098</ele>
        <time>2025-10-23T14:30:51Z</time>
      </trkpt>
      <trkpt lat="43.58348" lon="3.08962">
        <ele>173.736195</ele>
        <time>2025-10-23T14:30:52Z</time>
      </trkpt>
      <trkpt lat="43.58348" lon="3.08957">
        <ele>173.705702</ele>
        <time>2025-10-23T14:30:53Z</time>
      </trkpt>
      <trkpt lat="43.58349" lon="3.08951">
        <ele>173.67337</ele>
        <time>2025-10-23T14:30:54Z</time>
      </trkpt>
      <trkpt lat="43.58349" lon="3.08946">
        <ele>173.643116</ele>
        <time>2025-10-23T14:30:55Z</time>
      </trkpt>
      <trkpt lat="43.5835" lon="3.08941">
        <ele>173.613695</ele>
        <time>2025-10-23T14:30:56Z</time>
      </trkpt>
      <trkpt lat="43.58351" lon="3.08936">
        <ele>173.585142</ele>
        <time>2025-10-23T14:30:57Z</time>
      </trkpt>
      <trkpt lat="43.58351" lon="3.08931">
        <ele>173.557961</ele>
        <time>2025-10-23T14:30:58Z</time>
      </trkpt>
      <trkpt lat="43.58353" lon="3.08927">
        <ele>173.528517</ele>
        <time>2025-10-23T14:30:59Z</time>
      </trkpt>
      <trkpt lat="43.58354" lon="3.08922">
        <ele>173.499073</ele>
        <time>2025-10-23T14:31:00Z</time>
      </trkpt>
      <trkpt lat="43.58355" lon="3.08917">
        <ele>173.470089</ele>
        <time>2025-10-23T14:31:01Z</time>
      </trkpt>
      <trkpt lat="43.58357" lon="3.08913">
        <ele>173.44025</ele>
        <time>2025-10-23T14:31:02Z</time>
      </trkpt>
      <trkpt lat="43.58358" lon="3.08907">
        <ele>173.409893</ele>
        <time>2025-10-23T14:31:03Z</time>
      </trkpt>
      <trkpt lat="43.58359" lon="3.08902">
        <ele>173.376105</ele>
        <time>2025-10-23T14:31:04Z</time>
      </trkpt>
      <trkpt lat="43.58361" lon="3.08896">
        <ele>173.34261</ele>
        <time>2025-10-23T14:31:05Z</time>
      </trkpt>
      <trkpt lat="43.58362" lon="3.08891">
        <ele>173.3117</ele>
        <time>2025-10-23T14:31:06Z</time>
      </trkpt>
      <trkpt lat="43.58363" lon="3.08886">
        <ele>173.278815</ele>
        <time>2025-10-23T14:31:07Z</time>
      </trkpt>
      <trkpt lat="43.58364" lon="3.08881">
        <ele>173.245929</ele>
        <time>2025-10-23T14:31:08Z</time>
      </trkpt>
      <trkpt lat="43.58365" lon="3.08876">
        <ele>173.216193</ele>
        <time>2025-10-23T14:31:09Z</time>
      </trkpt>
      <trkpt lat="43.58366" lon="3.08871">
        <ele>173.185289</ele>
        <time>2025-10-23T14:31:10Z</time>
      </trkpt>
      <trkpt lat="43.58367" lon="3.08867">
        <ele>173.156364</ele>
        <time>2025-10-23T14:31:11Z</time>
      </trkpt>
      <trkpt lat="43.58368" lon="3.08862">
        <ele>173.126627</ele>
        <time>2025-10-23T14:31:12Z</time>
      </trkpt>
      <trkpt lat="43.58369" lon="3.08857">
        <ele>173.097318</ele>
        <time>2025-10-23T14:31:13Z</time>
      </trkpt>
      <trkpt lat="43.5837" lon="3.08852">
        <ele>173.065015</ele>
        <time>2025-10-23T14:31:14Z</time>
      </trkpt>
      <trkpt lat="43.58371" lon="3.08847">
        <ele>173.030963</ele>
        <time>2025-10-23T14:31:15Z</time>
      </trkpt>
      <trkpt lat="43.58372" lon="3.08842">
        <ele>172.997494</ele>
        <time>2025-10-23T14:31:16Z</time>
      </trkpt>
      <trkpt lat="43.58373" lon="3.08837">
        <ele>172.965246</ele>
        <time>2025-10-23T14:31:17Z</time>
      </trkpt>
      <trkpt lat="43.58374" lon="3.08831">
        <ele>172.93279</ele>
        <time>2025-10-23T14:31:18Z</time>
      </trkpt>
      <trkpt lat="43.58375" lon="3.08826">
        <ele>172.901515</ele>
        <time>2025-10-23T14:31:19Z</time>
      </trkpt>
      <trkpt lat="43.58376" lon="3.08822">
        <ele>172.871196</ele>
        <time>2025-10-23T14:31:20Z</time>
      </trkpt>
      <trkpt lat="43.58377" lon="3.08817">
        <ele>172.841473</ele>
        <time>2025-10-23T14:31:21Z</time>
      </trkpt>
      <trkpt lat="43.58377" lon="3.08812">
        <ele>172.809366</ele>
        <time>2025-10-23T14:31:22Z</time>
      </trkpt>
      <trkpt lat="43.58378" lon="3.08806">
        <ele>172.777699</ele>
        <time>2025-10-23T14:31:23Z</time>
      </trkpt>
      <trkpt lat="43.58378" lon="3.08801">
        <ele>172.746728</ele>
        <time>2025-10-23T14:31:24Z</time>
      </trkpt>
      <trkpt lat="43.58378" lon="3.08796">
        <ele>172.715117</ele>
        <time>2025-10-23T14:31:25Z</time>
      </trkpt>
      <trkpt lat="43.58377" lon="3.08791">
        <ele>172.682165</ele>
        <time>2025-10-23T14:31:26Z</time>
      </trkpt>
      <trkpt lat="43.58377" lon="3.08785">
        <ele>172.650498</ele>
        <time>2025-10-23T14:31:27Z</time>
      </trkpt>
      <trkpt lat="43.58376" lon="3.08781">
        <ele>172.621661</ele>
        <time>2025-10-23T14:31:28Z</time>
      </trkpt>
      <trkpt lat="43.58376" lon="3.08776">
        <ele>172.590746</ele>
        <time>2025-10-23T14:31:29Z</time>
      </trkpt>
      <trkpt lat="43.58375" lon="3.08771">
        <ele>172.560106</ele>
        <time>2025-10-23T14:31:30Z</time>
      </trkpt>
      <trkpt lat="43.58375" lon="3.08766">
        <ele>172.528262</ele>
        <time>2025-10-23T14:31:31Z</time>
      </trkpt>
      <trkpt lat="43.58374" lon="3.0876">
        <ele>172.494612</ele>
        <time>2025-10-23T14:31:32Z</time>
      </trkpt>
      <trkpt lat="43.58374" lon="3.08755">
        <ele>172.462648</ele>
        <time>2025-10-23T14:31:33Z</time>
      </trkpt>
      <trkpt lat="43.58373" lon="3.0875">
        <ele>172.432156</ele>
        <time>2025-10-23T14:31:34Z</time>
      </trkpt>
      <trkpt lat="43.58372" lon="3.08745">
        <ele>172.401837</ele>
        <time>2025-10-23T14:31:35Z</time>
      </trkpt>
      <trkpt lat="43.58371" lon="3.0874">
        <ele>172.370327</ele>
        <time>2025-10-23T14:31:36Z</time>
      </trkpt>
      <trkpt lat="43.58371" lon="3.08735">
        <ele>172.339412</ele>
        <time>2025-10-23T14:31:37Z</time>
      </trkpt>
      <trkpt lat="43.5837" lon="3.0873">
        <ele>172.306708</ele>
        <time>2025-10-23T14:31:38Z</time>
      </trkpt>
      <trkpt lat="43.58369" lon="3.08725">
        <ele>172.277737</ele>
        <time>2025-10-23T14:31:39Z</time>
      </trkpt>
      <trkpt lat="43.58369" lon="3.0872">
        <ele>172.246226</ele>
        <time>2025-10-23T14:31:40Z</time>
      </trkpt>
      <trkpt lat="43.58368" lon="3.08715">
        <ele>172.214716</ele>
        <time>2025-10-23T14:31:41Z</time>
      </trkpt>
      <trkpt lat="43.58367" lon="3.0871">
        <ele>172.182751</ele>
        <time>2025-10-23T14:31:42Z</time>
      </trkpt>
      <trkpt lat="43.58367" lon="3.08705">
        <ele>172.152294</ele>
        <time>2025-10-23T14:31:43Z</time>
      </trkpt>
      <trkpt lat="43.58367" lon="3.087">
        <ele>172.122442</ele>
        <time>2025-10-23T14:31:44Z</time>
      </trkpt>
      <trkpt lat="43.58366" lon="3.08695">
        <ele>172.091802</ele>
        <time>2025-10-23T14:31:45Z</time>
      </trkpt>
      <trkpt lat="43.58366" lon="3.0869">
        <ele>172.061763</ele>
        <time>2025-10-23T14:31:46Z</time>
      </trkpt>
      <trkpt lat="43.58366" lon="3.08685">
        <ele>172.030791</ele>
        <time>2025-10-23T14:31:47Z</time>
      </trkpt>
      <trkpt lat="43.58366" lon="3.08679">
        <ele>171.998574</ele>
        <time>2025-10-23T14:31:48Z</time>
      </trkpt>
      <trkpt lat="43.58366" lon="3.08674">
        <ele>171.967569</ele>
        <time>2025-10-23T14:31:49Z</time>
      </trkpt>
      <trkpt lat="43.58367" lon="3.08669">
        <ele>171.937529</ele>
        <time>2025-10-23T14:31:50Z</time>
      </trkpt>
      <trkpt lat="43.58368" lon="3.08664">
        <ele>171.906388</ele>
        <time>2025-10-23T14:31:51Z</time>
      </trkpt>
      <trkpt lat="43.58369" lon="3.0866">
        <ele>171.875563</ele>
        <time>2025-10-23T14:31:52Z</time>
      </trkpt>
      <trkpt lat="43.5837" lon="3.08655">
        <ele>171.845579</ele>
        <time>2025-10-23T14:31:53Z</time>
      </trkpt>
      <trkpt lat="43.58371" lon="3.0865">
        <ele>171.83314</ele>
        <time>2025-10-23T14:31:54Z</time>
      </trkpt>
      <trkpt lat="43.58373" lon="3.08646">
        <ele>171.850838</ele>
        <time>2025-10-23T14:31:55Z</time>
      </trkpt>
      <trkpt lat="43.58374" lon="3.08642">
        <ele>171.867501</ele>
        <time>2025-10-23T14:31:56Z</time>
      </trkpt>
      <trkpt lat="43.58375" lon="3.08637">
        <ele>171.885199</ele>
        <time>2025-10-23T14:31:57Z</time>
      </trkpt>
      <trkpt lat="43.58376" lon="3.08633">
        <ele>171.903275</ele>
        <time>2025-10-23T14:31:58Z</time>
      </trkpt>
      <trkpt lat="43.58378" lon="3.08628">
        <ele>171.922908</ele>
        <time>2025-10-23T14:31:59Z</time>
      </trkpt>
      <trkpt lat="43.58379" lon="3.08623">
        <ele>171.943759</ele>
        <time>2025-10-23T14:32:00Z</time>
      </trkpt>
      <trkpt lat="43.58381" lon="3.08618">
        <ele>171.964272</ele>
        <time>2025-10-23T14:32:01Z</time>
      </trkpt>
      <trkpt lat="43.58383" lon="3.08613">
        <ele>171.983444</ele>
        <time>2025-10-23T14:32:02Z</time>
      </trkpt>
      <trkpt lat="43.58385" lon="3.08609">
        <ele>172.002541</ele>
        <time>2025-10-23T14:32:03Z</time>
      </trkpt>
      <trkpt lat="43.58386" lon="3.08604">
        <ele>172.021109</ele>
        <time>2025-10-23T14:32:04Z</time>
      </trkpt>
      <trkpt lat="43.58387" lon="3.08599">
        <ele>172.041412</ele>
        <time>2025-10-23T14:32:05Z</time>
      </trkpt>
      <trkpt lat="43.58389" lon="3.08594">
        <ele>172.060913</ele>
        <time>2025-10-23T14:32:06Z</time>
      </trkpt>
      <trkpt lat="43.5839" lon="3.08589">
        <ele>172.079481</ele>
        <time>2025-10-23T14:32:07Z</time>
      </trkpt>
      <trkpt lat="43.58391" lon="3.08585">
        <ele>172.096355</ele>
        <time>2025-10-23T14:32:08Z</time>
      </trkpt>
      <trkpt lat="43.58392" lon="3.08581">
        <ele>172.111458</ele>
        <time>2025-10-23T14:32:09Z</time>
      </trkpt>
      <trkpt lat="43.58394" lon="3.08578">
        <ele>172.124678</ele>
        <time>2025-10-23T14:32:10Z</time>
      </trkpt>
      <trkpt lat="43.58395" lon="3.08576">
        <ele>172.133648</ele>
        <time>2025-10-23T14:32:11Z</time>
      </trkpt>
      <trkpt lat="43.58395" lon="3.08575">
        <ele>172.137338</ele>
        <time>2025-10-23T14:32:12Z</time>
      </trkpt>
      <trkpt lat="43.58394" lon="3.08575">
        <ele>172.138557</ele>
        <time>2025-10-23T14:32:13Z</time>
      </trkpt>
      <trkpt lat="43.58394" lon="3.08575">
        <ele>172.138926</ele>
        <time>2025-10-23T14:32:14Z</time>
      </trkpt>
      <trkpt lat="43.58395" lon="3.08575">
        <ele>172.140145</ele>
        <time>2025-10-23T14:32:15Z</time>
      </trkpt>
      <trkpt lat="43.58396" lon="3.08574">
        <ele>172.145564</ele>
        <time>2025-10-23T14:32:16Z</time>
      </trkpt>
      <trkpt lat="43.58397" lon="3.08574">
        <ele>172.151899</ele>
        <time>2025-10-23T14:32:17Z</time>
      </trkpt>
      <trkpt lat="43.58397" lon="3.08572">
        <ele>172.157528</ele>
        <time>2025-10-23T14:32:18Z</time>
      </trkpt>
      <trkpt lat="43.58397" lon="3.08571">
        <ele>172.162072</ele>
        <time>2025-10-23T14:32:19Z</time>
      </trkpt>
      <trkpt lat="43.58398" lon="3.0857">
        <ele>172.166258</ele>
        <time>2025-10-23T14:32:20Z</time>
      </trkpt>
      <trkpt lat="43.58398" lon="3.08569">
        <ele>172.169382</ele>
        <time>2025-10-23T14:32:21Z</time>
      </trkpt>
      <trkpt lat="43.58398" lon="3.08569">
        <ele>172.17012</ele>
        <time>2025-10-23T14:32:22Z</time>
      </trkpt>
      <trkpt lat="43.58397" lon="3.0857">
        <ele>172.174458</ele>
        <time>2025-10-23T14:32:23Z</time>
      </trkpt>
      <trkpt lat="43.58397" lon="3.08571">
        <ele>172.178358</ele>
        <time>2025-10-23T14:32:24Z</time>
      </trkpt>
      <trkpt lat="43.58397" lon="3.0857">
        <ele>172.180466</ele>
        <time>2025-10-23T14:34:17Z</time>
      </trkpt>
      <trkpt lat="43.58397" lon="3.08571">
        <ele>172.181095</ele>
        <time>2025-10-23T14:34:18Z</time>
      </trkpt>
      <trkpt lat="43.58397" lon="3.08571">
        <ele>172.181095</ele>
        <time>2025-10-23T14:34:19Z</time>
      </trkpt>
      <trkpt lat="43.58397" lon="3.08571">
        <ele>172.181095</ele>
        <time>2025-10-23T14:34:20Z</time>
      </trkpt>
      <trkpt lat="43.58397" lon="3.0857">
        <ele>172.181464</ele>
        <time>2025-10-23T14:34:21Z</time>
      </trkpt>
      <trkpt lat="43.58397" lon="3.0857">
        <ele>172.181974</ele>
        <time>2025-10-23T14:34:22Z</time>
      </trkpt>
      <trkpt lat="43.58397" lon="3.0857">
        <ele>172.181974</ele>
        <time>2025-10-23T14:34:23Z</time>
      </trkpt>
      <trkpt lat="43.58398" lon="3.0857">
        <ele>172.185616</ele>
        <time>2025-10-23T14:34:24Z</time>
      </trkpt>
      <trkpt lat="43.58397" lon="3.0857">
        <ele>172.187741</ele>
        <time>2025-10-23T14:34:25Z</time>
      </trkpt>
      <trkpt lat="43.58397" lon="3.0857">
        <ele>172.191326</ele>
        <time>2025-10-23T14:34:26Z</time>
      </trkpt>
      <trkpt lat="43.58395" lon="3.0857">
        <ele>172.19796</ele>
        <time>2025-10-23T14:34:27Z</time>
      </trkpt>
      <trkpt lat="43.58394" lon="3.0857">
        <ele>172.203613</ele>
        <time>2025-10-23T14:34:28Z</time>
      </trkpt>
      <trkpt lat="43.58394" lon="3.0857">
        <ele>172.205311</ele>
        <time>2025-10-23T14:34:29Z</time>
      </trkpt>
      <trkpt lat="43.58393" lon="3.0857">
        <ele>172.208368</ele>
        <time>2025-10-23T14:34:30Z</time>
      </trkpt>
      <trkpt lat="43.58391" lon="3.08572">
        <ele>172.220094</ele>
        <time>2025-10-23T14:34:31Z</time>
      </trkpt>
      <trkpt lat="43.58391" lon="3.08575">
        <ele>172.231026</ele>
        <time>2025-10-23T14:34:32Z</time>
      </trkpt>
      <trkpt lat="43.5839" lon="3.08577">
        <ele>172.242479</ele>
        <time>2025-10-23T14:34:33Z</time>
      </trkpt>
      <trkpt lat="43.58389" lon="3.0858">
        <ele>172.254889</ele>
        <time>2025-10-23T14:34:34Z</time>
      </trkpt>
      <trkpt lat="43.58388" lon="3.08584">
        <ele>172.26965</ele>
        <time>2025-10-23T14:34:35Z</time>
      </trkpt>
      <trkpt lat="43.58386" lon="3.08588">
        <ele>172.284659</ele>
        <time>2025-10-23T14:34:36Z</time>
      </trkpt>
      <trkpt lat="43.58384" lon="3.08592">
        <ele>172.302006</ele>
        <time>2025-10-23T14:34:37Z</time>
      </trkpt>
      <trkpt lat="43.58383" lon="3.08596">
        <ele>172.319544</ele>
        <time>2025-10-23T14:34:38Z</time>
      </trkpt>
      <trkpt lat="43.58382" lon="3.08601">
        <ele>172.336794</ele>
        <time>2025-10-23T14:34:39Z</time>
      </trkpt>
      <trkpt lat="43.58381" lon="3.08605">
        <ele>172.355093</ele>
        <time>2025-10-23T14:34:40Z</time>
      </trkpt>
      <trkpt lat="43.5838" lon="3.0861">
        <ele>172.373834</ele>
        <time>2025-10-23T14:34:41Z</time>
      </trkpt>
      <trkpt lat="43.58378" lon="3.08614">
        <ele>172.391591</ele>
        <time>2025-10-23T14:34:42Z</time>
      </trkpt>
      <trkpt lat="43.58377" lon="3.08619">
        <ele>172.409105</ele>
        <time>2025-10-23T14:34:43Z</time>
      </trkpt>
      <trkpt lat="43.58376" lon="3.08623">
        <ele>172.426302</ele>
        <time>2025-10-23T14:34:44Z</time>
      </trkpt>
      <trkpt lat="43.58374" lon="3.08627">
        <ele>172.444039</ele>
        <time>2025-10-23T14:34:45Z</time>
      </trkpt>
      <trkpt lat="43.58373" lon="3.08632">
        <ele>172.46262</ele>
        <time>2025-10-23T14:34:46Z</time>
      </trkpt>
      <trkpt lat="43.58372" lon="3.08637">
        <ele>172.481553</ele>
        <time>2025-10-23T14:34:47Z</time>
      </trkpt>
      <trkpt lat="43.58371" lon="3.08642">
        <ele>172.499632</ele>
        <time>2025-10-23T14:34:48Z</time>
      </trkpt>
      <trkpt lat="43.5837" lon="3.08646">
        <ele>172.517031</ele>
        <time>2025-10-23T14:34:49Z</time>
      </trkpt>
      <trkpt lat="43.58369" lon="3.0865">
        <ele>172.532998</ele>
        <time>2025-10-23T14:34:50Z</time>
      </trkpt>
      <trkpt lat="43.58368" lon="3.08654">
        <ele>172.549315</ele>
        <time>2025-10-23T14:34:51Z</time>
      </trkpt>
      <trkpt lat="43.58366" lon="3.08658">
        <ele>172.565979</ele>
        <time>2025-10-23T14:34:52Z</time>
      </trkpt>
      <trkpt lat="43.58365" lon="3.08662">
        <ele>172.581437</ele>
        <time>2025-10-23T14:34:53Z</time>
      </trkpt>
      <trkpt lat="43.58365" lon="3.08667">
        <ele>172.596875</ele>
        <time>2025-10-23T14:34:54Z</time>
      </trkpt>
      <trkpt lat="43.58364" lon="3.08671">
        <ele>172.61222</ele>
        <time>2025-10-23T14:34:55Z</time>
      </trkpt>
      <trkpt lat="43.58364" lon="3.08675">
        <ele>172.626935</ele>
        <time>2025-10-23T14:34:56Z</time>
      </trkpt>
      <trkpt lat="43.58363" lon="3.08678">
        <ele>172.640569</ele>
        <time>2025-10-23T14:34:57Z</time>
      </trkpt>
      <trkpt lat="43.58362" lon="3.08681">
        <ele>172.654022</ele>
        <time>2025-10-23T14:34:58Z</time>
      </trkpt>
      <trkpt lat="43.5836" lon="3.08683">
        <ele>172.666423</ele>
        <time>2025-10-23T14:34:59Z</time>
      </trkpt>
      <trkpt lat="43.58358" lon="3.08685">
        <ele>172.677177</ele>
        <time>2025-10-23T14:35:00Z</time>
      </trkpt>
      <trkpt lat="43.58358" lon="3.08687">
        <ele>172.685687</ele>
        <time>2025-10-23T14:35:01Z</time>
      </trkpt>
      <trkpt lat="43.58359" lon="3.08689">
        <ele>172.694664</ele>
        <time>2025-10-23T14:35:02Z</time>
      </trkpt>
      <trkpt lat="43.5836" lon="3.0869">
        <ele>172.70352</ele>
        <time>2025-10-23T14:35:03Z</time>
      </trkpt>
      <trkpt lat="43.58363" lon="3.08689">
        <ele>172.717517</ele>
        <time>2025-10-23T14:35:04Z</time>
      </trkpt>
      <trkpt lat="43.58365" lon="3.08687">
        <ele>172.730638</ele>
        <time>2025-10-23T14:35:05Z</time>
      </trkpt>
      <trkpt lat="43.58366" lon="3.08683">
        <ele>172.743414</ele>
        <time>2025-10-23T14:35:06Z</time>
      </trkpt>
      <trkpt lat="43.58366" lon="3.0868">
        <ele>172.75562</ele>
        <time>2025-10-23T14:35:07Z</time>
      </trkpt>
      <trkpt lat="43.58367" lon="3.08675">
        <ele>172.769537</ele>
        <time>2025-10-23T14:35:08Z</time>
      </trkpt>
      <trkpt lat="43.58367" lon="3.08671">
        <ele>172.783205</ele>
        <time>2025-10-23T14:35:09Z</time>
      </trkpt>
      <trkpt lat="43.58368" lon="3.08667">
        <ele>172.797138</ele>
        <time>2025-10-23T14:35:10Z</time>
      </trkpt>
      <trkpt lat="43.58369" lon="3.08662">
        <ele>172.811747</ele>
        <time>2025-10-23T14:35:11Z</time>
      </trkpt>
      <trkpt lat="43.5837" lon="3.08658">
        <ele>172.825622</ele>
        <time>2025-10-23T14:35:12Z</time>
      </trkpt>
      <trkpt lat="43.58371" lon="3.08654">
        <ele>172.839368</ele>
        <time>2025-10-23T14:35:13Z</time>
      </trkpt>
      <trkpt lat="43.58372" lon="3.0865">
        <ele>172.853089</ele>
        <time>2025-10-23T14:35:14Z</time>
      </trkpt>
      <trkpt lat="43.58374" lon="3.08645">
        <ele>172.867713</ele>
        <time>2025-10-23T14:35:15Z</time>
      </trkpt>
      <trkpt lat="43.58375" lon="3.08641">
        <ele>172.882321</ele>
        <time>2025-10-23T14:35:16Z</time>
      </trkpt>
      <trkpt lat="43.58376" lon="3.08637">
        <ele>172.896633</ele>
        <time>2025-10-23T14:35:17Z</time>
      </trkpt>
      <trkpt lat="43.58377" lon="3.08633">
        <ele>172.910679</ele>
        <time>2025-10-23T14:35:18Z</time>
      </trkpt>
      <trkpt lat="43.58378" lon="3.08628">
        <ele>172.925302</ele>
        <time>2025-10-23T14:35:19Z</time>
      </trkpt>
      <trkpt lat="43.5838" lon="3.08624">
        <ele>172.940098</ele>
        <time>2025-10-23T14:35:20Z</time>
      </trkpt>
      <trkpt lat="43.58381" lon="3.0862">
        <ele>172.954608</ele>
        <time>2025-10-23T14:35:21Z</time>
      </trkpt>
      <trkpt lat="43.58383" lon="3.08616">
        <ele>172.968833</ele>
        <time>2025-10-23T14:35:22Z</time>
      </trkpt>
      <trkpt lat="43.58384" lon="3.08611">
        <ele>172.983167</ele>
        <time>2025-10-23T14:35:23Z</time>
      </trkpt>
      <trkpt lat="43.58385" lon="3.08607">
        <ele>172.997922</ele>
        <time>2025-10-23T14:35:24Z</time>
      </trkpt>
      <trkpt lat="43.58386" lon="3.08602">
        <ele>173.013859</ele>
        <time>2025-10-23T14:35:25Z</time>
      </trkpt>
      <trkpt lat="43.58387" lon="3.08598">
        <ele>173.029499</ele>
        <time>2025-10-23T14:35:26Z</time>
      </trkpt>
      <trkpt lat="43.58389" lon="3.08593">
        <ele>173.045435</ele>
        <time>2025-10-23T14:35:27Z</time>
      </trkpt>
      <trkpt lat="43.58389" lon="3.08588">
        <ele>173.060587</ele>
        <time>2025-10-23T14:35:28Z</time>
      </trkpt>
      <trkpt lat="43.5839" lon="3.08583">
        <ele>173.075874</ele>
        <time>2025-10-23T14:35:29Z</time>
      </trkpt>
      <trkpt lat="43.58391" lon="3.08578">
        <ele>173.092574</ele>
        <time>2025-10-23T14:35:30Z</time>
      </trkpt>
      <trkpt lat="43.58392" lon="3.08573">
        <ele>173.109403</ele>
        <time>2025-10-23T14:35:31Z</time>
      </trkpt>
      <trkpt lat="43.58394" lon="3.08569">
        <ele>173.12575</ele>
        <time>2025-10-23T14:35:32Z</time>
      </trkpt>
      <trkpt lat="43.58396" lon="3.08564">
        <ele>173.141012</ele>
        <time>2025-10-23T14:35:33Z</time>
      </trkpt>
      <trkpt lat="43.58397" lon="3.0856">
        <ele>173.157026</ele>
        <time>2025-10-23T14:35:34Z</time>
      </trkpt>
      <trkpt lat="43.58399" lon="3.08555">
        <ele>173.174011</ele>
        <time>2025-10-23T14:35:35Z</time>
      </trkpt>
      <trkpt lat="43.584" lon="3.08549">
        <ele>173.190978</ele>
        <time>2025-10-23T14:35:36Z</time>
      </trkpt>
      <trkpt lat="43.58402" lon="3.08545">
        <ele>173.207747</ele>
        <time>2025-10-23T14:35:37Z</time>
      </trkpt>
      <trkpt lat="43.58404" lon="3.0854">
        <ele>173.226571</ele>
        <time>2025-10-23T14:35:38Z</time>
      </trkpt>
      <trkpt lat="43.58406" lon="3.08535">
        <ele>173.241942</ele>
        <time>2025-10-23T14:35:39Z</time>
      </trkpt>
      <trkpt lat="43.58407" lon="3.08531">
        <ele>173.25787</ele>
        <time>2025-10-23T14:35:40Z</time>
      </trkpt>
      <trkpt lat="43.58409" lon="3.08526">
        <ele>173.27324</ele>
        <time>2025-10-23T14:35:41Z</time>
      </trkpt>
      <trkpt lat="43.5841" lon="3.08521">
        <ele>173.288741</ele>
        <time>2025-10-23T14:35:42Z</time>
      </trkpt>
      <trkpt lat="43.58411" lon="3.08517">
        <ele>173.305118</ele>
        <time>2025-10-23T14:35:43Z</time>
      </trkpt>
      <trkpt lat="43.58412" lon="3.08512">
        <ele>173.321095</ele>
        <time>2025-10-23T14:35:44Z</time>
      </trkpt>
      <trkpt lat="43.58413" lon="3.08507">
        <ele>173.337328</ele>
        <time>2025-10-23T14:35:45Z</time>
      </trkpt>
      <trkpt lat="43.58414" lon="3.08502">
        <ele>173.353727</ele>
        <time>2025-10-23T14:35:46Z</time>
      </trkpt>
      <trkpt lat="43.58416" lon="3.08497">
        <ele>173.370258</ele>
        <time>2025-10-23T14:35:47Z</time>
      </trkpt>
      <trkpt lat="43.58417" lon="3.08492">
        <ele>173.387087</ele>
        <time>2025-10-23T14:35:48Z</time>
      </trkpt>
      <trkpt lat="43.58418" lon="3.08487">
        <ele>173.402</ele>
        <time>2025-10-23T14:35:49Z</time>
      </trkpt>
      <trkpt lat="43.58419" lon="3.08483">
        <ele>173.41764</ele>
        <time>2025-10-23T14:35:50Z</time>
      </trkpt>
      <trkpt lat="43.5842" lon="3.08478">
        <ele>173.433014</ele>
        <time>2025-10-23T14:35:51Z</time>
      </trkpt>
      <trkpt lat="43.58422" lon="3.08473">
        <ele>173.44895</ele>
        <time>2025-10-23T14:35:52Z</time>
      </trkpt>
      <trkpt lat="43.58423" lon="3.08468">
        <ele>173.465183</ele>
        <time>2025-10-23T14:35:53Z</time>
      </trkpt>
      <trkpt lat="43.58424" lon="3.08464">
        <ele>173.480553</ele>
        <time>2025-10-23T14:35:54Z</time>
      </trkpt>
      <trkpt lat="43.58426" lon="3.08459">
        <ele>173.496099</ele>
        <time>2025-10-23T14:35:55Z</time>
      </trkpt>
      <trkpt lat="43.58427" lon="3.08455">
        <ele>173.512508</ele>
        <time>2025-10-23T14:35:56Z</time>
      </trkpt>
      <trkpt lat="43.58429" lon="3.0845">
        <ele>173.498594</ele>
        <time>2025-10-23T14:35:57Z</time>
      </trkpt>
      <trkpt lat="43.58431" lon="3.08445">
        <ele>173.438269</ele>
        <time>2025-10-23T14:35:58Z</time>
      </trkpt>
      <trkpt lat="43.58433" lon="3.0844">
        <ele>173.381693</ele>
        <time>2025-10-23T14:35:59Z</time>
      </trkpt>
      <trkpt lat="43.58435" lon="3.08436">
        <ele>173.325396</ele>
        <time>2025-10-23T14:36:00Z</time>
      </trkpt>
      <trkpt lat="43.58437" lon="3.08431">
        <ele>173.264827</ele>
        <time>2025-10-23T14:36:01Z</time>
      </trkpt>
      <trkpt lat="43.5844" lon="3.08427">
        <ele>173.20508</ele>
        <time>2025-10-23T14:36:02Z</time>
      </trkpt>
      <trkpt lat="43.58442" lon="3.08422">
        <ele>173.147108</ele>
        <time>2025-10-23T14:36:03Z</time>
      </trkpt>
      <trkpt lat="43.58445" lon="3.08418">
        <ele>173.084678</ele>
        <time>2025-10-23T14:36:04Z</time>
      </trkpt>
      <trkpt lat="43.58448" lon="3.08414">
        <ele>173.024212</ele>
        <time>2025-10-23T14:36:05Z</time>
      </trkpt>
      <trkpt lat="43.5845" lon="3.0841">
        <ele>172.968807</ele>
        <time>2025-10-23T14:36:06Z</time>
      </trkpt>
      <trkpt lat="43.58452" lon="3.08405">
        <ele>172.913885</ele>
        <time>2025-10-23T14:36:07Z</time>
      </trkpt>
      <trkpt lat="43.58454" lon="3.08401">
        <ele>172.862237</ele>
        <time>2025-10-23T14:36:08Z</time>
      </trkpt>
      <trkpt lat="43.58456" lon="3.08397">
        <ele>172.810308</ele>
        <time>2025-10-23T14:36:09Z</time>
      </trkpt>
      <trkpt lat="43.58457" lon="3.08392">
        <ele>172.754448</ele>
        <time>2025-10-23T14:36:10Z</time>
      </trkpt>
      <trkpt lat="43.58459" lon="3.08387">
        <ele>172.693175</ele>
        <time>2025-10-23T14:36:11Z</time>
      </trkpt>
      <trkpt lat="43.58461" lon="3.08382">
        <ele>172.627911</ele>
        <time>2025-10-23T14:36:12Z</time>
      </trkpt>
      <trkpt lat="43.58463" lon="3.08377">
        <ele>172.567585</ele>
        <time>2025-10-23T14:36:13Z</time>
      </trkpt>
      <trkpt lat="43.58465" lon="3.08372">
        <ele>172.505251</ele>
        <time>2025-10-23T14:36:14Z</time>
      </trkpt>
      <trkpt lat="43.58467" lon="3.08366">
        <ele>172.445871</ele>
        <time>2025-10-23T14:36:15Z</time>
      </trkpt>
      <trkpt lat="43.58468" lon="3.08361">
        <ele>172.386071</ele>
        <time>2025-10-23T14:36:16Z</time>
      </trkpt>
      <trkpt lat="43.5847" lon="3.08357">
        <ele>172.329774</ele>
        <time>2025-10-23T14:36:17Z</time>
      </trkpt>
      <trkpt lat="43.58473" lon="3.08354">
        <ele>172.28059</ele>
        <time>2025-10-23T14:36:18Z</time>
      </trkpt>
      <trkpt lat="43.58476" lon="3.08353">
        <ele>172.236501</ele>
        <time>2025-10-23T14:36:19Z</time>
      </trkpt>
      <trkpt lat="43.58479" lon="3.08353">
        <ele>172.193514</ele>
        <time>2025-10-23T14:36:20Z</time>
      </trkpt>
      <trkpt lat="43.58481" lon="3.08353">
        <ele>172.159573</ele>
        <time>2025-10-23T14:36:21Z</time>
      </trkpt>
      <trkpt lat="43.58482" lon="3.08353">
        <ele>172.141585</ele>
        <time>2025-10-23T14:36:22Z</time>
      </trkpt>
      <trkpt lat="43.58482" lon="3.08353">
        <ele>172.139764</ele>
        <time>2025-10-23T14:36:23Z</time>
      </trkpt>
      <trkpt lat="43.58482" lon="3.08353">
        <ele>172.133768</ele>
        <time>2025-10-23T14:36:24Z</time>
      </trkpt>
      <trkpt lat="43.58482" lon="3.08354">
        <ele>172.121563</ele>
        <time>2025-10-23T14:36:25Z</time>
      </trkpt>
      <trkpt lat="43.58482" lon="3.08355">
        <ele>172.11394</ele>
        <time>2025-10-23T14:36:26Z</time>
      </trkpt>
      <trkpt lat="43.58482" lon="3.08356">
        <ele>172.105901</ele>
        <time>2025-10-23T14:36:27Z</time>
      </trkpt>
      <trkpt lat="43.58482" lon="3.08356">
        <ele>172.096375</ele>
        <time>2025-10-23T14:36:28Z</time>
      </trkpt>
      <trkpt lat="43.58483" lon="3.08357">
        <ele>172.089438</ele>
        <time>2025-10-23T14:36:29Z</time>
      </trkpt>
      <trkpt lat="43.58483" lon="3.08357">
        <ele>172.087302</ele>
        <time>2025-10-23T14:36:30Z</time>
      </trkpt>
      <trkpt lat="43.58483" lon="3.08357">
        <ele>172.08548</ele>
        <time>2025-10-23T14:36:31Z</time>
      </trkpt>
      <trkpt lat="43.58483" lon="3.08357">
        <ele>172.080928</ele>
        <time>2025-10-23T14:36:32Z</time>
      </trkpt>
      <trkpt lat="43.58483" lon="3.08357">
        <ele>172.07986</ele>
        <time>2025-10-23T14:36:33Z</time>
      </trkpt>
      <trkpt lat="43.58483" lon="3.08357">
        <ele>172.07986</ele>
        <time>2025-10-23T14:36:34Z</time>
      </trkpt>
      <trkpt lat="43.58489" lon="3.0835">
        <ele>171.955414</ele>
        <time>2025-10-23T14:39:53Z</time>
      </trkpt>
      <trkpt lat="43.5849" lon="3.08348">
        <ele>171.932016</ele>
        <time>2025-10-23T14:39:54Z</time>
      </trkpt>
      <trkpt lat="43.58491" lon="3.08347">
        <ele>171.914592</ele>
        <time>2025-10-23T14:39:55Z</time>
      </trkpt>
      <trkpt lat="43.58492" lon="3.08346">
        <ele>171.900646</ele>
        <time>2025-10-23T14:39:56Z</time>
      </trkpt>
      <trkpt lat="43.58492" lon="3.08346">
        <ele>171.891732</ele>
        <time>2025-10-23T14:39:57Z</time>
      </trkpt>
      <trkpt lat="43.58493" lon="3.08347">
        <ele>171.884447</ele>
        <time>2025-10-23T14:39:58Z</time>
      </trkpt>
      <trkpt lat="43.58493" lon="3.08347">
        <ele>171.881309</ele>
        <time>2025-10-23T14:39:59Z</time>
      </trkpt>
      <trkpt lat="43.58494" lon="3.08347">
        <ele>171.872205</ele>
        <time>2025-10-23T14:40:00Z</time>
      </trkpt>
      <trkpt lat="43.58495" lon="3.08347">
        <ele>171.851445</ele>
        <time>2025-10-23T14:40:01Z</time>
      </trkpt>
      <trkpt lat="43.58497" lon="3.08347">
        <ele>171.826371</ele>
        <time>2025-10-23T14:40:02Z</time>
      </trkpt>
      <trkpt lat="43.58499" lon="3.08347">
        <ele>171.789481</ele>
        <time>2025-10-23T14:40:03Z</time>
      </trkpt>
      <trkpt lat="43.58502" lon="3.08347">
        <ele>171.745026</ele>
        <time>2025-10-23T14:40:04Z</time>
      </trkpt>
      <trkpt lat="43.58505" lon="3.08348">
        <ele>171.699958</ele>
        <time>2025-10-23T14:40:05Z</time>
      </trkpt>
      <trkpt lat="43.58508" lon="3.08349">
        <ele>171.658315</ele>
        <time>2025-10-23T14:40:06Z</time>
      </trkpt>
      <trkpt lat="43.58511" lon="3.08349">
        <ele>171.612578</ele>
        <time>2025-10-23T14:40:07Z</time>
      </trkpt>
      <trkpt lat="43.58514" lon="3.08348">
        <ele>171.569591</ele>
        <time>2025-10-23T14:40:08Z</time>
      </trkpt>
      <trkpt lat="43.58517" lon="3.08348">
        <ele>171.522343</ele>
        <time>2025-10-23T14:40:09Z</time>
      </trkpt>
      <trkpt lat="43.58521" lon="3.08349">
        <ele>171.473622</ele>
        <time>2025-10-23T14:40:10Z</time>
      </trkpt>
      <trkpt lat="43.58524" lon="3.08349">
        <ele>171.424948</ele>
        <time>2025-10-23T14:40:11Z</time>
      </trkpt>
      <trkpt lat="43.58527" lon="3.08348">
        <ele>171.376087</ele>
        <time>2025-10-23T14:40:12Z</time>
      </trkpt>
      <trkpt lat="43.5853" lon="3.08348">
        <ele>171.327366</ele>
        <time>2025-10-23T14:40:13Z</time>
      </trkpt>
      <trkpt lat="43.58533" lon="3.08348">
        <ele>171.285942</ele>
        <time>2025-10-23T14:40:14Z</time>
      </trkpt>
      <trkpt lat="43.58536" lon="3.08349">
        <ele>171.240106</ele>
        <time>2025-10-23T14:40:15Z</time>
      </trkpt>
      <trkpt lat="43.5854" lon="3.08349">
        <ele>171.192894</ele>
        <time>2025-10-23T14:40:16Z</time>
      </trkpt>
      <trkpt lat="43.58543" lon="3.08348">
        <ele>171.148529</ele>
        <time>2025-10-23T14:40:17Z</time>
      </trkpt>
      <trkpt lat="43.58546" lon="3.08348">
        <ele>171.102793</ele>
        <time>2025-10-23T14:40:18Z</time>
      </trkpt>
      <trkpt lat="43.58549" lon="3.08349">
        <ele>171.056276</ele>
        <time>2025-10-23T14:40:19Z</time>
      </trkpt>
      <trkpt lat="43.58552" lon="3.08351">
        <ele>171.002174</ele>
        <time>2025-10-23T14:40:20Z</time>
      </trkpt>
      <trkpt lat="43.58555" lon="3.08353">
        <ele>170.94846</ele>
        <time>2025-10-23T14:40:21Z</time>
      </trkpt>
      <trkpt lat="43.58559" lon="3.08356">
        <ele>170.89188</ele>
        <time>2025-10-23T14:40:22Z</time>
      </trkpt>
      <trkpt lat="43.58562" lon="3.08357">
        <ele>170.887839</ele>
        <time>2025-10-23T14:40:23Z</time>
      </trkpt>
      <trkpt lat="43.58566" lon="3.08358">
        <ele>170.919356</ele>
        <time>2025-10-23T14:40:24Z</time>
      </trkpt>
      <trkpt lat="43.5857" lon="3.08358">
        <ele>170.950018</ele>
        <time>2025-10-23T14:40:25Z</time>
      </trkpt>
      <trkpt lat="43.58574" lon="3.08357">
        <ele>170.983121</ele>
        <time>2025-10-23T14:40:26Z</time>
      </trkpt>
      <trkpt lat="43.58578" lon="3.08357">
        <ele>171.016286</ele>
        <time>2025-10-23T14:40:27Z</time>
      </trkpt>
      <trkpt lat="43.58582" lon="3.08356">
        <ele>171.04962</ele>
        <time>2025-10-23T14:40:28Z</time>
      </trkpt>
      <trkpt lat="43.58586" lon="3.08356">
        <ele>171.082154</ele>
        <time>2025-10-23T14:40:29Z</time>
      </trkpt>
      <trkpt lat="43.5859" lon="3.08355">
        <ele>171.114561</ele>
        <time>2025-10-23T14:40:30Z</time>
      </trkpt>
      <trkpt lat="43.58594" lon="3.08354">
        <ele>171.146295</ele>
        <time>2025-10-23T14:40:31Z</time>
      </trkpt>
      <trkpt lat="43.58598" lon="3.08354">
        <ele>171.178828</ele>
        <time>2025-10-23T14:40:32Z</time>
      </trkpt>
      <trkpt lat="43.58602" lon="3.08353">
        <ele>171.210346</ele>
        <time>2025-10-23T14:40:33Z</time>
      </trkpt>
      <trkpt lat="43.58606" lon="3.08353">
        <ele>171.241096</ele>
        <time>2025-10-23T14:40:34Z</time>
      </trkpt>
      <trkpt lat="43.5861" lon="3.08352">
        <ele>171.271958</ele>
        <time>2025-10-23T14:40:35Z</time>
      </trkpt>
      <trkpt lat="43.58614" lon="3.08352">
        <ele>171.302709</ele>
        <time>2025-10-23T14:40:36Z</time>
      </trkpt>
      <trkpt lat="43.58617" lon="3.08352">
        <ele>171.332615</ele>
        <time>2025-10-23T14:40:37Z</time>
      </trkpt>
      <trkpt lat="43.58621" lon="3.08352">
        <ele>171.36088</ele>
        <time>2025-10-23T14:40:38Z</time>
      </trkpt>
      <trkpt lat="43.58624" lon="3.08351">
        <ele>171.390826</ele>
        <time>2025-10-23T14:40:39Z</time>
      </trkpt>
      <trkpt lat="43.58628" lon="3.08351">
        <ele>171.422343</ele>
        <time>2025-10-23T14:40:40Z</time>
      </trkpt>
      <trkpt lat="43.58632" lon="3.08351">
        <ele>171.454667</ele>
        <time>2025-10-23T14:40:41Z</time>
      </trkpt>
      <trkpt lat="43.58636" lon="3.0835">
        <ele>171.48627</ele>
        <time>2025-10-23T14:40:42Z</time>
      </trkpt>
      <trkpt lat="43.5864" lon="3.0835">
        <ele>171.516268</ele>
        <time>2025-10-23T14:40:43Z</time>
      </trkpt>
      <trkpt lat="43.58644" lon="3.08349">
        <ele>171.545527</ele>
        <time>2025-10-23T14:40:44Z</time>
      </trkpt>
      <trkpt lat="43.58647" lon="3.08348">
        <ele>171.573184</ele>
        <time>2025-10-23T14:40:45Z</time>
      </trkpt>
      <trkpt lat="43.58651" lon="3.08348">
        <ele>171.602255</ele>
        <time>2025-10-23T14:40:46Z</time>
      </trkpt>
      <trkpt lat="43.58654" lon="3.08348">
        <ele>171.629696</ele>
        <time>2025-10-23T14:40:47Z</time>
      </trkpt>
      <trkpt lat="43.58657" lon="3.08348">
        <ele>171.657136</ele>
        <time>2025-10-23T14:40:48Z</time>
      </trkpt>
      <trkpt lat="43.58661" lon="3.08347">
        <ele>171.683993</ele>
        <time>2025-10-23T14:40:49Z</time>
      </trkpt>
      <trkpt lat="43.58664" lon="3.08347">
        <ele>171.710627</ele>
        <time>2025-10-23T14:40:50Z</time>
      </trkpt>
      <trkpt lat="43.58667" lon="3.08347">
        <ele>171.73728</ele>
        <time>2025-10-23T14:40:51Z</time>
      </trkpt>
      <trkpt lat="43.5867" lon="3.08347">
        <ele>171.76232</ele>
        <time>2025-10-23T14:40:52Z</time>
      </trkpt>
      <trkpt lat="43.58673" lon="3.08347">
        <ele>171.786534</ele>
        <time>2025-10-23T14:40:53Z</time>
      </trkpt>
      <trkpt lat="43.58676" lon="3.08346">
        <ele>171.809999</ele>
        <time>2025-10-23T14:40:54Z</time>
      </trkpt>
      <trkpt lat="43.58679" lon="3.08346">
        <ele>171.834234</ele>
        <time>2025-10-23T14:40:55Z</time>
      </trkpt>
      <trkpt lat="43.58682" lon="3.08346">
        <ele>171.857634</ele>
        <time>2025-10-23T14:40:56Z</time>
      </trkpt>
      <trkpt lat="43.58685" lon="3.08346">
        <ele>171.881847</ele>
        <time>2025-10-23T14:40:57Z</time>
      </trkpt>
      <trkpt lat="43.58688" lon="3.08347">
        <ele>171.906167</ele>
        <time>2025-10-23T14:40:58Z</time>
      </trkpt>
      <trkpt lat="43.58691" lon="3.08348">
        <ele>171.931069</ele>
        <time>2025-10-23T14:40:59Z</time>
      </trkpt>
      <trkpt lat="43.58694" lon="3.08349">
        <ele>171.955013</ele>
        <time>2025-10-23T14:41:00Z</time>
      </trkpt>
      <trkpt lat="43.58697" lon="3.08351">
        <ele>171.980188</ele>
        <time>2025-10-23T14:41:01Z</time>
      </trkpt>
      <trkpt lat="43.587" lon="3.08353">
        <ele>172.008531</ele>
        <time>2025-10-23T14:41:02Z</time>
      </trkpt>
      <trkpt lat="43.58703" lon="3.08355">
        <ele>172.037913</ele>
        <time>2025-10-23T14:41:03Z</time>
      </trkpt>
      <trkpt lat="43.58707" lon="3.08357">
        <ele>172.065769</ele>
        <time>2025-10-23T14:41:04Z</time>
      </trkpt>
      <trkpt lat="43.5871" lon="3.08358">
        <ele>172.094868</ele>
        <time>2025-10-23T14:41:05Z</time>
      </trkpt>
      <trkpt lat="43.58714" lon="3.08358">
        <ele>172.123939</ele>
        <time>2025-10-23T14:41:06Z</time>
      </trkpt>
      <trkpt lat="43.58717" lon="3.08357">
        <ele>172.153361</ele>
        <time>2025-10-23T14:41:07Z</time>
      </trkpt>
      <trkpt lat="43.58721" lon="3.08356">
        <ele>172.181538</ele>
        <time>2025-10-23T14:41:08Z</time>
      </trkpt>
      <trkpt lat="43.58724" lon="3.08354">
        <ele>172.210388</ele>
        <time>2025-10-23T14:41:09Z</time>
      </trkpt>
      <trkpt lat="43.58728" lon="3.08352">
        <ele>172.242154</ele>
        <time>2025-10-23T14:41:10Z</time>
      </trkpt>
      <trkpt lat="43.58731" lon="3.0835">
        <ele>172.274007</ele>
        <time>2025-10-23T14:41:11Z</time>
      </trkpt>
      <trkpt lat="43.58735" lon="3.08349">
        <ele>172.304349</ele>
        <time>2025-10-23T14:41:12Z</time>
      </trkpt>
      <trkpt lat="43.58738" lon="3.08347">
        <ele>172.395033</ele>
        <time>2025-10-23T14:41:13Z</time>
      </trkpt>
      <trkpt lat="43.58742" lon="3.08347">
        <ele>172.535903</ele>
        <time>2025-10-23T14:41:14Z</time>
      </trkpt>
      <trkpt lat="43.58744" lon="3.08345">
        <ele>172.662292</ele>
        <time>2025-10-23T14:41:15Z</time>
      </trkpt>
      <trkpt lat="43.58745" lon="3.08342">
        <ele>172.759972</ele>
        <time>2025-10-23T14:41:16Z</time>
      </trkpt>
      <trkpt lat="43.58745" lon="3.08339">
        <ele>172.852399</ele>
        <time>2025-10-23T14:41:17Z</time>
      </trkpt>
      <trkpt lat="43.58744" lon="3.08338">
        <ele>172.898598</ele>
        <time>2025-10-23T14:41:18Z</time>
      </trkpt>
      <trkpt lat="43.58744" lon="3.08338">
        <ele>172.917207</ele>
        <time>2025-10-23T14:41:19Z</time>
      </trkpt>
      <trkpt lat="43.58744" lon="3.08338">
        <ele>172.920376</ele>
        <time>2025-10-23T14:41:20Z</time>
      </trkpt>
      <trkpt lat="43.58743" lon="3.08338">
        <ele>172.930839</ele>
        <time>2025-10-23T14:41:21Z</time>
      </trkpt>
      <trkpt lat="43.58743" lon="3.08338">
        <ele>172.940144</ele>
        <time>2025-10-23T14:41:22Z</time>
      </trkpt>
      <trkpt lat="43.58742" lon="3.08337">
        <ele>173.008548</ele>
        <time>2025-10-23T14:41:23Z</time>
      </trkpt>
      <trkpt lat="43.5874" lon="3.08335">
        <ele>173.086019</ele>
        <time>2025-10-23T14:41:24Z</time>
      </trkpt>
      <trkpt lat="43.58739" lon="3.08332">
        <ele>173.186942</ele>
        <time>2025-10-23T14:41:25Z</time>
      </trkpt>
      <trkpt lat="43.58739" lon="3.08329">
        <ele>173.308053</ele>
        <time>2025-10-23T14:41:26Z</time>
      </trkpt>
      <trkpt lat="43.58739" lon="3.08325">
        <ele>173.43803</ele>
        <time>2025-10-23T14:41:27Z</time>
      </trkpt>
      <trkpt lat="43.58739" lon="3.0832">
        <ele>173.580674</ele>
        <time>2025-10-23T14:41:28Z</time>
      </trkpt>
      <trkpt lat="43.58739" lon="3.08315">
        <ele>173.733007</ele>
        <time>2025-10-23T14:41:29Z</time>
      </trkpt>
      <trkpt lat="43.58738" lon="3.0831">
        <ele>173.896068</ele>
        <time>2025-10-23T14:41:30Z</time>
      </trkpt>
      <trkpt lat="43.58739" lon="3.08305">
        <ele>174.064503</ele>
        <time>2025-10-23T14:41:31Z</time>
      </trkpt>
      <trkpt lat="43.5874" lon="3.083">
        <ele>174.239507</ele>
        <time>2025-10-23T14:41:32Z</time>
      </trkpt>
      <trkpt lat="43.58743" lon="3.08296">
        <ele>174.419755</ele>
        <time>2025-10-23T14:41:33Z</time>
      </trkpt>
      <trkpt lat="43.58747" lon="3.08294">
        <ele>174.591356</ele>
        <time>2025-10-23T14:41:34Z</time>
      </trkpt>
      <trkpt lat="43.58751" lon="3.08294">
        <ele>174.767356</ele>
        <time>2025-10-23T14:41:35Z</time>
      </trkpt>
      <trkpt lat="43.58755" lon="3.08292">
        <ele>174.954967</ele>
        <time>2025-10-23T14:41:36Z</time>
      </trkpt>
      <trkpt lat="43.58759" lon="3.08291">
        <ele>175.110165</ele>
        <time>2025-10-23T14:41:37Z</time>
      </trkpt>
      <trkpt lat="43.58762" lon="3.0829">
        <ele>175.261177</ele>
        <time>2025-10-23T14:41:38Z</time>
      </trkpt>
      <trkpt lat="43.58765" lon="3.08289">
        <ele>175.387688</ele>
        <time>2025-10-23T14:41:39Z</time>
      </trkpt>
      <trkpt lat="43.58768" lon="3.08288">
        <ele>175.525091</ele>
        <time>2025-10-23T14:41:40Z</time>
      </trkpt>
      <trkpt lat="43.58771" lon="3.08287">
        <ele>175.658744</ele>
        <time>2025-10-23T14:41:41Z</time>
      </trkpt>
      <trkpt lat="43.58773" lon="3.08286">
        <ele>175.756993</ele>
        <time>2025-10-23T14:41:42Z</time>
      </trkpt>
      <trkpt lat="43.58774" lon="3.08285">
        <ele>175.832609</ele>
        <time>2025-10-23T14:41:43Z</time>
      </trkpt>
      <trkpt lat="43.58775" lon="3.08284">
        <ele>175.87667</ele>
        <time>2025-10-23T14:41:44Z</time>
      </trkpt>
      <trkpt lat="43.58775" lon="3.08284">
        <ele>175.885419</ele>
        <time>2025-10-23T14:41:45Z</time>
      </trkpt>
      <trkpt lat="43.58774" lon="3.08284">
        <ele>175.911256</ele>
        <time>2025-10-23T14:41:46Z</time>
      </trkpt>
      <trkpt lat="43.58774" lon="3.08284">
        <ele>175.920761</ele>
        <time>2025-10-23T14:41:47Z</time>
      </trkpt>
      <trkpt lat="43.58775" lon="3.08283">
        <ele>175.938858</ele>
        <time>2025-10-23T14:41:48Z</time>
      </trkpt>
      <trkpt lat="43.58775" lon="3.08283">
        <ele>175.962705</ele>
        <time>2025-10-23T14:41:49Z</time>
      </trkpt>
      <trkpt lat="43.58776" lon="3.08283">
        <ele>176.003204</ele>
        <time>2025-10-23T14:41:50Z</time>
      </trkpt>
      <trkpt lat="43.58777" lon="3.08282">
        <ele>176.03021</ele>
        <time>2025-10-23T14:41:51Z</time>
      </trkpt>
      <trkpt lat="43.58777" lon="3.08282">
        <ele>176.048819</ele>
        <time>2025-10-23T14:41:52Z</time>
      </trkpt>
      <trkpt lat="43.58778" lon="3.08282">
        <ele>176.080088</ele>
        <time>2025-10-23T14:41:53Z</time>
      </trkpt>
      <trkpt lat="43.58778" lon="3.08282">
        <ele>176.107087</ele>
        <time>2025-10-23T14:41:54Z</time>
      </trkpt>
      <trkpt lat="43.58779" lon="3.08282">
        <ele>176.146962</ele>
        <time>2025-10-23T14:41:55Z</time>
      </trkpt>
      <trkpt lat="43.5878" lon="3.08282">
        <ele>176.188393</ele>
        <time>2025-10-23T14:41:56Z</time>
      </trkpt>
      <trkpt lat="43.5878" lon="3.08282">
        <ele>176.202965</ele>
        <time>2025-10-23T14:41:57Z</time>
      </trkpt>
      <trkpt lat="43.58781" lon="3.08281">
        <ele>176.253623</ele>
        <time>2025-10-23T14:41:58Z</time>
      </trkpt>
      <trkpt lat="43.58782" lon="3.08281">
        <ele>176.275722</ele>
        <time>2025-10-23T14:41:59Z</time>
      </trkpt>
      <trkpt lat="43.58783" lon="3.08281">
        <ele>176.323417</ele>
        <time>2025-10-23T14:42:00Z</time>
      </trkpt>
      <trkpt lat="43.58784" lon="3.0828">
        <ele>176.367135</ele>
        <time>2025-10-23T14:42:01Z</time>
      </trkpt>
      <trkpt lat="43.58785" lon="3.08279">
        <ele>176.41232</ele>
        <time>2025-10-23T14:42:02Z</time>
      </trkpt>
      <trkpt lat="43.58786" lon="3.08279">
        <ele>176.460853</ele>
        <time>2025-10-23T14:42:03Z</time>
      </trkpt>
      <trkpt lat="43.58786" lon="3.08279">
        <ele>176.491636</ele>
        <time>2025-10-23T14:42:04Z</time>
      </trkpt>
      <trkpt lat="43.58788" lon="3.08279">
        <ele>176.540682</ele>
        <time>2025-10-23T14:42:05Z</time>
      </trkpt>
      <trkpt lat="43.58789" lon="3.08278">
        <ele>176.613206</ele>
        <time>2025-10-23T14:42:06Z</time>
      </trkpt>
      <trkpt lat="43.5879" lon="3.08277">
        <ele>176.674518</ele>
        <time>2025-10-23T14:42:07Z</time>
      </trkpt>
      <trkpt lat="43.58791" lon="3.08277">
        <ele>176.722635</ele>
        <time>2025-10-23T14:42:08Z</time>
      </trkpt>
      <trkpt lat="43.58793" lon="3.08277">
        <ele>176.771167</ele>
        <time>2025-10-23T14:42:09Z</time>
      </trkpt>
      <trkpt lat="43.58794" lon="3.08278">
        <ele>176.825166</ele>
        <time>2025-10-23T14:42:10Z</time>
      </trkpt>
      <trkpt lat="43.58795" lon="3.08278">
        <ele>176.867602</ele>
        <time>2025-10-23T14:42:11Z</time>
      </trkpt>
      <trkpt lat="43.58796" lon="3.08278">
        <ele>176.920947</ele>
        <time>2025-10-23T14:42:12Z</time>
      </trkpt>
      <trkpt lat="43.58797" lon="3.08278">
        <ele>176.9779</ele>
        <time>2025-10-23T14:42:13Z</time>
      </trkpt>
      <trkpt lat="43.58798" lon="3.08278">
        <ele>177.008684</ele>
        <time>2025-10-23T14:42:14Z</time>
      </trkpt>
      <trkpt lat="43.58799" lon="3.08278">
        <ele>177.052541</ele>
        <time>2025-10-23T14:42:15Z</time>
      </trkpt>
      <trkpt lat="43.588" lon="3.08278">
        <ele>177.092036</ele>
        <time>2025-10-23T14:42:16Z</time>
      </trkpt>
      <trkpt lat="43.58801" lon="3.08279">
        <ele>177.134472</ele>
        <time>2025-10-23T14:42:17Z</time>
      </trkpt>
      <trkpt lat="43.58802" lon="3.08279">
        <ele>177.173841</ele>
        <time>2025-10-23T14:42:18Z</time>
      </trkpt>
      <trkpt lat="43.58802" lon="3.08279">
        <ele>177.200277</ele>
        <time>2025-10-23T14:42:19Z</time>
      </trkpt>
      <trkpt lat="43.58803" lon="3.08278">
        <ele>177.240101</ele>
        <time>2025-10-23T14:42:20Z</time>
      </trkpt>
      <trkpt lat="43.58804" lon="3.08277">
        <ele>177.281531</ele>
        <time>2025-10-23T14:42:21Z</time>
      </trkpt>
      <trkpt lat="43.58805" lon="3.08276">
        <ele>177.33411</ele>
        <time>2025-10-23T14:42:22Z</time>
      </trkpt>
      <trkpt lat="43.58805" lon="3.08275">
        <ele>177.377319</ele>
        <time>2025-10-23T14:42:23Z</time>
      </trkpt>
      <trkpt lat="43.58806" lon="3.08275">
        <ele>177.425929</ele>
        <time>2025-10-23T14:42:24Z</time>
      </trkpt>
      <trkpt lat="43.58808" lon="3.08273">
        <ele>177.494334</ele>
        <time>2025-10-23T14:42:25Z</time>
      </trkpt>
      <trkpt lat="43.58809" lon="3.08272">
        <ele>177.566453</ele>
        <time>2025-10-23T14:42:26Z</time>
      </trkpt>
      <trkpt lat="43.5881" lon="3.0827">
        <ele>177.637262</ele>
        <time>2025-10-23T14:42:27Z</time>
      </trkpt>
      <trkpt lat="43.58811" lon="3.08269">
        <ele>177.700041</ele>
        <time>2025-10-23T14:42:28Z</time>
      </trkpt>
      <trkpt lat="43.58812" lon="3.08267">
        <ele>177.769934</ele>
        <time>2025-10-23T14:42:29Z</time>
      </trkpt>
      <trkpt lat="43.58813" lon="3.08266">
        <ele>177.829242</ele>
        <time>2025-10-23T14:42:30Z</time>
      </trkpt>
      <trkpt lat="43.58813" lon="3.08264">
        <ele>177.884452</ele>
        <time>2025-10-23T14:42:31Z</time>
      </trkpt>
      <trkpt lat="43.58814" lon="3.08263">
        <ele>177.931087</ele>
        <time>2025-10-23T14:42:32Z</time>
      </trkpt>
      <trkpt lat="43.58814" lon="3.08262">
        <ele>177.977286</ele>
        <time>2025-10-23T14:42:33Z</time>
      </trkpt>
      <trkpt lat="43.58815" lon="3.08259">
        <ele>178.054596</ele>
        <time>2025-10-23T14:42:34Z</time>
      </trkpt>
      <trkpt lat="43.58816" lon="3.08257">
        <ele>178.126461</ele>
        <time>2025-10-23T14:42:35Z</time>
      </trkpt>
      <trkpt lat="43.58815" lon="3.08256">
        <ele>178.174785</ele>
        <time>2025-10-23T14:42:36Z</time>
      </trkpt>
      <trkpt lat="43.58815" lon="3.08255">
        <ele>178.209636</ele>
        <time>2025-10-23T14:42:37Z</time>
      </trkpt>
      <trkpt lat="43.58816" lon="3.08254">
        <ele>178.232736</ele>
        <time>2025-10-23T14:42:38Z</time>
      </trkpt>
      <trkpt lat="43.58816" lon="3.08253">
        <ele>178.280261</ele>
        <time>2025-10-23T14:42:39Z</time>
      </trkpt>
      <trkpt lat="43.58815" lon="3.08251">
        <ele>178.338781</ele>
        <time>2025-10-23T14:42:40Z</time>
      </trkpt>
      <trkpt lat="43.58815" lon="3.08249">
        <ele>178.395866</ele>
        <time>2025-10-23T14:42:41Z</time>
      </trkpt>
      <trkpt lat="43.58814" lon="3.08248">
        <ele>178.455089</ele>
        <time>2025-10-23T14:42:42Z</time>
      </trkpt>
      <trkpt lat="43.58813" lon="3.08246">
        <ele>178.532154</ele>
        <time>2025-10-23T14:42:43Z</time>
      </trkpt>
      <trkpt lat="43.58812" lon="3.08244">
        <ele>178.611719</ele>
        <time>2025-10-23T14:42:44Z</time>
      </trkpt>
      <trkpt lat="43.58811" lon="3.08242">
        <ele>178.683647</ele>
        <time>2025-10-23T14:42:45Z</time>
      </trkpt>
      <trkpt lat="43.5881" lon="3.0824">
        <ele>178.765203</ele>
        <time>2025-10-23T14:42:46Z</time>
      </trkpt>
      <trkpt lat="43.58808" lon="3.08238">
        <ele>178.851076</ele>
        <time>2025-10-23T14:42:47Z</time>
      </trkpt>
      <trkpt lat="43.58807" lon="3.08237">
        <ele>178.918033</ele>
        <time>2025-10-23T14:42:48Z</time>
      </trkpt>
      <trkpt lat="43.58806" lon="3.08235">
        <ele>178.994213</ele>
        <time>2025-10-23T14:42:49Z</time>
      </trkpt>
      <trkpt lat="43.58805" lon="3.08233">
        <ele>179.086647</ele>
        <time>2025-10-23T14:42:50Z</time>
      </trkpt>
      <trkpt lat="43.58803" lon="3.0823">
        <ele>179.17908</ele>
        <time>2025-10-23T14:42:51Z</time>
      </trkpt>
      <trkpt lat="43.58802" lon="3.08227">
        <ele>179.284899</ele>
        <time>2025-10-23T14:42:52Z</time>
      </trkpt>
      <trkpt lat="43.58801" lon="3.08225">
        <ele>179.369597</ele>
        <time>2025-10-23T14:42:53Z</time>
      </trkpt>
      <trkpt lat="43.58799" lon="3.08224">
        <ele>179.456016</ele>
        <time>2025-10-23T14:42:54Z</time>
      </trkpt>
      <trkpt lat="43.58798" lon="3.08222">
        <ele>179.552583</ele>
        <time>2025-10-23T14:42:55Z</time>
      </trkpt>
      <trkpt lat="43.58797" lon="3.08219">
        <ele>179.647983</ele>
        <time>2025-10-23T14:42:56Z</time>
      </trkpt>
      <trkpt lat="43.58796" lon="3.08216">
        <ele>179.742432</ele>
        <time>2025-10-23T14:42:57Z</time>
      </trkpt>
      <trkpt lat="43.58796" lon="3.08212">
        <ele>179.857827</ele>
        <time>2025-10-23T14:42:58Z</time>
      </trkpt>
      <trkpt lat="43.58796" lon="3.08209">
        <ele>179.969492</ele>
        <time>2025-10-23T14:42:59Z</time>
      </trkpt>
      <trkpt lat="43.58796" lon="3.08205">
        <ele>180.080471</ele>
        <time>2025-10-23T14:43:00Z</time>
      </trkpt>
      <trkpt lat="43.58796" lon="3.08202">
        <ele>180.189945</ele>
        <time>2025-10-23T14:43:01Z</time>
      </trkpt>
      <trkpt lat="43.58796" lon="3.08198">
        <ele>180.249832</ele>
        <time>2025-10-23T14:43:02Z</time>
      </trkpt>
      <trkpt lat="43.58796" lon="3.08194">
        <ele>180.302567</ele>
        <time>2025-10-23T14:43:03Z</time>
      </trkpt>
      <trkpt lat="43.58797" lon="3.08191">
        <ele>180.356383</ele>
        <time>2025-10-23T14:43:04Z</time>
      </trkpt>
      <trkpt lat="43.58797" lon="3.08188">
        <ele>180.406829</ele>
        <time>2025-10-23T14:43:05Z</time>
      </trkpt>
      <trkpt lat="43.58798" lon="3.08184">
        <ele>180.456892</ele>
        <time>2025-10-23T14:43:06Z</time>
      </trkpt>
      <trkpt lat="43.58798" lon="3.08181">
        <ele>180.505481</ele>
        <time>2025-10-23T14:43:07Z</time>
      </trkpt>
      <trkpt lat="43.58799" lon="3.08178">
        <ele>180.556133</ele>
        <time>2025-10-23T14:43:08Z</time>
      </trkpt>
      <trkpt lat="43.588" lon="3.08175">
        <ele>180.60615</ele>
        <time>2025-10-23T14:43:09Z</time>
      </trkpt>
      <trkpt lat="43.588" lon="3.08171">
        <ele>180.65964</ele>
        <time>2025-10-23T14:43:10Z</time>
      </trkpt>
      <trkpt lat="43.58801" lon="3.08168">
        <ele>180.716624</ele>
        <time>2025-10-23T14:43:11Z</time>
      </trkpt>
      <trkpt lat="43.58802" lon="3.08164">
        <ele>180.768986</ele>
        <time>2025-10-23T14:43:12Z</time>
      </trkpt>
      <trkpt lat="43.58802" lon="3.08161">
        <ele>180.822364</ele>
        <time>2025-10-23T14:43:13Z</time>
      </trkpt>
      <trkpt lat="43.58803" lon="3.08158">
        <ele>180.87281</ele>
        <time>2025-10-23T14:43:14Z</time>
      </trkpt>
      <trkpt lat="43.58803" lon="3.08154">
        <ele>180.926188</ele>
        <time>2025-10-23T14:43:15Z</time>
      </trkpt>
      <trkpt lat="43.58804" lon="3.08151">
        <ele>180.976634</ele>
        <time>2025-10-23T14:43:16Z</time>
      </trkpt>
      <trkpt lat="43.58804" lon="3.08148">
        <ele>181.020222</ele>
        <time>2025-10-23T14:43:17Z</time>
      </trkpt>
      <trkpt lat="43.58804" lon="3.08145">
        <ele>181.062321</ele>
        <time>2025-10-23T14:43:18Z</time>
      </trkpt>
      <trkpt lat="43.58804" lon="3.08142">
        <ele>181.108751</ele>
        <time>2025-10-23T14:43:19Z</time>
      </trkpt>
      <trkpt lat="43.58804" lon="3.08139">
        <ele>181.155547</ele>
        <time>2025-10-23T14:43:20Z</time>
      </trkpt>
      <trkpt lat="43.58803" lon="3.08136">
        <ele>181.199595</ele>
        <time>2025-10-23T14:43:21Z</time>
      </trkpt>
      <trkpt lat="43.58801" lon="3.08135">
        <ele>181.239685</ele>
        <time>2025-10-23T14:43:22Z</time>
      </trkpt>
      <trkpt lat="43.588" lon="3.08133">
        <ele>181.282246</ele>
        <time>2025-10-23T14:43:23Z</time>
      </trkpt>
      <trkpt lat="43.58797" lon="3.08133">
        <ele>181.327914</ele>
        <time>2025-10-23T14:43:24Z</time>
      </trkpt>
      <trkpt lat="43.58795" lon="3.08133">
        <ele>181.377695</ele>
        <time>2025-10-23T14:43:25Z</time>
      </trkpt>
      <trkpt lat="43.58793" lon="3.08132">
        <ele>181.42402</ele>
        <time>2025-10-23T14:43:26Z</time>
      </trkpt>
      <trkpt lat="43.58791" lon="3.08132">
        <ele>181.470659</ele>
        <time>2025-10-23T14:43:27Z</time>
      </trkpt>
      <trkpt lat="43.58788" lon="3.08131">
        <ele>181.518059</ele>
        <time>2025-10-23T14:43:28Z</time>
      </trkpt>
      <trkpt lat="43.58786" lon="3.0813">
        <ele>181.561543</ele>
        <time>2025-10-23T14:43:29Z</time>
      </trkpt>
      <trkpt lat="43.58784" lon="3.0813">
        <ele>181.607382</ele>
        <time>2025-10-23T14:43:30Z</time>
      </trkpt>
      <trkpt lat="43.58782" lon="3.08129">
        <ele>181.656767</ele>
        <time>2025-10-23T14:43:31Z</time>
      </trkpt>
      <trkpt lat="43.5878" lon="3.08128">
        <ele>181.701394</ele>
        <time>2025-10-23T14:43:32Z</time>
      </trkpt>
      <trkpt lat="43.58777" lon="3.08128">
        <ele>181.748931</ele>
        <time>2025-10-23T14:43:33Z</time>
      </trkpt>
      <trkpt lat="43.58775" lon="3.0813">
        <ele>181.798365</ele>
        <time>2025-10-23T14:43:34Z</time>
      </trkpt>
      <trkpt lat="43.58773" lon="3.08131">
        <ele>181.841044</ele>
        <time>2025-10-23T14:43:35Z</time>
      </trkpt>
      <trkpt lat="43.58772" lon="3.08133">
        <ele>181.883096</ele>
        <time>2025-10-23T14:43:36Z</time>
      </trkpt>
      <trkpt lat="43.5877" lon="3.08135">
        <ele>181.931902</ele>
        <time>2025-10-23T14:43:37Z</time>
      </trkpt>
      <trkpt lat="43.58769" lon="3.08138">
        <ele>181.984012</ele>
        <time>2025-10-23T14:43:38Z</time>
      </trkpt>
      <trkpt lat="43.58767" lon="3.08141">
        <ele>182.041157</ele>
        <time>2025-10-23T14:43:39Z</time>
      </trkpt>
      <trkpt lat="43.58765" lon="3.08144">
        <ele>182.100018</ele>
        <time>2025-10-23T14:43:40Z</time>
      </trkpt>
      <trkpt lat="43.58763" lon="3.08146">
        <ele>182.162854</ele>
        <time>2025-10-23T14:43:41Z</time>
      </trkpt>
      <trkpt lat="43.58761" lon="3.0815">
        <ele>182.230718</ele>
        <time>2025-10-23T14:43:42Z</time>
      </trkpt>
      <trkpt lat="43.58759" lon="3.08154">
        <ele>182.295846</ele>
        <time>2025-10-23T14:43:43Z</time>
      </trkpt>
      <trkpt lat="43.58758" lon="3.08159">
        <ele>182.371177</ele>
        <time>2025-10-23T14:43:44Z</time>
      </trkpt>
      <trkpt lat="43.58757" lon="3.08163">
        <ele>182.44366</ele>
        <time>2025-10-23T14:43:45Z</time>
      </trkpt>
      <trkpt lat="43.58756" lon="3.08168">
        <ele>182.516543</ele>
        <time>2025-10-23T14:43:46Z</time>
      </trkpt>
      <trkpt lat="43.58756" lon="3.08173">
        <ele>182.586899</ele>
        <time>2025-10-23T14:43:47Z</time>
      </trkpt>
      <trkpt lat="43.58756" lon="3.08177">
        <ele>182.654263</ele>
        <time>2025-10-23T14:43:48Z</time>
      </trkpt>
      <trkpt lat="43.58756" lon="3.08183">
        <ele>182.730825</ele>
        <time>2025-10-23T14:43:49Z</time>
      </trkpt>
      <trkpt lat="43.58756" lon="3.08188">
        <ele>182.81165</ele>
        <time>2025-10-23T14:43:50Z</time>
      </trkpt>
      <trkpt lat="43.58756" lon="3.08193">
        <ele>182.888212</ele>
        <time>2025-10-23T14:43:51Z</time>
      </trkpt>
      <trkpt lat="43.58755" lon="3.08198">
        <ele>182.959508</ele>
        <time>2025-10-23T14:43:52Z</time>
      </trkpt>
      <trkpt lat="43.58754" lon="3.08203">
        <ele>183.033087</ele>
        <time>2025-10-23T14:43:53Z</time>
      </trkpt>
      <trkpt lat="43.58754" lon="3.08207">
        <ele>183.09756</ele>
        <time>2025-10-23T14:43:54Z</time>
      </trkpt>
      <trkpt lat="43.58754" lon="3.08211">
        <ele>183.158296</ele>
        <time>2025-10-23T14:43:55Z</time>
      </trkpt>
      <trkpt lat="43.58753" lon="3.08215">
        <ele>183.224423</ele>
        <time>2025-10-23T14:43:56Z</time>
      </trkpt>
      <trkpt lat="43.58753" lon="3.0822">
        <ele>183.294779</ele>
        <time>2025-10-23T14:43:57Z</time>
      </trkpt>
      <trkpt lat="43.58753" lon="3.08224">
        <ele>183.359252</ele>
        <time>2025-10-23T14:43:58Z</time>
      </trkpt>
      <trkpt lat="43.58753" lon="3.08229">
        <ele>183.425088</ele>
        <time>2025-10-23T14:43:59Z</time>
      </trkpt>
      <trkpt lat="43.58754" lon="3.08233">
        <ele>183.495686</ele>
        <time>2025-10-23T14:44:00Z</time>
      </trkpt>
      <trkpt lat="43.58754" lon="3.08238">
        <ele>183.561555</ele>
        <time>2025-10-23T14:44:01Z</time>
      </trkpt>
      <trkpt lat="43.58754" lon="3.08243">
        <ele>183.633376</ele>
        <time>2025-10-23T14:44:02Z</time>
      </trkpt>
      <trkpt lat="43.58753" lon="3.08247">
        <ele>183.700018</ele>
        <time>2025-10-23T14:44:03Z</time>
      </trkpt>
      <trkpt lat="43.58753" lon="3.08251">
        <ele>183.762862</ele>
        <time>2025-10-23T14:44:04Z</time>
      </trkpt>
      <trkpt lat="43.58753" lon="3.08256">
        <ele>183.839284</ele>
        <time>2025-10-23T14:44:05Z</time>
      </trkpt>
      <trkpt lat="43.58753" lon="3.08261">
        <ele>183.903922</ele>
        <time>2025-10-23T14:44:06Z</time>
      </trkpt>
      <trkpt lat="43.58753" lon="3.08265">
        <ele>183.882304</ele>
        <time>2025-10-23T14:44:07Z</time>
      </trkpt>
      <trkpt lat="43.58753" lon="3.08269">
        <ele>183.862161</ele>
        <time>2025-10-23T14:44:08Z</time>
      </trkpt>
      <trkpt lat="43.58754" lon="3.08274">
        <ele>183.83996</ele>
        <time>2025-10-23T14:44:09Z</time>
      </trkpt>
      <trkpt lat="43.58754" lon="3.08278">
        <ele>183.815601</ele>
        <time>2025-10-23T14:44:10Z</time>
      </trkpt>
      <trkpt lat="43.58755" lon="3.08283">
        <ele>183.792988</ele>
        <time>2025-10-23T14:44:11Z</time>
      </trkpt>
      <trkpt lat="43.58756" lon="3.08287">
        <ele>183.773339</ele>
        <time>2025-10-23T14:44:12Z</time>
      </trkpt>
      <trkpt lat="43.58758" lon="3.08289">
        <ele>183.757411</ele>
        <time>2025-10-23T14:44:13Z</time>
      </trkpt>
      <trkpt lat="43.58759" lon="3.0829">
        <ele>183.747641</ele>
        <time>2025-10-23T14:44:14Z</time>
      </trkpt>
      <trkpt lat="43.58759" lon="3.0829">
        <ele>183.744616</ele>
        <time>2025-10-23T14:44:15Z</time>
      </trkpt>
      <trkpt lat="43.58759" lon="3.0829">
        <ele>183.743142</ele>
        <time>2025-10-23T14:44:16Z</time>
      </trkpt>
      <trkpt lat="43.58759" lon="3.08291">
        <ele>183.737814</ele>
        <time>2025-10-23T14:44:17Z</time>
      </trkpt>
      <trkpt lat="43.5876" lon="3.08292">
        <ele>183.731767</ele>
        <time>2025-10-23T14:44:18Z</time>
      </trkpt>
      <trkpt lat="43.5876" lon="3.08292">
        <ele>183.730929</ele>
        <time>2025-10-23T14:44:19Z</time>
      </trkpt>
      <trkpt lat="43.5876" lon="3.08292">
        <ele>183.729735</ele>
        <time>2025-10-23T14:44:20Z</time>
      </trkpt>
      <trkpt lat="43.5876" lon="3.08293">
        <ele>183.723032</ele>
        <time>2025-10-23T14:44:21Z</time>
      </trkpt>
      <trkpt lat="43.5876" lon="3.08295">
        <ele>183.716121</ele>
        <time>2025-10-23T14:44:22Z</time>
      </trkpt>
      <trkpt lat="43.58761" lon="3.08296">
        <ele>183.711496</ele>
        <time>2025-10-23T14:44:23Z</time>
      </trkpt>
      <trkpt lat="43.58761" lon="3.08296">
        <ele>183.709493</ele>
        <time>2025-10-23T14:44:24Z</time>
      </trkpt>
      <trkpt lat="43.58761" lon="3.08296">
        <ele>183.709493</ele>
        <time>2025-10-23T14:44:25Z</time>
      </trkpt>
      <trkpt lat="43.58759" lon="3.08292">
        <ele>183.684785</ele>
        <time>2025-10-23T14:45:51Z</time>
      </trkpt>
      <trkpt lat="43.58758" lon="3.08289">
        <ele>183.66954</ele>
        <time>2025-10-23T14:45:52Z</time>
      </trkpt>
      <trkpt lat="43.58758" lon="3.08285">
        <ele>183.649215</ele>
        <time>2025-10-23T14:45:53Z</time>
      </trkpt>
      <trkpt lat="43.58757" lon="3.0828">
        <ele>183.626252</ele>
        <time>2025-10-23T14:45:54Z</time>
      </trkpt>
      <trkpt lat="43.58757" lon="3.08276">
        <ele>183.603885</ele>
        <time>2025-10-23T14:45:55Z</time>
      </trkpt>
      <trkpt lat="43.58757" lon="3.08271">
        <ele>183.581684</ele>
        <time>2025-10-23T14:45:56Z</time>
      </trkpt>
      <trkpt lat="43.58757" lon="3.08267">
        <ele>183.560547</ele>
        <time>2025-10-23T14:45:57Z</time>
      </trkpt>
      <trkpt lat="43.58756" lon="3.08262">
        <ele>183.536663</ele>
        <time>2025-10-23T14:45:58Z</time>
      </trkpt>
      <trkpt lat="43.58755" lon="3.08258">
        <ele>183.512608</ele>
        <time>2025-10-23T14:45:59Z</time>
      </trkpt>
      <trkpt lat="43.58755" lon="3.08253">
        <ele>183.488449</ele>
        <time>2025-10-23T14:46:00Z</time>
      </trkpt>
      <trkpt lat="43.58754" lon="3.08248">
        <ele>183.465837</ele>
        <time>2025-10-23T14:46:01Z</time>
      </trkpt>
      <trkpt lat="43.58754" lon="3.08243">
        <ele>183.440772</ele>
        <time>2025-10-23T14:46:02Z</time>
      </trkpt>
      <trkpt lat="43.58754" lon="3.08239">
        <ele>183.419059</ele>
        <time>2025-10-23T14:46:03Z</time>
      </trkpt>
      <trkpt lat="43.58753" lon="3.08234">
        <ele>183.396693</ele>
        <time>2025-10-23T14:46:04Z</time>
      </trkpt>
      <trkpt lat="43.58753" lon="3.0823">
        <ele>183.375076</ele>
        <time>2025-10-23T14:46:05Z</time>
      </trkpt>
      <trkpt lat="43.58753" lon="3.08225">
        <ele>183.352874</ele>
        <time>2025-10-23T14:46:06Z</time>
      </trkpt>
      <trkpt lat="43.58754" lon="3.08221">
        <ele>183.331575</ele>
        <time>2025-10-23T14:46:07Z</time>
      </trkpt>
      <trkpt lat="43.58754" lon="3.08216">
        <ele>183.305317</ele>
        <time>2025-10-23T14:46:08Z</time>
      </trkpt>
      <trkpt lat="43.58754" lon="3.08211">
        <ele>183.280752</ele>
        <time>2025-10-23T14:46:09Z</time>
      </trkpt>
      <trkpt lat="43.58754" lon="3.08205">
        <ele>183.255205</ele>
        <time>2025-10-23T14:46:10Z</time>
      </trkpt>
      <trkpt lat="43.58755" lon="3.082">
        <ele>183.229026</ele>
        <time>2025-10-23T14:46:11Z</time>
      </trkpt>
      <trkpt lat="43.58755" lon="3.08195">
        <ele>183.203398</ele>
        <time>2025-10-23T14:46:12Z</time>
      </trkpt>
      <trkpt lat="43.58755" lon="3.0819">
        <ele>183.178196</ele>
        <time>2025-10-23T14:46:13Z</time>
      </trkpt>
      <trkpt lat="43.58756" lon="3.08185">
        <ele>183.152612</ele>
        <time>2025-10-23T14:46:14Z</time>
      </trkpt>
      <trkpt lat="43.58756" lon="3.0818">
        <ele>183.127964</ele>
        <time>2025-10-23T14:46:15Z</time>
      </trkpt>
      <trkpt lat="43.58756" lon="3.08175">
        <ele>183.10339</ele>
        <time>2025-10-23T14:46:16Z</time>
      </trkpt>
      <trkpt lat="43.58756" lon="3.0817">
        <ele>183.079769</ele>
        <time>2025-10-23T14:46:17Z</time>
      </trkpt>
      <trkpt lat="43.58756" lon="3.08166">
        <ele>183.0586</ele>
        <time>2025-10-23T14:46:18Z</time>
      </trkpt>
      <trkpt lat="43.58756" lon="3.08161">
        <ele>183.036888</ele>
        <time>2025-10-23T14:46:19Z</time>
      </trkpt>
      <trkpt lat="43.58757" lon="3.08157">
        <ele>183.014248</ele>
        <time>2025-10-23T14:46:20Z</time>
      </trkpt>
      <trkpt lat="43.58757" lon="3.08152">
        <ele>182.990909</ele>
        <time>2025-10-23T14:46:21Z</time>
      </trkpt>
      <trkpt lat="43.58758" lon="3.08147">
        <ele>182.966683</ele>
        <time>2025-10-23T14:46:22Z</time>
      </trkpt>
      <trkpt lat="43.58758" lon="3.08142">
        <ele>182.941299</ele>
        <time>2025-10-23T14:46:23Z</time>
      </trkpt>
      <trkpt lat="43.58759" lon="3.08137">
        <ele>182.917475</ele>
        <time>2025-10-23T14:46:24Z</time>
      </trkpt>
      <trkpt lat="43.58759" lon="3.08132">
        <ele>182.893544</ele>
        <time>2025-10-23T14:46:25Z</time>
      </trkpt>
      <trkpt lat="43.5876" lon="3.08128">
        <ele>182.870451</ele>
        <time>2025-10-23T14:46:26Z</time>
      </trkpt>
      <trkpt lat="43.58761" lon="3.08123">
        <ele>182.847489</ele>
        <time>2025-10-23T14:46:27Z</time>
      </trkpt>
      <trkpt lat="43.58761" lon="3.08118">
        <ele>182.823433</ele>
        <time>2025-10-23T14:46:28Z</time>
      </trkpt>
      <trkpt lat="43.58762" lon="3.08114">
        <ele>182.801246</ele>
        <time>2025-10-23T14:46:29Z</time>
      </trkpt>
      <trkpt lat="43.58763" lon="3.0811">
        <ele>182.779525</ele>
        <time>2025-10-23T14:46:30Z</time>
      </trkpt>
      <trkpt lat="43.58764" lon="3.08106">
        <ele>182.758505</ele>
        <time>2025-10-23T14:46:31Z</time>
      </trkpt>
      <trkpt lat="43.58766" lon="3.08102">
        <ele>182.738101</ele>
        <time>2025-10-23T14:46:32Z</time>
      </trkpt>
      <trkpt lat="43.58767" lon="3.08098">
        <ele>182.715913</ele>
        <time>2025-10-23T14:46:33Z</time>
      </trkpt>
      <trkpt lat="43.58768" lon="3.08093">
        <ele>182.692672</ele>
        <time>2025-10-23T14:46:34Z</time>
      </trkpt>
      <trkpt lat="43.58769" lon="3.08088">
        <ele>182.676742</ele>
        <time>2025-10-23T14:46:35Z</time>
      </trkpt>
      <trkpt lat="43.5877" lon="3.08084">
        <ele>182.666573</ele>
        <time>2025-10-23T14:46:36Z</time>
      </trkpt>
      <trkpt lat="43.58771" lon="3.0808">
        <ele>182.656429</ele>
        <time>2025-10-23T14:46:37Z</time>
      </trkpt>
      <trkpt lat="43.58772" lon="3.08076">
        <ele>182.646595</ele>
        <time>2025-10-23T14:46:38Z</time>
      </trkpt>
      <trkpt lat="43.58774" lon="3.08071">
        <ele>182.636558</ele>
        <time>2025-10-23T14:46:39Z</time>
      </trkpt>
      <trkpt lat="43.58775" lon="3.08067">
        <ele>182.626305</ele>
        <time>2025-10-23T14:46:40Z</time>
      </trkpt>
      <trkpt lat="43.58775" lon="3.08063">
        <ele>182.617056</ele>
        <time>2025-10-23T14:46:41Z</time>
      </trkpt>
      <trkpt lat="43.58776" lon="3.08058">
        <ele>182.607516</ele>
        <time>2025-10-23T14:46:42Z</time>
      </trkpt>
      <trkpt lat="43.58777" lon="3.08055">
        <ele>182.599118</ele>
        <time>2025-10-23T14:46:43Z</time>
      </trkpt>
      <trkpt lat="43.58778" lon="3.08052">
        <ele>182.591837</ele>
        <time>2025-10-23T14:46:44Z</time>
      </trkpt>
      <trkpt lat="43.58779" lon="3.08049">
        <ele>182.584222</ele>
        <time>2025-10-23T14:46:45Z</time>
      </trkpt>
      <trkpt lat="43.58781" lon="3.08046">
        <ele>182.577519</ele>
        <time>2025-10-23T14:46:46Z</time>
      </trkpt>
      <trkpt lat="43.58782" lon="3.08043">
        <ele>182.570523</ele>
        <time>2025-10-23T14:46:47Z</time>
      </trkpt>
      <trkpt lat="43.58782" lon="3.08039">
        <ele>182.562052</ele>
        <time>2025-10-23T14:46:48Z</time>
      </trkpt>
      <trkpt lat="43.58783" lon="3.08036">
        <ele>182.554562</ele>
        <time>2025-10-23T14:46:49Z</time>
      </trkpt>
      <trkpt lat="43.58783" lon="3.08033">
        <ele>182.546939</ele>
        <time>2025-10-23T14:46:50Z</time>
      </trkpt>
      <trkpt lat="43.58784" lon="3.08029">
        <ele>182.538681</ele>
        <time>2025-10-23T14:46:51Z</time>
      </trkpt>
      <trkpt lat="43.58785" lon="3.08025">
        <ele>182.52985</ele>
        <time>2025-10-23T14:46:52Z</time>
      </trkpt>
      <trkpt lat="43.58786" lon="3.08021">
        <ele>182.520734</ele>
        <time>2025-10-23T14:46:53Z</time>
      </trkpt>
      <trkpt lat="43.58787" lon="3.08017">
        <ele>182.511135</ele>
        <time>2025-10-23T14:46:54Z</time>
      </trkpt>
      <trkpt lat="43.58788" lon="3.08012">
        <ele>182.500256</ele>
        <time>2025-10-23T14:46:55Z</time>
      </trkpt>
      <trkpt lat="43.58789" lon="3.08008">
        <ele>182.489456</ele>
        <time>2025-10-23T14:46:56Z</time>
      </trkpt>
      <trkpt lat="43.5879" lon="3.08002">
        <ele>182.477865</ele>
        <time>2025-10-23T14:46:57Z</time>
      </trkpt>
      <trkpt lat="43.58791" lon="3.07997">
        <ele>182.465677</ele>
        <time>2025-10-23T14:46:58Z</time>
      </trkpt>
      <trkpt lat="43.58793" lon="3.07992">
        <ele>182.453075</ele>
        <time>2025-10-23T14:46:59Z</time>
      </trkpt>
      <trkpt lat="43.58794" lon="3.07986">
        <ele>182.440227</ele>
        <time>2025-10-23T14:47:00Z</time>
      </trkpt>
      <trkpt lat="43.58795" lon="3.07981">
        <ele>182.427939</ele>
        <time>2025-10-23T14:47:01Z</time>
      </trkpt>
      <trkpt lat="43.58797" lon="3.07975">
        <ele>182.415035</ele>
        <time>2025-10-23T14:47:02Z</time>
      </trkpt>
      <trkpt lat="43.58798" lon="3.07969">
        <ele>182.402019</ele>
        <time>2025-10-23T14:47:03Z</time>
      </trkpt>
      <trkpt lat="43.58799" lon="3.07964">
        <ele>182.389298</ele>
        <time>2025-10-23T14:47:04Z</time>
      </trkpt>
      <trkpt lat="43.588" lon="3.07958">
        <ele>182.376697</ele>
        <time>2025-10-23T14:47:05Z</time>
      </trkpt>
      <trkpt lat="43.58802" lon="3.07953">
        <ele>182.363989</ele>
        <time>2025-10-23T14:47:06Z</time>
      </trkpt>
      <trkpt lat="43.58804" lon="3.07948">
        <ele>182.352022</ele>
        <time>2025-10-23T14:47:07Z</time>
      </trkpt>
      <trkpt lat="43.58805" lon="3.07943">
        <ele>182.340116</ele>
        <time>2025-10-23T14:47:08Z</time>
      </trkpt>
      <trkpt lat="43.58807" lon="3.07938">
        <ele>182.329157</ele>
        <time>2025-10-23T14:47:09Z</time>
      </trkpt>
      <trkpt lat="43.58808" lon="3.07933">
        <ele>182.316253</ele>
        <time>2025-10-23T14:47:10Z</time>
      </trkpt>
      <trkpt lat="43.5881" lon="3.07927">
        <ele>182.303141</ele>
        <time>2025-10-23T14:47:11Z</time>
      </trkpt>
      <trkpt lat="43.58811" lon="3.07921">
        <ele>182.290332</ele>
        <time>2025-10-23T14:47:12Z</time>
      </trkpt>
      <trkpt lat="43.58812" lon="3.07916">
        <ele>182.277316</ele>
        <time>2025-10-23T14:47:13Z</time>
      </trkpt>
      <trkpt lat="43.58813" lon="3.0791">
        <ele>182.264542</ele>
        <time>2025-10-23T14:47:14Z</time>
      </trkpt>
      <trkpt lat="43.58814" lon="3.07904">
        <ele>182.251903</ele>
        <time>2025-10-23T14:47:15Z</time>
      </trkpt>
      <trkpt lat="43.58816" lon="3.07899">
        <ele>182.239102</ele>
        <time>2025-10-23T14:47:16Z</time>
      </trkpt>
      <trkpt lat="43.58817" lon="3.07894">
        <ele>182.226997</ele>
        <time>2025-10-23T14:47:17Z</time>
      </trkpt>
      <trkpt lat="43.58819" lon="3.07889">
        <ele>182.215882</ele>
        <time>2025-10-23T14:47:18Z</time>
      </trkpt>
      <trkpt lat="43.5882" lon="3.07884">
        <ele>182.204373</ele>
        <time>2025-10-23T14:47:19Z</time>
      </trkpt>
      <trkpt lat="43.58821" lon="3.0788">
        <ele>182.194621</ele>
        <time>2025-10-23T14:47:20Z</time>
      </trkpt>
      <trkpt lat="43.58821" lon="3.07876">
        <ele>182.186209</ele>
        <time>2025-10-23T14:47:21Z</time>
      </trkpt>
      <trkpt lat="43.58822" lon="3.07873">
        <ele>182.180265</ele>
        <time>2025-10-23T14:47:22Z</time>
      </trkpt>
      <trkpt lat="43.58822" lon="3.07871">
        <ele>182.174812</ele>
        <time>2025-10-23T14:47:23Z</time>
      </trkpt>
      <trkpt lat="43.58821" lon="3.0787">
        <ele>182.171096</ele>
        <time>2025-10-23T14:47:24Z</time>
      </trkpt>
      <trkpt lat="43.5882" lon="3.07871">
        <ele>182.166655</ele>
        <time>2025-10-23T14:47:25Z</time>
      </trkpt>
      <trkpt lat="43.58819" lon="3.07873">
        <ele>182.160833</ele>
        <time>2025-10-23T14:47:26Z</time>
      </trkpt>
      <trkpt lat="43.58818" lon="3.07876">
        <ele>182.154752</ele>
        <time>2025-10-23T14:47:27Z</time>
      </trkpt>
      <trkpt lat="43.58817" lon="3.07878">
        <ele>182.148892</ele>
        <time>2025-10-23T14:47:28Z</time>
      </trkpt>
      <trkpt lat="43.58816" lon="3.0788">
        <ele>182.143402</ele>
        <time>2025-10-23T14:47:29Z</time>
      </trkpt>
      <trkpt lat="43.58815" lon="3.07881">
        <ele>182.156464</ele>
        <time>2025-10-23T14:47:30Z</time>
      </trkpt>
      <trkpt lat="43.58813" lon="3.07881">
        <ele>182.170455</ele>
        <time>2025-10-23T14:47:31Z</time>
      </trkpt>
      <trkpt lat="43.58812" lon="3.07881">
        <ele>182.186251</ele>
        <time>2025-10-23T14:47:32Z</time>
      </trkpt>
      <trkpt lat="43.5881" lon="3.07881">
        <ele>182.197712</ele>
        <time>2025-10-23T14:47:33Z</time>
      </trkpt>
      <trkpt lat="43.58809" lon="3.0788">
        <ele>182.210437</ele>
        <time>2025-10-23T14:47:34Z</time>
      </trkpt>
      <trkpt lat="43.58808" lon="3.07879">
        <ele>182.221908</ele>
        <time>2025-10-23T14:47:35Z</time>
      </trkpt>
      <trkpt lat="43.58808" lon="3.07877">
        <ele>182.234477</ele>
        <time>2025-10-23T14:47:36Z</time>
      </trkpt>
      <trkpt lat="43.58806" lon="3.07875">
        <ele>182.255171</ele>
        <time>2025-10-23T14:47:37Z</time>
      </trkpt>
      <trkpt lat="43.58805" lon="3.07873">
        <ele>182.274263</ele>
        <time>2025-10-23T14:47:38Z</time>
      </trkpt>
      <trkpt lat="43.58803" lon="3.0787">
        <ele>182.29458</ele>
        <time>2025-10-23T14:47:39Z</time>
      </trkpt>
      <trkpt lat="43.58802" lon="3.07868">
        <ele>182.31603</ele>
        <time>2025-10-23T14:47:40Z</time>
      </trkpt>
      <trkpt lat="43.588" lon="3.07866">
        <ele>182.335863</ele>
        <time>2025-10-23T14:47:41Z</time>
      </trkpt>
      <trkpt lat="43.58799" lon="3.07865">
        <ele>182.348389</ele>
        <time>2025-10-23T14:47:42Z</time>
      </trkpt>
      <trkpt lat="43.58799" lon="3.07864">
        <ele>182.358286</ele>
        <time>2025-10-23T14:47:43Z</time>
      </trkpt>
      <trkpt lat="43.58799" lon="3.07863">
        <ele>182.362127</ele>
        <time>2025-10-23T14:47:44Z</time>
      </trkpt>
      <trkpt lat="43.58798" lon="3.07863">
        <ele>182.364992</ele>
        <time>2025-10-23T14:47:45Z</time>
      </trkpt>
      <trkpt lat="43.58798" lon="3.07862">
        <ele>182.372092</ele>
        <time>2025-10-23T14:47:46Z</time>
      </trkpt>
      <trkpt lat="43.58798" lon="3.07861">
        <ele>182.376233</ele>
        <time>2025-10-23T14:47:47Z</time>
      </trkpt>
      <trkpt lat="43.58798" lon="3.07861">
        <ele>182.379721</ele>
        <time>2025-10-23T14:47:48Z</time>
      </trkpt>
      <trkpt lat="43.58798" lon="3.0786">
        <ele>182.385843</ele>
        <time>2025-10-23T14:47:49Z</time>
      </trkpt>
      <trkpt lat="43.58798" lon="3.0786">
        <ele>182.390069</ele>
        <time>2025-10-23T14:47:50Z</time>
      </trkpt>
      <trkpt lat="43.58798" lon="3.0786">
        <ele>182.393843</ele>
        <time>2025-10-23T14:47:51Z</time>
      </trkpt>
      <trkpt lat="43.58799" lon="3.0786">
        <ele>182.396585</ele>
        <time>2025-10-23T14:47:52Z</time>
      </trkpt>
      <trkpt lat="43.58799" lon="3.07862">
        <ele>182.41435</ele>
        <time>2025-10-23T14:50:45Z</time>
      </trkpt>
      <trkpt lat="43.588" lon="3.07862">
        <ele>182.415279</ele>
        <time>2025-10-23T14:50:46Z</time>
      </trkpt>
      <trkpt lat="43.588" lon="3.07863">
        <ele>182.420288</ele>
        <time>2025-10-23T14:50:47Z</time>
      </trkpt>
      <trkpt lat="43.58801" lon="3.07863">
        <ele>182.426474</ele>
        <time>2025-10-23T14:50:48Z</time>
      </trkpt>
      <trkpt lat="43.58801" lon="3.07864">
        <ele>182.434644</ele>
        <time>2025-10-23T14:50:49Z</time>
      </trkpt>
      <trkpt lat="43.58801" lon="3.07865">
        <ele>182.443181</ele>
        <time>2025-10-23T14:50:50Z</time>
      </trkpt>
      <trkpt lat="43.58801" lon="3.07866">
        <ele>182.447888</ele>
        <time>2025-10-23T14:50:51Z</time>
      </trkpt>
      <trkpt lat="43.58801" lon="3.07866">
        <ele>182.450753</ele>
        <time>2025-10-23T14:50:52Z</time>
      </trkpt>
      <trkpt lat="43.58801" lon="3.07866">
        <ele>182.451899</ele>
        <time>2025-10-23T14:50:53Z</time>
      </trkpt>
      <trkpt lat="43.58801" lon="3.07867">
        <ele>182.457951</ele>
        <time>2025-10-23T14:50:54Z</time>
      </trkpt>
      <trkpt lat="43.58801" lon="3.07868">
        <ele>182.466888</ele>
        <time>2025-10-23T14:50:55Z</time>
      </trkpt>
      <trkpt lat="43.58802" lon="3.0787">
        <ele>182.481752</ele>
        <time>2025-10-23T14:50:56Z</time>
      </trkpt>
      <trkpt lat="43.58802" lon="3.07873">
        <ele>182.498191</ele>
        <time>2025-10-23T14:50:57Z</time>
      </trkpt>
      <trkpt lat="43.58803" lon="3.07875">
        <ele>182.515347</ele>
        <time>2025-10-23T14:50:58Z</time>
      </trkpt>
      <trkpt lat="43.58804" lon="3.07878">
        <ele>182.535333</ele>
        <time>2025-10-23T14:50:59Z</time>
      </trkpt>
      <trkpt lat="43.58806" lon="3.0788">
        <ele>182.557766</ele>
        <time>2025-10-23T14:51:00Z</time>
      </trkpt>
      <trkpt lat="43.58807" lon="3.07882">
        <ele>182.577656</ele>
        <time>2025-10-23T14:51:01Z</time>
      </trkpt>
      <trkpt lat="43.58809" lon="3.07883">
        <ele>182.594249</ele>
        <time>2025-10-23T14:51:02Z</time>
      </trkpt>
      <trkpt lat="43.58811" lon="3.07882">
        <ele>182.61161</ele>
        <time>2025-10-23T14:51:03Z</time>
      </trkpt>
      <trkpt lat="43.58812" lon="3.07882">
        <ele>182.623481</ele>
        <time>2025-10-23T14:51:04Z</time>
      </trkpt>
      <trkpt lat="43.58813" lon="3.07881">
        <ele>182.632258</ele>
        <time>2025-10-23T14:51:05Z</time>
      </trkpt>
      <trkpt lat="43.58813" lon="3.0788">
        <ele>182.641567</ele>
        <time>2025-10-23T14:51:06Z</time>
      </trkpt>
      <trkpt lat="43.58814" lon="3.0788">
        <ele>182.647299</ele>
        <time>2025-10-23T14:51:07Z</time>
      </trkpt>
      <trkpt lat="43.58814" lon="3.07882">
        <ele>182.656713</ele>
        <time>2025-10-23T14:51:08Z</time>
      </trkpt>
      <trkpt lat="43.58813" lon="3.07883">
        <ele>182.667827</ele>
        <time>2025-10-23T14:51:09Z</time>
      </trkpt>
      <trkpt lat="43.58813" lon="3.07884">
        <ele>182.674615</ele>
        <time>2025-10-23T14:51:10Z</time>
      </trkpt>
      <trkpt lat="43.58813" lon="3.07886">
        <ele>182.683405</ele>
        <time>2025-10-23T14:51:11Z</time>
      </trkpt>
      <trkpt lat="43.58813" lon="3.07887">
        <ele>182.690684</ele>
        <time>2025-10-23T14:51:12Z</time>
      </trkpt>
      <trkpt lat="43.58813" lon="3.07888">
        <ele>182.698587</ele>
        <time>2025-10-23T14:51:13Z</time>
      </trkpt>
      <trkpt lat="43.58813" lon="3.0789">
        <ele>182.714726</ele>
        <time>2025-10-23T14:51:33Z</time>
      </trkpt>
      <trkpt lat="43.58813" lon="3.0789">
        <ele>182.714726</ele>
        <time>2025-10-23T14:51:34Z</time>
      </trkpt>
      <trkpt lat="43.58814" lon="3.0789">
        <ele>182.727451</ele>
        <time>2025-10-23T14:51:35Z</time>
      </trkpt>
      <trkpt lat="43.58815" lon="3.07888">
        <ele>182.742717</ele>
        <time>2025-10-23T14:51:36Z</time>
      </trkpt>
      <trkpt lat="43.58816" lon="3.07886">
        <ele>182.755243</ele>
        <time>2025-10-23T14:51:37Z</time>
      </trkpt>
      <trkpt lat="43.58817" lon="3.07885">
        <ele>182.766325</ele>
        <time>2025-10-23T14:51:38Z</time>
      </trkpt>
      <trkpt lat="43.58817" lon="3.07884">
        <ele>182.773721</ele>
        <time>2025-10-23T14:51:39Z</time>
      </trkpt>
      <trkpt lat="43.58817" lon="3.07883">
        <ele>182.782512</ele>
        <time>2025-10-23T14:51:40Z</time>
      </trkpt>
      <trkpt lat="43.58817" lon="3.07881">
        <ele>182.795961</ele>
        <time>2025-10-23T14:51:41Z</time>
      </trkpt>
      <trkpt lat="43.58817" lon="3.07879">
        <ele>182.809037</ele>
        <time>2025-10-23T14:51:42Z</time>
      </trkpt>
      <trkpt lat="43.58817" lon="3.07877">
        <ele>182.825597</ele>
        <time>2025-10-23T14:51:43Z</time>
      </trkpt>
      <trkpt lat="43.58818" lon="3.07874">
        <ele>182.841405</ele>
        <time>2025-10-23T14:51:44Z</time>
      </trkpt>
      <trkpt lat="43.58819" lon="3.07872">
        <ele>182.860596</ele>
        <time>2025-10-23T14:51:45Z</time>
      </trkpt>
      <trkpt lat="43.5882" lon="3.07871">
        <ele>182.872897</ele>
        <time>2025-10-23T14:51:46Z</time>
      </trkpt>
      <trkpt lat="43.58822" lon="3.07868">
        <ele>182.895261</ele>
        <time>2025-10-23T14:51:47Z</time>
      </trkpt>
      <trkpt lat="43.58822" lon="3.07866">
        <ele>182.914544</ele>
        <time>2025-10-23T14:51:48Z</time>
      </trkpt>
      <trkpt lat="43.58822" lon="3.07862">
        <ele>182.938153</ele>
        <time>2025-10-23T14:51:49Z</time>
      </trkpt>
      <trkpt lat="43.58823" lon="3.07858">
        <ele>182.965447</ele>
        <time>2025-10-23T14:51:50Z</time>
      </trkpt>
      <trkpt lat="43.58823" lon="3.07854">
        <ele>182.995267</ele>
        <time>2025-10-23T14:51:51Z</time>
      </trkpt>
      <trkpt lat="43.58823" lon="3.07849">
        <ele>183.027756</ele>
        <time>2025-10-23T14:51:52Z</time>
      </trkpt>
      <trkpt lat="43.58824" lon="3.07844">
        <ele>183.063029</ele>
        <time>2025-10-23T14:51:53Z</time>
      </trkpt>
      <trkpt lat="43.58825" lon="3.07839">
        <ele>183.097933</ele>
        <time>2025-10-23T14:51:54Z</time>
      </trkpt>
      <trkpt lat="43.58825" lon="3.07834">
        <ele>183.12954</ele>
        <time>2025-10-23T14:51:55Z</time>
      </trkpt>
      <trkpt lat="43.58826" lon="3.07829">
        <ele>183.163532</ele>
        <time>2025-10-23T14:51:56Z</time>
      </trkpt>
      <trkpt lat="43.58827" lon="3.07824">
        <ele>183.200595</ele>
        <time>2025-10-23T14:51:57Z</time>
      </trkpt>
      <trkpt lat="43.58828" lon="3.07818">
        <ele>183.237331</ele>
        <time>2025-10-23T14:51:58Z</time>
      </trkpt>
      <trkpt lat="43.58828" lon="3.07813">
        <ele>183.276207</ele>
        <time>2025-10-23T14:51:59Z</time>
      </trkpt>
      <trkpt lat="43.58829" lon="3.07807">
        <ele>183.313095</ele>
        <time>2025-10-23T14:52:00Z</time>
      </trkpt>
      <trkpt lat="43.5883" lon="3.07802">
        <ele>183.351036</ele>
        <time>2025-10-23T14:52:01Z</time>
      </trkpt>
      <trkpt lat="43.5883" lon="3.07796">
        <ele>183.387454</ele>
        <time>2025-10-23T14:52:02Z</time>
      </trkpt>
      <trkpt lat="43.5883" lon="3.07791">
        <ele>183.425794</ele>
        <time>2025-10-23T14:52:03Z</time>
      </trkpt>
      <trkpt lat="43.5883" lon="3.07785">
        <ele>183.460809</ele>
        <time>2025-10-23T14:52:04Z</time>
      </trkpt>
      <trkpt lat="43.5883" lon="3.0778">
        <ele>183.496881</ele>
        <time>2025-10-23T14:52:05Z</time>
      </trkpt>
      <trkpt lat="43.58831" lon="3.07775">
        <ele>183.53096</ele>
        <time>2025-10-23T14:52:06Z</time>
      </trkpt>
      <trkpt lat="43.58831" lon="3.0777">
        <ele>183.566037</ele>
        <time>2025-10-23T14:52:07Z</time>
      </trkpt>
      <trkpt lat="43.58831" lon="3.07765">
        <ele>183.6012</ele>
        <time>2025-10-23T14:52:08Z</time>
      </trkpt>
      <trkpt lat="43.58832" lon="3.0776">
        <ele>183.635141</ele>
        <time>2025-10-23T14:52:09Z</time>
      </trkpt>
      <trkpt lat="43.58833" lon="3.07754">
        <ele>183.670706</ele>
        <time>2025-10-23T14:52:10Z</time>
      </trkpt>
      <trkpt lat="43.58833" lon="3.07749">
        <ele>183.704785</ele>
        <time>2025-10-23T14:52:11Z</time>
      </trkpt>
      <trkpt lat="43.58834" lon="3.07744">
        <ele>183.739948</ele>
        <time>2025-10-23T14:52:12Z</time>
      </trkpt>
      <trkpt lat="43.58834" lon="3.07739">
        <ele>183.774853</ele>
        <time>2025-10-23T14:52:13Z</time>
      </trkpt>
      <trkpt lat="43.58835" lon="3.07733">
        <ele>183.806417</ele>
        <time>2025-10-23T14:52:14Z</time>
      </trkpt>
      <trkpt lat="43.58835" lon="3.07727">
        <ele>183.763715</ele>
        <time>2025-10-23T14:52:15Z</time>
      </trkpt>
      <trkpt lat="43.58835" lon="3.07721">
        <ele>183.719015</ele>
        <time>2025-10-23T14:52:16Z</time>
      </trkpt>
      <trkpt lat="43.58835" lon="3.07716">
        <ele>183.679439</ele>
        <time>2025-10-23T14:52:17Z</time>
      </trkpt>
      <trkpt lat="43.58834" lon="3.0771">
        <ele>183.631475</ele>
        <time>2025-10-23T14:52:18Z</time>
      </trkpt>
      <trkpt lat="43.58834" lon="3.07704">
        <ele>183.586386</ele>
        <time>2025-10-23T14:52:19Z</time>
      </trkpt>
      <trkpt lat="43.58834" lon="3.07698">
        <ele>183.544709</ele>
        <time>2025-10-23T14:52:20Z</time>
      </trkpt>
      <trkpt lat="43.58833" lon="3.07692">
        <ele>183.499193</ele>
        <time>2025-10-23T14:52:21Z</time>
      </trkpt>
      <trkpt lat="43.58833" lon="3.07687">
        <ele>183.456005</ele>
        <time>2025-10-23T14:52:22Z</time>
      </trkpt>
      <trkpt lat="43.58833" lon="3.07681">
        <ele>183.412552</ele>
        <time>2025-10-23T14:52:23Z</time>
      </trkpt>
      <trkpt lat="43.58832" lon="3.07675">
        <ele>183.368961</ele>
        <time>2025-10-23T14:52:24Z</time>
      </trkpt>
      <trkpt lat="43.58831" lon="3.0767">
        <ele>183.330605</ele>
        <time>2025-10-23T14:52:25Z</time>
      </trkpt>
      <trkpt lat="43.58831" lon="3.07665">
        <ele>183.291321</ele>
        <time>2025-10-23T14:52:26Z</time>
      </trkpt>
      <trkpt lat="43.5883" lon="3.0766">
        <ele>183.251842</ele>
        <time>2025-10-23T14:52:27Z</time>
      </trkpt>
      <trkpt lat="43.5883" lon="3.07654">
        <ele>183.207342</ele>
        <time>2025-10-23T14:52:28Z</time>
      </trkpt>
      <trkpt lat="43.58829" lon="3.07648">
        <ele>183.162659</ele>
        <time>2025-10-23T14:52:29Z</time>
      </trkpt>
      <trkpt lat="43.58829" lon="3.07642">
        <ele>183.117897</ele>
        <time>2025-10-23T14:52:30Z</time>
      </trkpt>
      <trkpt lat="43.58828" lon="3.07637">
        <ele>183.073693</ele>
        <time>2025-10-23T14:52:31Z</time>
      </trkpt>
      <trkpt lat="43.58827" lon="3.07631">
        <ele>183.027699</ele>
        <time>2025-10-23T14:52:32Z</time>
      </trkpt>
      <trkpt lat="43.58827" lon="3.07625">
        <ele>182.981992</ele>
        <time>2025-10-23T14:52:33Z</time>
      </trkpt>
      <trkpt lat="43.58826" lon="3.07618">
        <ele>182.934653</ele>
        <time>2025-10-23T14:52:34Z</time>
      </trkpt>
      <trkpt lat="43.58826" lon="3.07612">
        <ele>182.889052</ele>
        <time>2025-10-23T14:52:35Z</time>
      </trkpt>
      <trkpt lat="43.58826" lon="3.07607">
        <ele>182.850441</ele>
        <time>2025-10-23T14:52:36Z</time>
      </trkpt>
      <trkpt lat="43.58826" lon="3.07602">
        <ele>182.810208</ele>
        <time>2025-10-23T14:52:37Z</time>
      </trkpt>
      <trkpt lat="43.58825" lon="3.07596">
        <ele>182.763996</ele>
        <time>2025-10-23T14:52:38Z</time>
      </trkpt>
      <trkpt lat="43.58825" lon="3.07589">
        <ele>182.715279</ele>
        <time>2025-10-23T14:52:39Z</time>
      </trkpt>
      <trkpt lat="43.58824" lon="3.07583">
        <ele>182.667315</ele>
        <time>2025-10-23T14:52:40Z</time>
      </trkpt>
      <trkpt lat="43.58824" lon="3.07577">
        <ele>182.617946</ele>
        <time>2025-10-23T14:52:41Z</time>
      </trkpt>
      <trkpt lat="43.58824" lon="3.07571">
        <ele>182.574606</ele>
        <time>2025-10-23T14:52:42Z</time>
      </trkpt>
      <trkpt lat="43.58823" lon="3.07565">
        <ele>182.527579</ele>
        <time>2025-10-23T14:52:43Z</time>
      </trkpt>
      <trkpt lat="43.58823" lon="3.07559">
        <ele>182.483635</ele>
        <time>2025-10-23T14:52:44Z</time>
      </trkpt>
      <trkpt lat="43.58823" lon="3.07553">
        <ele>182.435773</ele>
        <time>2025-10-23T14:52:45Z</time>
      </trkpt>
      <trkpt lat="43.58822" lon="3.07547">
        <ele>182.392766</ele>
        <time>2025-10-23T14:52:46Z</time>
      </trkpt>
      <trkpt lat="43.58821" lon="3.07541">
        <ele>182.347135</ele>
        <time>2025-10-23T14:52:47Z</time>
      </trkpt>
      <trkpt lat="43.5882" lon="3.07535">
        <ele>182.298382</ele>
        <time>2025-10-23T14:52:48Z</time>
      </trkpt>
      <trkpt lat="43.58818" lon="3.07528">
        <ele>182.245608</ele>
        <time>2025-10-23T14:52:49Z</time>
      </trkpt>
      <trkpt lat="43.58817" lon="3.07522">
        <ele>182.19264</ele>
        <time>2025-10-23T14:52:50Z</time>
      </trkpt>
      <trkpt lat="43.58815" lon="3.07516">
        <ele>182.144464</ele>
        <time>2025-10-23T14:52:51Z</time>
      </trkpt>
      <trkpt lat="43.58814" lon="3.07508">
        <ele>182.087812</ele>
        <time>2025-10-23T14:52:52Z</time>
      </trkpt>
      <trkpt lat="43.58812" lon="3.07502">
        <ele>182.036222</ele>
        <time>2025-10-23T14:52:53Z</time>
      </trkpt>
      <trkpt lat="43.5881" lon="3.07495">
        <ele>181.979273</ele>
        <time>2025-10-23T14:52:54Z</time>
      </trkpt>
      <trkpt lat="43.58808" lon="3.07487">
        <ele>181.932828</ele>
        <time>2025-10-23T14:52:55Z</time>
      </trkpt>
      <trkpt lat="43.58806" lon="3.07479">
        <ele>181.929961</ele>
        <time>2025-10-23T14:52:56Z</time>
      </trkpt>
      <trkpt lat="43.58804" lon="3.07472">
        <ele>181.92713</ele>
        <time>2025-10-23T14:52:57Z</time>
      </trkpt>
      <trkpt lat="43.58801" lon="3.07463">
        <ele>181.923965</ele>
        <time>2025-10-23T14:52:58Z</time>
      </trkpt>
      <trkpt lat="43.58798" lon="3.07456">
        <ele>181.921204</ele>
        <time>2025-10-23T14:52:59Z</time>
      </trkpt>
      <trkpt lat="43.58795" lon="3.07448">
        <ele>181.918362</ele>
        <time>2025-10-23T14:53:00Z</time>
      </trkpt>
      <trkpt lat="43.58793" lon="3.07441">
        <ele>181.915784</ele>
        <time>2025-10-23T14:53:01Z</time>
      </trkpt>
      <trkpt lat="43.58791" lon="3.07434">
        <ele>181.913232</ele>
        <time>2025-10-23T14:53:02Z</time>
      </trkpt>
      <trkpt lat="43.58789" lon="3.07428">
        <ele>181.910773</ele>
        <time>2025-10-23T14:53:03Z</time>
      </trkpt>
      <trkpt lat="43.58787" lon="3.07421">
        <ele>181.908394</ele>
        <time>2025-10-23T14:53:04Z</time>
      </trkpt>
      <trkpt lat="43.58784" lon="3.07414">
        <ele>181.905735</ele>
        <time>2025-10-23T14:53:05Z</time>
      </trkpt>
      <trkpt lat="43.58782" lon="3.07408">
        <ele>181.903348</ele>
        <time>2025-10-23T14:53:06Z</time>
      </trkpt>
      <trkpt lat="43.58779" lon="3.074">
        <ele>181.900586</ele>
        <time>2025-10-23T14:53:07Z</time>
      </trkpt>
      <trkpt lat="43.58777" lon="3.07394">
        <ele>181.898069</ele>
        <time>2025-10-23T14:53:08Z</time>
      </trkpt>
      <trkpt lat="43.58775" lon="3.07387">
        <ele>181.895794</ele>
        <time>2025-10-23T14:53:09Z</time>
      </trkpt>
      <trkpt lat="43.58773" lon="3.07382">
        <ele>181.893668</ele>
        <time>2025-10-23T14:53:10Z</time>
      </trkpt>
      <trkpt lat="43.58771" lon="3.07376">
        <ele>181.891493</ele>
        <time>2025-10-23T14:53:11Z</time>
      </trkpt>
      <trkpt lat="43.58769" lon="3.0737">
        <ele>181.889299</ele>
        <time>2025-10-23T14:53:12Z</time>
      </trkpt>
      <trkpt lat="43.58767" lon="3.07363">
        <ele>181.88679</ele>
        <time>2025-10-23T14:53:13Z</time>
      </trkpt>
      <trkpt lat="43.58764" lon="3.07357">
        <ele>181.884377</ele>
        <time>2025-10-23T14:53:14Z</time>
      </trkpt>
      <trkpt lat="43.58762" lon="3.07351">
        <ele>181.882112</ele>
        <time>2025-10-23T14:53:15Z</time>
      </trkpt>
      <trkpt lat="43.58759" lon="3.07345">
        <ele>181.879732</ele>
        <time>2025-10-23T14:53:16Z</time>
      </trkpt>
      <trkpt lat="43.58756" lon="3.07339">
        <ele>181.87725</ele>
        <time>2025-10-23T14:53:17Z</time>
      </trkpt>
      <trkpt lat="43.58753" lon="3.07333">
        <ele>181.874736</ele>
        <time>2025-10-23T14:53:18Z</time>
      </trkpt>
      <trkpt lat="43.58749" lon="3.07328">
        <ele>181.872301</ele>
        <time>2025-10-23T14:53:19Z</time>
      </trkpt>
      <trkpt lat="43.58746" lon="3.07322">
        <ele>181.869679</ele>
        <time>2025-10-23T14:53:20Z</time>
      </trkpt>
      <trkpt lat="43.58743" lon="3.07316">
        <ele>181.867278</ele>
        <time>2025-10-23T14:53:21Z</time>
      </trkpt>
      <trkpt lat="43.5874" lon="3.0731">
        <ele>181.864795</ele>
        <time>2025-10-23T14:53:22Z</time>
      </trkpt>
      <trkpt lat="43.58737" lon="3.07304">
        <ele>181.862447</ele>
        <time>2025-10-23T14:53:23Z</time>
      </trkpt>
      <trkpt lat="43.58733" lon="3.07299">
        <ele>181.859858</ele>
        <time>2025-10-23T14:53:24Z</time>
      </trkpt>
      <trkpt lat="43.58729" lon="3.07293">
        <ele>181.857217</ele>
        <time>2025-10-23T14:53:25Z</time>
      </trkpt>
      <trkpt lat="43.58725" lon="3.07288">
        <ele>181.854632</ele>
        <time>2025-10-23T14:53:26Z</time>
      </trkpt>
      <trkpt lat="43.58721" lon="3.07283">
        <ele>181.85212</ele>
        <time>2025-10-23T14:53:27Z</time>
      </trkpt>
      <trkpt lat="43.58718" lon="3.07277">
        <ele>181.853228</ele>
        <time>2025-10-23T14:53:28Z</time>
      </trkpt>
      <trkpt lat="43.58715" lon="3.07271">
        <ele>181.895917</ele>
        <time>2025-10-23T14:53:29Z</time>
      </trkpt>
      <trkpt lat="43.58712" lon="3.07266">
        <ele>181.940267</ele>
        <time>2025-10-23T14:53:30Z</time>
      </trkpt>
      <trkpt lat="43.58708" lon="3.07261">
        <ele>181.985193</ele>
        <time>2025-10-23T14:53:31Z</time>
      </trkpt>
      <trkpt lat="43.58705" lon="3.07256">
        <ele>182.027975</ele>
        <time>2025-10-23T14:53:32Z</time>
      </trkpt>
      <trkpt lat="43.58701" lon="3.07252">
        <ele>182.071174</ele>
        <time>2025-10-23T14:53:33Z</time>
      </trkpt>
      <trkpt lat="43.58698" lon="3.07247">
        <ele>182.114843</ele>
        <time>2025-10-23T14:53:34Z</time>
      </trkpt>
      <trkpt lat="43.58694" lon="3.07242">
        <ele>182.158063</ele>
        <time>2025-10-23T14:53:35Z</time>
      </trkpt>
      <trkpt lat="43.5869" lon="3.07237">
        <ele>182.207727</ele>
        <time>2025-10-23T14:53:36Z</time>
      </trkpt>
      <trkpt lat="43.58686" lon="3.07232">
        <ele>182.25673</ele>
        <time>2025-10-23T14:53:37Z</time>
      </trkpt>
      <trkpt lat="43.58681" lon="3.07226">
        <ele>182.308517</ele>
        <time>2025-10-23T14:53:38Z</time>
      </trkpt>
      <trkpt lat="43.58677" lon="3.07221">
        <ele>182.35646</ele>
        <time>2025-10-23T14:53:39Z</time>
      </trkpt>
      <trkpt lat="43.58673" lon="3.07215">
        <ele>182.408803</ele>
        <time>2025-10-23T14:53:40Z</time>
      </trkpt>
      <trkpt lat="43.58669" lon="3.07208">
        <ele>182.466383</ele>
        <time>2025-10-23T14:53:41Z</time>
      </trkpt>
      <trkpt lat="43.58665" lon="3.07202">
        <ele>182.516011</ele>
        <time>2025-10-23T14:53:42Z</time>
      </trkpt>
      <trkpt lat="43.58662" lon="3.07197">
        <ele>182.561056</ele>
        <time>2025-10-23T14:53:43Z</time>
      </trkpt>
      <trkpt lat="43.58658" lon="3.07192">
        <ele>182.607039</ele>
        <time>2025-10-23T14:53:44Z</time>
      </trkpt>
      <trkpt lat="43.58655" lon="3.07187">
        <ele>182.651328</ele>
        <time>2025-10-23T14:53:45Z</time>
      </trkpt>
      <trkpt lat="43.58651" lon="3.07182">
        <ele>182.698177</ele>
        <time>2025-10-23T14:53:46Z</time>
      </trkpt>
      <trkpt lat="43.58647" lon="3.07178">
        <ele>182.737983</ele>
        <time>2025-10-23T14:53:47Z</time>
      </trkpt>
      <trkpt lat="43.58644" lon="3.07174">
        <ele>182.777387</ele>
        <time>2025-10-23T14:53:48Z</time>
      </trkpt>
      <trkpt lat="43.5864" lon="3.07169">
        <ele>182.820169</ele>
        <time>2025-10-23T14:53:49Z</time>
      </trkpt>
      <trkpt lat="43.58637" lon="3.07165">
        <ele>182.862069</ele>
        <time>2025-10-23T14:53:50Z</time>
      </trkpt>
      <trkpt lat="43.58633" lon="3.0716">
        <ele>182.906523</ele>
        <time>2025-10-23T14:53:51Z</time>
      </trkpt>
      <trkpt lat="43.5863" lon="3.07155">
        <ele>182.952778</ele>
        <time>2025-10-23T14:53:52Z</time>
      </trkpt>
      <trkpt lat="43.58626" lon="3.0715">
        <ele>182.997054</ele>
        <time>2025-10-23T14:53:53Z</time>
      </trkpt>
      <trkpt lat="43.58622" lon="3.07145">
        <ele>183.044563</ele>
        <time>2025-10-23T14:53:54Z</time>
      </trkpt>
      <trkpt lat="43.58618" lon="3.0714">
        <ele>183.090116</ele>
        <time>2025-10-23T14:53:55Z</time>
      </trkpt>
      <trkpt lat="43.58614" lon="3.07135">
        <ele>183.133337</ele>
        <time>2025-10-23T14:53:56Z</time>
      </trkpt>
      <trkpt lat="43.58611" lon="3.07131">
        <ele>183.17594</ele>
        <time>2025-10-23T14:53:57Z</time>
      </trkpt>
      <trkpt lat="43.58608" lon="3.07125">
        <ele>183.218677</ele>
        <time>2025-10-23T14:53:58Z</time>
      </trkpt>
      <trkpt lat="43.58605" lon="3.0712">
        <ele>183.260827</ele>
        <time>2025-10-23T14:53:59Z</time>
      </trkpt>
      <trkpt lat="43.58601" lon="3.07114">
        <ele>183.307763</ele>
        <time>2025-10-23T14:54:00Z</time>
      </trkpt>
      <trkpt lat="43.58598" lon="3.07109">
        <ele>183.357286</ele>
        <time>2025-10-23T14:54:01Z</time>
      </trkpt>
      <trkpt lat="43.58594" lon="3.07103">
        <ele>183.406583</ele>
        <time>2025-10-23T14:54:02Z</time>
      </trkpt>
      <trkpt lat="43.58591" lon="3.07097">
        <ele>183.439112</ele>
        <time>2025-10-23T14:54:03Z</time>
      </trkpt>
      <trkpt lat="43.58587" lon="3.07092">
        <ele>183.463078</ele>
        <time>2025-10-23T14:54:04Z</time>
      </trkpt>
      <trkpt lat="43.58584" lon="3.07085">
        <ele>183.48814</ele>
        <time>2025-10-23T14:54:05Z</time>
      </trkpt>
      <trkpt lat="43.58581" lon="3.07079">
        <ele>183.511333</ele>
        <time>2025-10-23T14:54:06Z</time>
      </trkpt>
      <trkpt lat="43.58578" lon="3.07074">
        <ele>183.534556</ele>
        <time>2025-10-23T14:54:07Z</time>
      </trkpt>
      <trkpt lat="43.58575" lon="3.07067">
        <ele>183.561171</ele>
        <time>2025-10-23T14:54:08Z</time>
      </trkpt>
      <trkpt lat="43.58571" lon="3.07061">
        <ele>183.586717</ele>
        <time>2025-10-23T14:54:09Z</time>
      </trkpt>
      <trkpt lat="43.58568" lon="3.07055">
        <ele>183.612264</ele>
        <time>2025-10-23T14:54:10Z</time>
      </trkpt>
      <trkpt lat="43.58565" lon="3.07048">
        <ele>183.637551</ele>
        <time>2025-10-23T14:54:11Z</time>
      </trkpt>
      <trkpt lat="43.58561" lon="3.07042">
        <ele>183.662322</ele>
        <time>2025-10-23T14:54:12Z</time>
      </trkpt>
      <trkpt lat="43.58558" lon="3.07037">
        <ele>183.684221</ele>
        <time>2025-10-23T14:54:13Z</time>
      </trkpt>
      <trkpt lat="43.58555" lon="3.07031">
        <ele>183.708493</ele>
        <time>2025-10-23T14:54:14Z</time>
      </trkpt>
      <trkpt lat="43.58552" lon="3.07024">
        <ele>183.73304</ele>
        <time>2025-10-23T14:54:15Z</time>
      </trkpt>
      <trkpt lat="43.58549" lon="3.07018">
        <ele>183.757794</ele>
        <time>2025-10-23T14:54:16Z</time>
      </trkpt>
      <trkpt lat="43.58546" lon="3.07012">
        <ele>183.78177</ele>
        <time>2025-10-23T14:54:17Z</time>
      </trkpt>
      <trkpt lat="43.58543" lon="3.07006">
        <ele>183.804738</ele>
        <time>2025-10-23T14:54:18Z</time>
      </trkpt>
      <trkpt lat="43.58541" lon="3.07">
        <ele>183.826684</ele>
        <time>2025-10-23T14:54:19Z</time>
      </trkpt>
      <trkpt lat="43.58538" lon="3.06995">
        <ele>183.846978</ele>
        <time>2025-10-23T14:54:20Z</time>
      </trkpt>
      <trkpt lat="43.58536" lon="3.0699">
        <ele>183.867068</ele>
        <time>2025-10-23T14:54:21Z</time>
      </trkpt>
      <trkpt lat="43.58533" lon="3.06984">
        <ele>183.889803</ele>
        <time>2025-10-23T14:54:22Z</time>
      </trkpt>
      <trkpt lat="43.58531" lon="3.06978">
        <ele>183.912988</ele>
        <time>2025-10-23T14:54:23Z</time>
      </trkpt>
      <trkpt lat="43.58527" lon="3.06972">
        <ele>183.93697</ele>
        <time>2025-10-23T14:54:24Z</time>
      </trkpt>
      <trkpt lat="43.58524" lon="3.06966">
        <ele>183.960155</ele>
        <time>2025-10-23T14:54:25Z</time>
      </trkpt>
      <trkpt lat="43.58521" lon="3.0696">
        <ele>183.98413</ele>
        <time>2025-10-23T14:54:26Z</time>
      </trkpt>
      <trkpt lat="43.58518" lon="3.06954">
        <ele>184.007831</ele>
        <time>2025-10-23T14:54:27Z</time>
      </trkpt>
      <trkpt lat="43.58515" lon="3.06948">
        <ele>184.031538</ele>
        <time>2025-10-23T14:54:28Z</time>
      </trkpt>
      <trkpt lat="43.58513" lon="3.06942">
        <ele>184.053956</ele>
        <time>2025-10-23T14:54:29Z</time>
      </trkpt>
      <trkpt lat="43.5851" lon="3.06936">
        <ele>184.076873</ele>
        <time>2025-10-23T14:54:30Z</time>
      </trkpt>
      <trkpt lat="43.58507" lon="3.06931">
        <ele>184.099809</ele>
        <time>2025-10-23T14:54:31Z</time>
      </trkpt>
      <trkpt lat="43.58504" lon="3.06924">
        <ele>184.123535</ele>
        <time>2025-10-23T14:54:32Z</time>
      </trkpt>
      <trkpt lat="43.58501" lon="3.06918">
        <ele>184.14683</ele>
        <time>2025-10-23T14:54:33Z</time>
      </trkpt>
      <trkpt lat="43.58499" lon="3.06913">
        <ele>184.169225</ele>
        <time>2025-10-23T14:54:34Z</time>
      </trkpt>
      <trkpt lat="43.58496" lon="3.06907">
        <ele>184.19241</ele>
        <time>2025-10-23T14:54:35Z</time>
      </trkpt>
      <trkpt lat="43.58493" lon="3.06901">
        <ele>184.215865</ele>
        <time>2025-10-23T14:54:36Z</time>
      </trkpt>
      <trkpt lat="43.5849" lon="3.06894">
        <ele>184.222384</ele>
        <time>2025-10-23T14:54:37Z</time>
      </trkpt>
      <trkpt lat="43.58487" lon="3.06888">
        <ele>184.184963</ele>
        <time>2025-10-23T14:54:38Z</time>
      </trkpt>
      <trkpt lat="43.58485" lon="3.06883">
        <ele>184.150126</ele>
        <time>2025-10-23T14:54:39Z</time>
      </trkpt>
      <trkpt lat="43.58483" lon="3.06877">
        <ele>184.114822</ele>
        <time>2025-10-23T14:54:40Z</time>
      </trkpt>
      <trkpt lat="43.58481" lon="3.06871">
        <ele>184.079517</ele>
        <time>2025-10-23T14:54:41Z</time>
      </trkpt>
      <trkpt lat="43.58478" lon="3.06865">
        <ele>184.042922</ele>
        <time>2025-10-23T14:54:42Z</time>
      </trkpt>
      <trkpt lat="43.58475" lon="3.06859">
        <ele>184.006558</ele>
        <time>2025-10-23T14:54:43Z</time>
      </trkpt>
      <trkpt lat="43.58472" lon="3.06854">
        <ele>183.968892</ele>
        <time>2025-10-23T14:54:44Z</time>
      </trkpt>
      <trkpt lat="43.58469" lon="3.06848">
        <ele>183.930286</ele>
        <time>2025-10-23T14:54:45Z</time>
      </trkpt>
      <trkpt lat="43.58466" lon="3.06843">
        <ele>183.89569</ele>
        <time>2025-10-23T14:54:46Z</time>
      </trkpt>
      <trkpt lat="43.58464" lon="3.06838">
        <ele>183.861022</ele>
        <time>2025-10-23T14:54:47Z</time>
      </trkpt>
      <trkpt lat="43.58461" lon="3.06832">
        <ele>183.824426</ele>
        <time>2025-10-23T14:54:48Z</time>
      </trkpt>
      <trkpt lat="43.58459" lon="3.06825">
        <ele>183.788675</ele>
        <time>2025-10-23T14:54:49Z</time>
      </trkpt>
      <trkpt lat="43.58457" lon="3.0682">
        <ele>183.752546</ele>
        <time>2025-10-23T14:54:50Z</time>
      </trkpt>
      <trkpt lat="43.58455" lon="3.06814">
        <ele>183.718638</ele>
        <time>2025-10-23T14:54:51Z</time>
      </trkpt>
      <trkpt lat="43.58452" lon="3.06808">
        <ele>183.682509</ele>
        <time>2025-10-23T14:54:52Z</time>
      </trkpt>
      <trkpt lat="43.58449" lon="3.06802">
        <ele>183.645697</ele>
        <time>2025-10-23T14:54:53Z</time>
      </trkpt>
      <trkpt lat="43.58447" lon="3.06796">
        <ele>183.608436</ele>
        <time>2025-10-23T14:54:54Z</time>
      </trkpt>
      <trkpt lat="43.58444" lon="3.0679">
        <ele>183.568626</ele>
        <time>2025-10-23T14:54:55Z</time>
      </trkpt>
      <trkpt lat="43.58441" lon="3.06784">
        <ele>183.531814</ele>
        <time>2025-10-23T14:54:56Z</time>
      </trkpt>
      <trkpt lat="43.58439" lon="3.06779">
        <ele>183.496692</ele>
        <time>2025-10-23T14:54:57Z</time>
      </trkpt>
      <trkpt lat="43.58436" lon="3.06772">
        <ele>183.457513</ele>
        <time>2025-10-23T14:54:58Z</time>
      </trkpt>
      <trkpt lat="43.58433" lon="3.06766">
        <ele>183.418503</ele>
        <time>2025-10-23T14:54:59Z</time>
      </trkpt>
      <trkpt lat="43.5843" lon="3.0676">
        <ele>183.380334</ele>
        <time>2025-10-23T14:55:00Z</time>
      </trkpt>
      <trkpt lat="43.58428" lon="3.06754">
        <ele>183.342225</ele>
        <time>2025-10-23T14:55:01Z</time>
      </trkpt>
      <trkpt lat="43.58425" lon="3.06748">
        <ele>183.305034</ele>
        <time>2025-10-23T14:55:02Z</time>
      </trkpt>
      <trkpt lat="43.58422" lon="3.06743">
        <ele>183.268262</ele>
        <time>2025-10-23T14:55:03Z</time>
      </trkpt>
      <trkpt lat="43.58419" lon="3.06737">
        <ele>183.232344</ele>
        <time>2025-10-23T14:55:04Z</time>
      </trkpt>
      <trkpt lat="43.58417" lon="3.06731">
        <ele>183.195926</ele>
        <time>2025-10-23T14:55:05Z</time>
      </trkpt>
      <trkpt lat="43.58414" lon="3.06725">
        <ele>183.157413</ele>
        <time>2025-10-23T14:55:06Z</time>
      </trkpt>
      <trkpt lat="43.58411" lon="3.0672">
        <ele>183.122347</ele>
        <time>2025-10-23T14:55:07Z</time>
      </trkpt>
      <trkpt lat="43.58409" lon="3.06714">
        <ele>183.08852</ele>
        <time>2025-10-23T14:55:08Z</time>
      </trkpt>
      <trkpt lat="43.58406" lon="3.06709">
        <ele>183.053901</ele>
        <time>2025-10-23T14:55:09Z</time>
      </trkpt>
      <trkpt lat="43.58403" lon="3.06704">
        <ele>183.019645</ele>
        <time>2025-10-23T14:55:10Z</time>
      </trkpt>
      <trkpt lat="43.58399" lon="3.06699">
        <ele>182.980631</ele>
        <time>2025-10-23T14:55:11Z</time>
      </trkpt>
      <trkpt lat="43.58396" lon="3.06694">
        <ele>182.944402</ele>
        <time>2025-10-23T14:55:12Z</time>
      </trkpt>
      <trkpt lat="43.58393" lon="3.06688">
        <ele>182.907223</ele>
        <time>2025-10-23T14:55:13Z</time>
      </trkpt>
      <trkpt lat="43.5839" lon="3.06683">
        <ele>182.901507</ele>
        <time>2025-10-23T14:55:14Z</time>
      </trkpt>
      <trkpt lat="43.58387" lon="3.06677">
        <ele>182.895784</ele>
        <time>2025-10-23T14:55:15Z</time>
      </trkpt>
      <trkpt lat="43.58383" lon="3.06672">
        <ele>182.889966</ele>
        <time>2025-10-23T14:55:16Z</time>
      </trkpt>
      <trkpt lat="43.5838" lon="3.06667">
        <ele>182.884296</ele>
        <time>2025-10-23T14:55:17Z</time>
      </trkpt>
      <trkpt lat="43.58376" lon="3.06661">
        <ele>182.878417</ele>
        <time>2025-10-23T14:55:18Z</time>
      </trkpt>
      <trkpt lat="43.58373" lon="3.06656">
        <ele>182.87287</ele>
        <time>2025-10-23T14:55:19Z</time>
      </trkpt>
      <trkpt lat="43.5837" lon="3.06651">
        <ele>182.867788</ele>
        <time>2025-10-23T14:55:20Z</time>
      </trkpt>
      <trkpt lat="43.58367" lon="3.06647">
        <ele>182.86257</ele>
        <time>2025-10-23T14:55:21Z</time>
      </trkpt>
      <trkpt lat="43.58364" lon="3.06642">
        <ele>182.857549</ele>
        <time>2025-10-23T14:55:22Z</time>
      </trkpt>
      <trkpt lat="43.58361" lon="3.06637">
        <ele>182.852375</ele>
        <time>2025-10-23T14:55:23Z</time>
      </trkpt>
      <trkpt lat="43.58358" lon="3.06633">
        <ele>182.847395</ele>
        <time>2025-10-23T14:55:24Z</time>
      </trkpt>
      <trkpt lat="43.58354" lon="3.06629">
        <ele>182.842231</ele>
        <time>2025-10-23T14:55:25Z</time>
      </trkpt>
      <trkpt lat="43.58351" lon="3.06624">
        <ele>182.836737</ele>
        <time>2025-10-23T14:55:26Z</time>
      </trkpt>
      <trkpt lat="43.58347" lon="3.06619">
        <ele>182.831232</ele>
        <time>2025-10-23T14:55:27Z</time>
      </trkpt>
      <trkpt lat="43.58344" lon="3.06615">
        <ele>182.825683</ele>
        <time>2025-10-23T14:55:28Z</time>
      </trkpt>
      <trkpt lat="43.5834" lon="3.0661">
        <ele>182.820237</ele>
        <time>2025-10-23T14:55:29Z</time>
      </trkpt>
      <trkpt lat="43.58337" lon="3.06605">
        <ele>182.814494</ele>
        <time>2025-10-23T14:55:30Z</time>
      </trkpt>
      <trkpt lat="43.58333" lon="3.066">
        <ele>182.808853</ele>
        <time>2025-10-23T14:55:31Z</time>
      </trkpt>
      <trkpt lat="43.58329" lon="3.06596">
        <ele>182.803055</ele>
        <time>2025-10-23T14:55:32Z</time>
      </trkpt>
      <trkpt lat="43.58325" lon="3.06591">
        <ele>182.797395</ele>
        <time>2025-10-23T14:55:33Z</time>
      </trkpt>
      <trkpt lat="43.58321" lon="3.06586">
        <ele>182.791268</ele>
        <time>2025-10-23T14:55:34Z</time>
      </trkpt>
      <trkpt lat="43.58317" lon="3.06582">
        <ele>182.785774</ele>
        <time>2025-10-23T14:55:35Z</time>
      </trkpt>
      <trkpt lat="43.58314" lon="3.06578">
        <ele>182.780856</ele>
        <time>2025-10-23T14:55:36Z</time>
      </trkpt>
      <trkpt lat="43.5831" lon="3.06574">
        <ele>182.775877</ele>
        <time>2025-10-23T14:55:37Z</time>
      </trkpt>
      <trkpt lat="43.58306" lon="3.06571">
        <ele>182.770711</ele>
        <time>2025-10-23T14:55:38Z</time>
      </trkpt>
      <trkpt lat="43.58302" lon="3.06567">
        <ele>182.765175</ele>
        <time>2025-10-23T14:55:39Z</time>
      </trkpt>
      <trkpt lat="43.58298" lon="3.06563">
        <ele>182.75946</ele>
        <time>2025-10-23T14:55:40Z</time>
      </trkpt>
      <trkpt lat="43.58294" lon="3.06558">
        <ele>182.753417</ele>
        <time>2025-10-23T14:55:41Z</time>
      </trkpt>
      <trkpt lat="43.58289" lon="3.06554">
        <ele>182.747274</ele>
        <time>2025-10-23T14:55:42Z</time>
      </trkpt>
      <trkpt lat="43.58286" lon="3.0655">
        <ele>182.741784</ele>
        <time>2025-10-23T14:55:43Z</time>
      </trkpt>
      <trkpt lat="43.58282" lon="3.06545">
        <ele>182.736367</ele>
        <time>2025-10-23T14:55:44Z</time>
      </trkpt>
      <trkpt lat="43.58278" lon="3.06541">
        <ele>182.731065</ele>
        <time>2025-10-23T14:55:45Z</time>
      </trkpt>
      <trkpt lat="43.58275" lon="3.06537">
        <ele>182.725649</ele>
        <time>2025-10-23T14:55:46Z</time>
      </trkpt>
      <trkpt lat="43.58271" lon="3.06532">
        <ele>182.719904</ele>
        <time>2025-10-23T14:55:47Z</time>
      </trkpt>
      <trkpt lat="43.58267" lon="3.06527">
        <ele>182.71441</ele>
        <time>2025-10-23T14:55:48Z</time>
      </trkpt>
      <trkpt lat="43.58263" lon="3.06522">
        <ele>182.708611</ele>
        <time>2025-10-23T14:55:49Z</time>
      </trkpt>
      <trkpt lat="43.5826" lon="3.06517">
        <ele>182.705868</ele>
        <time>2025-10-23T14:55:50Z</time>
      </trkpt>
      <trkpt lat="43.58256" lon="3.06512">
        <ele>182.705868</ele>
        <time>2025-10-23T14:55:51Z</time>
      </trkpt>
      <trkpt lat="43.58252" lon="3.06507">
        <ele>182.705868</ele>
        <time>2025-10-23T14:55:52Z</time>
      </trkpt>
      <trkpt lat="43.58249" lon="3.06503">
        <ele>182.705868</ele>
        <time>2025-10-23T14:55:53Z</time>
      </trkpt>
      <trkpt lat="43.58245" lon="3.06498">
        <ele>182.705868</ele>
        <time>2025-10-23T14:55:54Z</time>
      </trkpt>
      <trkpt lat="43.58242" lon="3.06493">
        <ele>182.705868</ele>
        <time>2025-10-23T14:55:55Z</time>
      </trkpt>
      <trkpt lat="43.58238" lon="3.06488">
        <ele>182.705868</ele>
        <time>2025-10-23T14:55:56Z</time>
      </trkpt>
      <trkpt lat="43.58234" lon="3.06483">
        <ele>182.705868</ele>
        <time>2025-10-23T14:55:57Z</time>
      </trkpt>
      <trkpt lat="43.58231" lon="3.06479">
        <ele>182.705868</ele>
        <time>2025-10-23T14:55:58Z</time>
      </trkpt>
      <trkpt lat="43.58227" lon="3.06475">
        <ele>182.705868</ele>
        <time>2025-10-23T14:55:59Z</time>
      </trkpt>
      <trkpt lat="43.58224" lon="3.06471">
        <ele>182.705868</ele>
        <time>2025-10-23T14:56:00Z</time>
      </trkpt>
      <trkpt lat="43.58221" lon="3.06467">
        <ele>182.705868</ele>
        <time>2025-10-23T14:56:01Z</time>
      </trkpt>
      <trkpt lat="43.58218" lon="3.06463">
        <ele>182.705868</ele>
        <time>2025-10-23T14:56:02Z</time>
      </trkpt>
      <trkpt lat="43.58215" lon="3.0646">
        <ele>182.705868</ele>
        <time>2025-10-23T14:56:03Z</time>
      </trkpt>
      <trkpt lat="43.58212" lon="3.06455">
        <ele>182.705868</ele>
        <time>2025-10-23T14:56:04Z</time>
      </trkpt>
      <trkpt lat="43.58211" lon="3.0645">
        <ele>182.705868</ele>
        <time>2025-10-23T14:56:05Z</time>
      </trkpt>
      <trkpt lat="43.5821" lon="3.06446">
        <ele>182.705868</ele>
        <time>2025-10-23T14:56:06Z</time>
      </trkpt>
      <trkpt lat="43.58207" lon="3.06444">
        <ele>182.705868</ele>
        <time>2025-10-23T14:56:07Z</time>
      </trkpt>
      <trkpt lat="43.58204" lon="3.06442">
        <ele>182.705868</ele>
        <time>2025-10-23T14:56:08Z</time>
      </trkpt>
      <trkpt lat="43.58202" lon="3.06439">
        <ele>182.705868</ele>
        <time>2025-10-23T14:56:09Z</time>
      </trkpt>
      <trkpt lat="43.58199" lon="3.06436">
        <ele>182.705868</ele>
        <time>2025-10-23T14:56:10Z</time>
      </trkpt>
      <trkpt lat="43.58197" lon="3.06433">
        <ele>182.705868</ele>
        <time>2025-10-23T14:56:11Z</time>
      </trkpt>
      <trkpt lat="43.58196" lon="3.0643">
        <ele>182.705868</ele>
        <time>2025-10-23T14:56:12Z</time>
      </trkpt>
      <trkpt lat="43.58195" lon="3.06427">
        <ele>182.705868</ele>
        <time>2025-10-23T14:56:13Z</time>
      </trkpt>
      <trkpt lat="43.58194" lon="3.06423">
        <ele>182.705868</ele>
        <time>2025-10-23T14:56:14Z</time>
      </trkpt>
      <trkpt lat="43.58193" lon="3.06419">
        <ele>182.705868</ele>
        <time>2025-10-23T14:56:15Z</time>
      </trkpt>
      <trkpt lat="43.58193" lon="3.06415">
        <ele>182.705868</ele>
        <time>2025-10-23T14:56:16Z</time>
      </trkpt>
      <trkpt lat="43.58191" lon="3.06411">
        <ele>182.705868</ele>
        <time>2025-10-23T14:56:17Z</time>
      </trkpt>
      <trkpt lat="43.5819" lon="3.06408">
        <ele>182.705868</ele>
        <time>2025-10-23T14:56:18Z</time>
      </trkpt>
      <trkpt lat="43.58188" lon="3.06406">
        <ele>182.705868</ele>
        <time>2025-10-23T14:56:19Z</time>
      </trkpt>
      <trkpt lat="43.58185" lon="3.06405">
        <ele>182.705868</ele>
        <time>2025-10-23T14:56:20Z</time>
      </trkpt>
      <trkpt lat="43.58183" lon="3.06406">
        <ele>182.705868</ele>
        <time>2025-10-23T14:56:21Z</time>
      </trkpt>
      <trkpt lat="43.58182" lon="3.06406">
        <ele>182.705868</ele>
        <time>2025-10-23T14:56:22Z</time>
      </trkpt>
      <trkpt lat="43.58182" lon="3.06406">
        <ele>182.705868</ele>
        <time>2025-10-23T14:56:23Z</time>
      </trkpt>
      <trkpt lat="43.58182" lon="3.06406">
        <ele>182.705868</ele>
        <time>2025-10-23T14:56:24Z</time>
      </trkpt>
      <trkpt lat="43.58182" lon="3.06406">
        <ele>182.705868</ele>
        <time>2025-10-23T14:56:25Z</time>
      </trkpt>
      <trkpt lat="43.58182" lon="3.06406">
        <ele>182.705868</ele>
        <time>2025-10-23T14:56:26Z</time>
      </trkpt>
      <trkpt lat="43.58182" lon="3.06406">
        <ele>182.705868</ele>
        <time>2025-10-23T14:56:27Z</time>
      </trkpt>
      <trkpt lat="43.58182" lon="3.06406">
        <ele>182.705868</ele>
        <time>2025-10-23T14:56:28Z</time>
      </trkpt>
      <trkpt lat="43.58182" lon="3.06406">
        <ele>182.705868</ele>
        <time>2025-10-23T14:56:29Z</time>
      </trkpt>
      <trkpt lat="43.58182" lon="3.06406">
        <ele>182.705868</ele>
        <time>2025-10-23T14:56:31Z</time>
      </trkpt>
      <trkpt lat="43.58182" lon="3.06406">
        <ele>182.705868</ele>
        <time>2025-10-23T14:56:32Z</time>
      </trkpt>
      <trkpt lat="43.58181" lon="3.06406">
        <ele>182.705868</ele>
        <time>2025-10-23T14:56:33Z</time>
      </trkpt>
      <trkpt lat="43.58181" lon="3.06406">
        <ele>182.705868</ele>
        <time>2025-10-23T14:56:34Z</time>
      </trkpt>
    </trkseg>
  </trk>
</gpx>